<?xml version="1.0" encoding="UTF-8" standalone="no" ?>
<gpx xmlns="http://www.topografix.com/GPX/1/1" xmlns:xsi="http://www.w3.org/2001/XMLSchema-instance" xsi:schemaLocation="http://www.topografix.com/GPX/1/1 http://www.topografix.com/GPX/1/1/gpx.xsd" version="1.1" creator="VisuGPX - https://www.visugpx.com">
  <metadata>
    <name>Grenoble Trail - 2021-07-24</name>
    <desc><![CDATA[Ile Verte - Bastille - Jalla - Mont Rachais - Sous le Mont - La Frette - Les Granges - La Bergerie - Bec Aigu - Bec du Corbeau - Les Adrets - Bastille - Ile Verte]]></desc>
  </metadata>
  <trk>
    <name><![CDATA[Grenoble Trail]]></name>
    <trkseg>
      <trkpt lat="45.19674" lon="5.73988">
        <ele>245.60000610352</ele>
        <time>2021-07-24T03:17:09.000Z</time>
      </trkpt>
      <trkpt lat="45.19674" lon="5.73989">
        <ele>245.60000610352</ele>
        <time>2021-07-24T03:17:10.000Z</time>
      </trkpt>
      <trkpt lat="45.19667" lon="5.73991">
        <ele>246.19999694824</ele>
        <time>2021-07-24T03:17:16.000Z</time>
      </trkpt>
      <trkpt lat="45.19663" lon="5.73996">
        <ele>246</ele>
        <time>2021-07-24T03:17:20.000Z</time>
      </trkpt>
      <trkpt lat="45.19659" lon="5.73996">
        <ele>246</ele>
        <time>2021-07-24T03:17:23.000Z</time>
      </trkpt>
      <trkpt lat="45.19658" lon="5.73995">
        <ele>246.19999694824</ele>
        <time>2021-07-24T03:17:25.000Z</time>
      </trkpt>
      <trkpt lat="45.19657" lon="5.73995">
        <ele>246</ele>
        <time>2021-07-24T03:17:27.000Z</time>
      </trkpt>
      <trkpt lat="45.19657" lon="5.73995">
        <ele>246</ele>
        <time>2021-07-24T03:17:28.000Z</time>
      </trkpt>
      <trkpt lat="45.19659" lon="5.73994">
        <ele>246</ele>
        <time>2021-07-24T03:17:31.000Z</time>
      </trkpt>
      <trkpt lat="45.19655" lon="5.73994">
        <ele>246.19999694824</ele>
        <time>2021-07-24T03:17:35.000Z</time>
      </trkpt>
      <trkpt lat="45.19653" lon="5.73993">
        <ele>245</ele>
        <time>2021-07-24T03:17:42.000Z</time>
      </trkpt>
      <trkpt lat="45.19651" lon="5.73993">
        <ele>243.80000305176</ele>
        <time>2021-07-24T03:17:46.000Z</time>
      </trkpt>
      <trkpt lat="45.19647" lon="5.73992">
        <ele>242.60000610352</ele>
        <time>2021-07-24T03:17:50.000Z</time>
      </trkpt>
      <trkpt lat="45.19646" lon="5.73991">
        <ele>242.60000610352</ele>
        <time>2021-07-24T03:17:51.000Z</time>
      </trkpt>
      <trkpt lat="45.19645" lon="5.7399">
        <ele>242.19999694824</ele>
        <time>2021-07-24T03:17:54.000Z</time>
      </trkpt>
      <trkpt lat="45.19645" lon="5.73988">
        <ele>241.60000610352</ele>
        <time>2021-07-24T03:17:56.000Z</time>
      </trkpt>
      <trkpt lat="45.19644" lon="5.73987">
        <ele>241.19999694824</ele>
        <time>2021-07-24T03:17:57.000Z</time>
      </trkpt>
      <trkpt lat="45.19643" lon="5.73986">
        <ele>240.39999389648</ele>
        <time>2021-07-24T03:17:59.000Z</time>
      </trkpt>
      <trkpt lat="45.19642" lon="5.73986">
        <ele>240.19999694824</ele>
        <time>2021-07-24T03:18:01.000Z</time>
      </trkpt>
      <trkpt lat="45.19642" lon="5.73979">
        <ele>239.80000305176</ele>
        <time>2021-07-24T03:18:07.000Z</time>
      </trkpt>
      <trkpt lat="45.19646" lon="5.73978">
        <ele>239.80000305176</ele>
        <time>2021-07-24T03:18:12.000Z</time>
      </trkpt>
      <trkpt lat="45.19652" lon="5.73977">
        <ele>240</ele>
        <time>2021-07-24T03:18:15.000Z</time>
      </trkpt>
      <trkpt lat="45.19654" lon="5.73978">
        <ele>240</ele>
        <time>2021-07-24T03:18:16.000Z</time>
      </trkpt>
      <trkpt lat="45.19659" lon="5.73979">
        <ele>240</ele>
        <time>2021-07-24T03:18:18.000Z</time>
      </trkpt>
      <trkpt lat="45.19662" lon="5.73978">
        <ele>240</ele>
        <time>2021-07-24T03:18:20.000Z</time>
      </trkpt>
      <trkpt lat="45.19662" lon="5.73977">
        <ele>239.80000305176</ele>
        <time>2021-07-24T03:18:21.000Z</time>
      </trkpt>
      <trkpt lat="45.19662" lon="5.73975">
        <ele>239.80000305176</ele>
        <time>2021-07-24T03:18:22.000Z</time>
      </trkpt>
      <trkpt lat="45.19665" lon="5.73972">
        <ele>239.80000305176</ele>
        <time>2021-07-24T03:18:24.000Z</time>
      </trkpt>
      <trkpt lat="45.19668" lon="5.73969">
        <ele>239.80000305176</ele>
        <time>2021-07-24T03:18:26.000Z</time>
      </trkpt>
      <trkpt lat="45.19669" lon="5.73966">
        <ele>239.80000305176</ele>
        <time>2021-07-24T03:18:28.000Z</time>
      </trkpt>
      <trkpt lat="45.19671" lon="5.73964">
        <ele>240</ele>
        <time>2021-07-24T03:18:31.000Z</time>
      </trkpt>
      <trkpt lat="45.19678" lon="5.73966">
        <ele>240</ele>
        <time>2021-07-24T03:18:34.000Z</time>
      </trkpt>
      <trkpt lat="45.1968" lon="5.73966">
        <ele>240.19999694824</ele>
        <time>2021-07-24T03:18:35.000Z</time>
      </trkpt>
      <trkpt lat="45.19685" lon="5.73973">
        <ele>240.19999694824</ele>
        <time>2021-07-24T03:18:39.000Z</time>
      </trkpt>
      <trkpt lat="45.19686" lon="5.73975">
        <ele>240</ele>
        <time>2021-07-24T03:18:40.000Z</time>
      </trkpt>
      <trkpt lat="45.19685" lon="5.73985">
        <ele>240</ele>
        <time>2021-07-24T03:18:45.000Z</time>
      </trkpt>
      <trkpt lat="45.19686" lon="5.73987">
        <ele>240</ele>
        <time>2021-07-24T03:18:46.000Z</time>
      </trkpt>
      <trkpt lat="45.19688" lon="5.73998">
        <ele>240</ele>
        <time>2021-07-24T03:18:50.000Z</time>
      </trkpt>
      <trkpt lat="45.1969" lon="5.74001">
        <ele>240</ele>
        <time>2021-07-24T03:18:51.000Z</time>
      </trkpt>
      <trkpt lat="45.19692" lon="5.74002">
        <ele>240</ele>
        <time>2021-07-24T03:18:52.000Z</time>
      </trkpt>
      <trkpt lat="45.19702" lon="5.74013">
        <ele>240</ele>
        <time>2021-07-24T03:18:56.000Z</time>
      </trkpt>
      <trkpt lat="45.19712" lon="5.74027">
        <ele>240.19999694824</ele>
        <time>2021-07-24T03:19:01.000Z</time>
      </trkpt>
      <trkpt lat="45.19712" lon="5.74031">
        <ele>240.19999694824</ele>
        <time>2021-07-24T03:19:02.000Z</time>
      </trkpt>
      <trkpt lat="45.1971" lon="5.74041">
        <ele>240.19999694824</ele>
        <time>2021-07-24T03:19:05.000Z</time>
      </trkpt>
      <trkpt lat="45.19711" lon="5.74051">
        <ele>240.19999694824</ele>
        <time>2021-07-24T03:19:08.000Z</time>
      </trkpt>
      <trkpt lat="45.19711" lon="5.74067">
        <ele>240</ele>
        <time>2021-07-24T03:19:12.000Z</time>
      </trkpt>
      <trkpt lat="45.19718" lon="5.7409">
        <ele>240.39999389648</ele>
        <time>2021-07-24T03:19:19.000Z</time>
      </trkpt>
      <trkpt lat="45.19721" lon="5.741">
        <ele>240.19999694824</ele>
        <time>2021-07-24T03:19:22.000Z</time>
      </trkpt>
      <trkpt lat="45.19721" lon="5.7411">
        <ele>240.19999694824</ele>
        <time>2021-07-24T03:19:25.000Z</time>
      </trkpt>
      <trkpt lat="45.19722" lon="5.74135">
        <ele>240.39999389648</ele>
        <time>2021-07-24T03:19:33.000Z</time>
      </trkpt>
      <trkpt lat="45.19726" lon="5.74148">
        <ele>240.19999694824</ele>
        <time>2021-07-24T03:19:37.000Z</time>
      </trkpt>
      <trkpt lat="45.19729" lon="5.74154">
        <ele>240.19999694824</ele>
        <time>2021-07-24T03:19:39.000Z</time>
      </trkpt>
      <trkpt lat="45.19736" lon="5.74179">
        <ele>240.39999389648</ele>
        <time>2021-07-24T03:19:46.000Z</time>
      </trkpt>
      <trkpt lat="45.19736" lon="5.74182">
        <ele>240.19999694824</ele>
        <time>2021-07-24T03:19:47.000Z</time>
      </trkpt>
      <trkpt lat="45.19739" lon="5.74191">
        <ele>240.39999389648</ele>
        <time>2021-07-24T03:19:50.000Z</time>
      </trkpt>
      <trkpt lat="45.19738" lon="5.74194">
        <ele>240.19999694824</ele>
        <time>2021-07-24T03:19:51.000Z</time>
      </trkpt>
      <trkpt lat="45.19738" lon="5.74197">
        <ele>240.19999694824</ele>
        <time>2021-07-24T03:19:52.000Z</time>
      </trkpt>
      <trkpt lat="45.19737" lon="5.74208">
        <ele>240.39999389648</ele>
        <time>2021-07-24T03:19:55.000Z</time>
      </trkpt>
      <trkpt lat="45.19739" lon="5.74225">
        <ele>239.80000305176</ele>
        <time>2021-07-24T03:20:01.000Z</time>
      </trkpt>
      <trkpt lat="45.19739" lon="5.74232">
        <ele>240.39999389648</ele>
        <time>2021-07-24T03:20:03.000Z</time>
      </trkpt>
      <trkpt lat="45.19734" lon="5.74236">
        <ele>240.39999389648</ele>
        <time>2021-07-24T03:20:05.000Z</time>
      </trkpt>
      <trkpt lat="45.19716" lon="5.74243">
        <ele>240.60000610352</ele>
        <time>2021-07-24T03:20:11.000Z</time>
      </trkpt>
      <trkpt lat="45.19708" lon="5.74245">
        <ele>240.60000610352</ele>
        <time>2021-07-24T03:20:14.000Z</time>
      </trkpt>
      <trkpt lat="45.19692" lon="5.74251">
        <ele>240.60000610352</ele>
        <time>2021-07-24T03:20:20.000Z</time>
      </trkpt>
      <trkpt lat="45.1968" lon="5.74252">
        <ele>240.39999389648</ele>
        <time>2021-07-24T03:20:23.000Z</time>
      </trkpt>
      <trkpt lat="45.19674" lon="5.74252">
        <ele>240.60000610352</ele>
        <time>2021-07-24T03:20:26.000Z</time>
      </trkpt>
      <trkpt lat="45.19665" lon="5.74251">
        <ele>240.60000610352</ele>
        <time>2021-07-24T03:20:29.000Z</time>
      </trkpt>
      <trkpt lat="45.19644" lon="5.74251">
        <ele>240.60000610352</ele>
        <time>2021-07-24T03:20:36.000Z</time>
      </trkpt>
      <trkpt lat="45.19642" lon="5.74251">
        <ele>240.60000610352</ele>
        <time>2021-07-24T03:20:37.000Z</time>
      </trkpt>
      <trkpt lat="45.19621" lon="5.74249">
        <ele>240.80000305176</ele>
        <time>2021-07-24T03:20:45.000Z</time>
      </trkpt>
      <trkpt lat="45.19614" lon="5.7425">
        <ele>240.80000305176</ele>
        <time>2021-07-24T03:20:47.000Z</time>
      </trkpt>
      <trkpt lat="45.19593" lon="5.74247">
        <ele>241.19999694824</ele>
        <time>2021-07-24T03:20:55.000Z</time>
      </trkpt>
      <trkpt lat="45.1959" lon="5.74247">
        <ele>241.19999694824</ele>
        <time>2021-07-24T03:20:56.000Z</time>
      </trkpt>
      <trkpt lat="45.19571" lon="5.74243">
        <ele>241.39999389648</ele>
        <time>2021-07-24T03:21:04.000Z</time>
      </trkpt>
      <trkpt lat="45.19569" lon="5.74243">
        <ele>241</ele>
        <time>2021-07-24T03:21:05.000Z</time>
      </trkpt>
      <trkpt lat="45.19562" lon="5.74243">
        <ele>241</ele>
        <time>2021-07-24T03:21:08.000Z</time>
      </trkpt>
      <trkpt lat="45.19553" lon="5.74241">
        <ele>241.19999694824</ele>
        <time>2021-07-24T03:21:12.000Z</time>
      </trkpt>
      <trkpt lat="45.19535" lon="5.74237">
        <ele>241.19999694824</ele>
        <time>2021-07-24T03:21:19.000Z</time>
      </trkpt>
      <trkpt lat="45.1953" lon="5.74236">
        <ele>241.60000610352</ele>
        <time>2021-07-24T03:21:21.000Z</time>
      </trkpt>
      <trkpt lat="45.19515" lon="5.74229">
        <ele>241.80000305176</ele>
        <time>2021-07-24T03:21:27.000Z</time>
      </trkpt>
      <trkpt lat="45.19507" lon="5.74226">
        <ele>242.80000305176</ele>
        <time>2021-07-24T03:21:31.000Z</time>
      </trkpt>
      <trkpt lat="45.19497" lon="5.74223">
        <ele>243</ele>
        <time>2021-07-24T03:21:35.000Z</time>
      </trkpt>
      <trkpt lat="45.19484" lon="5.74218">
        <ele>243.19999694824</ele>
        <time>2021-07-24T03:21:40.000Z</time>
      </trkpt>
      <trkpt lat="45.19475" lon="5.74214">
        <ele>243.19999694824</ele>
        <time>2021-07-24T03:21:43.000Z</time>
      </trkpt>
      <trkpt lat="45.19456" lon="5.74208">
        <ele>243.39999389648</ele>
        <time>2021-07-24T03:21:51.000Z</time>
      </trkpt>
      <trkpt lat="45.19438" lon="5.74199">
        <ele>243.80000305176</ele>
        <time>2021-07-24T03:21:59.000Z</time>
      </trkpt>
      <trkpt lat="45.19423" lon="5.74194">
        <ele>243.60000610352</ele>
        <time>2021-07-24T03:22:05.000Z</time>
      </trkpt>
      <trkpt lat="45.19411" lon="5.74189">
        <ele>243.39999389648</ele>
        <time>2021-07-24T03:22:10.000Z</time>
      </trkpt>
      <trkpt lat="45.194" lon="5.74186">
        <ele>243.60000610352</ele>
        <time>2021-07-24T03:22:14.000Z</time>
      </trkpt>
      <trkpt lat="45.19382" lon="5.74182">
        <ele>243.39999389648</ele>
        <time>2021-07-24T03:22:21.000Z</time>
      </trkpt>
      <trkpt lat="45.19379" lon="5.74181">
        <ele>243.39999389648</ele>
        <time>2021-07-24T03:22:22.000Z</time>
      </trkpt>
      <trkpt lat="45.19361" lon="5.74176">
        <ele>243.80000305176</ele>
        <time>2021-07-24T03:22:29.000Z</time>
      </trkpt>
      <trkpt lat="45.19343" lon="5.74175">
        <ele>243.60000610352</ele>
        <time>2021-07-24T03:22:37.000Z</time>
      </trkpt>
      <trkpt lat="45.19324" lon="5.74171">
        <ele>243.80000305176</ele>
        <time>2021-07-24T03:22:44.000Z</time>
      </trkpt>
      <trkpt lat="45.19305" lon="5.74168">
        <ele>243.80000305176</ele>
        <time>2021-07-24T03:22:51.000Z</time>
      </trkpt>
      <trkpt lat="45.19303" lon="5.74167">
        <ele>243.80000305176</ele>
        <time>2021-07-24T03:22:52.000Z</time>
      </trkpt>
      <trkpt lat="45.19288" lon="5.74163">
        <ele>244</ele>
        <time>2021-07-24T03:22:58.000Z</time>
      </trkpt>
      <trkpt lat="45.19274" lon="5.74159">
        <ele>243.80000305176</ele>
        <time>2021-07-24T03:23:04.000Z</time>
      </trkpt>
      <trkpt lat="45.19266" lon="5.74158">
        <ele>243.60000610352</ele>
        <time>2021-07-24T03:23:09.000Z</time>
      </trkpt>
      <trkpt lat="45.19268" lon="5.74156">
        <ele>243.80000305176</ele>
        <time>2021-07-24T03:23:12.000Z</time>
      </trkpt>
      <trkpt lat="45.19272" lon="5.74156">
        <ele>243.80000305176</ele>
        <time>2021-07-24T03:23:14.000Z</time>
      </trkpt>
      <trkpt lat="45.1928" lon="5.74147">
        <ele>243.80000305176</ele>
        <time>2021-07-24T03:23:19.000Z</time>
      </trkpt>
      <trkpt lat="45.19299" lon="5.74147">
        <ele>244.39999389648</ele>
        <time>2021-07-24T03:23:26.000Z</time>
      </trkpt>
      <trkpt lat="45.19307" lon="5.7415">
        <ele>244</ele>
        <time>2021-07-24T03:23:29.000Z</time>
      </trkpt>
      <trkpt lat="45.19325" lon="5.7415">
        <ele>244.19999694824</ele>
        <time>2021-07-24T03:23:37.000Z</time>
      </trkpt>
      <trkpt lat="45.1933" lon="5.7415">
        <ele>244.19999694824</ele>
        <time>2021-07-24T03:23:39.000Z</time>
      </trkpt>
      <trkpt lat="45.19348" lon="5.74152">
        <ele>244.39999389648</ele>
        <time>2021-07-24T03:23:46.000Z</time>
      </trkpt>
      <trkpt lat="45.19352" lon="5.74153">
        <ele>244.39999389648</ele>
        <time>2021-07-24T03:23:48.000Z</time>
      </trkpt>
      <trkpt lat="45.19366" lon="5.74152">
        <ele>244.19999694824</ele>
        <time>2021-07-24T03:23:54.000Z</time>
      </trkpt>
      <trkpt lat="45.19383" lon="5.74155">
        <ele>244</ele>
        <time>2021-07-24T03:24:01.000Z</time>
      </trkpt>
      <trkpt lat="45.19386" lon="5.74157">
        <ele>244.19999694824</ele>
        <time>2021-07-24T03:24:02.000Z</time>
      </trkpt>
      <trkpt lat="45.19396" lon="5.74161">
        <ele>244</ele>
        <time>2021-07-24T03:24:06.000Z</time>
      </trkpt>
      <trkpt lat="45.19407" lon="5.74165">
        <ele>244.19999694824</ele>
        <time>2021-07-24T03:24:10.000Z</time>
      </trkpt>
      <trkpt lat="45.19425" lon="5.74171">
        <ele>244.39999389648</ele>
        <time>2021-07-24T03:24:16.000Z</time>
      </trkpt>
      <trkpt lat="45.19429" lon="5.74171">
        <ele>244.39999389648</ele>
        <time>2021-07-24T03:24:18.000Z</time>
      </trkpt>
      <trkpt lat="45.19444" lon="5.74176">
        <ele>244.39999389648</ele>
        <time>2021-07-24T03:24:24.000Z</time>
      </trkpt>
      <trkpt lat="45.19464" lon="5.74181">
        <ele>244.39999389648</ele>
        <time>2021-07-24T03:24:32.000Z</time>
      </trkpt>
      <trkpt lat="45.19483" lon="5.74189">
        <ele>244.39999389648</ele>
        <time>2021-07-24T03:24:39.000Z</time>
      </trkpt>
      <trkpt lat="45.19485" lon="5.7419">
        <ele>244.39999389648</ele>
        <time>2021-07-24T03:24:40.000Z</time>
      </trkpt>
      <trkpt lat="45.19503" lon="5.74196">
        <ele>244.19999694824</ele>
        <time>2021-07-24T03:24:47.000Z</time>
      </trkpt>
      <trkpt lat="45.19509" lon="5.74199">
        <ele>244.19999694824</ele>
        <time>2021-07-24T03:24:49.000Z</time>
      </trkpt>
      <trkpt lat="45.19528" lon="5.74209">
        <ele>243.80000305176</ele>
        <time>2021-07-24T03:24:56.000Z</time>
      </trkpt>
      <trkpt lat="45.19537" lon="5.74212">
        <ele>243.80000305176</ele>
        <time>2021-07-24T03:24:59.000Z</time>
      </trkpt>
      <trkpt lat="45.19557" lon="5.74214">
        <ele>243.60000610352</ele>
        <time>2021-07-24T03:25:08.000Z</time>
      </trkpt>
      <trkpt lat="45.1957" lon="5.74222">
        <ele>243.60000610352</ele>
        <time>2021-07-24T03:25:12.000Z</time>
      </trkpt>
      <trkpt lat="45.1959" lon="5.74227">
        <ele>243.80000305176</ele>
        <time>2021-07-24T03:25:19.000Z</time>
      </trkpt>
      <trkpt lat="45.19604" lon="5.74231">
        <ele>244</ele>
        <time>2021-07-24T03:25:24.000Z</time>
      </trkpt>
      <trkpt lat="45.19609" lon="5.74233">
        <ele>243.60000610352</ele>
        <time>2021-07-24T03:25:26.000Z</time>
      </trkpt>
      <trkpt lat="45.19629" lon="5.74234">
        <ele>244</ele>
        <time>2021-07-24T03:25:34.000Z</time>
      </trkpt>
      <trkpt lat="45.19648" lon="5.74234">
        <ele>244.19999694824</ele>
        <time>2021-07-24T03:25:42.000Z</time>
      </trkpt>
      <trkpt lat="45.19666" lon="5.74234">
        <ele>243.80000305176</ele>
        <time>2021-07-24T03:25:49.000Z</time>
      </trkpt>
      <trkpt lat="45.19669" lon="5.74233">
        <ele>243.80000305176</ele>
        <time>2021-07-24T03:25:50.000Z</time>
      </trkpt>
      <trkpt lat="45.19679" lon="5.74231">
        <ele>243.60000610352</ele>
        <time>2021-07-24T03:25:54.000Z</time>
      </trkpt>
      <trkpt lat="45.19688" lon="5.74233">
        <ele>243.60000610352</ele>
        <time>2021-07-24T03:25:57.000Z</time>
      </trkpt>
      <trkpt lat="45.19706" lon="5.74234">
        <ele>243.80000305176</ele>
        <time>2021-07-24T03:26:04.000Z</time>
      </trkpt>
      <trkpt lat="45.19709" lon="5.74234">
        <ele>244</ele>
        <time>2021-07-24T03:26:05.000Z</time>
      </trkpt>
      <trkpt lat="45.1972" lon="5.74231">
        <ele>244</ele>
        <time>2021-07-24T03:26:09.000Z</time>
      </trkpt>
      <trkpt lat="45.19732" lon="5.7423">
        <ele>243.60000610352</ele>
        <time>2021-07-24T03:26:13.000Z</time>
      </trkpt>
      <trkpt lat="45.19751" lon="5.74229">
        <ele>243.60000610352</ele>
        <time>2021-07-24T03:26:20.000Z</time>
      </trkpt>
      <trkpt lat="45.19753" lon="5.74229">
        <ele>243.60000610352</ele>
        <time>2021-07-24T03:26:21.000Z</time>
      </trkpt>
      <trkpt lat="45.19772" lon="5.74228">
        <ele>243.60000610352</ele>
        <time>2021-07-24T03:26:28.000Z</time>
      </trkpt>
      <trkpt lat="45.19778" lon="5.74227">
        <ele>243.60000610352</ele>
        <time>2021-07-24T03:26:30.000Z</time>
      </trkpt>
      <trkpt lat="45.19797" lon="5.74228">
        <ele>243.19999694824</ele>
        <time>2021-07-24T03:26:37.000Z</time>
      </trkpt>
      <trkpt lat="45.19799" lon="5.74228">
        <ele>243.19999694824</ele>
        <time>2021-07-24T03:26:38.000Z</time>
      </trkpt>
      <trkpt lat="45.19818" lon="5.74221">
        <ele>243.39999389648</ele>
        <time>2021-07-24T03:26:46.000Z</time>
      </trkpt>
      <trkpt lat="45.1982" lon="5.7422">
        <ele>243.39999389648</ele>
        <time>2021-07-24T03:26:47.000Z</time>
      </trkpt>
      <trkpt lat="45.19839" lon="5.74217">
        <ele>243.60000610352</ele>
        <time>2021-07-24T03:26:52.000Z</time>
      </trkpt>
      <trkpt lat="45.19843" lon="5.74216">
        <ele>243.60000610352</ele>
        <time>2021-07-24T03:26:53.000Z</time>
      </trkpt>
      <trkpt lat="45.19855" lon="5.7421">
        <ele>243.19999694824</ele>
        <time>2021-07-24T03:26:58.000Z</time>
      </trkpt>
      <trkpt lat="45.19866" lon="5.74201">
        <ele>243.60000610352</ele>
        <time>2021-07-24T03:27:03.000Z</time>
      </trkpt>
      <trkpt lat="45.19881" lon="5.74192">
        <ele>243.60000610352</ele>
        <time>2021-07-24T03:27:09.000Z</time>
      </trkpt>
      <trkpt lat="45.19885" lon="5.74188">
        <ele>243.60000610352</ele>
        <time>2021-07-24T03:27:11.000Z</time>
      </trkpt>
      <trkpt lat="45.19905" lon="5.74181">
        <ele>243.60000610352</ele>
        <time>2021-07-24T03:27:19.000Z</time>
      </trkpt>
      <trkpt lat="45.19907" lon="5.74179">
        <ele>243.80000305176</ele>
        <time>2021-07-24T03:27:20.000Z</time>
      </trkpt>
      <trkpt lat="45.19921" lon="5.74167">
        <ele>243.60000610352</ele>
        <time>2021-07-24T03:27:26.000Z</time>
      </trkpt>
      <trkpt lat="45.19937" lon="5.74152">
        <ele>243.19999694824</ele>
        <time>2021-07-24T03:27:33.000Z</time>
      </trkpt>
      <trkpt lat="45.19939" lon="5.7415">
        <ele>243.19999694824</ele>
        <time>2021-07-24T03:27:34.000Z</time>
      </trkpt>
      <trkpt lat="45.19955" lon="5.74135">
        <ele>243.60000610352</ele>
        <time>2021-07-24T03:27:41.000Z</time>
      </trkpt>
      <trkpt lat="45.1996" lon="5.7413">
        <ele>243.39999389648</ele>
        <time>2021-07-24T03:27:43.000Z</time>
      </trkpt>
      <trkpt lat="45.19968" lon="5.74122">
        <ele>243.39999389648</ele>
        <time>2021-07-24T03:27:46.000Z</time>
      </trkpt>
      <trkpt lat="45.19976" lon="5.74114">
        <ele>243.39999389648</ele>
        <time>2021-07-24T03:27:50.000Z</time>
      </trkpt>
      <trkpt lat="45.19984" lon="5.74108">
        <ele>242.19999694824</ele>
        <time>2021-07-24T03:27:54.000Z</time>
      </trkpt>
      <trkpt lat="45.19991" lon="5.74102">
        <ele>242</ele>
        <time>2021-07-24T03:27:57.000Z</time>
      </trkpt>
      <trkpt lat="45.19995" lon="5.74097">
        <ele>241.39999389648</ele>
        <time>2021-07-24T03:27:59.000Z</time>
      </trkpt>
      <trkpt lat="45.20003" lon="5.74087">
        <ele>241.19999694824</ele>
        <time>2021-07-24T03:28:03.000Z</time>
      </trkpt>
      <trkpt lat="45.2001" lon="5.74082">
        <ele>241</ele>
        <time>2021-07-24T03:28:06.000Z</time>
      </trkpt>
      <trkpt lat="45.20028" lon="5.74045">
        <ele>240.80000305176</ele>
        <time>2021-07-24T03:28:18.000Z</time>
      </trkpt>
      <trkpt lat="45.20029" lon="5.74042">
        <ele>241</ele>
        <time>2021-07-24T03:28:19.000Z</time>
      </trkpt>
      <trkpt lat="45.20036" lon="5.74037">
        <ele>241.80000305176</ele>
        <time>2021-07-24T03:28:23.000Z</time>
      </trkpt>
      <trkpt lat="45.20037" lon="5.74036">
        <ele>242</ele>
        <time>2021-07-24T03:28:24.000Z</time>
      </trkpt>
      <trkpt lat="45.20038" lon="5.74036">
        <ele>242.39999389648</ele>
        <time>2021-07-24T03:28:25.000Z</time>
      </trkpt>
      <trkpt lat="45.20046" lon="5.74023">
        <ele>243.19999694824</ele>
        <time>2021-07-24T03:28:30.000Z</time>
      </trkpt>
      <trkpt lat="45.20047" lon="5.7402">
        <ele>243.19999694824</ele>
        <time>2021-07-24T03:28:31.000Z</time>
      </trkpt>
      <trkpt lat="45.20048" lon="5.74016">
        <ele>243.19999694824</ele>
        <time>2021-07-24T03:28:32.000Z</time>
      </trkpt>
      <trkpt lat="45.20052" lon="5.74007">
        <ele>243.19999694824</ele>
        <time>2021-07-24T03:28:35.000Z</time>
      </trkpt>
      <trkpt lat="45.20066" lon="5.73997">
        <ele>242.60000610352</ele>
        <time>2021-07-24T03:28:41.000Z</time>
      </trkpt>
      <trkpt lat="45.20083" lon="5.73982">
        <ele>242.39999389648</ele>
        <time>2021-07-24T03:28:49.000Z</time>
      </trkpt>
      <trkpt lat="45.20088" lon="5.73974">
        <ele>242</ele>
        <time>2021-07-24T03:28:52.000Z</time>
      </trkpt>
      <trkpt lat="45.2009" lon="5.73972">
        <ele>242</ele>
        <time>2021-07-24T03:28:53.000Z</time>
      </trkpt>
      <trkpt lat="45.20097" lon="5.73966">
        <ele>241.80000305176</ele>
        <time>2021-07-24T03:28:55.000Z</time>
      </trkpt>
      <trkpt lat="45.2011" lon="5.73946">
        <ele>241.60000610352</ele>
        <time>2021-07-24T03:29:01.000Z</time>
      </trkpt>
      <trkpt lat="45.20112" lon="5.73943">
        <ele>241.60000610352</ele>
        <time>2021-07-24T03:29:02.000Z</time>
      </trkpt>
      <trkpt lat="45.20119" lon="5.73931">
        <ele>242</ele>
        <time>2021-07-24T03:29:06.000Z</time>
      </trkpt>
      <trkpt lat="45.2013" lon="5.73915">
        <ele>242.19999694824</ele>
        <time>2021-07-24T03:29:12.000Z</time>
      </trkpt>
      <trkpt lat="45.20142" lon="5.73896">
        <ele>241.80000305176</ele>
        <time>2021-07-24T03:29:18.000Z</time>
      </trkpt>
      <trkpt lat="45.20153" lon="5.73876">
        <ele>242.19999694824</ele>
        <time>2021-07-24T03:29:24.000Z</time>
      </trkpt>
      <trkpt lat="45.20154" lon="5.73872">
        <ele>242.19999694824</ele>
        <time>2021-07-24T03:29:25.000Z</time>
      </trkpt>
      <trkpt lat="45.20164" lon="5.73847">
        <ele>241.80000305176</ele>
        <time>2021-07-24T03:29:32.000Z</time>
      </trkpt>
      <trkpt lat="45.20168" lon="5.73837">
        <ele>241.80000305176</ele>
        <time>2021-07-24T03:29:35.000Z</time>
      </trkpt>
      <trkpt lat="45.20171" lon="5.73824">
        <ele>241.80000305176</ele>
        <time>2021-07-24T03:29:39.000Z</time>
      </trkpt>
      <trkpt lat="45.20173" lon="5.73814">
        <ele>241.60000610352</ele>
        <time>2021-07-24T03:29:42.000Z</time>
      </trkpt>
      <trkpt lat="45.20175" lon="5.73799">
        <ele>242</ele>
        <time>2021-07-24T03:29:46.000Z</time>
      </trkpt>
      <trkpt lat="45.20176" lon="5.73773">
        <ele>241.80000305176</ele>
        <time>2021-07-24T03:29:53.000Z</time>
      </trkpt>
      <trkpt lat="45.20175" lon="5.73745">
        <ele>241.60000610352</ele>
        <time>2021-07-24T03:30:02.000Z</time>
      </trkpt>
      <trkpt lat="45.20171" lon="5.7372">
        <ele>241.60000610352</ele>
        <time>2021-07-24T03:30:09.000Z</time>
      </trkpt>
      <trkpt lat="45.2017" lon="5.73713">
        <ele>241.39999389648</ele>
        <time>2021-07-24T03:30:11.000Z</time>
      </trkpt>
      <trkpt lat="45.2017" lon="5.73709">
        <ele>241.60000610352</ele>
        <time>2021-07-24T03:30:12.000Z</time>
      </trkpt>
      <trkpt lat="45.2017" lon="5.73702">
        <ele>241.60000610352</ele>
        <time>2021-07-24T03:30:14.000Z</time>
      </trkpt>
      <trkpt lat="45.20164" lon="5.73683">
        <ele>241.60000610352</ele>
        <time>2021-07-24T03:30:20.000Z</time>
      </trkpt>
      <trkpt lat="45.20157" lon="5.73657">
        <ele>241.60000610352</ele>
        <time>2021-07-24T03:30:27.000Z</time>
      </trkpt>
      <trkpt lat="45.2015" lon="5.73633">
        <ele>241.39999389648</ele>
        <time>2021-07-24T03:30:34.000Z</time>
      </trkpt>
      <trkpt lat="45.2014" lon="5.73608">
        <ele>241.60000610352</ele>
        <time>2021-07-24T03:30:42.000Z</time>
      </trkpt>
      <trkpt lat="45.20139" lon="5.73605">
        <ele>241.39999389648</ele>
        <time>2021-07-24T03:30:43.000Z</time>
      </trkpt>
      <trkpt lat="45.20137" lon="5.73602">
        <ele>241.39999389648</ele>
        <time>2021-07-24T03:30:44.000Z</time>
      </trkpt>
      <trkpt lat="45.20132" lon="5.73594">
        <ele>241.39999389648</ele>
        <time>2021-07-24T03:30:47.000Z</time>
      </trkpt>
      <trkpt lat="45.20116" lon="5.73581">
        <ele>241.80000305176</ele>
        <time>2021-07-24T03:30:53.000Z</time>
      </trkpt>
      <trkpt lat="45.20114" lon="5.73578">
        <ele>241.80000305176</ele>
        <time>2021-07-24T03:30:54.000Z</time>
      </trkpt>
      <trkpt lat="45.201" lon="5.73559">
        <ele>241.80000305176</ele>
        <time>2021-07-24T03:31:01.000Z</time>
      </trkpt>
      <trkpt lat="45.20094" lon="5.73548">
        <ele>241.80000305176</ele>
        <time>2021-07-24T03:31:05.000Z</time>
      </trkpt>
      <trkpt lat="45.20089" lon="5.73534">
        <ele>241.60000610352</ele>
        <time>2021-07-24T03:31:09.000Z</time>
      </trkpt>
      <trkpt lat="45.20079" lon="5.73521">
        <ele>241.80000305176</ele>
        <time>2021-07-24T03:31:14.000Z</time>
      </trkpt>
      <trkpt lat="45.20074" lon="5.73517">
        <ele>241.80000305176</ele>
        <time>2021-07-24T03:31:16.000Z</time>
      </trkpt>
      <trkpt lat="45.20055" lon="5.73512">
        <ele>241.60000610352</ele>
        <time>2021-07-24T03:31:22.000Z</time>
      </trkpt>
      <trkpt lat="45.20037" lon="5.73511">
        <ele>241.80000305176</ele>
        <time>2021-07-24T03:31:28.000Z</time>
      </trkpt>
      <trkpt lat="45.20031" lon="5.73509">
        <ele>241.80000305176</ele>
        <time>2021-07-24T03:31:30.000Z</time>
      </trkpt>
      <trkpt lat="45.20022" lon="5.73505">
        <ele>241.39999389648</ele>
        <time>2021-07-24T03:31:33.000Z</time>
      </trkpt>
      <trkpt lat="45.20017" lon="5.73502">
        <ele>241.19999694824</ele>
        <time>2021-07-24T03:31:35.000Z</time>
      </trkpt>
      <trkpt lat="45.20015" lon="5.735">
        <ele>240.80000305176</ele>
        <time>2021-07-24T03:31:36.000Z</time>
      </trkpt>
      <trkpt lat="45.2" lon="5.73487">
        <ele>241</ele>
        <time>2021-07-24T03:31:42.000Z</time>
      </trkpt>
      <trkpt lat="45.19988" lon="5.73476">
        <ele>241.60000610352</ele>
        <time>2021-07-24T03:31:48.000Z</time>
      </trkpt>
      <trkpt lat="45.19983" lon="5.73467">
        <ele>241.60000610352</ele>
        <time>2021-07-24T03:31:51.000Z</time>
      </trkpt>
      <trkpt lat="45.19973" lon="5.73451">
        <ele>241.80000305176</ele>
        <time>2021-07-24T03:31:57.000Z</time>
      </trkpt>
      <trkpt lat="45.19967" lon="5.73448">
        <ele>241.80000305176</ele>
        <time>2021-07-24T03:32:00.000Z</time>
      </trkpt>
      <trkpt lat="45.19957" lon="5.73444">
        <ele>242</ele>
        <time>2021-07-24T03:32:04.000Z</time>
      </trkpt>
      <trkpt lat="45.19955" lon="5.73442">
        <ele>242</ele>
        <time>2021-07-24T03:32:05.000Z</time>
      </trkpt>
      <trkpt lat="45.19942" lon="5.73433">
        <ele>241.80000305176</ele>
        <time>2021-07-24T03:32:11.000Z</time>
      </trkpt>
      <trkpt lat="45.19937" lon="5.73431">
        <ele>242</ele>
        <time>2021-07-24T03:32:13.000Z</time>
      </trkpt>
      <trkpt lat="45.19929" lon="5.73427">
        <ele>241.80000305176</ele>
        <time>2021-07-24T03:32:16.000Z</time>
      </trkpt>
      <trkpt lat="45.19919" lon="5.73421">
        <ele>241.80000305176</ele>
        <time>2021-07-24T03:32:20.000Z</time>
      </trkpt>
      <trkpt lat="45.19912" lon="5.73419">
        <ele>241.80000305176</ele>
        <time>2021-07-24T03:32:23.000Z</time>
      </trkpt>
      <trkpt lat="45.19894" lon="5.73413">
        <ele>242</ele>
        <time>2021-07-24T03:32:32.000Z</time>
      </trkpt>
      <trkpt lat="45.19883" lon="5.73413">
        <ele>241.80000305176</ele>
        <time>2021-07-24T03:32:37.000Z</time>
      </trkpt>
      <trkpt lat="45.19866" lon="5.7341">
        <ele>241.80000305176</ele>
        <time>2021-07-24T03:32:45.000Z</time>
      </trkpt>
      <trkpt lat="45.19846" lon="5.73405">
        <ele>241.80000305176</ele>
        <time>2021-07-24T03:32:52.000Z</time>
      </trkpt>
      <trkpt lat="45.19843" lon="5.73404">
        <ele>241.80000305176</ele>
        <time>2021-07-24T03:32:53.000Z</time>
      </trkpt>
      <trkpt lat="45.19833" lon="5.73401">
        <ele>241.80000305176</ele>
        <time>2021-07-24T03:32:56.000Z</time>
      </trkpt>
      <trkpt lat="45.19823" lon="5.73399">
        <ele>241.60000610352</ele>
        <time>2021-07-24T03:32:59.000Z</time>
      </trkpt>
      <trkpt lat="45.19813" lon="5.73397">
        <ele>241.60000610352</ele>
        <time>2021-07-24T03:33:02.000Z</time>
      </trkpt>
      <trkpt lat="45.19797" lon="5.73394">
        <ele>242</ele>
        <time>2021-07-24T03:33:08.000Z</time>
      </trkpt>
      <trkpt lat="45.19793" lon="5.73392">
        <ele>241.60000610352</ele>
        <time>2021-07-24T03:33:10.000Z</time>
      </trkpt>
      <trkpt lat="45.19776" lon="5.73389">
        <ele>241.19999694824</ele>
        <time>2021-07-24T03:33:16.000Z</time>
      </trkpt>
      <trkpt lat="45.19761" lon="5.73384">
        <ele>242.19999694824</ele>
        <time>2021-07-24T03:33:21.000Z</time>
      </trkpt>
      <trkpt lat="45.19755" lon="5.73383">
        <ele>242.39999389648</ele>
        <time>2021-07-24T03:33:23.000Z</time>
      </trkpt>
      <trkpt lat="45.19751" lon="5.73382">
        <ele>242.39999389648</ele>
        <time>2021-07-24T03:33:25.000Z</time>
      </trkpt>
      <trkpt lat="45.19742" lon="5.73377">
        <ele>242.80000305176</ele>
        <time>2021-07-24T03:33:28.000Z</time>
      </trkpt>
      <trkpt lat="45.1974" lon="5.73376">
        <ele>243</ele>
        <time>2021-07-24T03:33:29.000Z</time>
      </trkpt>
      <trkpt lat="45.19735" lon="5.73375">
        <ele>243.19999694824</ele>
        <time>2021-07-24T03:33:31.000Z</time>
      </trkpt>
      <trkpt lat="45.19731" lon="5.73371">
        <ele>243.39999389648</ele>
        <time>2021-07-24T03:33:33.000Z</time>
      </trkpt>
      <trkpt lat="45.19731" lon="5.73368">
        <ele>243.60000610352</ele>
        <time>2021-07-24T03:33:34.000Z</time>
      </trkpt>
      <trkpt lat="45.19733" lon="5.73356">
        <ele>243.80000305176</ele>
        <time>2021-07-24T03:33:37.000Z</time>
      </trkpt>
      <trkpt lat="45.19736" lon="5.73339">
        <ele>244</ele>
        <time>2021-07-24T03:33:41.000Z</time>
      </trkpt>
      <trkpt lat="45.19741" lon="5.73323">
        <ele>244.39999389648</ele>
        <time>2021-07-24T03:33:45.000Z</time>
      </trkpt>
      <trkpt lat="45.19744" lon="5.73308">
        <ele>244.39999389648</ele>
        <time>2021-07-24T03:33:49.000Z</time>
      </trkpt>
      <trkpt lat="45.19746" lon="5.73294">
        <ele>244.19999694824</ele>
        <time>2021-07-24T03:33:53.000Z</time>
      </trkpt>
      <trkpt lat="45.19747" lon="5.73287">
        <ele>244.19999694824</ele>
        <time>2021-07-24T03:33:55.000Z</time>
      </trkpt>
      <trkpt lat="45.19751" lon="5.73266">
        <ele>243.80000305176</ele>
        <time>2021-07-24T03:34:01.000Z</time>
      </trkpt>
      <trkpt lat="45.1976" lon="5.73243">
        <ele>243.19999694824</ele>
        <time>2021-07-24T03:34:08.000Z</time>
      </trkpt>
      <trkpt lat="45.19762" lon="5.73237">
        <ele>242.80000305176</ele>
        <time>2021-07-24T03:34:10.000Z</time>
      </trkpt>
      <trkpt lat="45.19773" lon="5.73225">
        <ele>242.60000610352</ele>
        <time>2021-07-24T03:34:14.000Z</time>
      </trkpt>
      <trkpt lat="45.19782" lon="5.73206">
        <ele>242.39999389648</ele>
        <time>2021-07-24T03:34:20.000Z</time>
      </trkpt>
      <trkpt lat="45.19778" lon="5.73186">
        <ele>242.19999694824</ele>
        <time>2021-07-24T03:34:26.000Z</time>
      </trkpt>
      <trkpt lat="45.19778" lon="5.73172">
        <ele>242.60000610352</ele>
        <time>2021-07-24T03:34:31.000Z</time>
      </trkpt>
      <trkpt lat="45.19779" lon="5.7317">
        <ele>243.39999389648</ele>
        <time>2021-07-24T03:34:32.000Z</time>
      </trkpt>
      <trkpt lat="45.19781" lon="5.73168">
        <ele>243.60000610352</ele>
        <time>2021-07-24T03:34:33.000Z</time>
      </trkpt>
      <trkpt lat="45.19782" lon="5.73166">
        <ele>244</ele>
        <time>2021-07-24T03:34:34.000Z</time>
      </trkpt>
      <trkpt lat="45.19787" lon="5.73159">
        <ele>245.19999694824</ele>
        <time>2021-07-24T03:34:37.000Z</time>
      </trkpt>
      <trkpt lat="45.19793" lon="5.73152">
        <ele>246.60000610352</ele>
        <time>2021-07-24T03:34:41.000Z</time>
      </trkpt>
      <trkpt lat="45.19796" lon="5.73148">
        <ele>247</ele>
        <time>2021-07-24T03:34:43.000Z</time>
      </trkpt>
      <trkpt lat="45.19798" lon="5.73142">
        <ele>247.39999389648</ele>
        <time>2021-07-24T03:34:45.000Z</time>
      </trkpt>
      <trkpt lat="45.19799" lon="5.7314">
        <ele>247.60000610352</ele>
        <time>2021-07-24T03:34:46.000Z</time>
      </trkpt>
      <trkpt lat="45.19802" lon="5.73134">
        <ele>248.60000610352</ele>
        <time>2021-07-24T03:34:50.000Z</time>
      </trkpt>
      <trkpt lat="45.19804" lon="5.73133">
        <ele>248.80000305176</ele>
        <time>2021-07-24T03:34:51.000Z</time>
      </trkpt>
      <trkpt lat="45.19805" lon="5.7313">
        <ele>249.60000610352</ele>
        <time>2021-07-24T03:34:53.000Z</time>
      </trkpt>
      <trkpt lat="45.19804" lon="5.7313">
        <ele>249.80000305176</ele>
        <time>2021-07-24T03:34:54.000Z</time>
      </trkpt>
      <trkpt lat="45.19802" lon="5.73129">
        <ele>249.80000305176</ele>
        <time>2021-07-24T03:34:55.000Z</time>
      </trkpt>
      <trkpt lat="45.198" lon="5.73128">
        <ele>249.80000305176</ele>
        <time>2021-07-24T03:34:56.000Z</time>
      </trkpt>
      <trkpt lat="45.19797" lon="5.73129">
        <ele>250.19999694824</ele>
        <time>2021-07-24T03:34:59.000Z</time>
      </trkpt>
      <trkpt lat="45.19795" lon="5.73129">
        <ele>250.60000610352</ele>
        <time>2021-07-24T03:35:00.000Z</time>
      </trkpt>
      <trkpt lat="45.19792" lon="5.7313">
        <ele>251</ele>
        <time>2021-07-24T03:35:02.000Z</time>
      </trkpt>
      <trkpt lat="45.19761" lon="5.73108">
        <ele>254</ele>
        <time>2021-07-24T03:35:15.000Z</time>
      </trkpt>
      <trkpt lat="45.19758" lon="5.73105">
        <ele>254.19999694824</ele>
        <time>2021-07-24T03:35:18.000Z</time>
      </trkpt>
      <trkpt lat="45.19755" lon="5.73099">
        <ele>255.19999694824</ele>
        <time>2021-07-24T03:35:21.000Z</time>
      </trkpt>
      <trkpt lat="45.19756" lon="5.73096">
        <ele>255.39999389648</ele>
        <time>2021-07-24T03:35:22.000Z</time>
      </trkpt>
      <trkpt lat="45.19758" lon="5.73091">
        <ele>255.60000610352</ele>
        <time>2021-07-24T03:35:24.000Z</time>
      </trkpt>
      <trkpt lat="45.19763" lon="5.73089">
        <ele>256.39999389648</ele>
        <time>2021-07-24T03:35:27.000Z</time>
      </trkpt>
      <trkpt lat="45.19765" lon="5.73088">
        <ele>256.79998779297</ele>
        <time>2021-07-24T03:35:29.000Z</time>
      </trkpt>
      <trkpt lat="45.19769" lon="5.73088">
        <ele>257</ele>
        <time>2021-07-24T03:35:32.000Z</time>
      </trkpt>
      <trkpt lat="45.19773" lon="5.73088">
        <ele>257.39999389648</ele>
        <time>2021-07-24T03:35:34.000Z</time>
      </trkpt>
      <trkpt lat="45.19775" lon="5.73087">
        <ele>258</ele>
        <time>2021-07-24T03:35:35.000Z</time>
      </trkpt>
      <trkpt lat="45.19782" lon="5.73089">
        <ele>258.39999389648</ele>
        <time>2021-07-24T03:35:39.000Z</time>
      </trkpt>
      <trkpt lat="45.19783" lon="5.73089">
        <ele>258.79998779297</ele>
        <time>2021-07-24T03:35:40.000Z</time>
      </trkpt>
      <trkpt lat="45.19785" lon="5.7309">
        <ele>258.79998779297</ele>
        <time>2021-07-24T03:35:41.000Z</time>
      </trkpt>
      <trkpt lat="45.19788" lon="5.7309">
        <ele>259.39999389648</ele>
        <time>2021-07-24T03:35:43.000Z</time>
      </trkpt>
      <trkpt lat="45.19791" lon="5.73091">
        <ele>259.60000610352</ele>
        <time>2021-07-24T03:35:45.000Z</time>
      </trkpt>
      <trkpt lat="45.19791" lon="5.73091">
        <ele>260</ele>
        <time>2021-07-24T03:35:46.000Z</time>
      </trkpt>
      <trkpt lat="45.19794" lon="5.73091">
        <ele>260.39999389648</ele>
        <time>2021-07-24T03:35:49.000Z</time>
      </trkpt>
      <trkpt lat="45.19796" lon="5.7309">
        <ele>260.60000610352</ele>
        <time>2021-07-24T03:35:51.000Z</time>
      </trkpt>
      <trkpt lat="45.19795" lon="5.7309">
        <ele>261.39999389648</ele>
        <time>2021-07-24T03:35:53.000Z</time>
      </trkpt>
      <trkpt lat="45.19792" lon="5.73087">
        <ele>261.60000610352</ele>
        <time>2021-07-24T03:35:56.000Z</time>
      </trkpt>
      <trkpt lat="45.19789" lon="5.73085">
        <ele>262.60000610352</ele>
        <time>2021-07-24T03:36:01.000Z</time>
      </trkpt>
      <trkpt lat="45.19787" lon="5.73084">
        <ele>262.79998779297</ele>
        <time>2021-07-24T03:36:02.000Z</time>
      </trkpt>
      <trkpt lat="45.19782" lon="5.73083">
        <ele>263.39999389648</ele>
        <time>2021-07-24T03:36:05.000Z</time>
      </trkpt>
      <trkpt lat="45.1978" lon="5.73082">
        <ele>263.79998779297</ele>
        <time>2021-07-24T03:36:07.000Z</time>
      </trkpt>
      <trkpt lat="45.19776" lon="5.73079">
        <ele>264.20001220703</ele>
        <time>2021-07-24T03:36:10.000Z</time>
      </trkpt>
      <trkpt lat="45.19771" lon="5.73078">
        <ele>265</ele>
        <time>2021-07-24T03:36:13.000Z</time>
      </trkpt>
      <trkpt lat="45.19764" lon="5.73074">
        <ele>265.79998779297</ele>
        <time>2021-07-24T03:36:17.000Z</time>
      </trkpt>
      <trkpt lat="45.19762" lon="5.73073">
        <ele>266.20001220703</ele>
        <time>2021-07-24T03:36:18.000Z</time>
      </trkpt>
      <trkpt lat="45.19758" lon="5.73071">
        <ele>266.60000610352</ele>
        <time>2021-07-24T03:36:20.000Z</time>
      </trkpt>
      <trkpt lat="45.19753" lon="5.73067">
        <ele>267</ele>
        <time>2021-07-24T03:36:23.000Z</time>
      </trkpt>
      <trkpt lat="45.19753" lon="5.73065">
        <ele>267.39999389648</ele>
        <time>2021-07-24T03:36:24.000Z</time>
      </trkpt>
      <trkpt lat="45.19754" lon="5.73062">
        <ele>268</ele>
        <time>2021-07-24T03:36:26.000Z</time>
      </trkpt>
      <trkpt lat="45.19759" lon="5.73057">
        <ele>268.39999389648</ele>
        <time>2021-07-24T03:36:30.000Z</time>
      </trkpt>
      <trkpt lat="45.19764" lon="5.73055">
        <ele>268.79998779297</ele>
        <time>2021-07-24T03:36:32.000Z</time>
      </trkpt>
      <trkpt lat="45.19768" lon="5.73052">
        <ele>269.39999389648</ele>
        <time>2021-07-24T03:36:35.000Z</time>
      </trkpt>
      <trkpt lat="45.1977" lon="5.73054">
        <ele>269.79998779297</ele>
        <time>2021-07-24T03:36:37.000Z</time>
      </trkpt>
      <trkpt lat="45.19772" lon="5.73055">
        <ele>270.20001220703</ele>
        <time>2021-07-24T03:36:38.000Z</time>
      </trkpt>
      <trkpt lat="45.19777" lon="5.73054">
        <ele>270.79998779297</ele>
        <time>2021-07-24T03:36:41.000Z</time>
      </trkpt>
      <trkpt lat="45.19778" lon="5.73053">
        <ele>270.79998779297</ele>
        <time>2021-07-24T03:36:42.000Z</time>
      </trkpt>
      <trkpt lat="45.19781" lon="5.73054">
        <ele>271.39999389648</ele>
        <time>2021-07-24T03:36:44.000Z</time>
      </trkpt>
      <trkpt lat="45.19786" lon="5.73057">
        <ele>271.79998779297</ele>
        <time>2021-07-24T03:36:47.000Z</time>
      </trkpt>
      <trkpt lat="45.19788" lon="5.73058">
        <ele>271.79998779297</ele>
        <time>2021-07-24T03:36:48.000Z</time>
      </trkpt>
      <trkpt lat="45.19791" lon="5.73059">
        <ele>272.20001220703</ele>
        <time>2021-07-24T03:36:50.000Z</time>
      </trkpt>
      <trkpt lat="45.19792" lon="5.7306">
        <ele>272.79998779297</ele>
        <time>2021-07-24T03:36:51.000Z</time>
      </trkpt>
      <trkpt lat="45.19793" lon="5.7306">
        <ele>273</ele>
        <time>2021-07-24T03:36:53.000Z</time>
      </trkpt>
      <trkpt lat="45.19791" lon="5.73059">
        <ele>273.20001220703</ele>
        <time>2021-07-24T03:36:55.000Z</time>
      </trkpt>
      <trkpt lat="45.19789" lon="5.73061">
        <ele>273.60000610352</ele>
        <time>2021-07-24T03:36:57.000Z</time>
      </trkpt>
      <trkpt lat="45.19784" lon="5.73062">
        <ele>274.20001220703</ele>
        <time>2021-07-24T03:37:00.000Z</time>
      </trkpt>
      <trkpt lat="45.1978" lon="5.73061">
        <ele>274.79998779297</ele>
        <time>2021-07-24T03:37:02.000Z</time>
      </trkpt>
      <trkpt lat="45.19775" lon="5.73059">
        <ele>275</ele>
        <time>2021-07-24T03:37:05.000Z</time>
      </trkpt>
      <trkpt lat="45.19774" lon="5.73058">
        <ele>275.39999389648</ele>
        <time>2021-07-24T03:37:06.000Z</time>
      </trkpt>
      <trkpt lat="45.19766" lon="5.73051">
        <ele>276.20001220703</ele>
        <time>2021-07-24T03:37:11.000Z</time>
      </trkpt>
      <trkpt lat="45.19764" lon="5.73049">
        <ele>277.20001220703</ele>
        <time>2021-07-24T03:37:13.000Z</time>
      </trkpt>
      <trkpt lat="45.19761" lon="5.73046">
        <ele>277.60000610352</ele>
        <time>2021-07-24T03:37:15.000Z</time>
      </trkpt>
      <trkpt lat="45.1976" lon="5.73045">
        <ele>277.60000610352</ele>
        <time>2021-07-24T03:37:16.000Z</time>
      </trkpt>
      <trkpt lat="45.19754" lon="5.7304">
        <ele>278.39999389648</ele>
        <time>2021-07-24T03:37:20.000Z</time>
      </trkpt>
      <trkpt lat="45.19753" lon="5.73039">
        <ele>278.60000610352</ele>
        <time>2021-07-24T03:37:21.000Z</time>
      </trkpt>
      <trkpt lat="45.19753" lon="5.73038">
        <ele>278.79998779297</ele>
        <time>2021-07-24T03:37:22.000Z</time>
      </trkpt>
      <trkpt lat="45.19756" lon="5.73035">
        <ele>279.39999389648</ele>
        <time>2021-07-24T03:37:26.000Z</time>
      </trkpt>
      <trkpt lat="45.1976" lon="5.73035">
        <ele>279.79998779297</ele>
        <time>2021-07-24T03:37:28.000Z</time>
      </trkpt>
      <trkpt lat="45.19767" lon="5.73034">
        <ele>280.79998779297</ele>
        <time>2021-07-24T03:37:31.000Z</time>
      </trkpt>
      <trkpt lat="45.19773" lon="5.73034">
        <ele>281.20001220703</ele>
        <time>2021-07-24T03:37:34.000Z</time>
      </trkpt>
      <trkpt lat="45.19778" lon="5.73034">
        <ele>281.39999389648</ele>
        <time>2021-07-24T03:37:37.000Z</time>
      </trkpt>
      <trkpt lat="45.1978" lon="5.73034">
        <ele>282</ele>
        <time>2021-07-24T03:37:38.000Z</time>
      </trkpt>
      <trkpt lat="45.19781" lon="5.73034">
        <ele>282</ele>
        <time>2021-07-24T03:37:39.000Z</time>
      </trkpt>
      <trkpt lat="45.19786" lon="5.73036">
        <ele>282.39999389648</ele>
        <time>2021-07-24T03:37:42.000Z</time>
      </trkpt>
      <trkpt lat="45.19789" lon="5.73037">
        <ele>283</ele>
        <time>2021-07-24T03:37:44.000Z</time>
      </trkpt>
      <trkpt lat="45.1979" lon="5.73037">
        <ele>283.79998779297</ele>
        <time>2021-07-24T03:37:45.000Z</time>
      </trkpt>
      <trkpt lat="45.198" lon="5.73037">
        <ele>284.79998779297</ele>
        <time>2021-07-24T03:37:51.000Z</time>
      </trkpt>
      <trkpt lat="45.198" lon="5.73037">
        <ele>284.79998779297</ele>
        <time>2021-07-24T03:37:52.000Z</time>
      </trkpt>
      <trkpt lat="45.19799" lon="5.73036">
        <ele>285.20001220703</ele>
        <time>2021-07-24T03:37:54.000Z</time>
      </trkpt>
      <trkpt lat="45.19796" lon="5.73036">
        <ele>286</ele>
        <time>2021-07-24T03:37:56.000Z</time>
      </trkpt>
      <trkpt lat="45.19792" lon="5.73036">
        <ele>286.20001220703</ele>
        <time>2021-07-24T03:37:58.000Z</time>
      </trkpt>
      <trkpt lat="45.19784" lon="5.73031">
        <ele>287</ele>
        <time>2021-07-24T03:38:03.000Z</time>
      </trkpt>
      <trkpt lat="45.19782" lon="5.7303">
        <ele>287.20001220703</ele>
        <time>2021-07-24T03:38:04.000Z</time>
      </trkpt>
      <trkpt lat="45.19775" lon="5.73027">
        <ele>288</ele>
        <time>2021-07-24T03:38:08.000Z</time>
      </trkpt>
      <trkpt lat="45.19774" lon="5.73027">
        <ele>288.20001220703</ele>
        <time>2021-07-24T03:38:09.000Z</time>
      </trkpt>
      <trkpt lat="45.19772" lon="5.73026">
        <ele>288.79998779297</ele>
        <time>2021-07-24T03:38:10.000Z</time>
      </trkpt>
      <trkpt lat="45.19764" lon="5.73021">
        <ele>289.20001220703</ele>
        <time>2021-07-24T03:38:15.000Z</time>
      </trkpt>
      <trkpt lat="45.19763" lon="5.73019">
        <ele>290.20001220703</ele>
        <time>2021-07-24T03:38:16.000Z</time>
      </trkpt>
      <trkpt lat="45.19763" lon="5.73018">
        <ele>290.39999389648</ele>
        <time>2021-07-24T03:38:17.000Z</time>
      </trkpt>
      <trkpt lat="45.19765" lon="5.73016">
        <ele>291</ele>
        <time>2021-07-24T03:38:21.000Z</time>
      </trkpt>
      <trkpt lat="45.19767" lon="5.73015">
        <ele>291.20001220703</ele>
        <time>2021-07-24T03:38:22.000Z</time>
      </trkpt>
      <trkpt lat="45.19771" lon="5.73015">
        <ele>291.60000610352</ele>
        <time>2021-07-24T03:38:24.000Z</time>
      </trkpt>
      <trkpt lat="45.19772" lon="5.73014">
        <ele>291.60000610352</ele>
        <time>2021-07-24T03:38:25.000Z</time>
      </trkpt>
      <trkpt lat="45.19775" lon="5.73014">
        <ele>292.20001220703</ele>
        <time>2021-07-24T03:38:27.000Z</time>
      </trkpt>
      <trkpt lat="45.19784" lon="5.73016">
        <ele>293</ele>
        <time>2021-07-24T03:38:32.000Z</time>
      </trkpt>
      <trkpt lat="45.19789" lon="5.73016">
        <ele>293.20001220703</ele>
        <time>2021-07-24T03:38:34.000Z</time>
      </trkpt>
      <trkpt lat="45.198" lon="5.73019">
        <ele>294.20001220703</ele>
        <time>2021-07-24T03:38:40.000Z</time>
      </trkpt>
      <trkpt lat="45.19802" lon="5.73019">
        <ele>294.60000610352</ele>
        <time>2021-07-24T03:38:41.000Z</time>
      </trkpt>
      <trkpt lat="45.19803" lon="5.7302">
        <ele>294.79998779297</ele>
        <time>2021-07-24T03:38:42.000Z</time>
      </trkpt>
      <trkpt lat="45.19806" lon="5.7302">
        <ele>294.79998779297</ele>
        <time>2021-07-24T03:38:44.000Z</time>
      </trkpt>
      <trkpt lat="45.19806" lon="5.73019">
        <ele>295.20001220703</ele>
        <time>2021-07-24T03:38:45.000Z</time>
      </trkpt>
      <trkpt lat="45.198" lon="5.73016">
        <ele>295.39999389648</ele>
        <time>2021-07-24T03:38:49.000Z</time>
      </trkpt>
      <trkpt lat="45.19795" lon="5.73014">
        <ele>296.60000610352</ele>
        <time>2021-07-24T03:38:52.000Z</time>
      </trkpt>
      <trkpt lat="45.19791" lon="5.73014">
        <ele>296.79998779297</ele>
        <time>2021-07-24T03:38:54.000Z</time>
      </trkpt>
      <trkpt lat="45.19787" lon="5.73013">
        <ele>297.39999389648</ele>
        <time>2021-07-24T03:38:56.000Z</time>
      </trkpt>
      <trkpt lat="45.19783" lon="5.73011">
        <ele>297.60000610352</ele>
        <time>2021-07-24T03:38:58.000Z</time>
      </trkpt>
      <trkpt lat="45.19781" lon="5.73009">
        <ele>297.79998779297</ele>
        <time>2021-07-24T03:38:59.000Z</time>
      </trkpt>
      <trkpt lat="45.19777" lon="5.73004">
        <ele>298.60000610352</ele>
        <time>2021-07-24T03:39:02.000Z</time>
      </trkpt>
      <trkpt lat="45.19769" lon="5.72996">
        <ele>299.39999389648</ele>
        <time>2021-07-24T03:39:07.000Z</time>
      </trkpt>
      <trkpt lat="45.19767" lon="5.72994">
        <ele>300</ele>
        <time>2021-07-24T03:39:08.000Z</time>
      </trkpt>
      <trkpt lat="45.19756" lon="5.72979">
        <ele>301.20001220703</ele>
        <time>2021-07-24T03:39:15.000Z</time>
      </trkpt>
      <trkpt lat="45.19753" lon="5.72974">
        <ele>302.20001220703</ele>
        <time>2021-07-24T03:39:18.000Z</time>
      </trkpt>
      <trkpt lat="45.19746" lon="5.72966">
        <ele>303</ele>
        <time>2021-07-24T03:39:23.000Z</time>
      </trkpt>
      <trkpt lat="45.19742" lon="5.72961">
        <ele>303.39999389648</ele>
        <time>2021-07-24T03:39:26.000Z</time>
      </trkpt>
      <trkpt lat="45.19739" lon="5.72953">
        <ele>304.20001220703</ele>
        <time>2021-07-24T03:39:29.000Z</time>
      </trkpt>
      <trkpt lat="45.19736" lon="5.72948">
        <ele>304.39999389648</ele>
        <time>2021-07-24T03:39:31.000Z</time>
      </trkpt>
      <trkpt lat="45.19731" lon="5.72939">
        <ele>305.39999389648</ele>
        <time>2021-07-24T03:39:35.000Z</time>
      </trkpt>
      <trkpt lat="45.1973" lon="5.72936">
        <ele>305.60000610352</ele>
        <time>2021-07-24T03:39:36.000Z</time>
      </trkpt>
      <trkpt lat="45.19727" lon="5.72927">
        <ele>306</ele>
        <time>2021-07-24T03:39:40.000Z</time>
      </trkpt>
      <trkpt lat="45.19727" lon="5.72924">
        <ele>307.20001220703</ele>
        <time>2021-07-24T03:39:41.000Z</time>
      </trkpt>
      <trkpt lat="45.19725" lon="5.72922">
        <ele>307.39999389648</ele>
        <time>2021-07-24T03:39:42.000Z</time>
      </trkpt>
      <trkpt lat="45.19722" lon="5.72914">
        <ele>307.79998779297</ele>
        <time>2021-07-24T03:39:45.000Z</time>
      </trkpt>
      <trkpt lat="45.19719" lon="5.7291">
        <ele>308.20001220703</ele>
        <time>2021-07-24T03:39:47.000Z</time>
      </trkpt>
      <trkpt lat="45.19716" lon="5.72905">
        <ele>308.60000610352</ele>
        <time>2021-07-24T03:39:49.000Z</time>
      </trkpt>
      <trkpt lat="45.19714" lon="5.72901">
        <ele>309.20001220703</ele>
        <time>2021-07-24T03:39:51.000Z</time>
      </trkpt>
      <trkpt lat="45.19712" lon="5.72898">
        <ele>309.39999389648</ele>
        <time>2021-07-24T03:39:52.000Z</time>
      </trkpt>
      <trkpt lat="45.19707" lon="5.72888">
        <ele>310.39999389648</ele>
        <time>2021-07-24T03:39:56.000Z</time>
      </trkpt>
      <trkpt lat="45.19698" lon="5.72875">
        <ele>311.79998779297</ele>
        <time>2021-07-24T03:40:02.000Z</time>
      </trkpt>
      <trkpt lat="45.19691" lon="5.72863">
        <ele>313</ele>
        <time>2021-07-24T03:40:08.000Z</time>
      </trkpt>
      <trkpt lat="45.19691" lon="5.72861">
        <ele>313.20001220703</ele>
        <time>2021-07-24T03:40:09.000Z</time>
      </trkpt>
      <trkpt lat="45.19693" lon="5.72859">
        <ele>313.60000610352</ele>
        <time>2021-07-24T03:40:10.000Z</time>
      </trkpt>
      <trkpt lat="45.19696" lon="5.72857">
        <ele>314</ele>
        <time>2021-07-24T03:40:12.000Z</time>
      </trkpt>
      <trkpt lat="45.19696" lon="5.72857">
        <ele>314</ele>
        <time>2021-07-24T03:40:13.000Z</time>
      </trkpt>
      <trkpt lat="45.19698" lon="5.72857">
        <ele>314.20001220703</ele>
        <time>2021-07-24T03:40:15.000Z</time>
      </trkpt>
      <trkpt lat="45.19702" lon="5.72859">
        <ele>315</ele>
        <time>2021-07-24T03:40:18.000Z</time>
      </trkpt>
      <trkpt lat="45.19706" lon="5.72862">
        <ele>315.39999389648</ele>
        <time>2021-07-24T03:40:21.000Z</time>
      </trkpt>
      <trkpt lat="45.1971" lon="5.72865">
        <ele>316</ele>
        <time>2021-07-24T03:40:24.000Z</time>
      </trkpt>
      <trkpt lat="45.19712" lon="5.72865">
        <ele>316.20001220703</ele>
        <time>2021-07-24T03:40:25.000Z</time>
      </trkpt>
      <trkpt lat="45.1972" lon="5.72868">
        <ele>317.39999389648</ele>
        <time>2021-07-24T03:40:31.000Z</time>
      </trkpt>
      <trkpt lat="45.19722" lon="5.72869">
        <ele>317.60000610352</ele>
        <time>2021-07-24T03:40:32.000Z</time>
      </trkpt>
      <trkpt lat="45.19729" lon="5.72873">
        <ele>318.60000610352</ele>
        <time>2021-07-24T03:40:36.000Z</time>
      </trkpt>
      <trkpt lat="45.19736" lon="5.72876">
        <ele>319</ele>
        <time>2021-07-24T03:40:40.000Z</time>
      </trkpt>
      <trkpt lat="45.19741" lon="5.72878">
        <ele>320.20001220703</ele>
        <time>2021-07-24T03:40:43.000Z</time>
      </trkpt>
      <trkpt lat="45.19746" lon="5.72879">
        <ele>320.39999389648</ele>
        <time>2021-07-24T03:40:46.000Z</time>
      </trkpt>
      <trkpt lat="45.19749" lon="5.72881">
        <ele>320.79998779297</ele>
        <time>2021-07-24T03:40:48.000Z</time>
      </trkpt>
      <trkpt lat="45.19753" lon="5.72883">
        <ele>321.79998779297</ele>
        <time>2021-07-24T03:40:50.000Z</time>
      </trkpt>
      <trkpt lat="45.19762" lon="5.72892">
        <ele>322.39999389648</ele>
        <time>2021-07-24T03:40:55.000Z</time>
      </trkpt>
      <trkpt lat="45.19765" lon="5.72894">
        <ele>323.39999389648</ele>
        <time>2021-07-24T03:40:57.000Z</time>
      </trkpt>
      <trkpt lat="45.19771" lon="5.72899">
        <ele>324.39999389648</ele>
        <time>2021-07-24T03:41:01.000Z</time>
      </trkpt>
      <trkpt lat="45.19776" lon="5.72904">
        <ele>325</ele>
        <time>2021-07-24T03:41:04.000Z</time>
      </trkpt>
      <trkpt lat="45.19779" lon="5.72908">
        <ele>325.20001220703</ele>
        <time>2021-07-24T03:41:06.000Z</time>
      </trkpt>
      <trkpt lat="45.1978" lon="5.72909">
        <ele>325.79998779297</ele>
        <time>2021-07-24T03:41:07.000Z</time>
      </trkpt>
      <trkpt lat="45.19785" lon="5.7291">
        <ele>326.20001220703</ele>
        <time>2021-07-24T03:41:10.000Z</time>
      </trkpt>
      <trkpt lat="45.19791" lon="5.72915">
        <ele>327</ele>
        <time>2021-07-24T03:41:14.000Z</time>
      </trkpt>
      <trkpt lat="45.19793" lon="5.72915">
        <ele>327.60000610352</ele>
        <time>2021-07-24T03:41:16.000Z</time>
      </trkpt>
      <trkpt lat="45.1979" lon="5.72915">
        <ele>328.20001220703</ele>
        <time>2021-07-24T03:41:19.000Z</time>
      </trkpt>
      <trkpt lat="45.19789" lon="5.72916">
        <ele>328.20001220703</ele>
        <time>2021-07-24T03:41:20.000Z</time>
      </trkpt>
      <trkpt lat="45.19783" lon="5.72916">
        <ele>329.20001220703</ele>
        <time>2021-07-24T03:41:23.000Z</time>
      </trkpt>
      <trkpt lat="45.19781" lon="5.72913">
        <ele>329.79998779297</ele>
        <time>2021-07-24T03:41:25.000Z</time>
      </trkpt>
      <trkpt lat="45.19778" lon="5.7291">
        <ele>330.79998779297</ele>
        <time>2021-07-24T03:41:27.000Z</time>
      </trkpt>
      <trkpt lat="45.19776" lon="5.72907">
        <ele>330.79998779297</ele>
        <time>2021-07-24T03:41:29.000Z</time>
      </trkpt>
      <trkpt lat="45.19773" lon="5.72903">
        <ele>331</ele>
        <time>2021-07-24T03:41:31.000Z</time>
      </trkpt>
      <trkpt lat="45.19771" lon="5.72898">
        <ele>331.79998779297</ele>
        <time>2021-07-24T03:41:33.000Z</time>
      </trkpt>
      <trkpt lat="45.19765" lon="5.72889">
        <ele>332.79998779297</ele>
        <time>2021-07-24T03:41:37.000Z</time>
      </trkpt>
      <trkpt lat="45.19763" lon="5.72887">
        <ele>333</ele>
        <time>2021-07-24T03:41:38.000Z</time>
      </trkpt>
      <trkpt lat="45.19759" lon="5.72882">
        <ele>333.79998779297</ele>
        <time>2021-07-24T03:41:41.000Z</time>
      </trkpt>
      <trkpt lat="45.19757" lon="5.72881">
        <ele>334.20001220703</ele>
        <time>2021-07-24T03:41:42.000Z</time>
      </trkpt>
      <trkpt lat="45.19752" lon="5.72874">
        <ele>335.39999389648</ele>
        <time>2021-07-24T03:41:45.000Z</time>
      </trkpt>
      <trkpt lat="45.19749" lon="5.72869">
        <ele>336.39999389648</ele>
        <time>2021-07-24T03:41:48.000Z</time>
      </trkpt>
      <trkpt lat="45.19745" lon="5.72864">
        <ele>336.79998779297</ele>
        <time>2021-07-24T03:41:50.000Z</time>
      </trkpt>
      <trkpt lat="45.19741" lon="5.72858">
        <ele>337.20001220703</ele>
        <time>2021-07-24T03:41:53.000Z</time>
      </trkpt>
      <trkpt lat="45.19741" lon="5.72856">
        <ele>337.60000610352</ele>
        <time>2021-07-24T03:41:54.000Z</time>
      </trkpt>
      <trkpt lat="45.19742" lon="5.72853">
        <ele>338</ele>
        <time>2021-07-24T03:41:56.000Z</time>
      </trkpt>
      <trkpt lat="45.19743" lon="5.72852">
        <ele>338</ele>
        <time>2021-07-24T03:41:57.000Z</time>
      </trkpt>
      <trkpt lat="45.19748" lon="5.72853">
        <ele>338.79998779297</ele>
        <time>2021-07-24T03:42:00.000Z</time>
      </trkpt>
      <trkpt lat="45.19752" lon="5.72853">
        <ele>339.20001220703</ele>
        <time>2021-07-24T03:42:02.000Z</time>
      </trkpt>
      <trkpt lat="45.19755" lon="5.72853">
        <ele>339.79998779297</ele>
        <time>2021-07-24T03:42:04.000Z</time>
      </trkpt>
      <trkpt lat="45.19757" lon="5.72854">
        <ele>340.20001220703</ele>
        <time>2021-07-24T03:42:06.000Z</time>
      </trkpt>
      <trkpt lat="45.19759" lon="5.72854">
        <ele>340.39999389648</ele>
        <time>2021-07-24T03:42:07.000Z</time>
      </trkpt>
      <trkpt lat="45.19761" lon="5.72855">
        <ele>340.39999389648</ele>
        <time>2021-07-24T03:42:08.000Z</time>
      </trkpt>
      <trkpt lat="45.19771" lon="5.72861">
        <ele>341.60000610352</ele>
        <time>2021-07-24T03:42:14.000Z</time>
      </trkpt>
      <trkpt lat="45.19774" lon="5.72862">
        <ele>342.20001220703</ele>
        <time>2021-07-24T03:42:16.000Z</time>
      </trkpt>
      <trkpt lat="45.19782" lon="5.7286">
        <ele>342.79998779297</ele>
        <time>2021-07-24T03:42:20.000Z</time>
      </trkpt>
      <trkpt lat="45.19785" lon="5.7286">
        <ele>343.60000610352</ele>
        <time>2021-07-24T03:42:22.000Z</time>
      </trkpt>
      <trkpt lat="45.19786" lon="5.72861">
        <ele>343.60000610352</ele>
        <time>2021-07-24T03:42:23.000Z</time>
      </trkpt>
      <trkpt lat="45.19787" lon="5.72861">
        <ele>343.79998779297</ele>
        <time>2021-07-24T03:42:24.000Z</time>
      </trkpt>
      <trkpt lat="45.19794" lon="5.72865">
        <ele>345</ele>
        <time>2021-07-24T03:42:29.000Z</time>
      </trkpt>
      <trkpt lat="45.19801" lon="5.72868">
        <ele>346.20001220703</ele>
        <time>2021-07-24T03:42:33.000Z</time>
      </trkpt>
      <trkpt lat="45.19805" lon="5.7287">
        <ele>346.39999389648</ele>
        <time>2021-07-24T03:42:37.000Z</time>
      </trkpt>
      <trkpt lat="45.19801" lon="5.7287">
        <ele>347.60000610352</ele>
        <time>2021-07-24T03:42:40.000Z</time>
      </trkpt>
      <trkpt lat="45.19798" lon="5.72873">
        <ele>348.39999389648</ele>
        <time>2021-07-24T03:42:42.000Z</time>
      </trkpt>
      <trkpt lat="45.19794" lon="5.72872">
        <ele>348.79998779297</ele>
        <time>2021-07-24T03:42:44.000Z</time>
      </trkpt>
      <trkpt lat="45.19787" lon="5.72865">
        <ele>349.60000610352</ele>
        <time>2021-07-24T03:42:49.000Z</time>
      </trkpt>
      <trkpt lat="45.19786" lon="5.72863">
        <ele>350.39999389648</ele>
        <time>2021-07-24T03:42:50.000Z</time>
      </trkpt>
      <trkpt lat="45.19779" lon="5.72857">
        <ele>351.60000610352</ele>
        <time>2021-07-24T03:42:54.000Z</time>
      </trkpt>
      <trkpt lat="45.19778" lon="5.72855">
        <ele>351.79998779297</ele>
        <time>2021-07-24T03:42:55.000Z</time>
      </trkpt>
      <trkpt lat="45.19775" lon="5.72849">
        <ele>352</ele>
        <time>2021-07-24T03:42:57.000Z</time>
      </trkpt>
      <trkpt lat="45.19771" lon="5.7284">
        <ele>352.79998779297</ele>
        <time>2021-07-24T03:43:00.000Z</time>
      </trkpt>
      <trkpt lat="45.19767" lon="5.72835">
        <ele>354.20001220703</ele>
        <time>2021-07-24T03:43:02.000Z</time>
      </trkpt>
      <trkpt lat="45.1976" lon="5.72828">
        <ele>354.79998779297</ele>
        <time>2021-07-24T03:43:06.000Z</time>
      </trkpt>
      <trkpt lat="45.19759" lon="5.72826">
        <ele>355.20001220703</ele>
        <time>2021-07-24T03:43:07.000Z</time>
      </trkpt>
      <trkpt lat="45.19752" lon="5.72813">
        <ele>356.79998779297</ele>
        <time>2021-07-24T03:43:13.000Z</time>
      </trkpt>
      <trkpt lat="45.19752" lon="5.72812">
        <ele>356.39999389648</ele>
        <time>2021-07-24T03:43:14.000Z</time>
      </trkpt>
      <trkpt lat="45.19757" lon="5.72813">
        <ele>357.39999389648</ele>
        <time>2021-07-24T03:43:18.000Z</time>
      </trkpt>
      <trkpt lat="45.19762" lon="5.72814">
        <ele>358.20001220703</ele>
        <time>2021-07-24T03:43:21.000Z</time>
      </trkpt>
      <trkpt lat="45.19769" lon="5.72815">
        <ele>358.79998779297</ele>
        <time>2021-07-24T03:43:25.000Z</time>
      </trkpt>
      <trkpt lat="45.19771" lon="5.72815">
        <ele>359</ele>
        <time>2021-07-24T03:43:26.000Z</time>
      </trkpt>
      <trkpt lat="45.19772" lon="5.72816">
        <ele>359.39999389648</ele>
        <time>2021-07-24T03:43:27.000Z</time>
      </trkpt>
      <trkpt lat="45.1978" lon="5.72822">
        <ele>360.60000610352</ele>
        <time>2021-07-24T03:43:32.000Z</time>
      </trkpt>
      <trkpt lat="45.19782" lon="5.72824">
        <ele>360.79998779297</ele>
        <time>2021-07-24T03:43:33.000Z</time>
      </trkpt>
      <trkpt lat="45.19784" lon="5.72826">
        <ele>360.79998779297</ele>
        <time>2021-07-24T03:43:35.000Z</time>
      </trkpt>
      <trkpt lat="45.19788" lon="5.72829">
        <ele>361.60000610352</ele>
        <time>2021-07-24T03:43:38.000Z</time>
      </trkpt>
      <trkpt lat="45.1979" lon="5.72829">
        <ele>362.20001220703</ele>
        <time>2021-07-24T03:43:39.000Z</time>
      </trkpt>
      <trkpt lat="45.19792" lon="5.72831">
        <ele>362.20001220703</ele>
        <time>2021-07-24T03:43:41.000Z</time>
      </trkpt>
      <trkpt lat="45.19794" lon="5.72833">
        <ele>362.39999389648</ele>
        <time>2021-07-24T03:43:42.000Z</time>
      </trkpt>
      <trkpt lat="45.19795" lon="5.72834">
        <ele>362.79998779297</ele>
        <time>2021-07-24T03:43:43.000Z</time>
      </trkpt>
      <trkpt lat="45.19796" lon="5.72835">
        <ele>363.20001220703</ele>
        <time>2021-07-24T03:43:44.000Z</time>
      </trkpt>
      <trkpt lat="45.19797" lon="5.72835">
        <ele>363.20001220703</ele>
        <time>2021-07-24T03:43:45.000Z</time>
      </trkpt>
      <trkpt lat="45.19808" lon="5.72838">
        <ele>364</ele>
        <time>2021-07-24T03:43:50.000Z</time>
      </trkpt>
      <trkpt lat="45.19815" lon="5.72841">
        <ele>365</ele>
        <time>2021-07-24T03:43:54.000Z</time>
      </trkpt>
      <trkpt lat="45.1982" lon="5.72842">
        <ele>365.20001220703</ele>
        <time>2021-07-24T03:43:57.000Z</time>
      </trkpt>
      <trkpt lat="45.19819" lon="5.72842">
        <ele>365.20001220703</ele>
        <time>2021-07-24T03:43:58.000Z</time>
      </trkpt>
      <trkpt lat="45.19813" lon="5.7284">
        <ele>366.20001220703</ele>
        <time>2021-07-24T03:44:01.000Z</time>
      </trkpt>
      <trkpt lat="45.19811" lon="5.72839">
        <ele>367</ele>
        <time>2021-07-24T03:44:02.000Z</time>
      </trkpt>
      <trkpt lat="45.19807" lon="5.72835">
        <ele>367</ele>
        <time>2021-07-24T03:44:04.000Z</time>
      </trkpt>
      <trkpt lat="45.19803" lon="5.72832">
        <ele>367.39999389648</ele>
        <time>2021-07-24T03:44:06.000Z</time>
      </trkpt>
      <trkpt lat="45.19797" lon="5.72827">
        <ele>367.79998779297</ele>
        <time>2021-07-24T03:44:09.000Z</time>
      </trkpt>
      <trkpt lat="45.19791" lon="5.72819">
        <ele>368.60000610352</ele>
        <time>2021-07-24T03:44:13.000Z</time>
      </trkpt>
      <trkpt lat="45.1979" lon="5.72816">
        <ele>368.60000610352</ele>
        <time>2021-07-24T03:44:14.000Z</time>
      </trkpt>
      <trkpt lat="45.1979" lon="5.72814">
        <ele>368.60000610352</ele>
        <time>2021-07-24T03:44:15.000Z</time>
      </trkpt>
      <trkpt lat="45.19791" lon="5.72813">
        <ele>368.79998779297</ele>
        <time>2021-07-24T03:44:16.000Z</time>
      </trkpt>
      <trkpt lat="45.19793" lon="5.72814">
        <ele>368.79998779297</ele>
        <time>2021-07-24T03:44:18.000Z</time>
      </trkpt>
      <trkpt lat="45.19799" lon="5.72818">
        <ele>369.60000610352</ele>
        <time>2021-07-24T03:44:22.000Z</time>
      </trkpt>
      <trkpt lat="45.19807" lon="5.72817">
        <ele>370.20001220703</ele>
        <time>2021-07-24T03:44:25.000Z</time>
      </trkpt>
      <trkpt lat="45.1981" lon="5.72819">
        <ele>370.60000610352</ele>
        <time>2021-07-24T03:44:27.000Z</time>
      </trkpt>
      <trkpt lat="45.19817" lon="5.72824">
        <ele>371.79998779297</ele>
        <time>2021-07-24T03:44:32.000Z</time>
      </trkpt>
      <trkpt lat="45.19824" lon="5.72827">
        <ele>373</ele>
        <time>2021-07-24T03:44:36.000Z</time>
      </trkpt>
      <trkpt lat="45.19832" lon="5.72829">
        <ele>373.39999389648</ele>
        <time>2021-07-24T03:44:41.000Z</time>
      </trkpt>
      <trkpt lat="45.19831" lon="5.72827">
        <ele>374.20001220703</ele>
        <time>2021-07-24T03:44:44.000Z</time>
      </trkpt>
      <trkpt lat="45.19823" lon="5.72823">
        <ele>375</ele>
        <time>2021-07-24T03:44:48.000Z</time>
      </trkpt>
      <trkpt lat="45.19821" lon="5.72823">
        <ele>375.39999389648</ele>
        <time>2021-07-24T03:44:49.000Z</time>
      </trkpt>
      <trkpt lat="45.19819" lon="5.72822">
        <ele>375.79998779297</ele>
        <time>2021-07-24T03:44:50.000Z</time>
      </trkpt>
      <trkpt lat="45.19815" lon="5.72817">
        <ele>376</ele>
        <time>2021-07-24T03:44:53.000Z</time>
      </trkpt>
      <trkpt lat="45.19816" lon="5.72815">
        <ele>376</ele>
        <time>2021-07-24T03:44:54.000Z</time>
      </trkpt>
      <trkpt lat="45.19819" lon="5.72815">
        <ele>376.60000610352</ele>
        <time>2021-07-24T03:44:56.000Z</time>
      </trkpt>
      <trkpt lat="45.19822" lon="5.72816">
        <ele>376.79998779297</ele>
        <time>2021-07-24T03:44:58.000Z</time>
      </trkpt>
      <trkpt lat="45.19824" lon="5.72817">
        <ele>377.79998779297</ele>
        <time>2021-07-24T03:44:59.000Z</time>
      </trkpt>
      <trkpt lat="45.19832" lon="5.7282">
        <ele>378.39999389648</ele>
        <time>2021-07-24T03:45:04.000Z</time>
      </trkpt>
      <trkpt lat="45.19837" lon="5.72824">
        <ele>378.79998779297</ele>
        <time>2021-07-24T03:45:07.000Z</time>
      </trkpt>
      <trkpt lat="45.19843" lon="5.72828">
        <ele>379.79998779297</ele>
        <time>2021-07-24T03:45:11.000Z</time>
      </trkpt>
      <trkpt lat="45.19844" lon="5.72826">
        <ele>379.79998779297</ele>
        <time>2021-07-24T03:45:13.000Z</time>
      </trkpt>
      <trkpt lat="45.19844" lon="5.72825">
        <ele>379.79998779297</ele>
        <time>2021-07-24T03:45:14.000Z</time>
      </trkpt>
      <trkpt lat="45.19842" lon="5.72825">
        <ele>380.39999389648</ele>
        <time>2021-07-24T03:45:15.000Z</time>
      </trkpt>
      <trkpt lat="45.19835" lon="5.72823">
        <ele>381</ele>
        <time>2021-07-24T03:45:18.000Z</time>
      </trkpt>
      <trkpt lat="45.19831" lon="5.7282">
        <ele>381.79998779297</ele>
        <time>2021-07-24T03:45:20.000Z</time>
      </trkpt>
      <trkpt lat="45.19825" lon="5.72815">
        <ele>383</ele>
        <time>2021-07-24T03:45:24.000Z</time>
      </trkpt>
      <trkpt lat="45.19823" lon="5.72813">
        <ele>383.20001220703</ele>
        <time>2021-07-24T03:45:25.000Z</time>
      </trkpt>
      <trkpt lat="45.19817" lon="5.72806">
        <ele>384.60000610352</ele>
        <time>2021-07-24T03:45:29.000Z</time>
      </trkpt>
      <trkpt lat="45.19811" lon="5.72801">
        <ele>385</ele>
        <time>2021-07-24T03:45:32.000Z</time>
      </trkpt>
      <trkpt lat="45.19807" lon="5.72797">
        <ele>385.60000610352</ele>
        <time>2021-07-24T03:45:34.000Z</time>
      </trkpt>
      <trkpt lat="45.19796" lon="5.72783">
        <ele>386.60000610352</ele>
        <time>2021-07-24T03:45:40.000Z</time>
      </trkpt>
      <trkpt lat="45.19796" lon="5.72781">
        <ele>386.60000610352</ele>
        <time>2021-07-24T03:45:41.000Z</time>
      </trkpt>
      <trkpt lat="45.19798" lon="5.72778">
        <ele>386.79998779297</ele>
        <time>2021-07-24T03:45:43.000Z</time>
      </trkpt>
      <trkpt lat="45.19803" lon="5.72778">
        <ele>388</ele>
        <time>2021-07-24T03:45:46.000Z</time>
      </trkpt>
      <trkpt lat="45.19805" lon="5.72778">
        <ele>388</ele>
        <time>2021-07-24T03:45:47.000Z</time>
      </trkpt>
      <trkpt lat="45.19807" lon="5.72779">
        <ele>388</ele>
        <time>2021-07-24T03:45:48.000Z</time>
      </trkpt>
      <trkpt lat="45.19811" lon="5.72783">
        <ele>388.39999389648</ele>
        <time>2021-07-24T03:45:51.000Z</time>
      </trkpt>
      <trkpt lat="45.19814" lon="5.72786">
        <ele>389.20001220703</ele>
        <time>2021-07-24T03:45:53.000Z</time>
      </trkpt>
      <trkpt lat="45.19821" lon="5.72788">
        <ele>389.60000610352</ele>
        <time>2021-07-24T03:45:57.000Z</time>
      </trkpt>
      <trkpt lat="45.19826" lon="5.72788">
        <ele>390</ele>
        <time>2021-07-24T03:45:59.000Z</time>
      </trkpt>
      <trkpt lat="45.19827" lon="5.72789">
        <ele>390.39999389648</ele>
        <time>2021-07-24T03:46:00.000Z</time>
      </trkpt>
      <trkpt lat="45.19829" lon="5.7279">
        <ele>390.79998779297</ele>
        <time>2021-07-24T03:46:01.000Z</time>
      </trkpt>
      <trkpt lat="45.1984" lon="5.72793">
        <ele>392.20001220703</ele>
        <time>2021-07-24T03:46:07.000Z</time>
      </trkpt>
      <trkpt lat="45.19844" lon="5.72794">
        <ele>392.20001220703</ele>
        <time>2021-07-24T03:46:10.000Z</time>
      </trkpt>
      <trkpt lat="45.19844" lon="5.72795">
        <ele>392.60000610352</ele>
        <time>2021-07-24T03:46:11.000Z</time>
      </trkpt>
      <trkpt lat="45.19843" lon="5.72793">
        <ele>392.60000610352</ele>
        <time>2021-07-24T03:46:13.000Z</time>
      </trkpt>
      <trkpt lat="45.19842" lon="5.72792">
        <ele>393.39999389648</ele>
        <time>2021-07-24T03:46:14.000Z</time>
      </trkpt>
      <trkpt lat="45.19834" lon="5.72784">
        <ele>394.60000610352</ele>
        <time>2021-07-24T03:46:19.000Z</time>
      </trkpt>
      <trkpt lat="45.19832" lon="5.72782">
        <ele>394.79998779297</ele>
        <time>2021-07-24T03:46:20.000Z</time>
      </trkpt>
      <trkpt lat="45.19827" lon="5.72777">
        <ele>395.39999389648</ele>
        <time>2021-07-24T03:46:23.000Z</time>
      </trkpt>
      <trkpt lat="45.19824" lon="5.72775">
        <ele>396</ele>
        <time>2021-07-24T03:46:25.000Z</time>
      </trkpt>
      <trkpt lat="45.19819" lon="5.72771">
        <ele>396.60000610352</ele>
        <time>2021-07-24T03:46:27.000Z</time>
      </trkpt>
      <trkpt lat="45.19818" lon="5.72769">
        <ele>397.39999389648</ele>
        <time>2021-07-24T03:46:28.000Z</time>
      </trkpt>
      <trkpt lat="45.19812" lon="5.72765">
        <ele>398</ele>
        <time>2021-07-24T03:46:31.000Z</time>
      </trkpt>
      <trkpt lat="45.19808" lon="5.7276">
        <ele>398.79998779297</ele>
        <time>2021-07-24T03:46:34.000Z</time>
      </trkpt>
      <trkpt lat="45.19806" lon="5.72755">
        <ele>399.20001220703</ele>
        <time>2021-07-24T03:46:36.000Z</time>
      </trkpt>
      <trkpt lat="45.19804" lon="5.72754">
        <ele>400</ele>
        <time>2021-07-24T03:46:37.000Z</time>
      </trkpt>
      <trkpt lat="45.19802" lon="5.72752">
        <ele>399.60000610352</ele>
        <time>2021-07-24T03:46:38.000Z</time>
      </trkpt>
      <trkpt lat="45.19795" lon="5.72743">
        <ele>400.79998779297</ele>
        <time>2021-07-24T03:46:42.000Z</time>
      </trkpt>
      <trkpt lat="45.19794" lon="5.7274">
        <ele>401.60000610352</ele>
        <time>2021-07-24T03:46:43.000Z</time>
      </trkpt>
      <trkpt lat="45.19791" lon="5.72738">
        <ele>401.20001220703</ele>
        <time>2021-07-24T03:46:44.000Z</time>
      </trkpt>
      <trkpt lat="45.1979" lon="5.72735">
        <ele>401.79998779297</ele>
        <time>2021-07-24T03:46:45.000Z</time>
      </trkpt>
      <trkpt lat="45.19792" lon="5.72732">
        <ele>402</ele>
        <time>2021-07-24T03:46:47.000Z</time>
      </trkpt>
      <trkpt lat="45.19796" lon="5.72731">
        <ele>402.39999389648</ele>
        <time>2021-07-24T03:46:50.000Z</time>
      </trkpt>
      <trkpt lat="45.19797" lon="5.72731">
        <ele>402.79998779297</ele>
        <time>2021-07-24T03:46:51.000Z</time>
      </trkpt>
      <trkpt lat="45.19798" lon="5.72731">
        <ele>402.79998779297</ele>
        <time>2021-07-24T03:46:52.000Z</time>
      </trkpt>
      <trkpt lat="45.19804" lon="5.72733">
        <ele>403.79998779297</ele>
        <time>2021-07-24T03:46:56.000Z</time>
      </trkpt>
      <trkpt lat="45.19805" lon="5.72735">
        <ele>403.79998779297</ele>
        <time>2021-07-24T03:46:57.000Z</time>
      </trkpt>
      <trkpt lat="45.19807" lon="5.72735">
        <ele>403.79998779297</ele>
        <time>2021-07-24T03:46:58.000Z</time>
      </trkpt>
      <trkpt lat="45.19818" lon="5.72744">
        <ele>404.60000610352</ele>
        <time>2021-07-24T03:47:04.000Z</time>
      </trkpt>
      <trkpt lat="45.1982" lon="5.72747">
        <ele>404.79998779297</ele>
        <time>2021-07-24T03:47:05.000Z</time>
      </trkpt>
      <trkpt lat="45.19824" lon="5.72751">
        <ele>405.39999389648</ele>
        <time>2021-07-24T03:47:07.000Z</time>
      </trkpt>
      <trkpt lat="45.19832" lon="5.72757">
        <ele>406</ele>
        <time>2021-07-24T03:47:12.000Z</time>
      </trkpt>
      <trkpt lat="45.19836" lon="5.72761">
        <ele>406.39999389648</ele>
        <time>2021-07-24T03:47:15.000Z</time>
      </trkpt>
      <trkpt lat="45.19838" lon="5.72762">
        <ele>406.39999389648</ele>
        <time>2021-07-24T03:47:16.000Z</time>
      </trkpt>
      <trkpt lat="45.19841" lon="5.72765">
        <ele>407.39999389648</ele>
        <time>2021-07-24T03:47:18.000Z</time>
      </trkpt>
      <trkpt lat="45.19845" lon="5.72767">
        <ele>407.60000610352</ele>
        <time>2021-07-24T03:47:20.000Z</time>
      </trkpt>
      <trkpt lat="45.1985" lon="5.7277">
        <ele>408.20001220703</ele>
        <time>2021-07-24T03:47:24.000Z</time>
      </trkpt>
      <trkpt lat="45.1985" lon="5.72769">
        <ele>408.60000610352</ele>
        <time>2021-07-24T03:47:25.000Z</time>
      </trkpt>
      <trkpt lat="45.19846" lon="5.72765">
        <ele>409.20001220703</ele>
        <time>2021-07-24T03:47:29.000Z</time>
      </trkpt>
      <trkpt lat="45.19846" lon="5.72763">
        <ele>409.39999389648</ele>
        <time>2021-07-24T03:47:30.000Z</time>
      </trkpt>
      <trkpt lat="45.19849" lon="5.72762">
        <ele>409.79998779297</ele>
        <time>2021-07-24T03:47:33.000Z</time>
      </trkpt>
      <trkpt lat="45.1985" lon="5.72763">
        <ele>410.79998779297</ele>
        <time>2021-07-24T03:47:36.000Z</time>
      </trkpt>
      <trkpt lat="45.19853" lon="5.72762">
        <ele>412.20001220703</ele>
        <time>2021-07-24T03:47:38.000Z</time>
      </trkpt>
      <trkpt lat="45.19854" lon="5.72762">
        <ele>412.39999389648</ele>
        <time>2021-07-24T03:47:39.000Z</time>
      </trkpt>
      <trkpt lat="45.19858" lon="5.72765">
        <ele>413.20001220703</ele>
        <time>2021-07-24T03:47:42.000Z</time>
      </trkpt>
      <trkpt lat="45.19859" lon="5.72765">
        <ele>413.79998779297</ele>
        <time>2021-07-24T03:47:43.000Z</time>
      </trkpt>
      <trkpt lat="45.1986" lon="5.72766">
        <ele>413.79998779297</ele>
        <time>2021-07-24T03:47:44.000Z</time>
      </trkpt>
      <trkpt lat="45.1986" lon="5.72764">
        <ele>414.20001220703</ele>
        <time>2021-07-24T03:47:46.000Z</time>
      </trkpt>
      <trkpt lat="45.19859" lon="5.72764">
        <ele>414.39999389648</ele>
        <time>2021-07-24T03:47:47.000Z</time>
      </trkpt>
      <trkpt lat="45.19859" lon="5.72763">
        <ele>414.79998779297</ele>
        <time>2021-07-24T03:47:48.000Z</time>
      </trkpt>
      <trkpt lat="45.1986" lon="5.72761">
        <ele>415</ele>
        <time>2021-07-24T03:47:49.000Z</time>
      </trkpt>
      <trkpt lat="45.1986" lon="5.72748">
        <ele>427</ele>
        <time>2021-07-24T03:48:27.000Z</time>
      </trkpt>
      <trkpt lat="45.19856" lon="5.72748">
        <ele>427.60000610352</ele>
        <time>2021-07-24T03:48:29.000Z</time>
      </trkpt>
      <trkpt lat="45.1986" lon="5.72754">
        <ele>427.60000610352</ele>
        <time>2021-07-24T03:48:30.000Z</time>
      </trkpt>
      <trkpt lat="45.19861" lon="5.72761">
        <ele>428.60000610352</ele>
        <time>2021-07-24T03:48:31.000Z</time>
      </trkpt>
      <trkpt lat="45.1986" lon="5.72765">
        <ele>429.20001220703</ele>
        <time>2021-07-24T03:48:33.000Z</time>
      </trkpt>
      <trkpt lat="45.19859" lon="5.72765">
        <ele>430</ele>
        <time>2021-07-24T03:48:34.000Z</time>
      </trkpt>
      <trkpt lat="45.19858" lon="5.72765">
        <ele>430.20001220703</ele>
        <time>2021-07-24T03:48:36.000Z</time>
      </trkpt>
      <trkpt lat="45.19859" lon="5.72763">
        <ele>431.79998779297</ele>
        <time>2021-07-24T03:48:39.000Z</time>
      </trkpt>
      <trkpt lat="45.19859" lon="5.7276">
        <ele>431.79998779297</ele>
        <time>2021-07-24T03:48:41.000Z</time>
      </trkpt>
      <trkpt lat="45.19859" lon="5.72757">
        <ele>432</ele>
        <time>2021-07-24T03:48:42.000Z</time>
      </trkpt>
      <trkpt lat="45.19858" lon="5.72746">
        <ele>432.79998779297</ele>
        <time>2021-07-24T03:48:47.000Z</time>
      </trkpt>
      <trkpt lat="45.19858" lon="5.72742">
        <ele>432.79998779297</ele>
        <time>2021-07-24T03:48:49.000Z</time>
      </trkpt>
      <trkpt lat="45.19858" lon="5.72741">
        <ele>433</ele>
        <time>2021-07-24T03:48:51.000Z</time>
      </trkpt>
      <trkpt lat="45.19858" lon="5.7274">
        <ele>433.20001220703</ele>
        <time>2021-07-24T03:48:52.000Z</time>
      </trkpt>
      <trkpt lat="45.19855" lon="5.72739">
        <ele>434.20001220703</ele>
        <time>2021-07-24T03:48:54.000Z</time>
      </trkpt>
      <trkpt lat="45.19838" lon="5.7275">
        <ele>436.60000610352</ele>
        <time>2021-07-24T03:49:09.000Z</time>
      </trkpt>
      <trkpt lat="45.19838" lon="5.72746">
        <ele>436.60000610352</ele>
        <time>2021-07-24T03:49:10.000Z</time>
      </trkpt>
      <trkpt lat="45.19833" lon="5.72733">
        <ele>436.79998779297</ele>
        <time>2021-07-24T03:49:14.000Z</time>
      </trkpt>
      <trkpt lat="45.19832" lon="5.7273">
        <ele>436.60000610352</ele>
        <time>2021-07-24T03:49:15.000Z</time>
      </trkpt>
      <trkpt lat="45.19832" lon="5.72727">
        <ele>436.79998779297</ele>
        <time>2021-07-24T03:49:16.000Z</time>
      </trkpt>
      <trkpt lat="45.19825" lon="5.72722">
        <ele>436.60000610352</ele>
        <time>2021-07-24T03:49:19.000Z</time>
      </trkpt>
      <trkpt lat="45.19809" lon="5.72707">
        <ele>436</ele>
        <time>2021-07-24T03:49:26.000Z</time>
      </trkpt>
      <trkpt lat="45.19792" lon="5.72693">
        <ele>435.39999389648</ele>
        <time>2021-07-24T03:49:34.000Z</time>
      </trkpt>
      <trkpt lat="45.19788" lon="5.72689">
        <ele>435.79998779297</ele>
        <time>2021-07-24T03:49:36.000Z</time>
      </trkpt>
      <trkpt lat="45.19778" lon="5.72682">
        <ele>435.60000610352</ele>
        <time>2021-07-24T03:49:41.000Z</time>
      </trkpt>
      <trkpt lat="45.19776" lon="5.72683">
        <ele>435.39999389648</ele>
        <time>2021-07-24T03:49:42.000Z</time>
      </trkpt>
      <trkpt lat="45.19772" lon="5.72686">
        <ele>435.20001220703</ele>
        <time>2021-07-24T03:49:45.000Z</time>
      </trkpt>
      <trkpt lat="45.19771" lon="5.72685">
        <ele>435.39999389648</ele>
        <time>2021-07-24T03:49:46.000Z</time>
      </trkpt>
      <trkpt lat="45.19769" lon="5.72677">
        <ele>435.39999389648</ele>
        <time>2021-07-24T03:49:49.000Z</time>
      </trkpt>
      <trkpt lat="45.1977" lon="5.72674">
        <ele>435.60000610352</ele>
        <time>2021-07-24T03:49:50.000Z</time>
      </trkpt>
      <trkpt lat="45.19769" lon="5.72671">
        <ele>435.79998779297</ele>
        <time>2021-07-24T03:49:52.000Z</time>
      </trkpt>
      <trkpt lat="45.19767" lon="5.72666">
        <ele>435.79998779297</ele>
        <time>2021-07-24T03:49:54.000Z</time>
      </trkpt>
      <trkpt lat="45.19762" lon="5.72659">
        <ele>435.79998779297</ele>
        <time>2021-07-24T03:49:57.000Z</time>
      </trkpt>
      <trkpt lat="45.19758" lon="5.72653">
        <ele>436</ele>
        <time>2021-07-24T03:49:59.000Z</time>
      </trkpt>
      <trkpt lat="45.19747" lon="5.72638">
        <ele>436</ele>
        <time>2021-07-24T03:50:05.000Z</time>
      </trkpt>
      <trkpt lat="45.19744" lon="5.72635">
        <ele>436</ele>
        <time>2021-07-24T03:50:07.000Z</time>
      </trkpt>
      <trkpt lat="45.19737" lon="5.7264">
        <ele>436.20001220703</ele>
        <time>2021-07-24T03:50:11.000Z</time>
      </trkpt>
      <trkpt lat="45.19734" lon="5.72639">
        <ele>436.20001220703</ele>
        <time>2021-07-24T03:50:12.000Z</time>
      </trkpt>
      <trkpt lat="45.19731" lon="5.72634">
        <ele>436.20001220703</ele>
        <time>2021-07-24T03:50:14.000Z</time>
      </trkpt>
      <trkpt lat="45.1973" lon="5.72631">
        <ele>436.20001220703</ele>
        <time>2021-07-24T03:50:15.000Z</time>
      </trkpt>
      <trkpt lat="45.19732" lon="5.72622">
        <ele>435.79998779297</ele>
        <time>2021-07-24T03:50:18.000Z</time>
      </trkpt>
      <trkpt lat="45.19739" lon="5.72616">
        <ele>435.60000610352</ele>
        <time>2021-07-24T03:50:22.000Z</time>
      </trkpt>
      <trkpt lat="45.1974" lon="5.72614">
        <ele>435.79998779297</ele>
        <time>2021-07-24T03:50:23.000Z</time>
      </trkpt>
      <trkpt lat="45.19738" lon="5.72592">
        <ele>436.60000610352</ele>
        <time>2021-07-24T03:50:29.000Z</time>
      </trkpt>
      <trkpt lat="45.19737" lon="5.72588">
        <ele>436.39999389648</ele>
        <time>2021-07-24T03:50:30.000Z</time>
      </trkpt>
      <trkpt lat="45.19737" lon="5.7256">
        <ele>435.79998779297</ele>
        <time>2021-07-24T03:50:37.000Z</time>
      </trkpt>
      <trkpt lat="45.19737" lon="5.72556">
        <ele>436.20001220703</ele>
        <time>2021-07-24T03:50:38.000Z</time>
      </trkpt>
      <trkpt lat="45.19737" lon="5.72545">
        <ele>436.39999389648</ele>
        <time>2021-07-24T03:50:41.000Z</time>
      </trkpt>
      <trkpt lat="45.19736" lon="5.72543">
        <ele>436.39999389648</ele>
        <time>2021-07-24T03:50:42.000Z</time>
      </trkpt>
      <trkpt lat="45.19734" lon="5.72542">
        <ele>436.39999389648</ele>
        <time>2021-07-24T03:50:43.000Z</time>
      </trkpt>
      <trkpt lat="45.19727" lon="5.72538">
        <ele>436.60000610352</ele>
        <time>2021-07-24T03:50:47.000Z</time>
      </trkpt>
      <trkpt lat="45.19725" lon="5.72532">
        <ele>436.20001220703</ele>
        <time>2021-07-24T03:50:49.000Z</time>
      </trkpt>
      <trkpt lat="45.19725" lon="5.72525">
        <ele>436.39999389648</ele>
        <time>2021-07-24T03:50:51.000Z</time>
      </trkpt>
      <trkpt lat="45.19727" lon="5.7252">
        <ele>436.60000610352</ele>
        <time>2021-07-24T03:50:53.000Z</time>
      </trkpt>
      <trkpt lat="45.19732" lon="5.72513">
        <ele>436.20001220703</ele>
        <time>2021-07-24T03:50:56.000Z</time>
      </trkpt>
      <trkpt lat="45.19736" lon="5.72513">
        <ele>435.79998779297</ele>
        <time>2021-07-24T03:50:58.000Z</time>
      </trkpt>
      <trkpt lat="45.1974" lon="5.72514">
        <ele>435.79998779297</ele>
        <time>2021-07-24T03:51:00.000Z</time>
      </trkpt>
      <trkpt lat="45.19743" lon="5.7251">
        <ele>435.79998779297</ele>
        <time>2021-07-24T03:51:02.000Z</time>
      </trkpt>
      <trkpt lat="45.19755" lon="5.72488">
        <ele>436.39999389648</ele>
        <time>2021-07-24T03:51:09.000Z</time>
      </trkpt>
      <trkpt lat="45.19765" lon="5.72468">
        <ele>436.39999389648</ele>
        <time>2021-07-24T03:51:15.000Z</time>
      </trkpt>
      <trkpt lat="45.19777" lon="5.72446">
        <ele>436.20001220703</ele>
        <time>2021-07-24T03:51:22.000Z</time>
      </trkpt>
      <trkpt lat="45.19779" lon="5.72443">
        <ele>436.20001220703</ele>
        <time>2021-07-24T03:51:23.000Z</time>
      </trkpt>
      <trkpt lat="45.1979" lon="5.72421">
        <ele>436.39999389648</ele>
        <time>2021-07-24T03:51:30.000Z</time>
      </trkpt>
      <trkpt lat="45.19791" lon="5.72419">
        <ele>436.60000610352</ele>
        <time>2021-07-24T03:51:31.000Z</time>
      </trkpt>
      <trkpt lat="45.19791" lon="5.72409">
        <ele>437.20001220703</ele>
        <time>2021-07-24T03:51:34.000Z</time>
      </trkpt>
      <trkpt lat="45.19792" lon="5.72394">
        <ele>436.79998779297</ele>
        <time>2021-07-24T03:51:38.000Z</time>
      </trkpt>
      <trkpt lat="45.19797" lon="5.72372">
        <ele>437</ele>
        <time>2021-07-24T03:51:44.000Z</time>
      </trkpt>
      <trkpt lat="45.19807" lon="5.72348">
        <ele>437</ele>
        <time>2021-07-24T03:51:51.000Z</time>
      </trkpt>
      <trkpt lat="45.19808" lon="5.72345">
        <ele>436.79998779297</ele>
        <time>2021-07-24T03:51:52.000Z</time>
      </trkpt>
      <trkpt lat="45.19815" lon="5.72322">
        <ele>436.79998779297</ele>
        <time>2021-07-24T03:51:59.000Z</time>
      </trkpt>
      <trkpt lat="45.19819" lon="5.72308">
        <ele>436.60000610352</ele>
        <time>2021-07-24T03:52:04.000Z</time>
      </trkpt>
      <trkpt lat="45.19822" lon="5.723">
        <ele>436.60000610352</ele>
        <time>2021-07-24T03:52:07.000Z</time>
      </trkpt>
      <trkpt lat="45.19823" lon="5.72302">
        <ele>436.60000610352</ele>
        <time>2021-07-24T03:52:09.000Z</time>
      </trkpt>
      <trkpt lat="45.19822" lon="5.72308">
        <ele>437.20001220703</ele>
        <time>2021-07-24T03:52:11.000Z</time>
      </trkpt>
      <trkpt lat="45.19819" lon="5.72313">
        <ele>437.20001220703</ele>
        <time>2021-07-24T03:52:13.000Z</time>
      </trkpt>
      <trkpt lat="45.19813" lon="5.72332">
        <ele>437.20001220703</ele>
        <time>2021-07-24T03:52:18.000Z</time>
      </trkpt>
      <trkpt lat="45.19807" lon="5.72355">
        <ele>437</ele>
        <time>2021-07-24T03:52:25.000Z</time>
      </trkpt>
      <trkpt lat="45.19804" lon="5.72365">
        <ele>437.20001220703</ele>
        <time>2021-07-24T03:52:28.000Z</time>
      </trkpt>
      <trkpt lat="45.198" lon="5.72371">
        <ele>437</ele>
        <time>2021-07-24T03:52:30.000Z</time>
      </trkpt>
      <trkpt lat="45.19799" lon="5.72375">
        <ele>437</ele>
        <time>2021-07-24T03:52:31.000Z</time>
      </trkpt>
      <trkpt lat="45.19797" lon="5.72387">
        <ele>437</ele>
        <time>2021-07-24T03:52:35.000Z</time>
      </trkpt>
      <trkpt lat="45.19795" lon="5.72389">
        <ele>437.20001220703</ele>
        <time>2021-07-24T03:52:36.000Z</time>
      </trkpt>
      <trkpt lat="45.19795" lon="5.72396">
        <ele>437.20001220703</ele>
        <time>2021-07-24T03:52:38.000Z</time>
      </trkpt>
      <trkpt lat="45.19797" lon="5.72418">
        <ele>436.39999389648</ele>
        <time>2021-07-24T03:52:43.000Z</time>
      </trkpt>
      <trkpt lat="45.19796" lon="5.72421">
        <ele>436.39999389648</ele>
        <time>2021-07-24T03:52:44.000Z</time>
      </trkpt>
      <trkpt lat="45.19794" lon="5.72439">
        <ele>436</ele>
        <time>2021-07-24T03:52:48.000Z</time>
      </trkpt>
      <trkpt lat="45.19794" lon="5.72456">
        <ele>436</ele>
        <time>2021-07-24T03:52:53.000Z</time>
      </trkpt>
      <trkpt lat="45.19794" lon="5.72471">
        <ele>437.60000610352</ele>
        <time>2021-07-24T03:52:58.000Z</time>
      </trkpt>
      <trkpt lat="45.19793" lon="5.72477">
        <ele>437.60000610352</ele>
        <time>2021-07-24T03:53:00.000Z</time>
      </trkpt>
      <trkpt lat="45.19791" lon="5.72484">
        <ele>437.60000610352</ele>
        <time>2021-07-24T03:53:02.000Z</time>
      </trkpt>
      <trkpt lat="45.19785" lon="5.72505">
        <ele>438</ele>
        <time>2021-07-24T03:53:08.000Z</time>
      </trkpt>
      <trkpt lat="45.19784" lon="5.72511">
        <ele>439</ele>
        <time>2021-07-24T03:53:11.000Z</time>
      </trkpt>
      <trkpt lat="45.19781" lon="5.72517">
        <ele>439.39999389648</ele>
        <time>2021-07-24T03:53:13.000Z</time>
      </trkpt>
      <trkpt lat="45.19781" lon="5.7252">
        <ele>440</ele>
        <time>2021-07-24T03:53:14.000Z</time>
      </trkpt>
      <trkpt lat="45.1978" lon="5.72522">
        <ele>440.39999389648</ele>
        <time>2021-07-24T03:53:15.000Z</time>
      </trkpt>
      <trkpt lat="45.19779" lon="5.72532">
        <ele>440.39999389648</ele>
        <time>2021-07-24T03:53:18.000Z</time>
      </trkpt>
      <trkpt lat="45.19778" lon="5.72541">
        <ele>441.79998779297</ele>
        <time>2021-07-24T03:53:21.000Z</time>
      </trkpt>
      <trkpt lat="45.19777" lon="5.72551">
        <ele>442.20001220703</ele>
        <time>2021-07-24T03:53:24.000Z</time>
      </trkpt>
      <trkpt lat="45.19774" lon="5.72567">
        <ele>443.39999389648</ele>
        <time>2021-07-24T03:53:29.000Z</time>
      </trkpt>
      <trkpt lat="45.19777" lon="5.72582">
        <ele>444.60000610352</ele>
        <time>2021-07-24T03:53:34.000Z</time>
      </trkpt>
      <trkpt lat="45.19777" lon="5.72583">
        <ele>444.79998779297</ele>
        <time>2021-07-24T03:53:35.000Z</time>
      </trkpt>
      <trkpt lat="45.19776" lon="5.7258">
        <ele>445.20001220703</ele>
        <time>2021-07-24T03:53:38.000Z</time>
      </trkpt>
      <trkpt lat="45.19775" lon="5.72574">
        <ele>445.39999389648</ele>
        <time>2021-07-24T03:53:41.000Z</time>
      </trkpt>
      <trkpt lat="45.19775" lon="5.72572">
        <ele>445.60000610352</ele>
        <time>2021-07-24T03:53:42.000Z</time>
      </trkpt>
      <trkpt lat="45.19775" lon="5.7257">
        <ele>446</ele>
        <time>2021-07-24T03:53:43.000Z</time>
      </trkpt>
      <trkpt lat="45.19776" lon="5.72566">
        <ele>446.20001220703</ele>
        <time>2021-07-24T03:53:45.000Z</time>
      </trkpt>
      <trkpt lat="45.19779" lon="5.72554">
        <ele>447</ele>
        <time>2021-07-24T03:53:50.000Z</time>
      </trkpt>
      <trkpt lat="45.1978" lon="5.72545">
        <ele>447.79998779297</ele>
        <time>2021-07-24T03:53:54.000Z</time>
      </trkpt>
      <trkpt lat="45.1978" lon="5.72541">
        <ele>447.79998779297</ele>
        <time>2021-07-24T03:53:56.000Z</time>
      </trkpt>
      <trkpt lat="45.19781" lon="5.72539">
        <ele>448.39999389648</ele>
        <time>2021-07-24T03:53:57.000Z</time>
      </trkpt>
      <trkpt lat="45.19784" lon="5.72532">
        <ele>448.79998779297</ele>
        <time>2021-07-24T03:54:00.000Z</time>
      </trkpt>
      <trkpt lat="45.19786" lon="5.72532">
        <ele>449</ele>
        <time>2021-07-24T03:54:01.000Z</time>
      </trkpt>
      <trkpt lat="45.19787" lon="5.72532">
        <ele>449</ele>
        <time>2021-07-24T03:54:02.000Z</time>
      </trkpt>
      <trkpt lat="45.19788" lon="5.72533">
        <ele>449.39999389648</ele>
        <time>2021-07-24T03:54:03.000Z</time>
      </trkpt>
      <trkpt lat="45.19788" lon="5.72534">
        <ele>449.39999389648</ele>
        <time>2021-07-24T03:54:04.000Z</time>
      </trkpt>
      <trkpt lat="45.19789" lon="5.72537">
        <ele>449.60000610352</ele>
        <time>2021-07-24T03:54:05.000Z</time>
      </trkpt>
      <trkpt lat="45.19789" lon="5.72542">
        <ele>450.60000610352</ele>
        <time>2021-07-24T03:54:07.000Z</time>
      </trkpt>
      <trkpt lat="45.1979" lon="5.72555">
        <ele>451</ele>
        <time>2021-07-24T03:54:11.000Z</time>
      </trkpt>
      <trkpt lat="45.19791" lon="5.72564">
        <ele>452</ele>
        <time>2021-07-24T03:54:14.000Z</time>
      </trkpt>
      <trkpt lat="45.19792" lon="5.72576">
        <ele>452.60000610352</ele>
        <time>2021-07-24T03:54:18.000Z</time>
      </trkpt>
      <trkpt lat="45.19792" lon="5.72579">
        <ele>453</ele>
        <time>2021-07-24T03:54:19.000Z</time>
      </trkpt>
      <trkpt lat="45.19793" lon="5.72591">
        <ele>453.79998779297</ele>
        <time>2021-07-24T03:54:23.000Z</time>
      </trkpt>
      <trkpt lat="45.19793" lon="5.72594">
        <ele>454.39999389648</ele>
        <time>2021-07-24T03:54:24.000Z</time>
      </trkpt>
      <trkpt lat="45.19793" lon="5.72609">
        <ele>455.20001220703</ele>
        <time>2021-07-24T03:54:29.000Z</time>
      </trkpt>
      <trkpt lat="45.19793" lon="5.72612">
        <ele>455.20001220703</ele>
        <time>2021-07-24T03:54:30.000Z</time>
      </trkpt>
      <trkpt lat="45.19794" lon="5.72615">
        <ele>455.39999389648</ele>
        <time>2021-07-24T03:54:31.000Z</time>
      </trkpt>
      <trkpt lat="45.19796" lon="5.72617">
        <ele>456.39999389648</ele>
        <time>2021-07-24T03:54:33.000Z</time>
      </trkpt>
      <trkpt lat="45.19797" lon="5.72619">
        <ele>456.39999389648</ele>
        <time>2021-07-24T03:54:34.000Z</time>
      </trkpt>
      <trkpt lat="45.19802" lon="5.7263">
        <ele>457.60000610352</ele>
        <time>2021-07-24T03:54:38.000Z</time>
      </trkpt>
      <trkpt lat="45.19805" lon="5.72632">
        <ele>457.60000610352</ele>
        <time>2021-07-24T03:54:40.000Z</time>
      </trkpt>
      <trkpt lat="45.19812" lon="5.72637">
        <ele>459.39999389648</ele>
        <time>2021-07-24T03:54:45.000Z</time>
      </trkpt>
      <trkpt lat="45.19817" lon="5.72642">
        <ele>459.60000610352</ele>
        <time>2021-07-24T03:54:48.000Z</time>
      </trkpt>
      <trkpt lat="45.19821" lon="5.72646">
        <ele>460.60000610352</ele>
        <time>2021-07-24T03:54:51.000Z</time>
      </trkpt>
      <trkpt lat="45.19824" lon="5.7265">
        <ele>460.79998779297</ele>
        <time>2021-07-24T03:54:53.000Z</time>
      </trkpt>
      <trkpt lat="45.19826" lon="5.72653">
        <ele>461</ele>
        <time>2021-07-24T03:54:55.000Z</time>
      </trkpt>
      <trkpt lat="45.19829" lon="5.72657">
        <ele>461.79998779297</ele>
        <time>2021-07-24T03:54:57.000Z</time>
      </trkpt>
      <trkpt lat="45.19837" lon="5.72668">
        <ele>462.39999389648</ele>
        <time>2021-07-24T03:55:02.000Z</time>
      </trkpt>
      <trkpt lat="45.19842" lon="5.72673">
        <ele>463.20001220703</ele>
        <time>2021-07-24T03:55:04.000Z</time>
      </trkpt>
      <trkpt lat="45.19851" lon="5.72676">
        <ele>463.60000610352</ele>
        <time>2021-07-24T03:55:09.000Z</time>
      </trkpt>
      <trkpt lat="45.19854" lon="5.72677">
        <ele>464</ele>
        <time>2021-07-24T03:55:11.000Z</time>
      </trkpt>
      <trkpt lat="45.19853" lon="5.72676">
        <ele>464.39999389648</ele>
        <time>2021-07-24T03:55:13.000Z</time>
      </trkpt>
      <trkpt lat="45.19851" lon="5.72675">
        <ele>464.79998779297</ele>
        <time>2021-07-24T03:55:15.000Z</time>
      </trkpt>
      <trkpt lat="45.19849" lon="5.72674">
        <ele>465.20001220703</ele>
        <time>2021-07-24T03:55:17.000Z</time>
      </trkpt>
      <trkpt lat="45.19847" lon="5.72673">
        <ele>465.39999389648</ele>
        <time>2021-07-24T03:55:19.000Z</time>
      </trkpt>
      <trkpt lat="45.19844" lon="5.72671">
        <ele>466</ele>
        <time>2021-07-24T03:55:21.000Z</time>
      </trkpt>
      <trkpt lat="45.19842" lon="5.72669">
        <ele>466.20001220703</ele>
        <time>2021-07-24T03:55:23.000Z</time>
      </trkpt>
      <trkpt lat="45.19841" lon="5.72667">
        <ele>466.60000610352</ele>
        <time>2021-07-24T03:55:24.000Z</time>
      </trkpt>
      <trkpt lat="45.19834" lon="5.72655">
        <ele>467.79998779297</ele>
        <time>2021-07-24T03:55:30.000Z</time>
      </trkpt>
      <trkpt lat="45.19832" lon="5.72652">
        <ele>467.79998779297</ele>
        <time>2021-07-24T03:55:32.000Z</time>
      </trkpt>
      <trkpt lat="45.19827" lon="5.72642">
        <ele>468.60000610352</ele>
        <time>2021-07-24T03:55:37.000Z</time>
      </trkpt>
      <trkpt lat="45.19824" lon="5.72639">
        <ele>468.79998779297</ele>
        <time>2021-07-24T03:55:39.000Z</time>
      </trkpt>
      <trkpt lat="45.19823" lon="5.72637">
        <ele>469.20001220703</ele>
        <time>2021-07-24T03:55:40.000Z</time>
      </trkpt>
      <trkpt lat="45.19821" lon="5.7263">
        <ele>469.60000610352</ele>
        <time>2021-07-24T03:55:43.000Z</time>
      </trkpt>
      <trkpt lat="45.1982" lon="5.72626">
        <ele>469.79998779297</ele>
        <time>2021-07-24T03:55:45.000Z</time>
      </trkpt>
      <trkpt lat="45.19817" lon="5.72613">
        <ele>470.39999389648</ele>
        <time>2021-07-24T03:55:50.000Z</time>
      </trkpt>
      <trkpt lat="45.19817" lon="5.72611">
        <ele>471</ele>
        <time>2021-07-24T03:55:51.000Z</time>
      </trkpt>
      <trkpt lat="45.19816" lon="5.72599">
        <ele>471.79998779297</ele>
        <time>2021-07-24T03:55:56.000Z</time>
      </trkpt>
      <trkpt lat="45.19815" lon="5.72592">
        <ele>472</ele>
        <time>2021-07-24T03:55:59.000Z</time>
      </trkpt>
      <trkpt lat="45.19814" lon="5.72581">
        <ele>473.20001220703</ele>
        <time>2021-07-24T03:56:03.000Z</time>
      </trkpt>
      <trkpt lat="45.19814" lon="5.72578">
        <ele>473.20001220703</ele>
        <time>2021-07-24T03:56:04.000Z</time>
      </trkpt>
      <trkpt lat="45.19815" lon="5.72559">
        <ele>474.39999389648</ele>
        <time>2021-07-24T03:56:11.000Z</time>
      </trkpt>
      <trkpt lat="45.19814" lon="5.72554">
        <ele>475</ele>
        <time>2021-07-24T03:56:13.000Z</time>
      </trkpt>
      <trkpt lat="45.19815" lon="5.72536">
        <ele>475.79998779297</ele>
        <time>2021-07-24T03:56:19.000Z</time>
      </trkpt>
      <trkpt lat="45.19816" lon="5.7253">
        <ele>476.39999389648</ele>
        <time>2021-07-24T03:56:21.000Z</time>
      </trkpt>
      <trkpt lat="45.19819" lon="5.72518">
        <ele>477</ele>
        <time>2021-07-24T03:56:25.000Z</time>
      </trkpt>
      <trkpt lat="45.19821" lon="5.72509">
        <ele>478.20001220703</ele>
        <time>2021-07-24T03:56:28.000Z</time>
      </trkpt>
      <trkpt lat="45.19822" lon="5.72506">
        <ele>478.20001220703</ele>
        <time>2021-07-24T03:56:29.000Z</time>
      </trkpt>
      <trkpt lat="45.19823" lon="5.72498">
        <ele>478.60000610352</ele>
        <time>2021-07-24T03:56:32.000Z</time>
      </trkpt>
      <trkpt lat="45.19825" lon="5.7249">
        <ele>479.39999389648</ele>
        <time>2021-07-24T03:56:35.000Z</time>
      </trkpt>
      <trkpt lat="45.19826" lon="5.72482">
        <ele>480</ele>
        <time>2021-07-24T03:56:38.000Z</time>
      </trkpt>
      <trkpt lat="45.19828" lon="5.72476">
        <ele>480.39999389648</ele>
        <time>2021-07-24T03:56:40.000Z</time>
      </trkpt>
      <trkpt lat="45.19831" lon="5.72459">
        <ele>481.39999389648</ele>
        <time>2021-07-24T03:56:46.000Z</time>
      </trkpt>
      <trkpt lat="45.19832" lon="5.72456">
        <ele>481.60000610352</ele>
        <time>2021-07-24T03:56:47.000Z</time>
      </trkpt>
      <trkpt lat="45.19833" lon="5.72447">
        <ele>483</ele>
        <time>2021-07-24T03:56:50.000Z</time>
      </trkpt>
      <trkpt lat="45.19837" lon="5.72442">
        <ele>483</ele>
        <time>2021-07-24T03:56:52.000Z</time>
      </trkpt>
      <trkpt lat="45.1984" lon="5.72442">
        <ele>483</ele>
        <time>2021-07-24T03:56:54.000Z</time>
      </trkpt>
      <trkpt lat="45.19844" lon="5.72444">
        <ele>483</ele>
        <time>2021-07-24T03:56:56.000Z</time>
      </trkpt>
      <trkpt lat="45.19844" lon="5.7245">
        <ele>484.20001220703</ele>
        <time>2021-07-24T03:56:58.000Z</time>
      </trkpt>
      <trkpt lat="45.19849" lon="5.72464">
        <ele>485.39999389648</ele>
        <time>2021-07-24T03:57:03.000Z</time>
      </trkpt>
      <trkpt lat="45.1985" lon="5.72471">
        <ele>486.20001220703</ele>
        <time>2021-07-24T03:57:05.000Z</time>
      </trkpt>
      <trkpt lat="45.1985" lon="5.72485">
        <ele>486.60000610352</ele>
        <time>2021-07-24T03:57:09.000Z</time>
      </trkpt>
      <trkpt lat="45.1985" lon="5.72496">
        <ele>487.79998779297</ele>
        <time>2021-07-24T03:57:12.000Z</time>
      </trkpt>
      <trkpt lat="45.1985" lon="5.725">
        <ele>487.79998779297</ele>
        <time>2021-07-24T03:57:13.000Z</time>
      </trkpt>
      <trkpt lat="45.19852" lon="5.7251">
        <ele>488.60000610352</ele>
        <time>2021-07-24T03:57:16.000Z</time>
      </trkpt>
      <trkpt lat="45.19852" lon="5.72517">
        <ele>489</ele>
        <time>2021-07-24T03:57:18.000Z</time>
      </trkpt>
      <trkpt lat="45.19852" lon="5.7252">
        <ele>489.20001220703</ele>
        <time>2021-07-24T03:57:19.000Z</time>
      </trkpt>
      <trkpt lat="45.19853" lon="5.72538">
        <ele>490</ele>
        <time>2021-07-24T03:57:24.000Z</time>
      </trkpt>
      <trkpt lat="45.19854" lon="5.72542">
        <ele>490.39999389648</ele>
        <time>2021-07-24T03:57:25.000Z</time>
      </trkpt>
      <trkpt lat="45.19856" lon="5.72552">
        <ele>491.20001220703</ele>
        <time>2021-07-24T03:57:28.000Z</time>
      </trkpt>
      <trkpt lat="45.19856" lon="5.72555">
        <ele>491.60000610352</ele>
        <time>2021-07-24T03:57:31.000Z</time>
      </trkpt>
      <trkpt lat="45.19856" lon="5.72548">
        <ele>491.79998779297</ele>
        <time>2021-07-24T03:57:35.000Z</time>
      </trkpt>
      <trkpt lat="45.19856" lon="5.72545">
        <ele>492.60000610352</ele>
        <time>2021-07-24T03:57:36.000Z</time>
      </trkpt>
      <trkpt lat="45.19853" lon="5.72534">
        <ele>493.20001220703</ele>
        <time>2021-07-24T03:57:41.000Z</time>
      </trkpt>
      <trkpt lat="45.19853" lon="5.72529">
        <ele>494</ele>
        <time>2021-07-24T03:57:43.000Z</time>
      </trkpt>
      <trkpt lat="45.19853" lon="5.72512">
        <ele>494.79998779297</ele>
        <time>2021-07-24T03:57:49.000Z</time>
      </trkpt>
      <trkpt lat="45.19857" lon="5.72498">
        <ele>494.79998779297</ele>
        <time>2021-07-24T03:57:54.000Z</time>
      </trkpt>
      <trkpt lat="45.19857" lon="5.72498">
        <ele>495.20001220703</ele>
        <time>2021-07-24T03:57:55.000Z</time>
      </trkpt>
      <trkpt lat="45.19858" lon="5.72497">
        <ele>495.20001220703</ele>
        <time>2021-07-24T03:57:56.000Z</time>
      </trkpt>
      <trkpt lat="45.19859" lon="5.72495">
        <ele>497.39999389648</ele>
        <time>2021-07-24T03:58:00.000Z</time>
      </trkpt>
      <trkpt lat="45.19861" lon="5.72492">
        <ele>498.20001220703</ele>
        <time>2021-07-24T03:58:03.000Z</time>
      </trkpt>
      <trkpt lat="45.19862" lon="5.72492">
        <ele>498.60000610352</ele>
        <time>2021-07-24T03:58:04.000Z</time>
      </trkpt>
      <trkpt lat="45.19861" lon="5.72491">
        <ele>499.20001220703</ele>
        <time>2021-07-24T03:58:05.000Z</time>
      </trkpt>
      <trkpt lat="45.19862" lon="5.72491">
        <ele>500.20001220703</ele>
        <time>2021-07-24T03:58:06.000Z</time>
      </trkpt>
      <trkpt lat="45.19864" lon="5.7249">
        <ele>500.60000610352</ele>
        <time>2021-07-24T03:58:08.000Z</time>
      </trkpt>
      <trkpt lat="45.19867" lon="5.72488">
        <ele>500.79998779297</ele>
        <time>2021-07-24T03:58:10.000Z</time>
      </trkpt>
      <trkpt lat="45.19869" lon="5.72485">
        <ele>501.20001220703</ele>
        <time>2021-07-24T03:58:13.000Z</time>
      </trkpt>
      <trkpt lat="45.19869" lon="5.72484">
        <ele>502</ele>
        <time>2021-07-24T03:58:14.000Z</time>
      </trkpt>
      <trkpt lat="45.1987" lon="5.72483">
        <ele>503</ele>
        <time>2021-07-24T03:58:15.000Z</time>
      </trkpt>
      <trkpt lat="45.19873" lon="5.72484">
        <ele>504</ele>
        <time>2021-07-24T03:58:18.000Z</time>
      </trkpt>
      <trkpt lat="45.19874" lon="5.72485">
        <ele>504.20001220703</ele>
        <time>2021-07-24T03:58:19.000Z</time>
      </trkpt>
      <trkpt lat="45.19876" lon="5.72491">
        <ele>504.39999389648</ele>
        <time>2021-07-24T03:58:21.000Z</time>
      </trkpt>
      <trkpt lat="45.19883" lon="5.72512">
        <ele>504.60000610352</ele>
        <time>2021-07-24T03:58:27.000Z</time>
      </trkpt>
      <trkpt lat="45.19889" lon="5.72532">
        <ele>504.60000610352</ele>
        <time>2021-07-24T03:58:33.000Z</time>
      </trkpt>
      <trkpt lat="45.19891" lon="5.72536">
        <ele>505.39999389648</ele>
        <time>2021-07-24T03:58:36.000Z</time>
      </trkpt>
      <trkpt lat="45.19892" lon="5.72537">
        <ele>505.60000610352</ele>
        <time>2021-07-24T03:58:37.000Z</time>
      </trkpt>
      <trkpt lat="45.19893" lon="5.72538">
        <ele>507</ele>
        <time>2021-07-24T03:58:39.000Z</time>
      </trkpt>
      <trkpt lat="45.19893" lon="5.72541">
        <ele>507.39999389648</ele>
        <time>2021-07-24T03:58:41.000Z</time>
      </trkpt>
      <trkpt lat="45.19893" lon="5.72542">
        <ele>507.39999389648</ele>
        <time>2021-07-24T03:58:42.000Z</time>
      </trkpt>
      <trkpt lat="45.19892" lon="5.72543">
        <ele>508.20001220703</ele>
        <time>2021-07-24T03:58:43.000Z</time>
      </trkpt>
      <trkpt lat="45.1989" lon="5.72548">
        <ele>509.39999389648</ele>
        <time>2021-07-24T03:58:47.000Z</time>
      </trkpt>
      <trkpt lat="45.19889" lon="5.72549">
        <ele>509.60000610352</ele>
        <time>2021-07-24T03:58:48.000Z</time>
      </trkpt>
      <trkpt lat="45.19889" lon="5.72562">
        <ele>509.79998779297</ele>
        <time>2021-07-24T03:58:53.000Z</time>
      </trkpt>
      <trkpt lat="45.19886" lon="5.72566">
        <ele>509.79998779297</ele>
        <time>2021-07-24T03:58:55.000Z</time>
      </trkpt>
      <trkpt lat="45.1988" lon="5.72567">
        <ele>510</ele>
        <time>2021-07-24T03:58:57.000Z</time>
      </trkpt>
      <trkpt lat="45.19878" lon="5.72565">
        <ele>510</ele>
        <time>2021-07-24T03:58:58.000Z</time>
      </trkpt>
      <trkpt lat="45.19875" lon="5.72558">
        <ele>510</ele>
        <time>2021-07-24T03:59:01.000Z</time>
      </trkpt>
      <trkpt lat="45.19872" lon="5.72532">
        <ele>510</ele>
        <time>2021-07-24T03:59:09.000Z</time>
      </trkpt>
      <trkpt lat="45.19871" lon="5.72529">
        <ele>510.20001220703</ele>
        <time>2021-07-24T03:59:10.000Z</time>
      </trkpt>
      <trkpt lat="45.19868" lon="5.72511">
        <ele>510.20001220703</ele>
        <time>2021-07-24T03:59:16.000Z</time>
      </trkpt>
      <trkpt lat="45.19868" lon="5.72509">
        <ele>510</ele>
        <time>2021-07-24T03:59:17.000Z</time>
      </trkpt>
      <trkpt lat="45.19872" lon="5.72507">
        <ele>510.39999389648</ele>
        <time>2021-07-24T03:59:19.000Z</time>
      </trkpt>
      <trkpt lat="45.19877" lon="5.72517">
        <ele>510</ele>
        <time>2021-07-24T03:59:23.000Z</time>
      </trkpt>
      <trkpt lat="45.19878" lon="5.72544">
        <ele>510</ele>
        <time>2021-07-24T03:59:30.000Z</time>
      </trkpt>
      <trkpt lat="45.19879" lon="5.72548">
        <ele>510</ele>
        <time>2021-07-24T03:59:31.000Z</time>
      </trkpt>
      <trkpt lat="45.19879" lon="5.72551">
        <ele>509.39999389648</ele>
        <time>2021-07-24T03:59:35.000Z</time>
      </trkpt>
      <trkpt lat="45.19877" lon="5.72548">
        <ele>508.39999389648</ele>
        <time>2021-07-24T03:59:38.000Z</time>
      </trkpt>
      <trkpt lat="45.19876" lon="5.72546">
        <ele>507.79998779297</ele>
        <time>2021-07-24T03:59:39.000Z</time>
      </trkpt>
      <trkpt lat="45.19876" lon="5.72545">
        <ele>507.39999389648</ele>
        <time>2021-07-24T03:59:40.000Z</time>
      </trkpt>
      <trkpt lat="45.19876" lon="5.72543">
        <ele>507.39999389648</ele>
        <time>2021-07-24T03:59:41.000Z</time>
      </trkpt>
      <trkpt lat="45.19875" lon="5.7254">
        <ele>505.79998779297</ele>
        <time>2021-07-24T03:59:43.000Z</time>
      </trkpt>
      <trkpt lat="45.19874" lon="5.72537">
        <ele>505.39999389648</ele>
        <time>2021-07-24T03:59:45.000Z</time>
      </trkpt>
      <trkpt lat="45.19875" lon="5.72536">
        <ele>505.39999389648</ele>
        <time>2021-07-24T03:59:46.000Z</time>
      </trkpt>
      <trkpt lat="45.19875" lon="5.72537">
        <ele>505.20001220703</ele>
        <time>2021-07-24T03:59:47.000Z</time>
      </trkpt>
      <trkpt lat="45.19883" lon="5.72552">
        <ele>505.39999389648</ele>
        <time>2021-07-24T03:59:52.000Z</time>
      </trkpt>
      <trkpt lat="45.19887" lon="5.7258">
        <ele>505.20001220703</ele>
        <time>2021-07-24T03:59:59.000Z</time>
      </trkpt>
      <trkpt lat="45.19888" lon="5.72582">
        <ele>505.20001220703</ele>
        <time>2021-07-24T04:00:01.000Z</time>
      </trkpt>
      <trkpt lat="45.19889" lon="5.72581">
        <ele>505.20001220703</ele>
        <time>2021-07-24T04:00:02.000Z</time>
      </trkpt>
      <trkpt lat="45.19891" lon="5.72576">
        <ele>505.20001220703</ele>
        <time>2021-07-24T04:00:04.000Z</time>
      </trkpt>
      <trkpt lat="45.19891" lon="5.72569">
        <ele>505.20001220703</ele>
        <time>2021-07-24T04:00:06.000Z</time>
      </trkpt>
      <trkpt lat="45.19888" lon="5.72548">
        <ele>505.20001220703</ele>
        <time>2021-07-24T04:00:12.000Z</time>
      </trkpt>
      <trkpt lat="45.19886" lon="5.72534">
        <ele>505.39999389648</ele>
        <time>2021-07-24T04:00:16.000Z</time>
      </trkpt>
      <trkpt lat="45.19886" lon="5.72527">
        <ele>505.39999389648</ele>
        <time>2021-07-24T04:00:18.000Z</time>
      </trkpt>
      <trkpt lat="45.19886" lon="5.7252">
        <ele>506</ele>
        <time>2021-07-24T04:00:20.000Z</time>
      </trkpt>
      <trkpt lat="45.19886" lon="5.72511">
        <ele>505.20001220703</ele>
        <time>2021-07-24T04:00:23.000Z</time>
      </trkpt>
      <trkpt lat="45.19885" lon="5.72505">
        <ele>505.79998779297</ele>
        <time>2021-07-24T04:00:25.000Z</time>
      </trkpt>
      <trkpt lat="45.19883" lon="5.72499">
        <ele>505.20001220703</ele>
        <time>2021-07-24T04:00:27.000Z</time>
      </trkpt>
      <trkpt lat="45.19882" lon="5.72497">
        <ele>505.60000610352</ele>
        <time>2021-07-24T04:00:28.000Z</time>
      </trkpt>
      <trkpt lat="45.19879" lon="5.72496">
        <ele>505</ele>
        <time>2021-07-24T04:00:31.000Z</time>
      </trkpt>
      <trkpt lat="45.19878" lon="5.72496">
        <ele>504.60000610352</ele>
        <time>2021-07-24T04:00:32.000Z</time>
      </trkpt>
      <trkpt lat="45.19874" lon="5.72495">
        <ele>503</ele>
        <time>2021-07-24T04:00:36.000Z</time>
      </trkpt>
      <trkpt lat="45.19872" lon="5.72496">
        <ele>502.20001220703</ele>
        <time>2021-07-24T04:00:38.000Z</time>
      </trkpt>
      <trkpt lat="45.1987" lon="5.72496">
        <ele>502</ele>
        <time>2021-07-24T04:00:39.000Z</time>
      </trkpt>
      <trkpt lat="45.19867" lon="5.72498">
        <ele>500.79998779297</ele>
        <time>2021-07-24T04:00:42.000Z</time>
      </trkpt>
      <trkpt lat="45.19865" lon="5.72497">
        <ele>499.20001220703</ele>
        <time>2021-07-24T04:00:44.000Z</time>
      </trkpt>
      <trkpt lat="45.19863" lon="5.72497">
        <ele>498.79998779297</ele>
        <time>2021-07-24T04:00:46.000Z</time>
      </trkpt>
      <trkpt lat="45.19862" lon="5.72495">
        <ele>497.39999389648</ele>
        <time>2021-07-24T04:00:48.000Z</time>
      </trkpt>
      <trkpt lat="45.19861" lon="5.72493">
        <ele>496</ele>
        <time>2021-07-24T04:00:49.000Z</time>
      </trkpt>
      <trkpt lat="45.19856" lon="5.72494">
        <ele>495.60000610352</ele>
        <time>2021-07-24T04:00:51.000Z</time>
      </trkpt>
      <trkpt lat="45.19857" lon="5.72491">
        <ele>495.60000610352</ele>
        <time>2021-07-24T04:00:53.000Z</time>
      </trkpt>
      <trkpt lat="45.19865" lon="5.72486">
        <ele>495.60000610352</ele>
        <time>2021-07-24T04:00:57.000Z</time>
      </trkpt>
      <trkpt lat="45.19867" lon="5.72485">
        <ele>496</ele>
        <time>2021-07-24T04:00:58.000Z</time>
      </trkpt>
      <trkpt lat="45.19875" lon="5.72478">
        <ele>496.20001220703</ele>
        <time>2021-07-24T04:01:03.000Z</time>
      </trkpt>
      <trkpt lat="45.19875" lon="5.72475">
        <ele>496.20001220703</ele>
        <time>2021-07-24T04:01:04.000Z</time>
      </trkpt>
      <trkpt lat="45.19889" lon="5.72448">
        <ele>495.79998779297</ele>
        <time>2021-07-24T04:01:12.000Z</time>
      </trkpt>
      <trkpt lat="45.19893" lon="5.72437">
        <ele>495.39999389648</ele>
        <time>2021-07-24T04:01:14.000Z</time>
      </trkpt>
      <trkpt lat="45.19901" lon="5.72434">
        <ele>494.60000610352</ele>
        <time>2021-07-24T04:01:17.000Z</time>
      </trkpt>
      <trkpt lat="45.19907" lon="5.72431">
        <ele>493.79998779297</ele>
        <time>2021-07-24T04:01:19.000Z</time>
      </trkpt>
      <trkpt lat="45.19913" lon="5.72427">
        <ele>493.39999389648</ele>
        <time>2021-07-24T04:01:21.000Z</time>
      </trkpt>
      <trkpt lat="45.19925" lon="5.72422">
        <ele>492.39999389648</ele>
        <time>2021-07-24T04:01:25.000Z</time>
      </trkpt>
      <trkpt lat="45.19934" lon="5.72419">
        <ele>492</ele>
        <time>2021-07-24T04:01:28.000Z</time>
      </trkpt>
      <trkpt lat="45.19951" lon="5.72414">
        <ele>491.79998779297</ele>
        <time>2021-07-24T04:01:34.000Z</time>
      </trkpt>
      <trkpt lat="45.19968" lon="5.72413">
        <ele>493</ele>
        <time>2021-07-24T04:01:40.000Z</time>
      </trkpt>
      <trkpt lat="45.19976" lon="5.72414">
        <ele>494</ele>
        <time>2021-07-24T04:01:43.000Z</time>
      </trkpt>
      <trkpt lat="45.19979" lon="5.72414">
        <ele>494</ele>
        <time>2021-07-24T04:01:44.000Z</time>
      </trkpt>
      <trkpt lat="45.19986" lon="5.72415">
        <ele>495.20001220703</ele>
        <time>2021-07-24T04:01:47.000Z</time>
      </trkpt>
      <trkpt lat="45.19999" lon="5.72417">
        <ele>496.39999389648</ele>
        <time>2021-07-24T04:01:52.000Z</time>
      </trkpt>
      <trkpt lat="45.20003" lon="5.72418">
        <ele>497.60000610352</ele>
        <time>2021-07-24T04:01:54.000Z</time>
      </trkpt>
      <trkpt lat="45.2001" lon="5.7242">
        <ele>498.20001220703</ele>
        <time>2021-07-24T04:01:57.000Z</time>
      </trkpt>
      <trkpt lat="45.20018" lon="5.7242">
        <ele>498.79998779297</ele>
        <time>2021-07-24T04:02:00.000Z</time>
      </trkpt>
      <trkpt lat="45.2002" lon="5.7242">
        <ele>499</ele>
        <time>2021-07-24T04:02:01.000Z</time>
      </trkpt>
      <trkpt lat="45.20029" lon="5.72422">
        <ele>500.20001220703</ele>
        <time>2021-07-24T04:02:05.000Z</time>
      </trkpt>
      <trkpt lat="45.20045" lon="5.72422">
        <ele>501.39999389648</ele>
        <time>2021-07-24T04:02:12.000Z</time>
      </trkpt>
      <trkpt lat="45.20047" lon="5.72423">
        <ele>501.79998779297</ele>
        <time>2021-07-24T04:02:13.000Z</time>
      </trkpt>
      <trkpt lat="45.20054" lon="5.72423">
        <ele>502.60000610352</ele>
        <time>2021-07-24T04:02:16.000Z</time>
      </trkpt>
      <trkpt lat="45.20059" lon="5.72422">
        <ele>504</ele>
        <time>2021-07-24T04:02:19.000Z</time>
      </trkpt>
      <trkpt lat="45.20062" lon="5.72422">
        <ele>504</ele>
        <time>2021-07-24T04:02:20.000Z</time>
      </trkpt>
      <trkpt lat="45.2007" lon="5.72432">
        <ele>505.20001220703</ele>
        <time>2021-07-24T04:02:25.000Z</time>
      </trkpt>
      <trkpt lat="45.20076" lon="5.72453">
        <ele>506.39999389648</ele>
        <time>2021-07-24T04:02:30.000Z</time>
      </trkpt>
      <trkpt lat="45.20077" lon="5.7246">
        <ele>506.60000610352</ele>
        <time>2021-07-24T04:02:32.000Z</time>
      </trkpt>
      <trkpt lat="45.20078" lon="5.72464">
        <ele>506.60000610352</ele>
        <time>2021-07-24T04:02:33.000Z</time>
      </trkpt>
      <trkpt lat="45.20078" lon="5.72477">
        <ele>507.39999389648</ele>
        <time>2021-07-24T04:02:37.000Z</time>
      </trkpt>
      <trkpt lat="45.20078" lon="5.72484">
        <ele>507.60000610352</ele>
        <time>2021-07-24T04:02:39.000Z</time>
      </trkpt>
      <trkpt lat="45.20075" lon="5.72499">
        <ele>508.79998779297</ele>
        <time>2021-07-24T04:02:43.000Z</time>
      </trkpt>
      <trkpt lat="45.20074" lon="5.72506">
        <ele>508.79998779297</ele>
        <time>2021-07-24T04:02:45.000Z</time>
      </trkpt>
      <trkpt lat="45.20072" lon="5.72523">
        <ele>509</ele>
        <time>2021-07-24T04:02:50.000Z</time>
      </trkpt>
      <trkpt lat="45.20073" lon="5.72526">
        <ele>509.20001220703</ele>
        <time>2021-07-24T04:02:51.000Z</time>
      </trkpt>
      <trkpt lat="45.20081" lon="5.72538">
        <ele>509.39999389648</ele>
        <time>2021-07-24T04:02:56.000Z</time>
      </trkpt>
      <trkpt lat="45.20082" lon="5.7254">
        <ele>509.79998779297</ele>
        <time>2021-07-24T04:02:57.000Z</time>
      </trkpt>
      <trkpt lat="45.20084" lon="5.7254">
        <ele>510</ele>
        <time>2021-07-24T04:02:58.000Z</time>
      </trkpt>
      <trkpt lat="45.20086" lon="5.7254">
        <ele>510</ele>
        <time>2021-07-24T04:02:59.000Z</time>
      </trkpt>
      <trkpt lat="45.20089" lon="5.72539">
        <ele>510.60000610352</ele>
        <time>2021-07-24T04:03:01.000Z</time>
      </trkpt>
      <trkpt lat="45.20091" lon="5.72539">
        <ele>511</ele>
        <time>2021-07-24T04:03:02.000Z</time>
      </trkpt>
      <trkpt lat="45.20096" lon="5.72538">
        <ele>512.59997558594</ele>
        <time>2021-07-24T04:03:06.000Z</time>
      </trkpt>
      <trkpt lat="45.20102" lon="5.72538">
        <ele>514</ele>
        <time>2021-07-24T04:03:10.000Z</time>
      </trkpt>
      <trkpt lat="45.20108" lon="5.72537">
        <ele>515.40002441406</ele>
        <time>2021-07-24T04:03:14.000Z</time>
      </trkpt>
      <trkpt lat="45.20111" lon="5.72537">
        <ele>516.40002441406</ele>
        <time>2021-07-24T04:03:17.000Z</time>
      </trkpt>
      <trkpt lat="45.20113" lon="5.72536">
        <ele>516.59997558594</ele>
        <time>2021-07-24T04:03:18.000Z</time>
      </trkpt>
      <trkpt lat="45.2012" lon="5.72538">
        <ele>517.59997558594</ele>
        <time>2021-07-24T04:03:23.000Z</time>
      </trkpt>
      <trkpt lat="45.20123" lon="5.72539">
        <ele>518.20001220703</ele>
        <time>2021-07-24T04:03:25.000Z</time>
      </trkpt>
      <trkpt lat="45.20126" lon="5.72539">
        <ele>519</ele>
        <time>2021-07-24T04:03:27.000Z</time>
      </trkpt>
      <trkpt lat="45.20135" lon="5.72542">
        <ele>520.20001220703</ele>
        <time>2021-07-24T04:03:32.000Z</time>
      </trkpt>
      <trkpt lat="45.20142" lon="5.72545">
        <ele>521.20001220703</ele>
        <time>2021-07-24T04:03:37.000Z</time>
      </trkpt>
      <trkpt lat="45.20143" lon="5.72546">
        <ele>521.59997558594</ele>
        <time>2021-07-24T04:03:38.000Z</time>
      </trkpt>
      <trkpt lat="45.20145" lon="5.72547">
        <ele>522</ele>
        <time>2021-07-24T04:03:40.000Z</time>
      </trkpt>
      <trkpt lat="45.20149" lon="5.72548">
        <ele>522.40002441406</ele>
        <time>2021-07-24T04:03:42.000Z</time>
      </trkpt>
      <trkpt lat="45.20155" lon="5.72549">
        <ele>523</ele>
        <time>2021-07-24T04:03:45.000Z</time>
      </trkpt>
      <trkpt lat="45.20159" lon="5.72551">
        <ele>523.40002441406</ele>
        <time>2021-07-24T04:03:47.000Z</time>
      </trkpt>
      <trkpt lat="45.20167" lon="5.72556">
        <ele>524.40002441406</ele>
        <time>2021-07-24T04:03:52.000Z</time>
      </trkpt>
      <trkpt lat="45.20173" lon="5.72561">
        <ele>526</ele>
        <time>2021-07-24T04:03:56.000Z</time>
      </trkpt>
      <trkpt lat="45.20182" lon="5.72567">
        <ele>526.79998779297</ele>
        <time>2021-07-24T04:04:02.000Z</time>
      </trkpt>
      <trkpt lat="45.20184" lon="5.72568">
        <ele>527</ele>
        <time>2021-07-24T04:04:03.000Z</time>
      </trkpt>
      <trkpt lat="45.20191" lon="5.72572">
        <ele>528.40002441406</ele>
        <time>2021-07-24T04:04:06.000Z</time>
      </trkpt>
      <trkpt lat="45.20199" lon="5.72578">
        <ele>529.20001220703</ele>
        <time>2021-07-24T04:04:12.000Z</time>
      </trkpt>
      <trkpt lat="45.202" lon="5.72579">
        <ele>530</ele>
        <time>2021-07-24T04:04:13.000Z</time>
      </trkpt>
      <trkpt lat="45.20207" lon="5.72582">
        <ele>530.40002441406</ele>
        <time>2021-07-24T04:04:17.000Z</time>
      </trkpt>
      <trkpt lat="45.20209" lon="5.72583">
        <ele>531.20001220703</ele>
        <time>2021-07-24T04:04:19.000Z</time>
      </trkpt>
      <trkpt lat="45.20213" lon="5.72587">
        <ele>532.20001220703</ele>
        <time>2021-07-24T04:04:22.000Z</time>
      </trkpt>
      <trkpt lat="45.20215" lon="5.72588">
        <ele>532.20001220703</ele>
        <time>2021-07-24T04:04:23.000Z</time>
      </trkpt>
      <trkpt lat="45.2022" lon="5.72591">
        <ele>532.59997558594</ele>
        <time>2021-07-24T04:04:26.000Z</time>
      </trkpt>
      <trkpt lat="45.20222" lon="5.72594">
        <ele>532.59997558594</ele>
        <time>2021-07-24T04:04:28.000Z</time>
      </trkpt>
      <trkpt lat="45.20227" lon="5.72601">
        <ele>534</ele>
        <time>2021-07-24T04:04:32.000Z</time>
      </trkpt>
      <trkpt lat="45.20228" lon="5.72603">
        <ele>534.59997558594</ele>
        <time>2021-07-24T04:04:33.000Z</time>
      </trkpt>
      <trkpt lat="45.20231" lon="5.72604">
        <ele>535</ele>
        <time>2021-07-24T04:04:35.000Z</time>
      </trkpt>
      <trkpt lat="45.20233" lon="5.72604">
        <ele>535.20001220703</ele>
        <time>2021-07-24T04:04:36.000Z</time>
      </trkpt>
      <trkpt lat="45.20238" lon="5.72605">
        <ele>535.79998779297</ele>
        <time>2021-07-24T04:04:39.000Z</time>
      </trkpt>
      <trkpt lat="45.20239" lon="5.72605">
        <ele>536</ele>
        <time>2021-07-24T04:04:40.000Z</time>
      </trkpt>
      <trkpt lat="45.20241" lon="5.72605">
        <ele>536.20001220703</ele>
        <time>2021-07-24T04:04:41.000Z</time>
      </trkpt>
      <trkpt lat="45.20248" lon="5.72607">
        <ele>537.20001220703</ele>
        <time>2021-07-24T04:04:45.000Z</time>
      </trkpt>
      <trkpt lat="45.2025" lon="5.72608">
        <ele>538.20001220703</ele>
        <time>2021-07-24T04:04:47.000Z</time>
      </trkpt>
      <trkpt lat="45.20252" lon="5.72609">
        <ele>538.20001220703</ele>
        <time>2021-07-24T04:04:49.000Z</time>
      </trkpt>
      <trkpt lat="45.20258" lon="5.72607">
        <ele>539.59997558594</ele>
        <time>2021-07-24T04:04:53.000Z</time>
      </trkpt>
      <trkpt lat="45.20259" lon="5.72607">
        <ele>540</ele>
        <time>2021-07-24T04:04:54.000Z</time>
      </trkpt>
      <trkpt lat="45.20265" lon="5.72608">
        <ele>540.79998779297</ele>
        <time>2021-07-24T04:04:58.000Z</time>
      </trkpt>
      <trkpt lat="45.20269" lon="5.72606">
        <ele>541.20001220703</ele>
        <time>2021-07-24T04:05:01.000Z</time>
      </trkpt>
      <trkpt lat="45.2027" lon="5.72605">
        <ele>541.79998779297</ele>
        <time>2021-07-24T04:05:02.000Z</time>
      </trkpt>
      <trkpt lat="45.20272" lon="5.72605">
        <ele>541.79998779297</ele>
        <time>2021-07-24T04:05:03.000Z</time>
      </trkpt>
      <trkpt lat="45.20279" lon="5.72604">
        <ele>542.59997558594</ele>
        <time>2021-07-24T04:05:07.000Z</time>
      </trkpt>
      <trkpt lat="45.20281" lon="5.72604">
        <ele>542.79998779297</ele>
        <time>2021-07-24T04:05:08.000Z</time>
      </trkpt>
      <trkpt lat="45.20283" lon="5.72604">
        <ele>543</ele>
        <time>2021-07-24T04:05:09.000Z</time>
      </trkpt>
      <trkpt lat="45.20289" lon="5.72602">
        <ele>544</ele>
        <time>2021-07-24T04:05:12.000Z</time>
      </trkpt>
      <trkpt lat="45.20297" lon="5.72604">
        <ele>545</ele>
        <time>2021-07-24T04:05:17.000Z</time>
      </trkpt>
      <trkpt lat="45.20304" lon="5.72602">
        <ele>545.79998779297</ele>
        <time>2021-07-24T04:05:20.000Z</time>
      </trkpt>
      <trkpt lat="45.20305" lon="5.72602">
        <ele>546.20001220703</ele>
        <time>2021-07-24T04:05:21.000Z</time>
      </trkpt>
      <trkpt lat="45.20313" lon="5.72606">
        <ele>547.40002441406</ele>
        <time>2021-07-24T04:05:26.000Z</time>
      </trkpt>
      <trkpt lat="45.20317" lon="5.72606">
        <ele>547.59997558594</ele>
        <time>2021-07-24T04:05:28.000Z</time>
      </trkpt>
      <trkpt lat="45.20318" lon="5.72609">
        <ele>548.59997558594</ele>
        <time>2021-07-24T04:05:30.000Z</time>
      </trkpt>
      <trkpt lat="45.2032" lon="5.72611">
        <ele>548.79998779297</ele>
        <time>2021-07-24T04:05:32.000Z</time>
      </trkpt>
      <trkpt lat="45.20322" lon="5.72611">
        <ele>549.20001220703</ele>
        <time>2021-07-24T04:05:33.000Z</time>
      </trkpt>
      <trkpt lat="45.20327" lon="5.72616">
        <ele>549.59997558594</ele>
        <time>2021-07-24T04:05:37.000Z</time>
      </trkpt>
      <trkpt lat="45.20328" lon="5.72617">
        <ele>550</ele>
        <time>2021-07-24T04:05:38.000Z</time>
      </trkpt>
      <trkpt lat="45.2033" lon="5.72618">
        <ele>550</ele>
        <time>2021-07-24T04:05:39.000Z</time>
      </trkpt>
      <trkpt lat="45.20335" lon="5.72623">
        <ele>551</ele>
        <time>2021-07-24T04:05:43.000Z</time>
      </trkpt>
      <trkpt lat="45.20336" lon="5.72624">
        <ele>551.20001220703</ele>
        <time>2021-07-24T04:05:44.000Z</time>
      </trkpt>
      <trkpt lat="45.20342" lon="5.72627">
        <ele>551.59997558594</ele>
        <time>2021-07-24T04:05:48.000Z</time>
      </trkpt>
      <trkpt lat="45.20343" lon="5.72628">
        <ele>552.20001220703</ele>
        <time>2021-07-24T04:05:49.000Z</time>
      </trkpt>
      <trkpt lat="45.20344" lon="5.72629">
        <ele>552.40002441406</ele>
        <time>2021-07-24T04:05:50.000Z</time>
      </trkpt>
      <trkpt lat="45.20349" lon="5.72631">
        <ele>553.40002441406</ele>
        <time>2021-07-24T04:05:53.000Z</time>
      </trkpt>
      <trkpt lat="45.2035" lon="5.72633">
        <ele>553.40002441406</ele>
        <time>2021-07-24T04:05:54.000Z</time>
      </trkpt>
      <trkpt lat="45.20354" lon="5.72635">
        <ele>554.40002441406</ele>
        <time>2021-07-24T04:05:56.000Z</time>
      </trkpt>
      <trkpt lat="45.20365" lon="5.72643">
        <ele>555.59997558594</ele>
        <time>2021-07-24T04:06:03.000Z</time>
      </trkpt>
      <trkpt lat="45.20366" lon="5.72644">
        <ele>555.59997558594</ele>
        <time>2021-07-24T04:06:04.000Z</time>
      </trkpt>
      <trkpt lat="45.20372" lon="5.72645">
        <ele>556.20001220703</ele>
        <time>2021-07-24T04:06:08.000Z</time>
      </trkpt>
      <trkpt lat="45.20373" lon="5.72647">
        <ele>556.20001220703</ele>
        <time>2021-07-24T04:06:09.000Z</time>
      </trkpt>
      <trkpt lat="45.20376" lon="5.72649">
        <ele>556.59997558594</ele>
        <time>2021-07-24T04:06:11.000Z</time>
      </trkpt>
      <trkpt lat="45.20381" lon="5.72655">
        <ele>557.20001220703</ele>
        <time>2021-07-24T04:06:14.000Z</time>
      </trkpt>
      <trkpt lat="45.20383" lon="5.72657">
        <ele>557.40002441406</ele>
        <time>2021-07-24T04:06:16.000Z</time>
      </trkpt>
      <trkpt lat="45.20384" lon="5.7266">
        <ele>558</ele>
        <time>2021-07-24T04:06:17.000Z</time>
      </trkpt>
      <trkpt lat="45.20386" lon="5.72667">
        <ele>558.40002441406</ele>
        <time>2021-07-24T04:06:20.000Z</time>
      </trkpt>
      <trkpt lat="45.20387" lon="5.72669">
        <ele>558.79998779297</ele>
        <time>2021-07-24T04:06:21.000Z</time>
      </trkpt>
      <trkpt lat="45.20388" lon="5.72671">
        <ele>559</ele>
        <time>2021-07-24T04:06:22.000Z</time>
      </trkpt>
      <trkpt lat="45.20391" lon="5.72681">
        <ele>560</ele>
        <time>2021-07-24T04:06:26.000Z</time>
      </trkpt>
      <trkpt lat="45.20394" lon="5.72683">
        <ele>560.20001220703</ele>
        <time>2021-07-24T04:06:28.000Z</time>
      </trkpt>
      <trkpt lat="45.204" lon="5.72688">
        <ele>561.40002441406</ele>
        <time>2021-07-24T04:06:33.000Z</time>
      </trkpt>
      <trkpt lat="45.20401" lon="5.72689">
        <ele>561.59997558594</ele>
        <time>2021-07-24T04:06:34.000Z</time>
      </trkpt>
      <trkpt lat="45.20405" lon="5.72693">
        <ele>562.40002441406</ele>
        <time>2021-07-24T04:06:37.000Z</time>
      </trkpt>
      <trkpt lat="45.2041" lon="5.727">
        <ele>563.59997558594</ele>
        <time>2021-07-24T04:06:41.000Z</time>
      </trkpt>
      <trkpt lat="45.20412" lon="5.72701">
        <ele>563.59997558594</ele>
        <time>2021-07-24T04:06:42.000Z</time>
      </trkpt>
      <trkpt lat="45.20413" lon="5.72703">
        <ele>563.79998779297</ele>
        <time>2021-07-24T04:06:43.000Z</time>
      </trkpt>
      <trkpt lat="45.20421" lon="5.72706">
        <ele>564.79998779297</ele>
        <time>2021-07-24T04:06:47.000Z</time>
      </trkpt>
      <trkpt lat="45.20431" lon="5.72712">
        <ele>566</ele>
        <time>2021-07-24T04:06:53.000Z</time>
      </trkpt>
      <trkpt lat="45.20432" lon="5.72713">
        <ele>566</ele>
        <time>2021-07-24T04:06:54.000Z</time>
      </trkpt>
      <trkpt lat="45.20436" lon="5.72716">
        <ele>566.79998779297</ele>
        <time>2021-07-24T04:06:57.000Z</time>
      </trkpt>
      <trkpt lat="45.2044" lon="5.72717">
        <ele>567.40002441406</ele>
        <time>2021-07-24T04:06:59.000Z</time>
      </trkpt>
      <trkpt lat="45.20447" lon="5.72719">
        <ele>568.40002441406</ele>
        <time>2021-07-24T04:07:04.000Z</time>
      </trkpt>
      <trkpt lat="45.20449" lon="5.72718">
        <ele>568.59997558594</ele>
        <time>2021-07-24T04:07:05.000Z</time>
      </trkpt>
      <trkpt lat="45.20452" lon="5.72718">
        <ele>568.59997558594</ele>
        <time>2021-07-24T04:07:07.000Z</time>
      </trkpt>
      <trkpt lat="45.20455" lon="5.72716">
        <ele>569.20001220703</ele>
        <time>2021-07-24T04:07:09.000Z</time>
      </trkpt>
      <trkpt lat="45.2046" lon="5.72717">
        <ele>569.59997558594</ele>
        <time>2021-07-24T04:07:12.000Z</time>
      </trkpt>
      <trkpt lat="45.20464" lon="5.72719">
        <ele>570.20001220703</ele>
        <time>2021-07-24T04:07:15.000Z</time>
      </trkpt>
      <trkpt lat="45.20465" lon="5.72719">
        <ele>570.59997558594</ele>
        <time>2021-07-24T04:07:16.000Z</time>
      </trkpt>
      <trkpt lat="45.20466" lon="5.7272">
        <ele>570.59997558594</ele>
        <time>2021-07-24T04:07:17.000Z</time>
      </trkpt>
      <trkpt lat="45.20469" lon="5.72721">
        <ele>570.79998779297</ele>
        <time>2021-07-24T04:07:19.000Z</time>
      </trkpt>
      <trkpt lat="45.20474" lon="5.72724">
        <ele>571.20001220703</ele>
        <time>2021-07-24T04:07:22.000Z</time>
      </trkpt>
      <trkpt lat="45.20476" lon="5.72726">
        <ele>571.40002441406</ele>
        <time>2021-07-24T04:07:23.000Z</time>
      </trkpt>
      <trkpt lat="45.20479" lon="5.7273">
        <ele>571.79998779297</ele>
        <time>2021-07-24T04:07:24.000Z</time>
      </trkpt>
      <trkpt lat="45.20492" lon="5.72735">
        <ele>572.79998779297</ele>
        <time>2021-07-24T04:07:30.000Z</time>
      </trkpt>
      <trkpt lat="45.20493" lon="5.72737">
        <ele>573</ele>
        <time>2021-07-24T04:07:31.000Z</time>
      </trkpt>
      <trkpt lat="45.20501" lon="5.72741">
        <ele>574</ele>
        <time>2021-07-24T04:07:36.000Z</time>
      </trkpt>
      <trkpt lat="45.20502" lon="5.72741">
        <ele>574</ele>
        <time>2021-07-24T04:07:37.000Z</time>
      </trkpt>
      <trkpt lat="45.20502" lon="5.7274">
        <ele>574.59997558594</ele>
        <time>2021-07-24T04:07:39.000Z</time>
      </trkpt>
      <trkpt lat="45.205" lon="5.7274">
        <ele>575</ele>
        <time>2021-07-24T04:07:41.000Z</time>
      </trkpt>
      <trkpt lat="45.20499" lon="5.72741">
        <ele>575.20001220703</ele>
        <time>2021-07-24T04:07:42.000Z</time>
      </trkpt>
      <trkpt lat="45.20491" lon="5.7274">
        <ele>576.40002441406</ele>
        <time>2021-07-24T04:07:47.000Z</time>
      </trkpt>
      <trkpt lat="45.2049" lon="5.72739">
        <ele>576.40002441406</ele>
        <time>2021-07-24T04:07:48.000Z</time>
      </trkpt>
      <trkpt lat="45.20489" lon="5.72738">
        <ele>576.79998779297</ele>
        <time>2021-07-24T04:07:49.000Z</time>
      </trkpt>
      <trkpt lat="45.20486" lon="5.72736">
        <ele>576.79998779297</ele>
        <time>2021-07-24T04:07:51.000Z</time>
      </trkpt>
      <trkpt lat="45.20485" lon="5.72735">
        <ele>577</ele>
        <time>2021-07-24T04:07:52.000Z</time>
      </trkpt>
      <trkpt lat="45.20482" lon="5.72733">
        <ele>577</ele>
        <time>2021-07-24T04:07:54.000Z</time>
      </trkpt>
      <trkpt lat="45.20479" lon="5.72731">
        <ele>577.40002441406</ele>
        <time>2021-07-24T04:07:56.000Z</time>
      </trkpt>
      <trkpt lat="45.20474" lon="5.72728">
        <ele>578</ele>
        <time>2021-07-24T04:07:59.000Z</time>
      </trkpt>
      <trkpt lat="45.20472" lon="5.72727">
        <ele>578.20001220703</ele>
        <time>2021-07-24T04:08:01.000Z</time>
      </trkpt>
      <trkpt lat="45.2047" lon="5.72726">
        <ele>579</ele>
        <time>2021-07-24T04:08:02.000Z</time>
      </trkpt>
      <trkpt lat="45.20469" lon="5.72722">
        <ele>579</ele>
        <time>2021-07-24T04:08:04.000Z</time>
      </trkpt>
      <trkpt lat="45.20463" lon="5.72716">
        <ele>580</ele>
        <time>2021-07-24T04:08:08.000Z</time>
      </trkpt>
      <trkpt lat="45.20461" lon="5.72713">
        <ele>580</ele>
        <time>2021-07-24T04:08:10.000Z</time>
      </trkpt>
      <trkpt lat="45.20454" lon="5.72704">
        <ele>581</ele>
        <time>2021-07-24T04:08:15.000Z</time>
      </trkpt>
      <trkpt lat="45.20452" lon="5.72701">
        <ele>581.40002441406</ele>
        <time>2021-07-24T04:08:17.000Z</time>
      </trkpt>
      <trkpt lat="45.20451" lon="5.72698">
        <ele>581.40002441406</ele>
        <time>2021-07-24T04:08:19.000Z</time>
      </trkpt>
      <trkpt lat="45.20449" lon="5.72696">
        <ele>581.79998779297</ele>
        <time>2021-07-24T04:08:21.000Z</time>
      </trkpt>
      <trkpt lat="45.20448" lon="5.72696">
        <ele>582.20001220703</ele>
        <time>2021-07-24T04:08:22.000Z</time>
      </trkpt>
      <trkpt lat="45.20443" lon="5.72694">
        <ele>583</ele>
        <time>2021-07-24T04:08:26.000Z</time>
      </trkpt>
      <trkpt lat="45.20442" lon="5.72692">
        <ele>583.20001220703</ele>
        <time>2021-07-24T04:08:27.000Z</time>
      </trkpt>
      <trkpt lat="45.20439" lon="5.72688">
        <ele>583.59997558594</ele>
        <time>2021-07-24T04:08:29.000Z</time>
      </trkpt>
      <trkpt lat="45.20434" lon="5.72684">
        <ele>584.40002441406</ele>
        <time>2021-07-24T04:08:33.000Z</time>
      </trkpt>
      <trkpt lat="45.20433" lon="5.72682">
        <ele>584.40002441406</ele>
        <time>2021-07-24T04:08:34.000Z</time>
      </trkpt>
      <trkpt lat="45.20431" lon="5.72681">
        <ele>584.59997558594</ele>
        <time>2021-07-24T04:08:35.000Z</time>
      </trkpt>
      <trkpt lat="45.2043" lon="5.7268">
        <ele>585.20001220703</ele>
        <time>2021-07-24T04:08:36.000Z</time>
      </trkpt>
      <trkpt lat="45.20425" lon="5.72673">
        <ele>585.79998779297</ele>
        <time>2021-07-24T04:08:40.000Z</time>
      </trkpt>
      <trkpt lat="45.20423" lon="5.72669">
        <ele>586</ele>
        <time>2021-07-24T04:08:42.000Z</time>
      </trkpt>
      <trkpt lat="45.20419" lon="5.72663">
        <ele>586.59997558594</ele>
        <time>2021-07-24T04:08:45.000Z</time>
      </trkpt>
      <trkpt lat="45.20417" lon="5.72658">
        <ele>586.59997558594</ele>
        <time>2021-07-24T04:08:47.000Z</time>
      </trkpt>
      <trkpt lat="45.20414" lon="5.72654">
        <ele>587.79998779297</ele>
        <time>2021-07-24T04:08:49.000Z</time>
      </trkpt>
      <trkpt lat="45.20413" lon="5.72652">
        <ele>588</ele>
        <time>2021-07-24T04:08:50.000Z</time>
      </trkpt>
      <trkpt lat="45.20411" lon="5.7265">
        <ele>588.20001220703</ele>
        <time>2021-07-24T04:08:51.000Z</time>
      </trkpt>
      <trkpt lat="45.2041" lon="5.72648">
        <ele>588.79998779297</ele>
        <time>2021-07-24T04:08:52.000Z</time>
      </trkpt>
      <trkpt lat="45.2041" lon="5.72642">
        <ele>588.79998779297</ele>
        <time>2021-07-24T04:08:54.000Z</time>
      </trkpt>
      <trkpt lat="45.20412" lon="5.72641">
        <ele>589</ele>
        <time>2021-07-24T04:08:55.000Z</time>
      </trkpt>
      <trkpt lat="45.20415" lon="5.7264">
        <ele>589.79998779297</ele>
        <time>2021-07-24T04:08:57.000Z</time>
      </trkpt>
      <trkpt lat="45.20416" lon="5.72641">
        <ele>590.40002441406</ele>
        <time>2021-07-24T04:08:58.000Z</time>
      </trkpt>
      <trkpt lat="45.20417" lon="5.72641">
        <ele>590.40002441406</ele>
        <time>2021-07-24T04:08:59.000Z</time>
      </trkpt>
      <trkpt lat="45.20419" lon="5.72641">
        <ele>590.40002441406</ele>
        <time>2021-07-24T04:09:00.000Z</time>
      </trkpt>
      <trkpt lat="45.20424" lon="5.72643">
        <ele>590.79998779297</ele>
        <time>2021-07-24T04:09:03.000Z</time>
      </trkpt>
      <trkpt lat="45.20425" lon="5.72644">
        <ele>591.20001220703</ele>
        <time>2021-07-24T04:09:04.000Z</time>
      </trkpt>
      <trkpt lat="45.20425" lon="5.72645">
        <ele>591.20001220703</ele>
        <time>2021-07-24T04:09:05.000Z</time>
      </trkpt>
      <trkpt lat="45.2043" lon="5.72647">
        <ele>591.40002441406</ele>
        <time>2021-07-24T04:09:08.000Z</time>
      </trkpt>
      <trkpt lat="45.20431" lon="5.72647">
        <ele>591.59997558594</ele>
        <time>2021-07-24T04:09:09.000Z</time>
      </trkpt>
      <trkpt lat="45.20434" lon="5.72648">
        <ele>592</ele>
        <time>2021-07-24T04:09:11.000Z</time>
      </trkpt>
      <trkpt lat="45.20438" lon="5.72647">
        <ele>592.79998779297</ele>
        <time>2021-07-24T04:09:13.000Z</time>
      </trkpt>
      <trkpt lat="45.20442" lon="5.72648">
        <ele>593.40002441406</ele>
        <time>2021-07-24T04:09:15.000Z</time>
      </trkpt>
      <trkpt lat="45.20445" lon="5.72648">
        <ele>593.79998779297</ele>
        <time>2021-07-24T04:09:18.000Z</time>
      </trkpt>
      <trkpt lat="45.20447" lon="5.72648">
        <ele>594.20001220703</ele>
        <time>2021-07-24T04:09:19.000Z</time>
      </trkpt>
      <trkpt lat="45.2045" lon="5.7265">
        <ele>594.59997558594</ele>
        <time>2021-07-24T04:09:22.000Z</time>
      </trkpt>
      <trkpt lat="45.20453" lon="5.72651">
        <ele>594.79998779297</ele>
        <time>2021-07-24T04:09:24.000Z</time>
      </trkpt>
      <trkpt lat="45.20455" lon="5.72652">
        <ele>594.79998779297</ele>
        <time>2021-07-24T04:09:25.000Z</time>
      </trkpt>
      <trkpt lat="45.20458" lon="5.72655">
        <ele>595.59997558594</ele>
        <time>2021-07-24T04:09:27.000Z</time>
      </trkpt>
      <trkpt lat="45.20461" lon="5.72655">
        <ele>595.79998779297</ele>
        <time>2021-07-24T04:09:29.000Z</time>
      </trkpt>
      <trkpt lat="45.20463" lon="5.72658">
        <ele>597</ele>
        <time>2021-07-24T04:09:32.000Z</time>
      </trkpt>
      <trkpt lat="45.20466" lon="5.72659">
        <ele>597.20001220703</ele>
        <time>2021-07-24T04:09:34.000Z</time>
      </trkpt>
      <trkpt lat="45.20469" lon="5.7266">
        <ele>597.59997558594</ele>
        <time>2021-07-24T04:09:36.000Z</time>
      </trkpt>
      <trkpt lat="45.20473" lon="5.72659">
        <ele>598</ele>
        <time>2021-07-24T04:09:38.000Z</time>
      </trkpt>
      <trkpt lat="45.20475" lon="5.72658">
        <ele>598.20001220703</ele>
        <time>2021-07-24T04:09:39.000Z</time>
      </trkpt>
      <trkpt lat="45.20479" lon="5.72658">
        <ele>598.59997558594</ele>
        <time>2021-07-24T04:09:41.000Z</time>
      </trkpt>
      <trkpt lat="45.2048" lon="5.72659">
        <ele>599.20001220703</ele>
        <time>2021-07-24T04:09:42.000Z</time>
      </trkpt>
      <trkpt lat="45.20482" lon="5.72661">
        <ele>599.59997558594</ele>
        <time>2021-07-24T04:09:44.000Z</time>
      </trkpt>
      <trkpt lat="45.20493" lon="5.72663">
        <ele>600.20001220703</ele>
        <time>2021-07-24T04:09:50.000Z</time>
      </trkpt>
      <trkpt lat="45.20495" lon="5.72664">
        <ele>600.79998779297</ele>
        <time>2021-07-24T04:09:51.000Z</time>
      </trkpt>
      <trkpt lat="45.20498" lon="5.72666">
        <ele>601.20001220703</ele>
        <time>2021-07-24T04:09:53.000Z</time>
      </trkpt>
      <trkpt lat="45.20501" lon="5.72668">
        <ele>601.79998779297</ele>
        <time>2021-07-24T04:09:55.000Z</time>
      </trkpt>
      <trkpt lat="45.20502" lon="5.72669">
        <ele>602.20001220703</ele>
        <time>2021-07-24T04:09:56.000Z</time>
      </trkpt>
      <trkpt lat="45.20509" lon="5.72672">
        <ele>602.79998779297</ele>
        <time>2021-07-24T04:10:00.000Z</time>
      </trkpt>
      <trkpt lat="45.20511" lon="5.72672">
        <ele>602.79998779297</ele>
        <time>2021-07-24T04:10:01.000Z</time>
      </trkpt>
      <trkpt lat="45.20515" lon="5.72673">
        <ele>603.20001220703</ele>
        <time>2021-07-24T04:10:03.000Z</time>
      </trkpt>
      <trkpt lat="45.20521" lon="5.72676">
        <ele>604.40002441406</ele>
        <time>2021-07-24T04:10:07.000Z</time>
      </trkpt>
      <trkpt lat="45.20524" lon="5.72677">
        <ele>605.20001220703</ele>
        <time>2021-07-24T04:10:09.000Z</time>
      </trkpt>
      <trkpt lat="45.20528" lon="5.72678">
        <ele>605.59997558594</ele>
        <time>2021-07-24T04:10:11.000Z</time>
      </trkpt>
      <trkpt lat="45.20542" lon="5.72687">
        <ele>606.40002441406</ele>
        <time>2021-07-24T04:10:17.000Z</time>
      </trkpt>
      <trkpt lat="45.20544" lon="5.72688">
        <ele>607</ele>
        <time>2021-07-24T04:10:18.000Z</time>
      </trkpt>
      <trkpt lat="45.20548" lon="5.72691">
        <ele>607.79998779297</ele>
        <time>2021-07-24T04:10:20.000Z</time>
      </trkpt>
      <trkpt lat="45.20549" lon="5.72693">
        <ele>608</ele>
        <time>2021-07-24T04:10:21.000Z</time>
      </trkpt>
      <trkpt lat="45.2055" lon="5.72695">
        <ele>608.20001220703</ele>
        <time>2021-07-24T04:10:22.000Z</time>
      </trkpt>
      <trkpt lat="45.20552" lon="5.72696">
        <ele>608.59997558594</ele>
        <time>2021-07-24T04:10:23.000Z</time>
      </trkpt>
      <trkpt lat="45.2056" lon="5.72702">
        <ele>609</ele>
        <time>2021-07-24T04:10:27.000Z</time>
      </trkpt>
      <trkpt lat="45.20564" lon="5.72702">
        <ele>609.79998779297</ele>
        <time>2021-07-24T04:10:29.000Z</time>
      </trkpt>
      <trkpt lat="45.20569" lon="5.72703">
        <ele>610.20001220703</ele>
        <time>2021-07-24T04:10:31.000Z</time>
      </trkpt>
      <trkpt lat="45.20575" lon="5.727">
        <ele>611.20001220703</ele>
        <time>2021-07-24T04:10:35.000Z</time>
      </trkpt>
      <trkpt lat="45.20575" lon="5.72699">
        <ele>611.40002441406</ele>
        <time>2021-07-24T04:10:36.000Z</time>
      </trkpt>
      <trkpt lat="45.20572" lon="5.72698">
        <ele>612.20001220703</ele>
        <time>2021-07-24T04:10:39.000Z</time>
      </trkpt>
      <trkpt lat="45.2057" lon="5.72698">
        <ele>612.40002441406</ele>
        <time>2021-07-24T04:10:40.000Z</time>
      </trkpt>
      <trkpt lat="45.20561" lon="5.72699">
        <ele>613</ele>
        <time>2021-07-24T04:10:44.000Z</time>
      </trkpt>
      <trkpt lat="45.20556" lon="5.72695">
        <ele>613.40002441406</ele>
        <time>2021-07-24T04:10:47.000Z</time>
      </trkpt>
      <trkpt lat="45.20548" lon="5.7269">
        <ele>614</ele>
        <time>2021-07-24T04:10:52.000Z</time>
      </trkpt>
      <trkpt lat="45.20545" lon="5.72687">
        <ele>614.20001220703</ele>
        <time>2021-07-24T04:10:54.000Z</time>
      </trkpt>
      <trkpt lat="45.2054" lon="5.72682">
        <ele>614.40002441406</ele>
        <time>2021-07-24T04:10:57.000Z</time>
      </trkpt>
      <trkpt lat="45.20539" lon="5.72681">
        <ele>614.79998779297</ele>
        <time>2021-07-24T04:10:58.000Z</time>
      </trkpt>
      <trkpt lat="45.20532" lon="5.72678">
        <ele>615.79998779297</ele>
        <time>2021-07-24T04:11:02.000Z</time>
      </trkpt>
      <trkpt lat="45.20528" lon="5.72675">
        <ele>616.20001220703</ele>
        <time>2021-07-24T04:11:04.000Z</time>
      </trkpt>
      <trkpt lat="45.20522" lon="5.72669">
        <ele>617</ele>
        <time>2021-07-24T04:11:08.000Z</time>
      </trkpt>
      <trkpt lat="45.20519" lon="5.72665">
        <ele>617.20001220703</ele>
        <time>2021-07-24T04:11:10.000Z</time>
      </trkpt>
      <trkpt lat="45.20512" lon="5.72654">
        <ele>618.20001220703</ele>
        <time>2021-07-24T04:11:15.000Z</time>
      </trkpt>
      <trkpt lat="45.20511" lon="5.72653">
        <ele>618.59997558594</ele>
        <time>2021-07-24T04:11:16.000Z</time>
      </trkpt>
      <trkpt lat="45.20504" lon="5.72648">
        <ele>619</ele>
        <time>2021-07-24T04:11:21.000Z</time>
      </trkpt>
      <trkpt lat="45.20503" lon="5.72647">
        <ele>619.79998779297</ele>
        <time>2021-07-24T04:11:22.000Z</time>
      </trkpt>
      <trkpt lat="45.20501" lon="5.72646">
        <ele>619.79998779297</ele>
        <time>2021-07-24T04:11:23.000Z</time>
      </trkpt>
      <trkpt lat="45.20497" lon="5.72646">
        <ele>620</ele>
        <time>2021-07-24T04:11:25.000Z</time>
      </trkpt>
      <trkpt lat="45.2049" lon="5.72644">
        <ele>621</ele>
        <time>2021-07-24T04:11:29.000Z</time>
      </trkpt>
      <trkpt lat="45.20488" lon="5.72643">
        <ele>621</ele>
        <time>2021-07-24T04:11:30.000Z</time>
      </trkpt>
      <trkpt lat="45.20485" lon="5.72642">
        <ele>621.20001220703</ele>
        <time>2021-07-24T04:11:32.000Z</time>
      </trkpt>
      <trkpt lat="45.2048" lon="5.72637">
        <ele>622.40002441406</ele>
        <time>2021-07-24T04:11:36.000Z</time>
      </trkpt>
      <trkpt lat="45.20474" lon="5.72632">
        <ele>623</ele>
        <time>2021-07-24T04:11:40.000Z</time>
      </trkpt>
      <trkpt lat="45.20473" lon="5.7263">
        <ele>623</ele>
        <time>2021-07-24T04:11:41.000Z</time>
      </trkpt>
      <trkpt lat="45.20472" lon="5.72628">
        <ele>623</ele>
        <time>2021-07-24T04:11:42.000Z</time>
      </trkpt>
      <trkpt lat="45.20468" lon="5.72625">
        <ele>623.40002441406</ele>
        <time>2021-07-24T04:11:44.000Z</time>
      </trkpt>
      <trkpt lat="45.20467" lon="5.72623">
        <ele>623.59997558594</ele>
        <time>2021-07-24T04:11:45.000Z</time>
      </trkpt>
      <trkpt lat="45.20465" lon="5.72621">
        <ele>624</ele>
        <time>2021-07-24T04:11:46.000Z</time>
      </trkpt>
      <trkpt lat="45.20464" lon="5.72619">
        <ele>624.59997558594</ele>
        <time>2021-07-24T04:11:47.000Z</time>
      </trkpt>
      <trkpt lat="45.20458" lon="5.72601">
        <ele>625.40002441406</ele>
        <time>2021-07-24T04:11:53.000Z</time>
      </trkpt>
      <trkpt lat="45.20457" lon="5.72598">
        <ele>625.79998779297</ele>
        <time>2021-07-24T04:11:54.000Z</time>
      </trkpt>
      <trkpt lat="45.20449" lon="5.72589">
        <ele>627</ele>
        <time>2021-07-24T04:11:59.000Z</time>
      </trkpt>
      <trkpt lat="45.20446" lon="5.72585">
        <ele>627</ele>
        <time>2021-07-24T04:12:01.000Z</time>
      </trkpt>
      <trkpt lat="45.2044" lon="5.72575">
        <ele>628</ele>
        <time>2021-07-24T04:12:06.000Z</time>
      </trkpt>
      <trkpt lat="45.2044" lon="5.72573">
        <ele>628.20001220703</ele>
        <time>2021-07-24T04:12:07.000Z</time>
      </trkpt>
      <trkpt lat="45.20434" lon="5.72559">
        <ele>629.20001220703</ele>
        <time>2021-07-24T04:12:13.000Z</time>
      </trkpt>
      <trkpt lat="45.20432" lon="5.72538">
        <ele>630.20001220703</ele>
        <time>2021-07-24T04:12:20.000Z</time>
      </trkpt>
      <trkpt lat="45.20432" lon="5.72536">
        <ele>630.40002441406</ele>
        <time>2021-07-24T04:12:21.000Z</time>
      </trkpt>
      <trkpt lat="45.20433" lon="5.72534">
        <ele>630.79998779297</ele>
        <time>2021-07-24T04:12:22.000Z</time>
      </trkpt>
      <trkpt lat="45.20436" lon="5.72532">
        <ele>631</ele>
        <time>2021-07-24T04:12:24.000Z</time>
      </trkpt>
      <trkpt lat="45.20437" lon="5.72529">
        <ele>632</ele>
        <time>2021-07-24T04:12:25.000Z</time>
      </trkpt>
      <trkpt lat="45.20445" lon="5.72523">
        <ele>632.20001220703</ele>
        <time>2021-07-24T04:12:28.000Z</time>
      </trkpt>
      <trkpt lat="45.2045" lon="5.72525">
        <ele>632.40002441406</ele>
        <time>2021-07-24T04:12:30.000Z</time>
      </trkpt>
      <trkpt lat="45.20452" lon="5.72526">
        <ele>632.79998779297</ele>
        <time>2021-07-24T04:12:31.000Z</time>
      </trkpt>
      <trkpt lat="45.20453" lon="5.72527">
        <ele>633</ele>
        <time>2021-07-24T04:12:32.000Z</time>
      </trkpt>
      <trkpt lat="45.20457" lon="5.7253">
        <ele>633.40002441406</ele>
        <time>2021-07-24T04:12:35.000Z</time>
      </trkpt>
      <trkpt lat="45.20464" lon="5.72534">
        <ele>633.79998779297</ele>
        <time>2021-07-24T04:12:39.000Z</time>
      </trkpt>
      <trkpt lat="45.20465" lon="5.72535">
        <ele>634.59997558594</ele>
        <time>2021-07-24T04:12:40.000Z</time>
      </trkpt>
      <trkpt lat="45.20471" lon="5.7254">
        <ele>635.20001220703</ele>
        <time>2021-07-24T04:12:43.000Z</time>
      </trkpt>
      <trkpt lat="45.20474" lon="5.72545">
        <ele>635.79998779297</ele>
        <time>2021-07-24T04:12:46.000Z</time>
      </trkpt>
      <trkpt lat="45.2048" lon="5.72548">
        <ele>636</ele>
        <time>2021-07-24T04:12:49.000Z</time>
      </trkpt>
      <trkpt lat="45.20484" lon="5.72552">
        <ele>636.79998779297</ele>
        <time>2021-07-24T04:12:51.000Z</time>
      </trkpt>
      <trkpt lat="45.2049" lon="5.72554">
        <ele>637.59997558594</ele>
        <time>2021-07-24T04:12:55.000Z</time>
      </trkpt>
      <trkpt lat="45.20491" lon="5.72553">
        <ele>637.79998779297</ele>
        <time>2021-07-24T04:12:56.000Z</time>
      </trkpt>
      <trkpt lat="45.20491" lon="5.72551">
        <ele>638</ele>
        <time>2021-07-24T04:12:58.000Z</time>
      </trkpt>
      <trkpt lat="45.20489" lon="5.72547">
        <ele>638.79998779297</ele>
        <time>2021-07-24T04:13:01.000Z</time>
      </trkpt>
      <trkpt lat="45.20488" lon="5.72544">
        <ele>639.20001220703</ele>
        <time>2021-07-24T04:13:03.000Z</time>
      </trkpt>
      <trkpt lat="45.20487" lon="5.72543">
        <ele>639.59997558594</ele>
        <time>2021-07-24T04:13:04.000Z</time>
      </trkpt>
      <trkpt lat="45.20485" lon="5.72541">
        <ele>640.59997558594</ele>
        <time>2021-07-24T04:13:06.000Z</time>
      </trkpt>
      <trkpt lat="45.20485" lon="5.72539">
        <ele>640.79998779297</ele>
        <time>2021-07-24T04:13:07.000Z</time>
      </trkpt>
      <trkpt lat="45.20482" lon="5.72535">
        <ele>641.40002441406</ele>
        <time>2021-07-24T04:13:10.000Z</time>
      </trkpt>
      <trkpt lat="45.2048" lon="5.72534">
        <ele>641.59997558594</ele>
        <time>2021-07-24T04:13:11.000Z</time>
      </trkpt>
      <trkpt lat="45.20479" lon="5.72533">
        <ele>641.59997558594</ele>
        <time>2021-07-24T04:13:12.000Z</time>
      </trkpt>
      <trkpt lat="45.20479" lon="5.7253">
        <ele>642</ele>
        <time>2021-07-24T04:13:13.000Z</time>
      </trkpt>
      <trkpt lat="45.2048" lon="5.72523">
        <ele>642.79998779297</ele>
        <time>2021-07-24T04:13:16.000Z</time>
      </trkpt>
      <trkpt lat="45.20481" lon="5.72514">
        <ele>642.79998779297</ele>
        <time>2021-07-24T04:13:20.000Z</time>
      </trkpt>
      <trkpt lat="45.2048" lon="5.72508">
        <ele>642.59997558594</ele>
        <time>2021-07-24T04:13:22.000Z</time>
      </trkpt>
      <trkpt lat="45.20476" lon="5.72502">
        <ele>642.59997558594</ele>
        <time>2021-07-24T04:13:25.000Z</time>
      </trkpt>
      <trkpt lat="45.20471" lon="5.72496">
        <ele>642</ele>
        <time>2021-07-24T04:13:29.000Z</time>
      </trkpt>
      <trkpt lat="45.20469" lon="5.72496">
        <ele>642</ele>
        <time>2021-07-24T04:13:30.000Z</time>
      </trkpt>
      <trkpt lat="45.20454" lon="5.72493">
        <ele>642.20001220703</ele>
        <time>2021-07-24T04:13:38.000Z</time>
      </trkpt>
      <trkpt lat="45.20453" lon="5.72491">
        <ele>642.59997558594</ele>
        <time>2021-07-24T04:13:39.000Z</time>
      </trkpt>
      <trkpt lat="45.20447" lon="5.72487">
        <ele>642.59997558594</ele>
        <time>2021-07-24T04:13:43.000Z</time>
      </trkpt>
      <trkpt lat="45.20439" lon="5.72483">
        <ele>642</ele>
        <time>2021-07-24T04:13:48.000Z</time>
      </trkpt>
      <trkpt lat="45.20438" lon="5.72483">
        <ele>642</ele>
        <time>2021-07-24T04:13:49.000Z</time>
      </trkpt>
      <trkpt lat="45.20421" lon="5.72476">
        <ele>641.59997558594</ele>
        <time>2021-07-24T04:13:55.000Z</time>
      </trkpt>
      <trkpt lat="45.20411" lon="5.72463">
        <ele>642.40002441406</ele>
        <time>2021-07-24T04:14:00.000Z</time>
      </trkpt>
      <trkpt lat="45.20402" lon="5.72456">
        <ele>642.79998779297</ele>
        <time>2021-07-24T04:14:04.000Z</time>
      </trkpt>
      <trkpt lat="45.20399" lon="5.72453">
        <ele>643</ele>
        <time>2021-07-24T04:14:06.000Z</time>
      </trkpt>
      <trkpt lat="45.20398" lon="5.72451">
        <ele>643</ele>
        <time>2021-07-24T04:14:07.000Z</time>
      </trkpt>
      <trkpt lat="45.20398" lon="5.72449">
        <ele>644</ele>
        <time>2021-07-24T04:14:08.000Z</time>
      </trkpt>
      <trkpt lat="45.20399" lon="5.72448">
        <ele>644.20001220703</ele>
        <time>2021-07-24T04:14:09.000Z</time>
      </trkpt>
      <trkpt lat="45.20397" lon="5.72446">
        <ele>645</ele>
        <time>2021-07-24T04:14:13.000Z</time>
      </trkpt>
      <trkpt lat="45.2039" lon="5.72446">
        <ele>646</ele>
        <time>2021-07-24T04:14:20.000Z</time>
      </trkpt>
      <trkpt lat="45.20389" lon="5.72445">
        <ele>646</ele>
        <time>2021-07-24T04:14:21.000Z</time>
      </trkpt>
      <trkpt lat="45.20387" lon="5.72442">
        <ele>646.20001220703</ele>
        <time>2021-07-24T04:14:23.000Z</time>
      </trkpt>
      <trkpt lat="45.20387" lon="5.72437">
        <ele>646.59997558594</ele>
        <time>2021-07-24T04:14:25.000Z</time>
      </trkpt>
      <trkpt lat="45.20388" lon="5.72435">
        <ele>646.59997558594</ele>
        <time>2021-07-24T04:14:26.000Z</time>
      </trkpt>
      <trkpt lat="45.20389" lon="5.72434">
        <ele>647.20001220703</ele>
        <time>2021-07-24T04:14:27.000Z</time>
      </trkpt>
      <trkpt lat="45.20398" lon="5.72429">
        <ele>647.59997558594</ele>
        <time>2021-07-24T04:14:32.000Z</time>
      </trkpt>
      <trkpt lat="45.20397" lon="5.72419">
        <ele>647.79998779297</ele>
        <time>2021-07-24T04:14:37.000Z</time>
      </trkpt>
      <trkpt lat="45.20398" lon="5.72418">
        <ele>647.79998779297</ele>
        <time>2021-07-24T04:14:38.000Z</time>
      </trkpt>
      <trkpt lat="45.20399" lon="5.72416">
        <ele>647.79998779297</ele>
        <time>2021-07-24T04:14:41.000Z</time>
      </trkpt>
      <trkpt lat="45.20399" lon="5.72416">
        <ele>647.79998779297</ele>
        <time>2021-07-24T04:14:42.000Z</time>
      </trkpt>
      <trkpt lat="45.20399" lon="5.72416">
        <ele>647.59997558594</ele>
        <time>2021-07-24T04:14:44.000Z</time>
      </trkpt>
      <trkpt lat="45.204" lon="5.72415">
        <ele>647.59997558594</ele>
        <time>2021-07-24T04:14:48.000Z</time>
      </trkpt>
      <trkpt lat="45.204" lon="5.72415">
        <ele>647.59997558594</ele>
        <time>2021-07-24T04:14:53.000Z</time>
      </trkpt>
      <trkpt lat="45.204" lon="5.72415">
        <ele>647.59997558594</ele>
        <time>2021-07-24T04:15:04.000Z</time>
      </trkpt>
      <trkpt lat="45.20394" lon="5.72418">
        <ele>646.79998779297</ele>
        <time>2021-07-24T04:15:11.000Z</time>
      </trkpt>
      <trkpt lat="45.20393" lon="5.72419">
        <ele>646.79998779297</ele>
        <time>2021-07-24T04:15:12.000Z</time>
      </trkpt>
      <trkpt lat="45.2039" lon="5.72421">
        <ele>646.20001220703</ele>
        <time>2021-07-24T04:15:15.000Z</time>
      </trkpt>
      <trkpt lat="45.20389" lon="5.72422">
        <ele>646</ele>
        <time>2021-07-24T04:15:16.000Z</time>
      </trkpt>
      <trkpt lat="45.20388" lon="5.72422">
        <ele>645.79998779297</ele>
        <time>2021-07-24T04:15:17.000Z</time>
      </trkpt>
      <trkpt lat="45.20387" lon="5.72421">
        <ele>645</ele>
        <time>2021-07-24T04:15:18.000Z</time>
      </trkpt>
      <trkpt lat="45.20383" lon="5.72417">
        <ele>644</ele>
        <time>2021-07-24T04:15:22.000Z</time>
      </trkpt>
      <trkpt lat="45.2038" lon="5.72406">
        <ele>643</ele>
        <time>2021-07-24T04:15:28.000Z</time>
      </trkpt>
      <trkpt lat="45.20379" lon="5.72403">
        <ele>643</ele>
        <time>2021-07-24T04:15:29.000Z</time>
      </trkpt>
      <trkpt lat="45.2038" lon="5.72398">
        <ele>642.79998779297</ele>
        <time>2021-07-24T04:15:30.000Z</time>
      </trkpt>
      <trkpt lat="45.20385" lon="5.72392">
        <ele>643.20001220703</ele>
        <time>2021-07-24T04:15:32.000Z</time>
      </trkpt>
      <trkpt lat="45.20401" lon="5.72386">
        <ele>642.40002441406</ele>
        <time>2021-07-24T04:15:38.000Z</time>
      </trkpt>
      <trkpt lat="45.2042" lon="5.72388">
        <ele>642.40002441406</ele>
        <time>2021-07-24T04:15:45.000Z</time>
      </trkpt>
      <trkpt lat="45.20422" lon="5.72388">
        <ele>642.40002441406</ele>
        <time>2021-07-24T04:15:46.000Z</time>
      </trkpt>
      <trkpt lat="45.20435" lon="5.72392">
        <ele>643</ele>
        <time>2021-07-24T04:15:51.000Z</time>
      </trkpt>
      <trkpt lat="45.20447" lon="5.72398">
        <ele>644.20001220703</ele>
        <time>2021-07-24T04:15:57.000Z</time>
      </trkpt>
      <trkpt lat="45.20448" lon="5.72399">
        <ele>644.40002441406</ele>
        <time>2021-07-24T04:15:58.000Z</time>
      </trkpt>
      <trkpt lat="45.20456" lon="5.72402">
        <ele>645.40002441406</ele>
        <time>2021-07-24T04:16:02.000Z</time>
      </trkpt>
      <trkpt lat="45.20459" lon="5.72405">
        <ele>646.20001220703</ele>
        <time>2021-07-24T04:16:04.000Z</time>
      </trkpt>
      <trkpt lat="45.20465" lon="5.7241">
        <ele>646.59997558594</ele>
        <time>2021-07-24T04:16:07.000Z</time>
      </trkpt>
      <trkpt lat="45.20473" lon="5.72421">
        <ele>647</ele>
        <time>2021-07-24T04:16:12.000Z</time>
      </trkpt>
      <trkpt lat="45.20474" lon="5.72422">
        <ele>648</ele>
        <time>2021-07-24T04:16:13.000Z</time>
      </trkpt>
      <trkpt lat="45.20481" lon="5.72421">
        <ele>648</ele>
        <time>2021-07-24T04:16:17.000Z</time>
      </trkpt>
      <trkpt lat="45.20491" lon="5.72421">
        <ele>648.20001220703</ele>
        <time>2021-07-24T04:16:23.000Z</time>
      </trkpt>
      <trkpt lat="45.205" lon="5.72429">
        <ele>648.79998779297</ele>
        <time>2021-07-24T04:16:29.000Z</time>
      </trkpt>
      <trkpt lat="45.20504" lon="5.7243">
        <ele>649</ele>
        <time>2021-07-24T04:16:31.000Z</time>
      </trkpt>
      <trkpt lat="45.2051" lon="5.72432">
        <ele>649.20001220703</ele>
        <time>2021-07-24T04:16:34.000Z</time>
      </trkpt>
      <trkpt lat="45.20513" lon="5.72431">
        <ele>649.20001220703</ele>
        <time>2021-07-24T04:16:36.000Z</time>
      </trkpt>
      <trkpt lat="45.20515" lon="5.72431">
        <ele>649</ele>
        <time>2021-07-24T04:16:37.000Z</time>
      </trkpt>
      <trkpt lat="45.20522" lon="5.72434">
        <ele>648.79998779297</ele>
        <time>2021-07-24T04:16:41.000Z</time>
      </trkpt>
      <trkpt lat="45.20523" lon="5.72435">
        <ele>648.79998779297</ele>
        <time>2021-07-24T04:16:42.000Z</time>
      </trkpt>
      <trkpt lat="45.20526" lon="5.72437">
        <ele>648.79998779297</ele>
        <time>2021-07-24T04:16:44.000Z</time>
      </trkpt>
      <trkpt lat="45.20529" lon="5.72437">
        <ele>648.59997558594</ele>
        <time>2021-07-24T04:16:46.000Z</time>
      </trkpt>
      <trkpt lat="45.20533" lon="5.72438">
        <ele>648</ele>
        <time>2021-07-24T04:16:49.000Z</time>
      </trkpt>
      <trkpt lat="45.20535" lon="5.72439">
        <ele>648</ele>
        <time>2021-07-24T04:16:50.000Z</time>
      </trkpt>
      <trkpt lat="45.2054" lon="5.72443">
        <ele>648</ele>
        <time>2021-07-24T04:16:54.000Z</time>
      </trkpt>
      <trkpt lat="45.2054" lon="5.72444">
        <ele>648</ele>
        <time>2021-07-24T04:16:55.000Z</time>
      </trkpt>
      <trkpt lat="45.2054" lon="5.72446">
        <ele>647.40002441406</ele>
        <time>2021-07-24T04:16:56.000Z</time>
      </trkpt>
      <trkpt lat="45.20545" lon="5.72451">
        <ele>647</ele>
        <time>2021-07-24T04:16:59.000Z</time>
      </trkpt>
      <trkpt lat="45.20546" lon="5.72452">
        <ele>646.79998779297</ele>
        <time>2021-07-24T04:17:00.000Z</time>
      </trkpt>
      <trkpt lat="45.20552" lon="5.72453">
        <ele>646</ele>
        <time>2021-07-24T04:17:03.000Z</time>
      </trkpt>
      <trkpt lat="45.20553" lon="5.72453">
        <ele>646.20001220703</ele>
        <time>2021-07-24T04:17:04.000Z</time>
      </trkpt>
      <trkpt lat="45.20566" lon="5.72462">
        <ele>646.20001220703</ele>
        <time>2021-07-24T04:17:09.000Z</time>
      </trkpt>
      <trkpt lat="45.20572" lon="5.72471">
        <ele>646.40002441406</ele>
        <time>2021-07-24T04:17:12.000Z</time>
      </trkpt>
      <trkpt lat="45.20577" lon="5.72472">
        <ele>646.79998779297</ele>
        <time>2021-07-24T04:17:15.000Z</time>
      </trkpt>
      <trkpt lat="45.20582" lon="5.72482">
        <ele>647.20001220703</ele>
        <time>2021-07-24T04:17:20.000Z</time>
      </trkpt>
      <trkpt lat="45.20583" lon="5.72489">
        <ele>647.40002441406</ele>
        <time>2021-07-24T04:17:22.000Z</time>
      </trkpt>
      <trkpt lat="45.20586" lon="5.72497">
        <ele>647.40002441406</ele>
        <time>2021-07-24T04:17:25.000Z</time>
      </trkpt>
      <trkpt lat="45.20589" lon="5.72506">
        <ele>647.20001220703</ele>
        <time>2021-07-24T04:17:28.000Z</time>
      </trkpt>
      <trkpt lat="45.20595" lon="5.72531">
        <ele>646.79998779297</ele>
        <time>2021-07-24T04:17:35.000Z</time>
      </trkpt>
      <trkpt lat="45.20596" lon="5.72535">
        <ele>646.59997558594</ele>
        <time>2021-07-24T04:17:36.000Z</time>
      </trkpt>
      <trkpt lat="45.20592" lon="5.72551">
        <ele>645.59997558594</ele>
        <time>2021-07-24T04:17:43.000Z</time>
      </trkpt>
      <trkpt lat="45.2059" lon="5.72558">
        <ele>645.20001220703</ele>
        <time>2021-07-24T04:17:46.000Z</time>
      </trkpt>
      <trkpt lat="45.2059" lon="5.72565">
        <ele>645.20001220703</ele>
        <time>2021-07-24T04:17:49.000Z</time>
      </trkpt>
      <trkpt lat="45.20598" lon="5.72573">
        <ele>646.20001220703</ele>
        <time>2021-07-24T04:17:55.000Z</time>
      </trkpt>
      <trkpt lat="45.20605" lon="5.72578">
        <ele>646.20001220703</ele>
        <time>2021-07-24T04:17:59.000Z</time>
      </trkpt>
      <trkpt lat="45.20606" lon="5.72579">
        <ele>646.79998779297</ele>
        <time>2021-07-24T04:18:00.000Z</time>
      </trkpt>
      <trkpt lat="45.2061" lon="5.72581">
        <ele>646.79998779297</ele>
        <time>2021-07-24T04:18:02.000Z</time>
      </trkpt>
      <trkpt lat="45.20614" lon="5.72583">
        <ele>647.79998779297</ele>
        <time>2021-07-24T04:18:05.000Z</time>
      </trkpt>
      <trkpt lat="45.20618" lon="5.72585">
        <ele>648.59997558594</ele>
        <time>2021-07-24T04:18:08.000Z</time>
      </trkpt>
      <trkpt lat="45.20622" lon="5.72587">
        <ele>649.20001220703</ele>
        <time>2021-07-24T04:18:10.000Z</time>
      </trkpt>
      <trkpt lat="45.20627" lon="5.72592">
        <ele>649.59997558594</ele>
        <time>2021-07-24T04:18:13.000Z</time>
      </trkpt>
      <trkpt lat="45.20628" lon="5.72593">
        <ele>649.79998779297</ele>
        <time>2021-07-24T04:18:14.000Z</time>
      </trkpt>
      <trkpt lat="45.20634" lon="5.72592">
        <ele>650.40002441406</ele>
        <time>2021-07-24T04:18:17.000Z</time>
      </trkpt>
      <trkpt lat="45.20639" lon="5.72591">
        <ele>650.59997558594</ele>
        <time>2021-07-24T04:18:19.000Z</time>
      </trkpt>
      <trkpt lat="45.20647" lon="5.72589">
        <ele>650.79998779297</ele>
        <time>2021-07-24T04:18:24.000Z</time>
      </trkpt>
      <trkpt lat="45.20649" lon="5.72587">
        <ele>651.20001220703</ele>
        <time>2021-07-24T04:18:26.000Z</time>
      </trkpt>
      <trkpt lat="45.20651" lon="5.72586">
        <ele>651.79998779297</ele>
        <time>2021-07-24T04:18:27.000Z</time>
      </trkpt>
      <trkpt lat="45.20662" lon="5.72581">
        <ele>652.40002441406</ele>
        <time>2021-07-24T04:18:33.000Z</time>
      </trkpt>
      <trkpt lat="45.20663" lon="5.7258">
        <ele>653</ele>
        <time>2021-07-24T04:18:34.000Z</time>
      </trkpt>
      <trkpt lat="45.20668" lon="5.72574">
        <ele>653.59997558594</ele>
        <time>2021-07-24T04:18:38.000Z</time>
      </trkpt>
      <trkpt lat="45.20669" lon="5.72573">
        <ele>653.59997558594</ele>
        <time>2021-07-24T04:18:39.000Z</time>
      </trkpt>
      <trkpt lat="45.2067" lon="5.72571">
        <ele>654</ele>
        <time>2021-07-24T04:18:40.000Z</time>
      </trkpt>
      <trkpt lat="45.20676" lon="5.72568">
        <ele>655.20001220703</ele>
        <time>2021-07-24T04:18:44.000Z</time>
      </trkpt>
      <trkpt lat="45.2068" lon="5.72566">
        <ele>655.40002441406</ele>
        <time>2021-07-24T04:18:47.000Z</time>
      </trkpt>
      <trkpt lat="45.20682" lon="5.72565">
        <ele>656.40002441406</ele>
        <time>2021-07-24T04:18:48.000Z</time>
      </trkpt>
      <trkpt lat="45.20686" lon="5.72563">
        <ele>657.59997558594</ele>
        <time>2021-07-24T04:18:52.000Z</time>
      </trkpt>
      <trkpt lat="45.2069" lon="5.72562">
        <ele>658</ele>
        <time>2021-07-24T04:18:55.000Z</time>
      </trkpt>
      <trkpt lat="45.20694" lon="5.72563">
        <ele>659.20001220703</ele>
        <time>2021-07-24T04:18:57.000Z</time>
      </trkpt>
      <trkpt lat="45.20695" lon="5.72564">
        <ele>659.40002441406</ele>
        <time>2021-07-24T04:18:58.000Z</time>
      </trkpt>
      <trkpt lat="45.20699" lon="5.72568">
        <ele>660</ele>
        <time>2021-07-24T04:19:02.000Z</time>
      </trkpt>
      <trkpt lat="45.20701" lon="5.72568">
        <ele>660.20001220703</ele>
        <time>2021-07-24T04:19:03.000Z</time>
      </trkpt>
      <trkpt lat="45.20702" lon="5.72568">
        <ele>661.40002441406</ele>
        <time>2021-07-24T04:19:05.000Z</time>
      </trkpt>
      <trkpt lat="45.20703" lon="5.72569">
        <ele>661.59997558594</ele>
        <time>2021-07-24T04:19:06.000Z</time>
      </trkpt>
      <trkpt lat="45.20707" lon="5.7257">
        <ele>662</ele>
        <time>2021-07-24T04:19:08.000Z</time>
      </trkpt>
      <trkpt lat="45.2071" lon="5.72571">
        <ele>662.40002441406</ele>
        <time>2021-07-24T04:19:10.000Z</time>
      </trkpt>
      <trkpt lat="45.20714" lon="5.72569">
        <ele>663.40002441406</ele>
        <time>2021-07-24T04:19:13.000Z</time>
      </trkpt>
      <trkpt lat="45.20716" lon="5.72569">
        <ele>663.40002441406</ele>
        <time>2021-07-24T04:19:14.000Z</time>
      </trkpt>
      <trkpt lat="45.20719" lon="5.72571">
        <ele>664.20001220703</ele>
        <time>2021-07-24T04:19:16.000Z</time>
      </trkpt>
      <trkpt lat="45.20722" lon="5.72572">
        <ele>665</ele>
        <time>2021-07-24T04:19:19.000Z</time>
      </trkpt>
      <trkpt lat="45.20725" lon="5.72573">
        <ele>665.79998779297</ele>
        <time>2021-07-24T04:19:21.000Z</time>
      </trkpt>
      <trkpt lat="45.20728" lon="5.72575">
        <ele>666.79998779297</ele>
        <time>2021-07-24T04:19:25.000Z</time>
      </trkpt>
      <trkpt lat="45.20729" lon="5.72576">
        <ele>667</ele>
        <time>2021-07-24T04:19:26.000Z</time>
      </trkpt>
      <trkpt lat="45.2073" lon="5.72576">
        <ele>667.20001220703</ele>
        <time>2021-07-24T04:19:27.000Z</time>
      </trkpt>
      <trkpt lat="45.20731" lon="5.72576">
        <ele>667.40002441406</ele>
        <time>2021-07-24T04:19:28.000Z</time>
      </trkpt>
      <trkpt lat="45.20734" lon="5.72577">
        <ele>668.20001220703</ele>
        <time>2021-07-24T04:19:30.000Z</time>
      </trkpt>
      <trkpt lat="45.20736" lon="5.72581">
        <ele>669</ele>
        <time>2021-07-24T04:19:33.000Z</time>
      </trkpt>
      <trkpt lat="45.20737" lon="5.72585">
        <ele>669.40002441406</ele>
        <time>2021-07-24T04:19:35.000Z</time>
      </trkpt>
      <trkpt lat="45.2074" lon="5.72593">
        <ele>670.59997558594</ele>
        <time>2021-07-24T04:19:39.000Z</time>
      </trkpt>
      <trkpt lat="45.2074" lon="5.72595">
        <ele>671</ele>
        <time>2021-07-24T04:19:40.000Z</time>
      </trkpt>
      <trkpt lat="45.2074" lon="5.72596">
        <ele>671</ele>
        <time>2021-07-24T04:19:41.000Z</time>
      </trkpt>
      <trkpt lat="45.20741" lon="5.72602">
        <ele>671.79998779297</ele>
        <time>2021-07-24T04:19:44.000Z</time>
      </trkpt>
      <trkpt lat="45.20741" lon="5.72604">
        <ele>672.20001220703</ele>
        <time>2021-07-24T04:19:45.000Z</time>
      </trkpt>
      <trkpt lat="45.20742" lon="5.72608">
        <ele>673</ele>
        <time>2021-07-24T04:19:48.000Z</time>
      </trkpt>
      <trkpt lat="45.20743" lon="5.72609">
        <ele>673</ele>
        <time>2021-07-24T04:19:49.000Z</time>
      </trkpt>
      <trkpt lat="45.20745" lon="5.72609">
        <ele>673.59997558594</ele>
        <time>2021-07-24T04:19:51.000Z</time>
      </trkpt>
      <trkpt lat="45.20747" lon="5.72608">
        <ele>674.59997558594</ele>
        <time>2021-07-24T04:19:54.000Z</time>
      </trkpt>
      <trkpt lat="45.20751" lon="5.72608">
        <ele>674.79998779297</ele>
        <time>2021-07-24T04:19:56.000Z</time>
      </trkpt>
      <trkpt lat="45.20753" lon="5.72608">
        <ele>675</ele>
        <time>2021-07-24T04:19:58.000Z</time>
      </trkpt>
      <trkpt lat="45.20753" lon="5.72608">
        <ele>675.79998779297</ele>
        <time>2021-07-24T04:19:59.000Z</time>
      </trkpt>
      <trkpt lat="45.2076" lon="5.72607">
        <ele>677</ele>
        <time>2021-07-24T04:20:04.000Z</time>
      </trkpt>
      <trkpt lat="45.20761" lon="5.72607">
        <ele>677.79998779297</ele>
        <time>2021-07-24T04:20:05.000Z</time>
      </trkpt>
      <trkpt lat="45.20764" lon="5.72605">
        <ele>678.20001220703</ele>
        <time>2021-07-24T04:20:08.000Z</time>
      </trkpt>
      <trkpt lat="45.20767" lon="5.72604">
        <ele>679.20001220703</ele>
        <time>2021-07-24T04:20:11.000Z</time>
      </trkpt>
      <trkpt lat="45.20768" lon="5.72604">
        <ele>679.79998779297</ele>
        <time>2021-07-24T04:20:12.000Z</time>
      </trkpt>
      <trkpt lat="45.2077" lon="5.72607">
        <ele>680.40002441406</ele>
        <time>2021-07-24T04:20:14.000Z</time>
      </trkpt>
      <trkpt lat="45.2077" lon="5.72608">
        <ele>680.59997558594</ele>
        <time>2021-07-24T04:20:15.000Z</time>
      </trkpt>
      <trkpt lat="45.20771" lon="5.72612">
        <ele>681.20001220703</ele>
        <time>2021-07-24T04:20:17.000Z</time>
      </trkpt>
      <trkpt lat="45.20773" lon="5.72616">
        <ele>681.59997558594</ele>
        <time>2021-07-24T04:20:19.000Z</time>
      </trkpt>
      <trkpt lat="45.20774" lon="5.72622">
        <ele>682</ele>
        <time>2021-07-24T04:20:22.000Z</time>
      </trkpt>
      <trkpt lat="45.20775" lon="5.72625">
        <ele>682.79998779297</ele>
        <time>2021-07-24T04:20:24.000Z</time>
      </trkpt>
      <trkpt lat="45.20774" lon="5.72631">
        <ele>684</ele>
        <time>2021-07-24T04:20:29.000Z</time>
      </trkpt>
      <trkpt lat="45.20774" lon="5.72632">
        <ele>684.20001220703</ele>
        <time>2021-07-24T04:20:30.000Z</time>
      </trkpt>
      <trkpt lat="45.20773" lon="5.72636">
        <ele>685</ele>
        <time>2021-07-24T04:20:33.000Z</time>
      </trkpt>
      <trkpt lat="45.20775" lon="5.72639">
        <ele>685.79998779297</ele>
        <time>2021-07-24T04:20:36.000Z</time>
      </trkpt>
      <trkpt lat="45.20775" lon="5.72639">
        <ele>686.59997558594</ele>
        <time>2021-07-24T04:20:37.000Z</time>
      </trkpt>
      <trkpt lat="45.2078" lon="5.72637">
        <ele>688.40002441406</ele>
        <time>2021-07-24T04:20:42.000Z</time>
      </trkpt>
      <trkpt lat="45.20781" lon="5.72637">
        <ele>688.40002441406</ele>
        <time>2021-07-24T04:20:43.000Z</time>
      </trkpt>
      <trkpt lat="45.20783" lon="5.72634">
        <ele>689.59997558594</ele>
        <time>2021-07-24T04:20:48.000Z</time>
      </trkpt>
      <trkpt lat="45.20784" lon="5.72633">
        <ele>690.20001220703</ele>
        <time>2021-07-24T04:20:49.000Z</time>
      </trkpt>
      <trkpt lat="45.20788" lon="5.7263">
        <ele>691</ele>
        <time>2021-07-24T04:20:54.000Z</time>
      </trkpt>
      <trkpt lat="45.20789" lon="5.72629">
        <ele>691.40002441406</ele>
        <time>2021-07-24T04:20:55.000Z</time>
      </trkpt>
      <trkpt lat="45.20791" lon="5.72626">
        <ele>691.59997558594</ele>
        <time>2021-07-24T04:20:57.000Z</time>
      </trkpt>
      <trkpt lat="45.20791" lon="5.72624">
        <ele>692.20001220703</ele>
        <time>2021-07-24T04:20:59.000Z</time>
      </trkpt>
      <trkpt lat="45.20791" lon="5.72623">
        <ele>692.40002441406</ele>
        <time>2021-07-24T04:21:00.000Z</time>
      </trkpt>
      <trkpt lat="45.20793" lon="5.72621">
        <ele>693</ele>
        <time>2021-07-24T04:21:04.000Z</time>
      </trkpt>
      <trkpt lat="45.20794" lon="5.72621">
        <ele>694</ele>
        <time>2021-07-24T04:21:05.000Z</time>
      </trkpt>
      <trkpt lat="45.20794" lon="5.72622">
        <ele>694.40002441406</ele>
        <time>2021-07-24T04:21:06.000Z</time>
      </trkpt>
      <trkpt lat="45.20797" lon="5.72625">
        <ele>695</ele>
        <time>2021-07-24T04:21:09.000Z</time>
      </trkpt>
      <trkpt lat="45.20798" lon="5.72628">
        <ele>695.40002441406</ele>
        <time>2021-07-24T04:21:11.000Z</time>
      </trkpt>
      <trkpt lat="45.20798" lon="5.7263">
        <ele>696</ele>
        <time>2021-07-24T04:21:12.000Z</time>
      </trkpt>
      <trkpt lat="45.20798" lon="5.72632">
        <ele>696</ele>
        <time>2021-07-24T04:21:13.000Z</time>
      </trkpt>
      <trkpt lat="45.208" lon="5.72635">
        <ele>697.40002441406</ele>
        <time>2021-07-24T04:21:16.000Z</time>
      </trkpt>
      <trkpt lat="45.208" lon="5.72636">
        <ele>697.59997558594</ele>
        <time>2021-07-24T04:21:17.000Z</time>
      </trkpt>
      <trkpt lat="45.20801" lon="5.72637">
        <ele>697.59997558594</ele>
        <time>2021-07-24T04:21:18.000Z</time>
      </trkpt>
      <trkpt lat="45.20803" lon="5.7264">
        <ele>698.79998779297</ele>
        <time>2021-07-24T04:21:22.000Z</time>
      </trkpt>
      <trkpt lat="45.20804" lon="5.72642">
        <ele>699</ele>
        <time>2021-07-24T04:21:23.000Z</time>
      </trkpt>
      <trkpt lat="45.20804" lon="5.72643">
        <ele>699.20001220703</ele>
        <time>2021-07-24T04:21:24.000Z</time>
      </trkpt>
      <trkpt lat="45.20804" lon="5.72645">
        <ele>699.40002441406</ele>
        <time>2021-07-24T04:21:25.000Z</time>
      </trkpt>
      <trkpt lat="45.20804" lon="5.72648">
        <ele>700.40002441406</ele>
        <time>2021-07-24T04:21:27.000Z</time>
      </trkpt>
      <trkpt lat="45.20804" lon="5.7265">
        <ele>700.59997558594</ele>
        <time>2021-07-24T04:21:28.000Z</time>
      </trkpt>
      <trkpt lat="45.20806" lon="5.72656">
        <ele>701.40002441406</ele>
        <time>2021-07-24T04:21:31.000Z</time>
      </trkpt>
      <trkpt lat="45.20806" lon="5.72659">
        <ele>701.59997558594</ele>
        <time>2021-07-24T04:21:32.000Z</time>
      </trkpt>
      <trkpt lat="45.20806" lon="5.72664">
        <ele>702.40002441406</ele>
        <time>2021-07-24T04:21:35.000Z</time>
      </trkpt>
      <trkpt lat="45.20807" lon="5.72664">
        <ele>702.40002441406</ele>
        <time>2021-07-24T04:21:36.000Z</time>
      </trkpt>
      <trkpt lat="45.20809" lon="5.72664">
        <ele>703.20001220703</ele>
        <time>2021-07-24T04:21:38.000Z</time>
      </trkpt>
      <trkpt lat="45.20812" lon="5.72662">
        <ele>704.79998779297</ele>
        <time>2021-07-24T04:21:43.000Z</time>
      </trkpt>
      <trkpt lat="45.20814" lon="5.72662">
        <ele>704.79998779297</ele>
        <time>2021-07-24T04:21:44.000Z</time>
      </trkpt>
      <trkpt lat="45.20816" lon="5.72659">
        <ele>705.59997558594</ele>
        <time>2021-07-24T04:21:48.000Z</time>
      </trkpt>
      <trkpt lat="45.20817" lon="5.72658">
        <ele>706</ele>
        <time>2021-07-24T04:21:49.000Z</time>
      </trkpt>
      <trkpt lat="45.20817" lon="5.72656">
        <ele>706.20001220703</ele>
        <time>2021-07-24T04:21:51.000Z</time>
      </trkpt>
      <trkpt lat="45.20819" lon="5.72652">
        <ele>707.20001220703</ele>
        <time>2021-07-24T04:21:54.000Z</time>
      </trkpt>
      <trkpt lat="45.20821" lon="5.7265">
        <ele>707.40002441406</ele>
        <time>2021-07-24T04:21:56.000Z</time>
      </trkpt>
      <trkpt lat="45.20822" lon="5.72649">
        <ele>707.79998779297</ele>
        <time>2021-07-24T04:21:57.000Z</time>
      </trkpt>
      <trkpt lat="45.20824" lon="5.72651">
        <ele>708.40002441406</ele>
        <time>2021-07-24T04:21:59.000Z</time>
      </trkpt>
      <trkpt lat="45.20824" lon="5.72653">
        <ele>708.40002441406</ele>
        <time>2021-07-24T04:22:00.000Z</time>
      </trkpt>
      <trkpt lat="45.20825" lon="5.72654">
        <ele>708.40002441406</ele>
        <time>2021-07-24T04:22:01.000Z</time>
      </trkpt>
      <trkpt lat="45.20825" lon="5.72655">
        <ele>709.20001220703</ele>
        <time>2021-07-24T04:22:02.000Z</time>
      </trkpt>
      <trkpt lat="45.20826" lon="5.72655">
        <ele>709.40002441406</ele>
        <time>2021-07-24T04:22:03.000Z</time>
      </trkpt>
      <trkpt lat="45.20829" lon="5.72659">
        <ele>710.59997558594</ele>
        <time>2021-07-24T04:22:07.000Z</time>
      </trkpt>
      <trkpt lat="45.20831" lon="5.72663">
        <ele>711.79998779297</ele>
        <time>2021-07-24T04:22:10.000Z</time>
      </trkpt>
      <trkpt lat="45.20833" lon="5.72669">
        <ele>712.20001220703</ele>
        <time>2021-07-24T04:22:14.000Z</time>
      </trkpt>
      <trkpt lat="45.20833" lon="5.72672">
        <ele>713</ele>
        <time>2021-07-24T04:22:16.000Z</time>
      </trkpt>
      <trkpt lat="45.20833" lon="5.72674">
        <ele>713.40002441406</ele>
        <time>2021-07-24T04:22:17.000Z</time>
      </trkpt>
      <trkpt lat="45.20832" lon="5.72678">
        <ele>713.40002441406</ele>
        <time>2021-07-24T04:22:19.000Z</time>
      </trkpt>
      <trkpt lat="45.20833" lon="5.72682">
        <ele>714.40002441406</ele>
        <time>2021-07-24T04:22:21.000Z</time>
      </trkpt>
      <trkpt lat="45.20833" lon="5.72683">
        <ele>714.40002441406</ele>
        <time>2021-07-24T04:22:22.000Z</time>
      </trkpt>
      <trkpt lat="45.20834" lon="5.72687">
        <ele>716</ele>
        <time>2021-07-24T04:22:26.000Z</time>
      </trkpt>
      <trkpt lat="45.20835" lon="5.7269">
        <ele>716.40002441406</ele>
        <time>2021-07-24T04:22:28.000Z</time>
      </trkpt>
      <trkpt lat="45.20835" lon="5.72692">
        <ele>716.79998779297</ele>
        <time>2021-07-24T04:22:31.000Z</time>
      </trkpt>
      <trkpt lat="45.20836" lon="5.72692">
        <ele>717.59997558594</ele>
        <time>2021-07-24T04:22:32.000Z</time>
      </trkpt>
      <trkpt lat="45.20838" lon="5.7269">
        <ele>718</ele>
        <time>2021-07-24T04:22:34.000Z</time>
      </trkpt>
      <trkpt lat="45.20839" lon="5.72689">
        <ele>718</ele>
        <time>2021-07-24T04:22:35.000Z</time>
      </trkpt>
      <trkpt lat="45.20842" lon="5.72687">
        <ele>718.59997558594</ele>
        <time>2021-07-24T04:22:38.000Z</time>
      </trkpt>
      <trkpt lat="45.20844" lon="5.72686">
        <ele>719</ele>
        <time>2021-07-24T04:22:40.000Z</time>
      </trkpt>
      <trkpt lat="45.20845" lon="5.72685">
        <ele>720</ele>
        <time>2021-07-24T04:22:41.000Z</time>
      </trkpt>
      <trkpt lat="45.20851" lon="5.72684">
        <ele>720.59997558594</ele>
        <time>2021-07-24T04:22:46.000Z</time>
      </trkpt>
      <trkpt lat="45.20852" lon="5.72683">
        <ele>721</ele>
        <time>2021-07-24T04:22:48.000Z</time>
      </trkpt>
      <trkpt lat="45.20854" lon="5.72683">
        <ele>721.59997558594</ele>
        <time>2021-07-24T04:22:51.000Z</time>
      </trkpt>
      <trkpt lat="45.20856" lon="5.72682">
        <ele>722.20001220703</ele>
        <time>2021-07-24T04:22:53.000Z</time>
      </trkpt>
      <trkpt lat="45.20859" lon="5.7268">
        <ele>722.59997558594</ele>
        <time>2021-07-24T04:22:55.000Z</time>
      </trkpt>
      <trkpt lat="45.20864" lon="5.72678">
        <ele>722.79998779297</ele>
        <time>2021-07-24T04:22:58.000Z</time>
      </trkpt>
      <trkpt lat="45.20866" lon="5.72677">
        <ele>723.20001220703</ele>
        <time>2021-07-24T04:23:00.000Z</time>
      </trkpt>
      <trkpt lat="45.20869" lon="5.72677">
        <ele>724.40002441406</ele>
        <time>2021-07-24T04:23:04.000Z</time>
      </trkpt>
      <trkpt lat="45.20873" lon="5.72676">
        <ele>725</ele>
        <time>2021-07-24T04:23:07.000Z</time>
      </trkpt>
      <trkpt lat="45.20877" lon="5.72675">
        <ele>725.79998779297</ele>
        <time>2021-07-24T04:23:11.000Z</time>
      </trkpt>
      <trkpt lat="45.20881" lon="5.72673">
        <ele>727.20001220703</ele>
        <time>2021-07-24T04:23:16.000Z</time>
      </trkpt>
      <trkpt lat="45.20883" lon="5.72672">
        <ele>727.20001220703</ele>
        <time>2021-07-24T04:23:17.000Z</time>
      </trkpt>
      <trkpt lat="45.2089" lon="5.72674">
        <ele>728.20001220703</ele>
        <time>2021-07-24T04:23:21.000Z</time>
      </trkpt>
      <trkpt lat="45.20893" lon="5.72672">
        <ele>729.40002441406</ele>
        <time>2021-07-24T04:23:23.000Z</time>
      </trkpt>
      <trkpt lat="45.20899" lon="5.72669">
        <ele>730</ele>
        <time>2021-07-24T04:23:27.000Z</time>
      </trkpt>
      <trkpt lat="45.209" lon="5.72669">
        <ele>730.59997558594</ele>
        <time>2021-07-24T04:23:28.000Z</time>
      </trkpt>
      <trkpt lat="45.20902" lon="5.72668">
        <ele>731.40002441406</ele>
        <time>2021-07-24T04:23:30.000Z</time>
      </trkpt>
      <trkpt lat="45.20902" lon="5.72667">
        <ele>731.59997558594</ele>
        <time>2021-07-24T04:23:32.000Z</time>
      </trkpt>
      <trkpt lat="45.20906" lon="5.72666">
        <ele>732.20001220703</ele>
        <time>2021-07-24T04:23:34.000Z</time>
      </trkpt>
      <trkpt lat="45.20909" lon="5.72665">
        <ele>732.59997558594</ele>
        <time>2021-07-24T04:23:36.000Z</time>
      </trkpt>
      <trkpt lat="45.20912" lon="5.72666">
        <ele>732.59997558594</ele>
        <time>2021-07-24T04:23:38.000Z</time>
      </trkpt>
      <trkpt lat="45.20913" lon="5.72667">
        <ele>733.59997558594</ele>
        <time>2021-07-24T04:23:39.000Z</time>
      </trkpt>
      <trkpt lat="45.20914" lon="5.72667">
        <ele>733.59997558594</ele>
        <time>2021-07-24T04:23:40.000Z</time>
      </trkpt>
      <trkpt lat="45.20916" lon="5.72668">
        <ele>734</ele>
        <time>2021-07-24T04:23:42.000Z</time>
      </trkpt>
      <trkpt lat="45.20918" lon="5.7267">
        <ele>735</ele>
        <time>2021-07-24T04:23:44.000Z</time>
      </trkpt>
      <trkpt lat="45.20919" lon="5.7267">
        <ele>735.20001220703</ele>
        <time>2021-07-24T04:23:45.000Z</time>
      </trkpt>
      <trkpt lat="45.2092" lon="5.72671">
        <ele>735.20001220703</ele>
        <time>2021-07-24T04:23:46.000Z</time>
      </trkpt>
      <trkpt lat="45.20925" lon="5.72674">
        <ele>736.20001220703</ele>
        <time>2021-07-24T04:23:50.000Z</time>
      </trkpt>
      <trkpt lat="45.20926" lon="5.72675">
        <ele>736.40002441406</ele>
        <time>2021-07-24T04:23:51.000Z</time>
      </trkpt>
      <trkpt lat="45.20928" lon="5.72675">
        <ele>736.59997558594</ele>
        <time>2021-07-24T04:23:52.000Z</time>
      </trkpt>
      <trkpt lat="45.2093" lon="5.72676">
        <ele>737.40002441406</ele>
        <time>2021-07-24T04:23:54.000Z</time>
      </trkpt>
      <trkpt lat="45.20932" lon="5.72677">
        <ele>737.59997558594</ele>
        <time>2021-07-24T04:23:55.000Z</time>
      </trkpt>
      <trkpt lat="45.20934" lon="5.7268">
        <ele>737.79998779297</ele>
        <time>2021-07-24T04:23:58.000Z</time>
      </trkpt>
      <trkpt lat="45.20936" lon="5.72683">
        <ele>738.40002441406</ele>
        <time>2021-07-24T04:24:00.000Z</time>
      </trkpt>
      <trkpt lat="45.20937" lon="5.72685">
        <ele>738.59997558594</ele>
        <time>2021-07-24T04:24:02.000Z</time>
      </trkpt>
      <trkpt lat="45.20939" lon="5.72687">
        <ele>739.59997558594</ele>
        <time>2021-07-24T04:24:04.000Z</time>
      </trkpt>
      <trkpt lat="45.20942" lon="5.72693">
        <ele>740.59997558594</ele>
        <time>2021-07-24T04:24:09.000Z</time>
      </trkpt>
      <trkpt lat="45.20943" lon="5.72693">
        <ele>741.20001220703</ele>
        <time>2021-07-24T04:24:11.000Z</time>
      </trkpt>
      <trkpt lat="45.20945" lon="5.72694">
        <ele>741.40002441406</ele>
        <time>2021-07-24T04:24:13.000Z</time>
      </trkpt>
      <trkpt lat="45.20946" lon="5.72695">
        <ele>742</ele>
        <time>2021-07-24T04:24:14.000Z</time>
      </trkpt>
      <trkpt lat="45.20947" lon="5.72697">
        <ele>742.59997558594</ele>
        <time>2021-07-24T04:24:16.000Z</time>
      </trkpt>
      <trkpt lat="45.20949" lon="5.72697">
        <ele>743</ele>
        <time>2021-07-24T04:24:17.000Z</time>
      </trkpt>
      <trkpt lat="45.20953" lon="5.72699">
        <ele>743</ele>
        <time>2021-07-24T04:24:19.000Z</time>
      </trkpt>
      <trkpt lat="45.20955" lon="5.72702">
        <ele>744</ele>
        <time>2021-07-24T04:24:21.000Z</time>
      </trkpt>
      <trkpt lat="45.20958" lon="5.72703">
        <ele>744.40002441406</ele>
        <time>2021-07-24T04:24:24.000Z</time>
      </trkpt>
      <trkpt lat="45.20959" lon="5.72704">
        <ele>744.59997558594</ele>
        <time>2021-07-24T04:24:25.000Z</time>
      </trkpt>
      <trkpt lat="45.20959" lon="5.72704">
        <ele>745.20001220703</ele>
        <time>2021-07-24T04:24:26.000Z</time>
      </trkpt>
      <trkpt lat="45.20962" lon="5.72707">
        <ele>746</ele>
        <time>2021-07-24T04:24:29.000Z</time>
      </trkpt>
      <trkpt lat="45.20962" lon="5.72709">
        <ele>746.40002441406</ele>
        <time>2021-07-24T04:24:30.000Z</time>
      </trkpt>
      <trkpt lat="45.20963" lon="5.72712">
        <ele>747.59997558594</ele>
        <time>2021-07-24T04:24:33.000Z</time>
      </trkpt>
      <trkpt lat="45.20965" lon="5.72712">
        <ele>747.79998779297</ele>
        <time>2021-07-24T04:24:35.000Z</time>
      </trkpt>
      <trkpt lat="45.20966" lon="5.72713">
        <ele>748.40002441406</ele>
        <time>2021-07-24T04:24:36.000Z</time>
      </trkpt>
      <trkpt lat="45.20966" lon="5.72714">
        <ele>748.40002441406</ele>
        <time>2021-07-24T04:24:37.000Z</time>
      </trkpt>
      <trkpt lat="45.20967" lon="5.72715">
        <ele>749</ele>
        <time>2021-07-24T04:24:38.000Z</time>
      </trkpt>
      <trkpt lat="45.20971" lon="5.72718">
        <ele>750</ele>
        <time>2021-07-24T04:24:42.000Z</time>
      </trkpt>
      <trkpt lat="45.20971" lon="5.72721">
        <ele>750</ele>
        <time>2021-07-24T04:24:43.000Z</time>
      </trkpt>
      <trkpt lat="45.20971" lon="5.72723">
        <ele>751.20001220703</ele>
        <time>2021-07-24T04:24:44.000Z</time>
      </trkpt>
      <trkpt lat="45.20972" lon="5.72725">
        <ele>751.59997558594</ele>
        <time>2021-07-24T04:24:46.000Z</time>
      </trkpt>
      <trkpt lat="45.20975" lon="5.72726">
        <ele>752</ele>
        <time>2021-07-24T04:24:49.000Z</time>
      </trkpt>
      <trkpt lat="45.20975" lon="5.72727">
        <ele>752.79998779297</ele>
        <time>2021-07-24T04:24:50.000Z</time>
      </trkpt>
      <trkpt lat="45.20976" lon="5.72728">
        <ele>753</ele>
        <time>2021-07-24T04:24:51.000Z</time>
      </trkpt>
      <trkpt lat="45.20978" lon="5.72731">
        <ele>753.40002441406</ele>
        <time>2021-07-24T04:24:54.000Z</time>
      </trkpt>
      <trkpt lat="45.20978" lon="5.72732">
        <ele>754.20001220703</ele>
        <time>2021-07-24T04:24:55.000Z</time>
      </trkpt>
      <trkpt lat="45.2098" lon="5.72735">
        <ele>754.79998779297</ele>
        <time>2021-07-24T04:24:58.000Z</time>
      </trkpt>
      <trkpt lat="45.2098" lon="5.72736">
        <ele>755.20001220703</ele>
        <time>2021-07-24T04:24:59.000Z</time>
      </trkpt>
      <trkpt lat="45.20981" lon="5.72738">
        <ele>755.40002441406</ele>
        <time>2021-07-24T04:25:00.000Z</time>
      </trkpt>
      <trkpt lat="45.20981" lon="5.7274">
        <ele>756.20001220703</ele>
        <time>2021-07-24T04:25:01.000Z</time>
      </trkpt>
      <trkpt lat="45.20986" lon="5.72744">
        <ele>757.40002441406</ele>
        <time>2021-07-24T04:25:05.000Z</time>
      </trkpt>
      <trkpt lat="45.20986" lon="5.72745">
        <ele>757.40002441406</ele>
        <time>2021-07-24T04:25:06.000Z</time>
      </trkpt>
      <trkpt lat="45.20987" lon="5.72746">
        <ele>757.59997558594</ele>
        <time>2021-07-24T04:25:07.000Z</time>
      </trkpt>
      <trkpt lat="45.20987" lon="5.72748">
        <ele>758.20001220703</ele>
        <time>2021-07-24T04:25:09.000Z</time>
      </trkpt>
      <trkpt lat="45.20988" lon="5.72748">
        <ele>758.59997558594</ele>
        <time>2021-07-24T04:25:10.000Z</time>
      </trkpt>
      <trkpt lat="45.20988" lon="5.72748">
        <ele>758.59997558594</ele>
        <time>2021-07-24T04:25:11.000Z</time>
      </trkpt>
      <trkpt lat="45.20989" lon="5.72747">
        <ele>759.79998779297</ele>
        <time>2021-07-24T04:25:14.000Z</time>
      </trkpt>
      <trkpt lat="45.2099" lon="5.72746">
        <ele>760</ele>
        <time>2021-07-24T04:25:16.000Z</time>
      </trkpt>
      <trkpt lat="45.20989" lon="5.72746">
        <ele>760</ele>
        <time>2021-07-24T04:25:17.000Z</time>
      </trkpt>
      <trkpt lat="45.20988" lon="5.72745">
        <ele>761.20001220703</ele>
        <time>2021-07-24T04:25:19.000Z</time>
      </trkpt>
      <trkpt lat="45.20989" lon="5.72744">
        <ele>761.59997558594</ele>
        <time>2021-07-24T04:25:21.000Z</time>
      </trkpt>
      <trkpt lat="45.2099" lon="5.72744">
        <ele>761.79998779297</ele>
        <time>2021-07-24T04:25:22.000Z</time>
      </trkpt>
      <trkpt lat="45.20992" lon="5.72745">
        <ele>762.40002441406</ele>
        <time>2021-07-24T04:25:24.000Z</time>
      </trkpt>
      <trkpt lat="45.20995" lon="5.72744">
        <ele>763.79998779297</ele>
        <time>2021-07-24T04:25:28.000Z</time>
      </trkpt>
      <trkpt lat="45.20995" lon="5.72744">
        <ele>764</ele>
        <time>2021-07-24T04:25:29.000Z</time>
      </trkpt>
      <trkpt lat="45.20995" lon="5.72743">
        <ele>764.59997558594</ele>
        <time>2021-07-24T04:25:31.000Z</time>
      </trkpt>
      <trkpt lat="45.20996" lon="5.72742">
        <ele>765</ele>
        <time>2021-07-24T04:25:33.000Z</time>
      </trkpt>
      <trkpt lat="45.20997" lon="5.72742">
        <ele>765.20001220703</ele>
        <time>2021-07-24T04:25:34.000Z</time>
      </trkpt>
      <trkpt lat="45.20998" lon="5.7274">
        <ele>766.20001220703</ele>
        <time>2021-07-24T04:25:37.000Z</time>
      </trkpt>
      <trkpt lat="45.20999" lon="5.7274">
        <ele>766.59997558594</ele>
        <time>2021-07-24T04:25:38.000Z</time>
      </trkpt>
      <trkpt lat="45.20999" lon="5.7274">
        <ele>767</ele>
        <time>2021-07-24T04:25:39.000Z</time>
      </trkpt>
      <trkpt lat="45.21" lon="5.72739">
        <ele>767.59997558594</ele>
        <time>2021-07-24T04:25:40.000Z</time>
      </trkpt>
      <trkpt lat="45.21005" lon="5.72735">
        <ele>768.79998779297</ele>
        <time>2021-07-24T04:25:46.000Z</time>
      </trkpt>
      <trkpt lat="45.21006" lon="5.72734">
        <ele>769</ele>
        <time>2021-07-24T04:25:48.000Z</time>
      </trkpt>
      <trkpt lat="45.21009" lon="5.72734">
        <ele>770</ele>
        <time>2021-07-24T04:25:51.000Z</time>
      </trkpt>
      <trkpt lat="45.21011" lon="5.72734">
        <ele>771.20001220703</ele>
        <time>2021-07-24T04:25:54.000Z</time>
      </trkpt>
      <trkpt lat="45.21014" lon="5.72735">
        <ele>771.79998779297</ele>
        <time>2021-07-24T04:25:57.000Z</time>
      </trkpt>
      <trkpt lat="45.21016" lon="5.72735">
        <ele>772.79998779297</ele>
        <time>2021-07-24T04:26:00.000Z</time>
      </trkpt>
      <trkpt lat="45.21017" lon="5.72735">
        <ele>773.59997558594</ele>
        <time>2021-07-24T04:26:03.000Z</time>
      </trkpt>
      <trkpt lat="45.2102" lon="5.72734">
        <ele>773.79998779297</ele>
        <time>2021-07-24T04:26:06.000Z</time>
      </trkpt>
      <trkpt lat="45.21022" lon="5.72734">
        <ele>774.40002441406</ele>
        <time>2021-07-24T04:26:08.000Z</time>
      </trkpt>
      <trkpt lat="45.21023" lon="5.72734">
        <ele>775.59997558594</ele>
        <time>2021-07-24T04:26:10.000Z</time>
      </trkpt>
      <trkpt lat="45.21027" lon="5.72734">
        <ele>776.20001220703</ele>
        <time>2021-07-24T04:26:14.000Z</time>
      </trkpt>
      <trkpt lat="45.21029" lon="5.72732">
        <ele>776.79998779297</ele>
        <time>2021-07-24T04:26:16.000Z</time>
      </trkpt>
      <trkpt lat="45.2103" lon="5.72731">
        <ele>777.79998779297</ele>
        <time>2021-07-24T04:26:19.000Z</time>
      </trkpt>
      <trkpt lat="45.21031" lon="5.72731">
        <ele>778.40002441406</ele>
        <time>2021-07-24T04:26:20.000Z</time>
      </trkpt>
      <trkpt lat="45.21032" lon="5.72731">
        <ele>778.40002441406</ele>
        <time>2021-07-24T04:26:21.000Z</time>
      </trkpt>
      <trkpt lat="45.21033" lon="5.72731">
        <ele>778.40002441406</ele>
        <time>2021-07-24T04:26:22.000Z</time>
      </trkpt>
      <trkpt lat="45.21034" lon="5.72731">
        <ele>779.40002441406</ele>
        <time>2021-07-24T04:26:23.000Z</time>
      </trkpt>
      <trkpt lat="45.21036" lon="5.72731">
        <ele>779.59997558594</ele>
        <time>2021-07-24T04:26:25.000Z</time>
      </trkpt>
      <trkpt lat="45.21041" lon="5.72731">
        <ele>780.40002441406</ele>
        <time>2021-07-24T04:26:29.000Z</time>
      </trkpt>
      <trkpt lat="45.21042" lon="5.72732">
        <ele>780.59997558594</ele>
        <time>2021-07-24T04:26:30.000Z</time>
      </trkpt>
      <trkpt lat="45.21043" lon="5.72735">
        <ele>781.40002441406</ele>
        <time>2021-07-24T04:26:32.000Z</time>
      </trkpt>
      <trkpt lat="45.21047" lon="5.72741">
        <ele>781.40002441406</ele>
        <time>2021-07-24T04:26:34.000Z</time>
      </trkpt>
      <trkpt lat="45.21048" lon="5.72747">
        <ele>781.59997558594</ele>
        <time>2021-07-24T04:26:36.000Z</time>
      </trkpt>
      <trkpt lat="45.21049" lon="5.72749">
        <ele>782</ele>
        <time>2021-07-24T04:26:37.000Z</time>
      </trkpt>
      <trkpt lat="45.21055" lon="5.72764">
        <ele>782.40002441406</ele>
        <time>2021-07-24T04:26:43.000Z</time>
      </trkpt>
      <trkpt lat="45.21055" lon="5.72766">
        <ele>782.59997558594</ele>
        <time>2021-07-24T04:26:44.000Z</time>
      </trkpt>
      <trkpt lat="45.21061" lon="5.72781">
        <ele>783</ele>
        <time>2021-07-24T04:26:51.000Z</time>
      </trkpt>
      <trkpt lat="45.21062" lon="5.72783">
        <ele>783</ele>
        <time>2021-07-24T04:26:52.000Z</time>
      </trkpt>
      <trkpt lat="45.21063" lon="5.72785">
        <ele>783</ele>
        <time>2021-07-24T04:26:53.000Z</time>
      </trkpt>
      <trkpt lat="45.21064" lon="5.72787">
        <ele>783</ele>
        <time>2021-07-24T04:26:54.000Z</time>
      </trkpt>
      <trkpt lat="45.21067" lon="5.72795">
        <ele>783</ele>
        <time>2021-07-24T04:26:57.000Z</time>
      </trkpt>
      <trkpt lat="45.21068" lon="5.728">
        <ele>783.40002441406</ele>
        <time>2021-07-24T04:26:59.000Z</time>
      </trkpt>
      <trkpt lat="45.21071" lon="5.72807">
        <ele>783.79998779297</ele>
        <time>2021-07-24T04:27:02.000Z</time>
      </trkpt>
      <trkpt lat="45.21072" lon="5.72809">
        <ele>783.79998779297</ele>
        <time>2021-07-24T04:27:03.000Z</time>
      </trkpt>
      <trkpt lat="45.21073" lon="5.72813">
        <ele>784.20001220703</ele>
        <time>2021-07-24T04:27:05.000Z</time>
      </trkpt>
      <trkpt lat="45.21075" lon="5.72819">
        <ele>784.20001220703</ele>
        <time>2021-07-24T04:27:07.000Z</time>
      </trkpt>
      <trkpt lat="45.21079" lon="5.72827">
        <ele>785.59997558594</ele>
        <time>2021-07-24T04:27:11.000Z</time>
      </trkpt>
      <trkpt lat="45.21084" lon="5.7283">
        <ele>785.79998779297</ele>
        <time>2021-07-24T04:27:14.000Z</time>
      </trkpt>
      <trkpt lat="45.21086" lon="5.72832">
        <ele>786</ele>
        <time>2021-07-24T04:27:15.000Z</time>
      </trkpt>
      <trkpt lat="45.21091" lon="5.72842">
        <ele>787</ele>
        <time>2021-07-24T04:27:19.000Z</time>
      </trkpt>
      <trkpt lat="45.21096" lon="5.72845">
        <ele>788.20001220703</ele>
        <time>2021-07-24T04:27:24.000Z</time>
      </trkpt>
      <trkpt lat="45.21097" lon="5.72847">
        <ele>788.20001220703</ele>
        <time>2021-07-24T04:27:25.000Z</time>
      </trkpt>
      <trkpt lat="45.21099" lon="5.72851">
        <ele>789.20001220703</ele>
        <time>2021-07-24T04:27:28.000Z</time>
      </trkpt>
      <trkpt lat="45.211" lon="5.72852">
        <ele>789.20001220703</ele>
        <time>2021-07-24T04:27:29.000Z</time>
      </trkpt>
      <trkpt lat="45.21107" lon="5.7286">
        <ele>790.59997558594</ele>
        <time>2021-07-24T04:27:34.000Z</time>
      </trkpt>
      <trkpt lat="45.21111" lon="5.72863">
        <ele>791.20001220703</ele>
        <time>2021-07-24T04:27:37.000Z</time>
      </trkpt>
      <trkpt lat="45.21114" lon="5.72864">
        <ele>791.79998779297</ele>
        <time>2021-07-24T04:27:39.000Z</time>
      </trkpt>
      <trkpt lat="45.21118" lon="5.72867">
        <ele>792.79998779297</ele>
        <time>2021-07-24T04:27:42.000Z</time>
      </trkpt>
      <trkpt lat="45.21127" lon="5.72872">
        <ele>794</ele>
        <time>2021-07-24T04:27:47.000Z</time>
      </trkpt>
      <trkpt lat="45.21129" lon="5.72873">
        <ele>794.20001220703</ele>
        <time>2021-07-24T04:27:48.000Z</time>
      </trkpt>
      <trkpt lat="45.2113" lon="5.72874">
        <ele>794.20001220703</ele>
        <time>2021-07-24T04:27:49.000Z</time>
      </trkpt>
      <trkpt lat="45.21131" lon="5.72875">
        <ele>795.20001220703</ele>
        <time>2021-07-24T04:27:51.000Z</time>
      </trkpt>
      <trkpt lat="45.21134" lon="5.72877">
        <ele>796.20001220703</ele>
        <time>2021-07-24T04:27:54.000Z</time>
      </trkpt>
      <trkpt lat="45.21135" lon="5.72877">
        <ele>796.20001220703</ele>
        <time>2021-07-24T04:27:55.000Z</time>
      </trkpt>
      <trkpt lat="45.2114" lon="5.7288">
        <ele>798</ele>
        <time>2021-07-24T04:28:00.000Z</time>
      </trkpt>
      <trkpt lat="45.21144" lon="5.7288">
        <ele>798</ele>
        <time>2021-07-24T04:28:02.000Z</time>
      </trkpt>
      <trkpt lat="45.21148" lon="5.72882">
        <ele>798.79998779297</ele>
        <time>2021-07-24T04:28:05.000Z</time>
      </trkpt>
      <trkpt lat="45.21151" lon="5.72883">
        <ele>799</ele>
        <time>2021-07-24T04:28:07.000Z</time>
      </trkpt>
      <trkpt lat="45.21157" lon="5.72886">
        <ele>800</ele>
        <time>2021-07-24T04:28:10.000Z</time>
      </trkpt>
      <trkpt lat="45.21161" lon="5.72887">
        <ele>800.20001220703</ele>
        <time>2021-07-24T04:28:12.000Z</time>
      </trkpt>
      <trkpt lat="45.21169" lon="5.72888">
        <ele>801.40002441406</ele>
        <time>2021-07-24T04:28:16.000Z</time>
      </trkpt>
      <trkpt lat="45.21175" lon="5.72894">
        <ele>802</ele>
        <time>2021-07-24T04:28:20.000Z</time>
      </trkpt>
      <trkpt lat="45.21176" lon="5.72896">
        <ele>802.79998779297</ele>
        <time>2021-07-24T04:28:22.000Z</time>
      </trkpt>
      <trkpt lat="45.21179" lon="5.72898">
        <ele>803.59997558594</ele>
        <time>2021-07-24T04:28:24.000Z</time>
      </trkpt>
      <trkpt lat="45.21183" lon="5.72901">
        <ele>804</ele>
        <time>2021-07-24T04:28:28.000Z</time>
      </trkpt>
      <trkpt lat="45.21186" lon="5.72904">
        <ele>805</ele>
        <time>2021-07-24T04:28:31.000Z</time>
      </trkpt>
      <trkpt lat="45.21187" lon="5.72906">
        <ele>805</ele>
        <time>2021-07-24T04:28:32.000Z</time>
      </trkpt>
      <trkpt lat="45.21189" lon="5.72909">
        <ele>805.40002441406</ele>
        <time>2021-07-24T04:28:34.000Z</time>
      </trkpt>
      <trkpt lat="45.21192" lon="5.72914">
        <ele>806.59997558594</ele>
        <time>2021-07-24T04:28:38.000Z</time>
      </trkpt>
      <trkpt lat="45.21193" lon="5.72915">
        <ele>807</ele>
        <time>2021-07-24T04:28:39.000Z</time>
      </trkpt>
      <trkpt lat="45.21199" lon="5.72925">
        <ele>807.79998779297</ele>
        <time>2021-07-24T04:28:45.000Z</time>
      </trkpt>
      <trkpt lat="45.21203" lon="5.72926">
        <ele>808.40002441406</ele>
        <time>2021-07-24T04:28:47.000Z</time>
      </trkpt>
      <trkpt lat="45.21208" lon="5.7293">
        <ele>809</ele>
        <time>2021-07-24T04:28:50.000Z</time>
      </trkpt>
      <trkpt lat="45.21214" lon="5.72934">
        <ele>809.79998779297</ele>
        <time>2021-07-24T04:28:53.000Z</time>
      </trkpt>
      <trkpt lat="45.21214" lon="5.72934">
        <ele>810</ele>
        <time>2021-07-24T04:28:54.000Z</time>
      </trkpt>
      <trkpt lat="45.21212" lon="5.72936">
        <ele>810.40002441406</ele>
        <time>2021-07-24T04:28:55.000Z</time>
      </trkpt>
      <trkpt lat="45.21211" lon="5.72937">
        <ele>811</ele>
        <time>2021-07-24T04:28:56.000Z</time>
      </trkpt>
      <trkpt lat="45.21209" lon="5.72937">
        <ele>811</ele>
        <time>2021-07-24T04:28:57.000Z</time>
      </trkpt>
      <trkpt lat="45.21208" lon="5.72936">
        <ele>811.20001220703</ele>
        <time>2021-07-24T04:28:59.000Z</time>
      </trkpt>
      <trkpt lat="45.21205" lon="5.72931">
        <ele>812.20001220703</ele>
        <time>2021-07-24T04:29:03.000Z</time>
      </trkpt>
      <trkpt lat="45.21205" lon="5.7293">
        <ele>812.59997558594</ele>
        <time>2021-07-24T04:29:04.000Z</time>
      </trkpt>
      <trkpt lat="45.21203" lon="5.72926">
        <ele>813.59997558594</ele>
        <time>2021-07-24T04:29:07.000Z</time>
      </trkpt>
      <trkpt lat="45.21204" lon="5.7292">
        <ele>814.59997558594</ele>
        <time>2021-07-24T04:29:11.000Z</time>
      </trkpt>
      <trkpt lat="45.21205" lon="5.72919">
        <ele>814.59997558594</ele>
        <time>2021-07-24T04:29:12.000Z</time>
      </trkpt>
      <trkpt lat="45.21206" lon="5.72918">
        <ele>814.79998779297</ele>
        <time>2021-07-24T04:29:13.000Z</time>
      </trkpt>
      <trkpt lat="45.2121" lon="5.72917">
        <ele>815.20001220703</ele>
        <time>2021-07-24T04:29:16.000Z</time>
      </trkpt>
      <trkpt lat="45.21211" lon="5.72916">
        <ele>815.79998779297</ele>
        <time>2021-07-24T04:29:17.000Z</time>
      </trkpt>
      <trkpt lat="45.21214" lon="5.72916">
        <ele>815.79998779297</ele>
        <time>2021-07-24T04:29:20.000Z</time>
      </trkpt>
      <trkpt lat="45.21217" lon="5.72916">
        <ele>817</ele>
        <time>2021-07-24T04:29:22.000Z</time>
      </trkpt>
      <trkpt lat="45.2122" lon="5.72918">
        <ele>817.59997558594</ele>
        <time>2021-07-24T04:29:25.000Z</time>
      </trkpt>
      <trkpt lat="45.21222" lon="5.72919">
        <ele>818</ele>
        <time>2021-07-24T04:29:27.000Z</time>
      </trkpt>
      <trkpt lat="45.21226" lon="5.72925">
        <ele>819</ele>
        <time>2021-07-24T04:29:30.000Z</time>
      </trkpt>
      <trkpt lat="45.21226" lon="5.72926">
        <ele>819</ele>
        <time>2021-07-24T04:29:31.000Z</time>
      </trkpt>
      <trkpt lat="45.21229" lon="5.7293">
        <ele>819.40002441406</ele>
        <time>2021-07-24T04:29:34.000Z</time>
      </trkpt>
      <trkpt lat="45.2123" lon="5.7293">
        <ele>819.59997558594</ele>
        <time>2021-07-24T04:29:35.000Z</time>
      </trkpt>
      <trkpt lat="45.21234" lon="5.72929">
        <ele>820.40002441406</ele>
        <time>2021-07-24T04:29:38.000Z</time>
      </trkpt>
      <trkpt lat="45.21241" lon="5.72929">
        <ele>821.20001220703</ele>
        <time>2021-07-24T04:29:42.000Z</time>
      </trkpt>
      <trkpt lat="45.21242" lon="5.7293">
        <ele>821.79998779297</ele>
        <time>2021-07-24T04:29:44.000Z</time>
      </trkpt>
      <trkpt lat="45.21246" lon="5.7293">
        <ele>822.79998779297</ele>
        <time>2021-07-24T04:29:47.000Z</time>
      </trkpt>
      <trkpt lat="45.21248" lon="5.7293">
        <ele>823.20001220703</ele>
        <time>2021-07-24T04:29:49.000Z</time>
      </trkpt>
      <trkpt lat="45.21251" lon="5.72932">
        <ele>823.40002441406</ele>
        <time>2021-07-24T04:29:51.000Z</time>
      </trkpt>
      <trkpt lat="45.21252" lon="5.72933">
        <ele>824.20001220703</ele>
        <time>2021-07-24T04:29:52.000Z</time>
      </trkpt>
      <trkpt lat="45.21258" lon="5.72938">
        <ele>825.59997558594</ele>
        <time>2021-07-24T04:29:57.000Z</time>
      </trkpt>
      <trkpt lat="45.2126" lon="5.72939">
        <ele>825.79998779297</ele>
        <time>2021-07-24T04:29:58.000Z</time>
      </trkpt>
      <trkpt lat="45.21264" lon="5.7294">
        <ele>827</ele>
        <time>2021-07-24T04:30:02.000Z</time>
      </trkpt>
      <trkpt lat="45.21266" lon="5.72942">
        <ele>827.59997558594</ele>
        <time>2021-07-24T04:30:05.000Z</time>
      </trkpt>
      <trkpt lat="45.21267" lon="5.72943">
        <ele>828</ele>
        <time>2021-07-24T04:30:07.000Z</time>
      </trkpt>
      <trkpt lat="45.21273" lon="5.72944">
        <ele>829.40002441406</ele>
        <time>2021-07-24T04:30:12.000Z</time>
      </trkpt>
      <trkpt lat="45.21273" lon="5.72945">
        <ele>829.59997558594</ele>
        <time>2021-07-24T04:30:13.000Z</time>
      </trkpt>
      <trkpt lat="45.21274" lon="5.72947">
        <ele>830.20001220703</ele>
        <time>2021-07-24T04:30:14.000Z</time>
      </trkpt>
      <trkpt lat="45.21275" lon="5.72948">
        <ele>830.40002441406</ele>
        <time>2021-07-24T04:30:15.000Z</time>
      </trkpt>
      <trkpt lat="45.21278" lon="5.72953">
        <ele>831.20001220703</ele>
        <time>2021-07-24T04:30:19.000Z</time>
      </trkpt>
      <trkpt lat="45.21279" lon="5.72954">
        <ele>831.59997558594</ele>
        <time>2021-07-24T04:30:20.000Z</time>
      </trkpt>
      <trkpt lat="45.21284" lon="5.72958">
        <ele>832.79998779297</ele>
        <time>2021-07-24T04:30:25.000Z</time>
      </trkpt>
      <trkpt lat="45.21285" lon="5.72958">
        <ele>832.79998779297</ele>
        <time>2021-07-24T04:30:26.000Z</time>
      </trkpt>
      <trkpt lat="45.21289" lon="5.72961">
        <ele>834.20001220703</ele>
        <time>2021-07-24T04:30:30.000Z</time>
      </trkpt>
      <trkpt lat="45.2129" lon="5.72963">
        <ele>834.20001220703</ele>
        <time>2021-07-24T04:30:31.000Z</time>
      </trkpt>
      <trkpt lat="45.21293" lon="5.72966">
        <ele>835.20001220703</ele>
        <time>2021-07-24T04:30:34.000Z</time>
      </trkpt>
      <trkpt lat="45.21293" lon="5.72968">
        <ele>835.59997558594</ele>
        <time>2021-07-24T04:30:35.000Z</time>
      </trkpt>
      <trkpt lat="45.21299" lon="5.72971">
        <ele>837.20001220703</ele>
        <time>2021-07-24T04:30:40.000Z</time>
      </trkpt>
      <trkpt lat="45.213" lon="5.72972">
        <ele>837.20001220703</ele>
        <time>2021-07-24T04:30:41.000Z</time>
      </trkpt>
      <trkpt lat="45.21302" lon="5.72973">
        <ele>837.20001220703</ele>
        <time>2021-07-24T04:30:42.000Z</time>
      </trkpt>
      <trkpt lat="45.21306" lon="5.72976">
        <ele>838.20001220703</ele>
        <time>2021-07-24T04:30:45.000Z</time>
      </trkpt>
      <trkpt lat="45.21307" lon="5.72977">
        <ele>838.20001220703</ele>
        <time>2021-07-24T04:30:46.000Z</time>
      </trkpt>
      <trkpt lat="45.21307" lon="5.7298">
        <ele>838.59997558594</ele>
        <time>2021-07-24T04:30:47.000Z</time>
      </trkpt>
      <trkpt lat="45.2131" lon="5.72985">
        <ele>839.40002441406</ele>
        <time>2021-07-24T04:30:50.000Z</time>
      </trkpt>
      <trkpt lat="45.21316" lon="5.72995">
        <ele>840.40002441406</ele>
        <time>2021-07-24T04:30:56.000Z</time>
      </trkpt>
      <trkpt lat="45.21317" lon="5.72996">
        <ele>840.40002441406</ele>
        <time>2021-07-24T04:30:57.000Z</time>
      </trkpt>
      <trkpt lat="45.21318" lon="5.72998">
        <ele>840.79998779297</ele>
        <time>2021-07-24T04:30:58.000Z</time>
      </trkpt>
      <trkpt lat="45.21319" lon="5.73001">
        <ele>841.20001220703</ele>
        <time>2021-07-24T04:31:00.000Z</time>
      </trkpt>
      <trkpt lat="45.2132" lon="5.73002">
        <ele>841.40002441406</ele>
        <time>2021-07-24T04:31:01.000Z</time>
      </trkpt>
      <trkpt lat="45.21322" lon="5.73002">
        <ele>841.59997558594</ele>
        <time>2021-07-24T04:31:02.000Z</time>
      </trkpt>
      <trkpt lat="45.21326" lon="5.73005">
        <ele>842.79998779297</ele>
        <time>2021-07-24T04:31:05.000Z</time>
      </trkpt>
      <trkpt lat="45.21326" lon="5.73006">
        <ele>842.79998779297</ele>
        <time>2021-07-24T04:31:06.000Z</time>
      </trkpt>
      <trkpt lat="45.21327" lon="5.73009">
        <ele>842.79998779297</ele>
        <time>2021-07-24T04:31:08.000Z</time>
      </trkpt>
      <trkpt lat="45.21328" lon="5.73012">
        <ele>843.79998779297</ele>
        <time>2021-07-24T04:31:10.000Z</time>
      </trkpt>
      <trkpt lat="45.2133" lon="5.73013">
        <ele>844.20001220703</ele>
        <time>2021-07-24T04:31:12.000Z</time>
      </trkpt>
      <trkpt lat="45.21331" lon="5.73017">
        <ele>845</ele>
        <time>2021-07-24T04:31:15.000Z</time>
      </trkpt>
      <trkpt lat="45.21332" lon="5.73018">
        <ele>845.20001220703</ele>
        <time>2021-07-24T04:31:16.000Z</time>
      </trkpt>
      <trkpt lat="45.21336" lon="5.73018">
        <ele>845.59997558594</ele>
        <time>2021-07-24T04:31:18.000Z</time>
      </trkpt>
      <trkpt lat="45.21337" lon="5.73019">
        <ele>846</ele>
        <time>2021-07-24T04:31:19.000Z</time>
      </trkpt>
      <trkpt lat="45.21337" lon="5.7302">
        <ele>846.20001220703</ele>
        <time>2021-07-24T04:31:20.000Z</time>
      </trkpt>
      <trkpt lat="45.21336" lon="5.73022">
        <ele>846.79998779297</ele>
        <time>2021-07-24T04:31:21.000Z</time>
      </trkpt>
      <trkpt lat="45.21336" lon="5.73023">
        <ele>846.79998779297</ele>
        <time>2021-07-24T04:31:22.000Z</time>
      </trkpt>
      <trkpt lat="45.21337" lon="5.73026">
        <ele>847.20001220703</ele>
        <time>2021-07-24T04:31:24.000Z</time>
      </trkpt>
      <trkpt lat="45.21339" lon="5.73027">
        <ele>847.59997558594</ele>
        <time>2021-07-24T04:31:25.000Z</time>
      </trkpt>
      <trkpt lat="45.2134" lon="5.73027">
        <ele>848.20001220703</ele>
        <time>2021-07-24T04:31:26.000Z</time>
      </trkpt>
      <trkpt lat="45.21342" lon="5.7303">
        <ele>848.59997558594</ele>
        <time>2021-07-24T04:31:29.000Z</time>
      </trkpt>
      <trkpt lat="45.21343" lon="5.73031">
        <ele>849.20001220703</ele>
        <time>2021-07-24T04:31:30.000Z</time>
      </trkpt>
      <trkpt lat="45.21345" lon="5.73032">
        <ele>849.79998779297</ele>
        <time>2021-07-24T04:31:32.000Z</time>
      </trkpt>
      <trkpt lat="45.21348" lon="5.73034">
        <ele>850.20001220703</ele>
        <time>2021-07-24T04:31:34.000Z</time>
      </trkpt>
      <trkpt lat="45.2135" lon="5.73037">
        <ele>851</ele>
        <time>2021-07-24T04:31:37.000Z</time>
      </trkpt>
      <trkpt lat="45.21352" lon="5.73041">
        <ele>851.20001220703</ele>
        <time>2021-07-24T04:31:39.000Z</time>
      </trkpt>
      <trkpt lat="45.21353" lon="5.73044">
        <ele>851.79998779297</ele>
        <time>2021-07-24T04:31:41.000Z</time>
      </trkpt>
      <trkpt lat="45.21354" lon="5.73045">
        <ele>852.40002441406</ele>
        <time>2021-07-24T04:31:42.000Z</time>
      </trkpt>
      <trkpt lat="45.21355" lon="5.73047">
        <ele>852.40002441406</ele>
        <time>2021-07-24T04:31:43.000Z</time>
      </trkpt>
      <trkpt lat="45.21355" lon="5.73049">
        <ele>852.40002441406</ele>
        <time>2021-07-24T04:31:44.000Z</time>
      </trkpt>
      <trkpt lat="45.21356" lon="5.73049">
        <ele>852.59997558594</ele>
        <time>2021-07-24T04:31:45.000Z</time>
      </trkpt>
      <trkpt lat="45.21357" lon="5.73054">
        <ele>853.79998779297</ele>
        <time>2021-07-24T04:31:47.000Z</time>
      </trkpt>
      <trkpt lat="45.21361" lon="5.73056">
        <ele>853.79998779297</ele>
        <time>2021-07-24T04:31:49.000Z</time>
      </trkpt>
      <trkpt lat="45.21364" lon="5.73061">
        <ele>854.59997558594</ele>
        <time>2021-07-24T04:31:52.000Z</time>
      </trkpt>
      <trkpt lat="45.21363" lon="5.73064">
        <ele>855.40002441406</ele>
        <time>2021-07-24T04:31:53.000Z</time>
      </trkpt>
      <trkpt lat="45.21363" lon="5.73065">
        <ele>855.40002441406</ele>
        <time>2021-07-24T04:31:54.000Z</time>
      </trkpt>
      <trkpt lat="45.21365" lon="5.73066">
        <ele>855.59997558594</ele>
        <time>2021-07-24T04:31:56.000Z</time>
      </trkpt>
      <trkpt lat="45.21367" lon="5.73069">
        <ele>855.59997558594</ele>
        <time>2021-07-24T04:31:58.000Z</time>
      </trkpt>
      <trkpt lat="45.21375" lon="5.73075">
        <ele>856</ele>
        <time>2021-07-24T04:32:02.000Z</time>
      </trkpt>
      <trkpt lat="45.21376" lon="5.73078">
        <ele>856</ele>
        <time>2021-07-24T04:32:03.000Z</time>
      </trkpt>
      <trkpt lat="45.21377" lon="5.7308">
        <ele>856.59997558594</ele>
        <time>2021-07-24T04:32:04.000Z</time>
      </trkpt>
      <trkpt lat="45.21379" lon="5.73082">
        <ele>856.59997558594</ele>
        <time>2021-07-24T04:32:05.000Z</time>
      </trkpt>
      <trkpt lat="45.21381" lon="5.73083">
        <ele>856.59997558594</ele>
        <time>2021-07-24T04:32:06.000Z</time>
      </trkpt>
      <trkpt lat="45.21383" lon="5.73088">
        <ele>856.59997558594</ele>
        <time>2021-07-24T04:32:08.000Z</time>
      </trkpt>
      <trkpt lat="45.21386" lon="5.73093">
        <ele>856.79998779297</ele>
        <time>2021-07-24T04:32:10.000Z</time>
      </trkpt>
      <trkpt lat="45.21391" lon="5.73098">
        <ele>857.20001220703</ele>
        <time>2021-07-24T04:32:13.000Z</time>
      </trkpt>
      <trkpt lat="45.21393" lon="5.731">
        <ele>857.59997558594</ele>
        <time>2021-07-24T04:32:14.000Z</time>
      </trkpt>
      <trkpt lat="45.21396" lon="5.73104">
        <ele>858</ele>
        <time>2021-07-24T04:32:16.000Z</time>
      </trkpt>
      <trkpt lat="45.21398" lon="5.73106">
        <ele>858</ele>
        <time>2021-07-24T04:32:17.000Z</time>
      </trkpt>
      <trkpt lat="45.21404" lon="5.73109">
        <ele>858.59997558594</ele>
        <time>2021-07-24T04:32:20.000Z</time>
      </trkpt>
      <trkpt lat="45.21406" lon="5.7311">
        <ele>859</ele>
        <time>2021-07-24T04:32:21.000Z</time>
      </trkpt>
      <trkpt lat="45.21412" lon="5.73119">
        <ele>859.20001220703</ele>
        <time>2021-07-24T04:32:25.000Z</time>
      </trkpt>
      <trkpt lat="45.21412" lon="5.73122">
        <ele>859.20001220703</ele>
        <time>2021-07-24T04:32:26.000Z</time>
      </trkpt>
      <trkpt lat="45.21414" lon="5.73127">
        <ele>859.79998779297</ele>
        <time>2021-07-24T04:32:28.000Z</time>
      </trkpt>
      <trkpt lat="45.21416" lon="5.73131">
        <ele>860</ele>
        <time>2021-07-24T04:32:30.000Z</time>
      </trkpt>
      <trkpt lat="45.21419" lon="5.73134">
        <ele>861.40002441406</ele>
        <time>2021-07-24T04:32:33.000Z</time>
      </trkpt>
      <trkpt lat="45.21422" lon="5.73136">
        <ele>861.40002441406</ele>
        <time>2021-07-24T04:32:35.000Z</time>
      </trkpt>
      <trkpt lat="45.21424" lon="5.7314">
        <ele>862</ele>
        <time>2021-07-24T04:32:38.000Z</time>
      </trkpt>
      <trkpt lat="45.21427" lon="5.73141">
        <ele>862.59997558594</ele>
        <time>2021-07-24T04:32:40.000Z</time>
      </trkpt>
      <trkpt lat="45.21431" lon="5.73142">
        <ele>862.79998779297</ele>
        <time>2021-07-24T04:32:42.000Z</time>
      </trkpt>
      <trkpt lat="45.21432" lon="5.73144">
        <ele>863</ele>
        <time>2021-07-24T04:32:44.000Z</time>
      </trkpt>
      <trkpt lat="45.21433" lon="5.73145">
        <ele>863</ele>
        <time>2021-07-24T04:32:45.000Z</time>
      </trkpt>
      <trkpt lat="45.21437" lon="5.73146">
        <ele>863.59997558594</ele>
        <time>2021-07-24T04:32:48.000Z</time>
      </trkpt>
      <trkpt lat="45.21439" lon="5.73146">
        <ele>863.79998779297</ele>
        <time>2021-07-24T04:32:50.000Z</time>
      </trkpt>
      <trkpt lat="45.21441" lon="5.73146">
        <ele>864.79998779297</ele>
        <time>2021-07-24T04:32:52.000Z</time>
      </trkpt>
      <trkpt lat="45.21444" lon="5.73149">
        <ele>866</ele>
        <time>2021-07-24T04:32:55.000Z</time>
      </trkpt>
      <trkpt lat="45.21446" lon="5.73154">
        <ele>867</ele>
        <time>2021-07-24T04:32:59.000Z</time>
      </trkpt>
      <trkpt lat="45.21448" lon="5.73155">
        <ele>867</ele>
        <time>2021-07-24T04:33:00.000Z</time>
      </trkpt>
      <trkpt lat="45.21451" lon="5.73157">
        <ele>867</ele>
        <time>2021-07-24T04:33:02.000Z</time>
      </trkpt>
      <trkpt lat="45.21451" lon="5.73159">
        <ele>867.40002441406</ele>
        <time>2021-07-24T04:33:03.000Z</time>
      </trkpt>
      <trkpt lat="45.21453" lon="5.73163">
        <ele>868.20001220703</ele>
        <time>2021-07-24T04:33:05.000Z</time>
      </trkpt>
      <trkpt lat="45.21454" lon="5.73164">
        <ele>868.40002441406</ele>
        <time>2021-07-24T04:33:06.000Z</time>
      </trkpt>
      <trkpt lat="45.21456" lon="5.73167">
        <ele>869</ele>
        <time>2021-07-24T04:33:08.000Z</time>
      </trkpt>
      <trkpt lat="45.21458" lon="5.73168">
        <ele>869.79998779297</ele>
        <time>2021-07-24T04:33:09.000Z</time>
      </trkpt>
      <trkpt lat="45.21459" lon="5.73173">
        <ele>870.59997558594</ele>
        <time>2021-07-24T04:33:12.000Z</time>
      </trkpt>
      <trkpt lat="45.2146" lon="5.73174">
        <ele>870.79998779297</ele>
        <time>2021-07-24T04:33:13.000Z</time>
      </trkpt>
      <trkpt lat="45.21463" lon="5.73175">
        <ele>871.20001220703</ele>
        <time>2021-07-24T04:33:15.000Z</time>
      </trkpt>
      <trkpt lat="45.21466" lon="5.73176">
        <ele>871.40002441406</ele>
        <time>2021-07-24T04:33:17.000Z</time>
      </trkpt>
      <trkpt lat="45.21468" lon="5.73176">
        <ele>872.40002441406</ele>
        <time>2021-07-24T04:33:18.000Z</time>
      </trkpt>
      <trkpt lat="45.21471" lon="5.73176">
        <ele>872.79998779297</ele>
        <time>2021-07-24T04:33:20.000Z</time>
      </trkpt>
      <trkpt lat="45.21473" lon="5.73177">
        <ele>873</ele>
        <time>2021-07-24T04:33:21.000Z</time>
      </trkpt>
      <trkpt lat="45.21474" lon="5.73178">
        <ele>873.79998779297</ele>
        <time>2021-07-24T04:33:22.000Z</time>
      </trkpt>
      <trkpt lat="45.21475" lon="5.73181">
        <ele>874</ele>
        <time>2021-07-24T04:33:24.000Z</time>
      </trkpt>
      <trkpt lat="45.21477" lon="5.73185">
        <ele>874.59997558594</ele>
        <time>2021-07-24T04:33:26.000Z</time>
      </trkpt>
      <trkpt lat="45.21478" lon="5.73191">
        <ele>875</ele>
        <time>2021-07-24T04:33:29.000Z</time>
      </trkpt>
      <trkpt lat="45.2148" lon="5.73197">
        <ele>875</ele>
        <time>2021-07-24T04:33:31.000Z</time>
      </trkpt>
      <trkpt lat="45.2148" lon="5.73204">
        <ele>875</ele>
        <time>2021-07-24T04:33:33.000Z</time>
      </trkpt>
      <trkpt lat="45.21482" lon="5.73212">
        <ele>875.40002441406</ele>
        <time>2021-07-24T04:33:36.000Z</time>
      </trkpt>
      <trkpt lat="45.21489" lon="5.73221">
        <ele>876</ele>
        <time>2021-07-24T04:33:41.000Z</time>
      </trkpt>
      <trkpt lat="45.2149" lon="5.73224">
        <ele>877</ele>
        <time>2021-07-24T04:33:43.000Z</time>
      </trkpt>
      <trkpt lat="45.21492" lon="5.73225">
        <ele>877</ele>
        <time>2021-07-24T04:33:44.000Z</time>
      </trkpt>
      <trkpt lat="45.21494" lon="5.73229">
        <ele>878</ele>
        <time>2021-07-24T04:33:46.000Z</time>
      </trkpt>
      <trkpt lat="45.21495" lon="5.73232">
        <ele>878.40002441406</ele>
        <time>2021-07-24T04:33:48.000Z</time>
      </trkpt>
      <trkpt lat="45.21498" lon="5.73233">
        <ele>879.20001220703</ele>
        <time>2021-07-24T04:33:50.000Z</time>
      </trkpt>
      <trkpt lat="45.21499" lon="5.73234">
        <ele>879.59997558594</ele>
        <time>2021-07-24T04:33:51.000Z</time>
      </trkpt>
      <trkpt lat="45.21502" lon="5.73235">
        <ele>880</ele>
        <time>2021-07-24T04:33:53.000Z</time>
      </trkpt>
      <trkpt lat="45.21502" lon="5.73236">
        <ele>880.20001220703</ele>
        <time>2021-07-24T04:33:54.000Z</time>
      </trkpt>
      <trkpt lat="45.21502" lon="5.73238">
        <ele>880.59997558594</ele>
        <time>2021-07-24T04:33:55.000Z</time>
      </trkpt>
      <trkpt lat="45.21505" lon="5.73244">
        <ele>881</ele>
        <time>2021-07-24T04:33:58.000Z</time>
      </trkpt>
      <trkpt lat="45.21508" lon="5.73247">
        <ele>881.40002441406</ele>
        <time>2021-07-24T04:34:00.000Z</time>
      </trkpt>
      <trkpt lat="45.2151" lon="5.73248">
        <ele>881.40002441406</ele>
        <time>2021-07-24T04:34:01.000Z</time>
      </trkpt>
      <trkpt lat="45.21511" lon="5.73253">
        <ele>882.20001220703</ele>
        <time>2021-07-24T04:34:03.000Z</time>
      </trkpt>
      <trkpt lat="45.21511" lon="5.73256">
        <ele>882.20001220703</ele>
        <time>2021-07-24T04:34:04.000Z</time>
      </trkpt>
      <trkpt lat="45.21511" lon="5.7326">
        <ele>882.40002441406</ele>
        <time>2021-07-24T04:34:05.000Z</time>
      </trkpt>
      <trkpt lat="45.21512" lon="5.73268">
        <ele>882.40002441406</ele>
        <time>2021-07-24T04:34:08.000Z</time>
      </trkpt>
      <trkpt lat="45.21512" lon="5.73275">
        <ele>882.20001220703</ele>
        <time>2021-07-24T04:34:10.000Z</time>
      </trkpt>
      <trkpt lat="45.21514" lon="5.73293">
        <ele>882.59997558594</ele>
        <time>2021-07-24T04:34:16.000Z</time>
      </trkpt>
      <trkpt lat="45.21515" lon="5.73295">
        <ele>882.59997558594</ele>
        <time>2021-07-24T04:34:17.000Z</time>
      </trkpt>
      <trkpt lat="45.21517" lon="5.73298">
        <ele>883.40002441406</ele>
        <time>2021-07-24T04:34:19.000Z</time>
      </trkpt>
      <trkpt lat="45.21517" lon="5.733">
        <ele>883.59997558594</ele>
        <time>2021-07-24T04:34:20.000Z</time>
      </trkpt>
      <trkpt lat="45.21517" lon="5.73302">
        <ele>884</ele>
        <time>2021-07-24T04:34:21.000Z</time>
      </trkpt>
      <trkpt lat="45.21518" lon="5.73304">
        <ele>884</ele>
        <time>2021-07-24T04:34:23.000Z</time>
      </trkpt>
      <trkpt lat="45.21518" lon="5.73305">
        <ele>884.20001220703</ele>
        <time>2021-07-24T04:34:24.000Z</time>
      </trkpt>
      <trkpt lat="45.21519" lon="5.73307">
        <ele>884.40002441406</ele>
        <time>2021-07-24T04:34:25.000Z</time>
      </trkpt>
      <trkpt lat="45.21519" lon="5.73309">
        <ele>884.59997558594</ele>
        <time>2021-07-24T04:34:26.000Z</time>
      </trkpt>
      <trkpt lat="45.21522" lon="5.73311">
        <ele>885.20001220703</ele>
        <time>2021-07-24T04:34:29.000Z</time>
      </trkpt>
      <trkpt lat="45.21523" lon="5.73312">
        <ele>885.40002441406</ele>
        <time>2021-07-24T04:34:30.000Z</time>
      </trkpt>
      <trkpt lat="45.21528" lon="5.7331">
        <ele>886</ele>
        <time>2021-07-24T04:34:32.000Z</time>
      </trkpt>
      <trkpt lat="45.21533" lon="5.73309">
        <ele>886.40002441406</ele>
        <time>2021-07-24T04:34:34.000Z</time>
      </trkpt>
      <trkpt lat="45.21534" lon="5.73309">
        <ele>886.59997558594</ele>
        <time>2021-07-24T04:34:35.000Z</time>
      </trkpt>
      <trkpt lat="45.21536" lon="5.7331">
        <ele>887.20001220703</ele>
        <time>2021-07-24T04:34:36.000Z</time>
      </trkpt>
      <trkpt lat="45.21538" lon="5.73311">
        <ele>887.40002441406</ele>
        <time>2021-07-24T04:34:38.000Z</time>
      </trkpt>
      <trkpt lat="45.21539" lon="5.73312">
        <ele>887.40002441406</ele>
        <time>2021-07-24T04:34:39.000Z</time>
      </trkpt>
      <trkpt lat="45.21541" lon="5.73312">
        <ele>888.40002441406</ele>
        <time>2021-07-24T04:34:41.000Z</time>
      </trkpt>
      <trkpt lat="45.21548" lon="5.7331">
        <ele>889.59997558594</ele>
        <time>2021-07-24T04:34:45.000Z</time>
      </trkpt>
      <trkpt lat="45.21552" lon="5.73308">
        <ele>890</ele>
        <time>2021-07-24T04:34:47.000Z</time>
      </trkpt>
      <trkpt lat="45.21556" lon="5.73307">
        <ele>890.20001220703</ele>
        <time>2021-07-24T04:34:49.000Z</time>
      </trkpt>
      <trkpt lat="45.21557" lon="5.73307">
        <ele>891</ele>
        <time>2021-07-24T04:34:50.000Z</time>
      </trkpt>
      <trkpt lat="45.21559" lon="5.73307">
        <ele>891.20001220703</ele>
        <time>2021-07-24T04:34:51.000Z</time>
      </trkpt>
      <trkpt lat="45.21568" lon="5.73306">
        <ele>892.40002441406</ele>
        <time>2021-07-24T04:34:55.000Z</time>
      </trkpt>
      <trkpt lat="45.21571" lon="5.7331">
        <ele>893</ele>
        <time>2021-07-24T04:34:58.000Z</time>
      </trkpt>
      <trkpt lat="45.21574" lon="5.73311">
        <ele>893.20001220703</ele>
        <time>2021-07-24T04:35:00.000Z</time>
      </trkpt>
      <trkpt lat="45.21576" lon="5.73315">
        <ele>893.59997558594</ele>
        <time>2021-07-24T04:35:02.000Z</time>
      </trkpt>
      <trkpt lat="45.21579" lon="5.73322">
        <ele>894.40002441406</ele>
        <time>2021-07-24T04:35:05.000Z</time>
      </trkpt>
      <trkpt lat="45.21581" lon="5.73327">
        <ele>894.59997558594</ele>
        <time>2021-07-24T04:35:07.000Z</time>
      </trkpt>
      <trkpt lat="45.21584" lon="5.73328">
        <ele>896</ele>
        <time>2021-07-24T04:35:09.000Z</time>
      </trkpt>
      <trkpt lat="45.21585" lon="5.73332">
        <ele>897</ele>
        <time>2021-07-24T04:35:11.000Z</time>
      </trkpt>
      <trkpt lat="45.21587" lon="5.73336">
        <ele>897.20001220703</ele>
        <time>2021-07-24T04:35:13.000Z</time>
      </trkpt>
      <trkpt lat="45.21587" lon="5.73338">
        <ele>897.20001220703</ele>
        <time>2021-07-24T04:35:14.000Z</time>
      </trkpt>
      <trkpt lat="45.21588" lon="5.73341">
        <ele>897.59997558594</ele>
        <time>2021-07-24T04:35:16.000Z</time>
      </trkpt>
      <trkpt lat="45.2159" lon="5.73344">
        <ele>898.20001220703</ele>
        <time>2021-07-24T04:35:18.000Z</time>
      </trkpt>
      <trkpt lat="45.21591" lon="5.73346">
        <ele>898.20001220703</ele>
        <time>2021-07-24T04:35:19.000Z</time>
      </trkpt>
      <trkpt lat="45.21597" lon="5.7335">
        <ele>899.20001220703</ele>
        <time>2021-07-24T04:35:23.000Z</time>
      </trkpt>
      <trkpt lat="45.216" lon="5.73352">
        <ele>900.20001220703</ele>
        <time>2021-07-24T04:35:25.000Z</time>
      </trkpt>
      <trkpt lat="45.21602" lon="5.73353">
        <ele>900.59997558594</ele>
        <time>2021-07-24T04:35:26.000Z</time>
      </trkpt>
      <trkpt lat="45.21603" lon="5.73354">
        <ele>900.79998779297</ele>
        <time>2021-07-24T04:35:27.000Z</time>
      </trkpt>
      <trkpt lat="45.21606" lon="5.73356">
        <ele>901.40002441406</ele>
        <time>2021-07-24T04:35:29.000Z</time>
      </trkpt>
      <trkpt lat="45.21608" lon="5.73357">
        <ele>901.59997558594</ele>
        <time>2021-07-24T04:35:30.000Z</time>
      </trkpt>
      <trkpt lat="45.21614" lon="5.73361">
        <ele>902.20001220703</ele>
        <time>2021-07-24T04:35:33.000Z</time>
      </trkpt>
      <trkpt lat="45.21615" lon="5.73362">
        <ele>902.79998779297</ele>
        <time>2021-07-24T04:35:34.000Z</time>
      </trkpt>
      <trkpt lat="45.21618" lon="5.73362">
        <ele>903.20001220703</ele>
        <time>2021-07-24T04:35:35.000Z</time>
      </trkpt>
      <trkpt lat="45.2162" lon="5.73363">
        <ele>903.20001220703</ele>
        <time>2021-07-24T04:35:36.000Z</time>
      </trkpt>
      <trkpt lat="45.21627" lon="5.73365">
        <ele>903.79998779297</ele>
        <time>2021-07-24T04:35:39.000Z</time>
      </trkpt>
      <trkpt lat="45.21629" lon="5.73364">
        <ele>904</ele>
        <time>2021-07-24T04:35:40.000Z</time>
      </trkpt>
      <trkpt lat="45.21632" lon="5.73364">
        <ele>904.40002441406</ele>
        <time>2021-07-24T04:35:41.000Z</time>
      </trkpt>
      <trkpt lat="45.21633" lon="5.73365">
        <ele>904.79998779297</ele>
        <time>2021-07-24T04:35:42.000Z</time>
      </trkpt>
      <trkpt lat="45.21636" lon="5.73369">
        <ele>905.40002441406</ele>
        <time>2021-07-24T04:35:44.000Z</time>
      </trkpt>
      <trkpt lat="45.21639" lon="5.73373">
        <ele>905.79998779297</ele>
        <time>2021-07-24T04:35:47.000Z</time>
      </trkpt>
      <trkpt lat="45.21641" lon="5.73373">
        <ele>906</ele>
        <time>2021-07-24T04:35:48.000Z</time>
      </trkpt>
      <trkpt lat="45.21642" lon="5.73375">
        <ele>906.20001220703</ele>
        <time>2021-07-24T04:35:49.000Z</time>
      </trkpt>
      <trkpt lat="45.21643" lon="5.73377">
        <ele>906.59997558594</ele>
        <time>2021-07-24T04:35:50.000Z</time>
      </trkpt>
      <trkpt lat="45.21645" lon="5.73378">
        <ele>906.59997558594</ele>
        <time>2021-07-24T04:35:51.000Z</time>
      </trkpt>
      <trkpt lat="45.21649" lon="5.73381">
        <ele>907.20001220703</ele>
        <time>2021-07-24T04:35:53.000Z</time>
      </trkpt>
      <trkpt lat="45.21654" lon="5.73384">
        <ele>907.20001220703</ele>
        <time>2021-07-24T04:35:55.000Z</time>
      </trkpt>
      <trkpt lat="45.21657" lon="5.7339">
        <ele>907.40002441406</ele>
        <time>2021-07-24T04:35:57.000Z</time>
      </trkpt>
      <trkpt lat="45.21659" lon="5.73393">
        <ele>907.79998779297</ele>
        <time>2021-07-24T04:35:58.000Z</time>
      </trkpt>
      <trkpt lat="45.21663" lon="5.73403">
        <ele>907.79998779297</ele>
        <time>2021-07-24T04:36:01.000Z</time>
      </trkpt>
      <trkpt lat="45.21673" lon="5.73417">
        <ele>908.79998779297</ele>
        <time>2021-07-24T04:36:06.000Z</time>
      </trkpt>
      <trkpt lat="45.21674" lon="5.7342">
        <ele>909.20001220703</ele>
        <time>2021-07-24T04:36:07.000Z</time>
      </trkpt>
      <trkpt lat="45.21676" lon="5.73427">
        <ele>909.20001220703</ele>
        <time>2021-07-24T04:36:09.000Z</time>
      </trkpt>
      <trkpt lat="45.21677" lon="5.73434">
        <ele>909.40002441406</ele>
        <time>2021-07-24T04:36:11.000Z</time>
      </trkpt>
      <trkpt lat="45.21679" lon="5.73436">
        <ele>909.59997558594</ele>
        <time>2021-07-24T04:36:12.000Z</time>
      </trkpt>
      <trkpt lat="45.21681" lon="5.73438">
        <ele>910.40002441406</ele>
        <time>2021-07-24T04:36:13.000Z</time>
      </trkpt>
      <trkpt lat="45.21686" lon="5.73445">
        <ele>910.79998779297</ele>
        <time>2021-07-24T04:36:16.000Z</time>
      </trkpt>
      <trkpt lat="45.21689" lon="5.73453">
        <ele>911.20001220703</ele>
        <time>2021-07-24T04:36:19.000Z</time>
      </trkpt>
      <trkpt lat="45.21688" lon="5.73457">
        <ele>911.79998779297</ele>
        <time>2021-07-24T04:36:20.000Z</time>
      </trkpt>
      <trkpt lat="45.21689" lon="5.7346">
        <ele>911.79998779297</ele>
        <time>2021-07-24T04:36:21.000Z</time>
      </trkpt>
      <trkpt lat="45.2169" lon="5.73465">
        <ele>912.40002441406</ele>
        <time>2021-07-24T04:36:24.000Z</time>
      </trkpt>
      <trkpt lat="45.21689" lon="5.73466">
        <ele>913</ele>
        <time>2021-07-24T04:36:28.000Z</time>
      </trkpt>
      <trkpt lat="45.21686" lon="5.73465">
        <ele>913.40002441406</ele>
        <time>2021-07-24T04:36:31.000Z</time>
      </trkpt>
      <trkpt lat="45.21685" lon="5.73464">
        <ele>914.20001220703</ele>
        <time>2021-07-24T04:36:32.000Z</time>
      </trkpt>
      <trkpt lat="45.21684" lon="5.73463">
        <ele>914.59997558594</ele>
        <time>2021-07-24T04:36:33.000Z</time>
      </trkpt>
      <trkpt lat="45.21677" lon="5.73459">
        <ele>915</ele>
        <time>2021-07-24T04:36:38.000Z</time>
      </trkpt>
      <trkpt lat="45.21677" lon="5.73452">
        <ele>915.40002441406</ele>
        <time>2021-07-24T04:36:41.000Z</time>
      </trkpt>
      <trkpt lat="45.21674" lon="5.73444">
        <ele>916.20001220703</ele>
        <time>2021-07-24T04:36:46.000Z</time>
      </trkpt>
      <trkpt lat="45.21673" lon="5.7344">
        <ele>916.79998779297</ele>
        <time>2021-07-24T04:36:48.000Z</time>
      </trkpt>
      <trkpt lat="45.21673" lon="5.73438">
        <ele>917.20001220703</ele>
        <time>2021-07-24T04:36:49.000Z</time>
      </trkpt>
      <trkpt lat="45.21674" lon="5.73436">
        <ele>918</ele>
        <time>2021-07-24T04:36:51.000Z</time>
      </trkpt>
      <trkpt lat="45.21674" lon="5.73435">
        <ele>918.40002441406</ele>
        <time>2021-07-24T04:36:52.000Z</time>
      </trkpt>
      <trkpt lat="45.21676" lon="5.73429">
        <ele>919.20001220703</ele>
        <time>2021-07-24T04:36:56.000Z</time>
      </trkpt>
      <trkpt lat="45.21677" lon="5.73422">
        <ele>919.59997558594</ele>
        <time>2021-07-24T04:36:59.000Z</time>
      </trkpt>
      <trkpt lat="45.21674" lon="5.73419">
        <ele>920.40002441406</ele>
        <time>2021-07-24T04:37:02.000Z</time>
      </trkpt>
      <trkpt lat="45.21672" lon="5.73414">
        <ele>921.59997558594</ele>
        <time>2021-07-24T04:37:06.000Z</time>
      </trkpt>
      <trkpt lat="45.21671" lon="5.7341">
        <ele>922.20001220703</ele>
        <time>2021-07-24T04:37:10.000Z</time>
      </trkpt>
      <trkpt lat="45.2167" lon="5.73409">
        <ele>923</ele>
        <time>2021-07-24T04:37:11.000Z</time>
      </trkpt>
      <trkpt lat="45.21669" lon="5.73407">
        <ele>923.40002441406</ele>
        <time>2021-07-24T04:37:14.000Z</time>
      </trkpt>
      <trkpt lat="45.21668" lon="5.73405">
        <ele>923.59997558594</ele>
        <time>2021-07-24T04:37:15.000Z</time>
      </trkpt>
      <trkpt lat="45.21669" lon="5.73401">
        <ele>924.20001220703</ele>
        <time>2021-07-24T04:37:17.000Z</time>
      </trkpt>
      <trkpt lat="45.21668" lon="5.73398">
        <ele>924.59997558594</ele>
        <time>2021-07-24T04:37:19.000Z</time>
      </trkpt>
      <trkpt lat="45.21666" lon="5.73397">
        <ele>925</ele>
        <time>2021-07-24T04:37:21.000Z</time>
      </trkpt>
      <trkpt lat="45.21664" lon="5.73395">
        <ele>925.40002441406</ele>
        <time>2021-07-24T04:37:23.000Z</time>
      </trkpt>
      <trkpt lat="45.21662" lon="5.73392">
        <ele>926.59997558594</ele>
        <time>2021-07-24T04:37:26.000Z</time>
      </trkpt>
      <trkpt lat="45.21662" lon="5.7339">
        <ele>926.59997558594</ele>
        <time>2021-07-24T04:37:27.000Z</time>
      </trkpt>
      <trkpt lat="45.21662" lon="5.73386">
        <ele>927.59997558594</ele>
        <time>2021-07-24T04:37:30.000Z</time>
      </trkpt>
      <trkpt lat="45.21663" lon="5.73385">
        <ele>927.79998779297</ele>
        <time>2021-07-24T04:37:31.000Z</time>
      </trkpt>
      <trkpt lat="45.2166" lon="5.73384">
        <ele>929</ele>
        <time>2021-07-24T04:37:34.000Z</time>
      </trkpt>
      <trkpt lat="45.21655" lon="5.73383">
        <ele>930.40002441406</ele>
        <time>2021-07-24T04:37:38.000Z</time>
      </trkpt>
      <trkpt lat="45.21654" lon="5.73382">
        <ele>930.40002441406</ele>
        <time>2021-07-24T04:37:39.000Z</time>
      </trkpt>
      <trkpt lat="45.21652" lon="5.7338">
        <ele>930.59997558594</ele>
        <time>2021-07-24T04:37:41.000Z</time>
      </trkpt>
      <trkpt lat="45.21651" lon="5.73377">
        <ele>931.59997558594</ele>
        <time>2021-07-24T04:37:43.000Z</time>
      </trkpt>
      <trkpt lat="45.2165" lon="5.73376">
        <ele>932</ele>
        <time>2021-07-24T04:37:44.000Z</time>
      </trkpt>
      <trkpt lat="45.21649" lon="5.73373">
        <ele>932.40002441406</ele>
        <time>2021-07-24T04:37:46.000Z</time>
      </trkpt>
      <trkpt lat="45.21649" lon="5.73372">
        <ele>932.40002441406</ele>
        <time>2021-07-24T04:37:47.000Z</time>
      </trkpt>
      <trkpt lat="45.21648" lon="5.7337">
        <ele>932.59997558594</ele>
        <time>2021-07-24T04:37:48.000Z</time>
      </trkpt>
      <trkpt lat="45.21648" lon="5.73368">
        <ele>933</ele>
        <time>2021-07-24T04:37:49.000Z</time>
      </trkpt>
      <trkpt lat="45.21647" lon="5.73366">
        <ele>933.59997558594</ele>
        <time>2021-07-24T04:37:50.000Z</time>
      </trkpt>
      <trkpt lat="45.21646" lon="5.73365">
        <ele>934</ele>
        <time>2021-07-24T04:37:51.000Z</time>
      </trkpt>
      <trkpt lat="45.21643" lon="5.73355">
        <ele>935.40002441406</ele>
        <time>2021-07-24T04:37:56.000Z</time>
      </trkpt>
      <trkpt lat="45.21643" lon="5.7335">
        <ele>935.59997558594</ele>
        <time>2021-07-24T04:37:58.000Z</time>
      </trkpt>
      <trkpt lat="45.21643" lon="5.7335">
        <ele>935.59997558594</ele>
        <time>2021-07-24T04:37:59.000Z</time>
      </trkpt>
      <trkpt lat="45.21639" lon="5.73348">
        <ele>936.79998779297</ele>
        <time>2021-07-24T04:38:02.000Z</time>
      </trkpt>
      <trkpt lat="45.21639" lon="5.73346">
        <ele>937.20001220703</ele>
        <time>2021-07-24T04:38:04.000Z</time>
      </trkpt>
      <trkpt lat="45.21639" lon="5.73345">
        <ele>937.59997558594</ele>
        <time>2021-07-24T04:38:06.000Z</time>
      </trkpt>
      <trkpt lat="45.21638" lon="5.73341">
        <ele>938.20001220703</ele>
        <time>2021-07-24T04:38:08.000Z</time>
      </trkpt>
      <trkpt lat="45.21638" lon="5.73339">
        <ele>938.40002441406</ele>
        <time>2021-07-24T04:38:09.000Z</time>
      </trkpt>
      <trkpt lat="45.21637" lon="5.73328">
        <ele>939.40002441406</ele>
        <time>2021-07-24T04:38:15.000Z</time>
      </trkpt>
      <trkpt lat="45.21636" lon="5.73324">
        <ele>940</ele>
        <time>2021-07-24T04:38:17.000Z</time>
      </trkpt>
      <trkpt lat="45.21636" lon="5.73319">
        <ele>940.20001220703</ele>
        <time>2021-07-24T04:38:19.000Z</time>
      </trkpt>
      <trkpt lat="45.21637" lon="5.73316">
        <ele>940.59997558594</ele>
        <time>2021-07-24T04:38:20.000Z</time>
      </trkpt>
      <trkpt lat="45.21637" lon="5.73314">
        <ele>940.79998779297</ele>
        <time>2021-07-24T04:38:21.000Z</time>
      </trkpt>
      <trkpt lat="45.21634" lon="5.73308">
        <ele>941.79998779297</ele>
        <time>2021-07-24T04:38:24.000Z</time>
      </trkpt>
      <trkpt lat="45.21633" lon="5.73299">
        <ele>942.59997558594</ele>
        <time>2021-07-24T04:38:27.000Z</time>
      </trkpt>
      <trkpt lat="45.21633" lon="5.73294">
        <ele>942.79998779297</ele>
        <time>2021-07-24T04:38:29.000Z</time>
      </trkpt>
      <trkpt lat="45.21632" lon="5.7329">
        <ele>943.59997558594</ele>
        <time>2021-07-24T04:38:31.000Z</time>
      </trkpt>
      <trkpt lat="45.21631" lon="5.73288">
        <ele>943.59997558594</ele>
        <time>2021-07-24T04:38:32.000Z</time>
      </trkpt>
      <trkpt lat="45.21629" lon="5.73285">
        <ele>943.79998779297</ele>
        <time>2021-07-24T04:38:34.000Z</time>
      </trkpt>
      <trkpt lat="45.21627" lon="5.73282">
        <ele>944.79998779297</ele>
        <time>2021-07-24T04:38:36.000Z</time>
      </trkpt>
      <trkpt lat="45.21622" lon="5.73277">
        <ele>945.20001220703</ele>
        <time>2021-07-24T04:38:40.000Z</time>
      </trkpt>
      <trkpt lat="45.21621" lon="5.73275">
        <ele>945.59997558594</ele>
        <time>2021-07-24T04:38:41.000Z</time>
      </trkpt>
      <trkpt lat="45.21617" lon="5.7327">
        <ele>945.79998779297</ele>
        <time>2021-07-24T04:38:45.000Z</time>
      </trkpt>
      <trkpt lat="45.21616" lon="5.73268">
        <ele>946.79998779297</ele>
        <time>2021-07-24T04:38:46.000Z</time>
      </trkpt>
      <trkpt lat="45.21615" lon="5.73267">
        <ele>947</ele>
        <time>2021-07-24T04:38:47.000Z</time>
      </trkpt>
      <trkpt lat="45.21614" lon="5.73267">
        <ele>947.20001220703</ele>
        <time>2021-07-24T04:38:48.000Z</time>
      </trkpt>
      <trkpt lat="45.21613" lon="5.73263">
        <ele>947.40002441406</ele>
        <time>2021-07-24T04:38:50.000Z</time>
      </trkpt>
      <trkpt lat="45.21613" lon="5.7326">
        <ele>948</ele>
        <time>2021-07-24T04:38:51.000Z</time>
      </trkpt>
      <trkpt lat="45.21611" lon="5.73258">
        <ele>948.40002441406</ele>
        <time>2021-07-24T04:38:53.000Z</time>
      </trkpt>
      <trkpt lat="45.2161" lon="5.73255">
        <ele>948.59997558594</ele>
        <time>2021-07-24T04:38:55.000Z</time>
      </trkpt>
      <trkpt lat="45.21609" lon="5.73254">
        <ele>949.79998779297</ele>
        <time>2021-07-24T04:38:56.000Z</time>
      </trkpt>
      <trkpt lat="45.21608" lon="5.73251">
        <ele>950</ele>
        <time>2021-07-24T04:38:58.000Z</time>
      </trkpt>
      <trkpt lat="45.21606" lon="5.73248">
        <ele>951.20001220703</ele>
        <time>2021-07-24T04:39:01.000Z</time>
      </trkpt>
      <trkpt lat="45.21605" lon="5.73247">
        <ele>951.59997558594</ele>
        <time>2021-07-24T04:39:02.000Z</time>
      </trkpt>
      <trkpt lat="45.21605" lon="5.73245">
        <ele>952</ele>
        <time>2021-07-24T04:39:04.000Z</time>
      </trkpt>
      <trkpt lat="45.21603" lon="5.73242">
        <ele>952.79998779297</ele>
        <time>2021-07-24T04:39:06.000Z</time>
      </trkpt>
      <trkpt lat="45.21602" lon="5.7324">
        <ele>953</ele>
        <time>2021-07-24T04:39:07.000Z</time>
      </trkpt>
      <trkpt lat="45.21602" lon="5.73237">
        <ele>953.79998779297</ele>
        <time>2021-07-24T04:39:09.000Z</time>
      </trkpt>
      <trkpt lat="45.21601" lon="5.73232">
        <ele>954.20001220703</ele>
        <time>2021-07-24T04:39:12.000Z</time>
      </trkpt>
      <trkpt lat="45.21599" lon="5.73231">
        <ele>954.79998779297</ele>
        <time>2021-07-24T04:39:14.000Z</time>
      </trkpt>
      <trkpt lat="45.21598" lon="5.7323">
        <ele>955.20001220703</ele>
        <time>2021-07-24T04:39:16.000Z</time>
      </trkpt>
      <trkpt lat="45.21597" lon="5.73227">
        <ele>955.40002441406</ele>
        <time>2021-07-24T04:39:18.000Z</time>
      </trkpt>
      <trkpt lat="45.21596" lon="5.73222">
        <ele>956.20001220703</ele>
        <time>2021-07-24T04:39:20.000Z</time>
      </trkpt>
      <trkpt lat="45.21595" lon="5.7322">
        <ele>956.59997558594</ele>
        <time>2021-07-24T04:39:22.000Z</time>
      </trkpt>
      <trkpt lat="45.21593" lon="5.73218">
        <ele>956.79998779297</ele>
        <time>2021-07-24T04:39:24.000Z</time>
      </trkpt>
      <trkpt lat="45.21592" lon="5.73217">
        <ele>956.79998779297</ele>
        <time>2021-07-24T04:39:25.000Z</time>
      </trkpt>
      <trkpt lat="45.2159" lon="5.73213">
        <ele>957.40002441406</ele>
        <time>2021-07-24T04:39:27.000Z</time>
      </trkpt>
      <trkpt lat="45.21588" lon="5.73208">
        <ele>957.79998779297</ele>
        <time>2021-07-24T04:39:30.000Z</time>
      </trkpt>
      <trkpt lat="45.21587" lon="5.73206">
        <ele>957.79998779297</ele>
        <time>2021-07-24T04:39:31.000Z</time>
      </trkpt>
      <trkpt lat="45.21583" lon="5.73203">
        <ele>958.59997558594</ele>
        <time>2021-07-24T04:39:34.000Z</time>
      </trkpt>
      <trkpt lat="45.21582" lon="5.73202">
        <ele>958.59997558594</ele>
        <time>2021-07-24T04:39:35.000Z</time>
      </trkpt>
      <trkpt lat="45.2158" lon="5.732">
        <ele>959.40002441406</ele>
        <time>2021-07-24T04:39:37.000Z</time>
      </trkpt>
      <trkpt lat="45.21578" lon="5.73198">
        <ele>959.59997558594</ele>
        <time>2021-07-24T04:39:39.000Z</time>
      </trkpt>
      <trkpt lat="45.21576" lon="5.73198">
        <ele>959.59997558594</ele>
        <time>2021-07-24T04:39:40.000Z</time>
      </trkpt>
      <trkpt lat="45.21575" lon="5.73197">
        <ele>959.79998779297</ele>
        <time>2021-07-24T04:39:41.000Z</time>
      </trkpt>
      <trkpt lat="45.21573" lon="5.73197">
        <ele>960.79998779297</ele>
        <time>2021-07-24T04:39:42.000Z</time>
      </trkpt>
      <trkpt lat="45.2157" lon="5.7319">
        <ele>961.20001220703</ele>
        <time>2021-07-24T04:39:46.000Z</time>
      </trkpt>
      <trkpt lat="45.21569" lon="5.73188">
        <ele>961.59997558594</ele>
        <time>2021-07-24T04:39:47.000Z</time>
      </trkpt>
      <trkpt lat="45.21569" lon="5.73186">
        <ele>962.40002441406</ele>
        <time>2021-07-24T04:39:48.000Z</time>
      </trkpt>
      <trkpt lat="45.21567" lon="5.73181">
        <ele>962.59997558594</ele>
        <time>2021-07-24T04:39:51.000Z</time>
      </trkpt>
      <trkpt lat="45.21567" lon="5.73179">
        <ele>963.59997558594</ele>
        <time>2021-07-24T04:39:53.000Z</time>
      </trkpt>
      <trkpt lat="45.21567" lon="5.73177">
        <ele>964</ele>
        <time>2021-07-24T04:39:54.000Z</time>
      </trkpt>
      <trkpt lat="45.21567" lon="5.73173">
        <ele>965</ele>
        <time>2021-07-24T04:39:57.000Z</time>
      </trkpt>
      <trkpt lat="45.21568" lon="5.73167">
        <ele>966</ele>
        <time>2021-07-24T04:40:00.000Z</time>
      </trkpt>
      <trkpt lat="45.21567" lon="5.73165">
        <ele>966.59997558594</ele>
        <time>2021-07-24T04:40:02.000Z</time>
      </trkpt>
      <trkpt lat="45.21569" lon="5.73161">
        <ele>967.79998779297</ele>
        <time>2021-07-24T04:40:06.000Z</time>
      </trkpt>
      <trkpt lat="45.21571" lon="5.7316">
        <ele>968.79998779297</ele>
        <time>2021-07-24T04:40:09.000Z</time>
      </trkpt>
      <trkpt lat="45.21571" lon="5.7316">
        <ele>969.20001220703</ele>
        <time>2021-07-24T04:40:10.000Z</time>
      </trkpt>
      <trkpt lat="45.21571" lon="5.73159">
        <ele>969.20001220703</ele>
        <time>2021-07-24T04:40:11.000Z</time>
      </trkpt>
      <trkpt lat="45.2157" lon="5.73157">
        <ele>970</ele>
        <time>2021-07-24T04:40:14.000Z</time>
      </trkpt>
      <trkpt lat="45.21569" lon="5.73155">
        <ele>971</ele>
        <time>2021-07-24T04:40:16.000Z</time>
      </trkpt>
      <trkpt lat="45.21569" lon="5.73154">
        <ele>971.20001220703</ele>
        <time>2021-07-24T04:40:17.000Z</time>
      </trkpt>
      <trkpt lat="45.21568" lon="5.73151">
        <ele>971.79998779297</ele>
        <time>2021-07-24T04:40:21.000Z</time>
      </trkpt>
      <trkpt lat="45.21568" lon="5.73151">
        <ele>972.59997558594</ele>
        <time>2021-07-24T04:40:22.000Z</time>
      </trkpt>
      <trkpt lat="45.21568" lon="5.7315">
        <ele>973.40002441406</ele>
        <time>2021-07-24T04:40:24.000Z</time>
      </trkpt>
      <trkpt lat="45.21569" lon="5.73149">
        <ele>973.59997558594</ele>
        <time>2021-07-24T04:40:25.000Z</time>
      </trkpt>
      <trkpt lat="45.2157" lon="5.73145">
        <ele>974.79998779297</ele>
        <time>2021-07-24T04:40:28.000Z</time>
      </trkpt>
      <trkpt lat="45.21571" lon="5.73144">
        <ele>975.20001220703</ele>
        <time>2021-07-24T04:40:30.000Z</time>
      </trkpt>
      <trkpt lat="45.21572" lon="5.73143">
        <ele>975.20001220703</ele>
        <time>2021-07-24T04:40:31.000Z</time>
      </trkpt>
      <trkpt lat="45.21573" lon="5.73142">
        <ele>976.20001220703</ele>
        <time>2021-07-24T04:40:32.000Z</time>
      </trkpt>
      <trkpt lat="45.21572" lon="5.73137">
        <ele>977.20001220703</ele>
        <time>2021-07-24T04:40:37.000Z</time>
      </trkpt>
      <trkpt lat="45.21572" lon="5.73136">
        <ele>978.40002441406</ele>
        <time>2021-07-24T04:40:39.000Z</time>
      </trkpt>
      <trkpt lat="45.21573" lon="5.73135">
        <ele>978.59997558594</ele>
        <time>2021-07-24T04:40:40.000Z</time>
      </trkpt>
      <trkpt lat="45.21575" lon="5.73132">
        <ele>979.20001220703</ele>
        <time>2021-07-24T04:40:43.000Z</time>
      </trkpt>
      <trkpt lat="45.21575" lon="5.7313">
        <ele>979.59997558594</ele>
        <time>2021-07-24T04:40:44.000Z</time>
      </trkpt>
      <trkpt lat="45.21576" lon="5.73126">
        <ele>980.79998779297</ele>
        <time>2021-07-24T04:40:46.000Z</time>
      </trkpt>
      <trkpt lat="45.21578" lon="5.73123">
        <ele>981.20001220703</ele>
        <time>2021-07-24T04:40:49.000Z</time>
      </trkpt>
      <trkpt lat="45.21579" lon="5.73121">
        <ele>981.20001220703</ele>
        <time>2021-07-24T04:40:50.000Z</time>
      </trkpt>
      <trkpt lat="45.21581" lon="5.73119">
        <ele>982.40002441406</ele>
        <time>2021-07-24T04:40:51.000Z</time>
      </trkpt>
      <trkpt lat="45.21586" lon="5.73113">
        <ele>983.59997558594</ele>
        <time>2021-07-24T04:40:56.000Z</time>
      </trkpt>
      <trkpt lat="45.21588" lon="5.73113">
        <ele>983.79998779297</ele>
        <time>2021-07-24T04:40:57.000Z</time>
      </trkpt>
      <trkpt lat="45.21592" lon="5.73114">
        <ele>984.40002441406</ele>
        <time>2021-07-24T04:41:00.000Z</time>
      </trkpt>
      <trkpt lat="45.21595" lon="5.73116">
        <ele>984.59997558594</ele>
        <time>2021-07-24T04:41:03.000Z</time>
      </trkpt>
      <trkpt lat="45.21601" lon="5.73117">
        <ele>985.79998779297</ele>
        <time>2021-07-24T04:41:06.000Z</time>
      </trkpt>
      <trkpt lat="45.21605" lon="5.73115">
        <ele>985.79998779297</ele>
        <time>2021-07-24T04:41:08.000Z</time>
      </trkpt>
      <trkpt lat="45.21606" lon="5.73115">
        <ele>986</ele>
        <time>2021-07-24T04:41:09.000Z</time>
      </trkpt>
      <trkpt lat="45.21608" lon="5.73115">
        <ele>987</ele>
        <time>2021-07-24T04:41:11.000Z</time>
      </trkpt>
      <trkpt lat="45.21616" lon="5.73118">
        <ele>988.40002441406</ele>
        <time>2021-07-24T04:41:17.000Z</time>
      </trkpt>
      <trkpt lat="45.21617" lon="5.73118">
        <ele>988.59997558594</ele>
        <time>2021-07-24T04:41:18.000Z</time>
      </trkpt>
      <trkpt lat="45.21622" lon="5.7312">
        <ele>989.79998779297</ele>
        <time>2021-07-24T04:41:22.000Z</time>
      </trkpt>
      <trkpt lat="45.21622" lon="5.73122">
        <ele>990</ele>
        <time>2021-07-24T04:41:23.000Z</time>
      </trkpt>
      <trkpt lat="45.21624" lon="5.73122">
        <ele>990.20001220703</ele>
        <time>2021-07-24T04:41:25.000Z</time>
      </trkpt>
      <trkpt lat="45.21627" lon="5.73122">
        <ele>990.79998779297</ele>
        <time>2021-07-24T04:41:27.000Z</time>
      </trkpt>
      <trkpt lat="45.21629" lon="5.73123">
        <ele>991.59997558594</ele>
        <time>2021-07-24T04:41:29.000Z</time>
      </trkpt>
      <trkpt lat="45.21631" lon="5.73123">
        <ele>992.40002441406</ele>
        <time>2021-07-24T04:41:31.000Z</time>
      </trkpt>
      <trkpt lat="45.21632" lon="5.73122">
        <ele>992.40002441406</ele>
        <time>2021-07-24T04:41:33.000Z</time>
      </trkpt>
      <trkpt lat="45.21634" lon="5.73121">
        <ele>993.79998779297</ele>
        <time>2021-07-24T04:41:36.000Z</time>
      </trkpt>
      <trkpt lat="45.21634" lon="5.73121">
        <ele>994</ele>
        <time>2021-07-24T04:41:37.000Z</time>
      </trkpt>
      <trkpt lat="45.21636" lon="5.73121">
        <ele>994.20001220703</ele>
        <time>2021-07-24T04:41:39.000Z</time>
      </trkpt>
      <trkpt lat="45.21639" lon="5.7312">
        <ele>995</ele>
        <time>2021-07-24T04:41:41.000Z</time>
      </trkpt>
      <trkpt lat="45.2164" lon="5.7312">
        <ele>995.40002441406</ele>
        <time>2021-07-24T04:41:42.000Z</time>
      </trkpt>
      <trkpt lat="45.21641" lon="5.73121">
        <ele>995.79998779297</ele>
        <time>2021-07-24T04:41:43.000Z</time>
      </trkpt>
      <trkpt lat="45.21643" lon="5.73122">
        <ele>996</ele>
        <time>2021-07-24T04:41:44.000Z</time>
      </trkpt>
      <trkpt lat="45.2165" lon="5.73124">
        <ele>997</ele>
        <time>2021-07-24T04:41:48.000Z</time>
      </trkpt>
      <trkpt lat="45.21653" lon="5.73124">
        <ele>998</ele>
        <time>2021-07-24T04:41:51.000Z</time>
      </trkpt>
      <trkpt lat="45.21656" lon="5.73123">
        <ele>999.20001220703</ele>
        <time>2021-07-24T04:41:54.000Z</time>
      </trkpt>
      <trkpt lat="45.21659" lon="5.73123">
        <ele>999.79998779297</ele>
        <time>2021-07-24T04:41:56.000Z</time>
      </trkpt>
      <trkpt lat="45.2166" lon="5.73124">
        <ele>1000.4000244141</ele>
        <time>2021-07-24T04:41:58.000Z</time>
      </trkpt>
      <trkpt lat="45.21662" lon="5.73126">
        <ele>1000.799987793</ele>
        <time>2021-07-24T04:42:01.000Z</time>
      </trkpt>
      <trkpt lat="45.21663" lon="5.73126">
        <ele>1001.200012207</ele>
        <time>2021-07-24T04:42:02.000Z</time>
      </trkpt>
      <trkpt lat="45.21663" lon="5.73126">
        <ele>1001.4000244141</ele>
        <time>2021-07-24T04:42:03.000Z</time>
      </trkpt>
      <trkpt lat="45.21665" lon="5.73127">
        <ele>1001.799987793</ele>
        <time>2021-07-24T04:42:04.000Z</time>
      </trkpt>
      <trkpt lat="45.21668" lon="5.73129">
        <ele>1002.5999755859</ele>
        <time>2021-07-24T04:42:06.000Z</time>
      </trkpt>
      <trkpt lat="45.21669" lon="5.73131">
        <ele>1002.5999755859</ele>
        <time>2021-07-24T04:42:07.000Z</time>
      </trkpt>
      <trkpt lat="45.2167" lon="5.73134">
        <ele>1003.5999755859</ele>
        <time>2021-07-24T04:42:09.000Z</time>
      </trkpt>
      <trkpt lat="45.21671" lon="5.73135">
        <ele>1003.5999755859</ele>
        <time>2021-07-24T04:42:10.000Z</time>
      </trkpt>
      <trkpt lat="45.21671" lon="5.73138">
        <ele>1004.200012207</ele>
        <time>2021-07-24T04:42:12.000Z</time>
      </trkpt>
      <trkpt lat="45.21672" lon="5.73139">
        <ele>1004.799987793</ele>
        <time>2021-07-24T04:42:13.000Z</time>
      </trkpt>
      <trkpt lat="45.21672" lon="5.73143">
        <ele>1005.200012207</ele>
        <time>2021-07-24T04:42:15.000Z</time>
      </trkpt>
      <trkpt lat="45.21673" lon="5.73145">
        <ele>1006.200012207</ele>
        <time>2021-07-24T04:42:17.000Z</time>
      </trkpt>
      <trkpt lat="45.21675" lon="5.7315">
        <ele>1007.5999755859</ele>
        <time>2021-07-24T04:42:21.000Z</time>
      </trkpt>
      <trkpt lat="45.21677" lon="5.73152">
        <ele>1008.5999755859</ele>
        <time>2021-07-24T04:42:24.000Z</time>
      </trkpt>
      <trkpt lat="45.21677" lon="5.73153">
        <ele>1008.799987793</ele>
        <time>2021-07-24T04:42:25.000Z</time>
      </trkpt>
      <trkpt lat="45.21681" lon="5.7316">
        <ele>1010.5999755859</ele>
        <time>2021-07-24T04:42:31.000Z</time>
      </trkpt>
      <trkpt lat="45.21682" lon="5.73161">
        <ele>1011</ele>
        <time>2021-07-24T04:42:32.000Z</time>
      </trkpt>
      <trkpt lat="45.21684" lon="5.73163">
        <ele>1011.799987793</ele>
        <time>2021-07-24T04:42:34.000Z</time>
      </trkpt>
      <trkpt lat="45.21689" lon="5.73169">
        <ele>1012.799987793</ele>
        <time>2021-07-24T04:42:40.000Z</time>
      </trkpt>
      <trkpt lat="45.21694" lon="5.73177">
        <ele>1014</ele>
        <time>2021-07-24T04:42:45.000Z</time>
      </trkpt>
      <trkpt lat="45.21697" lon="5.73182">
        <ele>1014.4000244141</ele>
        <time>2021-07-24T04:42:48.000Z</time>
      </trkpt>
      <trkpt lat="45.21704" lon="5.7319">
        <ele>1014.799987793</ele>
        <time>2021-07-24T04:42:54.000Z</time>
      </trkpt>
      <trkpt lat="45.21705" lon="5.73192">
        <ele>1015</ele>
        <time>2021-07-24T04:42:55.000Z</time>
      </trkpt>
      <trkpt lat="45.21712" lon="5.73203">
        <ele>1015.4000244141</ele>
        <time>2021-07-24T04:43:00.000Z</time>
      </trkpt>
      <trkpt lat="45.21718" lon="5.73209">
        <ele>1016.200012207</ele>
        <time>2021-07-24T04:43:04.000Z</time>
      </trkpt>
      <trkpt lat="45.2172" lon="5.73212">
        <ele>1017.200012207</ele>
        <time>2021-07-24T04:43:08.000Z</time>
      </trkpt>
      <trkpt lat="45.21723" lon="5.73211">
        <ele>1018.4000244141</ele>
        <time>2021-07-24T04:43:11.000Z</time>
      </trkpt>
      <trkpt lat="45.21726" lon="5.73209">
        <ele>1019.5999755859</ele>
        <time>2021-07-24T04:43:15.000Z</time>
      </trkpt>
      <trkpt lat="45.21726" lon="5.73208">
        <ele>1020</ele>
        <time>2021-07-24T04:43:16.000Z</time>
      </trkpt>
      <trkpt lat="45.21732" lon="5.73202">
        <ele>1021</ele>
        <time>2021-07-24T04:43:23.000Z</time>
      </trkpt>
      <trkpt lat="45.21738" lon="5.73198">
        <ele>1020.5999755859</ele>
        <time>2021-07-24T04:43:28.000Z</time>
      </trkpt>
      <trkpt lat="45.2174" lon="5.73196">
        <ele>1020.5999755859</ele>
        <time>2021-07-24T04:43:30.000Z</time>
      </trkpt>
      <trkpt lat="45.21742" lon="5.73196">
        <ele>1019.799987793</ele>
        <time>2021-07-24T04:43:32.000Z</time>
      </trkpt>
      <trkpt lat="45.21744" lon="5.73196">
        <ele>1019.799987793</ele>
        <time>2021-07-24T04:43:33.000Z</time>
      </trkpt>
      <trkpt lat="45.21749" lon="5.73198">
        <ele>1020.200012207</ele>
        <time>2021-07-24T04:43:36.000Z</time>
      </trkpt>
      <trkpt lat="45.21751" lon="5.732">
        <ele>1020.200012207</ele>
        <time>2021-07-24T04:43:38.000Z</time>
      </trkpt>
      <trkpt lat="45.21752" lon="5.73203">
        <ele>1020.799987793</ele>
        <time>2021-07-24T04:43:40.000Z</time>
      </trkpt>
      <trkpt lat="45.21753" lon="5.73204">
        <ele>1021.200012207</ele>
        <time>2021-07-24T04:43:41.000Z</time>
      </trkpt>
      <trkpt lat="45.21754" lon="5.73209">
        <ele>1022</ele>
        <time>2021-07-24T04:43:44.000Z</time>
      </trkpt>
      <trkpt lat="45.21755" lon="5.7321">
        <ele>1022.5999755859</ele>
        <time>2021-07-24T04:43:45.000Z</time>
      </trkpt>
      <trkpt lat="45.21758" lon="5.7321">
        <ele>1022.5999755859</ele>
        <time>2021-07-24T04:43:47.000Z</time>
      </trkpt>
      <trkpt lat="45.2176" lon="5.73212">
        <ele>1022.799987793</ele>
        <time>2021-07-24T04:43:49.000Z</time>
      </trkpt>
      <trkpt lat="45.21761" lon="5.73214">
        <ele>1022.799987793</ele>
        <time>2021-07-24T04:43:51.000Z</time>
      </trkpt>
      <trkpt lat="45.21761" lon="5.73216">
        <ele>1023</ele>
        <time>2021-07-24T04:43:52.000Z</time>
      </trkpt>
      <trkpt lat="45.21763" lon="5.73219">
        <ele>1023</ele>
        <time>2021-07-24T04:43:54.000Z</time>
      </trkpt>
      <trkpt lat="45.21767" lon="5.73221">
        <ele>1023.200012207</ele>
        <time>2021-07-24T04:43:57.000Z</time>
      </trkpt>
      <trkpt lat="45.21774" lon="5.73231">
        <ele>1023.4000244141</ele>
        <time>2021-07-24T04:44:02.000Z</time>
      </trkpt>
      <trkpt lat="45.21776" lon="5.73236">
        <ele>1023.799987793</ele>
        <time>2021-07-24T04:44:04.000Z</time>
      </trkpt>
      <trkpt lat="45.21777" lon="5.7324">
        <ele>1024.5999755859</ele>
        <time>2021-07-24T04:44:06.000Z</time>
      </trkpt>
      <trkpt lat="45.21778" lon="5.73243">
        <ele>1025</ele>
        <time>2021-07-24T04:44:08.000Z</time>
      </trkpt>
      <trkpt lat="45.21778" lon="5.73244">
        <ele>1025.1999511719</ele>
        <time>2021-07-24T04:44:09.000Z</time>
      </trkpt>
      <trkpt lat="45.21779" lon="5.73245">
        <ele>1025.8000488281</ele>
        <time>2021-07-24T04:44:10.000Z</time>
      </trkpt>
      <trkpt lat="45.2178" lon="5.73246">
        <ele>1026</ele>
        <time>2021-07-24T04:44:11.000Z</time>
      </trkpt>
      <trkpt lat="45.21779" lon="5.73248">
        <ele>1026.1999511719</ele>
        <time>2021-07-24T04:44:12.000Z</time>
      </trkpt>
      <trkpt lat="45.21778" lon="5.73253">
        <ele>1027</ele>
        <time>2021-07-24T04:44:14.000Z</time>
      </trkpt>
      <trkpt lat="45.21775" lon="5.73259">
        <ele>1027.1999511719</ele>
        <time>2021-07-24T04:44:17.000Z</time>
      </trkpt>
      <trkpt lat="45.21775" lon="5.73262">
        <ele>1027.1999511719</ele>
        <time>2021-07-24T04:44:18.000Z</time>
      </trkpt>
      <trkpt lat="45.2178" lon="5.73268">
        <ele>1028.1999511719</ele>
        <time>2021-07-24T04:44:22.000Z</time>
      </trkpt>
      <trkpt lat="45.21782" lon="5.73268">
        <ele>1028.1999511719</ele>
        <time>2021-07-24T04:44:23.000Z</time>
      </trkpt>
      <trkpt lat="45.21784" lon="5.73269">
        <ele>1029.4000244141</ele>
        <time>2021-07-24T04:44:25.000Z</time>
      </trkpt>
      <trkpt lat="45.21789" lon="5.73274">
        <ele>1031</ele>
        <time>2021-07-24T04:44:29.000Z</time>
      </trkpt>
      <trkpt lat="45.21794" lon="5.73282">
        <ele>1032</ele>
        <time>2021-07-24T04:44:33.000Z</time>
      </trkpt>
      <trkpt lat="45.21797" lon="5.73284">
        <ele>1032.4000244141</ele>
        <time>2021-07-24T04:44:35.000Z</time>
      </trkpt>
      <trkpt lat="45.218" lon="5.73286">
        <ele>1032.5999755859</ele>
        <time>2021-07-24T04:44:37.000Z</time>
      </trkpt>
      <trkpt lat="45.21804" lon="5.73289">
        <ele>1033</ele>
        <time>2021-07-24T04:44:39.000Z</time>
      </trkpt>
      <trkpt lat="45.21808" lon="5.73295">
        <ele>1034</ele>
        <time>2021-07-24T04:44:42.000Z</time>
      </trkpt>
      <trkpt lat="45.21809" lon="5.73296">
        <ele>1034</ele>
        <time>2021-07-24T04:44:43.000Z</time>
      </trkpt>
      <trkpt lat="45.21819" lon="5.73303">
        <ele>1035.5999755859</ele>
        <time>2021-07-24T04:44:49.000Z</time>
      </trkpt>
      <trkpt lat="45.21821" lon="5.73306">
        <ele>1036</ele>
        <time>2021-07-24T04:44:51.000Z</time>
      </trkpt>
      <trkpt lat="45.21823" lon="5.73308">
        <ele>1037.5999755859</ele>
        <time>2021-07-24T04:44:52.000Z</time>
      </trkpt>
      <trkpt lat="45.21831" lon="5.73315">
        <ele>1038.5999755859</ele>
        <time>2021-07-24T04:44:57.000Z</time>
      </trkpt>
      <trkpt lat="45.21833" lon="5.73316">
        <ele>1038.5999755859</ele>
        <time>2021-07-24T04:44:58.000Z</time>
      </trkpt>
      <trkpt lat="45.21842" lon="5.73325">
        <ele>1039.1999511719</ele>
        <time>2021-07-24T04:45:03.000Z</time>
      </trkpt>
      <trkpt lat="45.21845" lon="5.73331">
        <ele>1039.4000244141</ele>
        <time>2021-07-24T04:45:08.000Z</time>
      </trkpt>
      <trkpt lat="45.21844" lon="5.73334">
        <ele>1039.5999755859</ele>
        <time>2021-07-24T04:45:11.000Z</time>
      </trkpt>
      <trkpt lat="45.21844" lon="5.73333">
        <ele>1039.1999511719</ele>
        <time>2021-07-24T04:45:13.000Z</time>
      </trkpt>
      <trkpt lat="45.21844" lon="5.73333">
        <ele>1039.1999511719</ele>
        <time>2021-07-24T04:45:15.000Z</time>
      </trkpt>
      <trkpt lat="45.21846" lon="5.73335">
        <ele>1039.1999511719</ele>
        <time>2021-07-24T04:45:21.000Z</time>
      </trkpt>
      <trkpt lat="45.21846" lon="5.73335">
        <ele>1039.1999511719</ele>
        <time>2021-07-24T04:45:23.000Z</time>
      </trkpt>
      <trkpt lat="45.21846" lon="5.73335">
        <ele>1039.1999511719</ele>
        <time>2021-07-24T04:45:31.000Z</time>
      </trkpt>
      <trkpt lat="45.21846" lon="5.73335">
        <ele>1039.1999511719</ele>
        <time>2021-07-24T04:45:35.000Z</time>
      </trkpt>
      <trkpt lat="45.21846" lon="5.73336">
        <ele>1039.1999511719</ele>
        <time>2021-07-24T04:45:38.000Z</time>
      </trkpt>
      <trkpt lat="45.21846" lon="5.73336">
        <ele>1039.1999511719</ele>
        <time>2021-07-24T04:45:40.000Z</time>
      </trkpt>
      <trkpt lat="45.21844" lon="5.73342">
        <ele>1039.1999511719</ele>
        <time>2021-07-24T04:45:42.000Z</time>
      </trkpt>
      <trkpt lat="45.21844" lon="5.73344">
        <ele>1039</ele>
        <time>2021-07-24T04:45:43.000Z</time>
      </trkpt>
      <trkpt lat="45.21844" lon="5.73355">
        <ele>1039.4000244141</ele>
        <time>2021-07-24T04:45:49.000Z</time>
      </trkpt>
      <trkpt lat="45.21844" lon="5.73355">
        <ele>1039.4000244141</ele>
        <time>2021-07-24T04:45:57.000Z</time>
      </trkpt>
      <trkpt lat="45.21843" lon="5.73355">
        <ele>1039.4000244141</ele>
        <time>2021-07-24T04:46:00.000Z</time>
      </trkpt>
      <trkpt lat="45.21843" lon="5.73355">
        <ele>1039.4000244141</ele>
        <time>2021-07-24T04:46:02.000Z</time>
      </trkpt>
      <trkpt lat="45.21843" lon="5.73355">
        <ele>1039.4000244141</ele>
        <time>2021-07-24T04:46:05.000Z</time>
      </trkpt>
      <trkpt lat="45.21843" lon="5.73355">
        <ele>1039.4000244141</ele>
        <time>2021-07-24T04:46:07.000Z</time>
      </trkpt>
      <trkpt lat="45.21843" lon="5.73355">
        <ele>1039.5999755859</ele>
        <time>2021-07-24T04:46:11.000Z</time>
      </trkpt>
      <trkpt lat="45.21843" lon="5.73357">
        <ele>1039.4000244141</ele>
        <time>2021-07-24T04:46:22.000Z</time>
      </trkpt>
      <trkpt lat="45.21843" lon="5.73357">
        <ele>1039.4000244141</ele>
        <time>2021-07-24T04:46:25.000Z</time>
      </trkpt>
      <trkpt lat="45.21843" lon="5.73357">
        <ele>1039.4000244141</ele>
        <time>2021-07-24T04:46:28.000Z</time>
      </trkpt>
      <trkpt lat="45.21843" lon="5.73357">
        <ele>1039.4000244141</ele>
        <time>2021-07-24T04:46:32.000Z</time>
      </trkpt>
      <trkpt lat="45.21843" lon="5.73357">
        <ele>1039.4000244141</ele>
        <time>2021-07-24T04:46:34.000Z</time>
      </trkpt>
      <trkpt lat="45.21843" lon="5.73358">
        <ele>1039.4000244141</ele>
        <time>2021-07-24T04:46:42.000Z</time>
      </trkpt>
      <trkpt lat="45.21844" lon="5.73349">
        <ele>1039.4000244141</ele>
        <time>2021-07-24T04:46:50.000Z</time>
      </trkpt>
      <trkpt lat="45.21844" lon="5.73344">
        <ele>1039.4000244141</ele>
        <time>2021-07-24T04:46:56.000Z</time>
      </trkpt>
      <trkpt lat="45.21844" lon="5.73344">
        <ele>1039.5999755859</ele>
        <time>2021-07-24T04:46:57.000Z</time>
      </trkpt>
      <trkpt lat="45.21846" lon="5.73341">
        <ele>1039.5999755859</ele>
        <time>2021-07-24T04:47:05.000Z</time>
      </trkpt>
      <trkpt lat="45.21846" lon="5.73341">
        <ele>1039.5999755859</ele>
        <time>2021-07-24T04:47:06.000Z</time>
      </trkpt>
      <trkpt lat="45.21846" lon="5.73341">
        <ele>1039.5999755859</ele>
        <time>2021-07-24T04:47:08.000Z</time>
      </trkpt>
      <trkpt lat="45.21846" lon="5.73343">
        <ele>1038.5999755859</ele>
        <time>2021-07-24T04:47:25.000Z</time>
      </trkpt>
      <trkpt lat="45.21848" lon="5.73343">
        <ele>1037</ele>
        <time>2021-07-24T04:47:31.000Z</time>
      </trkpt>
      <trkpt lat="45.21854" lon="5.73346">
        <ele>1036</ele>
        <time>2021-07-24T04:47:36.000Z</time>
      </trkpt>
      <trkpt lat="45.21856" lon="5.73347">
        <ele>1036</ele>
        <time>2021-07-24T04:47:37.000Z</time>
      </trkpt>
      <trkpt lat="45.21863" lon="5.73348">
        <ele>1035</ele>
        <time>2021-07-24T04:47:41.000Z</time>
      </trkpt>
      <trkpt lat="45.21865" lon="5.73349">
        <ele>1034.8000488281</ele>
        <time>2021-07-24T04:47:42.000Z</time>
      </trkpt>
      <trkpt lat="45.21866" lon="5.7335">
        <ele>1034.5999755859</ele>
        <time>2021-07-24T04:47:43.000Z</time>
      </trkpt>
      <trkpt lat="45.21869" lon="5.73355">
        <ele>1033.8000488281</ele>
        <time>2021-07-24T04:47:47.000Z</time>
      </trkpt>
      <trkpt lat="45.2187" lon="5.73355">
        <ele>1033.1999511719</ele>
        <time>2021-07-24T04:47:48.000Z</time>
      </trkpt>
      <trkpt lat="45.21873" lon="5.73356">
        <ele>1032.8000488281</ele>
        <time>2021-07-24T04:47:52.000Z</time>
      </trkpt>
      <trkpt lat="45.21877" lon="5.73356">
        <ele>1031.8000488281</ele>
        <time>2021-07-24T04:47:55.000Z</time>
      </trkpt>
      <trkpt lat="45.2188" lon="5.73357">
        <ele>1031.8000488281</ele>
        <time>2021-07-24T04:47:57.000Z</time>
      </trkpt>
      <trkpt lat="45.21884" lon="5.73361">
        <ele>1032.4000244141</ele>
        <time>2021-07-24T04:48:01.000Z</time>
      </trkpt>
      <trkpt lat="45.21886" lon="5.73362">
        <ele>1032.5999755859</ele>
        <time>2021-07-24T04:48:02.000Z</time>
      </trkpt>
      <trkpt lat="45.21887" lon="5.73364">
        <ele>1032.5999755859</ele>
        <time>2021-07-24T04:48:03.000Z</time>
      </trkpt>
      <trkpt lat="45.21888" lon="5.73365">
        <ele>1032.8000488281</ele>
        <time>2021-07-24T04:48:04.000Z</time>
      </trkpt>
      <trkpt lat="45.21889" lon="5.73368">
        <ele>1033</ele>
        <time>2021-07-24T04:48:06.000Z</time>
      </trkpt>
      <trkpt lat="45.21892" lon="5.7337">
        <ele>1032.8000488281</ele>
        <time>2021-07-24T04:48:08.000Z</time>
      </trkpt>
      <trkpt lat="45.219" lon="5.73371">
        <ele>1033.1999511719</ele>
        <time>2021-07-24T04:48:13.000Z</time>
      </trkpt>
      <trkpt lat="45.21903" lon="5.73372">
        <ele>1033.4000244141</ele>
        <time>2021-07-24T04:48:15.000Z</time>
      </trkpt>
      <trkpt lat="45.21905" lon="5.73372">
        <ele>1033.1999511719</ele>
        <time>2021-07-24T04:48:16.000Z</time>
      </trkpt>
      <trkpt lat="45.21907" lon="5.73372">
        <ele>1033.4000244141</ele>
        <time>2021-07-24T04:48:18.000Z</time>
      </trkpt>
      <trkpt lat="45.2191" lon="5.73374">
        <ele>1033.4000244141</ele>
        <time>2021-07-24T04:48:21.000Z</time>
      </trkpt>
      <trkpt lat="45.21911" lon="5.73374">
        <ele>1033</ele>
        <time>2021-07-24T04:48:22.000Z</time>
      </trkpt>
      <trkpt lat="45.21913" lon="5.73375">
        <ele>1033</ele>
        <time>2021-07-24T04:48:23.000Z</time>
      </trkpt>
      <trkpt lat="45.21917" lon="5.73379">
        <ele>1032.4000244141</ele>
        <time>2021-07-24T04:48:26.000Z</time>
      </trkpt>
      <trkpt lat="45.21919" lon="5.73382">
        <ele>1031.8000488281</ele>
        <time>2021-07-24T04:48:28.000Z</time>
      </trkpt>
      <trkpt lat="45.21921" lon="5.73383">
        <ele>1031.8000488281</ele>
        <time>2021-07-24T04:48:29.000Z</time>
      </trkpt>
      <trkpt lat="45.21928" lon="5.73393">
        <ele>1032.4000244141</ele>
        <time>2021-07-24T04:48:35.000Z</time>
      </trkpt>
      <trkpt lat="45.21929" lon="5.73395">
        <ele>1032.5999755859</ele>
        <time>2021-07-24T04:48:36.000Z</time>
      </trkpt>
      <trkpt lat="45.2193" lon="5.73398">
        <ele>1033</ele>
        <time>2021-07-24T04:48:37.000Z</time>
      </trkpt>
      <trkpt lat="45.2193" lon="5.734">
        <ele>1033</ele>
        <time>2021-07-24T04:48:38.000Z</time>
      </trkpt>
      <trkpt lat="45.21932" lon="5.73402">
        <ele>1033.4000244141</ele>
        <time>2021-07-24T04:48:40.000Z</time>
      </trkpt>
      <trkpt lat="45.21933" lon="5.73404">
        <ele>1033.5999755859</ele>
        <time>2021-07-24T04:48:42.000Z</time>
      </trkpt>
      <trkpt lat="45.21936" lon="5.73408">
        <ele>1034.1999511719</ele>
        <time>2021-07-24T04:48:44.000Z</time>
      </trkpt>
      <trkpt lat="45.21943" lon="5.73412">
        <ele>1034.8000488281</ele>
        <time>2021-07-24T04:48:49.000Z</time>
      </trkpt>
      <trkpt lat="45.21948" lon="5.73412">
        <ele>1035.1999511719</ele>
        <time>2021-07-24T04:48:52.000Z</time>
      </trkpt>
      <trkpt lat="45.21956" lon="5.73412">
        <ele>1035.8000488281</ele>
        <time>2021-07-24T04:48:56.000Z</time>
      </trkpt>
      <trkpt lat="45.21958" lon="5.73412">
        <ele>1035.8000488281</ele>
        <time>2021-07-24T04:48:57.000Z</time>
      </trkpt>
      <trkpt lat="45.21965" lon="5.73416">
        <ele>1036.4000244141</ele>
        <time>2021-07-24T04:49:01.000Z</time>
      </trkpt>
      <trkpt lat="45.21968" lon="5.73417">
        <ele>1036.5999755859</ele>
        <time>2021-07-24T04:49:03.000Z</time>
      </trkpt>
      <trkpt lat="45.21978" lon="5.73419">
        <ele>1037.5999755859</ele>
        <time>2021-07-24T04:49:08.000Z</time>
      </trkpt>
      <trkpt lat="45.21981" lon="5.7342">
        <ele>1037.8000488281</ele>
        <time>2021-07-24T04:49:10.000Z</time>
      </trkpt>
      <trkpt lat="45.21985" lon="5.73423">
        <ele>1039</ele>
        <time>2021-07-24T04:49:13.000Z</time>
      </trkpt>
      <trkpt lat="45.21991" lon="5.73424">
        <ele>1039.4000244141</ele>
        <time>2021-07-24T04:49:16.000Z</time>
      </trkpt>
      <trkpt lat="45.22002" lon="5.73427">
        <ele>1040.1999511719</ele>
        <time>2021-07-24T04:49:20.000Z</time>
      </trkpt>
      <trkpt lat="45.22004" lon="5.73426">
        <ele>1040.1999511719</ele>
        <time>2021-07-24T04:49:21.000Z</time>
      </trkpt>
      <trkpt lat="45.22012" lon="5.73428">
        <ele>1039</ele>
        <time>2021-07-24T04:49:25.000Z</time>
      </trkpt>
      <trkpt lat="45.22016" lon="5.73433">
        <ele>1038.8000488281</ele>
        <time>2021-07-24T04:49:27.000Z</time>
      </trkpt>
      <trkpt lat="45.22023" lon="5.73439">
        <ele>1037.8000488281</ele>
        <time>2021-07-24T04:49:31.000Z</time>
      </trkpt>
      <trkpt lat="45.22027" lon="5.73442">
        <ele>1037.5999755859</ele>
        <time>2021-07-24T04:49:34.000Z</time>
      </trkpt>
      <trkpt lat="45.22029" lon="5.73446">
        <ele>1037</ele>
        <time>2021-07-24T04:49:36.000Z</time>
      </trkpt>
      <trkpt lat="45.22029" lon="5.73449">
        <ele>1036.5999755859</ele>
        <time>2021-07-24T04:49:37.000Z</time>
      </trkpt>
      <trkpt lat="45.22029" lon="5.73451">
        <ele>1036.8000488281</ele>
        <time>2021-07-24T04:49:38.000Z</time>
      </trkpt>
      <trkpt lat="45.2203" lon="5.73451">
        <ele>1036.5999755859</ele>
        <time>2021-07-24T04:49:39.000Z</time>
      </trkpt>
      <trkpt lat="45.22031" lon="5.73451">
        <ele>1036.4000244141</ele>
        <time>2021-07-24T04:49:40.000Z</time>
      </trkpt>
      <trkpt lat="45.22034" lon="5.73452">
        <ele>1035.5999755859</ele>
        <time>2021-07-24T04:49:42.000Z</time>
      </trkpt>
      <trkpt lat="45.22037" lon="5.73454">
        <ele>1034.4000244141</ele>
        <time>2021-07-24T04:49:44.000Z</time>
      </trkpt>
      <trkpt lat="45.22039" lon="5.73455">
        <ele>1033.8000488281</ele>
        <time>2021-07-24T04:49:46.000Z</time>
      </trkpt>
      <trkpt lat="45.22044" lon="5.7346">
        <ele>1033</ele>
        <time>2021-07-24T04:49:49.000Z</time>
      </trkpt>
      <trkpt lat="45.22049" lon="5.73465">
        <ele>1031.8000488281</ele>
        <time>2021-07-24T04:49:52.000Z</time>
      </trkpt>
      <trkpt lat="45.22049" lon="5.73466">
        <ele>1031.8000488281</ele>
        <time>2021-07-24T04:49:53.000Z</time>
      </trkpt>
      <trkpt lat="45.22054" lon="5.73467">
        <ele>1031</ele>
        <time>2021-07-24T04:49:56.000Z</time>
      </trkpt>
      <trkpt lat="45.22056" lon="5.73468">
        <ele>1030.8000488281</ele>
        <time>2021-07-24T04:49:57.000Z</time>
      </trkpt>
      <trkpt lat="45.22057" lon="5.73469">
        <ele>1030.5999755859</ele>
        <time>2021-07-24T04:49:58.000Z</time>
      </trkpt>
      <trkpt lat="45.2206" lon="5.73473">
        <ele>1030.1999511719</ele>
        <time>2021-07-24T04:50:01.000Z</time>
      </trkpt>
      <trkpt lat="45.22062" lon="5.73473">
        <ele>1029.5999755859</ele>
        <time>2021-07-24T04:50:02.000Z</time>
      </trkpt>
      <trkpt lat="45.22063" lon="5.73474">
        <ele>1029.5999755859</ele>
        <time>2021-07-24T04:50:03.000Z</time>
      </trkpt>
      <trkpt lat="45.2207" lon="5.73476">
        <ele>1028.8000488281</ele>
        <time>2021-07-24T04:50:07.000Z</time>
      </trkpt>
      <trkpt lat="45.22074" lon="5.73479">
        <ele>1028</ele>
        <time>2021-07-24T04:50:09.000Z</time>
      </trkpt>
      <trkpt lat="45.2208" lon="5.73484">
        <ele>1027.1999511719</ele>
        <time>2021-07-24T04:50:13.000Z</time>
      </trkpt>
      <trkpt lat="45.22082" lon="5.73486">
        <ele>1027</ele>
        <time>2021-07-24T04:50:14.000Z</time>
      </trkpt>
      <trkpt lat="45.22086" lon="5.73488">
        <ele>1026.8000488281</ele>
        <time>2021-07-24T04:50:16.000Z</time>
      </trkpt>
      <trkpt lat="45.22087" lon="5.73489">
        <ele>1026</ele>
        <time>2021-07-24T04:50:17.000Z</time>
      </trkpt>
      <trkpt lat="45.22094" lon="5.73493">
        <ele>1024.8000488281</ele>
        <time>2021-07-24T04:50:21.000Z</time>
      </trkpt>
      <trkpt lat="45.22098" lon="5.73495">
        <ele>1024.4000244141</ele>
        <time>2021-07-24T04:50:24.000Z</time>
      </trkpt>
      <trkpt lat="45.22099" lon="5.73495">
        <ele>1023.799987793</ele>
        <time>2021-07-24T04:50:25.000Z</time>
      </trkpt>
      <trkpt lat="45.22102" lon="5.73497">
        <ele>1022.5999755859</ele>
        <time>2021-07-24T04:50:29.000Z</time>
      </trkpt>
      <trkpt lat="45.22103" lon="5.73498">
        <ele>1022.4000244141</ele>
        <time>2021-07-24T04:50:30.000Z</time>
      </trkpt>
      <trkpt lat="45.22105" lon="5.73499">
        <ele>1021.5999755859</ele>
        <time>2021-07-24T04:50:31.000Z</time>
      </trkpt>
      <trkpt lat="45.22106" lon="5.735">
        <ele>1021.4000244141</ele>
        <time>2021-07-24T04:50:32.000Z</time>
      </trkpt>
      <trkpt lat="45.22109" lon="5.73503">
        <ele>1020.799987793</ele>
        <time>2021-07-24T04:50:34.000Z</time>
      </trkpt>
      <trkpt lat="45.2211" lon="5.73504">
        <ele>1020.4000244141</ele>
        <time>2021-07-24T04:50:35.000Z</time>
      </trkpt>
      <trkpt lat="45.22115" lon="5.73504">
        <ele>1019.4000244141</ele>
        <time>2021-07-24T04:50:38.000Z</time>
      </trkpt>
      <trkpt lat="45.22116" lon="5.73504">
        <ele>1019.4000244141</ele>
        <time>2021-07-24T04:50:39.000Z</time>
      </trkpt>
      <trkpt lat="45.22117" lon="5.73505">
        <ele>1019.200012207</ele>
        <time>2021-07-24T04:50:40.000Z</time>
      </trkpt>
      <trkpt lat="45.2212" lon="5.7351">
        <ele>1018.799987793</ele>
        <time>2021-07-24T04:50:42.000Z</time>
      </trkpt>
      <trkpt lat="45.2212" lon="5.73516">
        <ele>1017.799987793</ele>
        <time>2021-07-24T04:50:44.000Z</time>
      </trkpt>
      <trkpt lat="45.22122" lon="5.73523">
        <ele>1016.799987793</ele>
        <time>2021-07-24T04:50:47.000Z</time>
      </trkpt>
      <trkpt lat="45.22123" lon="5.73525">
        <ele>1016</ele>
        <time>2021-07-24T04:50:48.000Z</time>
      </trkpt>
      <trkpt lat="45.22125" lon="5.73526">
        <ele>1015</ele>
        <time>2021-07-24T04:50:49.000Z</time>
      </trkpt>
      <trkpt lat="45.22128" lon="5.73528">
        <ele>1014.4000244141</ele>
        <time>2021-07-24T04:50:51.000Z</time>
      </trkpt>
      <trkpt lat="45.22129" lon="5.73528">
        <ele>1013.799987793</ele>
        <time>2021-07-24T04:50:52.000Z</time>
      </trkpt>
      <trkpt lat="45.22133" lon="5.73529">
        <ele>1013.4000244141</ele>
        <time>2021-07-24T04:50:55.000Z</time>
      </trkpt>
      <trkpt lat="45.22136" lon="5.73531">
        <ele>1012</ele>
        <time>2021-07-24T04:50:57.000Z</time>
      </trkpt>
      <trkpt lat="45.2214" lon="5.73533">
        <ele>1010.799987793</ele>
        <time>2021-07-24T04:51:00.000Z</time>
      </trkpt>
      <trkpt lat="45.22144" lon="5.73534">
        <ele>1010.4000244141</ele>
        <time>2021-07-24T04:51:02.000Z</time>
      </trkpt>
      <trkpt lat="45.22147" lon="5.73536">
        <ele>1009.799987793</ele>
        <time>2021-07-24T04:51:04.000Z</time>
      </trkpt>
      <trkpt lat="45.22148" lon="5.73536">
        <ele>1009.799987793</ele>
        <time>2021-07-24T04:51:05.000Z</time>
      </trkpt>
      <trkpt lat="45.22155" lon="5.73539">
        <ele>1008.799987793</ele>
        <time>2021-07-24T04:51:09.000Z</time>
      </trkpt>
      <trkpt lat="45.22159" lon="5.73541">
        <ele>1007.5999755859</ele>
        <time>2021-07-24T04:51:12.000Z</time>
      </trkpt>
      <trkpt lat="45.22162" lon="5.73542">
        <ele>1006.799987793</ele>
        <time>2021-07-24T04:51:15.000Z</time>
      </trkpt>
      <trkpt lat="45.22163" lon="5.73543">
        <ele>1006.4000244141</ele>
        <time>2021-07-24T04:51:16.000Z</time>
      </trkpt>
      <trkpt lat="45.22166" lon="5.73548">
        <ele>1005.4000244141</ele>
        <time>2021-07-24T04:51:19.000Z</time>
      </trkpt>
      <trkpt lat="45.22167" lon="5.73549">
        <ele>1005.200012207</ele>
        <time>2021-07-24T04:51:20.000Z</time>
      </trkpt>
      <trkpt lat="45.22172" lon="5.73556">
        <ele>1004.200012207</ele>
        <time>2021-07-24T04:51:24.000Z</time>
      </trkpt>
      <trkpt lat="45.22173" lon="5.73557">
        <ele>1003.799987793</ele>
        <time>2021-07-24T04:51:25.000Z</time>
      </trkpt>
      <trkpt lat="45.22175" lon="5.73558">
        <ele>1003.799987793</ele>
        <time>2021-07-24T04:51:27.000Z</time>
      </trkpt>
      <trkpt lat="45.22181" lon="5.73566">
        <ele>1003.4000244141</ele>
        <time>2021-07-24T04:51:30.000Z</time>
      </trkpt>
      <trkpt lat="45.22183" lon="5.73569">
        <ele>1002.4000244141</ele>
        <time>2021-07-24T04:51:31.000Z</time>
      </trkpt>
      <trkpt lat="45.22184" lon="5.7357">
        <ele>1001.799987793</ele>
        <time>2021-07-24T04:51:32.000Z</time>
      </trkpt>
      <trkpt lat="45.22186" lon="5.73572">
        <ele>1001.799987793</ele>
        <time>2021-07-24T04:51:33.000Z</time>
      </trkpt>
      <trkpt lat="45.22188" lon="5.73575">
        <ele>1001.200012207</ele>
        <time>2021-07-24T04:51:35.000Z</time>
      </trkpt>
      <trkpt lat="45.22189" lon="5.73577">
        <ele>1001</ele>
        <time>2021-07-24T04:51:36.000Z</time>
      </trkpt>
      <trkpt lat="45.22193" lon="5.73581">
        <ele>1000.5999755859</ele>
        <time>2021-07-24T04:51:39.000Z</time>
      </trkpt>
      <trkpt lat="45.22196" lon="5.73586">
        <ele>1000.4000244141</ele>
        <time>2021-07-24T04:51:42.000Z</time>
      </trkpt>
      <trkpt lat="45.22197" lon="5.73588">
        <ele>999.79998779297</ele>
        <time>2021-07-24T04:51:43.000Z</time>
      </trkpt>
      <trkpt lat="45.22199" lon="5.73589">
        <ele>999.40002441406</ele>
        <time>2021-07-24T04:51:45.000Z</time>
      </trkpt>
      <trkpt lat="45.22208" lon="5.73597">
        <ele>998.40002441406</ele>
        <time>2021-07-24T04:51:51.000Z</time>
      </trkpt>
      <trkpt lat="45.22211" lon="5.73602">
        <ele>998.20001220703</ele>
        <time>2021-07-24T04:51:53.000Z</time>
      </trkpt>
      <trkpt lat="45.22218" lon="5.73608">
        <ele>997.79998779297</ele>
        <time>2021-07-24T04:51:57.000Z</time>
      </trkpt>
      <trkpt lat="45.22221" lon="5.73609">
        <ele>997.79998779297</ele>
        <time>2021-07-24T04:51:58.000Z</time>
      </trkpt>
      <trkpt lat="45.22225" lon="5.73612">
        <ele>997.20001220703</ele>
        <time>2021-07-24T04:52:00.000Z</time>
      </trkpt>
      <trkpt lat="45.22228" lon="5.73615">
        <ele>997.20001220703</ele>
        <time>2021-07-24T04:52:02.000Z</time>
      </trkpt>
      <trkpt lat="45.22237" lon="5.73621">
        <ele>996</ele>
        <time>2021-07-24T04:52:07.000Z</time>
      </trkpt>
      <trkpt lat="45.22247" lon="5.73627">
        <ele>994.79998779297</ele>
        <time>2021-07-24T04:52:11.000Z</time>
      </trkpt>
      <trkpt lat="45.22251" lon="5.7363">
        <ele>994.40002441406</ele>
        <time>2021-07-24T04:52:13.000Z</time>
      </trkpt>
      <trkpt lat="45.22253" lon="5.73632">
        <ele>993.79998779297</ele>
        <time>2021-07-24T04:52:14.000Z</time>
      </trkpt>
      <trkpt lat="45.22257" lon="5.73636">
        <ele>992.59997558594</ele>
        <time>2021-07-24T04:52:17.000Z</time>
      </trkpt>
      <trkpt lat="45.22258" lon="5.73637">
        <ele>992.59997558594</ele>
        <time>2021-07-24T04:52:18.000Z</time>
      </trkpt>
      <trkpt lat="45.22262" lon="5.73637">
        <ele>991.79998779297</ele>
        <time>2021-07-24T04:52:21.000Z</time>
      </trkpt>
      <trkpt lat="45.22263" lon="5.73637">
        <ele>991.20001220703</ele>
        <time>2021-07-24T04:52:22.000Z</time>
      </trkpt>
      <trkpt lat="45.22271" lon="5.73639">
        <ele>989.79998779297</ele>
        <time>2021-07-24T04:52:26.000Z</time>
      </trkpt>
      <trkpt lat="45.22274" lon="5.73638">
        <ele>989</ele>
        <time>2021-07-24T04:52:28.000Z</time>
      </trkpt>
      <trkpt lat="45.22276" lon="5.73638">
        <ele>989</ele>
        <time>2021-07-24T04:52:29.000Z</time>
      </trkpt>
      <trkpt lat="45.2228" lon="5.73638">
        <ele>988.40002441406</ele>
        <time>2021-07-24T04:52:31.000Z</time>
      </trkpt>
      <trkpt lat="45.22284" lon="5.73641">
        <ele>987.40002441406</ele>
        <time>2021-07-24T04:52:33.000Z</time>
      </trkpt>
      <trkpt lat="45.22284" lon="5.73642">
        <ele>987</ele>
        <time>2021-07-24T04:52:34.000Z</time>
      </trkpt>
      <trkpt lat="45.22287" lon="5.73643">
        <ele>986.20001220703</ele>
        <time>2021-07-24T04:52:36.000Z</time>
      </trkpt>
      <trkpt lat="45.22292" lon="5.73645">
        <ele>985.79998779297</ele>
        <time>2021-07-24T04:52:40.000Z</time>
      </trkpt>
      <trkpt lat="45.22294" lon="5.73645">
        <ele>985</ele>
        <time>2021-07-24T04:52:41.000Z</time>
      </trkpt>
      <trkpt lat="45.22295" lon="5.73645">
        <ele>984.59997558594</ele>
        <time>2021-07-24T04:52:42.000Z</time>
      </trkpt>
      <trkpt lat="45.22296" lon="5.73645">
        <ele>984.40002441406</ele>
        <time>2021-07-24T04:52:43.000Z</time>
      </trkpt>
      <trkpt lat="45.22302" lon="5.73644">
        <ele>983.20001220703</ele>
        <time>2021-07-24T04:52:46.000Z</time>
      </trkpt>
      <trkpt lat="45.22309" lon="5.73643">
        <ele>982.59997558594</ele>
        <time>2021-07-24T04:52:49.000Z</time>
      </trkpt>
      <trkpt lat="45.22311" lon="5.73644">
        <ele>982.59997558594</ele>
        <time>2021-07-24T04:52:50.000Z</time>
      </trkpt>
      <trkpt lat="45.22314" lon="5.73645">
        <ele>982.20001220703</ele>
        <time>2021-07-24T04:52:52.000Z</time>
      </trkpt>
      <trkpt lat="45.22316" lon="5.73646">
        <ele>981.40002441406</ele>
        <time>2021-07-24T04:52:53.000Z</time>
      </trkpt>
      <trkpt lat="45.22317" lon="5.73646">
        <ele>980.59997558594</ele>
        <time>2021-07-24T04:52:54.000Z</time>
      </trkpt>
      <trkpt lat="45.22321" lon="5.73647">
        <ele>980</ele>
        <time>2021-07-24T04:52:57.000Z</time>
      </trkpt>
      <trkpt lat="45.22323" lon="5.73648">
        <ele>979.59997558594</ele>
        <time>2021-07-24T04:52:58.000Z</time>
      </trkpt>
      <trkpt lat="45.22332" lon="5.73648">
        <ele>978.40002441406</ele>
        <time>2021-07-24T04:53:02.000Z</time>
      </trkpt>
      <trkpt lat="45.22344" lon="5.7365">
        <ele>978.40002441406</ele>
        <time>2021-07-24T04:53:07.000Z</time>
      </trkpt>
      <trkpt lat="45.2235" lon="5.73652">
        <ele>978.40002441406</ele>
        <time>2021-07-24T04:53:09.000Z</time>
      </trkpt>
      <trkpt lat="45.22358" lon="5.73658">
        <ele>977.40002441406</ele>
        <time>2021-07-24T04:53:12.000Z</time>
      </trkpt>
      <trkpt lat="45.2236" lon="5.73658">
        <ele>977.20001220703</ele>
        <time>2021-07-24T04:53:13.000Z</time>
      </trkpt>
      <trkpt lat="45.22365" lon="5.73663">
        <ele>976.59997558594</ele>
        <time>2021-07-24T04:53:16.000Z</time>
      </trkpt>
      <trkpt lat="45.22373" lon="5.73667">
        <ele>976.59997558594</ele>
        <time>2021-07-24T04:53:19.000Z</time>
      </trkpt>
      <trkpt lat="45.22375" lon="5.73668">
        <ele>976.59997558594</ele>
        <time>2021-07-24T04:53:20.000Z</time>
      </trkpt>
      <trkpt lat="45.22377" lon="5.7367">
        <ele>976.59997558594</ele>
        <time>2021-07-24T04:53:21.000Z</time>
      </trkpt>
      <trkpt lat="45.22384" lon="5.73672">
        <ele>977.20001220703</ele>
        <time>2021-07-24T04:53:26.000Z</time>
      </trkpt>
      <trkpt lat="45.22386" lon="5.73674">
        <ele>977.59997558594</ele>
        <time>2021-07-24T04:53:28.000Z</time>
      </trkpt>
      <trkpt lat="45.22395" lon="5.73678">
        <ele>979</ele>
        <time>2021-07-24T04:53:33.000Z</time>
      </trkpt>
      <trkpt lat="45.22398" lon="5.73678">
        <ele>979.59997558594</ele>
        <time>2021-07-24T04:53:36.000Z</time>
      </trkpt>
      <trkpt lat="45.22399" lon="5.73679">
        <ele>980.20001220703</ele>
        <time>2021-07-24T04:53:38.000Z</time>
      </trkpt>
      <trkpt lat="45.22404" lon="5.73677">
        <ele>981.40002441406</ele>
        <time>2021-07-24T04:53:41.000Z</time>
      </trkpt>
      <trkpt lat="45.22405" lon="5.73678">
        <ele>981.40002441406</ele>
        <time>2021-07-24T04:53:42.000Z</time>
      </trkpt>
      <trkpt lat="45.22405" lon="5.73679">
        <ele>982.40002441406</ele>
        <time>2021-07-24T04:53:44.000Z</time>
      </trkpt>
      <trkpt lat="45.22408" lon="5.73682">
        <ele>983.20001220703</ele>
        <time>2021-07-24T04:53:47.000Z</time>
      </trkpt>
      <trkpt lat="45.2241" lon="5.73683">
        <ele>983.40002441406</ele>
        <time>2021-07-24T04:53:48.000Z</time>
      </trkpt>
      <trkpt lat="45.22412" lon="5.73685">
        <ele>984.20001220703</ele>
        <time>2021-07-24T04:53:49.000Z</time>
      </trkpt>
      <trkpt lat="45.22413" lon="5.73687">
        <ele>984.59997558594</ele>
        <time>2021-07-24T04:53:50.000Z</time>
      </trkpt>
      <trkpt lat="45.22414" lon="5.73688">
        <ele>984.79998779297</ele>
        <time>2021-07-24T04:53:51.000Z</time>
      </trkpt>
      <trkpt lat="45.22414" lon="5.73689">
        <ele>984.79998779297</ele>
        <time>2021-07-24T04:53:52.000Z</time>
      </trkpt>
      <trkpt lat="45.22417" lon="5.73689">
        <ele>985.20001220703</ele>
        <time>2021-07-24T04:53:54.000Z</time>
      </trkpt>
      <trkpt lat="45.22418" lon="5.73689">
        <ele>986</ele>
        <time>2021-07-24T04:53:55.000Z</time>
      </trkpt>
      <trkpt lat="45.2242" lon="5.73689">
        <ele>986</ele>
        <time>2021-07-24T04:53:56.000Z</time>
      </trkpt>
      <trkpt lat="45.22421" lon="5.73688">
        <ele>987</ele>
        <time>2021-07-24T04:53:58.000Z</time>
      </trkpt>
      <trkpt lat="45.22422" lon="5.73688">
        <ele>987.20001220703</ele>
        <time>2021-07-24T04:54:00.000Z</time>
      </trkpt>
      <trkpt lat="45.22423" lon="5.73688">
        <ele>987.20001220703</ele>
        <time>2021-07-24T04:54:01.000Z</time>
      </trkpt>
      <trkpt lat="45.22427" lon="5.73688">
        <ele>987.59997558594</ele>
        <time>2021-07-24T04:54:03.000Z</time>
      </trkpt>
      <trkpt lat="45.22429" lon="5.73689">
        <ele>988.40002441406</ele>
        <time>2021-07-24T04:54:05.000Z</time>
      </trkpt>
      <trkpt lat="45.22437" lon="5.7369">
        <ele>988.79998779297</ele>
        <time>2021-07-24T04:54:09.000Z</time>
      </trkpt>
      <trkpt lat="45.2244" lon="5.73691">
        <ele>989</ele>
        <time>2021-07-24T04:54:13.000Z</time>
      </trkpt>
      <trkpt lat="45.22442" lon="5.73692">
        <ele>989</ele>
        <time>2021-07-24T04:54:15.000Z</time>
      </trkpt>
      <trkpt lat="45.22456" lon="5.73692">
        <ele>988.79998779297</ele>
        <time>2021-07-24T04:54:22.000Z</time>
      </trkpt>
      <trkpt lat="45.2246" lon="5.7369">
        <ele>989.40002441406</ele>
        <time>2021-07-24T04:54:25.000Z</time>
      </trkpt>
      <trkpt lat="45.22466" lon="5.73692">
        <ele>990.79998779297</ele>
        <time>2021-07-24T04:54:29.000Z</time>
      </trkpt>
      <trkpt lat="45.22466" lon="5.73693">
        <ele>991</ele>
        <time>2021-07-24T04:54:30.000Z</time>
      </trkpt>
      <trkpt lat="45.22468" lon="5.73692">
        <ele>992</ele>
        <time>2021-07-24T04:54:33.000Z</time>
      </trkpt>
      <trkpt lat="45.22469" lon="5.73692">
        <ele>993.20001220703</ele>
        <time>2021-07-24T04:54:35.000Z</time>
      </trkpt>
      <trkpt lat="45.22471" lon="5.73691">
        <ele>993.20001220703</ele>
        <time>2021-07-24T04:54:36.000Z</time>
      </trkpt>
      <trkpt lat="45.22474" lon="5.73691">
        <ele>993.79998779297</ele>
        <time>2021-07-24T04:54:38.000Z</time>
      </trkpt>
      <trkpt lat="45.22474" lon="5.73691">
        <ele>994.20001220703</ele>
        <time>2021-07-24T04:54:39.000Z</time>
      </trkpt>
      <trkpt lat="45.22475" lon="5.7369">
        <ele>994.59997558594</ele>
        <time>2021-07-24T04:54:40.000Z</time>
      </trkpt>
      <trkpt lat="45.22477" lon="5.73689">
        <ele>994.59997558594</ele>
        <time>2021-07-24T04:54:41.000Z</time>
      </trkpt>
      <trkpt lat="45.22481" lon="5.73688">
        <ele>995.40002441406</ele>
        <time>2021-07-24T04:54:43.000Z</time>
      </trkpt>
      <trkpt lat="45.22484" lon="5.73688">
        <ele>995.79998779297</ele>
        <time>2021-07-24T04:54:45.000Z</time>
      </trkpt>
      <trkpt lat="45.22491" lon="5.73686">
        <ele>996.59997558594</ele>
        <time>2021-07-24T04:54:48.000Z</time>
      </trkpt>
      <trkpt lat="45.22495" lon="5.73685">
        <ele>997.59997558594</ele>
        <time>2021-07-24T04:54:52.000Z</time>
      </trkpt>
      <trkpt lat="45.225" lon="5.73682">
        <ele>998.40002441406</ele>
        <time>2021-07-24T04:54:56.000Z</time>
      </trkpt>
      <trkpt lat="45.22502" lon="5.73681">
        <ele>998.79998779297</ele>
        <time>2021-07-24T04:54:57.000Z</time>
      </trkpt>
      <trkpt lat="45.22506" lon="5.73681">
        <ele>999.40002441406</ele>
        <time>2021-07-24T04:55:00.000Z</time>
      </trkpt>
      <trkpt lat="45.22509" lon="5.7368">
        <ele>1000</ele>
        <time>2021-07-24T04:55:02.000Z</time>
      </trkpt>
      <trkpt lat="45.22512" lon="5.73678">
        <ele>1001.200012207</ele>
        <time>2021-07-24T04:55:06.000Z</time>
      </trkpt>
      <trkpt lat="45.22516" lon="5.73679">
        <ele>1002.200012207</ele>
        <time>2021-07-24T04:55:10.000Z</time>
      </trkpt>
      <trkpt lat="45.22517" lon="5.73679">
        <ele>1002.5999755859</ele>
        <time>2021-07-24T04:55:11.000Z</time>
      </trkpt>
      <trkpt lat="45.2252" lon="5.73682">
        <ele>1003.5999755859</ele>
        <time>2021-07-24T04:55:14.000Z</time>
      </trkpt>
      <trkpt lat="45.22524" lon="5.73684">
        <ele>1003.799987793</ele>
        <time>2021-07-24T04:55:17.000Z</time>
      </trkpt>
      <trkpt lat="45.22526" lon="5.73684">
        <ele>1004.799987793</ele>
        <time>2021-07-24T04:55:18.000Z</time>
      </trkpt>
      <trkpt lat="45.22531" lon="5.73683">
        <ele>1005.5999755859</ele>
        <time>2021-07-24T04:55:22.000Z</time>
      </trkpt>
      <trkpt lat="45.22533" lon="5.73684">
        <ele>1006.4000244141</ele>
        <time>2021-07-24T04:55:24.000Z</time>
      </trkpt>
      <trkpt lat="45.22534" lon="5.73684">
        <ele>1006.5999755859</ele>
        <time>2021-07-24T04:55:25.000Z</time>
      </trkpt>
      <trkpt lat="45.22539" lon="5.73686">
        <ele>1008</ele>
        <time>2021-07-24T04:55:29.000Z</time>
      </trkpt>
      <trkpt lat="45.22541" lon="5.73687">
        <ele>1008.4000244141</ele>
        <time>2021-07-24T04:55:31.000Z</time>
      </trkpt>
      <trkpt lat="45.22544" lon="5.73688">
        <ele>1009.5999755859</ele>
        <time>2021-07-24T04:55:34.000Z</time>
      </trkpt>
      <trkpt lat="45.22547" lon="5.7369">
        <ele>1010</ele>
        <time>2021-07-24T04:55:36.000Z</time>
      </trkpt>
      <trkpt lat="45.22552" lon="5.73695">
        <ele>1010.799987793</ele>
        <time>2021-07-24T04:55:39.000Z</time>
      </trkpt>
      <trkpt lat="45.22561" lon="5.73701">
        <ele>1011.799987793</ele>
        <time>2021-07-24T04:55:45.000Z</time>
      </trkpt>
      <trkpt lat="45.22562" lon="5.73703">
        <ele>1012</ele>
        <time>2021-07-24T04:55:46.000Z</time>
      </trkpt>
      <trkpt lat="45.22572" lon="5.73706">
        <ele>1012.5999755859</ele>
        <time>2021-07-24T04:55:53.000Z</time>
      </trkpt>
      <trkpt lat="45.2258" lon="5.73708">
        <ele>1013.4000244141</ele>
        <time>2021-07-24T04:55:58.000Z</time>
      </trkpt>
      <trkpt lat="45.22582" lon="5.73708">
        <ele>1013.799987793</ele>
        <time>2021-07-24T04:55:59.000Z</time>
      </trkpt>
      <trkpt lat="45.22584" lon="5.73708">
        <ele>1014.200012207</ele>
        <time>2021-07-24T04:56:01.000Z</time>
      </trkpt>
      <trkpt lat="45.22585" lon="5.73709">
        <ele>1014.200012207</ele>
        <time>2021-07-24T04:56:02.000Z</time>
      </trkpt>
      <trkpt lat="45.22587" lon="5.73709">
        <ele>1015</ele>
        <time>2021-07-24T04:56:03.000Z</time>
      </trkpt>
      <trkpt lat="45.22593" lon="5.73715">
        <ele>1016</ele>
        <time>2021-07-24T04:56:06.000Z</time>
      </trkpt>
      <trkpt lat="45.22594" lon="5.73715">
        <ele>1016.200012207</ele>
        <time>2021-07-24T04:56:07.000Z</time>
      </trkpt>
      <trkpt lat="45.22597" lon="5.73716">
        <ele>1016.5999755859</ele>
        <time>2021-07-24T04:56:09.000Z</time>
      </trkpt>
      <trkpt lat="45.22601" lon="5.7372">
        <ele>1017.4000244141</ele>
        <time>2021-07-24T04:56:12.000Z</time>
      </trkpt>
      <trkpt lat="45.22604" lon="5.73723">
        <ele>1017.799987793</ele>
        <time>2021-07-24T04:56:14.000Z</time>
      </trkpt>
      <trkpt lat="45.22608" lon="5.73723">
        <ele>1018.4000244141</ele>
        <time>2021-07-24T04:56:17.000Z</time>
      </trkpt>
      <trkpt lat="45.2261" lon="5.73725">
        <ele>1019</ele>
        <time>2021-07-24T04:56:19.000Z</time>
      </trkpt>
      <trkpt lat="45.22611" lon="5.73727">
        <ele>1019.200012207</ele>
        <time>2021-07-24T04:56:20.000Z</time>
      </trkpt>
      <trkpt lat="45.22613" lon="5.73728">
        <ele>1019.4000244141</ele>
        <time>2021-07-24T04:56:21.000Z</time>
      </trkpt>
      <trkpt lat="45.22616" lon="5.73732">
        <ele>1020</ele>
        <time>2021-07-24T04:56:24.000Z</time>
      </trkpt>
      <trkpt lat="45.22617" lon="5.73733">
        <ele>1020.200012207</ele>
        <time>2021-07-24T04:56:25.000Z</time>
      </trkpt>
      <trkpt lat="45.22618" lon="5.73734">
        <ele>1020</ele>
        <time>2021-07-24T04:56:26.000Z</time>
      </trkpt>
      <trkpt lat="45.22622" lon="5.73736">
        <ele>1019.799987793</ele>
        <time>2021-07-24T04:56:29.000Z</time>
      </trkpt>
      <trkpt lat="45.22623" lon="5.73737">
        <ele>1019.799987793</ele>
        <time>2021-07-24T04:56:30.000Z</time>
      </trkpt>
      <trkpt lat="45.22625" lon="5.73738">
        <ele>1019.799987793</ele>
        <time>2021-07-24T04:56:31.000Z</time>
      </trkpt>
      <trkpt lat="45.22626" lon="5.73739">
        <ele>1019.799987793</ele>
        <time>2021-07-24T04:56:33.000Z</time>
      </trkpt>
      <trkpt lat="45.22627" lon="5.7374">
        <ele>1019.799987793</ele>
        <time>2021-07-24T04:56:34.000Z</time>
      </trkpt>
      <trkpt lat="45.22633" lon="5.73747">
        <ele>1019.5999755859</ele>
        <time>2021-07-24T04:56:40.000Z</time>
      </trkpt>
      <trkpt lat="45.22638" lon="5.73749">
        <ele>1019.799987793</ele>
        <time>2021-07-24T04:56:43.000Z</time>
      </trkpt>
      <trkpt lat="45.22643" lon="5.7375">
        <ele>1020.4000244141</ele>
        <time>2021-07-24T04:56:46.000Z</time>
      </trkpt>
      <trkpt lat="45.22647" lon="5.73751">
        <ele>1021.5999755859</ele>
        <time>2021-07-24T04:56:48.000Z</time>
      </trkpt>
      <trkpt lat="45.22648" lon="5.73751">
        <ele>1021.5999755859</ele>
        <time>2021-07-24T04:56:49.000Z</time>
      </trkpt>
      <trkpt lat="45.22651" lon="5.73755">
        <ele>1022.4000244141</ele>
        <time>2021-07-24T04:56:51.000Z</time>
      </trkpt>
      <trkpt lat="45.22654" lon="5.73759">
        <ele>1022.5999755859</ele>
        <time>2021-07-24T04:56:52.000Z</time>
      </trkpt>
      <trkpt lat="45.22656" lon="5.73762">
        <ele>1023.799987793</ele>
        <time>2021-07-24T04:56:53.000Z</time>
      </trkpt>
      <trkpt lat="45.22665" lon="5.73772">
        <ele>1024.4000244141</ele>
        <time>2021-07-24T04:56:58.000Z</time>
      </trkpt>
      <trkpt lat="45.22668" lon="5.73776">
        <ele>1024.5999755859</ele>
        <time>2021-07-24T04:57:00.000Z</time>
      </trkpt>
      <trkpt lat="45.22673" lon="5.73779">
        <ele>1024.5999755859</ele>
        <time>2021-07-24T04:57:03.000Z</time>
      </trkpt>
      <trkpt lat="45.22674" lon="5.7378">
        <ele>1025.1999511719</ele>
        <time>2021-07-24T04:57:04.000Z</time>
      </trkpt>
      <trkpt lat="45.22686" lon="5.73789">
        <ele>1025.4000244141</ele>
        <time>2021-07-24T04:57:09.000Z</time>
      </trkpt>
      <trkpt lat="45.22693" lon="5.73792">
        <ele>1026.1999511719</ele>
        <time>2021-07-24T04:57:12.000Z</time>
      </trkpt>
      <trkpt lat="45.22706" lon="5.73796">
        <ele>1026.1999511719</ele>
        <time>2021-07-24T04:57:18.000Z</time>
      </trkpt>
      <trkpt lat="45.22718" lon="5.73801">
        <ele>1026</ele>
        <time>2021-07-24T04:57:23.000Z</time>
      </trkpt>
      <trkpt lat="45.22725" lon="5.73804">
        <ele>1026</ele>
        <time>2021-07-24T04:57:26.000Z</time>
      </trkpt>
      <trkpt lat="45.22745" lon="5.73809">
        <ele>1025.1999511719</ele>
        <time>2021-07-24T04:57:35.000Z</time>
      </trkpt>
      <trkpt lat="45.22747" lon="5.73811">
        <ele>1025</ele>
        <time>2021-07-24T04:57:36.000Z</time>
      </trkpt>
      <trkpt lat="45.22752" lon="5.73814">
        <ele>1025</ele>
        <time>2021-07-24T04:57:38.000Z</time>
      </trkpt>
      <trkpt lat="45.22763" lon="5.73823">
        <ele>1025.1999511719</ele>
        <time>2021-07-24T04:57:43.000Z</time>
      </trkpt>
      <trkpt lat="45.22779" lon="5.7383">
        <ele>1025.4000244141</ele>
        <time>2021-07-24T04:57:50.000Z</time>
      </trkpt>
      <trkpt lat="45.22792" lon="5.73839">
        <ele>1024</ele>
        <time>2021-07-24T04:57:56.000Z</time>
      </trkpt>
      <trkpt lat="45.22796" lon="5.73841">
        <ele>1023.799987793</ele>
        <time>2021-07-24T04:57:58.000Z</time>
      </trkpt>
      <trkpt lat="45.22804" lon="5.73848">
        <ele>1022.4000244141</ele>
        <time>2021-07-24T04:58:02.000Z</time>
      </trkpt>
      <trkpt lat="45.2281" lon="5.7385">
        <ele>1021.4000244141</ele>
        <time>2021-07-24T04:58:05.000Z</time>
      </trkpt>
      <trkpt lat="45.22821" lon="5.73853">
        <ele>1020.5999755859</ele>
        <time>2021-07-24T04:58:09.000Z</time>
      </trkpt>
      <trkpt lat="45.22824" lon="5.73856">
        <ele>1020.5999755859</ele>
        <time>2021-07-24T04:58:11.000Z</time>
      </trkpt>
      <trkpt lat="45.22825" lon="5.73857">
        <ele>1020.5999755859</ele>
        <time>2021-07-24T04:58:12.000Z</time>
      </trkpt>
      <trkpt lat="45.22826" lon="5.73857">
        <ele>1020</ele>
        <time>2021-07-24T04:58:13.000Z</time>
      </trkpt>
      <trkpt lat="45.2284" lon="5.73864">
        <ele>1019.799987793</ele>
        <time>2021-07-24T04:58:17.000Z</time>
      </trkpt>
      <trkpt lat="45.22848" lon="5.73869">
        <ele>1019.5999755859</ele>
        <time>2021-07-24T04:58:20.000Z</time>
      </trkpt>
      <trkpt lat="45.22855" lon="5.73873">
        <ele>1018.5999755859</ele>
        <time>2021-07-24T04:58:23.000Z</time>
      </trkpt>
      <trkpt lat="45.22856" lon="5.73873">
        <ele>1018.5999755859</ele>
        <time>2021-07-24T04:58:24.000Z</time>
      </trkpt>
      <trkpt lat="45.22871" lon="5.73869">
        <ele>1018.200012207</ele>
        <time>2021-07-24T04:58:31.000Z</time>
      </trkpt>
      <trkpt lat="45.22889" lon="5.73865">
        <ele>1017.799987793</ele>
        <time>2021-07-24T04:58:36.000Z</time>
      </trkpt>
      <trkpt lat="45.22895" lon="5.73862">
        <ele>1017.799987793</ele>
        <time>2021-07-24T04:58:39.000Z</time>
      </trkpt>
      <trkpt lat="45.22897" lon="5.7386">
        <ele>1017.200012207</ele>
        <time>2021-07-24T04:58:40.000Z</time>
      </trkpt>
      <trkpt lat="45.2291" lon="5.73856">
        <ele>1016.799987793</ele>
        <time>2021-07-24T04:58:45.000Z</time>
      </trkpt>
      <trkpt lat="45.22928" lon="5.73854">
        <ele>1016</ele>
        <time>2021-07-24T04:58:51.000Z</time>
      </trkpt>
      <trkpt lat="45.22931" lon="5.73855">
        <ele>1016</ele>
        <time>2021-07-24T04:58:52.000Z</time>
      </trkpt>
      <trkpt lat="45.22939" lon="5.73855">
        <ele>1014.799987793</ele>
        <time>2021-07-24T04:58:56.000Z</time>
      </trkpt>
      <trkpt lat="45.2294" lon="5.73858">
        <ele>1014.5999755859</ele>
        <time>2021-07-24T04:58:57.000Z</time>
      </trkpt>
      <trkpt lat="45.22942" lon="5.73873">
        <ele>1014.4000244141</ele>
        <time>2021-07-24T04:59:00.000Z</time>
      </trkpt>
      <trkpt lat="45.22944" lon="5.73876">
        <ele>1013.799987793</ele>
        <time>2021-07-24T04:59:01.000Z</time>
      </trkpt>
      <trkpt lat="45.22945" lon="5.73879">
        <ele>1013.5999755859</ele>
        <time>2021-07-24T04:59:02.000Z</time>
      </trkpt>
      <trkpt lat="45.22948" lon="5.73884">
        <ele>1011.4000244141</ele>
        <time>2021-07-24T04:59:04.000Z</time>
      </trkpt>
      <trkpt lat="45.22949" lon="5.73888">
        <ele>1011.200012207</ele>
        <time>2021-07-24T04:59:05.000Z</time>
      </trkpt>
      <trkpt lat="45.2295" lon="5.73893">
        <ele>1010.200012207</ele>
        <time>2021-07-24T04:59:06.000Z</time>
      </trkpt>
      <trkpt lat="45.22951" lon="5.73896">
        <ele>1010.200012207</ele>
        <time>2021-07-24T04:59:07.000Z</time>
      </trkpt>
      <trkpt lat="45.22952" lon="5.739">
        <ele>1010.200012207</ele>
        <time>2021-07-24T04:59:08.000Z</time>
      </trkpt>
      <trkpt lat="45.22959" lon="5.73925">
        <ele>1009.4000244141</ele>
        <time>2021-07-24T04:59:14.000Z</time>
      </trkpt>
      <trkpt lat="45.2297" lon="5.73948">
        <ele>1009.799987793</ele>
        <time>2021-07-24T04:59:21.000Z</time>
      </trkpt>
      <trkpt lat="45.22972" lon="5.7395">
        <ele>1009.4000244141</ele>
        <time>2021-07-24T04:59:22.000Z</time>
      </trkpt>
      <trkpt lat="45.22986" lon="5.73961">
        <ele>1010</ele>
        <time>2021-07-24T04:59:29.000Z</time>
      </trkpt>
      <trkpt lat="45.22989" lon="5.73961">
        <ele>1010</ele>
        <time>2021-07-24T04:59:30.000Z</time>
      </trkpt>
      <trkpt lat="45.23005" lon="5.73963">
        <ele>1010.799987793</ele>
        <time>2021-07-24T04:59:37.000Z</time>
      </trkpt>
      <trkpt lat="45.23015" lon="5.73962">
        <ele>1011</ele>
        <time>2021-07-24T04:59:41.000Z</time>
      </trkpt>
      <trkpt lat="45.23017" lon="5.73962">
        <ele>1011.200012207</ele>
        <time>2021-07-24T04:59:42.000Z</time>
      </trkpt>
      <trkpt lat="45.23022" lon="5.73962">
        <ele>1011.4000244141</ele>
        <time>2021-07-24T04:59:44.000Z</time>
      </trkpt>
      <trkpt lat="45.23024" lon="5.73962">
        <ele>1011.4000244141</ele>
        <time>2021-07-24T04:59:45.000Z</time>
      </trkpt>
      <trkpt lat="45.23031" lon="5.7396">
        <ele>1011.5999755859</ele>
        <time>2021-07-24T04:59:48.000Z</time>
      </trkpt>
      <trkpt lat="45.23035" lon="5.7396">
        <ele>1011.4000244141</ele>
        <time>2021-07-24T04:59:50.000Z</time>
      </trkpt>
      <trkpt lat="45.23038" lon="5.7396">
        <ele>1011.5999755859</ele>
        <time>2021-07-24T04:59:51.000Z</time>
      </trkpt>
      <trkpt lat="45.23042" lon="5.73957">
        <ele>1011.5999755859</ele>
        <time>2021-07-24T04:59:53.000Z</time>
      </trkpt>
      <trkpt lat="45.23045" lon="5.73952">
        <ele>1012</ele>
        <time>2021-07-24T04:59:55.000Z</time>
      </trkpt>
      <trkpt lat="45.23049" lon="5.73948">
        <ele>1012</ele>
        <time>2021-07-24T04:59:57.000Z</time>
      </trkpt>
      <trkpt lat="45.23054" lon="5.73945">
        <ele>1012.4000244141</ele>
        <time>2021-07-24T04:59:59.000Z</time>
      </trkpt>
      <trkpt lat="45.2306" lon="5.73942">
        <ele>1013.200012207</ele>
        <time>2021-07-24T05:00:02.000Z</time>
      </trkpt>
      <trkpt lat="45.23066" lon="5.73942">
        <ele>1013.4000244141</ele>
        <time>2021-07-24T05:00:05.000Z</time>
      </trkpt>
      <trkpt lat="45.23068" lon="5.73942">
        <ele>1014</ele>
        <time>2021-07-24T05:00:06.000Z</time>
      </trkpt>
      <trkpt lat="45.23071" lon="5.73941">
        <ele>1014.799987793</ele>
        <time>2021-07-24T05:00:08.000Z</time>
      </trkpt>
      <trkpt lat="45.2308" lon="5.73945">
        <ele>1016.4000244141</ele>
        <time>2021-07-24T05:00:12.000Z</time>
      </trkpt>
      <trkpt lat="45.23081" lon="5.73946">
        <ele>1016.4000244141</ele>
        <time>2021-07-24T05:00:13.000Z</time>
      </trkpt>
      <trkpt lat="45.23086" lon="5.73953">
        <ele>1017.200012207</ele>
        <time>2021-07-24T05:00:17.000Z</time>
      </trkpt>
      <trkpt lat="45.23088" lon="5.73959">
        <ele>1017.5999755859</ele>
        <time>2021-07-24T05:00:19.000Z</time>
      </trkpt>
      <trkpt lat="45.23096" lon="5.73967">
        <ele>1018</ele>
        <time>2021-07-24T05:00:22.000Z</time>
      </trkpt>
      <trkpt lat="45.23098" lon="5.73967">
        <ele>1018</ele>
        <time>2021-07-24T05:00:23.000Z</time>
      </trkpt>
      <trkpt lat="45.23101" lon="5.73968">
        <ele>1018</ele>
        <time>2021-07-24T05:00:24.000Z</time>
      </trkpt>
      <trkpt lat="45.23102" lon="5.73968">
        <ele>1018</ele>
        <time>2021-07-24T05:00:25.000Z</time>
      </trkpt>
      <trkpt lat="45.23122" lon="5.73966">
        <ele>1018.5999755859</ele>
        <time>2021-07-24T05:00:34.000Z</time>
      </trkpt>
      <trkpt lat="45.23126" lon="5.73966">
        <ele>1018.5999755859</ele>
        <time>2021-07-24T05:00:36.000Z</time>
      </trkpt>
      <trkpt lat="45.23142" lon="5.73973">
        <ele>1019.200012207</ele>
        <time>2021-07-24T05:00:43.000Z</time>
      </trkpt>
      <trkpt lat="45.23159" lon="5.73979">
        <ele>1018.799987793</ele>
        <time>2021-07-24T05:00:51.000Z</time>
      </trkpt>
      <trkpt lat="45.23161" lon="5.73979">
        <ele>1018.799987793</ele>
        <time>2021-07-24T05:00:52.000Z</time>
      </trkpt>
      <trkpt lat="45.23168" lon="5.73983">
        <ele>1017.799987793</ele>
        <time>2021-07-24T05:00:56.000Z</time>
      </trkpt>
      <trkpt lat="45.2317" lon="5.73984">
        <ele>1017.5999755859</ele>
        <time>2021-07-24T05:00:57.000Z</time>
      </trkpt>
      <trkpt lat="45.23172" lon="5.73984">
        <ele>1017.4000244141</ele>
        <time>2021-07-24T05:00:58.000Z</time>
      </trkpt>
      <trkpt lat="45.23178" lon="5.73986">
        <ele>1016.200012207</ele>
        <time>2021-07-24T05:01:01.000Z</time>
      </trkpt>
      <trkpt lat="45.23193" lon="5.73993">
        <ele>1015.200012207</ele>
        <time>2021-07-24T05:01:08.000Z</time>
      </trkpt>
      <trkpt lat="45.23207" lon="5.74006">
        <ele>1014.799987793</ele>
        <time>2021-07-24T05:01:15.000Z</time>
      </trkpt>
      <trkpt lat="45.23217" lon="5.74014">
        <ele>1015.4000244141</ele>
        <time>2021-07-24T05:01:20.000Z</time>
      </trkpt>
      <trkpt lat="45.23219" lon="5.74018">
        <ele>1015.4000244141</ele>
        <time>2021-07-24T05:01:22.000Z</time>
      </trkpt>
      <trkpt lat="45.23221" lon="5.74025">
        <ele>1016.4000244141</ele>
        <time>2021-07-24T05:01:24.000Z</time>
      </trkpt>
      <trkpt lat="45.23221" lon="5.74029">
        <ele>1016.4000244141</ele>
        <time>2021-07-24T05:01:25.000Z</time>
      </trkpt>
      <trkpt lat="45.23223" lon="5.74045">
        <ele>1017.5999755859</ele>
        <time>2021-07-24T05:01:29.000Z</time>
      </trkpt>
      <trkpt lat="45.23223" lon="5.74049">
        <ele>1017.5999755859</ele>
        <time>2021-07-24T05:01:30.000Z</time>
      </trkpt>
      <trkpt lat="45.23225" lon="5.74056">
        <ele>1018</ele>
        <time>2021-07-24T05:01:32.000Z</time>
      </trkpt>
      <trkpt lat="45.23225" lon="5.74058">
        <ele>1018.200012207</ele>
        <time>2021-07-24T05:01:33.000Z</time>
      </trkpt>
      <trkpt lat="45.23225" lon="5.74062">
        <ele>1018.200012207</ele>
        <time>2021-07-24T05:01:34.000Z</time>
      </trkpt>
      <trkpt lat="45.23225" lon="5.74068">
        <ele>1018.5999755859</ele>
        <time>2021-07-24T05:01:36.000Z</time>
      </trkpt>
      <trkpt lat="45.23225" lon="5.74071">
        <ele>1018.5999755859</ele>
        <time>2021-07-24T05:01:37.000Z</time>
      </trkpt>
      <trkpt lat="45.23224" lon="5.74075">
        <ele>1018.200012207</ele>
        <time>2021-07-24T05:01:38.000Z</time>
      </trkpt>
      <trkpt lat="45.23225" lon="5.74079">
        <ele>1018.5999755859</ele>
        <time>2021-07-24T05:01:39.000Z</time>
      </trkpt>
      <trkpt lat="45.23225" lon="5.74085">
        <ele>1018.5999755859</ele>
        <time>2021-07-24T05:01:41.000Z</time>
      </trkpt>
      <trkpt lat="45.23223" lon="5.74102">
        <ele>1018.5999755859</ele>
        <time>2021-07-24T05:01:46.000Z</time>
      </trkpt>
      <trkpt lat="45.23224" lon="5.74106">
        <ele>1018.4000244141</ele>
        <time>2021-07-24T05:01:47.000Z</time>
      </trkpt>
      <trkpt lat="45.23231" lon="5.74119">
        <ele>1017.4000244141</ele>
        <time>2021-07-24T05:01:53.000Z</time>
      </trkpt>
      <trkpt lat="45.23234" lon="5.7412">
        <ele>1017.4000244141</ele>
        <time>2021-07-24T05:01:55.000Z</time>
      </trkpt>
      <trkpt lat="45.23242" lon="5.74123">
        <ele>1017.799987793</ele>
        <time>2021-07-24T05:01:59.000Z</time>
      </trkpt>
      <trkpt lat="45.23248" lon="5.74126">
        <ele>1018.5999755859</ele>
        <time>2021-07-24T05:02:02.000Z</time>
      </trkpt>
      <trkpt lat="45.23259" lon="5.74132">
        <ele>1019</ele>
        <time>2021-07-24T05:02:07.000Z</time>
      </trkpt>
      <trkpt lat="45.23264" lon="5.74135">
        <ele>1019</ele>
        <time>2021-07-24T05:02:10.000Z</time>
      </trkpt>
      <trkpt lat="45.23268" lon="5.7414">
        <ele>1018.5999755859</ele>
        <time>2021-07-24T05:02:13.000Z</time>
      </trkpt>
      <trkpt lat="45.2327" lon="5.74144">
        <ele>1018.200012207</ele>
        <time>2021-07-24T05:02:15.000Z</time>
      </trkpt>
      <trkpt lat="45.23276" lon="5.74155">
        <ele>1018</ele>
        <time>2021-07-24T05:02:17.000Z</time>
      </trkpt>
      <trkpt lat="45.23278" lon="5.74159">
        <ele>1018</ele>
        <time>2021-07-24T05:02:18.000Z</time>
      </trkpt>
      <trkpt lat="45.23281" lon="5.74164">
        <ele>1017.200012207</ele>
        <time>2021-07-24T05:02:20.000Z</time>
      </trkpt>
      <trkpt lat="45.2329" lon="5.74168">
        <ele>1017</ele>
        <time>2021-07-24T05:02:25.000Z</time>
      </trkpt>
      <trkpt lat="45.23296" lon="5.74169">
        <ele>1016.799987793</ele>
        <time>2021-07-24T05:02:27.000Z</time>
      </trkpt>
      <trkpt lat="45.23303" lon="5.74171">
        <ele>1016.799987793</ele>
        <time>2021-07-24T05:02:29.000Z</time>
      </trkpt>
      <trkpt lat="45.2331" lon="5.74173">
        <ele>1016.5999755859</ele>
        <time>2021-07-24T05:02:33.000Z</time>
      </trkpt>
      <trkpt lat="45.23323" lon="5.7418">
        <ele>1016.5999755859</ele>
        <time>2021-07-24T05:02:38.000Z</time>
      </trkpt>
      <trkpt lat="45.23341" lon="5.74195">
        <ele>1016.799987793</ele>
        <time>2021-07-24T05:02:45.000Z</time>
      </trkpt>
      <trkpt lat="45.23356" lon="5.74205">
        <ele>1016.5999755859</ele>
        <time>2021-07-24T05:02:52.000Z</time>
      </trkpt>
      <trkpt lat="45.23358" lon="5.74207">
        <ele>1016.5999755859</ele>
        <time>2021-07-24T05:02:53.000Z</time>
      </trkpt>
      <trkpt lat="45.23363" lon="5.7421">
        <ele>1016</ele>
        <time>2021-07-24T05:02:56.000Z</time>
      </trkpt>
      <trkpt lat="45.23372" lon="5.74221">
        <ele>1015.799987793</ele>
        <time>2021-07-24T05:03:00.000Z</time>
      </trkpt>
      <trkpt lat="45.23375" lon="5.74225">
        <ele>1015.4000244141</ele>
        <time>2021-07-24T05:03:02.000Z</time>
      </trkpt>
      <trkpt lat="45.23383" lon="5.74232">
        <ele>1015</ele>
        <time>2021-07-24T05:03:06.000Z</time>
      </trkpt>
      <trkpt lat="45.2339" lon="5.74237">
        <ele>1014.4000244141</ele>
        <time>2021-07-24T05:03:09.000Z</time>
      </trkpt>
      <trkpt lat="45.23399" lon="5.74243">
        <ele>1013.799987793</ele>
        <time>2021-07-24T05:03:12.000Z</time>
      </trkpt>
      <trkpt lat="45.23407" lon="5.74246">
        <ele>1013.200012207</ele>
        <time>2021-07-24T05:03:16.000Z</time>
      </trkpt>
      <trkpt lat="45.23409" lon="5.74247">
        <ele>1012.5999755859</ele>
        <time>2021-07-24T05:03:17.000Z</time>
      </trkpt>
      <trkpt lat="45.2341" lon="5.74248">
        <ele>1012</ele>
        <time>2021-07-24T05:03:18.000Z</time>
      </trkpt>
      <trkpt lat="45.23411" lon="5.74249">
        <ele>1011.4000244141</ele>
        <time>2021-07-24T05:03:19.000Z</time>
      </trkpt>
      <trkpt lat="45.23415" lon="5.74254">
        <ele>1010.799987793</ele>
        <time>2021-07-24T05:03:21.000Z</time>
      </trkpt>
      <trkpt lat="45.23422" lon="5.74259">
        <ele>1010.4000244141</ele>
        <time>2021-07-24T05:03:24.000Z</time>
      </trkpt>
      <trkpt lat="45.23423" lon="5.74259">
        <ele>1010.200012207</ele>
        <time>2021-07-24T05:03:25.000Z</time>
      </trkpt>
      <trkpt lat="45.23428" lon="5.7426">
        <ele>1009.5999755859</ele>
        <time>2021-07-24T05:03:27.000Z</time>
      </trkpt>
      <trkpt lat="45.23433" lon="5.74263">
        <ele>1008.5999755859</ele>
        <time>2021-07-24T05:03:30.000Z</time>
      </trkpt>
      <trkpt lat="45.23437" lon="5.74266">
        <ele>1007.5999755859</ele>
        <time>2021-07-24T05:03:33.000Z</time>
      </trkpt>
      <trkpt lat="45.23439" lon="5.74267">
        <ele>1006.799987793</ele>
        <time>2021-07-24T05:03:34.000Z</time>
      </trkpt>
      <trkpt lat="45.23443" lon="5.7427">
        <ele>1006.4000244141</ele>
        <time>2021-07-24T05:03:36.000Z</time>
      </trkpt>
      <trkpt lat="45.23447" lon="5.74271">
        <ele>1006.4000244141</ele>
        <time>2021-07-24T05:03:38.000Z</time>
      </trkpt>
      <trkpt lat="45.23449" lon="5.74274">
        <ele>1005.4000244141</ele>
        <time>2021-07-24T05:03:40.000Z</time>
      </trkpt>
      <trkpt lat="45.23451" lon="5.74275">
        <ele>1005.4000244141</ele>
        <time>2021-07-24T05:03:41.000Z</time>
      </trkpt>
      <trkpt lat="45.23452" lon="5.74276">
        <ele>1005</ele>
        <time>2021-07-24T05:03:42.000Z</time>
      </trkpt>
      <trkpt lat="45.23452" lon="5.74278">
        <ele>1005</ele>
        <time>2021-07-24T05:03:43.000Z</time>
      </trkpt>
      <trkpt lat="45.23454" lon="5.7428">
        <ele>1003.5999755859</ele>
        <time>2021-07-24T05:03:45.000Z</time>
      </trkpt>
      <trkpt lat="45.23457" lon="5.7428">
        <ele>1003.200012207</ele>
        <time>2021-07-24T05:03:46.000Z</time>
      </trkpt>
      <trkpt lat="45.23459" lon="5.74283">
        <ele>1003</ele>
        <time>2021-07-24T05:03:52.000Z</time>
      </trkpt>
      <trkpt lat="45.23458" lon="5.74284">
        <ele>1003</ele>
        <time>2021-07-24T05:03:55.000Z</time>
      </trkpt>
      <trkpt lat="45.23457" lon="5.74285">
        <ele>1003</ele>
        <time>2021-07-24T05:03:58.000Z</time>
      </trkpt>
      <trkpt lat="45.23457" lon="5.74288">
        <ele>1002.799987793</ele>
        <time>2021-07-24T05:04:03.000Z</time>
      </trkpt>
      <trkpt lat="45.23455" lon="5.74293">
        <ele>1002.799987793</ele>
        <time>2021-07-24T05:04:07.000Z</time>
      </trkpt>
      <trkpt lat="45.23455" lon="5.74295">
        <ele>1003</ele>
        <time>2021-07-24T05:04:09.000Z</time>
      </trkpt>
      <trkpt lat="45.23455" lon="5.74295">
        <ele>1002.799987793</ele>
        <time>2021-07-24T05:04:12.000Z</time>
      </trkpt>
      <trkpt lat="45.23456" lon="5.74295">
        <ele>1002.799987793</ele>
        <time>2021-07-24T05:04:13.000Z</time>
      </trkpt>
      <trkpt lat="45.23457" lon="5.74295">
        <ele>1002.4000244141</ele>
        <time>2021-07-24T05:04:14.000Z</time>
      </trkpt>
      <trkpt lat="45.23459" lon="5.74295">
        <ele>1001.799987793</ele>
        <time>2021-07-24T05:04:16.000Z</time>
      </trkpt>
      <trkpt lat="45.23461" lon="5.74295">
        <ele>1001.200012207</ele>
        <time>2021-07-24T05:04:18.000Z</time>
      </trkpt>
      <trkpt lat="45.23462" lon="5.74295">
        <ele>1000.799987793</ele>
        <time>2021-07-24T05:04:19.000Z</time>
      </trkpt>
      <trkpt lat="45.23463" lon="5.74295">
        <ele>1000.5999755859</ele>
        <time>2021-07-24T05:04:20.000Z</time>
      </trkpt>
      <trkpt lat="45.23466" lon="5.74295">
        <ele>999.79998779297</ele>
        <time>2021-07-24T05:04:22.000Z</time>
      </trkpt>
      <trkpt lat="45.2347" lon="5.74297">
        <ele>998.20001220703</ele>
        <time>2021-07-24T05:04:25.000Z</time>
      </trkpt>
      <trkpt lat="45.23475" lon="5.743">
        <ele>997</ele>
        <time>2021-07-24T05:04:28.000Z</time>
      </trkpt>
      <trkpt lat="45.2348" lon="5.74305">
        <ele>996</ele>
        <time>2021-07-24T05:04:32.000Z</time>
      </trkpt>
      <trkpt lat="45.23482" lon="5.74305">
        <ele>995.20001220703</ele>
        <time>2021-07-24T05:04:33.000Z</time>
      </trkpt>
      <trkpt lat="45.23487" lon="5.74306">
        <ele>994</ele>
        <time>2021-07-24T05:04:36.000Z</time>
      </trkpt>
      <trkpt lat="45.23488" lon="5.74306">
        <ele>992.79998779297</ele>
        <time>2021-07-24T05:04:37.000Z</time>
      </trkpt>
      <trkpt lat="45.23491" lon="5.74307">
        <ele>992.79998779297</ele>
        <time>2021-07-24T05:04:38.000Z</time>
      </trkpt>
      <trkpt lat="45.23496" lon="5.74308">
        <ele>991.59997558594</ele>
        <time>2021-07-24T05:04:41.000Z</time>
      </trkpt>
      <trkpt lat="45.23497" lon="5.74308">
        <ele>991.40002441406</ele>
        <time>2021-07-24T05:04:43.000Z</time>
      </trkpt>
      <trkpt lat="45.23498" lon="5.74308">
        <ele>990.79998779297</ele>
        <time>2021-07-24T05:04:44.000Z</time>
      </trkpt>
      <trkpt lat="45.23499" lon="5.74309">
        <ele>990.40002441406</ele>
        <time>2021-07-24T05:04:45.000Z</time>
      </trkpt>
      <trkpt lat="45.23504" lon="5.74311">
        <ele>989</ele>
        <time>2021-07-24T05:04:49.000Z</time>
      </trkpt>
      <trkpt lat="45.23505" lon="5.7431">
        <ele>988.79998779297</ele>
        <time>2021-07-24T05:04:50.000Z</time>
      </trkpt>
      <trkpt lat="45.23507" lon="5.7431">
        <ele>988.40002441406</ele>
        <time>2021-07-24T05:04:51.000Z</time>
      </trkpt>
      <trkpt lat="45.23507" lon="5.7431">
        <ele>988</ele>
        <time>2021-07-24T05:04:52.000Z</time>
      </trkpt>
      <trkpt lat="45.2351" lon="5.74309">
        <ele>986.59997558594</ele>
        <time>2021-07-24T05:04:55.000Z</time>
      </trkpt>
      <trkpt lat="45.23517" lon="5.74311">
        <ele>986.20001220703</ele>
        <time>2021-07-24T05:04:58.000Z</time>
      </trkpt>
      <trkpt lat="45.23519" lon="5.74311">
        <ele>985.20001220703</ele>
        <time>2021-07-24T05:04:59.000Z</time>
      </trkpt>
      <trkpt lat="45.2352" lon="5.74311">
        <ele>984.40002441406</ele>
        <time>2021-07-24T05:05:00.000Z</time>
      </trkpt>
      <trkpt lat="45.23522" lon="5.7431">
        <ele>984</ele>
        <time>2021-07-24T05:05:01.000Z</time>
      </trkpt>
      <trkpt lat="45.23527" lon="5.74307">
        <ele>983.59997558594</ele>
        <time>2021-07-24T05:05:04.000Z</time>
      </trkpt>
      <trkpt lat="45.23528" lon="5.74306">
        <ele>983.59997558594</ele>
        <time>2021-07-24T05:05:05.000Z</time>
      </trkpt>
      <trkpt lat="45.23531" lon="5.74306">
        <ele>982.20001220703</ele>
        <time>2021-07-24T05:05:06.000Z</time>
      </trkpt>
      <trkpt lat="45.23536" lon="5.74306">
        <ele>982</ele>
        <time>2021-07-24T05:05:08.000Z</time>
      </trkpt>
      <trkpt lat="45.23539" lon="5.74304">
        <ele>981.40002441406</ele>
        <time>2021-07-24T05:05:09.000Z</time>
      </trkpt>
      <trkpt lat="45.2354" lon="5.74303">
        <ele>980.59997558594</ele>
        <time>2021-07-24T05:05:10.000Z</time>
      </trkpt>
      <trkpt lat="45.23543" lon="5.74302">
        <ele>980.40002441406</ele>
        <time>2021-07-24T05:05:11.000Z</time>
      </trkpt>
      <trkpt lat="45.2355" lon="5.74299">
        <ele>979.59997558594</ele>
        <time>2021-07-24T05:05:14.000Z</time>
      </trkpt>
      <trkpt lat="45.23552" lon="5.74298">
        <ele>979</ele>
        <time>2021-07-24T05:05:15.000Z</time>
      </trkpt>
      <trkpt lat="45.23557" lon="5.74296">
        <ele>977.59997558594</ele>
        <time>2021-07-24T05:05:17.000Z</time>
      </trkpt>
      <trkpt lat="45.23561" lon="5.74297">
        <ele>977</ele>
        <time>2021-07-24T05:05:20.000Z</time>
      </trkpt>
      <trkpt lat="45.23563" lon="5.74297">
        <ele>976.59997558594</ele>
        <time>2021-07-24T05:05:21.000Z</time>
      </trkpt>
      <trkpt lat="45.23565" lon="5.74297">
        <ele>975.79998779297</ele>
        <time>2021-07-24T05:05:22.000Z</time>
      </trkpt>
      <trkpt lat="45.23568" lon="5.74297">
        <ele>974.79998779297</ele>
        <time>2021-07-24T05:05:24.000Z</time>
      </trkpt>
      <trkpt lat="45.23572" lon="5.74295">
        <ele>973.79998779297</ele>
        <time>2021-07-24T05:05:27.000Z</time>
      </trkpt>
      <trkpt lat="45.23574" lon="5.74294">
        <ele>973.40002441406</ele>
        <time>2021-07-24T05:05:28.000Z</time>
      </trkpt>
      <trkpt lat="45.23577" lon="5.74293">
        <ele>972.79998779297</ele>
        <time>2021-07-24T05:05:30.000Z</time>
      </trkpt>
      <trkpt lat="45.23578" lon="5.74293">
        <ele>971.79998779297</ele>
        <time>2021-07-24T05:05:31.000Z</time>
      </trkpt>
      <trkpt lat="45.2358" lon="5.74294">
        <ele>971.40002441406</ele>
        <time>2021-07-24T05:05:32.000Z</time>
      </trkpt>
      <trkpt lat="45.23585" lon="5.74295">
        <ele>970.79998779297</ele>
        <time>2021-07-24T05:05:34.000Z</time>
      </trkpt>
      <trkpt lat="45.2359" lon="5.74294">
        <ele>970.20001220703</ele>
        <time>2021-07-24T05:05:37.000Z</time>
      </trkpt>
      <trkpt lat="45.23591" lon="5.74294">
        <ele>969.59997558594</ele>
        <time>2021-07-24T05:05:38.000Z</time>
      </trkpt>
      <trkpt lat="45.23592" lon="5.74293">
        <ele>969.59997558594</ele>
        <time>2021-07-24T05:05:39.000Z</time>
      </trkpt>
      <trkpt lat="45.23598" lon="5.7429">
        <ele>968.59997558594</ele>
        <time>2021-07-24T05:05:42.000Z</time>
      </trkpt>
      <trkpt lat="45.23599" lon="5.7429">
        <ele>967.40002441406</ele>
        <time>2021-07-24T05:05:43.000Z</time>
      </trkpt>
      <trkpt lat="45.23601" lon="5.7429">
        <ele>966.79998779297</ele>
        <time>2021-07-24T05:05:44.000Z</time>
      </trkpt>
      <trkpt lat="45.23604" lon="5.74289">
        <ele>966.59997558594</ele>
        <time>2021-07-24T05:05:46.000Z</time>
      </trkpt>
      <trkpt lat="45.23605" lon="5.74289">
        <ele>966.40002441406</ele>
        <time>2021-07-24T05:05:47.000Z</time>
      </trkpt>
      <trkpt lat="45.23608" lon="5.74289">
        <ele>965</ele>
        <time>2021-07-24T05:05:49.000Z</time>
      </trkpt>
      <trkpt lat="45.23613" lon="5.74286">
        <ele>964.79998779297</ele>
        <time>2021-07-24T05:05:52.000Z</time>
      </trkpt>
      <trkpt lat="45.23615" lon="5.74284">
        <ele>964.20001220703</ele>
        <time>2021-07-24T05:05:53.000Z</time>
      </trkpt>
      <trkpt lat="45.23616" lon="5.74283">
        <ele>963.20001220703</ele>
        <time>2021-07-24T05:05:54.000Z</time>
      </trkpt>
      <trkpt lat="45.23618" lon="5.74282">
        <ele>963</ele>
        <time>2021-07-24T05:05:55.000Z</time>
      </trkpt>
      <trkpt lat="45.23621" lon="5.74281">
        <ele>962.20001220703</ele>
        <time>2021-07-24T05:05:58.000Z</time>
      </trkpt>
      <trkpt lat="45.23622" lon="5.74281">
        <ele>962</ele>
        <time>2021-07-24T05:05:59.000Z</time>
      </trkpt>
      <trkpt lat="45.23624" lon="5.7428">
        <ele>960.79998779297</ele>
        <time>2021-07-24T05:06:01.000Z</time>
      </trkpt>
      <trkpt lat="45.23628" lon="5.74279">
        <ele>960.40002441406</ele>
        <time>2021-07-24T05:06:03.000Z</time>
      </trkpt>
      <trkpt lat="45.2363" lon="5.74277">
        <ele>960.20001220703</ele>
        <time>2021-07-24T05:06:04.000Z</time>
      </trkpt>
      <trkpt lat="45.23632" lon="5.74275">
        <ele>959.40002441406</ele>
        <time>2021-07-24T05:06:05.000Z</time>
      </trkpt>
      <trkpt lat="45.23639" lon="5.74271">
        <ele>958.79998779297</ele>
        <time>2021-07-24T05:06:08.000Z</time>
      </trkpt>
      <trkpt lat="45.23644" lon="5.74269">
        <ele>957.40002441406</ele>
        <time>2021-07-24T05:06:11.000Z</time>
      </trkpt>
      <trkpt lat="45.2365" lon="5.74266">
        <ele>956.40002441406</ele>
        <time>2021-07-24T05:06:16.000Z</time>
      </trkpt>
      <trkpt lat="45.23651" lon="5.74266">
        <ele>956</ele>
        <time>2021-07-24T05:06:17.000Z</time>
      </trkpt>
      <trkpt lat="45.23652" lon="5.74263">
        <ele>954.79998779297</ele>
        <time>2021-07-24T05:06:20.000Z</time>
      </trkpt>
      <trkpt lat="45.23654" lon="5.74262">
        <ele>954.59997558594</ele>
        <time>2021-07-24T05:06:22.000Z</time>
      </trkpt>
      <trkpt lat="45.23654" lon="5.74261">
        <ele>954</ele>
        <time>2021-07-24T05:06:24.000Z</time>
      </trkpt>
      <trkpt lat="45.23655" lon="5.74261">
        <ele>953.59997558594</ele>
        <time>2021-07-24T05:06:25.000Z</time>
      </trkpt>
      <trkpt lat="45.23656" lon="5.74256">
        <ele>952.79998779297</ele>
        <time>2021-07-24T05:06:28.000Z</time>
      </trkpt>
      <trkpt lat="45.23655" lon="5.74255">
        <ele>952.59997558594</ele>
        <time>2021-07-24T05:06:29.000Z</time>
      </trkpt>
      <trkpt lat="45.23654" lon="5.74252">
        <ele>952.59997558594</ele>
        <time>2021-07-24T05:06:30.000Z</time>
      </trkpt>
      <trkpt lat="45.23655" lon="5.74249">
        <ele>951.79998779297</ele>
        <time>2021-07-24T05:06:31.000Z</time>
      </trkpt>
      <trkpt lat="45.23656" lon="5.74247">
        <ele>951.79998779297</ele>
        <time>2021-07-24T05:06:32.000Z</time>
      </trkpt>
      <trkpt lat="45.23658" lon="5.74247">
        <ele>951.20001220703</ele>
        <time>2021-07-24T05:06:33.000Z</time>
      </trkpt>
      <trkpt lat="45.23662" lon="5.74246">
        <ele>950.59997558594</ele>
        <time>2021-07-24T05:06:35.000Z</time>
      </trkpt>
      <trkpt lat="45.2367" lon="5.74244">
        <ele>950.20001220703</ele>
        <time>2021-07-24T05:06:38.000Z</time>
      </trkpt>
      <trkpt lat="45.23678" lon="5.7424">
        <ele>949.20001220703</ele>
        <time>2021-07-24T05:06:41.000Z</time>
      </trkpt>
      <trkpt lat="45.23681" lon="5.74238">
        <ele>949.20001220703</ele>
        <time>2021-07-24T05:06:43.000Z</time>
      </trkpt>
      <trkpt lat="45.23686" lon="5.74234">
        <ele>948.20001220703</ele>
        <time>2021-07-24T05:06:46.000Z</time>
      </trkpt>
      <trkpt lat="45.23687" lon="5.74232">
        <ele>947.79998779297</ele>
        <time>2021-07-24T05:06:47.000Z</time>
      </trkpt>
      <trkpt lat="45.23691" lon="5.74228">
        <ele>946.79998779297</ele>
        <time>2021-07-24T05:06:50.000Z</time>
      </trkpt>
      <trkpt lat="45.23695" lon="5.74223">
        <ele>946</ele>
        <time>2021-07-24T05:06:53.000Z</time>
      </trkpt>
      <trkpt lat="45.23696" lon="5.74222">
        <ele>945.59997558594</ele>
        <time>2021-07-24T05:06:54.000Z</time>
      </trkpt>
      <trkpt lat="45.23696" lon="5.74219">
        <ele>944.79998779297</ele>
        <time>2021-07-24T05:06:57.000Z</time>
      </trkpt>
      <trkpt lat="45.23699" lon="5.74217">
        <ele>944.79998779297</ele>
        <time>2021-07-24T05:06:58.000Z</time>
      </trkpt>
      <trkpt lat="45.23701" lon="5.74215">
        <ele>944.59997558594</ele>
        <time>2021-07-24T05:06:59.000Z</time>
      </trkpt>
      <trkpt lat="45.23704" lon="5.74212">
        <ele>943.40002441406</ele>
        <time>2021-07-24T05:07:01.000Z</time>
      </trkpt>
      <trkpt lat="45.23709" lon="5.74209">
        <ele>942.79998779297</ele>
        <time>2021-07-24T05:07:04.000Z</time>
      </trkpt>
      <trkpt lat="45.23716" lon="5.74205">
        <ele>941.59997558594</ele>
        <time>2021-07-24T05:07:10.000Z</time>
      </trkpt>
      <trkpt lat="45.2372" lon="5.74203">
        <ele>940.59997558594</ele>
        <time>2021-07-24T05:07:12.000Z</time>
      </trkpt>
      <trkpt lat="45.23723" lon="5.74202">
        <ele>940.40002441406</ele>
        <time>2021-07-24T05:07:13.000Z</time>
      </trkpt>
      <trkpt lat="45.23727" lon="5.74198">
        <ele>940</ele>
        <time>2021-07-24T05:07:16.000Z</time>
      </trkpt>
      <trkpt lat="45.23733" lon="5.74195">
        <ele>939</ele>
        <time>2021-07-24T05:07:19.000Z</time>
      </trkpt>
      <trkpt lat="45.23734" lon="5.74194">
        <ele>938.20001220703</ele>
        <time>2021-07-24T05:07:20.000Z</time>
      </trkpt>
      <trkpt lat="45.23734" lon="5.74193">
        <ele>937.79998779297</ele>
        <time>2021-07-24T05:07:21.000Z</time>
      </trkpt>
      <trkpt lat="45.23735" lon="5.74191">
        <ele>937.40002441406</ele>
        <time>2021-07-24T05:07:23.000Z</time>
      </trkpt>
      <trkpt lat="45.23736" lon="5.7419">
        <ele>936.79998779297</ele>
        <time>2021-07-24T05:07:24.000Z</time>
      </trkpt>
      <trkpt lat="45.23739" lon="5.74186">
        <ele>936.59997558594</ele>
        <time>2021-07-24T05:07:26.000Z</time>
      </trkpt>
      <trkpt lat="45.23743" lon="5.74183">
        <ele>935.40002441406</ele>
        <time>2021-07-24T05:07:30.000Z</time>
      </trkpt>
      <trkpt lat="45.23742" lon="5.74183">
        <ele>935.40002441406</ele>
        <time>2021-07-24T05:07:31.000Z</time>
      </trkpt>
      <trkpt lat="45.23742" lon="5.74183">
        <ele>935</ele>
        <time>2021-07-24T05:07:32.000Z</time>
      </trkpt>
      <trkpt lat="45.23743" lon="5.74182">
        <ele>933.79998779297</ele>
        <time>2021-07-24T05:07:33.000Z</time>
      </trkpt>
      <trkpt lat="45.23743" lon="5.7418">
        <ele>933.59997558594</ele>
        <time>2021-07-24T05:07:34.000Z</time>
      </trkpt>
      <trkpt lat="45.23748" lon="5.74179">
        <ele>932.59997558594</ele>
        <time>2021-07-24T05:07:38.000Z</time>
      </trkpt>
      <trkpt lat="45.23751" lon="5.74177">
        <ele>931.20001220703</ele>
        <time>2021-07-24T05:07:40.000Z</time>
      </trkpt>
      <trkpt lat="45.23755" lon="5.74175">
        <ele>930.20001220703</ele>
        <time>2021-07-24T05:07:43.000Z</time>
      </trkpt>
      <trkpt lat="45.23756" lon="5.74175">
        <ele>930</ele>
        <time>2021-07-24T05:07:44.000Z</time>
      </trkpt>
      <trkpt lat="45.23761" lon="5.74172">
        <ele>929</ele>
        <time>2021-07-24T05:07:48.000Z</time>
      </trkpt>
      <trkpt lat="45.23762" lon="5.74171">
        <ele>929</ele>
        <time>2021-07-24T05:07:49.000Z</time>
      </trkpt>
      <trkpt lat="45.23763" lon="5.7417">
        <ele>928.79998779297</ele>
        <time>2021-07-24T05:07:50.000Z</time>
      </trkpt>
      <trkpt lat="45.23765" lon="5.74169">
        <ele>928.40002441406</ele>
        <time>2021-07-24T05:07:52.000Z</time>
      </trkpt>
      <trkpt lat="45.23766" lon="5.74168">
        <ele>928.20001220703</ele>
        <time>2021-07-24T05:07:53.000Z</time>
      </trkpt>
      <trkpt lat="45.23768" lon="5.74168">
        <ele>928</ele>
        <time>2021-07-24T05:07:54.000Z</time>
      </trkpt>
      <trkpt lat="45.23771" lon="5.74167">
        <ele>926.59997558594</ele>
        <time>2021-07-24T05:07:56.000Z</time>
      </trkpt>
      <trkpt lat="45.23773" lon="5.74166">
        <ele>926</ele>
        <time>2021-07-24T05:07:58.000Z</time>
      </trkpt>
      <trkpt lat="45.23781" lon="5.74164">
        <ele>924.79998779297</ele>
        <time>2021-07-24T05:08:02.000Z</time>
      </trkpt>
      <trkpt lat="45.23782" lon="5.74163">
        <ele>924.40002441406</ele>
        <time>2021-07-24T05:08:03.000Z</time>
      </trkpt>
      <trkpt lat="45.23785" lon="5.74162">
        <ele>924.40002441406</ele>
        <time>2021-07-24T05:08:04.000Z</time>
      </trkpt>
      <trkpt lat="45.23789" lon="5.74159">
        <ele>923.79998779297</ele>
        <time>2021-07-24T05:08:06.000Z</time>
      </trkpt>
      <trkpt lat="45.23791" lon="5.74159">
        <ele>923.40002441406</ele>
        <time>2021-07-24T05:08:07.000Z</time>
      </trkpt>
      <trkpt lat="45.23791" lon="5.74158">
        <ele>922.79998779297</ele>
        <time>2021-07-24T05:08:08.000Z</time>
      </trkpt>
      <trkpt lat="45.23792" lon="5.74158">
        <ele>922.59997558594</ele>
        <time>2021-07-24T05:08:09.000Z</time>
      </trkpt>
      <trkpt lat="45.23793" lon="5.74158">
        <ele>922.40002441406</ele>
        <time>2021-07-24T05:08:10.000Z</time>
      </trkpt>
      <trkpt lat="45.23793" lon="5.74157">
        <ele>922.40002441406</ele>
        <time>2021-07-24T05:08:11.000Z</time>
      </trkpt>
      <trkpt lat="45.23794" lon="5.74156">
        <ele>921.59997558594</ele>
        <time>2021-07-24T05:08:12.000Z</time>
      </trkpt>
      <trkpt lat="45.23794" lon="5.74155">
        <ele>921.59997558594</ele>
        <time>2021-07-24T05:08:13.000Z</time>
      </trkpt>
      <trkpt lat="45.23795" lon="5.74153">
        <ele>920.79998779297</ele>
        <time>2021-07-24T05:08:14.000Z</time>
      </trkpt>
      <trkpt lat="45.23797" lon="5.74152">
        <ele>920.40002441406</ele>
        <time>2021-07-24T05:08:15.000Z</time>
      </trkpt>
      <trkpt lat="45.238" lon="5.74151">
        <ele>920.40002441406</ele>
        <time>2021-07-24T05:08:17.000Z</time>
      </trkpt>
      <trkpt lat="45.23801" lon="5.74149">
        <ele>920</ele>
        <time>2021-07-24T05:08:19.000Z</time>
      </trkpt>
      <trkpt lat="45.23803" lon="5.74145">
        <ele>919.79998779297</ele>
        <time>2021-07-24T05:08:21.000Z</time>
      </trkpt>
      <trkpt lat="45.23806" lon="5.74143">
        <ele>918.59997558594</ele>
        <time>2021-07-24T05:08:23.000Z</time>
      </trkpt>
      <trkpt lat="45.23808" lon="5.74142">
        <ele>918.20001220703</ele>
        <time>2021-07-24T05:08:24.000Z</time>
      </trkpt>
      <trkpt lat="45.23814" lon="5.74143">
        <ele>917.59997558594</ele>
        <time>2021-07-24T05:08:26.000Z</time>
      </trkpt>
      <trkpt lat="45.23816" lon="5.74143">
        <ele>917.20001220703</ele>
        <time>2021-07-24T05:08:27.000Z</time>
      </trkpt>
      <trkpt lat="45.23822" lon="5.7414">
        <ele>916.79998779297</ele>
        <time>2021-07-24T05:08:30.000Z</time>
      </trkpt>
      <trkpt lat="45.23823" lon="5.74139">
        <ele>916.59997558594</ele>
        <time>2021-07-24T05:08:32.000Z</time>
      </trkpt>
      <trkpt lat="45.23825" lon="5.74138">
        <ele>915.79998779297</ele>
        <time>2021-07-24T05:08:34.000Z</time>
      </trkpt>
      <trkpt lat="45.23826" lon="5.74137">
        <ele>915.59997558594</ele>
        <time>2021-07-24T05:08:35.000Z</time>
      </trkpt>
      <trkpt lat="45.23827" lon="5.74137">
        <ele>914.40002441406</ele>
        <time>2021-07-24T05:08:36.000Z</time>
      </trkpt>
      <trkpt lat="45.2383" lon="5.74134">
        <ele>914</ele>
        <time>2021-07-24T05:08:38.000Z</time>
      </trkpt>
      <trkpt lat="45.23836" lon="5.74133">
        <ele>913.40002441406</ele>
        <time>2021-07-24T05:08:41.000Z</time>
      </trkpt>
      <trkpt lat="45.23839" lon="5.74133">
        <ele>913</ele>
        <time>2021-07-24T05:08:43.000Z</time>
      </trkpt>
      <trkpt lat="45.23841" lon="5.74131">
        <ele>912</ele>
        <time>2021-07-24T05:08:45.000Z</time>
      </trkpt>
      <trkpt lat="45.23841" lon="5.74131">
        <ele>911.79998779297</ele>
        <time>2021-07-24T05:08:46.000Z</time>
      </trkpt>
      <trkpt lat="45.23841" lon="5.7413">
        <ele>911.40002441406</ele>
        <time>2021-07-24T05:08:47.000Z</time>
      </trkpt>
      <trkpt lat="45.23843" lon="5.74128">
        <ele>910.79998779297</ele>
        <time>2021-07-24T05:08:49.000Z</time>
      </trkpt>
      <trkpt lat="45.23844" lon="5.74127">
        <ele>910</ele>
        <time>2021-07-24T05:08:53.000Z</time>
      </trkpt>
      <trkpt lat="45.23843" lon="5.74126">
        <ele>909.79998779297</ele>
        <time>2021-07-24T05:08:54.000Z</time>
      </trkpt>
      <trkpt lat="45.23843" lon="5.74126">
        <ele>909.79998779297</ele>
        <time>2021-07-24T05:08:56.000Z</time>
      </trkpt>
      <trkpt lat="45.23843" lon="5.74128">
        <ele>909.59997558594</ele>
        <time>2021-07-24T05:08:58.000Z</time>
      </trkpt>
      <trkpt lat="45.23843" lon="5.74129">
        <ele>909.59997558594</ele>
        <time>2021-07-24T05:08:59.000Z</time>
      </trkpt>
      <trkpt lat="45.23838" lon="5.7413">
        <ele>910</ele>
        <time>2021-07-24T05:09:03.000Z</time>
      </trkpt>
      <trkpt lat="45.23836" lon="5.7413">
        <ele>910</ele>
        <time>2021-07-24T05:09:04.000Z</time>
      </trkpt>
      <trkpt lat="45.23839" lon="5.74132">
        <ele>910</ele>
        <time>2021-07-24T05:09:09.000Z</time>
      </trkpt>
      <trkpt lat="45.23843" lon="5.74131">
        <ele>910.20001220703</ele>
        <time>2021-07-24T05:09:16.000Z</time>
      </trkpt>
      <trkpt lat="45.23845" lon="5.74126">
        <ele>909.40002441406</ele>
        <time>2021-07-24T05:09:19.000Z</time>
      </trkpt>
      <trkpt lat="45.23847" lon="5.74125">
        <ele>909</ele>
        <time>2021-07-24T05:09:21.000Z</time>
      </trkpt>
      <trkpt lat="45.23849" lon="5.74125">
        <ele>908.79998779297</ele>
        <time>2021-07-24T05:09:22.000Z</time>
      </trkpt>
      <trkpt lat="45.2385" lon="5.74124">
        <ele>908.40002441406</ele>
        <time>2021-07-24T05:09:23.000Z</time>
      </trkpt>
      <trkpt lat="45.2385" lon="5.74121">
        <ele>907.79998779297</ele>
        <time>2021-07-24T05:09:27.000Z</time>
      </trkpt>
      <trkpt lat="45.2385" lon="5.74121">
        <ele>907.40002441406</ele>
        <time>2021-07-24T05:09:28.000Z</time>
      </trkpt>
      <trkpt lat="45.23851" lon="5.74118">
        <ele>906.40002441406</ele>
        <time>2021-07-24T05:09:30.000Z</time>
      </trkpt>
      <trkpt lat="45.23852" lon="5.74116">
        <ele>906.40002441406</ele>
        <time>2021-07-24T05:09:31.000Z</time>
      </trkpt>
      <trkpt lat="45.2385" lon="5.74112">
        <ele>905.79998779297</ele>
        <time>2021-07-24T05:09:33.000Z</time>
      </trkpt>
      <trkpt lat="45.2385" lon="5.74108">
        <ele>905.59997558594</ele>
        <time>2021-07-24T05:09:35.000Z</time>
      </trkpt>
      <trkpt lat="45.2385" lon="5.74107">
        <ele>905.40002441406</ele>
        <time>2021-07-24T05:09:36.000Z</time>
      </trkpt>
      <trkpt lat="45.23848" lon="5.74106">
        <ele>905.40002441406</ele>
        <time>2021-07-24T05:09:37.000Z</time>
      </trkpt>
      <trkpt lat="45.23849" lon="5.74106">
        <ele>905.79998779297</ele>
        <time>2021-07-24T05:09:41.000Z</time>
      </trkpt>
      <trkpt lat="45.23849" lon="5.74106">
        <ele>905.79998779297</ele>
        <time>2021-07-24T05:09:43.000Z</time>
      </trkpt>
      <trkpt lat="45.23852" lon="5.74104">
        <ele>905.20001220703</ele>
        <time>2021-07-24T05:09:46.000Z</time>
      </trkpt>
      <trkpt lat="45.23854" lon="5.74102">
        <ele>904.59997558594</ele>
        <time>2021-07-24T05:09:48.000Z</time>
      </trkpt>
      <trkpt lat="45.23856" lon="5.74099">
        <ele>904.20001220703</ele>
        <time>2021-07-24T05:09:51.000Z</time>
      </trkpt>
      <trkpt lat="45.23857" lon="5.74098">
        <ele>904.20001220703</ele>
        <time>2021-07-24T05:09:52.000Z</time>
      </trkpt>
      <trkpt lat="45.23858" lon="5.74096">
        <ele>904</ele>
        <time>2021-07-24T05:09:53.000Z</time>
      </trkpt>
      <trkpt lat="45.23862" lon="5.74091">
        <ele>903</ele>
        <time>2021-07-24T05:09:56.000Z</time>
      </trkpt>
      <trkpt lat="45.23865" lon="5.74085">
        <ele>902.79998779297</ele>
        <time>2021-07-24T05:09:58.000Z</time>
      </trkpt>
      <trkpt lat="45.23866" lon="5.74082">
        <ele>902</ele>
        <time>2021-07-24T05:09:59.000Z</time>
      </trkpt>
      <trkpt lat="45.23869" lon="5.74074">
        <ele>900.40002441406</ele>
        <time>2021-07-24T05:10:02.000Z</time>
      </trkpt>
      <trkpt lat="45.23871" lon="5.7407">
        <ele>900.20001220703</ele>
        <time>2021-07-24T05:10:04.000Z</time>
      </trkpt>
      <trkpt lat="45.23879" lon="5.74068">
        <ele>899.20001220703</ele>
        <time>2021-07-24T05:10:08.000Z</time>
      </trkpt>
      <trkpt lat="45.23883" lon="5.74068">
        <ele>898.40002441406</ele>
        <time>2021-07-24T05:10:10.000Z</time>
      </trkpt>
      <trkpt lat="45.23885" lon="5.74067">
        <ele>897.59997558594</ele>
        <time>2021-07-24T05:10:11.000Z</time>
      </trkpt>
      <trkpt lat="45.23887" lon="5.74067">
        <ele>897.59997558594</ele>
        <time>2021-07-24T05:10:12.000Z</time>
      </trkpt>
      <trkpt lat="45.23894" lon="5.74067">
        <ele>897</ele>
        <time>2021-07-24T05:10:15.000Z</time>
      </trkpt>
      <trkpt lat="45.23896" lon="5.74067">
        <ele>896.40002441406</ele>
        <time>2021-07-24T05:10:16.000Z</time>
      </trkpt>
      <trkpt lat="45.239" lon="5.74068">
        <ele>894</ele>
        <time>2021-07-24T05:10:19.000Z</time>
      </trkpt>
      <trkpt lat="45.23903" lon="5.74068">
        <ele>893.79998779297</ele>
        <time>2021-07-24T05:10:21.000Z</time>
      </trkpt>
      <trkpt lat="45.23904" lon="5.74069">
        <ele>893.40002441406</ele>
        <time>2021-07-24T05:10:22.000Z</time>
      </trkpt>
      <trkpt lat="45.23904" lon="5.74071">
        <ele>892.59997558594</ele>
        <time>2021-07-24T05:10:23.000Z</time>
      </trkpt>
      <trkpt lat="45.23906" lon="5.74073">
        <ele>892</ele>
        <time>2021-07-24T05:10:25.000Z</time>
      </trkpt>
      <trkpt lat="45.23909" lon="5.74076">
        <ele>891.59997558594</ele>
        <time>2021-07-24T05:10:27.000Z</time>
      </trkpt>
      <trkpt lat="45.23909" lon="5.74079">
        <ele>890.79998779297</ele>
        <time>2021-07-24T05:10:29.000Z</time>
      </trkpt>
      <trkpt lat="45.23909" lon="5.7408">
        <ele>890.40002441406</ele>
        <time>2021-07-24T05:10:30.000Z</time>
      </trkpt>
      <trkpt lat="45.2391" lon="5.74083">
        <ele>889</ele>
        <time>2021-07-24T05:10:32.000Z</time>
      </trkpt>
      <trkpt lat="45.23912" lon="5.74085">
        <ele>887.59997558594</ele>
        <time>2021-07-24T05:10:34.000Z</time>
      </trkpt>
      <trkpt lat="45.23914" lon="5.74086">
        <ele>887</ele>
        <time>2021-07-24T05:10:36.000Z</time>
      </trkpt>
      <trkpt lat="45.23914" lon="5.74087">
        <ele>886.59997558594</ele>
        <time>2021-07-24T05:10:37.000Z</time>
      </trkpt>
      <trkpt lat="45.23913" lon="5.74089">
        <ele>886.20001220703</ele>
        <time>2021-07-24T05:10:39.000Z</time>
      </trkpt>
      <trkpt lat="45.23914" lon="5.74089">
        <ele>885.59997558594</ele>
        <time>2021-07-24T05:10:41.000Z</time>
      </trkpt>
      <trkpt lat="45.23914" lon="5.74089">
        <ele>885</ele>
        <time>2021-07-24T05:10:42.000Z</time>
      </trkpt>
      <trkpt lat="45.23915" lon="5.74089">
        <ele>884.79998779297</ele>
        <time>2021-07-24T05:10:43.000Z</time>
      </trkpt>
      <trkpt lat="45.23915" lon="5.74089">
        <ele>884.20001220703</ele>
        <time>2021-07-24T05:10:46.000Z</time>
      </trkpt>
      <trkpt lat="45.23916" lon="5.74089">
        <ele>883.40002441406</ele>
        <time>2021-07-24T05:10:47.000Z</time>
      </trkpt>
      <trkpt lat="45.23919" lon="5.74089">
        <ele>883</ele>
        <time>2021-07-24T05:10:49.000Z</time>
      </trkpt>
      <trkpt lat="45.2392" lon="5.74089">
        <ele>883</ele>
        <time>2021-07-24T05:10:50.000Z</time>
      </trkpt>
      <trkpt lat="45.23923" lon="5.74088">
        <ele>882.40002441406</ele>
        <time>2021-07-24T05:10:52.000Z</time>
      </trkpt>
      <trkpt lat="45.23926" lon="5.74089">
        <ele>882.20001220703</ele>
        <time>2021-07-24T05:10:53.000Z</time>
      </trkpt>
      <trkpt lat="45.23929" lon="5.7409">
        <ele>881.20001220703</ele>
        <time>2021-07-24T05:10:54.000Z</time>
      </trkpt>
      <trkpt lat="45.23934" lon="5.7409">
        <ele>880.40002441406</ele>
        <time>2021-07-24T05:10:56.000Z</time>
      </trkpt>
      <trkpt lat="45.23936" lon="5.7409">
        <ele>880.20001220703</ele>
        <time>2021-07-24T05:10:57.000Z</time>
      </trkpt>
      <trkpt lat="45.2394" lon="5.74091">
        <ele>878.20001220703</ele>
        <time>2021-07-24T05:11:00.000Z</time>
      </trkpt>
      <trkpt lat="45.23941" lon="5.74091">
        <ele>878</ele>
        <time>2021-07-24T05:11:01.000Z</time>
      </trkpt>
      <trkpt lat="45.23942" lon="5.74091">
        <ele>878</ele>
        <time>2021-07-24T05:11:02.000Z</time>
      </trkpt>
      <trkpt lat="45.23944" lon="5.7409">
        <ele>877.79998779297</ele>
        <time>2021-07-24T05:11:04.000Z</time>
      </trkpt>
      <trkpt lat="45.23944" lon="5.74089">
        <ele>877.59997558594</ele>
        <time>2021-07-24T05:11:05.000Z</time>
      </trkpt>
      <trkpt lat="45.23945" lon="5.74088">
        <ele>877</ele>
        <time>2021-07-24T05:11:06.000Z</time>
      </trkpt>
      <trkpt lat="45.23951" lon="5.74085">
        <ele>875.79998779297</ele>
        <time>2021-07-24T05:11:09.000Z</time>
      </trkpt>
      <trkpt lat="45.23954" lon="5.74081">
        <ele>874.79998779297</ele>
        <time>2021-07-24T05:11:13.000Z</time>
      </trkpt>
      <trkpt lat="45.23955" lon="5.74081">
        <ele>874.59997558594</ele>
        <time>2021-07-24T05:11:14.000Z</time>
      </trkpt>
      <trkpt lat="45.23957" lon="5.7408">
        <ele>873.40002441406</ele>
        <time>2021-07-24T05:11:15.000Z</time>
      </trkpt>
      <trkpt lat="45.23963" lon="5.74078">
        <ele>873</ele>
        <time>2021-07-24T05:11:18.000Z</time>
      </trkpt>
      <trkpt lat="45.23965" lon="5.74076">
        <ele>872.20001220703</ele>
        <time>2021-07-24T05:11:19.000Z</time>
      </trkpt>
      <trkpt lat="45.23967" lon="5.74075">
        <ele>872.40002441406</ele>
        <time>2021-07-24T05:11:20.000Z</time>
      </trkpt>
      <trkpt lat="45.23971" lon="5.7407">
        <ele>870.79998779297</ele>
        <time>2021-07-24T05:11:23.000Z</time>
      </trkpt>
      <trkpt lat="45.23973" lon="5.74068">
        <ele>870</ele>
        <time>2021-07-24T05:11:25.000Z</time>
      </trkpt>
      <trkpt lat="45.23975" lon="5.74067">
        <ele>869.59997558594</ele>
        <time>2021-07-24T05:11:26.000Z</time>
      </trkpt>
      <trkpt lat="45.23978" lon="5.74063">
        <ele>868.40002441406</ele>
        <time>2021-07-24T05:11:29.000Z</time>
      </trkpt>
      <trkpt lat="45.23983" lon="5.74059">
        <ele>868.20001220703</ele>
        <time>2021-07-24T05:11:31.000Z</time>
      </trkpt>
      <trkpt lat="45.23987" lon="5.74057">
        <ele>868</ele>
        <time>2021-07-24T05:11:32.000Z</time>
      </trkpt>
      <trkpt lat="45.23993" lon="5.7405">
        <ele>867</ele>
        <time>2021-07-24T05:11:35.000Z</time>
      </trkpt>
      <trkpt lat="45.23998" lon="5.74046">
        <ele>866</ele>
        <time>2021-07-24T05:11:37.000Z</time>
      </trkpt>
      <trkpt lat="45.23999" lon="5.74045">
        <ele>866</ele>
        <time>2021-07-24T05:11:38.000Z</time>
      </trkpt>
      <trkpt lat="45.24004" lon="5.74041">
        <ele>865.20001220703</ele>
        <time>2021-07-24T05:11:40.000Z</time>
      </trkpt>
      <trkpt lat="45.24005" lon="5.74039">
        <ele>864.59997558594</ele>
        <time>2021-07-24T05:11:41.000Z</time>
      </trkpt>
      <trkpt lat="45.24007" lon="5.74038">
        <ele>864.59997558594</ele>
        <time>2021-07-24T05:11:42.000Z</time>
      </trkpt>
      <trkpt lat="45.24009" lon="5.74038">
        <ele>864.59997558594</ele>
        <time>2021-07-24T05:11:43.000Z</time>
      </trkpt>
      <trkpt lat="45.24011" lon="5.74036">
        <ele>863.40002441406</ele>
        <time>2021-07-24T05:11:45.000Z</time>
      </trkpt>
      <trkpt lat="45.24012" lon="5.74035">
        <ele>863.20001220703</ele>
        <time>2021-07-24T05:11:46.000Z</time>
      </trkpt>
      <trkpt lat="45.24015" lon="5.74031">
        <ele>862.40002441406</ele>
        <time>2021-07-24T05:11:48.000Z</time>
      </trkpt>
      <trkpt lat="45.24017" lon="5.7403">
        <ele>862.20001220703</ele>
        <time>2021-07-24T05:11:49.000Z</time>
      </trkpt>
      <trkpt lat="45.24022" lon="5.74025">
        <ele>861</ele>
        <time>2021-07-24T05:11:53.000Z</time>
      </trkpt>
      <trkpt lat="45.2403" lon="5.74018">
        <ele>859.59997558594</ele>
        <time>2021-07-24T05:11:58.000Z</time>
      </trkpt>
      <trkpt lat="45.24032" lon="5.74018">
        <ele>859.40002441406</ele>
        <time>2021-07-24T05:11:59.000Z</time>
      </trkpt>
      <trkpt lat="45.24036" lon="5.74013">
        <ele>858.40002441406</ele>
        <time>2021-07-24T05:12:02.000Z</time>
      </trkpt>
      <trkpt lat="45.24042" lon="5.74008">
        <ele>857.59997558594</ele>
        <time>2021-07-24T05:12:05.000Z</time>
      </trkpt>
      <trkpt lat="45.24046" lon="5.74005">
        <ele>857.20001220703</ele>
        <time>2021-07-24T05:12:07.000Z</time>
      </trkpt>
      <trkpt lat="45.24049" lon="5.73998">
        <ele>856</ele>
        <time>2021-07-24T05:12:10.000Z</time>
      </trkpt>
      <trkpt lat="45.24053" lon="5.73994">
        <ele>855.59997558594</ele>
        <time>2021-07-24T05:12:13.000Z</time>
      </trkpt>
      <trkpt lat="45.24055" lon="5.73992">
        <ele>854.79998779297</ele>
        <time>2021-07-24T05:12:14.000Z</time>
      </trkpt>
      <trkpt lat="45.24055" lon="5.73991">
        <ele>854.40002441406</ele>
        <time>2021-07-24T05:12:15.000Z</time>
      </trkpt>
      <trkpt lat="45.24057" lon="5.73988">
        <ele>853.59997558594</ele>
        <time>2021-07-24T05:12:18.000Z</time>
      </trkpt>
      <trkpt lat="45.24058" lon="5.73983">
        <ele>852.79998779297</ele>
        <time>2021-07-24T05:12:21.000Z</time>
      </trkpt>
      <trkpt lat="45.2406" lon="5.73979">
        <ele>852</ele>
        <time>2021-07-24T05:12:23.000Z</time>
      </trkpt>
      <trkpt lat="45.24066" lon="5.73972">
        <ele>851</ele>
        <time>2021-07-24T05:12:27.000Z</time>
      </trkpt>
      <trkpt lat="45.24071" lon="5.73965">
        <ele>850</ele>
        <time>2021-07-24T05:12:31.000Z</time>
      </trkpt>
      <trkpt lat="45.24074" lon="5.73962">
        <ele>849.40002441406</ele>
        <time>2021-07-24T05:12:33.000Z</time>
      </trkpt>
      <trkpt lat="45.24079" lon="5.73959">
        <ele>848.79998779297</ele>
        <time>2021-07-24T05:12:35.000Z</time>
      </trkpt>
      <trkpt lat="45.2408" lon="5.73958">
        <ele>847.59997558594</ele>
        <time>2021-07-24T05:12:36.000Z</time>
      </trkpt>
      <trkpt lat="45.24088" lon="5.73952">
        <ele>846.59997558594</ele>
        <time>2021-07-24T05:12:40.000Z</time>
      </trkpt>
      <trkpt lat="45.24089" lon="5.73951">
        <ele>846.40002441406</ele>
        <time>2021-07-24T05:12:41.000Z</time>
      </trkpt>
      <trkpt lat="45.24095" lon="5.73948">
        <ele>845.40002441406</ele>
        <time>2021-07-24T05:12:44.000Z</time>
      </trkpt>
      <trkpt lat="45.24096" lon="5.73947">
        <ele>845.20001220703</ele>
        <time>2021-07-24T05:12:45.000Z</time>
      </trkpt>
      <trkpt lat="45.24098" lon="5.73943">
        <ele>844.79998779297</ele>
        <time>2021-07-24T05:12:47.000Z</time>
      </trkpt>
      <trkpt lat="45.24099" lon="5.73941">
        <ele>844.20001220703</ele>
        <time>2021-07-24T05:12:48.000Z</time>
      </trkpt>
      <trkpt lat="45.24108" lon="5.73935">
        <ele>843.20001220703</ele>
        <time>2021-07-24T05:12:52.000Z</time>
      </trkpt>
      <trkpt lat="45.24114" lon="5.73935">
        <ele>843</ele>
        <time>2021-07-24T05:12:54.000Z</time>
      </trkpt>
      <trkpt lat="45.24125" lon="5.7393">
        <ele>842</ele>
        <time>2021-07-24T05:12:59.000Z</time>
      </trkpt>
      <trkpt lat="45.24129" lon="5.7393">
        <ele>840.59997558594</ele>
        <time>2021-07-24T05:13:02.000Z</time>
      </trkpt>
      <trkpt lat="45.24131" lon="5.7393">
        <ele>840.20001220703</ele>
        <time>2021-07-24T05:13:03.000Z</time>
      </trkpt>
      <trkpt lat="45.24135" lon="5.73931">
        <ele>839.20001220703</ele>
        <time>2021-07-24T05:13:05.000Z</time>
      </trkpt>
      <trkpt lat="45.24137" lon="5.73931">
        <ele>839.20001220703</ele>
        <time>2021-07-24T05:13:06.000Z</time>
      </trkpt>
      <trkpt lat="45.24138" lon="5.73929">
        <ele>839.20001220703</ele>
        <time>2021-07-24T05:13:07.000Z</time>
      </trkpt>
      <trkpt lat="45.24142" lon="5.73928">
        <ele>838.20001220703</ele>
        <time>2021-07-24T05:13:09.000Z</time>
      </trkpt>
      <trkpt lat="45.24149" lon="5.73928">
        <ele>837.20001220703</ele>
        <time>2021-07-24T05:13:12.000Z</time>
      </trkpt>
      <trkpt lat="45.24152" lon="5.73927">
        <ele>837</ele>
        <time>2021-07-24T05:13:13.000Z</time>
      </trkpt>
      <trkpt lat="45.24155" lon="5.73927">
        <ele>836.59997558594</ele>
        <time>2021-07-24T05:13:15.000Z</time>
      </trkpt>
      <trkpt lat="45.24156" lon="5.73928">
        <ele>836.20001220703</ele>
        <time>2021-07-24T05:13:16.000Z</time>
      </trkpt>
      <trkpt lat="45.24158" lon="5.73929">
        <ele>836</ele>
        <time>2021-07-24T05:13:17.000Z</time>
      </trkpt>
      <trkpt lat="45.24161" lon="5.7393">
        <ele>835.20001220703</ele>
        <time>2021-07-24T05:13:19.000Z</time>
      </trkpt>
      <trkpt lat="45.24163" lon="5.73931">
        <ele>835</ele>
        <time>2021-07-24T05:13:20.000Z</time>
      </trkpt>
      <trkpt lat="45.24166" lon="5.73933">
        <ele>834.40002441406</ele>
        <time>2021-07-24T05:13:23.000Z</time>
      </trkpt>
      <trkpt lat="45.24171" lon="5.73934">
        <ele>833.59997558594</ele>
        <time>2021-07-24T05:13:26.000Z</time>
      </trkpt>
      <trkpt lat="45.24173" lon="5.73935">
        <ele>833.20001220703</ele>
        <time>2021-07-24T05:13:27.000Z</time>
      </trkpt>
      <trkpt lat="45.24179" lon="5.73937">
        <ele>832.79998779297</ele>
        <time>2021-07-24T05:13:30.000Z</time>
      </trkpt>
      <trkpt lat="45.2418" lon="5.73938">
        <ele>832.79998779297</ele>
        <time>2021-07-24T05:13:31.000Z</time>
      </trkpt>
      <trkpt lat="45.24185" lon="5.73939">
        <ele>832.79998779297</ele>
        <time>2021-07-24T05:13:33.000Z</time>
      </trkpt>
      <trkpt lat="45.24192" lon="5.73945">
        <ele>832.59997558594</ele>
        <time>2021-07-24T05:13:36.000Z</time>
      </trkpt>
      <trkpt lat="45.242" lon="5.7395">
        <ele>832.40002441406</ele>
        <time>2021-07-24T05:13:39.000Z</time>
      </trkpt>
      <trkpt lat="45.24205" lon="5.73954">
        <ele>831.79998779297</ele>
        <time>2021-07-24T05:13:42.000Z</time>
      </trkpt>
      <trkpt lat="45.2421" lon="5.73961">
        <ele>831.40002441406</ele>
        <time>2021-07-24T05:13:45.000Z</time>
      </trkpt>
      <trkpt lat="45.24211" lon="5.73963">
        <ele>831.40002441406</ele>
        <time>2021-07-24T05:13:46.000Z</time>
      </trkpt>
      <trkpt lat="45.24212" lon="5.73966">
        <ele>831.20001220703</ele>
        <time>2021-07-24T05:13:47.000Z</time>
      </trkpt>
      <trkpt lat="45.24217" lon="5.73972">
        <ele>830.59997558594</ele>
        <time>2021-07-24T05:13:49.000Z</time>
      </trkpt>
      <trkpt lat="45.24219" lon="5.73978">
        <ele>830.40002441406</ele>
        <time>2021-07-24T05:13:51.000Z</time>
      </trkpt>
      <trkpt lat="45.24218" lon="5.73983">
        <ele>830.20001220703</ele>
        <time>2021-07-24T05:13:53.000Z</time>
      </trkpt>
      <trkpt lat="45.24219" lon="5.73986">
        <ele>829.59997558594</ele>
        <time>2021-07-24T05:13:54.000Z</time>
      </trkpt>
      <trkpt lat="45.24223" lon="5.7399">
        <ele>829.40002441406</ele>
        <time>2021-07-24T05:13:56.000Z</time>
      </trkpt>
      <trkpt lat="45.24224" lon="5.73994">
        <ele>828.79998779297</ele>
        <time>2021-07-24T05:13:57.000Z</time>
      </trkpt>
      <trkpt lat="45.24225" lon="5.73996">
        <ele>828.79998779297</ele>
        <time>2021-07-24T05:13:58.000Z</time>
      </trkpt>
      <trkpt lat="45.24227" lon="5.73998">
        <ele>828.59997558594</ele>
        <time>2021-07-24T05:13:59.000Z</time>
      </trkpt>
      <trkpt lat="45.2423" lon="5.74004">
        <ele>828.40002441406</ele>
        <time>2021-07-24T05:14:02.000Z</time>
      </trkpt>
      <trkpt lat="45.24231" lon="5.74009">
        <ele>828.40002441406</ele>
        <time>2021-07-24T05:14:04.000Z</time>
      </trkpt>
      <trkpt lat="45.24232" lon="5.74011">
        <ele>828.40002441406</ele>
        <time>2021-07-24T05:14:05.000Z</time>
      </trkpt>
      <trkpt lat="45.24237" lon="5.74017">
        <ele>828.20001220703</ele>
        <time>2021-07-24T05:14:09.000Z</time>
      </trkpt>
      <trkpt lat="45.24237" lon="5.74019">
        <ele>827.79998779297</ele>
        <time>2021-07-24T05:14:10.000Z</time>
      </trkpt>
      <trkpt lat="45.2424" lon="5.74021">
        <ele>827.79998779297</ele>
        <time>2021-07-24T05:14:11.000Z</time>
      </trkpt>
      <trkpt lat="45.2425" lon="5.74028">
        <ele>827.59997558594</ele>
        <time>2021-07-24T05:14:15.000Z</time>
      </trkpt>
      <trkpt lat="45.24256" lon="5.7403">
        <ele>827</ele>
        <time>2021-07-24T05:14:18.000Z</time>
      </trkpt>
      <trkpt lat="45.24257" lon="5.74032">
        <ele>826.40002441406</ele>
        <time>2021-07-24T05:14:19.000Z</time>
      </trkpt>
      <trkpt lat="45.24258" lon="5.74033">
        <ele>826.40002441406</ele>
        <time>2021-07-24T05:14:20.000Z</time>
      </trkpt>
      <trkpt lat="45.24261" lon="5.74036">
        <ele>826.20001220703</ele>
        <time>2021-07-24T05:14:23.000Z</time>
      </trkpt>
      <trkpt lat="45.24263" lon="5.7404">
        <ele>826</ele>
        <time>2021-07-24T05:14:25.000Z</time>
      </trkpt>
      <trkpt lat="45.24271" lon="5.74047">
        <ele>825.20001220703</ele>
        <time>2021-07-24T05:14:28.000Z</time>
      </trkpt>
      <trkpt lat="45.24277" lon="5.74053">
        <ele>824.59997558594</ele>
        <time>2021-07-24T05:14:31.000Z</time>
      </trkpt>
      <trkpt lat="45.24279" lon="5.74054">
        <ele>824</ele>
        <time>2021-07-24T05:14:32.000Z</time>
      </trkpt>
      <trkpt lat="45.2428" lon="5.74055">
        <ele>823.20001220703</ele>
        <time>2021-07-24T05:14:33.000Z</time>
      </trkpt>
      <trkpt lat="45.24282" lon="5.74055">
        <ele>822.79998779297</ele>
        <time>2021-07-24T05:14:34.000Z</time>
      </trkpt>
      <trkpt lat="45.24283" lon="5.74054">
        <ele>822.79998779297</ele>
        <time>2021-07-24T05:14:35.000Z</time>
      </trkpt>
      <trkpt lat="45.24285" lon="5.74054">
        <ele>822.79998779297</ele>
        <time>2021-07-24T05:14:36.000Z</time>
      </trkpt>
      <trkpt lat="45.24286" lon="5.74053">
        <ele>822</ele>
        <time>2021-07-24T05:14:37.000Z</time>
      </trkpt>
      <trkpt lat="45.24287" lon="5.74053">
        <ele>821.20001220703</ele>
        <time>2021-07-24T05:14:38.000Z</time>
      </trkpt>
      <trkpt lat="45.2429" lon="5.74053">
        <ele>820.59997558594</ele>
        <time>2021-07-24T05:14:40.000Z</time>
      </trkpt>
      <trkpt lat="45.24295" lon="5.74057">
        <ele>820</ele>
        <time>2021-07-24T05:14:42.000Z</time>
      </trkpt>
      <trkpt lat="45.24297" lon="5.74058">
        <ele>819.59997558594</ele>
        <time>2021-07-24T05:14:43.000Z</time>
      </trkpt>
      <trkpt lat="45.24305" lon="5.74064">
        <ele>819.20001220703</ele>
        <time>2021-07-24T05:14:46.000Z</time>
      </trkpt>
      <trkpt lat="45.24308" lon="5.74067">
        <ele>818.79998779297</ele>
        <time>2021-07-24T05:14:47.000Z</time>
      </trkpt>
      <trkpt lat="45.2431" lon="5.7407">
        <ele>818.40002441406</ele>
        <time>2021-07-24T05:14:48.000Z</time>
      </trkpt>
      <trkpt lat="45.24316" lon="5.74075">
        <ele>817.59997558594</ele>
        <time>2021-07-24T05:14:50.000Z</time>
      </trkpt>
      <trkpt lat="45.24321" lon="5.7408">
        <ele>816.59997558594</ele>
        <time>2021-07-24T05:14:52.000Z</time>
      </trkpt>
      <trkpt lat="45.24326" lon="5.74086">
        <ele>816.40002441406</ele>
        <time>2021-07-24T05:14:54.000Z</time>
      </trkpt>
      <trkpt lat="45.24331" lon="5.7409">
        <ele>815.20001220703</ele>
        <time>2021-07-24T05:14:56.000Z</time>
      </trkpt>
      <trkpt lat="45.24335" lon="5.74094">
        <ele>814.59997558594</ele>
        <time>2021-07-24T05:14:58.000Z</time>
      </trkpt>
      <trkpt lat="45.24335" lon="5.74097">
        <ele>814</ele>
        <time>2021-07-24T05:14:59.000Z</time>
      </trkpt>
      <trkpt lat="45.24336" lon="5.74099">
        <ele>814</ele>
        <time>2021-07-24T05:15:00.000Z</time>
      </trkpt>
      <trkpt lat="45.2434" lon="5.74103">
        <ele>813.40002441406</ele>
        <time>2021-07-24T05:15:02.000Z</time>
      </trkpt>
      <trkpt lat="45.2434" lon="5.74105">
        <ele>813</ele>
        <time>2021-07-24T05:15:03.000Z</time>
      </trkpt>
      <trkpt lat="45.24341" lon="5.74106">
        <ele>812.20001220703</ele>
        <time>2021-07-24T05:15:04.000Z</time>
      </trkpt>
      <trkpt lat="45.24342" lon="5.74108">
        <ele>811.20001220703</ele>
        <time>2021-07-24T05:15:05.000Z</time>
      </trkpt>
      <trkpt lat="45.24347" lon="5.74114">
        <ele>810.79998779297</ele>
        <time>2021-07-24T05:15:08.000Z</time>
      </trkpt>
      <trkpt lat="45.24348" lon="5.74115">
        <ele>810.79998779297</ele>
        <time>2021-07-24T05:15:09.000Z</time>
      </trkpt>
      <trkpt lat="45.24348" lon="5.74117">
        <ele>810.20001220703</ele>
        <time>2021-07-24T05:15:10.000Z</time>
      </trkpt>
      <trkpt lat="45.24351" lon="5.7412">
        <ele>810</ele>
        <time>2021-07-24T05:15:12.000Z</time>
      </trkpt>
      <trkpt lat="45.24353" lon="5.74123">
        <ele>809</ele>
        <time>2021-07-24T05:15:13.000Z</time>
      </trkpt>
      <trkpt lat="45.24356" lon="5.74128">
        <ele>808.79998779297</ele>
        <time>2021-07-24T05:15:15.000Z</time>
      </trkpt>
      <trkpt lat="45.24358" lon="5.74132">
        <ele>808.20001220703</ele>
        <time>2021-07-24T05:15:17.000Z</time>
      </trkpt>
      <trkpt lat="45.24361" lon="5.74136">
        <ele>807.20001220703</ele>
        <time>2021-07-24T05:15:19.000Z</time>
      </trkpt>
      <trkpt lat="45.24365" lon="5.74139">
        <ele>806.79998779297</ele>
        <time>2021-07-24T05:15:21.000Z</time>
      </trkpt>
      <trkpt lat="45.24367" lon="5.7414">
        <ele>806.59997558594</ele>
        <time>2021-07-24T05:15:22.000Z</time>
      </trkpt>
      <trkpt lat="45.2437" lon="5.74142">
        <ele>806.20001220703</ele>
        <time>2021-07-24T05:15:23.000Z</time>
      </trkpt>
      <trkpt lat="45.24376" lon="5.74146">
        <ele>805.59997558594</ele>
        <time>2021-07-24T05:15:26.000Z</time>
      </trkpt>
      <trkpt lat="45.24382" lon="5.74153">
        <ele>805.40002441406</ele>
        <time>2021-07-24T05:15:29.000Z</time>
      </trkpt>
      <trkpt lat="45.24382" lon="5.74156">
        <ele>804.59997558594</ele>
        <time>2021-07-24T05:15:30.000Z</time>
      </trkpt>
      <trkpt lat="45.24384" lon="5.74161">
        <ele>804.40002441406</ele>
        <time>2021-07-24T05:15:32.000Z</time>
      </trkpt>
      <trkpt lat="45.24389" lon="5.74164">
        <ele>804.40002441406</ele>
        <time>2021-07-24T05:15:34.000Z</time>
      </trkpt>
      <trkpt lat="45.24392" lon="5.74166">
        <ele>803.20001220703</ele>
        <time>2021-07-24T05:15:35.000Z</time>
      </trkpt>
      <trkpt lat="45.24396" lon="5.74169">
        <ele>802.40002441406</ele>
        <time>2021-07-24T05:15:38.000Z</time>
      </trkpt>
      <trkpt lat="45.24398" lon="5.7417">
        <ele>802.40002441406</ele>
        <time>2021-07-24T05:15:39.000Z</time>
      </trkpt>
      <trkpt lat="45.244" lon="5.74171">
        <ele>801.79998779297</ele>
        <time>2021-07-24T05:15:40.000Z</time>
      </trkpt>
      <trkpt lat="45.24408" lon="5.74176">
        <ele>800.20001220703</ele>
        <time>2021-07-24T05:15:44.000Z</time>
      </trkpt>
      <trkpt lat="45.24411" lon="5.74178">
        <ele>801</ele>
        <time>2021-07-24T05:15:45.000Z</time>
      </trkpt>
      <trkpt lat="45.24416" lon="5.74183">
        <ele>800.20001220703</ele>
        <time>2021-07-24T05:15:47.000Z</time>
      </trkpt>
      <trkpt lat="45.24421" lon="5.74192">
        <ele>799.79998779297</ele>
        <time>2021-07-24T05:15:49.000Z</time>
      </trkpt>
      <trkpt lat="45.24424" lon="5.74196">
        <ele>799.79998779297</ele>
        <time>2021-07-24T05:15:50.000Z</time>
      </trkpt>
      <trkpt lat="45.24427" lon="5.74199">
        <ele>799.79998779297</ele>
        <time>2021-07-24T05:15:51.000Z</time>
      </trkpt>
      <trkpt lat="45.24438" lon="5.74211">
        <ele>799.79998779297</ele>
        <time>2021-07-24T05:15:55.000Z</time>
      </trkpt>
      <trkpt lat="45.24442" lon="5.74216">
        <ele>799.40002441406</ele>
        <time>2021-07-24T05:15:58.000Z</time>
      </trkpt>
      <trkpt lat="45.24442" lon="5.74218">
        <ele>799.40002441406</ele>
        <time>2021-07-24T05:15:59.000Z</time>
      </trkpt>
      <trkpt lat="45.24444" lon="5.74219">
        <ele>799</ele>
        <time>2021-07-24T05:16:00.000Z</time>
      </trkpt>
      <trkpt lat="45.24445" lon="5.74221">
        <ele>798.79998779297</ele>
        <time>2021-07-24T05:16:02.000Z</time>
      </trkpt>
      <trkpt lat="45.24446" lon="5.74222">
        <ele>797.79998779297</ele>
        <time>2021-07-24T05:16:03.000Z</time>
      </trkpt>
      <trkpt lat="45.24451" lon="5.74226">
        <ele>795.59997558594</ele>
        <time>2021-07-24T05:16:07.000Z</time>
      </trkpt>
      <trkpt lat="45.24453" lon="5.74227">
        <ele>795.59997558594</ele>
        <time>2021-07-24T05:16:08.000Z</time>
      </trkpt>
      <trkpt lat="45.24456" lon="5.7423">
        <ele>794.79998779297</ele>
        <time>2021-07-24T05:16:10.000Z</time>
      </trkpt>
      <trkpt lat="45.24458" lon="5.74232">
        <ele>793.79998779297</ele>
        <time>2021-07-24T05:16:11.000Z</time>
      </trkpt>
      <trkpt lat="45.24461" lon="5.74235">
        <ele>793.40002441406</ele>
        <time>2021-07-24T05:16:13.000Z</time>
      </trkpt>
      <trkpt lat="45.24464" lon="5.74238">
        <ele>793</ele>
        <time>2021-07-24T05:16:15.000Z</time>
      </trkpt>
      <trkpt lat="45.24465" lon="5.74238">
        <ele>793</ele>
        <time>2021-07-24T05:16:16.000Z</time>
      </trkpt>
      <trkpt lat="45.24466" lon="5.74237">
        <ele>792.40002441406</ele>
        <time>2021-07-24T05:16:17.000Z</time>
      </trkpt>
      <trkpt lat="45.24468" lon="5.74237">
        <ele>791</ele>
        <time>2021-07-24T05:16:19.000Z</time>
      </trkpt>
      <trkpt lat="45.24468" lon="5.74237">
        <ele>791</ele>
        <time>2021-07-24T05:16:20.000Z</time>
      </trkpt>
      <trkpt lat="45.24469" lon="5.74238">
        <ele>790.79998779297</ele>
        <time>2021-07-24T05:16:21.000Z</time>
      </trkpt>
      <trkpt lat="45.24476" lon="5.74239">
        <ele>789.40002441406</ele>
        <time>2021-07-24T05:16:25.000Z</time>
      </trkpt>
      <trkpt lat="45.24479" lon="5.7424">
        <ele>788.40002441406</ele>
        <time>2021-07-24T05:16:27.000Z</time>
      </trkpt>
      <trkpt lat="45.24481" lon="5.74239">
        <ele>788.20001220703</ele>
        <time>2021-07-24T05:16:28.000Z</time>
      </trkpt>
      <trkpt lat="45.24484" lon="5.74239">
        <ele>787.20001220703</ele>
        <time>2021-07-24T05:16:30.000Z</time>
      </trkpt>
      <trkpt lat="45.24486" lon="5.74239">
        <ele>786</ele>
        <time>2021-07-24T05:16:32.000Z</time>
      </trkpt>
      <trkpt lat="45.24485" lon="5.74238">
        <ele>785.79998779297</ele>
        <time>2021-07-24T05:16:33.000Z</time>
      </trkpt>
      <trkpt lat="45.24483" lon="5.74237">
        <ele>785.20001220703</ele>
        <time>2021-07-24T05:16:35.000Z</time>
      </trkpt>
      <trkpt lat="45.24482" lon="5.74236">
        <ele>785</ele>
        <time>2021-07-24T05:16:36.000Z</time>
      </trkpt>
      <trkpt lat="45.2448" lon="5.74235">
        <ele>784</ele>
        <time>2021-07-24T05:16:38.000Z</time>
      </trkpt>
      <trkpt lat="45.24479" lon="5.74234">
        <ele>784</ele>
        <time>2021-07-24T05:16:39.000Z</time>
      </trkpt>
      <trkpt lat="45.24478" lon="5.74232">
        <ele>783.40002441406</ele>
        <time>2021-07-24T05:16:40.000Z</time>
      </trkpt>
      <trkpt lat="45.24475" lon="5.74231">
        <ele>783.20001220703</ele>
        <time>2021-07-24T05:16:41.000Z</time>
      </trkpt>
      <trkpt lat="45.24474" lon="5.74229">
        <ele>783.20001220703</ele>
        <time>2021-07-24T05:16:42.000Z</time>
      </trkpt>
      <trkpt lat="45.24473" lon="5.74226">
        <ele>782.20001220703</ele>
        <time>2021-07-24T05:16:44.000Z</time>
      </trkpt>
      <trkpt lat="45.24472" lon="5.74224">
        <ele>782.20001220703</ele>
        <time>2021-07-24T05:16:45.000Z</time>
      </trkpt>
      <trkpt lat="45.24471" lon="5.7422">
        <ele>782</ele>
        <time>2021-07-24T05:16:47.000Z</time>
      </trkpt>
      <trkpt lat="45.24468" lon="5.74218">
        <ele>782</ele>
        <time>2021-07-24T05:16:49.000Z</time>
      </trkpt>
      <trkpt lat="45.24466" lon="5.74214">
        <ele>781.79998779297</ele>
        <time>2021-07-24T05:16:51.000Z</time>
      </trkpt>
      <trkpt lat="45.24466" lon="5.74208">
        <ele>781.79998779297</ele>
        <time>2021-07-24T05:16:53.000Z</time>
      </trkpt>
      <trkpt lat="45.24466" lon="5.74203">
        <ele>781.79998779297</ele>
        <time>2021-07-24T05:16:55.000Z</time>
      </trkpt>
      <trkpt lat="45.24463" lon="5.74193">
        <ele>781.40002441406</ele>
        <time>2021-07-24T05:16:58.000Z</time>
      </trkpt>
      <trkpt lat="45.24466" lon="5.74185">
        <ele>781</ele>
        <time>2021-07-24T05:17:01.000Z</time>
      </trkpt>
      <trkpt lat="45.24466" lon="5.74183">
        <ele>780.59997558594</ele>
        <time>2021-07-24T05:17:02.000Z</time>
      </trkpt>
      <trkpt lat="45.24465" lon="5.7418">
        <ele>780</ele>
        <time>2021-07-24T05:17:03.000Z</time>
      </trkpt>
      <trkpt lat="45.24464" lon="5.74175">
        <ele>778.79998779297</ele>
        <time>2021-07-24T05:17:05.000Z</time>
      </trkpt>
      <trkpt lat="45.24461" lon="5.74169">
        <ele>778</ele>
        <time>2021-07-24T05:17:08.000Z</time>
      </trkpt>
      <trkpt lat="45.2446" lon="5.74167">
        <ele>777.79998779297</ele>
        <time>2021-07-24T05:17:09.000Z</time>
      </trkpt>
      <trkpt lat="45.24459" lon="5.74165">
        <ele>777.59997558594</ele>
        <time>2021-07-24T05:17:10.000Z</time>
      </trkpt>
      <trkpt lat="45.24457" lon="5.74158">
        <ele>776.40002441406</ele>
        <time>2021-07-24T05:17:13.000Z</time>
      </trkpt>
      <trkpt lat="45.24453" lon="5.7415">
        <ele>775.79998779297</ele>
        <time>2021-07-24T05:17:16.000Z</time>
      </trkpt>
      <trkpt lat="45.24453" lon="5.74147">
        <ele>775.20001220703</ele>
        <time>2021-07-24T05:17:17.000Z</time>
      </trkpt>
      <trkpt lat="45.24452" lon="5.7413">
        <ele>773.79998779297</ele>
        <time>2021-07-24T05:17:22.000Z</time>
      </trkpt>
      <trkpt lat="45.24452" lon="5.74117">
        <ele>772.79998779297</ele>
        <time>2021-07-24T05:17:25.000Z</time>
      </trkpt>
      <trkpt lat="45.24449" lon="5.74107">
        <ele>772.40002441406</ele>
        <time>2021-07-24T05:17:27.000Z</time>
      </trkpt>
      <trkpt lat="45.24447" lon="5.74095">
        <ele>771.59997558594</ele>
        <time>2021-07-24T05:17:30.000Z</time>
      </trkpt>
      <trkpt lat="45.24446" lon="5.74089">
        <ele>771.40002441406</ele>
        <time>2021-07-24T05:17:32.000Z</time>
      </trkpt>
      <trkpt lat="45.24443" lon="5.74073">
        <ele>770.59997558594</ele>
        <time>2021-07-24T05:17:36.000Z</time>
      </trkpt>
      <trkpt lat="45.24443" lon="5.74067">
        <ele>770.20001220703</ele>
        <time>2021-07-24T05:17:38.000Z</time>
      </trkpt>
      <trkpt lat="45.24443" lon="5.74062">
        <ele>770.20001220703</ele>
        <time>2021-07-24T05:17:39.000Z</time>
      </trkpt>
      <trkpt lat="45.24441" lon="5.74048">
        <ele>769.40002441406</ele>
        <time>2021-07-24T05:17:43.000Z</time>
      </trkpt>
      <trkpt lat="45.2444" lon="5.74045">
        <ele>769.20001220703</ele>
        <time>2021-07-24T05:17:44.000Z</time>
      </trkpt>
      <trkpt lat="45.24436" lon="5.74034">
        <ele>768</ele>
        <time>2021-07-24T05:17:48.000Z</time>
      </trkpt>
      <trkpt lat="45.24433" lon="5.74028">
        <ele>767.59997558594</ele>
        <time>2021-07-24T05:17:51.000Z</time>
      </trkpt>
      <trkpt lat="45.24432" lon="5.74025">
        <ele>767.59997558594</ele>
        <time>2021-07-24T05:17:52.000Z</time>
      </trkpt>
      <trkpt lat="45.24431" lon="5.74014">
        <ele>767.59997558594</ele>
        <time>2021-07-24T05:17:56.000Z</time>
      </trkpt>
      <trkpt lat="45.24431" lon="5.7401">
        <ele>767.59997558594</ele>
        <time>2021-07-24T05:17:57.000Z</time>
      </trkpt>
      <trkpt lat="45.24428" lon="5.73995">
        <ele>767</ele>
        <time>2021-07-24T05:18:03.000Z</time>
      </trkpt>
      <trkpt lat="45.24429" lon="5.73994">
        <ele>767</ele>
        <time>2021-07-24T05:18:04.000Z</time>
      </trkpt>
      <trkpt lat="45.2443" lon="5.73994">
        <ele>767</ele>
        <time>2021-07-24T05:18:05.000Z</time>
      </trkpt>
      <trkpt lat="45.24432" lon="5.73995">
        <ele>767.20001220703</ele>
        <time>2021-07-24T05:18:07.000Z</time>
      </trkpt>
      <trkpt lat="45.24433" lon="5.73994">
        <ele>767.20001220703</ele>
        <time>2021-07-24T05:18:09.000Z</time>
      </trkpt>
      <trkpt lat="45.24433" lon="5.73993">
        <ele>767.20001220703</ele>
        <time>2021-07-24T05:18:10.000Z</time>
      </trkpt>
      <trkpt lat="45.24432" lon="5.73991">
        <ele>767.20001220703</ele>
        <time>2021-07-24T05:18:11.000Z</time>
      </trkpt>
      <trkpt lat="45.24433" lon="5.73985">
        <ele>767</ele>
        <time>2021-07-24T05:18:14.000Z</time>
      </trkpt>
      <trkpt lat="45.24434" lon="5.73983">
        <ele>767</ele>
        <time>2021-07-24T05:18:16.000Z</time>
      </trkpt>
      <trkpt lat="45.24434" lon="5.73981">
        <ele>767</ele>
        <time>2021-07-24T05:18:18.000Z</time>
      </trkpt>
      <trkpt lat="45.24435" lon="5.73979">
        <ele>767</ele>
        <time>2021-07-24T05:18:20.000Z</time>
      </trkpt>
      <trkpt lat="45.24436" lon="5.73978">
        <ele>766.79998779297</ele>
        <time>2021-07-24T05:18:22.000Z</time>
      </trkpt>
      <trkpt lat="45.24435" lon="5.73977">
        <ele>766.79998779297</ele>
        <time>2021-07-24T05:18:28.000Z</time>
      </trkpt>
      <trkpt lat="45.24438" lon="5.73978">
        <ele>766.59997558594</ele>
        <time>2021-07-24T05:18:32.000Z</time>
      </trkpt>
      <trkpt lat="45.24438" lon="5.73978">
        <ele>766.40002441406</ele>
        <time>2021-07-24T05:18:36.000Z</time>
      </trkpt>
      <trkpt lat="45.24438" lon="5.73978">
        <ele>766.79998779297</ele>
        <time>2021-07-24T05:18:44.000Z</time>
      </trkpt>
      <trkpt lat="45.24438" lon="5.73978">
        <ele>766.79998779297</ele>
        <time>2021-07-24T05:18:45.000Z</time>
      </trkpt>
      <trkpt lat="45.24438" lon="5.73978">
        <ele>766.79998779297</ele>
        <time>2021-07-24T05:18:47.000Z</time>
      </trkpt>
      <trkpt lat="45.24437" lon="5.73981">
        <ele>766.79998779297</ele>
        <time>2021-07-24T05:18:50.000Z</time>
      </trkpt>
      <trkpt lat="45.24436" lon="5.73985">
        <ele>766.79998779297</ele>
        <time>2021-07-24T05:18:51.000Z</time>
      </trkpt>
      <trkpt lat="45.24437" lon="5.73992">
        <ele>766.79998779297</ele>
        <time>2021-07-24T05:18:53.000Z</time>
      </trkpt>
      <trkpt lat="45.24439" lon="5.74003">
        <ele>767</ele>
        <time>2021-07-24T05:18:57.000Z</time>
      </trkpt>
      <trkpt lat="45.2444" lon="5.74011">
        <ele>767.20001220703</ele>
        <time>2021-07-24T05:19:00.000Z</time>
      </trkpt>
      <trkpt lat="45.24442" lon="5.74015">
        <ele>767.40002441406</ele>
        <time>2021-07-24T05:19:02.000Z</time>
      </trkpt>
      <trkpt lat="45.24443" lon="5.74018">
        <ele>767.40002441406</ele>
        <time>2021-07-24T05:19:03.000Z</time>
      </trkpt>
      <trkpt lat="45.24448" lon="5.74031">
        <ele>768.20001220703</ele>
        <time>2021-07-24T05:19:08.000Z</time>
      </trkpt>
      <trkpt lat="45.24449" lon="5.74034">
        <ele>768.20001220703</ele>
        <time>2021-07-24T05:19:09.000Z</time>
      </trkpt>
      <trkpt lat="45.2445" lon="5.74039">
        <ele>768.59997558594</ele>
        <time>2021-07-24T05:19:11.000Z</time>
      </trkpt>
      <trkpt lat="45.2445" lon="5.74042">
        <ele>768.59997558594</ele>
        <time>2021-07-24T05:19:12.000Z</time>
      </trkpt>
      <trkpt lat="45.24452" lon="5.74048">
        <ele>769.20001220703</ele>
        <time>2021-07-24T05:19:14.000Z</time>
      </trkpt>
      <trkpt lat="45.24452" lon="5.74053">
        <ele>769.59997558594</ele>
        <time>2021-07-24T05:19:16.000Z</time>
      </trkpt>
      <trkpt lat="45.24453" lon="5.74059">
        <ele>770</ele>
        <time>2021-07-24T05:19:18.000Z</time>
      </trkpt>
      <trkpt lat="45.24453" lon="5.74061">
        <ele>770</ele>
        <time>2021-07-24T05:19:19.000Z</time>
      </trkpt>
      <trkpt lat="45.24453" lon="5.74063">
        <ele>770.20001220703</ele>
        <time>2021-07-24T05:19:20.000Z</time>
      </trkpt>
      <trkpt lat="45.24452" lon="5.74066">
        <ele>770.59997558594</ele>
        <time>2021-07-24T05:19:21.000Z</time>
      </trkpt>
      <trkpt lat="45.24452" lon="5.74073">
        <ele>770.59997558594</ele>
        <time>2021-07-24T05:19:23.000Z</time>
      </trkpt>
      <trkpt lat="45.24456" lon="5.7409">
        <ele>771.59997558594</ele>
        <time>2021-07-24T05:19:28.000Z</time>
      </trkpt>
      <trkpt lat="45.24458" lon="5.74092">
        <ele>771.79998779297</ele>
        <time>2021-07-24T05:19:29.000Z</time>
      </trkpt>
      <trkpt lat="45.24462" lon="5.74099">
        <ele>772.20001220703</ele>
        <time>2021-07-24T05:19:31.000Z</time>
      </trkpt>
      <trkpt lat="45.24467" lon="5.74105">
        <ele>772.40002441406</ele>
        <time>2021-07-24T05:19:33.000Z</time>
      </trkpt>
      <trkpt lat="45.24468" lon="5.74107">
        <ele>772.59997558594</ele>
        <time>2021-07-24T05:19:34.000Z</time>
      </trkpt>
      <trkpt lat="45.24468" lon="5.7411">
        <ele>773</ele>
        <time>2021-07-24T05:19:35.000Z</time>
      </trkpt>
      <trkpt lat="45.24474" lon="5.7412">
        <ele>773.79998779297</ele>
        <time>2021-07-24T05:19:38.000Z</time>
      </trkpt>
      <trkpt lat="45.24478" lon="5.74131">
        <ele>775</ele>
        <time>2021-07-24T05:19:42.000Z</time>
      </trkpt>
      <trkpt lat="45.24479" lon="5.74135">
        <ele>775.20001220703</ele>
        <time>2021-07-24T05:19:44.000Z</time>
      </trkpt>
      <trkpt lat="45.24478" lon="5.74138">
        <ele>775.20001220703</ele>
        <time>2021-07-24T05:19:46.000Z</time>
      </trkpt>
      <trkpt lat="45.24477" lon="5.74138">
        <ele>775</ele>
        <time>2021-07-24T05:19:48.000Z</time>
      </trkpt>
      <trkpt lat="45.24475" lon="5.74138">
        <ele>774.79998779297</ele>
        <time>2021-07-24T05:19:51.000Z</time>
      </trkpt>
      <trkpt lat="45.24476" lon="5.74136">
        <ele>775.79998779297</ele>
        <time>2021-07-24T05:19:58.000Z</time>
      </trkpt>
      <trkpt lat="45.24476" lon="5.74137">
        <ele>776.40002441406</ele>
        <time>2021-07-24T05:19:59.000Z</time>
      </trkpt>
      <trkpt lat="45.24479" lon="5.74143">
        <ele>777.20001220703</ele>
        <time>2021-07-24T05:20:03.000Z</time>
      </trkpt>
      <trkpt lat="45.2448" lon="5.74145">
        <ele>777.59997558594</ele>
        <time>2021-07-24T05:20:04.000Z</time>
      </trkpt>
      <trkpt lat="45.24481" lon="5.74149">
        <ele>778.59997558594</ele>
        <time>2021-07-24T05:20:06.000Z</time>
      </trkpt>
      <trkpt lat="45.24482" lon="5.74156">
        <ele>778.59997558594</ele>
        <time>2021-07-24T05:20:09.000Z</time>
      </trkpt>
      <trkpt lat="45.24483" lon="5.74157">
        <ele>778.79998779297</ele>
        <time>2021-07-24T05:20:10.000Z</time>
      </trkpt>
      <trkpt lat="45.24485" lon="5.74163">
        <ele>779.79998779297</ele>
        <time>2021-07-24T05:20:12.000Z</time>
      </trkpt>
      <trkpt lat="45.24485" lon="5.74165">
        <ele>779.79998779297</ele>
        <time>2021-07-24T05:20:13.000Z</time>
      </trkpt>
      <trkpt lat="45.24485" lon="5.7417">
        <ele>780.59997558594</ele>
        <time>2021-07-24T05:20:15.000Z</time>
      </trkpt>
      <trkpt lat="45.24486" lon="5.74172">
        <ele>780.59997558594</ele>
        <time>2021-07-24T05:20:16.000Z</time>
      </trkpt>
      <trkpt lat="45.24487" lon="5.74173">
        <ele>780.79998779297</ele>
        <time>2021-07-24T05:20:17.000Z</time>
      </trkpt>
      <trkpt lat="45.24487" lon="5.74176">
        <ele>781</ele>
        <time>2021-07-24T05:20:18.000Z</time>
      </trkpt>
      <trkpt lat="45.24487" lon="5.74185">
        <ele>781.40002441406</ele>
        <time>2021-07-24T05:20:22.000Z</time>
      </trkpt>
      <trkpt lat="45.24487" lon="5.74188">
        <ele>781.40002441406</ele>
        <time>2021-07-24T05:20:23.000Z</time>
      </trkpt>
      <trkpt lat="45.24486" lon="5.74194">
        <ele>781.40002441406</ele>
        <time>2021-07-24T05:20:26.000Z</time>
      </trkpt>
      <trkpt lat="45.24486" lon="5.74196">
        <ele>781.59997558594</ele>
        <time>2021-07-24T05:20:27.000Z</time>
      </trkpt>
      <trkpt lat="45.24487" lon="5.74202">
        <ele>781.59997558594</ele>
        <time>2021-07-24T05:20:29.000Z</time>
      </trkpt>
      <trkpt lat="45.24488" lon="5.74204">
        <ele>782</ele>
        <time>2021-07-24T05:20:30.000Z</time>
      </trkpt>
      <trkpt lat="45.24488" lon="5.74206">
        <ele>782</ele>
        <time>2021-07-24T05:20:31.000Z</time>
      </trkpt>
      <trkpt lat="45.24489" lon="5.74208">
        <ele>782</ele>
        <time>2021-07-24T05:20:32.000Z</time>
      </trkpt>
      <trkpt lat="45.24495" lon="5.74217">
        <ele>782.20001220703</ele>
        <time>2021-07-24T05:20:36.000Z</time>
      </trkpt>
      <trkpt lat="45.24494" lon="5.74222">
        <ele>782.79998779297</ele>
        <time>2021-07-24T05:20:39.000Z</time>
      </trkpt>
      <trkpt lat="45.24492" lon="5.74223">
        <ele>782.79998779297</ele>
        <time>2021-07-24T05:20:40.000Z</time>
      </trkpt>
      <trkpt lat="45.24488" lon="5.74224">
        <ele>783.20001220703</ele>
        <time>2021-07-24T05:20:41.000Z</time>
      </trkpt>
      <trkpt lat="45.24487" lon="5.74225">
        <ele>783.40002441406</ele>
        <time>2021-07-24T05:20:42.000Z</time>
      </trkpt>
      <trkpt lat="45.24487" lon="5.74228">
        <ele>783.59997558594</ele>
        <time>2021-07-24T05:20:44.000Z</time>
      </trkpt>
      <trkpt lat="45.24487" lon="5.74229">
        <ele>784.59997558594</ele>
        <time>2021-07-24T05:20:45.000Z</time>
      </trkpt>
      <trkpt lat="45.24489" lon="5.74238">
        <ele>785</ele>
        <time>2021-07-24T05:20:48.000Z</time>
      </trkpt>
      <trkpt lat="45.24493" lon="5.74247">
        <ele>785.79998779297</ele>
        <time>2021-07-24T05:20:50.000Z</time>
      </trkpt>
      <trkpt lat="45.24493" lon="5.7425">
        <ele>785.79998779297</ele>
        <time>2021-07-24T05:20:51.000Z</time>
      </trkpt>
      <trkpt lat="45.24491" lon="5.74253">
        <ele>786.20001220703</ele>
        <time>2021-07-24T05:20:53.000Z</time>
      </trkpt>
      <trkpt lat="45.2449" lon="5.74255">
        <ele>787</ele>
        <time>2021-07-24T05:20:54.000Z</time>
      </trkpt>
      <trkpt lat="45.2449" lon="5.74256">
        <ele>787.20001220703</ele>
        <time>2021-07-24T05:20:55.000Z</time>
      </trkpt>
      <trkpt lat="45.24491" lon="5.74258">
        <ele>787.79998779297</ele>
        <time>2021-07-24T05:20:57.000Z</time>
      </trkpt>
      <trkpt lat="45.2449" lon="5.74258">
        <ele>788.20001220703</ele>
        <time>2021-07-24T05:20:58.000Z</time>
      </trkpt>
      <trkpt lat="45.24488" lon="5.74259">
        <ele>788.40002441406</ele>
        <time>2021-07-24T05:20:59.000Z</time>
      </trkpt>
      <trkpt lat="45.24486" lon="5.74258">
        <ele>788.79998779297</ele>
        <time>2021-07-24T05:21:01.000Z</time>
      </trkpt>
      <trkpt lat="45.24485" lon="5.74258">
        <ele>789</ele>
        <time>2021-07-24T05:21:02.000Z</time>
      </trkpt>
      <trkpt lat="45.24486" lon="5.74258">
        <ele>789.40002441406</ele>
        <time>2021-07-24T05:21:03.000Z</time>
      </trkpt>
      <trkpt lat="45.24486" lon="5.74258">
        <ele>789.79998779297</ele>
        <time>2021-07-24T05:21:04.000Z</time>
      </trkpt>
      <trkpt lat="45.24487" lon="5.74258">
        <ele>790</ele>
        <time>2021-07-24T05:21:05.000Z</time>
      </trkpt>
      <trkpt lat="45.24488" lon="5.74259">
        <ele>790.59997558594</ele>
        <time>2021-07-24T05:21:07.000Z</time>
      </trkpt>
      <trkpt lat="45.24493" lon="5.74261">
        <ele>791.59997558594</ele>
        <time>2021-07-24T05:21:10.000Z</time>
      </trkpt>
      <trkpt lat="45.24491" lon="5.74261">
        <ele>792</ele>
        <time>2021-07-24T05:21:12.000Z</time>
      </trkpt>
      <trkpt lat="45.24487" lon="5.74259">
        <ele>792.79998779297</ele>
        <time>2021-07-24T05:21:16.000Z</time>
      </trkpt>
      <trkpt lat="45.24487" lon="5.7426">
        <ele>794</ele>
        <time>2021-07-24T05:21:18.000Z</time>
      </trkpt>
      <trkpt lat="45.24486" lon="5.7426">
        <ele>794</ele>
        <time>2021-07-24T05:21:19.000Z</time>
      </trkpt>
      <trkpt lat="45.24484" lon="5.74259">
        <ele>794.20001220703</ele>
        <time>2021-07-24T05:21:21.000Z</time>
      </trkpt>
      <trkpt lat="45.24482" lon="5.74258">
        <ele>795</ele>
        <time>2021-07-24T05:21:23.000Z</time>
      </trkpt>
      <trkpt lat="45.24481" lon="5.74258">
        <ele>795.59997558594</ele>
        <time>2021-07-24T05:21:25.000Z</time>
      </trkpt>
      <trkpt lat="45.2448" lon="5.74257">
        <ele>796.20001220703</ele>
        <time>2021-07-24T05:21:27.000Z</time>
      </trkpt>
      <trkpt lat="45.24477" lon="5.74255">
        <ele>796.79998779297</ele>
        <time>2021-07-24T05:21:29.000Z</time>
      </trkpt>
      <trkpt lat="45.24477" lon="5.74254">
        <ele>796.79998779297</ele>
        <time>2021-07-24T05:21:30.000Z</time>
      </trkpt>
      <trkpt lat="45.24475" lon="5.74251">
        <ele>797.20001220703</ele>
        <time>2021-07-24T05:21:32.000Z</time>
      </trkpt>
      <trkpt lat="45.24474" lon="5.7425">
        <ele>797.79998779297</ele>
        <time>2021-07-24T05:21:33.000Z</time>
      </trkpt>
      <trkpt lat="45.2447" lon="5.74246">
        <ele>798.20001220703</ele>
        <time>2021-07-24T05:21:36.000Z</time>
      </trkpt>
      <trkpt lat="45.24464" lon="5.7424">
        <ele>798.40002441406</ele>
        <time>2021-07-24T05:21:41.000Z</time>
      </trkpt>
      <trkpt lat="45.24459" lon="5.74238">
        <ele>798.79998779297</ele>
        <time>2021-07-24T05:21:45.000Z</time>
      </trkpt>
      <trkpt lat="45.24457" lon="5.74236">
        <ele>798.79998779297</ele>
        <time>2021-07-24T05:21:47.000Z</time>
      </trkpt>
      <trkpt lat="45.24454" lon="5.74234">
        <ele>799.20001220703</ele>
        <time>2021-07-24T05:21:49.000Z</time>
      </trkpt>
      <trkpt lat="45.24452" lon="5.74233">
        <ele>799.40002441406</ele>
        <time>2021-07-24T05:21:51.000Z</time>
      </trkpt>
      <trkpt lat="45.24448" lon="5.74231">
        <ele>799.59997558594</ele>
        <time>2021-07-24T05:21:53.000Z</time>
      </trkpt>
      <trkpt lat="45.24443" lon="5.74228">
        <ele>800</ele>
        <time>2021-07-24T05:21:56.000Z</time>
      </trkpt>
      <trkpt lat="45.24441" lon="5.74225">
        <ele>800.79998779297</ele>
        <time>2021-07-24T05:21:58.000Z</time>
      </trkpt>
      <trkpt lat="45.24434" lon="5.74224">
        <ele>801</ele>
        <time>2021-07-24T05:22:02.000Z</time>
      </trkpt>
      <trkpt lat="45.24432" lon="5.74223">
        <ele>801.79998779297</ele>
        <time>2021-07-24T05:22:03.000Z</time>
      </trkpt>
      <trkpt lat="45.24431" lon="5.74222">
        <ele>802</ele>
        <time>2021-07-24T05:22:04.000Z</time>
      </trkpt>
      <trkpt lat="45.2443" lon="5.7422">
        <ele>802.20001220703</ele>
        <time>2021-07-24T05:22:06.000Z</time>
      </trkpt>
      <trkpt lat="45.2443" lon="5.7422">
        <ele>802.79998779297</ele>
        <time>2021-07-24T05:22:07.000Z</time>
      </trkpt>
      <trkpt lat="45.24429" lon="5.74218">
        <ele>803</ele>
        <time>2021-07-24T05:22:09.000Z</time>
      </trkpt>
      <trkpt lat="45.24428" lon="5.74218">
        <ele>803.40002441406</ele>
        <time>2021-07-24T05:22:11.000Z</time>
      </trkpt>
      <trkpt lat="45.24427" lon="5.74217">
        <ele>803.79998779297</ele>
        <time>2021-07-24T05:22:13.000Z</time>
      </trkpt>
      <trkpt lat="45.24425" lon="5.74216">
        <ele>804.20001220703</ele>
        <time>2021-07-24T05:22:15.000Z</time>
      </trkpt>
      <trkpt lat="45.2442" lon="5.7421">
        <ele>804.59997558594</ele>
        <time>2021-07-24T05:22:19.000Z</time>
      </trkpt>
      <trkpt lat="45.24418" lon="5.74208">
        <ele>804.79998779297</ele>
        <time>2021-07-24T05:22:20.000Z</time>
      </trkpt>
      <trkpt lat="45.24413" lon="5.74204">
        <ele>805.40002441406</ele>
        <time>2021-07-24T05:22:23.000Z</time>
      </trkpt>
      <trkpt lat="45.24411" lon="5.74204">
        <ele>805.59997558594</ele>
        <time>2021-07-24T05:22:24.000Z</time>
      </trkpt>
      <trkpt lat="45.24409" lon="5.74203">
        <ele>805.59997558594</ele>
        <time>2021-07-24T05:22:25.000Z</time>
      </trkpt>
      <trkpt lat="45.24402" lon="5.74199">
        <ele>806.20001220703</ele>
        <time>2021-07-24T05:22:27.000Z</time>
      </trkpt>
      <trkpt lat="45.24398" lon="5.74196">
        <ele>806.40002441406</ele>
        <time>2021-07-24T05:22:28.000Z</time>
      </trkpt>
      <trkpt lat="45.24396" lon="5.74194">
        <ele>806.59997558594</ele>
        <time>2021-07-24T05:22:29.000Z</time>
      </trkpt>
      <trkpt lat="45.24392" lon="5.74189">
        <ele>807.40002441406</ele>
        <time>2021-07-24T05:22:32.000Z</time>
      </trkpt>
      <trkpt lat="45.24389" lon="5.74187">
        <ele>807.40002441406</ele>
        <time>2021-07-24T05:22:34.000Z</time>
      </trkpt>
      <trkpt lat="45.24383" lon="5.74181">
        <ele>808.40002441406</ele>
        <time>2021-07-24T05:22:38.000Z</time>
      </trkpt>
      <trkpt lat="45.24381" lon="5.74177">
        <ele>808.79998779297</ele>
        <time>2021-07-24T05:22:40.000Z</time>
      </trkpt>
      <trkpt lat="45.24381" lon="5.74175">
        <ele>809.20001220703</ele>
        <time>2021-07-24T05:22:41.000Z</time>
      </trkpt>
      <trkpt lat="45.24379" lon="5.74172">
        <ele>809.40002441406</ele>
        <time>2021-07-24T05:22:43.000Z</time>
      </trkpt>
      <trkpt lat="45.24377" lon="5.7417">
        <ele>809.40002441406</ele>
        <time>2021-07-24T05:22:44.000Z</time>
      </trkpt>
      <trkpt lat="45.24376" lon="5.74168">
        <ele>809.79998779297</ele>
        <time>2021-07-24T05:22:45.000Z</time>
      </trkpt>
      <trkpt lat="45.24371" lon="5.74163">
        <ele>810.59997558594</ele>
        <time>2021-07-24T05:22:48.000Z</time>
      </trkpt>
      <trkpt lat="45.2437" lon="5.7416">
        <ele>811.79998779297</ele>
        <time>2021-07-24T05:22:50.000Z</time>
      </trkpt>
      <trkpt lat="45.24367" lon="5.74157">
        <ele>812</ele>
        <time>2021-07-24T05:22:52.000Z</time>
      </trkpt>
      <trkpt lat="45.24366" lon="5.74155">
        <ele>812.59997558594</ele>
        <time>2021-07-24T05:22:53.000Z</time>
      </trkpt>
      <trkpt lat="45.24361" lon="5.74152">
        <ele>813</ele>
        <time>2021-07-24T05:22:55.000Z</time>
      </trkpt>
      <trkpt lat="45.24355" lon="5.74147">
        <ele>814</ele>
        <time>2021-07-24T05:23:00.000Z</time>
      </trkpt>
      <trkpt lat="45.24354" lon="5.74144">
        <ele>814.20001220703</ele>
        <time>2021-07-24T05:23:02.000Z</time>
      </trkpt>
      <trkpt lat="45.24351" lon="5.74142">
        <ele>815.20001220703</ele>
        <time>2021-07-24T05:23:04.000Z</time>
      </trkpt>
      <trkpt lat="45.24348" lon="5.74138">
        <ele>815.40002441406</ele>
        <time>2021-07-24T05:23:06.000Z</time>
      </trkpt>
      <trkpt lat="45.24343" lon="5.74132">
        <ele>816.40002441406</ele>
        <time>2021-07-24T05:23:08.000Z</time>
      </trkpt>
      <trkpt lat="45.24341" lon="5.7413">
        <ele>816.40002441406</ele>
        <time>2021-07-24T05:23:10.000Z</time>
      </trkpt>
      <trkpt lat="45.24339" lon="5.74128">
        <ele>817.40002441406</ele>
        <time>2021-07-24T05:23:12.000Z</time>
      </trkpt>
      <trkpt lat="45.24338" lon="5.74126">
        <ele>817.40002441406</ele>
        <time>2021-07-24T05:23:13.000Z</time>
      </trkpt>
      <trkpt lat="45.24336" lon="5.74123">
        <ele>817.59997558594</ele>
        <time>2021-07-24T05:23:15.000Z</time>
      </trkpt>
      <trkpt lat="45.24334" lon="5.74123">
        <ele>817.59997558594</ele>
        <time>2021-07-24T05:23:16.000Z</time>
      </trkpt>
      <trkpt lat="45.24333" lon="5.74121">
        <ele>818.59997558594</ele>
        <time>2021-07-24T05:23:17.000Z</time>
      </trkpt>
      <trkpt lat="45.24328" lon="5.74114">
        <ele>819.40002441406</ele>
        <time>2021-07-24T05:23:20.000Z</time>
      </trkpt>
      <trkpt lat="45.24326" lon="5.74113">
        <ele>819.40002441406</ele>
        <time>2021-07-24T05:23:21.000Z</time>
      </trkpt>
      <trkpt lat="45.24323" lon="5.7411">
        <ele>819.79998779297</ele>
        <time>2021-07-24T05:23:23.000Z</time>
      </trkpt>
      <trkpt lat="45.24321" lon="5.74107">
        <ele>820</ele>
        <time>2021-07-24T05:23:25.000Z</time>
      </trkpt>
      <trkpt lat="45.2432" lon="5.74106">
        <ele>820.59997558594</ele>
        <time>2021-07-24T05:23:26.000Z</time>
      </trkpt>
      <trkpt lat="45.24318" lon="5.74105">
        <ele>820.79998779297</ele>
        <time>2021-07-24T05:23:28.000Z</time>
      </trkpt>
      <trkpt lat="45.24317" lon="5.74104">
        <ele>821.40002441406</ele>
        <time>2021-07-24T05:23:29.000Z</time>
      </trkpt>
      <trkpt lat="45.24313" lon="5.74103">
        <ele>821.79998779297</ele>
        <time>2021-07-24T05:23:32.000Z</time>
      </trkpt>
      <trkpt lat="45.24308" lon="5.741">
        <ele>822.40002441406</ele>
        <time>2021-07-24T05:23:34.000Z</time>
      </trkpt>
      <trkpt lat="45.24304" lon="5.74099">
        <ele>823.20001220703</ele>
        <time>2021-07-24T05:23:37.000Z</time>
      </trkpt>
      <trkpt lat="45.24302" lon="5.74098">
        <ele>823.40002441406</ele>
        <time>2021-07-24T05:23:39.000Z</time>
      </trkpt>
      <trkpt lat="45.24301" lon="5.74097">
        <ele>824</ele>
        <time>2021-07-24T05:23:41.000Z</time>
      </trkpt>
      <trkpt lat="45.24301" lon="5.74096">
        <ele>824.40002441406</ele>
        <time>2021-07-24T05:23:42.000Z</time>
      </trkpt>
      <trkpt lat="45.24296" lon="5.7409">
        <ele>825.40002441406</ele>
        <time>2021-07-24T05:23:47.000Z</time>
      </trkpt>
      <trkpt lat="45.24294" lon="5.74088">
        <ele>825.79998779297</ele>
        <time>2021-07-24T05:23:49.000Z</time>
      </trkpt>
      <trkpt lat="45.24293" lon="5.74087">
        <ele>826.20001220703</ele>
        <time>2021-07-24T05:23:50.000Z</time>
      </trkpt>
      <trkpt lat="45.24294" lon="5.74085">
        <ele>826.20001220703</ele>
        <time>2021-07-24T05:23:51.000Z</time>
      </trkpt>
      <trkpt lat="45.24292" lon="5.74083">
        <ele>826.40002441406</ele>
        <time>2021-07-24T05:23:52.000Z</time>
      </trkpt>
      <trkpt lat="45.24289" lon="5.74079">
        <ele>826.40002441406</ele>
        <time>2021-07-24T05:23:54.000Z</time>
      </trkpt>
      <trkpt lat="45.24289" lon="5.74075">
        <ele>826.59997558594</ele>
        <time>2021-07-24T05:23:56.000Z</time>
      </trkpt>
      <trkpt lat="45.24288" lon="5.74074">
        <ele>827</ele>
        <time>2021-07-24T05:23:58.000Z</time>
      </trkpt>
      <trkpt lat="45.24284" lon="5.74073">
        <ele>827.40002441406</ele>
        <time>2021-07-24T05:24:00.000Z</time>
      </trkpt>
      <trkpt lat="45.24279" lon="5.74069">
        <ele>827.40002441406</ele>
        <time>2021-07-24T05:24:03.000Z</time>
      </trkpt>
      <trkpt lat="45.24276" lon="5.74065">
        <ele>828</ele>
        <time>2021-07-24T05:24:06.000Z</time>
      </trkpt>
      <trkpt lat="45.24275" lon="5.74064">
        <ele>828</ele>
        <time>2021-07-24T05:24:08.000Z</time>
      </trkpt>
      <trkpt lat="45.24275" lon="5.74064">
        <ele>828.20001220703</ele>
        <time>2021-07-24T05:24:09.000Z</time>
      </trkpt>
      <trkpt lat="45.24276" lon="5.74061">
        <ele>828.40002441406</ele>
        <time>2021-07-24T05:24:11.000Z</time>
      </trkpt>
      <trkpt lat="45.24276" lon="5.74059">
        <ele>828.40002441406</ele>
        <time>2021-07-24T05:24:13.000Z</time>
      </trkpt>
      <trkpt lat="45.24275" lon="5.74058">
        <ele>828.79998779297</ele>
        <time>2021-07-24T05:24:14.000Z</time>
      </trkpt>
      <trkpt lat="45.24273" lon="5.74055">
        <ele>828.79998779297</ele>
        <time>2021-07-24T05:24:16.000Z</time>
      </trkpt>
      <trkpt lat="45.24272" lon="5.74053">
        <ele>828.79998779297</ele>
        <time>2021-07-24T05:24:18.000Z</time>
      </trkpt>
      <trkpt lat="45.24272" lon="5.7405">
        <ele>828.79998779297</ele>
        <time>2021-07-24T05:24:20.000Z</time>
      </trkpt>
      <trkpt lat="45.2427" lon="5.74049">
        <ele>828.79998779297</ele>
        <time>2021-07-24T05:24:21.000Z</time>
      </trkpt>
      <trkpt lat="45.2427" lon="5.74048">
        <ele>828.79998779297</ele>
        <time>2021-07-24T05:24:22.000Z</time>
      </trkpt>
      <trkpt lat="45.24268" lon="5.74043">
        <ele>828.79998779297</ele>
        <time>2021-07-24T05:24:24.000Z</time>
      </trkpt>
      <trkpt lat="45.24266" lon="5.74041">
        <ele>829.20001220703</ele>
        <time>2021-07-24T05:24:25.000Z</time>
      </trkpt>
      <trkpt lat="45.24264" lon="5.74038">
        <ele>829.40002441406</ele>
        <time>2021-07-24T05:24:26.000Z</time>
      </trkpt>
      <trkpt lat="45.24262" lon="5.74036">
        <ele>829.40002441406</ele>
        <time>2021-07-24T05:24:27.000Z</time>
      </trkpt>
      <trkpt lat="45.24259" lon="5.74034">
        <ele>829.40002441406</ele>
        <time>2021-07-24T05:24:28.000Z</time>
      </trkpt>
      <trkpt lat="45.24252" lon="5.74026">
        <ele>829.79998779297</ele>
        <time>2021-07-24T05:24:30.000Z</time>
      </trkpt>
      <trkpt lat="45.24237" lon="5.74013">
        <ele>830.59997558594</ele>
        <time>2021-07-24T05:24:33.000Z</time>
      </trkpt>
      <trkpt lat="45.24233" lon="5.74009">
        <ele>830.79998779297</ele>
        <time>2021-07-24T05:24:34.000Z</time>
      </trkpt>
      <trkpt lat="45.24233" lon="5.74005">
        <ele>831</ele>
        <time>2021-07-24T05:24:35.000Z</time>
      </trkpt>
      <trkpt lat="45.24229" lon="5.73998">
        <ele>831</ele>
        <time>2021-07-24T05:24:37.000Z</time>
      </trkpt>
      <trkpt lat="45.24227" lon="5.73992">
        <ele>831.79998779297</ele>
        <time>2021-07-24T05:24:40.000Z</time>
      </trkpt>
      <trkpt lat="45.24226" lon="5.73988">
        <ele>832</ele>
        <time>2021-07-24T05:24:42.000Z</time>
      </trkpt>
      <trkpt lat="45.24224" lon="5.73986">
        <ele>832</ele>
        <time>2021-07-24T05:24:44.000Z</time>
      </trkpt>
      <trkpt lat="45.2422" lon="5.73983">
        <ele>832.20001220703</ele>
        <time>2021-07-24T05:24:46.000Z</time>
      </trkpt>
      <trkpt lat="45.24219" lon="5.73981">
        <ele>832.79998779297</ele>
        <time>2021-07-24T05:24:47.000Z</time>
      </trkpt>
      <trkpt lat="45.24212" lon="5.73972">
        <ele>833</ele>
        <time>2021-07-24T05:24:51.000Z</time>
      </trkpt>
      <trkpt lat="45.24208" lon="5.7397">
        <ele>833.20001220703</ele>
        <time>2021-07-24T05:24:53.000Z</time>
      </trkpt>
      <trkpt lat="45.24203" lon="5.73967">
        <ele>833.20001220703</ele>
        <time>2021-07-24T05:24:55.000Z</time>
      </trkpt>
      <trkpt lat="45.24201" lon="5.73965">
        <ele>833.59997558594</ele>
        <time>2021-07-24T05:24:56.000Z</time>
      </trkpt>
      <trkpt lat="45.24194" lon="5.73962">
        <ele>833.79998779297</ele>
        <time>2021-07-24T05:24:59.000Z</time>
      </trkpt>
      <trkpt lat="45.24191" lon="5.73959">
        <ele>834.20001220703</ele>
        <time>2021-07-24T05:25:01.000Z</time>
      </trkpt>
      <trkpt lat="45.24186" lon="5.73958">
        <ele>834.59997558594</ele>
        <time>2021-07-24T05:25:03.000Z</time>
      </trkpt>
      <trkpt lat="45.24183" lon="5.73953">
        <ele>835</ele>
        <time>2021-07-24T05:25:06.000Z</time>
      </trkpt>
      <trkpt lat="45.24182" lon="5.73952">
        <ele>835.40002441406</ele>
        <time>2021-07-24T05:25:07.000Z</time>
      </trkpt>
      <trkpt lat="45.24177" lon="5.73951">
        <ele>836.59997558594</ele>
        <time>2021-07-24T05:25:11.000Z</time>
      </trkpt>
      <trkpt lat="45.24175" lon="5.7395">
        <ele>836.59997558594</ele>
        <time>2021-07-24T05:25:13.000Z</time>
      </trkpt>
      <trkpt lat="45.24169" lon="5.73949">
        <ele>837.59997558594</ele>
        <time>2021-07-24T05:25:17.000Z</time>
      </trkpt>
      <trkpt lat="45.24165" lon="5.73948">
        <ele>838</ele>
        <time>2021-07-24T05:25:20.000Z</time>
      </trkpt>
      <trkpt lat="45.24163" lon="5.7395">
        <ele>838.40002441406</ele>
        <time>2021-07-24T05:25:22.000Z</time>
      </trkpt>
      <trkpt lat="45.2416" lon="5.73948">
        <ele>838.79998779297</ele>
        <time>2021-07-24T05:25:24.000Z</time>
      </trkpt>
      <trkpt lat="45.24159" lon="5.73949">
        <ele>839.20001220703</ele>
        <time>2021-07-24T05:25:25.000Z</time>
      </trkpt>
      <trkpt lat="45.24158" lon="5.73948">
        <ele>839.40002441406</ele>
        <time>2021-07-24T05:25:27.000Z</time>
      </trkpt>
      <trkpt lat="45.24157" lon="5.73947">
        <ele>839.79998779297</ele>
        <time>2021-07-24T05:25:28.000Z</time>
      </trkpt>
      <trkpt lat="45.24154" lon="5.73947">
        <ele>840</ele>
        <time>2021-07-24T05:25:29.000Z</time>
      </trkpt>
      <trkpt lat="45.24152" lon="5.73946">
        <ele>840.20001220703</ele>
        <time>2021-07-24T05:25:30.000Z</time>
      </trkpt>
      <trkpt lat="45.24148" lon="5.73944">
        <ele>840.40002441406</ele>
        <time>2021-07-24T05:25:32.000Z</time>
      </trkpt>
      <trkpt lat="45.24147" lon="5.73945">
        <ele>840.40002441406</ele>
        <time>2021-07-24T05:25:33.000Z</time>
      </trkpt>
      <trkpt lat="45.24146" lon="5.73946">
        <ele>841</ele>
        <time>2021-07-24T05:25:34.000Z</time>
      </trkpt>
      <trkpt lat="45.24143" lon="5.73947">
        <ele>842.20001220703</ele>
        <time>2021-07-24T05:25:37.000Z</time>
      </trkpt>
      <trkpt lat="45.24142" lon="5.73947">
        <ele>842.40002441406</ele>
        <time>2021-07-24T05:25:38.000Z</time>
      </trkpt>
      <trkpt lat="45.24141" lon="5.73947">
        <ele>842.40002441406</ele>
        <time>2021-07-24T05:25:39.000Z</time>
      </trkpt>
      <trkpt lat="45.24139" lon="5.73948">
        <ele>842.59997558594</ele>
        <time>2021-07-24T05:25:42.000Z</time>
      </trkpt>
      <trkpt lat="45.24137" lon="5.73949">
        <ele>843.20001220703</ele>
        <time>2021-07-24T05:25:44.000Z</time>
      </trkpt>
      <trkpt lat="45.24133" lon="5.7395">
        <ele>844.20001220703</ele>
        <time>2021-07-24T05:25:47.000Z</time>
      </trkpt>
      <trkpt lat="45.24131" lon="5.73951">
        <ele>844.59997558594</ele>
        <time>2021-07-24T05:25:50.000Z</time>
      </trkpt>
      <trkpt lat="45.24132" lon="5.73953">
        <ele>844.79998779297</ele>
        <time>2021-07-24T05:25:52.000Z</time>
      </trkpt>
      <trkpt lat="45.24127" lon="5.73957">
        <ele>845.20001220703</ele>
        <time>2021-07-24T05:25:55.000Z</time>
      </trkpt>
      <trkpt lat="45.24123" lon="5.7396">
        <ele>845.79998779297</ele>
        <time>2021-07-24T05:25:57.000Z</time>
      </trkpt>
      <trkpt lat="45.24119" lon="5.73963">
        <ele>846.40002441406</ele>
        <time>2021-07-24T05:26:00.000Z</time>
      </trkpt>
      <trkpt lat="45.24115" lon="5.73964">
        <ele>847.40002441406</ele>
        <time>2021-07-24T05:26:04.000Z</time>
      </trkpt>
      <trkpt lat="45.24114" lon="5.73965">
        <ele>847.59997558594</ele>
        <time>2021-07-24T05:26:05.000Z</time>
      </trkpt>
      <trkpt lat="45.24108" lon="5.7397">
        <ele>847.79998779297</ele>
        <time>2021-07-24T05:26:08.000Z</time>
      </trkpt>
      <trkpt lat="45.24104" lon="5.73971">
        <ele>848.40002441406</ele>
        <time>2021-07-24T05:26:10.000Z</time>
      </trkpt>
      <trkpt lat="45.24102" lon="5.73972">
        <ele>848.79998779297</ele>
        <time>2021-07-24T05:26:11.000Z</time>
      </trkpt>
      <trkpt lat="45.24101" lon="5.73973">
        <ele>848.79998779297</ele>
        <time>2021-07-24T05:26:12.000Z</time>
      </trkpt>
      <trkpt lat="45.241" lon="5.73974">
        <ele>849</ele>
        <time>2021-07-24T05:26:13.000Z</time>
      </trkpt>
      <trkpt lat="45.24099" lon="5.73974">
        <ele>849.20001220703</ele>
        <time>2021-07-24T05:26:14.000Z</time>
      </trkpt>
      <trkpt lat="45.24097" lon="5.73976">
        <ele>850</ele>
        <time>2021-07-24T05:26:16.000Z</time>
      </trkpt>
      <trkpt lat="45.24094" lon="5.73978">
        <ele>850.20001220703</ele>
        <time>2021-07-24T05:26:18.000Z</time>
      </trkpt>
      <trkpt lat="45.2409" lon="5.73979">
        <ele>850.79998779297</ele>
        <time>2021-07-24T05:26:20.000Z</time>
      </trkpt>
      <trkpt lat="45.24087" lon="5.73981">
        <ele>851.20001220703</ele>
        <time>2021-07-24T05:26:22.000Z</time>
      </trkpt>
      <trkpt lat="45.24084" lon="5.73981">
        <ele>852.20001220703</ele>
        <time>2021-07-24T05:26:26.000Z</time>
      </trkpt>
      <trkpt lat="45.24083" lon="5.73983">
        <ele>852.40002441406</ele>
        <time>2021-07-24T05:26:27.000Z</time>
      </trkpt>
      <trkpt lat="45.24081" lon="5.73984">
        <ele>853</ele>
        <time>2021-07-24T05:26:28.000Z</time>
      </trkpt>
      <trkpt lat="45.24078" lon="5.73987">
        <ele>853.40002441406</ele>
        <time>2021-07-24T05:26:31.000Z</time>
      </trkpt>
      <trkpt lat="45.24077" lon="5.73988">
        <ele>853.59997558594</ele>
        <time>2021-07-24T05:26:32.000Z</time>
      </trkpt>
      <trkpt lat="45.24076" lon="5.73988">
        <ele>853.79998779297</ele>
        <time>2021-07-24T05:26:33.000Z</time>
      </trkpt>
      <trkpt lat="45.24073" lon="5.73993">
        <ele>854.79998779297</ele>
        <time>2021-07-24T05:26:36.000Z</time>
      </trkpt>
      <trkpt lat="45.24072" lon="5.73995">
        <ele>854.79998779297</ele>
        <time>2021-07-24T05:26:37.000Z</time>
      </trkpt>
      <trkpt lat="45.24071" lon="5.73997">
        <ele>854.79998779297</ele>
        <time>2021-07-24T05:26:38.000Z</time>
      </trkpt>
      <trkpt lat="45.24067" lon="5.74003">
        <ele>855.79998779297</ele>
        <time>2021-07-24T05:26:42.000Z</time>
      </trkpt>
      <trkpt lat="45.24066" lon="5.74005">
        <ele>856.20001220703</ele>
        <time>2021-07-24T05:26:43.000Z</time>
      </trkpt>
      <trkpt lat="45.24064" lon="5.74009">
        <ele>856.20001220703</ele>
        <time>2021-07-24T05:26:45.000Z</time>
      </trkpt>
      <trkpt lat="45.24063" lon="5.7401">
        <ele>856.79998779297</ele>
        <time>2021-07-24T05:26:46.000Z</time>
      </trkpt>
      <trkpt lat="45.24061" lon="5.74012">
        <ele>857</ele>
        <time>2021-07-24T05:26:48.000Z</time>
      </trkpt>
      <trkpt lat="45.24058" lon="5.74014">
        <ele>857.20001220703</ele>
        <time>2021-07-24T05:26:50.000Z</time>
      </trkpt>
      <trkpt lat="45.24056" lon="5.74016">
        <ele>857.79998779297</ele>
        <time>2021-07-24T05:26:52.000Z</time>
      </trkpt>
      <trkpt lat="45.24055" lon="5.74017">
        <ele>858</ele>
        <time>2021-07-24T05:26:53.000Z</time>
      </trkpt>
      <trkpt lat="45.24053" lon="5.74019">
        <ele>858.40002441406</ele>
        <time>2021-07-24T05:26:55.000Z</time>
      </trkpt>
      <trkpt lat="45.24051" lon="5.74022">
        <ele>858.79998779297</ele>
        <time>2021-07-24T05:26:59.000Z</time>
      </trkpt>
      <trkpt lat="45.24051" lon="5.74023">
        <ele>859</ele>
        <time>2021-07-24T05:27:00.000Z</time>
      </trkpt>
      <trkpt lat="45.2405" lon="5.74023">
        <ele>859.40002441406</ele>
        <time>2021-07-24T05:27:01.000Z</time>
      </trkpt>
      <trkpt lat="45.24048" lon="5.74025">
        <ele>860.20001220703</ele>
        <time>2021-07-24T05:27:04.000Z</time>
      </trkpt>
      <trkpt lat="45.24046" lon="5.74026">
        <ele>860.20001220703</ele>
        <time>2021-07-24T05:27:05.000Z</time>
      </trkpt>
      <trkpt lat="45.24045" lon="5.74028">
        <ele>860.40002441406</ele>
        <time>2021-07-24T05:27:06.000Z</time>
      </trkpt>
      <trkpt lat="45.24043" lon="5.7403">
        <ele>861</ele>
        <time>2021-07-24T05:27:07.000Z</time>
      </trkpt>
      <trkpt lat="45.24042" lon="5.74032">
        <ele>861</ele>
        <time>2021-07-24T05:27:08.000Z</time>
      </trkpt>
      <trkpt lat="45.2404" lon="5.74035">
        <ele>861.79998779297</ele>
        <time>2021-07-24T05:27:11.000Z</time>
      </trkpt>
      <trkpt lat="45.24037" lon="5.74037">
        <ele>862</ele>
        <time>2021-07-24T05:27:13.000Z</time>
      </trkpt>
      <trkpt lat="45.24035" lon="5.74041">
        <ele>862.79998779297</ele>
        <time>2021-07-24T05:27:15.000Z</time>
      </trkpt>
      <trkpt lat="45.24035" lon="5.74043">
        <ele>863.40002441406</ele>
        <time>2021-07-24T05:27:17.000Z</time>
      </trkpt>
      <trkpt lat="45.24035" lon="5.74044">
        <ele>863.59997558594</ele>
        <time>2021-07-24T05:27:18.000Z</time>
      </trkpt>
      <trkpt lat="45.24034" lon="5.74046">
        <ele>863.79998779297</ele>
        <time>2021-07-24T05:27:19.000Z</time>
      </trkpt>
      <trkpt lat="45.24034" lon="5.74046">
        <ele>863.79998779297</ele>
        <time>2021-07-24T05:27:20.000Z</time>
      </trkpt>
      <trkpt lat="45.24031" lon="5.7405">
        <ele>864.59997558594</ele>
        <time>2021-07-24T05:27:23.000Z</time>
      </trkpt>
      <trkpt lat="45.24031" lon="5.74052">
        <ele>864.79998779297</ele>
        <time>2021-07-24T05:27:24.000Z</time>
      </trkpt>
      <trkpt lat="45.2403" lon="5.74053">
        <ele>865.20001220703</ele>
        <time>2021-07-24T05:27:25.000Z</time>
      </trkpt>
      <trkpt lat="45.2403" lon="5.74055">
        <ele>865.40002441406</ele>
        <time>2021-07-24T05:27:27.000Z</time>
      </trkpt>
      <trkpt lat="45.2403" lon="5.74056">
        <ele>866</ele>
        <time>2021-07-24T05:27:28.000Z</time>
      </trkpt>
      <trkpt lat="45.2403" lon="5.74057">
        <ele>866.20001220703</ele>
        <time>2021-07-24T05:27:29.000Z</time>
      </trkpt>
      <trkpt lat="45.24029" lon="5.74058">
        <ele>866.40002441406</ele>
        <time>2021-07-24T05:27:31.000Z</time>
      </trkpt>
      <trkpt lat="45.24026" lon="5.74058">
        <ele>867.20001220703</ele>
        <time>2021-07-24T05:27:33.000Z</time>
      </trkpt>
      <trkpt lat="45.24024" lon="5.7406">
        <ele>867.20001220703</ele>
        <time>2021-07-24T05:27:34.000Z</time>
      </trkpt>
      <trkpt lat="45.24024" lon="5.74062">
        <ele>867.20001220703</ele>
        <time>2021-07-24T05:27:35.000Z</time>
      </trkpt>
      <trkpt lat="45.24023" lon="5.74064">
        <ele>867.59997558594</ele>
        <time>2021-07-24T05:27:36.000Z</time>
      </trkpt>
      <trkpt lat="45.2402" lon="5.74068">
        <ele>868.40002441406</ele>
        <time>2021-07-24T05:27:39.000Z</time>
      </trkpt>
      <trkpt lat="45.24015" lon="5.74073">
        <ele>869.59997558594</ele>
        <time>2021-07-24T05:27:44.000Z</time>
      </trkpt>
      <trkpt lat="45.24011" lon="5.74077">
        <ele>870.79998779297</ele>
        <time>2021-07-24T05:27:48.000Z</time>
      </trkpt>
      <trkpt lat="45.2401" lon="5.74078">
        <ele>870.79998779297</ele>
        <time>2021-07-24T05:27:49.000Z</time>
      </trkpt>
      <trkpt lat="45.2401" lon="5.74079">
        <ele>871</ele>
        <time>2021-07-24T05:27:50.000Z</time>
      </trkpt>
      <trkpt lat="45.24012" lon="5.74083">
        <ele>871.79998779297</ele>
        <time>2021-07-24T05:27:53.000Z</time>
      </trkpt>
      <trkpt lat="45.24009" lon="5.74085">
        <ele>872.40002441406</ele>
        <time>2021-07-24T05:27:56.000Z</time>
      </trkpt>
      <trkpt lat="45.24007" lon="5.74086">
        <ele>873.20001220703</ele>
        <time>2021-07-24T05:27:57.000Z</time>
      </trkpt>
      <trkpt lat="45.24006" lon="5.74087">
        <ele>873.59997558594</ele>
        <time>2021-07-24T05:27:58.000Z</time>
      </trkpt>
      <trkpt lat="45.24002" lon="5.74089">
        <ele>874.20001220703</ele>
        <time>2021-07-24T05:28:01.000Z</time>
      </trkpt>
      <trkpt lat="45.24001" lon="5.7409">
        <ele>874.59997558594</ele>
        <time>2021-07-24T05:28:02.000Z</time>
      </trkpt>
      <trkpt lat="45.24001" lon="5.74091">
        <ele>874.59997558594</ele>
        <time>2021-07-24T05:28:03.000Z</time>
      </trkpt>
      <trkpt lat="45.23999" lon="5.74094">
        <ele>875.20001220703</ele>
        <time>2021-07-24T05:28:06.000Z</time>
      </trkpt>
      <trkpt lat="45.23998" lon="5.74095">
        <ele>875.79998779297</ele>
        <time>2021-07-24T05:28:07.000Z</time>
      </trkpt>
      <trkpt lat="45.23998" lon="5.74096">
        <ele>875.79998779297</ele>
        <time>2021-07-24T05:28:08.000Z</time>
      </trkpt>
      <trkpt lat="45.23999" lon="5.74098">
        <ele>876.40002441406</ele>
        <time>2021-07-24T05:28:10.000Z</time>
      </trkpt>
      <trkpt lat="45.23999" lon="5.741">
        <ele>877.20001220703</ele>
        <time>2021-07-24T05:28:12.000Z</time>
      </trkpt>
      <trkpt lat="45.23999" lon="5.74101">
        <ele>877.40002441406</ele>
        <time>2021-07-24T05:28:13.000Z</time>
      </trkpt>
      <trkpt lat="45.23997" lon="5.74103">
        <ele>877.79998779297</ele>
        <time>2021-07-24T05:28:15.000Z</time>
      </trkpt>
      <trkpt lat="45.23996" lon="5.74105">
        <ele>878</ele>
        <time>2021-07-24T05:28:16.000Z</time>
      </trkpt>
      <trkpt lat="45.23995" lon="5.74106">
        <ele>878.79998779297</ele>
        <time>2021-07-24T05:28:17.000Z</time>
      </trkpt>
      <trkpt lat="45.23993" lon="5.74108">
        <ele>878.79998779297</ele>
        <time>2021-07-24T05:28:18.000Z</time>
      </trkpt>
      <trkpt lat="45.23992" lon="5.7411">
        <ele>878.79998779297</ele>
        <time>2021-07-24T05:28:19.000Z</time>
      </trkpt>
      <trkpt lat="45.2399" lon="5.7411">
        <ele>879.40002441406</ele>
        <time>2021-07-24T05:28:20.000Z</time>
      </trkpt>
      <trkpt lat="45.23988" lon="5.7411">
        <ele>879.79998779297</ele>
        <time>2021-07-24T05:28:21.000Z</time>
      </trkpt>
      <trkpt lat="45.23984" lon="5.74111">
        <ele>880</ele>
        <time>2021-07-24T05:28:22.000Z</time>
      </trkpt>
      <trkpt lat="45.23978" lon="5.74113">
        <ele>880.40002441406</ele>
        <time>2021-07-24T05:28:25.000Z</time>
      </trkpt>
      <trkpt lat="45.23978" lon="5.74115">
        <ele>880.79998779297</ele>
        <time>2021-07-24T05:28:26.000Z</time>
      </trkpt>
      <trkpt lat="45.23978" lon="5.74116">
        <ele>881.40002441406</ele>
        <time>2021-07-24T05:28:27.000Z</time>
      </trkpt>
      <trkpt lat="45.23977" lon="5.74116">
        <ele>881.59997558594</ele>
        <time>2021-07-24T05:28:28.000Z</time>
      </trkpt>
      <trkpt lat="45.23975" lon="5.74117">
        <ele>882</ele>
        <time>2021-07-24T05:28:30.000Z</time>
      </trkpt>
      <trkpt lat="45.23975" lon="5.74118">
        <ele>882.20001220703</ele>
        <time>2021-07-24T05:28:31.000Z</time>
      </trkpt>
      <trkpt lat="45.23974" lon="5.74117">
        <ele>882.20001220703</ele>
        <time>2021-07-24T05:28:32.000Z</time>
      </trkpt>
      <trkpt lat="45.23972" lon="5.74117">
        <ele>883.20001220703</ele>
        <time>2021-07-24T05:28:33.000Z</time>
      </trkpt>
      <trkpt lat="45.23972" lon="5.74117">
        <ele>883.20001220703</ele>
        <time>2021-07-24T05:28:34.000Z</time>
      </trkpt>
      <trkpt lat="45.23971" lon="5.74116">
        <ele>883.79998779297</ele>
        <time>2021-07-24T05:28:36.000Z</time>
      </trkpt>
      <trkpt lat="45.23971" lon="5.74117">
        <ele>884</ele>
        <time>2021-07-24T05:28:37.000Z</time>
      </trkpt>
      <trkpt lat="45.23973" lon="5.74118">
        <ele>884.20001220703</ele>
        <time>2021-07-24T05:28:38.000Z</time>
      </trkpt>
      <trkpt lat="45.23968" lon="5.74121">
        <ele>885</ele>
        <time>2021-07-24T05:28:40.000Z</time>
      </trkpt>
      <trkpt lat="45.23965" lon="5.74122">
        <ele>885.40002441406</ele>
        <time>2021-07-24T05:28:42.000Z</time>
      </trkpt>
      <trkpt lat="45.23961" lon="5.74121">
        <ele>886.20001220703</ele>
        <time>2021-07-24T05:28:44.000Z</time>
      </trkpt>
      <trkpt lat="45.23959" lon="5.74121">
        <ele>886.40002441406</ele>
        <time>2021-07-24T05:28:46.000Z</time>
      </trkpt>
      <trkpt lat="45.23957" lon="5.7412">
        <ele>886.79998779297</ele>
        <time>2021-07-24T05:28:47.000Z</time>
      </trkpt>
      <trkpt lat="45.23953" lon="5.74118">
        <ele>887.59997558594</ele>
        <time>2021-07-24T05:28:49.000Z</time>
      </trkpt>
      <trkpt lat="45.23951" lon="5.74116">
        <ele>888</ele>
        <time>2021-07-24T05:28:51.000Z</time>
      </trkpt>
      <trkpt lat="45.23948" lon="5.74115">
        <ele>888</ele>
        <time>2021-07-24T05:28:52.000Z</time>
      </trkpt>
      <trkpt lat="45.23948" lon="5.74115">
        <ele>888.20001220703</ele>
        <time>2021-07-24T05:28:53.000Z</time>
      </trkpt>
      <trkpt lat="45.23946" lon="5.74113">
        <ele>888.59997558594</ele>
        <time>2021-07-24T05:28:54.000Z</time>
      </trkpt>
      <trkpt lat="45.23941" lon="5.74112">
        <ele>889.20001220703</ele>
        <time>2021-07-24T05:28:56.000Z</time>
      </trkpt>
      <trkpt lat="45.23933" lon="5.7411">
        <ele>889.79998779297</ele>
        <time>2021-07-24T05:28:58.000Z</time>
      </trkpt>
      <trkpt lat="45.23926" lon="5.74101">
        <ele>891.20001220703</ele>
        <time>2021-07-24T05:29:02.000Z</time>
      </trkpt>
      <trkpt lat="45.23925" lon="5.74098">
        <ele>891.59997558594</ele>
        <time>2021-07-24T05:29:04.000Z</time>
      </trkpt>
      <trkpt lat="45.23923" lon="5.74096">
        <ele>892</ele>
        <time>2021-07-24T05:29:06.000Z</time>
      </trkpt>
      <trkpt lat="45.23922" lon="5.74095">
        <ele>892.59997558594</ele>
        <time>2021-07-24T05:29:07.000Z</time>
      </trkpt>
      <trkpt lat="45.23919" lon="5.74093">
        <ele>893.20001220703</ele>
        <time>2021-07-24T05:29:09.000Z</time>
      </trkpt>
      <trkpt lat="45.23915" lon="5.74092">
        <ele>893.79998779297</ele>
        <time>2021-07-24T05:29:11.000Z</time>
      </trkpt>
      <trkpt lat="45.23909" lon="5.74091">
        <ele>895</ele>
        <time>2021-07-24T05:29:15.000Z</time>
      </trkpt>
      <trkpt lat="45.23908" lon="5.74091">
        <ele>895.20001220703</ele>
        <time>2021-07-24T05:29:16.000Z</time>
      </trkpt>
      <trkpt lat="45.23906" lon="5.7409">
        <ele>896</ele>
        <time>2021-07-24T05:29:19.000Z</time>
      </trkpt>
      <trkpt lat="45.23904" lon="5.74089">
        <ele>896.20001220703</ele>
        <time>2021-07-24T05:29:20.000Z</time>
      </trkpt>
      <trkpt lat="45.23903" lon="5.74088">
        <ele>897.20001220703</ele>
        <time>2021-07-24T05:29:24.000Z</time>
      </trkpt>
      <trkpt lat="45.23903" lon="5.74088">
        <ele>897.59997558594</ele>
        <time>2021-07-24T05:29:25.000Z</time>
      </trkpt>
      <trkpt lat="45.23902" lon="5.74088">
        <ele>897.79998779297</ele>
        <time>2021-07-24T05:29:27.000Z</time>
      </trkpt>
      <trkpt lat="45.23902" lon="5.74087">
        <ele>898</ele>
        <time>2021-07-24T05:29:28.000Z</time>
      </trkpt>
      <trkpt lat="45.23901" lon="5.74086">
        <ele>898.20001220703</ele>
        <time>2021-07-24T05:29:29.000Z</time>
      </trkpt>
      <trkpt lat="45.239" lon="5.74084">
        <ele>898.79998779297</ele>
        <time>2021-07-24T05:29:30.000Z</time>
      </trkpt>
      <trkpt lat="45.23899" lon="5.74084">
        <ele>899</ele>
        <time>2021-07-24T05:29:31.000Z</time>
      </trkpt>
      <trkpt lat="45.239" lon="5.74084">
        <ele>899.20001220703</ele>
        <time>2021-07-24T05:29:32.000Z</time>
      </trkpt>
      <trkpt lat="45.23899" lon="5.74086">
        <ele>900</ele>
        <time>2021-07-24T05:29:35.000Z</time>
      </trkpt>
      <trkpt lat="45.23899" lon="5.74087">
        <ele>900.59997558594</ele>
        <time>2021-07-24T05:29:37.000Z</time>
      </trkpt>
      <trkpt lat="45.23898" lon="5.74087">
        <ele>900.59997558594</ele>
        <time>2021-07-24T05:29:38.000Z</time>
      </trkpt>
      <trkpt lat="45.23897" lon="5.74087">
        <ele>901</ele>
        <time>2021-07-24T05:29:40.000Z</time>
      </trkpt>
      <trkpt lat="45.23894" lon="5.74089">
        <ele>902</ele>
        <time>2021-07-24T05:29:44.000Z</time>
      </trkpt>
      <trkpt lat="45.23894" lon="5.74089">
        <ele>902.20001220703</ele>
        <time>2021-07-24T05:29:45.000Z</time>
      </trkpt>
      <trkpt lat="45.23891" lon="5.7409">
        <ele>902.79998779297</ele>
        <time>2021-07-24T05:29:48.000Z</time>
      </trkpt>
      <trkpt lat="45.2389" lon="5.74092">
        <ele>903.20001220703</ele>
        <time>2021-07-24T05:29:50.000Z</time>
      </trkpt>
      <trkpt lat="45.2389" lon="5.74094">
        <ele>903.79998779297</ele>
        <time>2021-07-24T05:29:52.000Z</time>
      </trkpt>
      <trkpt lat="45.2389" lon="5.74095">
        <ele>904</ele>
        <time>2021-07-24T05:29:54.000Z</time>
      </trkpt>
      <trkpt lat="45.2389" lon="5.74097">
        <ele>904.20001220703</ele>
        <time>2021-07-24T05:29:55.000Z</time>
      </trkpt>
      <trkpt lat="45.23889" lon="5.74099">
        <ele>904.20001220703</ele>
        <time>2021-07-24T05:29:56.000Z</time>
      </trkpt>
      <trkpt lat="45.23887" lon="5.741">
        <ele>904.59997558594</ele>
        <time>2021-07-24T05:29:57.000Z</time>
      </trkpt>
      <trkpt lat="45.2388" lon="5.74102">
        <ele>905.20001220703</ele>
        <time>2021-07-24T05:30:00.000Z</time>
      </trkpt>
      <trkpt lat="45.23875" lon="5.74105">
        <ele>906</ele>
        <time>2021-07-24T05:30:02.000Z</time>
      </trkpt>
      <trkpt lat="45.23872" lon="5.74108">
        <ele>906.20001220703</ele>
        <time>2021-07-24T05:30:04.000Z</time>
      </trkpt>
      <trkpt lat="45.23871" lon="5.7411">
        <ele>906.59997558594</ele>
        <time>2021-07-24T05:30:05.000Z</time>
      </trkpt>
      <trkpt lat="45.23871" lon="5.74112">
        <ele>907.20001220703</ele>
        <time>2021-07-24T05:30:07.000Z</time>
      </trkpt>
      <trkpt lat="45.23869" lon="5.74116">
        <ele>908</ele>
        <time>2021-07-24T05:30:10.000Z</time>
      </trkpt>
      <trkpt lat="45.23868" lon="5.74119">
        <ele>908.20001220703</ele>
        <time>2021-07-24T05:30:12.000Z</time>
      </trkpt>
      <trkpt lat="45.23867" lon="5.7412">
        <ele>908.40002441406</ele>
        <time>2021-07-24T05:30:13.000Z</time>
      </trkpt>
      <trkpt lat="45.23866" lon="5.74124">
        <ele>909</ele>
        <time>2021-07-24T05:30:16.000Z</time>
      </trkpt>
      <trkpt lat="45.23866" lon="5.74125">
        <ele>909.59997558594</ele>
        <time>2021-07-24T05:30:17.000Z</time>
      </trkpt>
      <trkpt lat="45.23865" lon="5.74127">
        <ele>909.59997558594</ele>
        <time>2021-07-24T05:30:18.000Z</time>
      </trkpt>
      <trkpt lat="45.23859" lon="5.74128">
        <ele>910.20001220703</ele>
        <time>2021-07-24T05:30:22.000Z</time>
      </trkpt>
      <trkpt lat="45.23855" lon="5.7413">
        <ele>911.20001220703</ele>
        <time>2021-07-24T05:30:24.000Z</time>
      </trkpt>
      <trkpt lat="45.23854" lon="5.74132">
        <ele>911.59997558594</ele>
        <time>2021-07-24T05:30:26.000Z</time>
      </trkpt>
      <trkpt lat="45.23854" lon="5.74133">
        <ele>911.79998779297</ele>
        <time>2021-07-24T05:30:27.000Z</time>
      </trkpt>
      <trkpt lat="45.23854" lon="5.74134">
        <ele>912</ele>
        <time>2021-07-24T05:30:28.000Z</time>
      </trkpt>
      <trkpt lat="45.23854" lon="5.74135">
        <ele>912.20001220703</ele>
        <time>2021-07-24T05:30:29.000Z</time>
      </trkpt>
      <trkpt lat="45.23852" lon="5.74136">
        <ele>912.79998779297</ele>
        <time>2021-07-24T05:30:32.000Z</time>
      </trkpt>
      <trkpt lat="45.23841" lon="5.74136">
        <ele>914</ele>
        <time>2021-07-24T05:30:36.000Z</time>
      </trkpt>
      <trkpt lat="45.23837" lon="5.74136">
        <ele>914.40002441406</ele>
        <time>2021-07-24T05:30:37.000Z</time>
      </trkpt>
      <trkpt lat="45.23819" lon="5.74134">
        <ele>915.20001220703</ele>
        <time>2021-07-24T05:30:42.000Z</time>
      </trkpt>
      <trkpt lat="45.23811" lon="5.74135">
        <ele>916.20001220703</ele>
        <time>2021-07-24T05:30:46.000Z</time>
      </trkpt>
      <trkpt lat="45.2381" lon="5.74136">
        <ele>916.79998779297</ele>
        <time>2021-07-24T05:30:47.000Z</time>
      </trkpt>
      <trkpt lat="45.23811" lon="5.74137">
        <ele>917</ele>
        <time>2021-07-24T05:30:48.000Z</time>
      </trkpt>
      <trkpt lat="45.2381" lon="5.74137">
        <ele>917</ele>
        <time>2021-07-24T05:30:49.000Z</time>
      </trkpt>
      <trkpt lat="45.2381" lon="5.74138">
        <ele>917.40002441406</ele>
        <time>2021-07-24T05:30:51.000Z</time>
      </trkpt>
      <trkpt lat="45.2381" lon="5.74139">
        <ele>917.59997558594</ele>
        <time>2021-07-24T05:30:52.000Z</time>
      </trkpt>
      <trkpt lat="45.2381" lon="5.74139">
        <ele>918</ele>
        <time>2021-07-24T05:30:53.000Z</time>
      </trkpt>
      <trkpt lat="45.23812" lon="5.74142">
        <ele>918.59997558594</ele>
        <time>2021-07-24T05:30:57.000Z</time>
      </trkpt>
      <trkpt lat="45.23812" lon="5.74143">
        <ele>919.20001220703</ele>
        <time>2021-07-24T05:30:58.000Z</time>
      </trkpt>
      <trkpt lat="45.23812" lon="5.74144">
        <ele>919.20001220703</ele>
        <time>2021-07-24T05:31:00.000Z</time>
      </trkpt>
      <trkpt lat="45.23813" lon="5.74147">
        <ele>919.59997558594</ele>
        <time>2021-07-24T05:31:02.000Z</time>
      </trkpt>
      <trkpt lat="45.23812" lon="5.74148">
        <ele>920</ele>
        <time>2021-07-24T05:31:03.000Z</time>
      </trkpt>
      <trkpt lat="45.23811" lon="5.74148">
        <ele>920.40002441406</ele>
        <time>2021-07-24T05:31:04.000Z</time>
      </trkpt>
      <trkpt lat="45.23808" lon="5.74148">
        <ele>920.59997558594</ele>
        <time>2021-07-24T05:31:06.000Z</time>
      </trkpt>
      <trkpt lat="45.23807" lon="5.74149">
        <ele>920.79998779297</ele>
        <time>2021-07-24T05:31:08.000Z</time>
      </trkpt>
      <trkpt lat="45.23805" lon="5.7415">
        <ele>921.59997558594</ele>
        <time>2021-07-24T05:31:11.000Z</time>
      </trkpt>
      <trkpt lat="45.23803" lon="5.7415">
        <ele>921.79998779297</ele>
        <time>2021-07-24T05:31:14.000Z</time>
      </trkpt>
      <trkpt lat="45.23798" lon="5.74148">
        <ele>922.79998779297</ele>
        <time>2021-07-24T05:31:17.000Z</time>
      </trkpt>
      <trkpt lat="45.2379" lon="5.7415">
        <ele>923.59997558594</ele>
        <time>2021-07-24T05:31:20.000Z</time>
      </trkpt>
      <trkpt lat="45.23789" lon="5.74152">
        <ele>923.59997558594</ele>
        <time>2021-07-24T05:31:21.000Z</time>
      </trkpt>
      <trkpt lat="45.23788" lon="5.74153">
        <ele>924</ele>
        <time>2021-07-24T05:31:22.000Z</time>
      </trkpt>
      <trkpt lat="45.23787" lon="5.74154">
        <ele>924.59997558594</ele>
        <time>2021-07-24T05:31:23.000Z</time>
      </trkpt>
      <trkpt lat="45.23785" lon="5.74155">
        <ele>925</ele>
        <time>2021-07-24T05:31:24.000Z</time>
      </trkpt>
      <trkpt lat="45.23786" lon="5.74158">
        <ele>925</ele>
        <time>2021-07-24T05:31:25.000Z</time>
      </trkpt>
      <trkpt lat="45.23785" lon="5.74163">
        <ele>925.79998779297</ele>
        <time>2021-07-24T05:31:29.000Z</time>
      </trkpt>
      <trkpt lat="45.23784" lon="5.74164">
        <ele>926</ele>
        <time>2021-07-24T05:31:30.000Z</time>
      </trkpt>
      <trkpt lat="45.23783" lon="5.74165">
        <ele>926</ele>
        <time>2021-07-24T05:31:31.000Z</time>
      </trkpt>
      <trkpt lat="45.23784" lon="5.74166">
        <ele>926.79998779297</ele>
        <time>2021-07-24T05:31:32.000Z</time>
      </trkpt>
      <trkpt lat="45.23783" lon="5.74166">
        <ele>926.79998779297</ele>
        <time>2021-07-24T05:31:33.000Z</time>
      </trkpt>
      <trkpt lat="45.23783" lon="5.74167">
        <ele>927.20001220703</ele>
        <time>2021-07-24T05:31:34.000Z</time>
      </trkpt>
      <trkpt lat="45.23782" lon="5.7417">
        <ele>928.20001220703</ele>
        <time>2021-07-24T05:31:38.000Z</time>
      </trkpt>
      <trkpt lat="45.23772" lon="5.74169">
        <ele>929.20001220703</ele>
        <time>2021-07-24T05:31:42.000Z</time>
      </trkpt>
      <trkpt lat="45.23771" lon="5.74169">
        <ele>929.59997558594</ele>
        <time>2021-07-24T05:31:43.000Z</time>
      </trkpt>
      <trkpt lat="45.23768" lon="5.7417">
        <ele>929.79998779297</ele>
        <time>2021-07-24T05:31:45.000Z</time>
      </trkpt>
      <trkpt lat="45.23767" lon="5.74171">
        <ele>930.20001220703</ele>
        <time>2021-07-24T05:31:46.000Z</time>
      </trkpt>
      <trkpt lat="45.23766" lon="5.74173">
        <ele>930.40002441406</ele>
        <time>2021-07-24T05:31:48.000Z</time>
      </trkpt>
      <trkpt lat="45.23766" lon="5.74175">
        <ele>930.79998779297</ele>
        <time>2021-07-24T05:31:49.000Z</time>
      </trkpt>
      <trkpt lat="45.23766" lon="5.74176">
        <ele>931</ele>
        <time>2021-07-24T05:31:50.000Z</time>
      </trkpt>
      <trkpt lat="45.23762" lon="5.74177">
        <ele>931.40002441406</ele>
        <time>2021-07-24T05:31:52.000Z</time>
      </trkpt>
      <trkpt lat="45.23758" lon="5.7418">
        <ele>932</ele>
        <time>2021-07-24T05:31:54.000Z</time>
      </trkpt>
      <trkpt lat="45.2375" lon="5.74183">
        <ele>933</ele>
        <time>2021-07-24T05:31:58.000Z</time>
      </trkpt>
      <trkpt lat="45.23749" lon="5.74185">
        <ele>933.20001220703</ele>
        <time>2021-07-24T05:31:59.000Z</time>
      </trkpt>
      <trkpt lat="45.23747" lon="5.74188">
        <ele>934.20001220703</ele>
        <time>2021-07-24T05:32:01.000Z</time>
      </trkpt>
      <trkpt lat="45.23747" lon="5.74189">
        <ele>934.20001220703</ele>
        <time>2021-07-24T05:32:02.000Z</time>
      </trkpt>
      <trkpt lat="45.23746" lon="5.74191">
        <ele>934.59997558594</ele>
        <time>2021-07-24T05:32:04.000Z</time>
      </trkpt>
      <trkpt lat="45.23746" lon="5.74193">
        <ele>935.20001220703</ele>
        <time>2021-07-24T05:32:06.000Z</time>
      </trkpt>
      <trkpt lat="45.23745" lon="5.74193">
        <ele>935.59997558594</ele>
        <time>2021-07-24T05:32:07.000Z</time>
      </trkpt>
      <trkpt lat="45.23743" lon="5.74197">
        <ele>936.59997558594</ele>
        <time>2021-07-24T05:32:10.000Z</time>
      </trkpt>
      <trkpt lat="45.23742" lon="5.74196">
        <ele>937.20001220703</ele>
        <time>2021-07-24T05:32:12.000Z</time>
      </trkpt>
      <trkpt lat="45.23742" lon="5.74199">
        <ele>937.59997558594</ele>
        <time>2021-07-24T05:32:14.000Z</time>
      </trkpt>
      <trkpt lat="45.23742" lon="5.74201">
        <ele>937.79998779297</ele>
        <time>2021-07-24T05:32:15.000Z</time>
      </trkpt>
      <trkpt lat="45.23742" lon="5.74203">
        <ele>938</ele>
        <time>2021-07-24T05:32:17.000Z</time>
      </trkpt>
      <trkpt lat="45.23742" lon="5.74205">
        <ele>938.79998779297</ele>
        <time>2021-07-24T05:32:19.000Z</time>
      </trkpt>
      <trkpt lat="45.23741" lon="5.74205">
        <ele>939</ele>
        <time>2021-07-24T05:32:20.000Z</time>
      </trkpt>
      <trkpt lat="45.23741" lon="5.74207">
        <ele>939.40002441406</ele>
        <time>2021-07-24T05:32:22.000Z</time>
      </trkpt>
      <trkpt lat="45.23742" lon="5.74208">
        <ele>939.59997558594</ele>
        <time>2021-07-24T05:32:23.000Z</time>
      </trkpt>
      <trkpt lat="45.23742" lon="5.74209">
        <ele>939.59997558594</ele>
        <time>2021-07-24T05:32:24.000Z</time>
      </trkpt>
      <trkpt lat="45.23743" lon="5.74211">
        <ele>940.20001220703</ele>
        <time>2021-07-24T05:32:26.000Z</time>
      </trkpt>
      <trkpt lat="45.23742" lon="5.74212">
        <ele>940.79998779297</ele>
        <time>2021-07-24T05:32:28.000Z</time>
      </trkpt>
      <trkpt lat="45.23742" lon="5.74212">
        <ele>941</ele>
        <time>2021-07-24T05:32:29.000Z</time>
      </trkpt>
      <trkpt lat="45.23743" lon="5.74213">
        <ele>941.40002441406</ele>
        <time>2021-07-24T05:32:30.000Z</time>
      </trkpt>
      <trkpt lat="45.23743" lon="5.74215">
        <ele>941.59997558594</ele>
        <time>2021-07-24T05:32:32.000Z</time>
      </trkpt>
      <trkpt lat="45.23741" lon="5.74217">
        <ele>941.59997558594</ele>
        <time>2021-07-24T05:32:33.000Z</time>
      </trkpt>
      <trkpt lat="45.23734" lon="5.74215">
        <ele>942.40002441406</ele>
        <time>2021-07-24T05:32:36.000Z</time>
      </trkpt>
      <trkpt lat="45.23733" lon="5.74216">
        <ele>942.59997558594</ele>
        <time>2021-07-24T05:32:37.000Z</time>
      </trkpt>
      <trkpt lat="45.2373" lon="5.74217">
        <ele>943.40002441406</ele>
        <time>2021-07-24T05:32:39.000Z</time>
      </trkpt>
      <trkpt lat="45.23727" lon="5.74219">
        <ele>943.79998779297</ele>
        <time>2021-07-24T05:32:42.000Z</time>
      </trkpt>
      <trkpt lat="45.23726" lon="5.7422">
        <ele>943.79998779297</ele>
        <time>2021-07-24T05:32:43.000Z</time>
      </trkpt>
      <trkpt lat="45.23724" lon="5.74223">
        <ele>944.59997558594</ele>
        <time>2021-07-24T05:32:46.000Z</time>
      </trkpt>
      <trkpt lat="45.23719" lon="5.74227">
        <ele>945.40002441406</ele>
        <time>2021-07-24T05:32:48.000Z</time>
      </trkpt>
      <trkpt lat="45.23717" lon="5.74229">
        <ele>945.59997558594</ele>
        <time>2021-07-24T05:32:49.000Z</time>
      </trkpt>
      <trkpt lat="45.23714" lon="5.74232">
        <ele>946</ele>
        <time>2021-07-24T05:32:52.000Z</time>
      </trkpt>
      <trkpt lat="45.23716" lon="5.74234">
        <ele>946.79998779297</ele>
        <time>2021-07-24T05:32:53.000Z</time>
      </trkpt>
      <trkpt lat="45.23717" lon="5.74237">
        <ele>947.20001220703</ele>
        <time>2021-07-24T05:32:55.000Z</time>
      </trkpt>
      <trkpt lat="45.23716" lon="5.74237">
        <ele>947.20001220703</ele>
        <time>2021-07-24T05:32:56.000Z</time>
      </trkpt>
      <trkpt lat="45.23716" lon="5.74239">
        <ele>948</ele>
        <time>2021-07-24T05:32:57.000Z</time>
      </trkpt>
      <trkpt lat="45.23714" lon="5.74241">
        <ele>948.20001220703</ele>
        <time>2021-07-24T05:32:59.000Z</time>
      </trkpt>
      <trkpt lat="45.23712" lon="5.74241">
        <ele>948.40002441406</ele>
        <time>2021-07-24T05:33:00.000Z</time>
      </trkpt>
      <trkpt lat="45.23706" lon="5.74243">
        <ele>949.59997558594</ele>
        <time>2021-07-24T05:33:03.000Z</time>
      </trkpt>
      <trkpt lat="45.23704" lon="5.74244">
        <ele>949.59997558594</ele>
        <time>2021-07-24T05:33:04.000Z</time>
      </trkpt>
      <trkpt lat="45.23698" lon="5.74248">
        <ele>950.79998779297</ele>
        <time>2021-07-24T05:33:08.000Z</time>
      </trkpt>
      <trkpt lat="45.23694" lon="5.7425">
        <ele>951</ele>
        <time>2021-07-24T05:33:10.000Z</time>
      </trkpt>
      <trkpt lat="45.23691" lon="5.74252">
        <ele>951.79998779297</ele>
        <time>2021-07-24T05:33:12.000Z</time>
      </trkpt>
      <trkpt lat="45.23686" lon="5.74254">
        <ele>952</ele>
        <time>2021-07-24T05:33:14.000Z</time>
      </trkpt>
      <trkpt lat="45.23685" lon="5.74254">
        <ele>952</ele>
        <time>2021-07-24T05:33:15.000Z</time>
      </trkpt>
      <trkpt lat="45.23683" lon="5.74256">
        <ele>953.20001220703</ele>
        <time>2021-07-24T05:33:17.000Z</time>
      </trkpt>
      <trkpt lat="45.23681" lon="5.74258">
        <ele>953.20001220703</ele>
        <time>2021-07-24T05:33:19.000Z</time>
      </trkpt>
      <trkpt lat="45.23679" lon="5.74258">
        <ele>953.40002441406</ele>
        <time>2021-07-24T05:33:20.000Z</time>
      </trkpt>
      <trkpt lat="45.23675" lon="5.74259">
        <ele>954.20001220703</ele>
        <time>2021-07-24T05:33:22.000Z</time>
      </trkpt>
      <trkpt lat="45.23671" lon="5.74258">
        <ele>954.40002441406</ele>
        <time>2021-07-24T05:33:24.000Z</time>
      </trkpt>
      <trkpt lat="45.23668" lon="5.74259">
        <ele>955.40002441406</ele>
        <time>2021-07-24T05:33:26.000Z</time>
      </trkpt>
      <trkpt lat="45.23665" lon="5.7426">
        <ele>956</ele>
        <time>2021-07-24T05:33:29.000Z</time>
      </trkpt>
      <trkpt lat="45.23665" lon="5.7426">
        <ele>956</ele>
        <time>2021-07-24T05:33:30.000Z</time>
      </trkpt>
      <trkpt lat="45.23663" lon="5.7426">
        <ele>956.59997558594</ele>
        <time>2021-07-24T05:33:32.000Z</time>
      </trkpt>
      <trkpt lat="45.23657" lon="5.74261">
        <ele>957.59997558594</ele>
        <time>2021-07-24T05:33:36.000Z</time>
      </trkpt>
      <trkpt lat="45.23656" lon="5.74263">
        <ele>958.20001220703</ele>
        <time>2021-07-24T05:33:39.000Z</time>
      </trkpt>
      <trkpt lat="45.23654" lon="5.74265">
        <ele>958.79998779297</ele>
        <time>2021-07-24T05:33:41.000Z</time>
      </trkpt>
      <trkpt lat="45.23651" lon="5.74266">
        <ele>959.59997558594</ele>
        <time>2021-07-24T05:33:43.000Z</time>
      </trkpt>
      <trkpt lat="45.2365" lon="5.74267">
        <ele>960</ele>
        <time>2021-07-24T05:33:45.000Z</time>
      </trkpt>
      <trkpt lat="45.23649" lon="5.74267">
        <ele>960.20001220703</ele>
        <time>2021-07-24T05:33:46.000Z</time>
      </trkpt>
      <trkpt lat="45.23646" lon="5.74267">
        <ele>961.20001220703</ele>
        <time>2021-07-24T05:33:48.000Z</time>
      </trkpt>
      <trkpt lat="45.23644" lon="5.74269">
        <ele>961.40002441406</ele>
        <time>2021-07-24T05:33:50.000Z</time>
      </trkpt>
      <trkpt lat="45.23643" lon="5.74271">
        <ele>962</ele>
        <time>2021-07-24T05:33:52.000Z</time>
      </trkpt>
      <trkpt lat="45.23642" lon="5.74271">
        <ele>962.59997558594</ele>
        <time>2021-07-24T05:33:53.000Z</time>
      </trkpt>
      <trkpt lat="45.23636" lon="5.74276">
        <ele>963.79998779297</ele>
        <time>2021-07-24T05:33:57.000Z</time>
      </trkpt>
      <trkpt lat="45.23631" lon="5.74277">
        <ele>964.79998779297</ele>
        <time>2021-07-24T05:34:00.000Z</time>
      </trkpt>
      <trkpt lat="45.2363" lon="5.74278">
        <ele>965.20001220703</ele>
        <time>2021-07-24T05:34:01.000Z</time>
      </trkpt>
      <trkpt lat="45.23627" lon="5.7428">
        <ele>965.59997558594</ele>
        <time>2021-07-24T05:34:04.000Z</time>
      </trkpt>
      <trkpt lat="45.23626" lon="5.7428">
        <ele>966.40002441406</ele>
        <time>2021-07-24T05:34:05.000Z</time>
      </trkpt>
      <trkpt lat="45.23625" lon="5.74281">
        <ele>967</ele>
        <time>2021-07-24T05:34:07.000Z</time>
      </trkpt>
      <trkpt lat="45.23624" lon="5.74281">
        <ele>967.40002441406</ele>
        <time>2021-07-24T05:34:08.000Z</time>
      </trkpt>
      <trkpt lat="45.23623" lon="5.74281">
        <ele>968.40002441406</ele>
        <time>2021-07-24T05:34:11.000Z</time>
      </trkpt>
      <trkpt lat="45.23621" lon="5.74282">
        <ele>968.79998779297</ele>
        <time>2021-07-24T05:34:13.000Z</time>
      </trkpt>
      <trkpt lat="45.2362" lon="5.74286">
        <ele>969.79998779297</ele>
        <time>2021-07-24T05:34:16.000Z</time>
      </trkpt>
      <trkpt lat="45.2362" lon="5.74288">
        <ele>969.79998779297</ele>
        <time>2021-07-24T05:34:17.000Z</time>
      </trkpt>
      <trkpt lat="45.23618" lon="5.7429">
        <ele>970.79998779297</ele>
        <time>2021-07-24T05:34:20.000Z</time>
      </trkpt>
      <trkpt lat="45.23616" lon="5.74292">
        <ele>971</ele>
        <time>2021-07-24T05:34:21.000Z</time>
      </trkpt>
      <trkpt lat="45.23614" lon="5.74295">
        <ele>972</ele>
        <time>2021-07-24T05:34:23.000Z</time>
      </trkpt>
      <trkpt lat="45.23612" lon="5.74298">
        <ele>972.20001220703</ele>
        <time>2021-07-24T05:34:25.000Z</time>
      </trkpt>
      <trkpt lat="45.2361" lon="5.74299">
        <ele>972.40002441406</ele>
        <time>2021-07-24T05:34:26.000Z</time>
      </trkpt>
      <trkpt lat="45.23609" lon="5.743">
        <ele>973.40002441406</ele>
        <time>2021-07-24T05:34:27.000Z</time>
      </trkpt>
      <trkpt lat="45.23606" lon="5.74302">
        <ele>974.20001220703</ele>
        <time>2021-07-24T05:34:29.000Z</time>
      </trkpt>
      <trkpt lat="45.23602" lon="5.74303">
        <ele>974.20001220703</ele>
        <time>2021-07-24T05:34:31.000Z</time>
      </trkpt>
      <trkpt lat="45.236" lon="5.74304">
        <ele>975</ele>
        <time>2021-07-24T05:34:32.000Z</time>
      </trkpt>
      <trkpt lat="45.23598" lon="5.74305">
        <ele>975</ele>
        <time>2021-07-24T05:34:33.000Z</time>
      </trkpt>
      <trkpt lat="45.23594" lon="5.74304">
        <ele>975.40002441406</ele>
        <time>2021-07-24T05:34:35.000Z</time>
      </trkpt>
      <trkpt lat="45.23591" lon="5.74303">
        <ele>975.79998779297</ele>
        <time>2021-07-24T05:34:36.000Z</time>
      </trkpt>
      <trkpt lat="45.2359" lon="5.74303">
        <ele>976</ele>
        <time>2021-07-24T05:34:37.000Z</time>
      </trkpt>
      <trkpt lat="45.23589" lon="5.74304">
        <ele>976.79998779297</ele>
        <time>2021-07-24T05:34:39.000Z</time>
      </trkpt>
      <trkpt lat="45.23588" lon="5.74305">
        <ele>977.40002441406</ele>
        <time>2021-07-24T05:34:40.000Z</time>
      </trkpt>
      <trkpt lat="45.23588" lon="5.74305">
        <ele>977.40002441406</ele>
        <time>2021-07-24T05:34:41.000Z</time>
      </trkpt>
      <trkpt lat="45.23587" lon="5.74307">
        <ele>978.40002441406</ele>
        <time>2021-07-24T05:34:44.000Z</time>
      </trkpt>
      <trkpt lat="45.23588" lon="5.74306">
        <ele>978.79998779297</ele>
        <time>2021-07-24T05:34:45.000Z</time>
      </trkpt>
      <trkpt lat="45.23589" lon="5.74306">
        <ele>978.79998779297</ele>
        <time>2021-07-24T05:34:46.000Z</time>
      </trkpt>
      <trkpt lat="45.23591" lon="5.74307">
        <ele>979.40002441406</ele>
        <time>2021-07-24T05:34:47.000Z</time>
      </trkpt>
      <trkpt lat="45.23594" lon="5.74311">
        <ele>980.40002441406</ele>
        <time>2021-07-24T05:34:50.000Z</time>
      </trkpt>
      <trkpt lat="45.23593" lon="5.74312">
        <ele>980.59997558594</ele>
        <time>2021-07-24T05:34:51.000Z</time>
      </trkpt>
      <trkpt lat="45.23592" lon="5.74313">
        <ele>980.79998779297</ele>
        <time>2021-07-24T05:34:53.000Z</time>
      </trkpt>
      <trkpt lat="45.23592" lon="5.74314">
        <ele>981.40002441406</ele>
        <time>2021-07-24T05:34:54.000Z</time>
      </trkpt>
      <trkpt lat="45.23588" lon="5.74314">
        <ele>981.59997558594</ele>
        <time>2021-07-24T05:34:56.000Z</time>
      </trkpt>
      <trkpt lat="45.23585" lon="5.74313">
        <ele>982.59997558594</ele>
        <time>2021-07-24T05:34:58.000Z</time>
      </trkpt>
      <trkpt lat="45.23584" lon="5.74312">
        <ele>982.79998779297</ele>
        <time>2021-07-24T05:34:59.000Z</time>
      </trkpt>
      <trkpt lat="45.23578" lon="5.74312">
        <ele>983.20001220703</ele>
        <time>2021-07-24T05:35:01.000Z</time>
      </trkpt>
      <trkpt lat="45.23575" lon="5.74312">
        <ele>984</ele>
        <time>2021-07-24T05:35:02.000Z</time>
      </trkpt>
      <trkpt lat="45.23572" lon="5.74313">
        <ele>984.20001220703</ele>
        <time>2021-07-24T05:35:03.000Z</time>
      </trkpt>
      <trkpt lat="45.23568" lon="5.74315">
        <ele>984.59997558594</ele>
        <time>2021-07-24T05:35:05.000Z</time>
      </trkpt>
      <trkpt lat="45.23566" lon="5.74316">
        <ele>985.20001220703</ele>
        <time>2021-07-24T05:35:06.000Z</time>
      </trkpt>
      <trkpt lat="45.23565" lon="5.74316">
        <ele>985.40002441406</ele>
        <time>2021-07-24T05:35:07.000Z</time>
      </trkpt>
      <trkpt lat="45.23562" lon="5.74317">
        <ele>986.40002441406</ele>
        <time>2021-07-24T05:35:10.000Z</time>
      </trkpt>
      <trkpt lat="45.23562" lon="5.74318">
        <ele>986.59997558594</ele>
        <time>2021-07-24T05:35:11.000Z</time>
      </trkpt>
      <trkpt lat="45.2356" lon="5.74318">
        <ele>987.40002441406</ele>
        <time>2021-07-24T05:35:13.000Z</time>
      </trkpt>
      <trkpt lat="45.23557" lon="5.74318">
        <ele>987.59997558594</ele>
        <time>2021-07-24T05:35:14.000Z</time>
      </trkpt>
      <trkpt lat="45.23555" lon="5.74318">
        <ele>987.79998779297</ele>
        <time>2021-07-24T05:35:15.000Z</time>
      </trkpt>
      <trkpt lat="45.23547" lon="5.74317">
        <ele>988.79998779297</ele>
        <time>2021-07-24T05:35:18.000Z</time>
      </trkpt>
      <trkpt lat="45.23543" lon="5.74317">
        <ele>989</ele>
        <time>2021-07-24T05:35:20.000Z</time>
      </trkpt>
      <trkpt lat="45.23539" lon="5.74317">
        <ele>989.40002441406</ele>
        <time>2021-07-24T05:35:22.000Z</time>
      </trkpt>
      <trkpt lat="45.23533" lon="5.74317">
        <ele>990.40002441406</ele>
        <time>2021-07-24T05:35:25.000Z</time>
      </trkpt>
      <trkpt lat="45.23531" lon="5.74319">
        <ele>990.79998779297</ele>
        <time>2021-07-24T05:35:27.000Z</time>
      </trkpt>
      <trkpt lat="45.23527" lon="5.7432">
        <ele>991.40002441406</ele>
        <time>2021-07-24T05:35:29.000Z</time>
      </trkpt>
      <trkpt lat="45.23526" lon="5.7432">
        <ele>991.79998779297</ele>
        <time>2021-07-24T05:35:30.000Z</time>
      </trkpt>
      <trkpt lat="45.23525" lon="5.7432">
        <ele>992.59997558594</ele>
        <time>2021-07-24T05:35:32.000Z</time>
      </trkpt>
      <trkpt lat="45.23523" lon="5.74321">
        <ele>992.79998779297</ele>
        <time>2021-07-24T05:35:34.000Z</time>
      </trkpt>
      <trkpt lat="45.23523" lon="5.74321">
        <ele>994</ele>
        <time>2021-07-24T05:35:36.000Z</time>
      </trkpt>
      <trkpt lat="45.23523" lon="5.74322">
        <ele>994.20001220703</ele>
        <time>2021-07-24T05:35:38.000Z</time>
      </trkpt>
      <trkpt lat="45.23522" lon="5.74323">
        <ele>994.59997558594</ele>
        <time>2021-07-24T05:35:39.000Z</time>
      </trkpt>
      <trkpt lat="45.23519" lon="5.74323">
        <ele>995.20001220703</ele>
        <time>2021-07-24T05:35:41.000Z</time>
      </trkpt>
      <trkpt lat="45.23518" lon="5.74322">
        <ele>995.59997558594</ele>
        <time>2021-07-24T05:35:42.000Z</time>
      </trkpt>
      <trkpt lat="45.23516" lon="5.74321">
        <ele>996.20001220703</ele>
        <time>2021-07-24T05:35:44.000Z</time>
      </trkpt>
      <trkpt lat="45.23511" lon="5.7432">
        <ele>996.79998779297</ele>
        <time>2021-07-24T05:35:46.000Z</time>
      </trkpt>
      <trkpt lat="45.23507" lon="5.74317">
        <ele>997.79998779297</ele>
        <time>2021-07-24T05:35:50.000Z</time>
      </trkpt>
      <trkpt lat="45.23502" lon="5.74316">
        <ele>999.40002441406</ele>
        <time>2021-07-24T05:35:54.000Z</time>
      </trkpt>
      <trkpt lat="45.23499" lon="5.74314">
        <ele>999.79998779297</ele>
        <time>2021-07-24T05:35:56.000Z</time>
      </trkpt>
      <trkpt lat="45.23497" lon="5.74314">
        <ele>1000</ele>
        <time>2021-07-24T05:35:57.000Z</time>
      </trkpt>
      <trkpt lat="45.23494" lon="5.74312">
        <ele>1000.799987793</ele>
        <time>2021-07-24T05:35:59.000Z</time>
      </trkpt>
      <trkpt lat="45.23492" lon="5.74312">
        <ele>1001.799987793</ele>
        <time>2021-07-24T05:36:01.000Z</time>
      </trkpt>
      <trkpt lat="45.23492" lon="5.74311">
        <ele>1002</ele>
        <time>2021-07-24T05:36:02.000Z</time>
      </trkpt>
      <trkpt lat="45.23489" lon="5.74311">
        <ele>1002.5999755859</ele>
        <time>2021-07-24T05:36:04.000Z</time>
      </trkpt>
      <trkpt lat="45.23487" lon="5.7431">
        <ele>1003.200012207</ele>
        <time>2021-07-24T05:36:06.000Z</time>
      </trkpt>
      <trkpt lat="45.23486" lon="5.74309">
        <ele>1003.4000244141</ele>
        <time>2021-07-24T05:36:07.000Z</time>
      </trkpt>
      <trkpt lat="45.23485" lon="5.74309">
        <ele>1003.799987793</ele>
        <time>2021-07-24T05:36:08.000Z</time>
      </trkpt>
      <trkpt lat="45.23482" lon="5.74307">
        <ele>1004.4000244141</ele>
        <time>2021-07-24T05:36:11.000Z</time>
      </trkpt>
      <trkpt lat="45.23479" lon="5.74307">
        <ele>1005.200012207</ele>
        <time>2021-07-24T05:36:13.000Z</time>
      </trkpt>
      <trkpt lat="45.23478" lon="5.74307">
        <ele>1005.4000244141</ele>
        <time>2021-07-24T05:36:15.000Z</time>
      </trkpt>
      <trkpt lat="45.23475" lon="5.74305">
        <ele>1006.4000244141</ele>
        <time>2021-07-24T05:36:17.000Z</time>
      </trkpt>
      <trkpt lat="45.23471" lon="5.74303">
        <ele>1006.5999755859</ele>
        <time>2021-07-24T05:36:19.000Z</time>
      </trkpt>
      <trkpt lat="45.2347" lon="5.74301">
        <ele>1006.799987793</ele>
        <time>2021-07-24T05:36:20.000Z</time>
      </trkpt>
      <trkpt lat="45.23466" lon="5.74299">
        <ele>1007.5999755859</ele>
        <time>2021-07-24T05:36:22.000Z</time>
      </trkpt>
      <trkpt lat="45.23465" lon="5.74298">
        <ele>1007.5999755859</ele>
        <time>2021-07-24T05:36:23.000Z</time>
      </trkpt>
      <trkpt lat="45.23457" lon="5.74293">
        <ele>1008.5999755859</ele>
        <time>2021-07-24T05:36:27.000Z</time>
      </trkpt>
      <trkpt lat="45.23447" lon="5.74287">
        <ele>1010</ele>
        <time>2021-07-24T05:36:32.000Z</time>
      </trkpt>
      <trkpt lat="45.23442" lon="5.74285">
        <ele>1011.200012207</ele>
        <time>2021-07-24T05:36:35.000Z</time>
      </trkpt>
      <trkpt lat="45.23441" lon="5.74284">
        <ele>1011.200012207</ele>
        <time>2021-07-24T05:36:36.000Z</time>
      </trkpt>
      <trkpt lat="45.23431" lon="5.7428">
        <ele>1012.5999755859</ele>
        <time>2021-07-24T05:36:41.000Z</time>
      </trkpt>
      <trkpt lat="45.23426" lon="5.74278">
        <ele>1013</ele>
        <time>2021-07-24T05:36:43.000Z</time>
      </trkpt>
      <trkpt lat="45.2342" lon="5.74276">
        <ele>1013.5999755859</ele>
        <time>2021-07-24T05:36:46.000Z</time>
      </trkpt>
      <trkpt lat="45.23418" lon="5.74276">
        <ele>1014</ele>
        <time>2021-07-24T05:36:49.000Z</time>
      </trkpt>
      <trkpt lat="45.23416" lon="5.74275">
        <ele>1014.799987793</ele>
        <time>2021-07-24T05:36:51.000Z</time>
      </trkpt>
      <trkpt lat="45.23407" lon="5.74269">
        <ele>1016</ele>
        <time>2021-07-24T05:36:57.000Z</time>
      </trkpt>
      <trkpt lat="45.23405" lon="5.74267">
        <ele>1016.799987793</ele>
        <time>2021-07-24T05:36:59.000Z</time>
      </trkpt>
      <trkpt lat="45.23402" lon="5.74266">
        <ele>1016.799987793</ele>
        <time>2021-07-24T05:37:01.000Z</time>
      </trkpt>
      <trkpt lat="45.23399" lon="5.74266">
        <ele>1017</ele>
        <time>2021-07-24T05:37:03.000Z</time>
      </trkpt>
      <trkpt lat="45.23398" lon="5.74268">
        <ele>1016.799987793</ele>
        <time>2021-07-24T05:37:05.000Z</time>
      </trkpt>
      <trkpt lat="45.23395" lon="5.7427">
        <ele>1016.5999755859</ele>
        <time>2021-07-24T05:37:08.000Z</time>
      </trkpt>
      <trkpt lat="45.23395" lon="5.74277">
        <ele>1014.799987793</ele>
        <time>2021-07-24T05:37:13.000Z</time>
      </trkpt>
      <trkpt lat="45.23394" lon="5.74279">
        <ele>1014.799987793</ele>
        <time>2021-07-24T05:37:14.000Z</time>
      </trkpt>
      <trkpt lat="45.23396" lon="5.74281">
        <ele>1013.4000244141</ele>
        <time>2021-07-24T05:37:17.000Z</time>
      </trkpt>
      <trkpt lat="45.23396" lon="5.74283">
        <ele>1013.200012207</ele>
        <time>2021-07-24T05:37:18.000Z</time>
      </trkpt>
      <trkpt lat="45.23395" lon="5.74288">
        <ele>1013</ele>
        <time>2021-07-24T05:37:20.000Z</time>
      </trkpt>
      <trkpt lat="45.23393" lon="5.74293">
        <ele>1012</ele>
        <time>2021-07-24T05:37:22.000Z</time>
      </trkpt>
      <trkpt lat="45.23391" lon="5.74296">
        <ele>1011.4000244141</ele>
        <time>2021-07-24T05:37:23.000Z</time>
      </trkpt>
      <trkpt lat="45.23391" lon="5.74298">
        <ele>1011.4000244141</ele>
        <time>2021-07-24T05:37:24.000Z</time>
      </trkpt>
      <trkpt lat="45.2339" lon="5.74301">
        <ele>1011.200012207</ele>
        <time>2021-07-24T05:37:25.000Z</time>
      </trkpt>
      <trkpt lat="45.23389" lon="5.74303">
        <ele>1011</ele>
        <time>2021-07-24T05:37:26.000Z</time>
      </trkpt>
      <trkpt lat="45.23387" lon="5.74312">
        <ele>1010</ele>
        <time>2021-07-24T05:37:30.000Z</time>
      </trkpt>
      <trkpt lat="45.23387" lon="5.74314">
        <ele>1010</ele>
        <time>2021-07-24T05:37:31.000Z</time>
      </trkpt>
      <trkpt lat="45.23386" lon="5.74316">
        <ele>1009.799987793</ele>
        <time>2021-07-24T05:37:32.000Z</time>
      </trkpt>
      <trkpt lat="45.23385" lon="5.74324">
        <ele>1009.799987793</ele>
        <time>2021-07-24T05:37:35.000Z</time>
      </trkpt>
      <trkpt lat="45.23384" lon="5.74327">
        <ele>1009.5999755859</ele>
        <time>2021-07-24T05:37:36.000Z</time>
      </trkpt>
      <trkpt lat="45.23382" lon="5.74331">
        <ele>1009</ele>
        <time>2021-07-24T05:37:38.000Z</time>
      </trkpt>
      <trkpt lat="45.23383" lon="5.74334">
        <ele>1008.799987793</ele>
        <time>2021-07-24T05:37:39.000Z</time>
      </trkpt>
      <trkpt lat="45.23383" lon="5.74337">
        <ele>1008.5999755859</ele>
        <time>2021-07-24T05:37:40.000Z</time>
      </trkpt>
      <trkpt lat="45.23383" lon="5.74339">
        <ele>1008.4000244141</ele>
        <time>2021-07-24T05:37:41.000Z</time>
      </trkpt>
      <trkpt lat="45.23384" lon="5.74344">
        <ele>1007.799987793</ele>
        <time>2021-07-24T05:37:43.000Z</time>
      </trkpt>
      <trkpt lat="45.23387" lon="5.74348">
        <ele>1007.799987793</ele>
        <time>2021-07-24T05:37:44.000Z</time>
      </trkpt>
      <trkpt lat="45.23388" lon="5.74354">
        <ele>1007</ele>
        <time>2021-07-24T05:37:47.000Z</time>
      </trkpt>
      <trkpt lat="45.23388" lon="5.74357">
        <ele>1006.4000244141</ele>
        <time>2021-07-24T05:37:48.000Z</time>
      </trkpt>
      <trkpt lat="45.23387" lon="5.7436">
        <ele>1006</ele>
        <time>2021-07-24T05:37:49.000Z</time>
      </trkpt>
      <trkpt lat="45.23374" lon="5.74371">
        <ele>1005.799987793</ele>
        <time>2021-07-24T05:37:54.000Z</time>
      </trkpt>
      <trkpt lat="45.2337" lon="5.74371">
        <ele>1005.200012207</ele>
        <time>2021-07-24T05:37:55.000Z</time>
      </trkpt>
      <trkpt lat="45.23367" lon="5.74374">
        <ele>1003.799987793</ele>
        <time>2021-07-24T05:37:57.000Z</time>
      </trkpt>
      <trkpt lat="45.23364" lon="5.74375">
        <ele>1003.799987793</ele>
        <time>2021-07-24T05:37:59.000Z</time>
      </trkpt>
      <trkpt lat="45.23361" lon="5.74376">
        <ele>1003.5999755859</ele>
        <time>2021-07-24T05:38:01.000Z</time>
      </trkpt>
      <trkpt lat="45.23353" lon="5.74376">
        <ele>1002.799987793</ele>
        <time>2021-07-24T05:38:04.000Z</time>
      </trkpt>
      <trkpt lat="45.23347" lon="5.74375">
        <ele>1002.5999755859</ele>
        <time>2021-07-24T05:38:06.000Z</time>
      </trkpt>
      <trkpt lat="45.23338" lon="5.74376">
        <ele>1001.5999755859</ele>
        <time>2021-07-24T05:38:09.000Z</time>
      </trkpt>
      <trkpt lat="45.23331" lon="5.74378">
        <ele>1000.799987793</ele>
        <time>2021-07-24T05:38:12.000Z</time>
      </trkpt>
      <trkpt lat="45.23324" lon="5.74375">
        <ele>1000.5999755859</ele>
        <time>2021-07-24T05:38:14.000Z</time>
      </trkpt>
      <trkpt lat="45.23323" lon="5.74374">
        <ele>1000.200012207</ele>
        <time>2021-07-24T05:38:15.000Z</time>
      </trkpt>
      <trkpt lat="45.23318" lon="5.74371">
        <ele>999.59997558594</ele>
        <time>2021-07-24T05:38:18.000Z</time>
      </trkpt>
      <trkpt lat="45.23314" lon="5.74367">
        <ele>999</ele>
        <time>2021-07-24T05:38:20.000Z</time>
      </trkpt>
      <trkpt lat="45.23306" lon="5.74363">
        <ele>998</ele>
        <time>2021-07-24T05:38:23.000Z</time>
      </trkpt>
      <trkpt lat="45.23303" lon="5.74362">
        <ele>997.59997558594</ele>
        <time>2021-07-24T05:38:24.000Z</time>
      </trkpt>
      <trkpt lat="45.23289" lon="5.74352">
        <ele>996.40002441406</ele>
        <time>2021-07-24T05:38:30.000Z</time>
      </trkpt>
      <trkpt lat="45.23287" lon="5.74351">
        <ele>995.79998779297</ele>
        <time>2021-07-24T05:38:31.000Z</time>
      </trkpt>
      <trkpt lat="45.23284" lon="5.74348">
        <ele>995</ele>
        <time>2021-07-24T05:38:33.000Z</time>
      </trkpt>
      <trkpt lat="45.23281" lon="5.74344">
        <ele>994</ele>
        <time>2021-07-24T05:38:35.000Z</time>
      </trkpt>
      <trkpt lat="45.23279" lon="5.74343">
        <ele>994</ele>
        <time>2021-07-24T05:38:36.000Z</time>
      </trkpt>
      <trkpt lat="45.23269" lon="5.74337">
        <ele>992.79998779297</ele>
        <time>2021-07-24T05:38:41.000Z</time>
      </trkpt>
      <trkpt lat="45.2326" lon="5.74331">
        <ele>992</ele>
        <time>2021-07-24T05:38:45.000Z</time>
      </trkpt>
      <trkpt lat="45.23257" lon="5.7433">
        <ele>991.59997558594</ele>
        <time>2021-07-24T05:38:46.000Z</time>
      </trkpt>
      <trkpt lat="45.23256" lon="5.74328">
        <ele>991.59997558594</ele>
        <time>2021-07-24T05:38:47.000Z</time>
      </trkpt>
      <trkpt lat="45.23255" lon="5.74327">
        <ele>991.40002441406</ele>
        <time>2021-07-24T05:38:48.000Z</time>
      </trkpt>
      <trkpt lat="45.23254" lon="5.74326">
        <ele>991.20001220703</ele>
        <time>2021-07-24T05:38:49.000Z</time>
      </trkpt>
      <trkpt lat="45.23248" lon="5.74325">
        <ele>990</ele>
        <time>2021-07-24T05:38:52.000Z</time>
      </trkpt>
      <trkpt lat="45.23245" lon="5.74324">
        <ele>990</ele>
        <time>2021-07-24T05:38:53.000Z</time>
      </trkpt>
      <trkpt lat="45.23239" lon="5.74321">
        <ele>988.40002441406</ele>
        <time>2021-07-24T05:38:55.000Z</time>
      </trkpt>
      <trkpt lat="45.23235" lon="5.74318">
        <ele>988</ele>
        <time>2021-07-24T05:38:57.000Z</time>
      </trkpt>
      <trkpt lat="45.23232" lon="5.74316">
        <ele>988</ele>
        <time>2021-07-24T05:38:59.000Z</time>
      </trkpt>
      <trkpt lat="45.23224" lon="5.74314">
        <ele>987.20001220703</ele>
        <time>2021-07-24T05:39:03.000Z</time>
      </trkpt>
      <trkpt lat="45.23219" lon="5.74313">
        <ele>986</ele>
        <time>2021-07-24T05:39:06.000Z</time>
      </trkpt>
      <trkpt lat="45.2321" lon="5.74309">
        <ele>985.20001220703</ele>
        <time>2021-07-24T05:39:10.000Z</time>
      </trkpt>
      <trkpt lat="45.23203" lon="5.74307">
        <ele>984.79998779297</ele>
        <time>2021-07-24T05:39:13.000Z</time>
      </trkpt>
      <trkpt lat="45.232" lon="5.74306">
        <ele>984</ele>
        <time>2021-07-24T05:39:14.000Z</time>
      </trkpt>
      <trkpt lat="45.23195" lon="5.74305">
        <ele>983.79998779297</ele>
        <time>2021-07-24T05:39:16.000Z</time>
      </trkpt>
      <trkpt lat="45.23187" lon="5.74304">
        <ele>983.59997558594</ele>
        <time>2021-07-24T05:39:18.000Z</time>
      </trkpt>
      <trkpt lat="45.23179" lon="5.74304">
        <ele>982.59997558594</ele>
        <time>2021-07-24T05:39:20.000Z</time>
      </trkpt>
      <trkpt lat="45.2317" lon="5.743">
        <ele>981.79998779297</ele>
        <time>2021-07-24T05:39:23.000Z</time>
      </trkpt>
      <trkpt lat="45.23158" lon="5.74295">
        <ele>980.79998779297</ele>
        <time>2021-07-24T05:39:28.000Z</time>
      </trkpt>
      <trkpt lat="45.23148" lon="5.74293">
        <ele>979.79998779297</ele>
        <time>2021-07-24T05:39:32.000Z</time>
      </trkpt>
      <trkpt lat="45.23147" lon="5.74293">
        <ele>979.59997558594</ele>
        <time>2021-07-24T05:39:33.000Z</time>
      </trkpt>
      <trkpt lat="45.23138" lon="5.74288">
        <ele>979</ele>
        <time>2021-07-24T05:39:38.000Z</time>
      </trkpt>
      <trkpt lat="45.23135" lon="5.74287">
        <ele>978</ele>
        <time>2021-07-24T05:39:39.000Z</time>
      </trkpt>
      <trkpt lat="45.23133" lon="5.74286">
        <ele>977.79998779297</ele>
        <time>2021-07-24T05:39:40.000Z</time>
      </trkpt>
      <trkpt lat="45.23123" lon="5.74283">
        <ele>976.40002441406</ele>
        <time>2021-07-24T05:39:44.000Z</time>
      </trkpt>
      <trkpt lat="45.23117" lon="5.74282">
        <ele>976</ele>
        <time>2021-07-24T05:39:47.000Z</time>
      </trkpt>
      <trkpt lat="45.23112" lon="5.7428">
        <ele>975.59997558594</ele>
        <time>2021-07-24T05:39:49.000Z</time>
      </trkpt>
      <trkpt lat="45.2311" lon="5.74279">
        <ele>975.20001220703</ele>
        <time>2021-07-24T05:39:50.000Z</time>
      </trkpt>
      <trkpt lat="45.23099" lon="5.74276">
        <ele>973.79998779297</ele>
        <time>2021-07-24T05:39:54.000Z</time>
      </trkpt>
      <trkpt lat="45.23091" lon="5.74276">
        <ele>973.20001220703</ele>
        <time>2021-07-24T05:39:57.000Z</time>
      </trkpt>
      <trkpt lat="45.23078" lon="5.7427">
        <ele>972.20001220703</ele>
        <time>2021-07-24T05:40:02.000Z</time>
      </trkpt>
      <trkpt lat="45.23074" lon="5.74269">
        <ele>971.40002441406</ele>
        <time>2021-07-24T05:40:04.000Z</time>
      </trkpt>
      <trkpt lat="45.23071" lon="5.74268">
        <ele>971.20001220703</ele>
        <time>2021-07-24T05:40:05.000Z</time>
      </trkpt>
      <trkpt lat="45.23065" lon="5.74267">
        <ele>970.59997558594</ele>
        <time>2021-07-24T05:40:08.000Z</time>
      </trkpt>
      <trkpt lat="45.23064" lon="5.74267">
        <ele>970.59997558594</ele>
        <time>2021-07-24T05:40:09.000Z</time>
      </trkpt>
      <trkpt lat="45.23061" lon="5.74266">
        <ele>970.59997558594</ele>
        <time>2021-07-24T05:40:10.000Z</time>
      </trkpt>
      <trkpt lat="45.23059" lon="5.74263">
        <ele>969.59997558594</ele>
        <time>2021-07-24T05:40:11.000Z</time>
      </trkpt>
      <trkpt lat="45.23057" lon="5.74262">
        <ele>969.59997558594</ele>
        <time>2021-07-24T05:40:12.000Z</time>
      </trkpt>
      <trkpt lat="45.23053" lon="5.74261">
        <ele>969.20001220703</ele>
        <time>2021-07-24T05:40:14.000Z</time>
      </trkpt>
      <trkpt lat="45.2305" lon="5.7426">
        <ele>968.59997558594</ele>
        <time>2021-07-24T05:40:15.000Z</time>
      </trkpt>
      <trkpt lat="45.23048" lon="5.74258">
        <ele>968.59997558594</ele>
        <time>2021-07-24T05:40:16.000Z</time>
      </trkpt>
      <trkpt lat="45.23043" lon="5.74255">
        <ele>968.40002441406</ele>
        <time>2021-07-24T05:40:18.000Z</time>
      </trkpt>
      <trkpt lat="45.2304" lon="5.74255">
        <ele>967.59997558594</ele>
        <time>2021-07-24T05:40:19.000Z</time>
      </trkpt>
      <trkpt lat="45.23032" lon="5.74249">
        <ele>967.20001220703</ele>
        <time>2021-07-24T05:40:22.000Z</time>
      </trkpt>
      <trkpt lat="45.23028" lon="5.74247">
        <ele>967</ele>
        <time>2021-07-24T05:40:24.000Z</time>
      </trkpt>
      <trkpt lat="45.23024" lon="5.74247">
        <ele>965.79998779297</ele>
        <time>2021-07-24T05:40:26.000Z</time>
      </trkpt>
      <trkpt lat="45.23023" lon="5.74246">
        <ele>965.59997558594</ele>
        <time>2021-07-24T05:40:27.000Z</time>
      </trkpt>
      <trkpt lat="45.2302" lon="5.74245">
        <ele>965.20001220703</ele>
        <time>2021-07-24T05:40:29.000Z</time>
      </trkpt>
      <trkpt lat="45.23013" lon="5.74244">
        <ele>964</ele>
        <time>2021-07-24T05:40:32.000Z</time>
      </trkpt>
      <trkpt lat="45.23007" lon="5.74243">
        <ele>963.59997558594</ele>
        <time>2021-07-24T05:40:35.000Z</time>
      </trkpt>
      <trkpt lat="45.23005" lon="5.74243">
        <ele>963.59997558594</ele>
        <time>2021-07-24T05:40:36.000Z</time>
      </trkpt>
      <trkpt lat="45.23003" lon="5.74242">
        <ele>963</ele>
        <time>2021-07-24T05:40:37.000Z</time>
      </trkpt>
      <trkpt lat="45.22998" lon="5.74241">
        <ele>962.79998779297</ele>
        <time>2021-07-24T05:40:39.000Z</time>
      </trkpt>
      <trkpt lat="45.22993" lon="5.7424">
        <ele>962.20001220703</ele>
        <time>2021-07-24T05:40:41.000Z</time>
      </trkpt>
      <trkpt lat="45.22987" lon="5.74239">
        <ele>961.59997558594</ele>
        <time>2021-07-24T05:40:43.000Z</time>
      </trkpt>
      <trkpt lat="45.2298" lon="5.74235">
        <ele>960.59997558594</ele>
        <time>2021-07-24T05:40:45.000Z</time>
      </trkpt>
      <trkpt lat="45.22975" lon="5.74233">
        <ele>960.59997558594</ele>
        <time>2021-07-24T05:40:46.000Z</time>
      </trkpt>
      <trkpt lat="45.22972" lon="5.74231">
        <ele>960.59997558594</ele>
        <time>2021-07-24T05:40:47.000Z</time>
      </trkpt>
      <trkpt lat="45.22969" lon="5.74229">
        <ele>960.40002441406</ele>
        <time>2021-07-24T05:40:48.000Z</time>
      </trkpt>
      <trkpt lat="45.22957" lon="5.74222">
        <ele>959</ele>
        <time>2021-07-24T05:40:52.000Z</time>
      </trkpt>
      <trkpt lat="45.22955" lon="5.7422">
        <ele>958.79998779297</ele>
        <time>2021-07-24T05:40:53.000Z</time>
      </trkpt>
      <trkpt lat="45.22943" lon="5.74215">
        <ele>957.59997558594</ele>
        <time>2021-07-24T05:40:57.000Z</time>
      </trkpt>
      <trkpt lat="45.22933" lon="5.74211">
        <ele>956.79998779297</ele>
        <time>2021-07-24T05:41:01.000Z</time>
      </trkpt>
      <trkpt lat="45.22931" lon="5.7421">
        <ele>956.20001220703</ele>
        <time>2021-07-24T05:41:02.000Z</time>
      </trkpt>
      <trkpt lat="45.2292" lon="5.74203">
        <ele>955.59997558594</ele>
        <time>2021-07-24T05:41:07.000Z</time>
      </trkpt>
      <trkpt lat="45.22919" lon="5.74202">
        <ele>955</ele>
        <time>2021-07-24T05:41:08.000Z</time>
      </trkpt>
      <trkpt lat="45.22914" lon="5.742">
        <ele>954</ele>
        <time>2021-07-24T05:41:10.000Z</time>
      </trkpt>
      <trkpt lat="45.22904" lon="5.74197">
        <ele>953.79998779297</ele>
        <time>2021-07-24T05:41:13.000Z</time>
      </trkpt>
      <trkpt lat="45.22901" lon="5.74196">
        <ele>953.40002441406</ele>
        <time>2021-07-24T05:41:14.000Z</time>
      </trkpt>
      <trkpt lat="45.22896" lon="5.74196">
        <ele>952.59997558594</ele>
        <time>2021-07-24T05:41:16.000Z</time>
      </trkpt>
      <trkpt lat="45.22894" lon="5.74195">
        <ele>952.40002441406</ele>
        <time>2021-07-24T05:41:17.000Z</time>
      </trkpt>
      <trkpt lat="45.22889" lon="5.74193">
        <ele>952.40002441406</ele>
        <time>2021-07-24T05:41:19.000Z</time>
      </trkpt>
      <trkpt lat="45.22884" lon="5.7419">
        <ele>951.59997558594</ele>
        <time>2021-07-24T05:41:21.000Z</time>
      </trkpt>
      <trkpt lat="45.22881" lon="5.74188">
        <ele>951.20001220703</ele>
        <time>2021-07-24T05:41:22.000Z</time>
      </trkpt>
      <trkpt lat="45.22874" lon="5.74186">
        <ele>950.40002441406</ele>
        <time>2021-07-24T05:41:25.000Z</time>
      </trkpt>
      <trkpt lat="45.22869" lon="5.74184">
        <ele>950.20001220703</ele>
        <time>2021-07-24T05:41:27.000Z</time>
      </trkpt>
      <trkpt lat="45.22863" lon="5.7418">
        <ele>949.20001220703</ele>
        <time>2021-07-24T05:41:30.000Z</time>
      </trkpt>
      <trkpt lat="45.22851" lon="5.74175">
        <ele>947.59997558594</ele>
        <time>2021-07-24T05:41:35.000Z</time>
      </trkpt>
      <trkpt lat="45.22838" lon="5.7417">
        <ele>946.40002441406</ele>
        <time>2021-07-24T05:41:40.000Z</time>
      </trkpt>
      <trkpt lat="45.22832" lon="5.7417">
        <ele>946.20001220703</ele>
        <time>2021-07-24T05:41:42.000Z</time>
      </trkpt>
      <trkpt lat="45.22826" lon="5.74166">
        <ele>945.20001220703</ele>
        <time>2021-07-24T05:41:45.000Z</time>
      </trkpt>
      <trkpt lat="45.22824" lon="5.74165">
        <ele>945.20001220703</ele>
        <time>2021-07-24T05:41:46.000Z</time>
      </trkpt>
      <trkpt lat="45.22816" lon="5.7416">
        <ele>944</ele>
        <time>2021-07-24T05:41:49.000Z</time>
      </trkpt>
      <trkpt lat="45.22814" lon="5.7416">
        <ele>943.79998779297</ele>
        <time>2021-07-24T05:41:50.000Z</time>
      </trkpt>
      <trkpt lat="45.22805" lon="5.74158">
        <ele>943.20001220703</ele>
        <time>2021-07-24T05:41:55.000Z</time>
      </trkpt>
      <trkpt lat="45.22802" lon="5.74156">
        <ele>942.20001220703</ele>
        <time>2021-07-24T05:41:56.000Z</time>
      </trkpt>
      <trkpt lat="45.22786" lon="5.74153">
        <ele>941</ele>
        <time>2021-07-24T05:42:02.000Z</time>
      </trkpt>
      <trkpt lat="45.22783" lon="5.74152">
        <ele>941</ele>
        <time>2021-07-24T05:42:03.000Z</time>
      </trkpt>
      <trkpt lat="45.22776" lon="5.74151">
        <ele>940.79998779297</ele>
        <time>2021-07-24T05:42:06.000Z</time>
      </trkpt>
      <trkpt lat="45.2277" lon="5.74148">
        <ele>939.59997558594</ele>
        <time>2021-07-24T05:42:09.000Z</time>
      </trkpt>
      <trkpt lat="45.22767" lon="5.74146">
        <ele>939.20001220703</ele>
        <time>2021-07-24T05:42:11.000Z</time>
      </trkpt>
      <trkpt lat="45.22762" lon="5.7414">
        <ele>939</ele>
        <time>2021-07-24T05:42:14.000Z</time>
      </trkpt>
      <trkpt lat="45.2276" lon="5.74139">
        <ele>938.40002441406</ele>
        <time>2021-07-24T05:42:15.000Z</time>
      </trkpt>
      <trkpt lat="45.22757" lon="5.74138">
        <ele>938</ele>
        <time>2021-07-24T05:42:16.000Z</time>
      </trkpt>
      <trkpt lat="45.22755" lon="5.74136">
        <ele>937.79998779297</ele>
        <time>2021-07-24T05:42:17.000Z</time>
      </trkpt>
      <trkpt lat="45.22746" lon="5.74132">
        <ele>937.40002441406</ele>
        <time>2021-07-24T05:42:20.000Z</time>
      </trkpt>
      <trkpt lat="45.22743" lon="5.7413">
        <ele>937.20001220703</ele>
        <time>2021-07-24T05:42:21.000Z</time>
      </trkpt>
      <trkpt lat="45.22741" lon="5.74128">
        <ele>936.20001220703</ele>
        <time>2021-07-24T05:42:22.000Z</time>
      </trkpt>
      <trkpt lat="45.22728" lon="5.74124">
        <ele>935.40002441406</ele>
        <time>2021-07-24T05:42:26.000Z</time>
      </trkpt>
      <trkpt lat="45.22725" lon="5.74123">
        <ele>935.40002441406</ele>
        <time>2021-07-24T05:42:27.000Z</time>
      </trkpt>
      <trkpt lat="45.22718" lon="5.74121">
        <ele>935.20001220703</ele>
        <time>2021-07-24T05:42:29.000Z</time>
      </trkpt>
      <trkpt lat="45.22715" lon="5.74119">
        <ele>934.40002441406</ele>
        <time>2021-07-24T05:42:30.000Z</time>
      </trkpt>
      <trkpt lat="45.22704" lon="5.74118">
        <ele>933.20001220703</ele>
        <time>2021-07-24T05:42:34.000Z</time>
      </trkpt>
      <trkpt lat="45.227" lon="5.74118">
        <ele>933</ele>
        <time>2021-07-24T05:42:36.000Z</time>
      </trkpt>
      <trkpt lat="45.22695" lon="5.74116">
        <ele>932</ele>
        <time>2021-07-24T05:42:38.000Z</time>
      </trkpt>
      <trkpt lat="45.22687" lon="5.74117">
        <ele>931.40002441406</ele>
        <time>2021-07-24T05:42:41.000Z</time>
      </trkpt>
      <trkpt lat="45.22685" lon="5.74117">
        <ele>931.20001220703</ele>
        <time>2021-07-24T05:42:42.000Z</time>
      </trkpt>
      <trkpt lat="45.22677" lon="5.74116">
        <ele>930.40002441406</ele>
        <time>2021-07-24T05:42:45.000Z</time>
      </trkpt>
      <trkpt lat="45.2267" lon="5.74114">
        <ele>929.59997558594</ele>
        <time>2021-07-24T05:42:47.000Z</time>
      </trkpt>
      <trkpt lat="45.2266" lon="5.74111">
        <ele>929.20001220703</ele>
        <time>2021-07-24T05:42:51.000Z</time>
      </trkpt>
      <trkpt lat="45.22655" lon="5.74111">
        <ele>928.40002441406</ele>
        <time>2021-07-24T05:42:53.000Z</time>
      </trkpt>
      <trkpt lat="45.22654" lon="5.74111">
        <ele>927.79998779297</ele>
        <time>2021-07-24T05:42:54.000Z</time>
      </trkpt>
      <trkpt lat="45.22642" lon="5.74105">
        <ele>926.59997558594</ele>
        <time>2021-07-24T05:42:59.000Z</time>
      </trkpt>
      <trkpt lat="45.22633" lon="5.74104">
        <ele>926.59997558594</ele>
        <time>2021-07-24T05:43:02.000Z</time>
      </trkpt>
      <trkpt lat="45.22628" lon="5.74103">
        <ele>925.59997558594</ele>
        <time>2021-07-24T05:43:04.000Z</time>
      </trkpt>
      <trkpt lat="45.22615" lon="5.74101">
        <ele>924.20001220703</ele>
        <time>2021-07-24T05:43:09.000Z</time>
      </trkpt>
      <trkpt lat="45.22613" lon="5.741">
        <ele>924.20001220703</ele>
        <time>2021-07-24T05:43:10.000Z</time>
      </trkpt>
      <trkpt lat="45.22604" lon="5.74098">
        <ele>923</ele>
        <time>2021-07-24T05:43:14.000Z</time>
      </trkpt>
      <trkpt lat="45.22602" lon="5.74098">
        <ele>923</ele>
        <time>2021-07-24T05:43:15.000Z</time>
      </trkpt>
      <trkpt lat="45.22593" lon="5.74097">
        <ele>922</ele>
        <time>2021-07-24T05:43:19.000Z</time>
      </trkpt>
      <trkpt lat="45.22588" lon="5.74097">
        <ele>921.20001220703</ele>
        <time>2021-07-24T05:43:21.000Z</time>
      </trkpt>
      <trkpt lat="45.22587" lon="5.74098">
        <ele>920.79998779297</ele>
        <time>2021-07-24T05:43:22.000Z</time>
      </trkpt>
      <trkpt lat="45.22576" lon="5.74102">
        <ele>919.59997558594</ele>
        <time>2021-07-24T05:43:27.000Z</time>
      </trkpt>
      <trkpt lat="45.22566" lon="5.74111">
        <ele>918.59997558594</ele>
        <time>2021-07-24T05:43:32.000Z</time>
      </trkpt>
      <trkpt lat="45.22562" lon="5.74112">
        <ele>917.40002441406</ele>
        <time>2021-07-24T05:43:34.000Z</time>
      </trkpt>
      <trkpt lat="45.22548" lon="5.74115">
        <ele>916.20001220703</ele>
        <time>2021-07-24T05:43:39.000Z</time>
      </trkpt>
      <trkpt lat="45.22537" lon="5.74116">
        <ele>915.79998779297</ele>
        <time>2021-07-24T05:43:42.000Z</time>
      </trkpt>
      <trkpt lat="45.22533" lon="5.74116">
        <ele>915.20001220703</ele>
        <time>2021-07-24T05:43:43.000Z</time>
      </trkpt>
      <trkpt lat="45.22521" lon="5.74117">
        <ele>914.40002441406</ele>
        <time>2021-07-24T05:43:47.000Z</time>
      </trkpt>
      <trkpt lat="45.22518" lon="5.74118">
        <ele>914</ele>
        <time>2021-07-24T05:43:48.000Z</time>
      </trkpt>
      <trkpt lat="45.22515" lon="5.74117">
        <ele>914</ele>
        <time>2021-07-24T05:43:49.000Z</time>
      </trkpt>
      <trkpt lat="45.22506" lon="5.74115">
        <ele>913</ele>
        <time>2021-07-24T05:43:53.000Z</time>
      </trkpt>
      <trkpt lat="45.22502" lon="5.74115">
        <ele>912.79998779297</ele>
        <time>2021-07-24T05:43:55.000Z</time>
      </trkpt>
      <trkpt lat="45.225" lon="5.74115">
        <ele>911.59997558594</ele>
        <time>2021-07-24T05:43:56.000Z</time>
      </trkpt>
      <trkpt lat="45.2249" lon="5.74114">
        <ele>911</ele>
        <time>2021-07-24T05:44:01.000Z</time>
      </trkpt>
      <trkpt lat="45.22488" lon="5.74114">
        <ele>910.40002441406</ele>
        <time>2021-07-24T05:44:02.000Z</time>
      </trkpt>
      <trkpt lat="45.22478" lon="5.74111">
        <ele>909.20001220703</ele>
        <time>2021-07-24T05:44:07.000Z</time>
      </trkpt>
      <trkpt lat="45.22469" lon="5.74108">
        <ele>908.40002441406</ele>
        <time>2021-07-24T05:44:10.000Z</time>
      </trkpt>
      <trkpt lat="45.22463" lon="5.74107">
        <ele>908</ele>
        <time>2021-07-24T05:44:12.000Z</time>
      </trkpt>
      <trkpt lat="45.22456" lon="5.74104">
        <ele>907.20001220703</ele>
        <time>2021-07-24T05:44:15.000Z</time>
      </trkpt>
      <trkpt lat="45.22451" lon="5.74101">
        <ele>906.40002441406</ele>
        <time>2021-07-24T05:44:17.000Z</time>
      </trkpt>
      <trkpt lat="45.22444" lon="5.741">
        <ele>905.20001220703</ele>
        <time>2021-07-24T05:44:21.000Z</time>
      </trkpt>
      <trkpt lat="45.22432" lon="5.74096">
        <ele>903.79998779297</ele>
        <time>2021-07-24T05:44:26.000Z</time>
      </trkpt>
      <trkpt lat="45.22424" lon="5.74094">
        <ele>903.59997558594</ele>
        <time>2021-07-24T05:44:29.000Z</time>
      </trkpt>
      <trkpt lat="45.22422" lon="5.74091">
        <ele>903.59997558594</ele>
        <time>2021-07-24T05:44:30.000Z</time>
      </trkpt>
      <trkpt lat="45.22419" lon="5.74089">
        <ele>902.59997558594</ele>
        <time>2021-07-24T05:44:31.000Z</time>
      </trkpt>
      <trkpt lat="45.22412" lon="5.74083">
        <ele>901.79998779297</ele>
        <time>2021-07-24T05:44:34.000Z</time>
      </trkpt>
      <trkpt lat="45.22409" lon="5.74081">
        <ele>901.59997558594</ele>
        <time>2021-07-24T05:44:36.000Z</time>
      </trkpt>
      <trkpt lat="45.224" lon="5.7408">
        <ele>900.79998779297</ele>
        <time>2021-07-24T05:44:39.000Z</time>
      </trkpt>
      <trkpt lat="45.22397" lon="5.74079">
        <ele>900.20001220703</ele>
        <time>2021-07-24T05:44:40.000Z</time>
      </trkpt>
      <trkpt lat="45.22391" lon="5.7408">
        <ele>900.20001220703</ele>
        <time>2021-07-24T05:44:44.000Z</time>
      </trkpt>
      <trkpt lat="45.22382" lon="5.74073">
        <ele>900.59997558594</ele>
        <time>2021-07-24T05:44:49.000Z</time>
      </trkpt>
      <trkpt lat="45.22376" lon="5.74068">
        <ele>901</ele>
        <time>2021-07-24T05:44:52.000Z</time>
      </trkpt>
      <trkpt lat="45.22366" lon="5.74062">
        <ele>901</ele>
        <time>2021-07-24T05:44:56.000Z</time>
      </trkpt>
      <trkpt lat="45.22358" lon="5.74055">
        <ele>900.20001220703</ele>
        <time>2021-07-24T05:45:00.000Z</time>
      </trkpt>
      <trkpt lat="45.22354" lon="5.7405">
        <ele>899.40002441406</ele>
        <time>2021-07-24T05:45:02.000Z</time>
      </trkpt>
      <trkpt lat="45.22351" lon="5.74049">
        <ele>899.20001220703</ele>
        <time>2021-07-24T05:45:03.000Z</time>
      </trkpt>
      <trkpt lat="45.22347" lon="5.74045">
        <ele>898.20001220703</ele>
        <time>2021-07-24T05:45:07.000Z</time>
      </trkpt>
      <trkpt lat="45.22346" lon="5.74044">
        <ele>898</ele>
        <time>2021-07-24T05:45:08.000Z</time>
      </trkpt>
      <trkpt lat="45.22344" lon="5.74044">
        <ele>897.79998779297</ele>
        <time>2021-07-24T05:45:09.000Z</time>
      </trkpt>
      <trkpt lat="45.22341" lon="5.74043">
        <ele>897.40002441406</ele>
        <time>2021-07-24T05:45:11.000Z</time>
      </trkpt>
      <trkpt lat="45.22335" lon="5.74042">
        <ele>897</ele>
        <time>2021-07-24T05:45:15.000Z</time>
      </trkpt>
      <trkpt lat="45.22333" lon="5.7404">
        <ele>897</ele>
        <time>2021-07-24T05:45:16.000Z</time>
      </trkpt>
      <trkpt lat="45.22323" lon="5.74035">
        <ele>896</ele>
        <time>2021-07-24T05:45:20.000Z</time>
      </trkpt>
      <trkpt lat="45.22314" lon="5.74031">
        <ele>894.79998779297</ele>
        <time>2021-07-24T05:45:25.000Z</time>
      </trkpt>
      <trkpt lat="45.2231" lon="5.74028">
        <ele>894.59997558594</ele>
        <time>2021-07-24T05:45:27.000Z</time>
      </trkpt>
      <trkpt lat="45.22309" lon="5.74027">
        <ele>894.40002441406</ele>
        <time>2021-07-24T05:45:28.000Z</time>
      </trkpt>
      <trkpt lat="45.22309" lon="5.74026">
        <ele>893.79998779297</ele>
        <time>2021-07-24T05:45:29.000Z</time>
      </trkpt>
      <trkpt lat="45.22309" lon="5.74026">
        <ele>893.79998779297</ele>
        <time>2021-07-24T05:45:30.000Z</time>
      </trkpt>
      <trkpt lat="45.22306" lon="5.74023">
        <ele>893.59997558594</ele>
        <time>2021-07-24T05:45:31.000Z</time>
      </trkpt>
      <trkpt lat="45.22297" lon="5.74017">
        <ele>892.79998779297</ele>
        <time>2021-07-24T05:45:35.000Z</time>
      </trkpt>
      <trkpt lat="45.22296" lon="5.74017">
        <ele>892.40002441406</ele>
        <time>2021-07-24T05:45:36.000Z</time>
      </trkpt>
      <trkpt lat="45.22287" lon="5.74013">
        <ele>891.40002441406</ele>
        <time>2021-07-24T05:45:40.000Z</time>
      </trkpt>
      <trkpt lat="45.22279" lon="5.74007">
        <ele>890.79998779297</ele>
        <time>2021-07-24T05:45:43.000Z</time>
      </trkpt>
      <trkpt lat="45.22276" lon="5.74007">
        <ele>890.40002441406</ele>
        <time>2021-07-24T05:45:44.000Z</time>
      </trkpt>
      <trkpt lat="45.22269" lon="5.74004">
        <ele>890</ele>
        <time>2021-07-24T05:45:48.000Z</time>
      </trkpt>
      <trkpt lat="45.22268" lon="5.74003">
        <ele>890</ele>
        <time>2021-07-24T05:45:49.000Z</time>
      </trkpt>
      <trkpt lat="45.22267" lon="5.74002">
        <ele>889.40002441406</ele>
        <time>2021-07-24T05:45:50.000Z</time>
      </trkpt>
      <trkpt lat="45.22265" lon="5.74">
        <ele>889.20001220703</ele>
        <time>2021-07-24T05:45:51.000Z</time>
      </trkpt>
      <trkpt lat="45.22263" lon="5.73998">
        <ele>889.20001220703</ele>
        <time>2021-07-24T05:45:53.000Z</time>
      </trkpt>
      <trkpt lat="45.22262" lon="5.73996">
        <ele>889.20001220703</ele>
        <time>2021-07-24T05:45:54.000Z</time>
      </trkpt>
      <trkpt lat="45.22262" lon="5.73992">
        <ele>888.20001220703</ele>
        <time>2021-07-24T05:45:57.000Z</time>
      </trkpt>
      <trkpt lat="45.22261" lon="5.7399">
        <ele>888.20001220703</ele>
        <time>2021-07-24T05:45:59.000Z</time>
      </trkpt>
      <trkpt lat="45.22256" lon="5.73984">
        <ele>887.59997558594</ele>
        <time>2021-07-24T05:46:02.000Z</time>
      </trkpt>
      <trkpt lat="45.22253" lon="5.73981">
        <ele>887.59997558594</ele>
        <time>2021-07-24T05:46:03.000Z</time>
      </trkpt>
      <trkpt lat="45.2225" lon="5.73978">
        <ele>887</ele>
        <time>2021-07-24T05:46:04.000Z</time>
      </trkpt>
      <trkpt lat="45.22248" lon="5.73975">
        <ele>886.79998779297</ele>
        <time>2021-07-24T05:46:05.000Z</time>
      </trkpt>
      <trkpt lat="45.22247" lon="5.73969">
        <ele>885.79998779297</ele>
        <time>2021-07-24T05:46:08.000Z</time>
      </trkpt>
      <trkpt lat="45.22245" lon="5.73959">
        <ele>885.20001220703</ele>
        <time>2021-07-24T05:46:11.000Z</time>
      </trkpt>
      <trkpt lat="45.22236" lon="5.73952">
        <ele>884.59997558594</ele>
        <time>2021-07-24T05:46:15.000Z</time>
      </trkpt>
      <trkpt lat="45.22229" lon="5.73945">
        <ele>883.59997558594</ele>
        <time>2021-07-24T05:46:19.000Z</time>
      </trkpt>
      <trkpt lat="45.22226" lon="5.73943">
        <ele>883.59997558594</ele>
        <time>2021-07-24T05:46:20.000Z</time>
      </trkpt>
      <trkpt lat="45.2222" lon="5.73939">
        <ele>882.79998779297</ele>
        <time>2021-07-24T05:46:23.000Z</time>
      </trkpt>
      <trkpt lat="45.22219" lon="5.73939">
        <ele>882.59997558594</ele>
        <time>2021-07-24T05:46:24.000Z</time>
      </trkpt>
      <trkpt lat="45.22218" lon="5.73938">
        <ele>882.40002441406</ele>
        <time>2021-07-24T05:46:25.000Z</time>
      </trkpt>
      <trkpt lat="45.22207" lon="5.73932">
        <ele>881.79998779297</ele>
        <time>2021-07-24T05:46:29.000Z</time>
      </trkpt>
      <trkpt lat="45.22205" lon="5.73932">
        <ele>881.40002441406</ele>
        <time>2021-07-24T05:46:30.000Z</time>
      </trkpt>
      <trkpt lat="45.22203" lon="5.73931">
        <ele>880.59997558594</ele>
        <time>2021-07-24T05:46:31.000Z</time>
      </trkpt>
      <trkpt lat="45.22201" lon="5.73931">
        <ele>880.40002441406</ele>
        <time>2021-07-24T05:46:32.000Z</time>
      </trkpt>
      <trkpt lat="45.22195" lon="5.73928">
        <ele>880</ele>
        <time>2021-07-24T05:46:35.000Z</time>
      </trkpt>
      <trkpt lat="45.22188" lon="5.73927">
        <ele>879.40002441406</ele>
        <time>2021-07-24T05:46:38.000Z</time>
      </trkpt>
      <trkpt lat="45.22178" lon="5.73924">
        <ele>878.20001220703</ele>
        <time>2021-07-24T05:46:43.000Z</time>
      </trkpt>
      <trkpt lat="45.22175" lon="5.73922">
        <ele>878</ele>
        <time>2021-07-24T05:46:44.000Z</time>
      </trkpt>
      <trkpt lat="45.22172" lon="5.73921">
        <ele>877.40002441406</ele>
        <time>2021-07-24T05:46:45.000Z</time>
      </trkpt>
      <trkpt lat="45.22166" lon="5.73918">
        <ele>877.20001220703</ele>
        <time>2021-07-24T05:46:48.000Z</time>
      </trkpt>
      <trkpt lat="45.22165" lon="5.73918">
        <ele>877</ele>
        <time>2021-07-24T05:46:49.000Z</time>
      </trkpt>
      <trkpt lat="45.22163" lon="5.73916">
        <ele>876.40002441406</ele>
        <time>2021-07-24T05:46:50.000Z</time>
      </trkpt>
      <trkpt lat="45.2216" lon="5.73915">
        <ele>876.40002441406</ele>
        <time>2021-07-24T05:46:52.000Z</time>
      </trkpt>
      <trkpt lat="45.22157" lon="5.73915">
        <ele>875.79998779297</ele>
        <time>2021-07-24T05:46:53.000Z</time>
      </trkpt>
      <trkpt lat="45.22139" lon="5.73904">
        <ele>874.79998779297</ele>
        <time>2021-07-24T05:46:59.000Z</time>
      </trkpt>
      <trkpt lat="45.22135" lon="5.73901">
        <ele>874.40002441406</ele>
        <time>2021-07-24T05:47:00.000Z</time>
      </trkpt>
      <trkpt lat="45.22117" lon="5.7389">
        <ele>874.20001220703</ele>
        <time>2021-07-24T05:47:05.000Z</time>
      </trkpt>
      <trkpt lat="45.22098" lon="5.73882">
        <ele>874</ele>
        <time>2021-07-24T05:47:09.000Z</time>
      </trkpt>
      <trkpt lat="45.22092" lon="5.73878">
        <ele>874.79998779297</ele>
        <time>2021-07-24T05:47:11.000Z</time>
      </trkpt>
      <trkpt lat="45.22083" lon="5.73873">
        <ele>875.20001220703</ele>
        <time>2021-07-24T05:47:15.000Z</time>
      </trkpt>
      <trkpt lat="45.22082" lon="5.73871">
        <ele>875.79998779297</ele>
        <time>2021-07-24T05:47:18.000Z</time>
      </trkpt>
      <trkpt lat="45.22081" lon="5.73871">
        <ele>875.79998779297</ele>
        <time>2021-07-24T05:47:19.000Z</time>
      </trkpt>
      <trkpt lat="45.22076" lon="5.73866">
        <ele>876.40002441406</ele>
        <time>2021-07-24T05:47:23.000Z</time>
      </trkpt>
      <trkpt lat="45.22075" lon="5.73865">
        <ele>877</ele>
        <time>2021-07-24T05:47:24.000Z</time>
      </trkpt>
      <trkpt lat="45.22073" lon="5.73864">
        <ele>877</ele>
        <time>2021-07-24T05:47:25.000Z</time>
      </trkpt>
      <trkpt lat="45.22068" lon="5.7386">
        <ele>877.59997558594</ele>
        <time>2021-07-24T05:47:29.000Z</time>
      </trkpt>
      <trkpt lat="45.22063" lon="5.73856">
        <ele>877.79998779297</ele>
        <time>2021-07-24T05:47:31.000Z</time>
      </trkpt>
      <trkpt lat="45.22058" lon="5.73852">
        <ele>877.79998779297</ele>
        <time>2021-07-24T05:47:33.000Z</time>
      </trkpt>
      <trkpt lat="45.22054" lon="5.73849">
        <ele>878.20001220703</ele>
        <time>2021-07-24T05:47:35.000Z</time>
      </trkpt>
      <trkpt lat="45.22053" lon="5.73848">
        <ele>878.20001220703</ele>
        <time>2021-07-24T05:47:36.000Z</time>
      </trkpt>
      <trkpt lat="45.2205" lon="5.73845">
        <ele>878.59997558594</ele>
        <time>2021-07-24T05:47:40.000Z</time>
      </trkpt>
      <trkpt lat="45.2205" lon="5.73845">
        <ele>879.40002441406</ele>
        <time>2021-07-24T05:47:41.000Z</time>
      </trkpt>
      <trkpt lat="45.22049" lon="5.73846">
        <ele>879.40002441406</ele>
        <time>2021-07-24T05:47:42.000Z</time>
      </trkpt>
      <trkpt lat="45.22047" lon="5.73846">
        <ele>879.59997558594</ele>
        <time>2021-07-24T05:47:44.000Z</time>
      </trkpt>
      <trkpt lat="45.22043" lon="5.73845">
        <ele>880.40002441406</ele>
        <time>2021-07-24T05:47:46.000Z</time>
      </trkpt>
      <trkpt lat="45.22033" lon="5.73837">
        <ele>881.40002441406</ele>
        <time>2021-07-24T05:47:50.000Z</time>
      </trkpt>
      <trkpt lat="45.2203" lon="5.73835">
        <ele>881.59997558594</ele>
        <time>2021-07-24T05:47:51.000Z</time>
      </trkpt>
      <trkpt lat="45.22027" lon="5.73833">
        <ele>882</ele>
        <time>2021-07-24T05:47:52.000Z</time>
      </trkpt>
      <trkpt lat="45.22022" lon="5.7383">
        <ele>882.59997558594</ele>
        <time>2021-07-24T05:47:54.000Z</time>
      </trkpt>
      <trkpt lat="45.2202" lon="5.73829">
        <ele>883</ele>
        <time>2021-07-24T05:47:56.000Z</time>
      </trkpt>
      <trkpt lat="45.22017" lon="5.73827">
        <ele>883.59997558594</ele>
        <time>2021-07-24T05:47:58.000Z</time>
      </trkpt>
      <trkpt lat="45.22016" lon="5.73826">
        <ele>883.59997558594</ele>
        <time>2021-07-24T05:47:59.000Z</time>
      </trkpt>
      <trkpt lat="45.22013" lon="5.73824">
        <ele>884.20001220703</ele>
        <time>2021-07-24T05:48:01.000Z</time>
      </trkpt>
      <trkpt lat="45.2201" lon="5.73822">
        <ele>884.79998779297</ele>
        <time>2021-07-24T05:48:03.000Z</time>
      </trkpt>
      <trkpt lat="45.22008" lon="5.7382">
        <ele>884.79998779297</ele>
        <time>2021-07-24T05:48:04.000Z</time>
      </trkpt>
      <trkpt lat="45.22001" lon="5.73812">
        <ele>885</ele>
        <time>2021-07-24T05:48:07.000Z</time>
      </trkpt>
      <trkpt lat="45.22" lon="5.73811">
        <ele>885.59997558594</ele>
        <time>2021-07-24T05:48:08.000Z</time>
      </trkpt>
      <trkpt lat="45.21999" lon="5.7381">
        <ele>885.79998779297</ele>
        <time>2021-07-24T05:48:09.000Z</time>
      </trkpt>
      <trkpt lat="45.21998" lon="5.73807">
        <ele>885.79998779297</ele>
        <time>2021-07-24T05:48:10.000Z</time>
      </trkpt>
      <trkpt lat="45.21995" lon="5.73803">
        <ele>886</ele>
        <time>2021-07-24T05:48:12.000Z</time>
      </trkpt>
      <trkpt lat="45.21993" lon="5.73798">
        <ele>887</ele>
        <time>2021-07-24T05:48:14.000Z</time>
      </trkpt>
      <trkpt lat="45.21992" lon="5.73796">
        <ele>887</ele>
        <time>2021-07-24T05:48:15.000Z</time>
      </trkpt>
      <trkpt lat="45.21991" lon="5.73794">
        <ele>887.20001220703</ele>
        <time>2021-07-24T05:48:16.000Z</time>
      </trkpt>
      <trkpt lat="45.21984" lon="5.73784">
        <ele>887.40002441406</ele>
        <time>2021-07-24T05:48:20.000Z</time>
      </trkpt>
      <trkpt lat="45.21982" lon="5.73781">
        <ele>887.59997558594</ele>
        <time>2021-07-24T05:48:21.000Z</time>
      </trkpt>
      <trkpt lat="45.2198" lon="5.73777">
        <ele>888</ele>
        <time>2021-07-24T05:48:24.000Z</time>
      </trkpt>
      <trkpt lat="45.21978" lon="5.73774">
        <ele>888.20001220703</ele>
        <time>2021-07-24T05:48:26.000Z</time>
      </trkpt>
      <trkpt lat="45.21977" lon="5.73773">
        <ele>888.59997558594</ele>
        <time>2021-07-24T05:48:28.000Z</time>
      </trkpt>
      <trkpt lat="45.21973" lon="5.73767">
        <ele>889.20001220703</ele>
        <time>2021-07-24T05:48:31.000Z</time>
      </trkpt>
      <trkpt lat="45.21966" lon="5.73758">
        <ele>889.59997558594</ele>
        <time>2021-07-24T05:48:34.000Z</time>
      </trkpt>
      <trkpt lat="45.21967" lon="5.73757">
        <ele>889.59997558594</ele>
        <time>2021-07-24T05:48:35.000Z</time>
      </trkpt>
      <trkpt lat="45.21968" lon="5.73757">
        <ele>890.40002441406</ele>
        <time>2021-07-24T05:48:36.000Z</time>
      </trkpt>
      <trkpt lat="45.21966" lon="5.73753">
        <ele>891</ele>
        <time>2021-07-24T05:48:39.000Z</time>
      </trkpt>
      <trkpt lat="45.21965" lon="5.73751">
        <ele>891</ele>
        <time>2021-07-24T05:48:40.000Z</time>
      </trkpt>
      <trkpt lat="45.21963" lon="5.73749">
        <ele>891.59997558594</ele>
        <time>2021-07-24T05:48:42.000Z</time>
      </trkpt>
      <trkpt lat="45.21962" lon="5.73747">
        <ele>891.59997558594</ele>
        <time>2021-07-24T05:48:43.000Z</time>
      </trkpt>
      <trkpt lat="45.21961" lon="5.73747">
        <ele>892.40002441406</ele>
        <time>2021-07-24T05:48:44.000Z</time>
      </trkpt>
      <trkpt lat="45.21961" lon="5.73746">
        <ele>892.40002441406</ele>
        <time>2021-07-24T05:48:45.000Z</time>
      </trkpt>
      <trkpt lat="45.21958" lon="5.73744">
        <ele>892.79998779297</ele>
        <time>2021-07-24T05:48:48.000Z</time>
      </trkpt>
      <trkpt lat="45.21954" lon="5.73741">
        <ele>893.40002441406</ele>
        <time>2021-07-24T05:48:50.000Z</time>
      </trkpt>
      <trkpt lat="45.21951" lon="5.7374">
        <ele>893.59997558594</ele>
        <time>2021-07-24T05:48:51.000Z</time>
      </trkpt>
      <trkpt lat="45.21951" lon="5.7374">
        <ele>893.79998779297</ele>
        <time>2021-07-24T05:48:52.000Z</time>
      </trkpt>
      <trkpt lat="45.21949" lon="5.73739">
        <ele>894.79998779297</ele>
        <time>2021-07-24T05:48:54.000Z</time>
      </trkpt>
      <trkpt lat="45.21947" lon="5.73738">
        <ele>895</ele>
        <time>2021-07-24T05:48:56.000Z</time>
      </trkpt>
      <trkpt lat="45.21944" lon="5.73737">
        <ele>895.20001220703</ele>
        <time>2021-07-24T05:48:57.000Z</time>
      </trkpt>
      <trkpt lat="45.21942" lon="5.73736">
        <ele>895.40002441406</ele>
        <time>2021-07-24T05:48:58.000Z</time>
      </trkpt>
      <trkpt lat="45.21938" lon="5.73735">
        <ele>896</ele>
        <time>2021-07-24T05:49:01.000Z</time>
      </trkpt>
      <trkpt lat="45.21937" lon="5.73736">
        <ele>896.20001220703</ele>
        <time>2021-07-24T05:49:02.000Z</time>
      </trkpt>
      <trkpt lat="45.21933" lon="5.73736">
        <ele>897.59997558594</ele>
        <time>2021-07-24T05:49:06.000Z</time>
      </trkpt>
      <trkpt lat="45.21932" lon="5.73737">
        <ele>898</ele>
        <time>2021-07-24T05:49:08.000Z</time>
      </trkpt>
      <trkpt lat="45.21927" lon="5.73736">
        <ele>898.79998779297</ele>
        <time>2021-07-24T05:49:11.000Z</time>
      </trkpt>
      <trkpt lat="45.21926" lon="5.73735">
        <ele>899</ele>
        <time>2021-07-24T05:49:12.000Z</time>
      </trkpt>
      <trkpt lat="45.21925" lon="5.73734">
        <ele>899.20001220703</ele>
        <time>2021-07-24T05:49:14.000Z</time>
      </trkpt>
      <trkpt lat="45.21921" lon="5.7373">
        <ele>899.79998779297</ele>
        <time>2021-07-24T05:49:17.000Z</time>
      </trkpt>
      <trkpt lat="45.21917" lon="5.73726">
        <ele>900.40002441406</ele>
        <time>2021-07-24T05:49:19.000Z</time>
      </trkpt>
      <trkpt lat="45.21911" lon="5.7372">
        <ele>900.59997558594</ele>
        <time>2021-07-24T05:49:21.000Z</time>
      </trkpt>
      <trkpt lat="45.21906" lon="5.73714">
        <ele>901.20001220703</ele>
        <time>2021-07-24T05:49:24.000Z</time>
      </trkpt>
      <trkpt lat="45.21901" lon="5.73708">
        <ele>901.20001220703</ele>
        <time>2021-07-24T05:49:29.000Z</time>
      </trkpt>
      <trkpt lat="45.21899" lon="5.73708">
        <ele>901.20001220703</ele>
        <time>2021-07-24T05:49:30.000Z</time>
      </trkpt>
      <trkpt lat="45.21899" lon="5.73706">
        <ele>901.20001220703</ele>
        <time>2021-07-24T05:49:32.000Z</time>
      </trkpt>
      <trkpt lat="45.21897" lon="5.73705">
        <ele>900.79998779297</ele>
        <time>2021-07-24T05:49:33.000Z</time>
      </trkpt>
      <trkpt lat="45.21894" lon="5.73698">
        <ele>900.40002441406</ele>
        <time>2021-07-24T05:49:37.000Z</time>
      </trkpt>
      <trkpt lat="45.21888" lon="5.73692">
        <ele>900.40002441406</ele>
        <time>2021-07-24T05:49:40.000Z</time>
      </trkpt>
      <trkpt lat="45.21882" lon="5.73688">
        <ele>900.40002441406</ele>
        <time>2021-07-24T05:49:42.000Z</time>
      </trkpt>
      <trkpt lat="45.21879" lon="5.73684">
        <ele>900.59997558594</ele>
        <time>2021-07-24T05:49:44.000Z</time>
      </trkpt>
      <trkpt lat="45.21869" lon="5.73669">
        <ele>901.59997558594</ele>
        <time>2021-07-24T05:49:49.000Z</time>
      </trkpt>
      <trkpt lat="45.21864" lon="5.73661">
        <ele>901.79998779297</ele>
        <time>2021-07-24T05:49:51.000Z</time>
      </trkpt>
      <trkpt lat="45.21852" lon="5.7364">
        <ele>902.20001220703</ele>
        <time>2021-07-24T05:49:56.000Z</time>
      </trkpt>
      <trkpt lat="45.2185" lon="5.73637">
        <ele>902.59997558594</ele>
        <time>2021-07-24T05:49:57.000Z</time>
      </trkpt>
      <trkpt lat="45.21849" lon="5.73635">
        <ele>903</ele>
        <time>2021-07-24T05:49:58.000Z</time>
      </trkpt>
      <trkpt lat="45.21847" lon="5.73629">
        <ele>903.79998779297</ele>
        <time>2021-07-24T05:50:00.000Z</time>
      </trkpt>
      <trkpt lat="45.21844" lon="5.73616">
        <ele>904.40002441406</ele>
        <time>2021-07-24T05:50:06.000Z</time>
      </trkpt>
      <trkpt lat="45.21843" lon="5.73615">
        <ele>905</ele>
        <time>2021-07-24T05:50:08.000Z</time>
      </trkpt>
      <trkpt lat="45.21842" lon="5.73615">
        <ele>905.59997558594</ele>
        <time>2021-07-24T05:50:10.000Z</time>
      </trkpt>
      <trkpt lat="45.21841" lon="5.7361">
        <ele>906.20001220703</ele>
        <time>2021-07-24T05:50:13.000Z</time>
      </trkpt>
      <trkpt lat="45.21838" lon="5.73605">
        <ele>907</ele>
        <time>2021-07-24T05:50:16.000Z</time>
      </trkpt>
      <trkpt lat="45.21837" lon="5.73604">
        <ele>907</ele>
        <time>2021-07-24T05:50:17.000Z</time>
      </trkpt>
      <trkpt lat="45.21837" lon="5.73603">
        <ele>907.40002441406</ele>
        <time>2021-07-24T05:50:18.000Z</time>
      </trkpt>
      <trkpt lat="45.21837" lon="5.73602">
        <ele>907.79998779297</ele>
        <time>2021-07-24T05:50:19.000Z</time>
      </trkpt>
      <trkpt lat="45.21834" lon="5.736">
        <ele>908.79998779297</ele>
        <time>2021-07-24T05:50:21.000Z</time>
      </trkpt>
      <trkpt lat="45.21833" lon="5.73598">
        <ele>909</ele>
        <time>2021-07-24T05:50:22.000Z</time>
      </trkpt>
      <trkpt lat="45.2183" lon="5.73592">
        <ele>910</ele>
        <time>2021-07-24T05:50:26.000Z</time>
      </trkpt>
      <trkpt lat="45.21828" lon="5.7359">
        <ele>910.20001220703</ele>
        <time>2021-07-24T05:50:27.000Z</time>
      </trkpt>
      <trkpt lat="45.21828" lon="5.73587">
        <ele>911.40002441406</ele>
        <time>2021-07-24T05:50:28.000Z</time>
      </trkpt>
      <trkpt lat="45.21826" lon="5.73582">
        <ele>911.40002441406</ele>
        <time>2021-07-24T05:50:29.000Z</time>
      </trkpt>
      <trkpt lat="45.21822" lon="5.73576">
        <ele>911.59997558594</ele>
        <time>2021-07-24T05:50:31.000Z</time>
      </trkpt>
      <trkpt lat="45.2182" lon="5.73573">
        <ele>911.79998779297</ele>
        <time>2021-07-24T05:50:32.000Z</time>
      </trkpt>
      <trkpt lat="45.21817" lon="5.73571">
        <ele>912.59997558594</ele>
        <time>2021-07-24T05:50:33.000Z</time>
      </trkpt>
      <trkpt lat="45.21807" lon="5.73559">
        <ele>913.79998779297</ele>
        <time>2021-07-24T05:50:37.000Z</time>
      </trkpt>
      <trkpt lat="45.21804" lon="5.73553">
        <ele>914.20001220703</ele>
        <time>2021-07-24T05:50:40.000Z</time>
      </trkpt>
      <trkpt lat="45.21801" lon="5.73549">
        <ele>915.20001220703</ele>
        <time>2021-07-24T05:50:42.000Z</time>
      </trkpt>
      <trkpt lat="45.21798" lon="5.73547">
        <ele>916</ele>
        <time>2021-07-24T05:50:45.000Z</time>
      </trkpt>
      <trkpt lat="45.21795" lon="5.73546">
        <ele>916.20001220703</ele>
        <time>2021-07-24T05:50:47.000Z</time>
      </trkpt>
      <trkpt lat="45.2179" lon="5.73543">
        <ele>917.20001220703</ele>
        <time>2021-07-24T05:50:50.000Z</time>
      </trkpt>
      <trkpt lat="45.21786" lon="5.73541">
        <ele>917.59997558594</ele>
        <time>2021-07-24T05:50:53.000Z</time>
      </trkpt>
      <trkpt lat="45.21785" lon="5.73541">
        <ele>917.59997558594</ele>
        <time>2021-07-24T05:50:54.000Z</time>
      </trkpt>
      <trkpt lat="45.21774" lon="5.73539">
        <ele>917.20001220703</ele>
        <time>2021-07-24T05:51:00.000Z</time>
      </trkpt>
      <trkpt lat="45.21763" lon="5.73537">
        <ele>916.79998779297</ele>
        <time>2021-07-24T05:51:04.000Z</time>
      </trkpt>
      <trkpt lat="45.21755" lon="5.73534">
        <ele>916.79998779297</ele>
        <time>2021-07-24T05:51:08.000Z</time>
      </trkpt>
      <trkpt lat="45.21754" lon="5.73534">
        <ele>916.79998779297</ele>
        <time>2021-07-24T05:51:09.000Z</time>
      </trkpt>
      <trkpt lat="45.2175" lon="5.73529">
        <ele>916.59997558594</ele>
        <time>2021-07-24T05:51:13.000Z</time>
      </trkpt>
      <trkpt lat="45.21746" lon="5.73526">
        <ele>916.59997558594</ele>
        <time>2021-07-24T05:51:16.000Z</time>
      </trkpt>
      <trkpt lat="45.21745" lon="5.73524">
        <ele>916.59997558594</ele>
        <time>2021-07-24T05:51:17.000Z</time>
      </trkpt>
      <trkpt lat="45.21744" lon="5.73521">
        <ele>916.20001220703</ele>
        <time>2021-07-24T05:51:19.000Z</time>
      </trkpt>
      <trkpt lat="45.21742" lon="5.7352">
        <ele>916.20001220703</ele>
        <time>2021-07-24T05:51:20.000Z</time>
      </trkpt>
      <trkpt lat="45.21736" lon="5.73516">
        <ele>916.20001220703</ele>
        <time>2021-07-24T05:51:23.000Z</time>
      </trkpt>
      <trkpt lat="45.21716" lon="5.7351">
        <ele>915.59997558594</ele>
        <time>2021-07-24T05:51:29.000Z</time>
      </trkpt>
      <trkpt lat="45.21709" lon="5.7351">
        <ele>915.20001220703</ele>
        <time>2021-07-24T05:51:32.000Z</time>
      </trkpt>
      <trkpt lat="45.21702" lon="5.7351">
        <ele>914.79998779297</ele>
        <time>2021-07-24T05:51:35.000Z</time>
      </trkpt>
      <trkpt lat="45.21691" lon="5.73499">
        <ele>914.20001220703</ele>
        <time>2021-07-24T05:51:40.000Z</time>
      </trkpt>
      <trkpt lat="45.21688" lon="5.73495">
        <ele>914.59997558594</ele>
        <time>2021-07-24T05:51:42.000Z</time>
      </trkpt>
      <trkpt lat="45.21686" lon="5.73491">
        <ele>915.40002441406</ele>
        <time>2021-07-24T05:51:44.000Z</time>
      </trkpt>
      <trkpt lat="45.21684" lon="5.73487">
        <ele>915.59997558594</ele>
        <time>2021-07-24T05:51:46.000Z</time>
      </trkpt>
      <trkpt lat="45.21681" lon="5.73478">
        <ele>916.20001220703</ele>
        <time>2021-07-24T05:51:49.000Z</time>
      </trkpt>
      <trkpt lat="45.21679" lon="5.73472">
        <ele>916.59997558594</ele>
        <time>2021-07-24T05:51:51.000Z</time>
      </trkpt>
      <trkpt lat="45.21676" lon="5.73458">
        <ele>917.40002441406</ele>
        <time>2021-07-24T05:51:55.000Z</time>
      </trkpt>
      <trkpt lat="45.21676" lon="5.73453">
        <ele>917.59997558594</ele>
        <time>2021-07-24T05:51:56.000Z</time>
      </trkpt>
      <trkpt lat="45.21673" lon="5.73441">
        <ele>918.40002441406</ele>
        <time>2021-07-24T05:52:00.000Z</time>
      </trkpt>
      <trkpt lat="45.21674" lon="5.73439">
        <ele>919.40002441406</ele>
        <time>2021-07-24T05:52:01.000Z</time>
      </trkpt>
      <trkpt lat="45.21674" lon="5.73434">
        <ele>919.79998779297</ele>
        <time>2021-07-24T05:52:04.000Z</time>
      </trkpt>
      <trkpt lat="45.21675" lon="5.73432">
        <ele>920.40002441406</ele>
        <time>2021-07-24T05:52:05.000Z</time>
      </trkpt>
      <trkpt lat="45.21677" lon="5.73427">
        <ele>921</ele>
        <time>2021-07-24T05:52:08.000Z</time>
      </trkpt>
      <trkpt lat="45.21676" lon="5.73424">
        <ele>921.59997558594</ele>
        <time>2021-07-24T05:52:09.000Z</time>
      </trkpt>
      <trkpt lat="45.21677" lon="5.73421">
        <ele>921.79998779297</ele>
        <time>2021-07-24T05:52:10.000Z</time>
      </trkpt>
      <trkpt lat="45.21678" lon="5.73419">
        <ele>922</ele>
        <time>2021-07-24T05:52:11.000Z</time>
      </trkpt>
      <trkpt lat="45.21678" lon="5.73418">
        <ele>922.20001220703</ele>
        <time>2021-07-24T05:52:12.000Z</time>
      </trkpt>
      <trkpt lat="45.21678" lon="5.73416">
        <ele>923</ele>
        <time>2021-07-24T05:52:13.000Z</time>
      </trkpt>
      <trkpt lat="45.21678" lon="5.73413">
        <ele>923.79998779297</ele>
        <time>2021-07-24T05:52:16.000Z</time>
      </trkpt>
      <trkpt lat="45.21678" lon="5.73411">
        <ele>924.40002441406</ele>
        <time>2021-07-24T05:52:17.000Z</time>
      </trkpt>
      <trkpt lat="45.21679" lon="5.7341">
        <ele>924.40002441406</ele>
        <time>2021-07-24T05:52:18.000Z</time>
      </trkpt>
      <trkpt lat="45.21678" lon="5.73405">
        <ele>925.20001220703</ele>
        <time>2021-07-24T05:52:21.000Z</time>
      </trkpt>
      <trkpt lat="45.21677" lon="5.73402">
        <ele>925.59997558594</ele>
        <time>2021-07-24T05:52:22.000Z</time>
      </trkpt>
      <trkpt lat="45.21677" lon="5.73401">
        <ele>925.59997558594</ele>
        <time>2021-07-24T05:52:23.000Z</time>
      </trkpt>
      <trkpt lat="45.21675" lon="5.73395">
        <ele>927</ele>
        <time>2021-07-24T05:52:26.000Z</time>
      </trkpt>
      <trkpt lat="45.21675" lon="5.73393">
        <ele>927.20001220703</ele>
        <time>2021-07-24T05:52:27.000Z</time>
      </trkpt>
      <trkpt lat="45.21674" lon="5.73392">
        <ele>927.40002441406</ele>
        <time>2021-07-24T05:52:28.000Z</time>
      </trkpt>
      <trkpt lat="45.21674" lon="5.73388">
        <ele>928</ele>
        <time>2021-07-24T05:52:30.000Z</time>
      </trkpt>
      <trkpt lat="45.21675" lon="5.73387">
        <ele>928.20001220703</ele>
        <time>2021-07-24T05:52:31.000Z</time>
      </trkpt>
      <trkpt lat="45.21674" lon="5.73385">
        <ele>928.59997558594</ele>
        <time>2021-07-24T05:52:33.000Z</time>
      </trkpt>
      <trkpt lat="45.21672" lon="5.73381">
        <ele>929.79998779297</ele>
        <time>2021-07-24T05:52:35.000Z</time>
      </trkpt>
      <trkpt lat="45.21671" lon="5.73379">
        <ele>929.79998779297</ele>
        <time>2021-07-24T05:52:36.000Z</time>
      </trkpt>
      <trkpt lat="45.2167" lon="5.73378">
        <ele>930.40002441406</ele>
        <time>2021-07-24T05:52:38.000Z</time>
      </trkpt>
      <trkpt lat="45.2167" lon="5.73377">
        <ele>931</ele>
        <time>2021-07-24T05:52:39.000Z</time>
      </trkpt>
      <trkpt lat="45.21666" lon="5.73371">
        <ele>931.40002441406</ele>
        <time>2021-07-24T05:52:42.000Z</time>
      </trkpt>
      <trkpt lat="45.21664" lon="5.73369">
        <ele>932</ele>
        <time>2021-07-24T05:52:43.000Z</time>
      </trkpt>
      <trkpt lat="45.21662" lon="5.73365">
        <ele>933.20001220703</ele>
        <time>2021-07-24T05:52:46.000Z</time>
      </trkpt>
      <trkpt lat="45.21661" lon="5.73361">
        <ele>934.59997558594</ele>
        <time>2021-07-24T05:52:48.000Z</time>
      </trkpt>
      <trkpt lat="45.2166" lon="5.73358">
        <ele>934.79998779297</ele>
        <time>2021-07-24T05:52:50.000Z</time>
      </trkpt>
      <trkpt lat="45.21657" lon="5.7335">
        <ele>935.79998779297</ele>
        <time>2021-07-24T05:52:54.000Z</time>
      </trkpt>
      <trkpt lat="45.21656" lon="5.73345">
        <ele>935.20001220703</ele>
        <time>2021-07-24T05:52:57.000Z</time>
      </trkpt>
      <trkpt lat="45.21651" lon="5.7334">
        <ele>934.79998779297</ele>
        <time>2021-07-24T05:53:01.000Z</time>
      </trkpt>
      <trkpt lat="45.21645" lon="5.73332">
        <ele>933.79998779297</ele>
        <time>2021-07-24T05:53:06.000Z</time>
      </trkpt>
      <trkpt lat="45.21643" lon="5.73332">
        <ele>933.59997558594</ele>
        <time>2021-07-24T05:53:07.000Z</time>
      </trkpt>
      <trkpt lat="45.21639" lon="5.73327">
        <ele>932.40002441406</ele>
        <time>2021-07-24T05:53:11.000Z</time>
      </trkpt>
      <trkpt lat="45.21634" lon="5.73322">
        <ele>931.20001220703</ele>
        <time>2021-07-24T05:53:15.000Z</time>
      </trkpt>
      <trkpt lat="45.21627" lon="5.73315">
        <ele>930.40002441406</ele>
        <time>2021-07-24T05:53:21.000Z</time>
      </trkpt>
      <trkpt lat="45.21625" lon="5.73313">
        <ele>929.79998779297</ele>
        <time>2021-07-24T05:53:22.000Z</time>
      </trkpt>
      <trkpt lat="45.21618" lon="5.73306">
        <ele>929.20001220703</ele>
        <time>2021-07-24T05:53:26.000Z</time>
      </trkpt>
      <trkpt lat="45.21617" lon="5.73304">
        <ele>928.79998779297</ele>
        <time>2021-07-24T05:53:27.000Z</time>
      </trkpt>
      <trkpt lat="45.21617" lon="5.73303">
        <ele>928.59997558594</ele>
        <time>2021-07-24T05:53:28.000Z</time>
      </trkpt>
      <trkpt lat="45.21613" lon="5.733">
        <ele>928.20001220703</ele>
        <time>2021-07-24T05:53:31.000Z</time>
      </trkpt>
      <trkpt lat="45.21608" lon="5.73298">
        <ele>927.40002441406</ele>
        <time>2021-07-24T05:53:34.000Z</time>
      </trkpt>
      <trkpt lat="45.21602" lon="5.73295">
        <ele>926.40002441406</ele>
        <time>2021-07-24T05:53:38.000Z</time>
      </trkpt>
      <trkpt lat="45.21594" lon="5.73291">
        <ele>925.20001220703</ele>
        <time>2021-07-24T05:53:43.000Z</time>
      </trkpt>
      <trkpt lat="45.21589" lon="5.73289">
        <ele>924.20001220703</ele>
        <time>2021-07-24T05:53:46.000Z</time>
      </trkpt>
      <trkpt lat="45.21587" lon="5.73289">
        <ele>924.20001220703</ele>
        <time>2021-07-24T05:53:47.000Z</time>
      </trkpt>
      <trkpt lat="45.21581" lon="5.73287">
        <ele>923</ele>
        <time>2021-07-24T05:53:51.000Z</time>
      </trkpt>
      <trkpt lat="45.2158" lon="5.73286">
        <ele>922.79998779297</ele>
        <time>2021-07-24T05:53:52.000Z</time>
      </trkpt>
      <trkpt lat="45.21579" lon="5.73285">
        <ele>922.79998779297</ele>
        <time>2021-07-24T05:53:53.000Z</time>
      </trkpt>
      <trkpt lat="45.21578" lon="5.73283">
        <ele>922.20001220703</ele>
        <time>2021-07-24T05:53:54.000Z</time>
      </trkpt>
      <trkpt lat="45.21578" lon="5.73282">
        <ele>922</ele>
        <time>2021-07-24T05:53:55.000Z</time>
      </trkpt>
      <trkpt lat="45.21577" lon="5.73282">
        <ele>921.59997558594</ele>
        <time>2021-07-24T05:53:56.000Z</time>
      </trkpt>
      <trkpt lat="45.21576" lon="5.73281">
        <ele>921.40002441406</ele>
        <time>2021-07-24T05:53:57.000Z</time>
      </trkpt>
      <trkpt lat="45.21574" lon="5.7328">
        <ele>921</ele>
        <time>2021-07-24T05:53:59.000Z</time>
      </trkpt>
      <trkpt lat="45.21573" lon="5.7328">
        <ele>920.59997558594</ele>
        <time>2021-07-24T05:54:00.000Z</time>
      </trkpt>
      <trkpt lat="45.21571" lon="5.7328">
        <ele>919.79998779297</ele>
        <time>2021-07-24T05:54:03.000Z</time>
      </trkpt>
      <trkpt lat="45.2157" lon="5.7328">
        <ele>919.59997558594</ele>
        <time>2021-07-24T05:54:04.000Z</time>
      </trkpt>
      <trkpt lat="45.21568" lon="5.7328">
        <ele>919.59997558594</ele>
        <time>2021-07-24T05:54:05.000Z</time>
      </trkpt>
      <trkpt lat="45.21564" lon="5.73283">
        <ele>918.40002441406</ele>
        <time>2021-07-24T05:54:07.000Z</time>
      </trkpt>
      <trkpt lat="45.21562" lon="5.73282">
        <ele>918.40002441406</ele>
        <time>2021-07-24T05:54:08.000Z</time>
      </trkpt>
      <trkpt lat="45.21561" lon="5.73282">
        <ele>917.79998779297</ele>
        <time>2021-07-24T05:54:09.000Z</time>
      </trkpt>
      <trkpt lat="45.2156" lon="5.73282">
        <ele>917</ele>
        <time>2021-07-24T05:54:10.000Z</time>
      </trkpt>
      <trkpt lat="45.21554" lon="5.73283">
        <ele>916.40002441406</ele>
        <time>2021-07-24T05:54:13.000Z</time>
      </trkpt>
      <trkpt lat="45.21552" lon="5.73283">
        <ele>915.79998779297</ele>
        <time>2021-07-24T05:54:14.000Z</time>
      </trkpt>
      <trkpt lat="45.21549" lon="5.73284">
        <ele>914.79998779297</ele>
        <time>2021-07-24T05:54:16.000Z</time>
      </trkpt>
      <trkpt lat="45.21544" lon="5.73284">
        <ele>914.40002441406</ele>
        <time>2021-07-24T05:54:18.000Z</time>
      </trkpt>
      <trkpt lat="45.21541" lon="5.73281">
        <ele>913.40002441406</ele>
        <time>2021-07-24T05:54:20.000Z</time>
      </trkpt>
      <trkpt lat="45.21538" lon="5.7328">
        <ele>912.59997558594</ele>
        <time>2021-07-24T05:54:22.000Z</time>
      </trkpt>
      <trkpt lat="45.21538" lon="5.73279">
        <ele>912.20001220703</ele>
        <time>2021-07-24T05:54:23.000Z</time>
      </trkpt>
      <trkpt lat="45.21541" lon="5.73279">
        <ele>911.40002441406</ele>
        <time>2021-07-24T05:54:26.000Z</time>
      </trkpt>
      <trkpt lat="45.21542" lon="5.73279">
        <ele>911</ele>
        <time>2021-07-24T05:54:27.000Z</time>
      </trkpt>
      <trkpt lat="45.21542" lon="5.7328">
        <ele>910.59997558594</ele>
        <time>2021-07-24T05:54:28.000Z</time>
      </trkpt>
      <trkpt lat="45.21544" lon="5.73283">
        <ele>909.79998779297</ele>
        <time>2021-07-24T05:54:30.000Z</time>
      </trkpt>
      <trkpt lat="45.21545" lon="5.73285">
        <ele>909.40002441406</ele>
        <time>2021-07-24T05:54:32.000Z</time>
      </trkpt>
      <trkpt lat="45.21546" lon="5.73286">
        <ele>908.79998779297</ele>
        <time>2021-07-24T05:54:33.000Z</time>
      </trkpt>
      <trkpt lat="45.21547" lon="5.73287">
        <ele>908.20001220703</ele>
        <time>2021-07-24T05:54:35.000Z</time>
      </trkpt>
      <trkpt lat="45.21548" lon="5.73288">
        <ele>907.20001220703</ele>
        <time>2021-07-24T05:54:37.000Z</time>
      </trkpt>
      <trkpt lat="45.21552" lon="5.73291">
        <ele>905.40002441406</ele>
        <time>2021-07-24T05:54:39.000Z</time>
      </trkpt>
      <trkpt lat="45.21552" lon="5.73294">
        <ele>905</ele>
        <time>2021-07-24T05:54:41.000Z</time>
      </trkpt>
      <trkpt lat="45.21553" lon="5.73296">
        <ele>905</ele>
        <time>2021-07-24T05:54:42.000Z</time>
      </trkpt>
      <trkpt lat="45.21553" lon="5.73298">
        <ele>904.79998779297</ele>
        <time>2021-07-24T05:54:43.000Z</time>
      </trkpt>
      <trkpt lat="45.21554" lon="5.73299">
        <ele>904</ele>
        <time>2021-07-24T05:54:44.000Z</time>
      </trkpt>
      <trkpt lat="45.21554" lon="5.73302">
        <ele>903.20001220703</ele>
        <time>2021-07-24T05:54:46.000Z</time>
      </trkpt>
      <trkpt lat="45.21555" lon="5.73303">
        <ele>902.59997558594</ele>
        <time>2021-07-24T05:54:47.000Z</time>
      </trkpt>
      <trkpt lat="45.21559" lon="5.73307">
        <ele>901.59997558594</ele>
        <time>2021-07-24T05:54:52.000Z</time>
      </trkpt>
      <trkpt lat="45.2156" lon="5.73309">
        <ele>901.20001220703</ele>
        <time>2021-07-24T05:54:53.000Z</time>
      </trkpt>
      <trkpt lat="45.21562" lon="5.73312">
        <ele>899.79998779297</ele>
        <time>2021-07-24T05:54:55.000Z</time>
      </trkpt>
      <trkpt lat="45.21563" lon="5.73313">
        <ele>899</ele>
        <time>2021-07-24T05:54:56.000Z</time>
      </trkpt>
      <trkpt lat="45.21562" lon="5.73314">
        <ele>899</ele>
        <time>2021-07-24T05:54:58.000Z</time>
      </trkpt>
      <trkpt lat="45.21564" lon="5.73315">
        <ele>898.79998779297</ele>
        <time>2021-07-24T05:55:00.000Z</time>
      </trkpt>
      <trkpt lat="45.21563" lon="5.73317">
        <ele>897.79998779297</ele>
        <time>2021-07-24T05:55:03.000Z</time>
      </trkpt>
      <trkpt lat="45.21564" lon="5.73318">
        <ele>897.79998779297</ele>
        <time>2021-07-24T05:55:04.000Z</time>
      </trkpt>
      <trkpt lat="45.21564" lon="5.7332">
        <ele>897</ele>
        <time>2021-07-24T05:55:06.000Z</time>
      </trkpt>
      <trkpt lat="45.21565" lon="5.73321">
        <ele>896.79998779297</ele>
        <time>2021-07-24T05:55:08.000Z</time>
      </trkpt>
      <trkpt lat="45.21565" lon="5.73322">
        <ele>896.79998779297</ele>
        <time>2021-07-24T05:55:09.000Z</time>
      </trkpt>
      <trkpt lat="45.21566" lon="5.73323">
        <ele>896.59997558594</ele>
        <time>2021-07-24T05:55:10.000Z</time>
      </trkpt>
      <trkpt lat="45.21566" lon="5.73323">
        <ele>896.40002441406</ele>
        <time>2021-07-24T05:55:12.000Z</time>
      </trkpt>
      <trkpt lat="45.21568" lon="5.73325">
        <ele>896.40002441406</ele>
        <time>2021-07-24T05:55:15.000Z</time>
      </trkpt>
      <trkpt lat="45.21573" lon="5.73331">
        <ele>897.20001220703</ele>
        <time>2021-07-24T05:55:20.000Z</time>
      </trkpt>
      <trkpt lat="45.21575" lon="5.73333">
        <ele>897.40002441406</ele>
        <time>2021-07-24T05:55:21.000Z</time>
      </trkpt>
      <trkpt lat="45.21577" lon="5.73335">
        <ele>897.79998779297</ele>
        <time>2021-07-24T05:55:22.000Z</time>
      </trkpt>
      <trkpt lat="45.21581" lon="5.7334">
        <ele>898.79998779297</ele>
        <time>2021-07-24T05:55:24.000Z</time>
      </trkpt>
      <trkpt lat="45.21582" lon="5.73342">
        <ele>898.79998779297</ele>
        <time>2021-07-24T05:55:25.000Z</time>
      </trkpt>
      <trkpt lat="45.21585" lon="5.7335">
        <ele>899.40002441406</ele>
        <time>2021-07-24T05:55:28.000Z</time>
      </trkpt>
      <trkpt lat="45.21586" lon="5.73353">
        <ele>900</ele>
        <time>2021-07-24T05:55:29.000Z</time>
      </trkpt>
      <trkpt lat="45.21587" lon="5.73355">
        <ele>900</ele>
        <time>2021-07-24T05:55:30.000Z</time>
      </trkpt>
      <trkpt lat="45.2159" lon="5.73358">
        <ele>901</ele>
        <time>2021-07-24T05:55:32.000Z</time>
      </trkpt>
      <trkpt lat="45.21591" lon="5.7336">
        <ele>901.20001220703</ele>
        <time>2021-07-24T05:55:33.000Z</time>
      </trkpt>
      <trkpt lat="45.21596" lon="5.73362">
        <ele>902.20001220703</ele>
        <time>2021-07-24T05:55:35.000Z</time>
      </trkpt>
      <trkpt lat="45.21602" lon="5.73366">
        <ele>903.20001220703</ele>
        <time>2021-07-24T05:55:38.000Z</time>
      </trkpt>
      <trkpt lat="45.21605" lon="5.73367">
        <ele>903.40002441406</ele>
        <time>2021-07-24T05:55:39.000Z</time>
      </trkpt>
      <trkpt lat="45.21611" lon="5.73373">
        <ele>904.40002441406</ele>
        <time>2021-07-24T05:55:43.000Z</time>
      </trkpt>
      <trkpt lat="45.21612" lon="5.73375">
        <ele>905.20001220703</ele>
        <time>2021-07-24T05:55:44.000Z</time>
      </trkpt>
      <trkpt lat="45.21616" lon="5.73378">
        <ele>905.59997558594</ele>
        <time>2021-07-24T05:55:46.000Z</time>
      </trkpt>
      <trkpt lat="45.2162" lon="5.73382">
        <ele>905.59997558594</ele>
        <time>2021-07-24T05:55:48.000Z</time>
      </trkpt>
      <trkpt lat="45.21622" lon="5.73383">
        <ele>906.20001220703</ele>
        <time>2021-07-24T05:55:49.000Z</time>
      </trkpt>
      <trkpt lat="45.21628" lon="5.73387">
        <ele>907</ele>
        <time>2021-07-24T05:55:51.000Z</time>
      </trkpt>
      <trkpt lat="45.2163" lon="5.73389">
        <ele>907</ele>
        <time>2021-07-24T05:55:52.000Z</time>
      </trkpt>
      <trkpt lat="45.21635" lon="5.73396">
        <ele>907.40002441406</ele>
        <time>2021-07-24T05:55:55.000Z</time>
      </trkpt>
      <trkpt lat="45.21643" lon="5.73405">
        <ele>907.40002441406</ele>
        <time>2021-07-24T05:55:58.000Z</time>
      </trkpt>
      <trkpt lat="45.21646" lon="5.73408">
        <ele>908.20001220703</ele>
        <time>2021-07-24T05:55:59.000Z</time>
      </trkpt>
      <trkpt lat="45.21652" lon="5.73415">
        <ele>908.79998779297</ele>
        <time>2021-07-24T05:56:02.000Z</time>
      </trkpt>
      <trkpt lat="45.21654" lon="5.73418">
        <ele>908.40002441406</ele>
        <time>2021-07-24T05:56:03.000Z</time>
      </trkpt>
      <trkpt lat="45.21659" lon="5.73422">
        <ele>909.20001220703</ele>
        <time>2021-07-24T05:56:05.000Z</time>
      </trkpt>
      <trkpt lat="45.2166" lon="5.73428">
        <ele>909.20001220703</ele>
        <time>2021-07-24T05:56:07.000Z</time>
      </trkpt>
      <trkpt lat="45.21661" lon="5.7343">
        <ele>909.59997558594</ele>
        <time>2021-07-24T05:56:08.000Z</time>
      </trkpt>
      <trkpt lat="45.21668" lon="5.73439">
        <ele>910.20001220703</ele>
        <time>2021-07-24T05:56:11.000Z</time>
      </trkpt>
      <trkpt lat="45.21671" lon="5.73446">
        <ele>910.59997558594</ele>
        <time>2021-07-24T05:56:13.000Z</time>
      </trkpt>
      <trkpt lat="45.21672" lon="5.73452">
        <ele>911</ele>
        <time>2021-07-24T05:56:15.000Z</time>
      </trkpt>
      <trkpt lat="45.21673" lon="5.73461">
        <ele>911.59997558594</ele>
        <time>2021-07-24T05:56:18.000Z</time>
      </trkpt>
      <trkpt lat="45.21673" lon="5.73465">
        <ele>912.20001220703</ele>
        <time>2021-07-24T05:56:19.000Z</time>
      </trkpt>
      <trkpt lat="45.21676" lon="5.73473">
        <ele>912.59997558594</ele>
        <time>2021-07-24T05:56:22.000Z</time>
      </trkpt>
      <trkpt lat="45.21676" lon="5.73476">
        <ele>912.59997558594</ele>
        <time>2021-07-24T05:56:24.000Z</time>
      </trkpt>
      <trkpt lat="45.21676" lon="5.73479">
        <ele>912.40002441406</ele>
        <time>2021-07-24T05:56:27.000Z</time>
      </trkpt>
      <trkpt lat="45.21676" lon="5.7348">
        <ele>912.40002441406</ele>
        <time>2021-07-24T05:56:28.000Z</time>
      </trkpt>
      <trkpt lat="45.21677" lon="5.73483">
        <ele>911.40002441406</ele>
        <time>2021-07-24T05:56:32.000Z</time>
      </trkpt>
      <trkpt lat="45.21678" lon="5.73487">
        <ele>910.79998779297</ele>
        <time>2021-07-24T05:56:36.000Z</time>
      </trkpt>
      <trkpt lat="45.21678" lon="5.73487">
        <ele>910.79998779297</ele>
        <time>2021-07-24T05:56:37.000Z</time>
      </trkpt>
      <trkpt lat="45.21678" lon="5.73488">
        <ele>910.59997558594</ele>
        <time>2021-07-24T05:56:38.000Z</time>
      </trkpt>
      <trkpt lat="45.2168" lon="5.73489">
        <ele>909.79998779297</ele>
        <time>2021-07-24T05:56:42.000Z</time>
      </trkpt>
      <trkpt lat="45.2168" lon="5.73491">
        <ele>909.40002441406</ele>
        <time>2021-07-24T05:56:44.000Z</time>
      </trkpt>
      <trkpt lat="45.21684" lon="5.73495">
        <ele>908.59997558594</ele>
        <time>2021-07-24T05:56:48.000Z</time>
      </trkpt>
      <trkpt lat="45.21688" lon="5.73496">
        <ele>908</ele>
        <time>2021-07-24T05:56:50.000Z</time>
      </trkpt>
      <trkpt lat="45.21689" lon="5.73496">
        <ele>907.59997558594</ele>
        <time>2021-07-24T05:56:51.000Z</time>
      </trkpt>
      <trkpt lat="45.21691" lon="5.73497">
        <ele>907.40002441406</ele>
        <time>2021-07-24T05:56:53.000Z</time>
      </trkpt>
      <trkpt lat="45.21693" lon="5.73499">
        <ele>907</ele>
        <time>2021-07-24T05:56:55.000Z</time>
      </trkpt>
      <trkpt lat="45.21693" lon="5.735">
        <ele>906.59997558594</ele>
        <time>2021-07-24T05:56:56.000Z</time>
      </trkpt>
      <trkpt lat="45.21695" lon="5.73502">
        <ele>905.59997558594</ele>
        <time>2021-07-24T05:56:58.000Z</time>
      </trkpt>
      <trkpt lat="45.21696" lon="5.73503">
        <ele>905.20001220703</ele>
        <time>2021-07-24T05:56:59.000Z</time>
      </trkpt>
      <trkpt lat="45.217" lon="5.73507">
        <ele>904.20001220703</ele>
        <time>2021-07-24T05:57:03.000Z</time>
      </trkpt>
      <trkpt lat="45.21702" lon="5.73509">
        <ele>904</ele>
        <time>2021-07-24T05:57:05.000Z</time>
      </trkpt>
      <trkpt lat="45.21705" lon="5.73513">
        <ele>903.20001220703</ele>
        <time>2021-07-24T05:57:07.000Z</time>
      </trkpt>
      <trkpt lat="45.21705" lon="5.73514">
        <ele>903</ele>
        <time>2021-07-24T05:57:09.000Z</time>
      </trkpt>
      <trkpt lat="45.21707" lon="5.73515">
        <ele>902.59997558594</ele>
        <time>2021-07-24T05:57:11.000Z</time>
      </trkpt>
      <trkpt lat="45.21713" lon="5.73518">
        <ele>902.59997558594</ele>
        <time>2021-07-24T05:57:14.000Z</time>
      </trkpt>
      <trkpt lat="45.21718" lon="5.73522">
        <ele>902.59997558594</ele>
        <time>2021-07-24T05:57:19.000Z</time>
      </trkpt>
      <trkpt lat="45.21719" lon="5.73523">
        <ele>903</ele>
        <time>2021-07-24T05:57:20.000Z</time>
      </trkpt>
      <trkpt lat="45.21722" lon="5.73525">
        <ele>903.20001220703</ele>
        <time>2021-07-24T05:57:22.000Z</time>
      </trkpt>
      <trkpt lat="45.21723" lon="5.73525">
        <ele>903.20001220703</ele>
        <time>2021-07-24T05:57:23.000Z</time>
      </trkpt>
      <trkpt lat="45.21727" lon="5.73523">
        <ele>903.40002441406</ele>
        <time>2021-07-24T05:57:26.000Z</time>
      </trkpt>
      <trkpt lat="45.2173" lon="5.73521">
        <ele>903.40002441406</ele>
        <time>2021-07-24T05:57:29.000Z</time>
      </trkpt>
      <trkpt lat="45.21733" lon="5.73522">
        <ele>902.79998779297</ele>
        <time>2021-07-24T05:57:33.000Z</time>
      </trkpt>
      <trkpt lat="45.21736" lon="5.73525">
        <ele>902.20001220703</ele>
        <time>2021-07-24T05:57:35.000Z</time>
      </trkpt>
      <trkpt lat="45.21738" lon="5.73528">
        <ele>901.79998779297</ele>
        <time>2021-07-24T05:57:36.000Z</time>
      </trkpt>
      <trkpt lat="45.21744" lon="5.73533">
        <ele>900.40002441406</ele>
        <time>2021-07-24T05:57:40.000Z</time>
      </trkpt>
      <trkpt lat="45.21745" lon="5.73534">
        <ele>900.20001220703</ele>
        <time>2021-07-24T05:57:41.000Z</time>
      </trkpt>
      <trkpt lat="45.21748" lon="5.73539">
        <ele>899.79998779297</ele>
        <time>2021-07-24T05:57:45.000Z</time>
      </trkpt>
      <trkpt lat="45.21749" lon="5.7354">
        <ele>899.79998779297</ele>
        <time>2021-07-24T05:57:47.000Z</time>
      </trkpt>
      <trkpt lat="45.21754" lon="5.73545">
        <ele>899.59997558594</ele>
        <time>2021-07-24T05:57:51.000Z</time>
      </trkpt>
      <trkpt lat="45.21761" lon="5.73549">
        <ele>899.59997558594</ele>
        <time>2021-07-24T05:57:56.000Z</time>
      </trkpt>
      <trkpt lat="45.2176" lon="5.73551">
        <ele>899.79998779297</ele>
        <time>2021-07-24T05:57:59.000Z</time>
      </trkpt>
      <trkpt lat="45.21762" lon="5.73553">
        <ele>899.59997558594</ele>
        <time>2021-07-24T05:58:07.000Z</time>
      </trkpt>
      <trkpt lat="45.21762" lon="5.73553">
        <ele>899.40002441406</ele>
        <time>2021-07-24T05:58:14.000Z</time>
      </trkpt>
      <trkpt lat="45.21762" lon="5.73553">
        <ele>899.20001220703</ele>
        <time>2021-07-24T05:58:26.000Z</time>
      </trkpt>
      <trkpt lat="45.21761" lon="5.73553">
        <ele>899</ele>
        <time>2021-07-24T05:58:37.000Z</time>
      </trkpt>
      <trkpt lat="45.21761" lon="5.73553">
        <ele>899</ele>
        <time>2021-07-24T05:58:39.000Z</time>
      </trkpt>
      <trkpt lat="45.2176" lon="5.73552">
        <ele>899</ele>
        <time>2021-07-24T05:58:40.000Z</time>
      </trkpt>
      <trkpt lat="45.21759" lon="5.73552">
        <ele>898.79998779297</ele>
        <time>2021-07-24T05:58:42.000Z</time>
      </trkpt>
      <trkpt lat="45.21758" lon="5.73552">
        <ele>898.79998779297</ele>
        <time>2021-07-24T05:58:44.000Z</time>
      </trkpt>
      <trkpt lat="45.21757" lon="5.73551">
        <ele>898.59997558594</ele>
        <time>2021-07-24T05:58:49.000Z</time>
      </trkpt>
      <trkpt lat="45.21757" lon="5.73551">
        <ele>898.59997558594</ele>
        <time>2021-07-24T05:58:50.000Z</time>
      </trkpt>
      <trkpt lat="45.21757" lon="5.73551">
        <ele>898.59997558594</ele>
        <time>2021-07-24T05:58:55.000Z</time>
      </trkpt>
      <trkpt lat="45.21757" lon="5.73551">
        <ele>898.79998779297</ele>
        <time>2021-07-24T05:58:56.000Z</time>
      </trkpt>
      <trkpt lat="45.21759" lon="5.7355">
        <ele>898.79998779297</ele>
        <time>2021-07-24T05:59:07.000Z</time>
      </trkpt>
      <trkpt lat="45.21762" lon="5.73546">
        <ele>898.79998779297</ele>
        <time>2021-07-24T05:59:32.000Z</time>
      </trkpt>
      <trkpt lat="45.21759" lon="5.73546">
        <ele>899.79998779297</ele>
        <time>2021-07-24T05:59:37.000Z</time>
      </trkpt>
      <trkpt lat="45.21757" lon="5.73544">
        <ele>900.59997558594</ele>
        <time>2021-07-24T05:59:40.000Z</time>
      </trkpt>
      <trkpt lat="45.21753" lon="5.73543">
        <ele>901</ele>
        <time>2021-07-24T05:59:43.000Z</time>
      </trkpt>
      <trkpt lat="45.21751" lon="5.73543">
        <ele>901.20001220703</ele>
        <time>2021-07-24T05:59:44.000Z</time>
      </trkpt>
      <trkpt lat="45.21747" lon="5.73543">
        <ele>901.59997558594</ele>
        <time>2021-07-24T05:59:47.000Z</time>
      </trkpt>
      <trkpt lat="45.21746" lon="5.73543">
        <ele>901.79998779297</ele>
        <time>2021-07-24T05:59:48.000Z</time>
      </trkpt>
      <trkpt lat="45.21742" lon="5.73543">
        <ele>902.40002441406</ele>
        <time>2021-07-24T05:59:51.000Z</time>
      </trkpt>
      <trkpt lat="45.21739" lon="5.73545">
        <ele>902.40002441406</ele>
        <time>2021-07-24T05:59:56.000Z</time>
      </trkpt>
      <trkpt lat="45.21735" lon="5.73548">
        <ele>902.40002441406</ele>
        <time>2021-07-24T05:59:58.000Z</time>
      </trkpt>
      <trkpt lat="45.21732" lon="5.7355">
        <ele>902.40002441406</ele>
        <time>2021-07-24T05:59:59.000Z</time>
      </trkpt>
      <trkpt lat="45.21729" lon="5.73551">
        <ele>902.59997558594</ele>
        <time>2021-07-24T06:00:00.000Z</time>
      </trkpt>
      <trkpt lat="45.21725" lon="5.73548">
        <ele>902.59997558594</ele>
        <time>2021-07-24T06:00:03.000Z</time>
      </trkpt>
      <trkpt lat="45.21723" lon="5.73545">
        <ele>902.59997558594</ele>
        <time>2021-07-24T06:00:04.000Z</time>
      </trkpt>
      <trkpt lat="45.21722" lon="5.73543">
        <ele>902.40002441406</ele>
        <time>2021-07-24T06:00:05.000Z</time>
      </trkpt>
      <trkpt lat="45.2172" lon="5.73541">
        <ele>902.40002441406</ele>
        <time>2021-07-24T06:00:06.000Z</time>
      </trkpt>
      <trkpt lat="45.21716" lon="5.73539">
        <ele>902</ele>
        <time>2021-07-24T06:00:08.000Z</time>
      </trkpt>
      <trkpt lat="45.21713" lon="5.73538">
        <ele>901.59997558594</ele>
        <time>2021-07-24T06:00:10.000Z</time>
      </trkpt>
      <trkpt lat="45.21709" lon="5.73537">
        <ele>900.59997558594</ele>
        <time>2021-07-24T06:00:13.000Z</time>
      </trkpt>
      <trkpt lat="45.21705" lon="5.73535">
        <ele>899.79998779297</ele>
        <time>2021-07-24T06:00:15.000Z</time>
      </trkpt>
      <trkpt lat="45.217" lon="5.73537">
        <ele>899.20001220703</ele>
        <time>2021-07-24T06:00:17.000Z</time>
      </trkpt>
      <trkpt lat="45.21699" lon="5.73537">
        <ele>898.79998779297</ele>
        <time>2021-07-24T06:00:18.000Z</time>
      </trkpt>
      <trkpt lat="45.21697" lon="5.73536">
        <ele>898</ele>
        <time>2021-07-24T06:00:20.000Z</time>
      </trkpt>
      <trkpt lat="45.21697" lon="5.73537">
        <ele>898</ele>
        <time>2021-07-24T06:00:22.000Z</time>
      </trkpt>
      <trkpt lat="45.21693" lon="5.73537">
        <ele>897.20001220703</ele>
        <time>2021-07-24T06:00:24.000Z</time>
      </trkpt>
      <trkpt lat="45.21691" lon="5.73536">
        <ele>897</ele>
        <time>2021-07-24T06:00:26.000Z</time>
      </trkpt>
      <trkpt lat="45.21688" lon="5.73536">
        <ele>896.20001220703</ele>
        <time>2021-07-24T06:00:28.000Z</time>
      </trkpt>
      <trkpt lat="45.21684" lon="5.73535">
        <ele>896</ele>
        <time>2021-07-24T06:00:30.000Z</time>
      </trkpt>
      <trkpt lat="45.21683" lon="5.73535">
        <ele>895.79998779297</ele>
        <time>2021-07-24T06:00:31.000Z</time>
      </trkpt>
      <trkpt lat="45.2168" lon="5.73535">
        <ele>895</ele>
        <time>2021-07-24T06:00:33.000Z</time>
      </trkpt>
      <trkpt lat="45.21679" lon="5.73536">
        <ele>894.59997558594</ele>
        <time>2021-07-24T06:00:34.000Z</time>
      </trkpt>
      <trkpt lat="45.21676" lon="5.73536">
        <ele>894.40002441406</ele>
        <time>2021-07-24T06:00:35.000Z</time>
      </trkpt>
      <trkpt lat="45.2167" lon="5.73537">
        <ele>893.40002441406</ele>
        <time>2021-07-24T06:00:39.000Z</time>
      </trkpt>
      <trkpt lat="45.21667" lon="5.73537">
        <ele>892.59997558594</ele>
        <time>2021-07-24T06:00:41.000Z</time>
      </trkpt>
      <trkpt lat="45.21665" lon="5.73538">
        <ele>892.40002441406</ele>
        <time>2021-07-24T06:00:42.000Z</time>
      </trkpt>
      <trkpt lat="45.21665" lon="5.73538">
        <ele>891.79998779297</ele>
        <time>2021-07-24T06:00:43.000Z</time>
      </trkpt>
      <trkpt lat="45.21665" lon="5.73539">
        <ele>891.79998779297</ele>
        <time>2021-07-24T06:00:44.000Z</time>
      </trkpt>
      <trkpt lat="45.21666" lon="5.7354">
        <ele>890.79998779297</ele>
        <time>2021-07-24T06:00:46.000Z</time>
      </trkpt>
      <trkpt lat="45.21668" lon="5.73539">
        <ele>890</ele>
        <time>2021-07-24T06:00:48.000Z</time>
      </trkpt>
      <trkpt lat="45.21669" lon="5.73538">
        <ele>889</ele>
        <time>2021-07-24T06:00:49.000Z</time>
      </trkpt>
      <trkpt lat="45.21671" lon="5.73537">
        <ele>888.79998779297</ele>
        <time>2021-07-24T06:00:51.000Z</time>
      </trkpt>
      <trkpt lat="45.21675" lon="5.73542">
        <ele>887</ele>
        <time>2021-07-24T06:00:54.000Z</time>
      </trkpt>
      <trkpt lat="45.2168" lon="5.73546">
        <ele>886.20001220703</ele>
        <time>2021-07-24T06:00:58.000Z</time>
      </trkpt>
      <trkpt lat="45.21681" lon="5.73548">
        <ele>885.79998779297</ele>
        <time>2021-07-24T06:01:00.000Z</time>
      </trkpt>
      <trkpt lat="45.21682" lon="5.7355">
        <ele>885.40002441406</ele>
        <time>2021-07-24T06:01:01.000Z</time>
      </trkpt>
      <trkpt lat="45.21683" lon="5.73553">
        <ele>884.79998779297</ele>
        <time>2021-07-24T06:01:03.000Z</time>
      </trkpt>
      <trkpt lat="45.21684" lon="5.73557">
        <ele>883.40002441406</ele>
        <time>2021-07-24T06:01:06.000Z</time>
      </trkpt>
      <trkpt lat="45.21686" lon="5.73559">
        <ele>882.20001220703</ele>
        <time>2021-07-24T06:01:09.000Z</time>
      </trkpt>
      <trkpt lat="45.21687" lon="5.73562">
        <ele>881.79998779297</ele>
        <time>2021-07-24T06:01:11.000Z</time>
      </trkpt>
      <trkpt lat="45.21687" lon="5.73561">
        <ele>881.59997558594</ele>
        <time>2021-07-24T06:01:12.000Z</time>
      </trkpt>
      <trkpt lat="45.21687" lon="5.73563">
        <ele>880.40002441406</ele>
        <time>2021-07-24T06:01:14.000Z</time>
      </trkpt>
      <trkpt lat="45.21686" lon="5.73567">
        <ele>880.20001220703</ele>
        <time>2021-07-24T06:01:16.000Z</time>
      </trkpt>
      <trkpt lat="45.21684" lon="5.73568">
        <ele>879.40002441406</ele>
        <time>2021-07-24T06:01:19.000Z</time>
      </trkpt>
      <trkpt lat="45.21682" lon="5.73568">
        <ele>879</ele>
        <time>2021-07-24T06:01:20.000Z</time>
      </trkpt>
      <trkpt lat="45.21679" lon="5.73569">
        <ele>878</ele>
        <time>2021-07-24T06:01:22.000Z</time>
      </trkpt>
      <trkpt lat="45.21676" lon="5.73569">
        <ele>877.20001220703</ele>
        <time>2021-07-24T06:01:24.000Z</time>
      </trkpt>
      <trkpt lat="45.21673" lon="5.73569">
        <ele>877.20001220703</ele>
        <time>2021-07-24T06:01:25.000Z</time>
      </trkpt>
      <trkpt lat="45.21665" lon="5.73572">
        <ele>876.59997558594</ele>
        <time>2021-07-24T06:01:29.000Z</time>
      </trkpt>
      <trkpt lat="45.21661" lon="5.73573">
        <ele>875.59997558594</ele>
        <time>2021-07-24T06:01:32.000Z</time>
      </trkpt>
      <trkpt lat="45.21659" lon="5.73573">
        <ele>875</ele>
        <time>2021-07-24T06:01:33.000Z</time>
      </trkpt>
      <trkpt lat="45.21656" lon="5.73574">
        <ele>873.59997558594</ele>
        <time>2021-07-24T06:01:36.000Z</time>
      </trkpt>
      <trkpt lat="45.21654" lon="5.73575">
        <ele>873.59997558594</ele>
        <time>2021-07-24T06:01:38.000Z</time>
      </trkpt>
      <trkpt lat="45.21652" lon="5.73575">
        <ele>872.59997558594</ele>
        <time>2021-07-24T06:01:40.000Z</time>
      </trkpt>
      <trkpt lat="45.21647" lon="5.73576">
        <ele>872.20001220703</ele>
        <time>2021-07-24T06:01:43.000Z</time>
      </trkpt>
      <trkpt lat="45.21645" lon="5.73576">
        <ele>872</ele>
        <time>2021-07-24T06:01:44.000Z</time>
      </trkpt>
      <trkpt lat="45.21642" lon="5.73575">
        <ele>871.40002441406</ele>
        <time>2021-07-24T06:01:46.000Z</time>
      </trkpt>
      <trkpt lat="45.21638" lon="5.73571">
        <ele>870.40002441406</ele>
        <time>2021-07-24T06:01:49.000Z</time>
      </trkpt>
      <trkpt lat="45.21635" lon="5.7357">
        <ele>870.40002441406</ele>
        <time>2021-07-24T06:01:51.000Z</time>
      </trkpt>
      <trkpt lat="45.21634" lon="5.73569">
        <ele>870.20001220703</ele>
        <time>2021-07-24T06:01:52.000Z</time>
      </trkpt>
      <trkpt lat="45.21631" lon="5.73563">
        <ele>869.20001220703</ele>
        <time>2021-07-24T06:01:54.000Z</time>
      </trkpt>
      <trkpt lat="45.21629" lon="5.73562">
        <ele>868</ele>
        <time>2021-07-24T06:01:55.000Z</time>
      </trkpt>
      <trkpt lat="45.21624" lon="5.73556">
        <ele>866.59997558594</ele>
        <time>2021-07-24T06:01:59.000Z</time>
      </trkpt>
      <trkpt lat="45.21622" lon="5.73551">
        <ele>866.20001220703</ele>
        <time>2021-07-24T06:02:01.000Z</time>
      </trkpt>
      <trkpt lat="45.21619" lon="5.73546">
        <ele>865.40002441406</ele>
        <time>2021-07-24T06:02:03.000Z</time>
      </trkpt>
      <trkpt lat="45.21615" lon="5.73538">
        <ele>864</ele>
        <time>2021-07-24T06:02:07.000Z</time>
      </trkpt>
      <trkpt lat="45.21614" lon="5.73537">
        <ele>863.79998779297</ele>
        <time>2021-07-24T06:02:08.000Z</time>
      </trkpt>
      <trkpt lat="45.21614" lon="5.73536">
        <ele>863</ele>
        <time>2021-07-24T06:02:10.000Z</time>
      </trkpt>
      <trkpt lat="45.21614" lon="5.73536">
        <ele>863</ele>
        <time>2021-07-24T06:02:11.000Z</time>
      </trkpt>
      <trkpt lat="45.21615" lon="5.73537">
        <ele>862.79998779297</ele>
        <time>2021-07-24T06:02:12.000Z</time>
      </trkpt>
      <trkpt lat="45.21616" lon="5.73543">
        <ele>861.79998779297</ele>
        <time>2021-07-24T06:02:15.000Z</time>
      </trkpt>
      <trkpt lat="45.21615" lon="5.73547">
        <ele>861.40002441406</ele>
        <time>2021-07-24T06:02:17.000Z</time>
      </trkpt>
      <trkpt lat="45.21617" lon="5.73554">
        <ele>860.20001220703</ele>
        <time>2021-07-24T06:02:20.000Z</time>
      </trkpt>
      <trkpt lat="45.21617" lon="5.73556">
        <ele>858.79998779297</ele>
        <time>2021-07-24T06:02:21.000Z</time>
      </trkpt>
      <trkpt lat="45.21617" lon="5.73558">
        <ele>858.79998779297</ele>
        <time>2021-07-24T06:02:22.000Z</time>
      </trkpt>
      <trkpt lat="45.21617" lon="5.7356">
        <ele>858.59997558594</ele>
        <time>2021-07-24T06:02:23.000Z</time>
      </trkpt>
      <trkpt lat="45.21619" lon="5.73568">
        <ele>857.59997558594</ele>
        <time>2021-07-24T06:02:26.000Z</time>
      </trkpt>
      <trkpt lat="45.2162" lon="5.73571">
        <ele>857.59997558594</ele>
        <time>2021-07-24T06:02:27.000Z</time>
      </trkpt>
      <trkpt lat="45.21622" lon="5.73573">
        <ele>856.59997558594</ele>
        <time>2021-07-24T06:02:29.000Z</time>
      </trkpt>
      <trkpt lat="45.21623" lon="5.73575">
        <ele>856.59997558594</ele>
        <time>2021-07-24T06:02:30.000Z</time>
      </trkpt>
      <trkpt lat="45.21622" lon="5.73577">
        <ele>855.59997558594</ele>
        <time>2021-07-24T06:02:32.000Z</time>
      </trkpt>
      <trkpt lat="45.2162" lon="5.73577">
        <ele>855.59997558594</ele>
        <time>2021-07-24T06:02:33.000Z</time>
      </trkpt>
      <trkpt lat="45.21615" lon="5.73575">
        <ele>854.59997558594</ele>
        <time>2021-07-24T06:02:36.000Z</time>
      </trkpt>
      <trkpt lat="45.21611" lon="5.73574">
        <ele>854.20001220703</ele>
        <time>2021-07-24T06:02:38.000Z</time>
      </trkpt>
      <trkpt lat="45.21608" lon="5.7357">
        <ele>852.20001220703</ele>
        <time>2021-07-24T06:02:40.000Z</time>
      </trkpt>
      <trkpt lat="45.21601" lon="5.73565">
        <ele>851</ele>
        <time>2021-07-24T06:02:44.000Z</time>
      </trkpt>
      <trkpt lat="45.21595" lon="5.7356">
        <ele>849</ele>
        <time>2021-07-24T06:02:47.000Z</time>
      </trkpt>
      <trkpt lat="45.21592" lon="5.73556">
        <ele>848.79998779297</ele>
        <time>2021-07-24T06:02:49.000Z</time>
      </trkpt>
      <trkpt lat="45.21586" lon="5.73552">
        <ele>847.79998779297</ele>
        <time>2021-07-24T06:02:52.000Z</time>
      </trkpt>
      <trkpt lat="45.21583" lon="5.73549">
        <ele>847.20001220703</ele>
        <time>2021-07-24T06:02:54.000Z</time>
      </trkpt>
      <trkpt lat="45.21582" lon="5.73548">
        <ele>846.20001220703</ele>
        <time>2021-07-24T06:02:55.000Z</time>
      </trkpt>
      <trkpt lat="45.21577" lon="5.73539">
        <ele>845.40002441406</ele>
        <time>2021-07-24T06:02:59.000Z</time>
      </trkpt>
      <trkpt lat="45.21576" lon="5.73537">
        <ele>844.59997558594</ele>
        <time>2021-07-24T06:03:00.000Z</time>
      </trkpt>
      <trkpt lat="45.21575" lon="5.73535">
        <ele>844.59997558594</ele>
        <time>2021-07-24T06:03:01.000Z</time>
      </trkpt>
      <trkpt lat="45.21573" lon="5.73532">
        <ele>844</ele>
        <time>2021-07-24T06:03:02.000Z</time>
      </trkpt>
      <trkpt lat="45.21571" lon="5.73527">
        <ele>843.40002441406</ele>
        <time>2021-07-24T06:03:04.000Z</time>
      </trkpt>
      <trkpt lat="45.21568" lon="5.7352">
        <ele>842</ele>
        <time>2021-07-24T06:03:07.000Z</time>
      </trkpt>
      <trkpt lat="45.21565" lon="5.73512">
        <ele>841</ele>
        <time>2021-07-24T06:03:10.000Z</time>
      </trkpt>
      <trkpt lat="45.21564" lon="5.73509">
        <ele>840.79998779297</ele>
        <time>2021-07-24T06:03:11.000Z</time>
      </trkpt>
      <trkpt lat="45.21562" lon="5.73506">
        <ele>840</ele>
        <time>2021-07-24T06:03:12.000Z</time>
      </trkpt>
      <trkpt lat="45.21559" lon="5.73499">
        <ele>839.40002441406</ele>
        <time>2021-07-24T06:03:15.000Z</time>
      </trkpt>
      <trkpt lat="45.21559" lon="5.73497">
        <ele>839</ele>
        <time>2021-07-24T06:03:16.000Z</time>
      </trkpt>
      <trkpt lat="45.21558" lon="5.73495">
        <ele>838.59997558594</ele>
        <time>2021-07-24T06:03:17.000Z</time>
      </trkpt>
      <trkpt lat="45.2155" lon="5.73485">
        <ele>837.59997558594</ele>
        <time>2021-07-24T06:03:22.000Z</time>
      </trkpt>
      <trkpt lat="45.21549" lon="5.73484">
        <ele>837.40002441406</ele>
        <time>2021-07-24T06:03:23.000Z</time>
      </trkpt>
      <trkpt lat="45.21546" lon="5.73481">
        <ele>836.20001220703</ele>
        <time>2021-07-24T06:03:25.000Z</time>
      </trkpt>
      <trkpt lat="45.21544" lon="5.73479">
        <ele>835</ele>
        <time>2021-07-24T06:03:27.000Z</time>
      </trkpt>
      <trkpt lat="45.21542" lon="5.73479">
        <ele>834.20001220703</ele>
        <time>2021-07-24T06:03:29.000Z</time>
      </trkpt>
      <trkpt lat="45.2154" lon="5.73478">
        <ele>834.20001220703</ele>
        <time>2021-07-24T06:03:30.000Z</time>
      </trkpt>
      <trkpt lat="45.2154" lon="5.73478">
        <ele>834</ele>
        <time>2021-07-24T06:03:31.000Z</time>
      </trkpt>
      <trkpt lat="45.21538" lon="5.73477">
        <ele>833</ele>
        <time>2021-07-24T06:03:32.000Z</time>
      </trkpt>
      <trkpt lat="45.21537" lon="5.73476">
        <ele>832.79998779297</ele>
        <time>2021-07-24T06:03:33.000Z</time>
      </trkpt>
      <trkpt lat="45.21535" lon="5.73475">
        <ele>832.59997558594</ele>
        <time>2021-07-24T06:03:35.000Z</time>
      </trkpt>
      <trkpt lat="45.21533" lon="5.73475">
        <ele>831.40002441406</ele>
        <time>2021-07-24T06:03:38.000Z</time>
      </trkpt>
      <trkpt lat="45.21533" lon="5.73479">
        <ele>831</ele>
        <time>2021-07-24T06:03:40.000Z</time>
      </trkpt>
      <trkpt lat="45.21537" lon="5.73482">
        <ele>830.40002441406</ele>
        <time>2021-07-24T06:03:43.000Z</time>
      </trkpt>
      <trkpt lat="45.21539" lon="5.73484">
        <ele>830.40002441406</ele>
        <time>2021-07-24T06:03:45.000Z</time>
      </trkpt>
      <trkpt lat="45.21541" lon="5.73486">
        <ele>829.40002441406</ele>
        <time>2021-07-24T06:03:46.000Z</time>
      </trkpt>
      <trkpt lat="45.21547" lon="5.73491">
        <ele>827.40002441406</ele>
        <time>2021-07-24T06:03:50.000Z</time>
      </trkpt>
      <trkpt lat="45.21548" lon="5.73493">
        <ele>827.20001220703</ele>
        <time>2021-07-24T06:03:52.000Z</time>
      </trkpt>
      <trkpt lat="45.2155" lon="5.73502">
        <ele>826.20001220703</ele>
        <time>2021-07-24T06:03:57.000Z</time>
      </trkpt>
      <trkpt lat="45.2155" lon="5.73504">
        <ele>825.79998779297</ele>
        <time>2021-07-24T06:03:58.000Z</time>
      </trkpt>
      <trkpt lat="45.21551" lon="5.73508">
        <ele>825</ele>
        <time>2021-07-24T06:04:00.000Z</time>
      </trkpt>
      <trkpt lat="45.21551" lon="5.73519">
        <ele>824.20001220703</ele>
        <time>2021-07-24T06:04:04.000Z</time>
      </trkpt>
      <trkpt lat="45.21552" lon="5.73522">
        <ele>823.40002441406</ele>
        <time>2021-07-24T06:04:05.000Z</time>
      </trkpt>
      <trkpt lat="45.21553" lon="5.73531">
        <ele>821.79998779297</ele>
        <time>2021-07-24T06:04:09.000Z</time>
      </trkpt>
      <trkpt lat="45.21553" lon="5.73535">
        <ele>821.20001220703</ele>
        <time>2021-07-24T06:04:11.000Z</time>
      </trkpt>
      <trkpt lat="45.21554" lon="5.73537">
        <ele>820.40002441406</ele>
        <time>2021-07-24T06:04:12.000Z</time>
      </trkpt>
      <trkpt lat="45.21555" lon="5.73544">
        <ele>820.20001220703</ele>
        <time>2021-07-24T06:04:14.000Z</time>
      </trkpt>
      <trkpt lat="45.21556" lon="5.73549">
        <ele>820</ele>
        <time>2021-07-24T06:04:16.000Z</time>
      </trkpt>
      <trkpt lat="45.21556" lon="5.73551">
        <ele>819.59997558594</ele>
        <time>2021-07-24T06:04:17.000Z</time>
      </trkpt>
      <trkpt lat="45.21557" lon="5.73554">
        <ele>818.59997558594</ele>
        <time>2021-07-24T06:04:18.000Z</time>
      </trkpt>
      <trkpt lat="45.2156" lon="5.73564">
        <ele>817.20001220703</ele>
        <time>2021-07-24T06:04:22.000Z</time>
      </trkpt>
      <trkpt lat="45.21563" lon="5.7357">
        <ele>816.40002441406</ele>
        <time>2021-07-24T06:04:25.000Z</time>
      </trkpt>
      <trkpt lat="45.21563" lon="5.73573">
        <ele>816.20001220703</ele>
        <time>2021-07-24T06:04:26.000Z</time>
      </trkpt>
      <trkpt lat="45.21564" lon="5.73575">
        <ele>816</ele>
        <time>2021-07-24T06:04:27.000Z</time>
      </trkpt>
      <trkpt lat="45.21565" lon="5.7358">
        <ele>815.59997558594</ele>
        <time>2021-07-24T06:04:29.000Z</time>
      </trkpt>
      <trkpt lat="45.21563" lon="5.73581">
        <ele>815.40002441406</ele>
        <time>2021-07-24T06:04:30.000Z</time>
      </trkpt>
      <trkpt lat="45.21559" lon="5.7358">
        <ele>813.79998779297</ele>
        <time>2021-07-24T06:04:32.000Z</time>
      </trkpt>
      <trkpt lat="45.21555" lon="5.73576">
        <ele>813.20001220703</ele>
        <time>2021-07-24T06:04:34.000Z</time>
      </trkpt>
      <trkpt lat="45.21551" lon="5.73572">
        <ele>812.20001220703</ele>
        <time>2021-07-24T06:04:37.000Z</time>
      </trkpt>
      <trkpt lat="45.21549" lon="5.73569">
        <ele>811.79998779297</ele>
        <time>2021-07-24T06:04:39.000Z</time>
      </trkpt>
      <trkpt lat="45.21546" lon="5.73567">
        <ele>810.59997558594</ele>
        <time>2021-07-24T06:04:41.000Z</time>
      </trkpt>
      <trkpt lat="45.21545" lon="5.73567">
        <ele>810.40002441406</ele>
        <time>2021-07-24T06:04:42.000Z</time>
      </trkpt>
      <trkpt lat="45.21542" lon="5.73565">
        <ele>810.20001220703</ele>
        <time>2021-07-24T06:04:44.000Z</time>
      </trkpt>
      <trkpt lat="45.21539" lon="5.73563">
        <ele>808.59997558594</ele>
        <time>2021-07-24T06:04:46.000Z</time>
      </trkpt>
      <trkpt lat="45.21538" lon="5.73561">
        <ele>808.20001220703</ele>
        <time>2021-07-24T06:04:47.000Z</time>
      </trkpt>
      <trkpt lat="45.21535" lon="5.73557">
        <ele>807.79998779297</ele>
        <time>2021-07-24T06:04:50.000Z</time>
      </trkpt>
      <trkpt lat="45.21534" lon="5.73555">
        <ele>807.59997558594</ele>
        <time>2021-07-24T06:04:51.000Z</time>
      </trkpt>
      <trkpt lat="45.21532" lon="5.73551">
        <ele>806.20001220703</ele>
        <time>2021-07-24T06:04:54.000Z</time>
      </trkpt>
      <trkpt lat="45.21531" lon="5.7355">
        <ele>806.20001220703</ele>
        <time>2021-07-24T06:04:56.000Z</time>
      </trkpt>
      <trkpt lat="45.21531" lon="5.73549">
        <ele>806</ele>
        <time>2021-07-24T06:04:57.000Z</time>
      </trkpt>
      <trkpt lat="45.21531" lon="5.73552">
        <ele>804.59997558594</ele>
        <time>2021-07-24T06:04:59.000Z</time>
      </trkpt>
      <trkpt lat="45.21532" lon="5.73556">
        <ele>804</ele>
        <time>2021-07-24T06:05:01.000Z</time>
      </trkpt>
      <trkpt lat="45.21532" lon="5.73558">
        <ele>803.79998779297</ele>
        <time>2021-07-24T06:05:02.000Z</time>
      </trkpt>
      <trkpt lat="45.21532" lon="5.7356">
        <ele>803.40002441406</ele>
        <time>2021-07-24T06:05:03.000Z</time>
      </trkpt>
      <trkpt lat="45.21532" lon="5.73566">
        <ele>802.40002441406</ele>
        <time>2021-07-24T06:05:06.000Z</time>
      </trkpt>
      <trkpt lat="45.21533" lon="5.73568">
        <ele>802</ele>
        <time>2021-07-24T06:05:07.000Z</time>
      </trkpt>
      <trkpt lat="45.21533" lon="5.73573">
        <ele>801.20001220703</ele>
        <time>2021-07-24T06:05:10.000Z</time>
      </trkpt>
      <trkpt lat="45.21535" lon="5.73577">
        <ele>799.79998779297</ele>
        <time>2021-07-24T06:05:13.000Z</time>
      </trkpt>
      <trkpt lat="45.21535" lon="5.7358">
        <ele>799.40002441406</ele>
        <time>2021-07-24T06:05:14.000Z</time>
      </trkpt>
      <trkpt lat="45.21537" lon="5.73588">
        <ele>798.59997558594</ele>
        <time>2021-07-24T06:05:18.000Z</time>
      </trkpt>
      <trkpt lat="45.21538" lon="5.73596">
        <ele>797</ele>
        <time>2021-07-24T06:05:21.000Z</time>
      </trkpt>
      <trkpt lat="45.21538" lon="5.73598">
        <ele>796.79998779297</ele>
        <time>2021-07-24T06:05:22.000Z</time>
      </trkpt>
      <trkpt lat="45.21538" lon="5.73602">
        <ele>796.40002441406</ele>
        <time>2021-07-24T06:05:24.000Z</time>
      </trkpt>
      <trkpt lat="45.21537" lon="5.73602">
        <ele>796.40002441406</ele>
        <time>2021-07-24T06:05:25.000Z</time>
      </trkpt>
      <trkpt lat="45.21535" lon="5.73601">
        <ele>795.59997558594</ele>
        <time>2021-07-24T06:05:26.000Z</time>
      </trkpt>
      <trkpt lat="45.21532" lon="5.73598">
        <ele>794.40002441406</ele>
        <time>2021-07-24T06:05:28.000Z</time>
      </trkpt>
      <trkpt lat="45.21528" lon="5.73595">
        <ele>793.40002441406</ele>
        <time>2021-07-24T06:05:32.000Z</time>
      </trkpt>
      <trkpt lat="45.21528" lon="5.73595">
        <ele>793.20001220703</ele>
        <time>2021-07-24T06:05:33.000Z</time>
      </trkpt>
      <trkpt lat="45.21528" lon="5.73596">
        <ele>793</ele>
        <time>2021-07-24T06:05:34.000Z</time>
      </trkpt>
      <trkpt lat="45.21528" lon="5.73598">
        <ele>792.59997558594</ele>
        <time>2021-07-24T06:05:35.000Z</time>
      </trkpt>
      <trkpt lat="45.21529" lon="5.736">
        <ele>792.20001220703</ele>
        <time>2021-07-24T06:05:36.000Z</time>
      </trkpt>
      <trkpt lat="45.21529" lon="5.73602">
        <ele>791.59997558594</ele>
        <time>2021-07-24T06:05:37.000Z</time>
      </trkpt>
      <trkpt lat="45.21529" lon="5.73608">
        <ele>791</ele>
        <time>2021-07-24T06:05:40.000Z</time>
      </trkpt>
      <trkpt lat="45.21529" lon="5.73609">
        <ele>790.59997558594</ele>
        <time>2021-07-24T06:05:41.000Z</time>
      </trkpt>
      <trkpt lat="45.21529" lon="5.73611">
        <ele>790.59997558594</ele>
        <time>2021-07-24T06:05:42.000Z</time>
      </trkpt>
      <trkpt lat="45.2153" lon="5.73613">
        <ele>790</ele>
        <time>2021-07-24T06:05:44.000Z</time>
      </trkpt>
      <trkpt lat="45.21529" lon="5.73616">
        <ele>789.40002441406</ele>
        <time>2021-07-24T06:05:46.000Z</time>
      </trkpt>
      <trkpt lat="45.2153" lon="5.73617">
        <ele>789.20001220703</ele>
        <time>2021-07-24T06:05:47.000Z</time>
      </trkpt>
      <trkpt lat="45.2153" lon="5.73619">
        <ele>789</ele>
        <time>2021-07-24T06:05:49.000Z</time>
      </trkpt>
      <trkpt lat="45.21527" lon="5.73612">
        <ele>788.20001220703</ele>
        <time>2021-07-24T06:05:52.000Z</time>
      </trkpt>
      <trkpt lat="45.21525" lon="5.7361">
        <ele>788.20001220703</ele>
        <time>2021-07-24T06:05:53.000Z</time>
      </trkpt>
      <trkpt lat="45.2152" lon="5.73605">
        <ele>787</ele>
        <time>2021-07-24T06:05:56.000Z</time>
      </trkpt>
      <trkpt lat="45.21518" lon="5.73603">
        <ele>786.59997558594</ele>
        <time>2021-07-24T06:05:58.000Z</time>
      </trkpt>
      <trkpt lat="45.21516" lon="5.73601">
        <ele>785.79998779297</ele>
        <time>2021-07-24T06:05:59.000Z</time>
      </trkpt>
      <trkpt lat="45.21513" lon="5.73597">
        <ele>784.79998779297</ele>
        <time>2021-07-24T06:06:02.000Z</time>
      </trkpt>
      <trkpt lat="45.2151" lon="5.73593">
        <ele>783.79998779297</ele>
        <time>2021-07-24T06:06:04.000Z</time>
      </trkpt>
      <trkpt lat="45.21509" lon="5.73592">
        <ele>783.59997558594</ele>
        <time>2021-07-24T06:06:05.000Z</time>
      </trkpt>
      <trkpt lat="45.21508" lon="5.73587">
        <ele>783.20001220703</ele>
        <time>2021-07-24T06:06:07.000Z</time>
      </trkpt>
      <trkpt lat="45.21507" lon="5.73581">
        <ele>782.79998779297</ele>
        <time>2021-07-24T06:06:10.000Z</time>
      </trkpt>
      <trkpt lat="45.21507" lon="5.73581">
        <ele>781.79998779297</ele>
        <time>2021-07-24T06:06:11.000Z</time>
      </trkpt>
      <trkpt lat="45.21507" lon="5.73582">
        <ele>781.40002441406</ele>
        <time>2021-07-24T06:06:15.000Z</time>
      </trkpt>
      <trkpt lat="45.21506" lon="5.73587">
        <ele>780.40002441406</ele>
        <time>2021-07-24T06:06:17.000Z</time>
      </trkpt>
      <trkpt lat="45.21505" lon="5.73594">
        <ele>778.59997558594</ele>
        <time>2021-07-24T06:06:20.000Z</time>
      </trkpt>
      <trkpt lat="45.21505" lon="5.73595">
        <ele>778.40002441406</ele>
        <time>2021-07-24T06:06:21.000Z</time>
      </trkpt>
      <trkpt lat="45.21506" lon="5.73599">
        <ele>777.79998779297</ele>
        <time>2021-07-24T06:06:23.000Z</time>
      </trkpt>
      <trkpt lat="45.21505" lon="5.73599">
        <ele>777.79998779297</ele>
        <time>2021-07-24T06:06:24.000Z</time>
      </trkpt>
      <trkpt lat="45.21502" lon="5.73594">
        <ele>777.20001220703</ele>
        <time>2021-07-24T06:06:27.000Z</time>
      </trkpt>
      <trkpt lat="45.21501" lon="5.73593">
        <ele>777.20001220703</ele>
        <time>2021-07-24T06:06:28.000Z</time>
      </trkpt>
      <trkpt lat="45.21501" lon="5.73591">
        <ele>776</ele>
        <time>2021-07-24T06:06:29.000Z</time>
      </trkpt>
      <trkpt lat="45.21501" lon="5.73589">
        <ele>775.20001220703</ele>
        <time>2021-07-24T06:06:30.000Z</time>
      </trkpt>
      <trkpt lat="45.21501" lon="5.73587">
        <ele>775</ele>
        <time>2021-07-24T06:06:32.000Z</time>
      </trkpt>
      <trkpt lat="45.21501" lon="5.73586">
        <ele>774.79998779297</ele>
        <time>2021-07-24T06:06:33.000Z</time>
      </trkpt>
      <trkpt lat="45.21501" lon="5.73582">
        <ele>774.20001220703</ele>
        <time>2021-07-24T06:06:35.000Z</time>
      </trkpt>
      <trkpt lat="45.215" lon="5.73579">
        <ele>773.79998779297</ele>
        <time>2021-07-24T06:06:36.000Z</time>
      </trkpt>
      <trkpt lat="45.21499" lon="5.73573">
        <ele>772.79998779297</ele>
        <time>2021-07-24T06:06:39.000Z</time>
      </trkpt>
      <trkpt lat="45.21497" lon="5.73569">
        <ele>772.79998779297</ele>
        <time>2021-07-24T06:06:41.000Z</time>
      </trkpt>
      <trkpt lat="45.21493" lon="5.73566">
        <ele>771.79998779297</ele>
        <time>2021-07-24T06:06:44.000Z</time>
      </trkpt>
      <trkpt lat="45.21491" lon="5.73565">
        <ele>771.79998779297</ele>
        <time>2021-07-24T06:06:45.000Z</time>
      </trkpt>
      <trkpt lat="45.2149" lon="5.73564">
        <ele>770.79998779297</ele>
        <time>2021-07-24T06:06:46.000Z</time>
      </trkpt>
      <trkpt lat="45.21486" lon="5.7356">
        <ele>770</ele>
        <time>2021-07-24T06:06:49.000Z</time>
      </trkpt>
      <trkpt lat="45.21485" lon="5.73559">
        <ele>769</ele>
        <time>2021-07-24T06:06:50.000Z</time>
      </trkpt>
      <trkpt lat="45.21474" lon="5.73558">
        <ele>768</ele>
        <time>2021-07-24T06:06:55.000Z</time>
      </trkpt>
      <trkpt lat="45.21471" lon="5.73556">
        <ele>767.79998779297</ele>
        <time>2021-07-24T06:06:57.000Z</time>
      </trkpt>
      <trkpt lat="45.21467" lon="5.73547">
        <ele>766.79998779297</ele>
        <time>2021-07-24T06:07:01.000Z</time>
      </trkpt>
      <trkpt lat="45.21465" lon="5.73544">
        <ele>766.79998779297</ele>
        <time>2021-07-24T06:07:04.000Z</time>
      </trkpt>
      <trkpt lat="45.2146" lon="5.73533">
        <ele>765.20001220703</ele>
        <time>2021-07-24T06:07:09.000Z</time>
      </trkpt>
      <trkpt lat="45.21459" lon="5.73531">
        <ele>764.40002441406</ele>
        <time>2021-07-24T06:07:10.000Z</time>
      </trkpt>
      <trkpt lat="45.21459" lon="5.73529">
        <ele>763.79998779297</ele>
        <time>2021-07-24T06:07:11.000Z</time>
      </trkpt>
      <trkpt lat="45.21458" lon="5.73524">
        <ele>762.79998779297</ele>
        <time>2021-07-24T06:07:15.000Z</time>
      </trkpt>
      <trkpt lat="45.21457" lon="5.73515">
        <ele>762</ele>
        <time>2021-07-24T06:07:19.000Z</time>
      </trkpt>
      <trkpt lat="45.21456" lon="5.73512">
        <ele>760.79998779297</ele>
        <time>2021-07-24T06:07:20.000Z</time>
      </trkpt>
      <trkpt lat="45.21455" lon="5.7351">
        <ele>760.79998779297</ele>
        <time>2021-07-24T06:07:21.000Z</time>
      </trkpt>
      <trkpt lat="45.21454" lon="5.73504">
        <ele>760.79998779297</ele>
        <time>2021-07-24T06:07:23.000Z</time>
      </trkpt>
      <trkpt lat="45.21451" lon="5.73501">
        <ele>760</ele>
        <time>2021-07-24T06:07:25.000Z</time>
      </trkpt>
      <trkpt lat="45.2145" lon="5.73499">
        <ele>759.20001220703</ele>
        <time>2021-07-24T06:07:26.000Z</time>
      </trkpt>
      <trkpt lat="45.21444" lon="5.73493">
        <ele>757.40002441406</ele>
        <time>2021-07-24T06:07:30.000Z</time>
      </trkpt>
      <trkpt lat="45.21441" lon="5.7349">
        <ele>757</ele>
        <time>2021-07-24T06:07:32.000Z</time>
      </trkpt>
      <trkpt lat="45.21438" lon="5.73486">
        <ele>756.40002441406</ele>
        <time>2021-07-24T06:07:35.000Z</time>
      </trkpt>
      <trkpt lat="45.21436" lon="5.73481">
        <ele>755.40002441406</ele>
        <time>2021-07-24T06:07:37.000Z</time>
      </trkpt>
      <trkpt lat="45.21435" lon="5.73479">
        <ele>754.79998779297</ele>
        <time>2021-07-24T06:07:38.000Z</time>
      </trkpt>
      <trkpt lat="45.21434" lon="5.73478">
        <ele>754.40002441406</ele>
        <time>2021-07-24T06:07:39.000Z</time>
      </trkpt>
      <trkpt lat="45.21431" lon="5.73473">
        <ele>754</ele>
        <time>2021-07-24T06:07:42.000Z</time>
      </trkpt>
      <trkpt lat="45.2143" lon="5.7347">
        <ele>753.79998779297</ele>
        <time>2021-07-24T06:07:43.000Z</time>
      </trkpt>
      <trkpt lat="45.21428" lon="5.73466">
        <ele>753</ele>
        <time>2021-07-24T06:07:45.000Z</time>
      </trkpt>
      <trkpt lat="45.21427" lon="5.73464">
        <ele>752.59997558594</ele>
        <time>2021-07-24T06:07:46.000Z</time>
      </trkpt>
      <trkpt lat="45.21423" lon="5.73457">
        <ele>751.59997558594</ele>
        <time>2021-07-24T06:07:50.000Z</time>
      </trkpt>
      <trkpt lat="45.2142" lon="5.73457">
        <ele>750.79998779297</ele>
        <time>2021-07-24T06:07:52.000Z</time>
      </trkpt>
      <trkpt lat="45.21419" lon="5.73455">
        <ele>750.20001220703</ele>
        <time>2021-07-24T06:07:53.000Z</time>
      </trkpt>
      <trkpt lat="45.21415" lon="5.73452">
        <ele>749.20001220703</ele>
        <time>2021-07-24T06:07:56.000Z</time>
      </trkpt>
      <trkpt lat="45.21411" lon="5.73444">
        <ele>748.40002441406</ele>
        <time>2021-07-24T06:07:59.000Z</time>
      </trkpt>
      <trkpt lat="45.2141" lon="5.73442">
        <ele>748</ele>
        <time>2021-07-24T06:08:00.000Z</time>
      </trkpt>
      <trkpt lat="45.2141" lon="5.7344">
        <ele>747.59997558594</ele>
        <time>2021-07-24T06:08:02.000Z</time>
      </trkpt>
      <trkpt lat="45.21409" lon="5.73438">
        <ele>747</ele>
        <time>2021-07-24T06:08:03.000Z</time>
      </trkpt>
      <trkpt lat="45.21409" lon="5.73436">
        <ele>746.79998779297</ele>
        <time>2021-07-24T06:08:04.000Z</time>
      </trkpt>
      <trkpt lat="45.21403" lon="5.73424">
        <ele>746</ele>
        <time>2021-07-24T06:08:09.000Z</time>
      </trkpt>
      <trkpt lat="45.21401" lon="5.73422">
        <ele>745</ele>
        <time>2021-07-24T06:08:10.000Z</time>
      </trkpt>
      <trkpt lat="45.21398" lon="5.73418">
        <ele>743.79998779297</ele>
        <time>2021-07-24T06:08:12.000Z</time>
      </trkpt>
      <trkpt lat="45.21395" lon="5.73414">
        <ele>743.59997558594</ele>
        <time>2021-07-24T06:08:14.000Z</time>
      </trkpt>
      <trkpt lat="45.21394" lon="5.73413">
        <ele>743.40002441406</ele>
        <time>2021-07-24T06:08:15.000Z</time>
      </trkpt>
      <trkpt lat="45.21394" lon="5.7341">
        <ele>742.59997558594</ele>
        <time>2021-07-24T06:08:16.000Z</time>
      </trkpt>
      <trkpt lat="45.21393" lon="5.73408">
        <ele>742.40002441406</ele>
        <time>2021-07-24T06:08:17.000Z</time>
      </trkpt>
      <trkpt lat="45.21391" lon="5.73397">
        <ele>741.79998779297</ele>
        <time>2021-07-24T06:08:20.000Z</time>
      </trkpt>
      <trkpt lat="45.21391" lon="5.73396">
        <ele>741.59997558594</ele>
        <time>2021-07-24T06:08:21.000Z</time>
      </trkpt>
      <trkpt lat="45.2139" lon="5.73395">
        <ele>740.79998779297</ele>
        <time>2021-07-24T06:08:23.000Z</time>
      </trkpt>
      <trkpt lat="45.21388" lon="5.73395">
        <ele>739.59997558594</ele>
        <time>2021-07-24T06:08:24.000Z</time>
      </trkpt>
      <trkpt lat="45.21386" lon="5.73394">
        <ele>739.20001220703</ele>
        <time>2021-07-24T06:08:25.000Z</time>
      </trkpt>
      <trkpt lat="45.21384" lon="5.73393">
        <ele>738.59997558594</ele>
        <time>2021-07-24T06:08:26.000Z</time>
      </trkpt>
      <trkpt lat="45.21382" lon="5.73392">
        <ele>738.59997558594</ele>
        <time>2021-07-24T06:08:27.000Z</time>
      </trkpt>
      <trkpt lat="45.2138" lon="5.73389">
        <ele>738.59997558594</ele>
        <time>2021-07-24T06:08:28.000Z</time>
      </trkpt>
      <trkpt lat="45.21379" lon="5.73387">
        <ele>738.20001220703</ele>
        <time>2021-07-24T06:08:29.000Z</time>
      </trkpt>
      <trkpt lat="45.21378" lon="5.73385">
        <ele>738.20001220703</ele>
        <time>2021-07-24T06:08:30.000Z</time>
      </trkpt>
      <trkpt lat="45.21376" lon="5.73381">
        <ele>738</ele>
        <time>2021-07-24T06:08:32.000Z</time>
      </trkpt>
      <trkpt lat="45.21375" lon="5.7338">
        <ele>737.79998779297</ele>
        <time>2021-07-24T06:08:33.000Z</time>
      </trkpt>
      <trkpt lat="45.21372" lon="5.73376">
        <ele>735.79998779297</ele>
        <time>2021-07-24T06:08:36.000Z</time>
      </trkpt>
      <trkpt lat="45.21368" lon="5.73374">
        <ele>735</ele>
        <time>2021-07-24T06:08:38.000Z</time>
      </trkpt>
      <trkpt lat="45.21366" lon="5.73372">
        <ele>734.79998779297</ele>
        <time>2021-07-24T06:08:39.000Z</time>
      </trkpt>
      <trkpt lat="45.21361" lon="5.73361">
        <ele>734</ele>
        <time>2021-07-24T06:08:43.000Z</time>
      </trkpt>
      <trkpt lat="45.21358" lon="5.73357">
        <ele>733.59997558594</ele>
        <time>2021-07-24T06:08:45.000Z</time>
      </trkpt>
      <trkpt lat="45.21356" lon="5.73355">
        <ele>733.40002441406</ele>
        <time>2021-07-24T06:08:47.000Z</time>
      </trkpt>
      <trkpt lat="45.21355" lon="5.73354">
        <ele>733</ele>
        <time>2021-07-24T06:08:48.000Z</time>
      </trkpt>
      <trkpt lat="45.21354" lon="5.73352">
        <ele>732</ele>
        <time>2021-07-24T06:08:49.000Z</time>
      </trkpt>
      <trkpt lat="45.21349" lon="5.73349">
        <ele>730.79998779297</ele>
        <time>2021-07-24T06:08:52.000Z</time>
      </trkpt>
      <trkpt lat="45.21348" lon="5.73347">
        <ele>730.59997558594</ele>
        <time>2021-07-24T06:08:53.000Z</time>
      </trkpt>
      <trkpt lat="45.21346" lon="5.73345">
        <ele>730.40002441406</ele>
        <time>2021-07-24T06:08:54.000Z</time>
      </trkpt>
      <trkpt lat="45.21343" lon="5.73342">
        <ele>729.59997558594</ele>
        <time>2021-07-24T06:08:56.000Z</time>
      </trkpt>
      <trkpt lat="45.21338" lon="5.73337">
        <ele>728.59997558594</ele>
        <time>2021-07-24T06:08:59.000Z</time>
      </trkpt>
      <trkpt lat="45.21336" lon="5.73335">
        <ele>727.59997558594</ele>
        <time>2021-07-24T06:09:01.000Z</time>
      </trkpt>
      <trkpt lat="45.21335" lon="5.73334">
        <ele>727</ele>
        <time>2021-07-24T06:09:02.000Z</time>
      </trkpt>
      <trkpt lat="45.21332" lon="5.73332">
        <ele>726.79998779297</ele>
        <time>2021-07-24T06:09:04.000Z</time>
      </trkpt>
      <trkpt lat="45.21328" lon="5.73328">
        <ele>725.20001220703</ele>
        <time>2021-07-24T06:09:07.000Z</time>
      </trkpt>
      <trkpt lat="45.21325" lon="5.73325">
        <ele>725</ele>
        <time>2021-07-24T06:09:09.000Z</time>
      </trkpt>
      <trkpt lat="45.21324" lon="5.73322">
        <ele>724.79998779297</ele>
        <time>2021-07-24T06:09:10.000Z</time>
      </trkpt>
      <trkpt lat="45.21325" lon="5.73318">
        <ele>724.40002441406</ele>
        <time>2021-07-24T06:09:11.000Z</time>
      </trkpt>
      <trkpt lat="45.21325" lon="5.73313">
        <ele>724.79998779297</ele>
        <time>2021-07-24T06:09:13.000Z</time>
      </trkpt>
      <trkpt lat="45.21325" lon="5.73311">
        <ele>724.40002441406</ele>
        <time>2021-07-24T06:09:14.000Z</time>
      </trkpt>
      <trkpt lat="45.21324" lon="5.7331">
        <ele>724</ele>
        <time>2021-07-24T06:09:15.000Z</time>
      </trkpt>
      <trkpt lat="45.2132" lon="5.73312">
        <ele>722.59997558594</ele>
        <time>2021-07-24T06:09:19.000Z</time>
      </trkpt>
      <trkpt lat="45.21316" lon="5.73312">
        <ele>722</ele>
        <time>2021-07-24T06:09:21.000Z</time>
      </trkpt>
      <trkpt lat="45.21313" lon="5.73312">
        <ele>721.40002441406</ele>
        <time>2021-07-24T06:09:23.000Z</time>
      </trkpt>
      <trkpt lat="45.21312" lon="5.73311">
        <ele>720.79998779297</ele>
        <time>2021-07-24T06:09:24.000Z</time>
      </trkpt>
      <trkpt lat="45.2131" lon="5.73311">
        <ele>720</ele>
        <time>2021-07-24T06:09:25.000Z</time>
      </trkpt>
      <trkpt lat="45.21309" lon="5.73312">
        <ele>720</ele>
        <time>2021-07-24T06:09:26.000Z</time>
      </trkpt>
      <trkpt lat="45.21309" lon="5.73314">
        <ele>719.40002441406</ele>
        <time>2021-07-24T06:09:27.000Z</time>
      </trkpt>
      <trkpt lat="45.21308" lon="5.73315">
        <ele>719</ele>
        <time>2021-07-24T06:09:28.000Z</time>
      </trkpt>
      <trkpt lat="45.21307" lon="5.73315">
        <ele>718.59997558594</ele>
        <time>2021-07-24T06:09:29.000Z</time>
      </trkpt>
      <trkpt lat="45.21304" lon="5.73316">
        <ele>717.79998779297</ele>
        <time>2021-07-24T06:09:31.000Z</time>
      </trkpt>
      <trkpt lat="45.21301" lon="5.73315">
        <ele>717.59997558594</ele>
        <time>2021-07-24T06:09:32.000Z</time>
      </trkpt>
      <trkpt lat="45.21293" lon="5.73311">
        <ele>716.40002441406</ele>
        <time>2021-07-24T06:09:35.000Z</time>
      </trkpt>
      <trkpt lat="45.21292" lon="5.73308">
        <ele>716</ele>
        <time>2021-07-24T06:09:36.000Z</time>
      </trkpt>
      <trkpt lat="45.21291" lon="5.733">
        <ele>715</ele>
        <time>2021-07-24T06:09:39.000Z</time>
      </trkpt>
      <trkpt lat="45.21291" lon="5.73297">
        <ele>714.79998779297</ele>
        <time>2021-07-24T06:09:40.000Z</time>
      </trkpt>
      <trkpt lat="45.21289" lon="5.73294">
        <ele>714.79998779297</ele>
        <time>2021-07-24T06:09:41.000Z</time>
      </trkpt>
      <trkpt lat="45.21285" lon="5.73293">
        <ele>714</ele>
        <time>2021-07-24T06:09:44.000Z</time>
      </trkpt>
      <trkpt lat="45.21275" lon="5.73285">
        <ele>711.79998779297</ele>
        <time>2021-07-24T06:09:50.000Z</time>
      </trkpt>
      <trkpt lat="45.21273" lon="5.73284">
        <ele>711.79998779297</ele>
        <time>2021-07-24T06:09:51.000Z</time>
      </trkpt>
      <trkpt lat="45.21269" lon="5.73282">
        <ele>711</ele>
        <time>2021-07-24T06:09:53.000Z</time>
      </trkpt>
      <trkpt lat="45.21264" lon="5.73282">
        <ele>710.59997558594</ele>
        <time>2021-07-24T06:09:55.000Z</time>
      </trkpt>
      <trkpt lat="45.21262" lon="5.73281">
        <ele>709</ele>
        <time>2021-07-24T06:09:56.000Z</time>
      </trkpt>
      <trkpt lat="45.21259" lon="5.73281">
        <ele>709</ele>
        <time>2021-07-24T06:09:57.000Z</time>
      </trkpt>
      <trkpt lat="45.21255" lon="5.73278">
        <ele>708.79998779297</ele>
        <time>2021-07-24T06:09:59.000Z</time>
      </trkpt>
      <trkpt lat="45.21253" lon="5.73277">
        <ele>708.40002441406</ele>
        <time>2021-07-24T06:10:00.000Z</time>
      </trkpt>
      <trkpt lat="45.2125" lon="5.73273">
        <ele>708.20001220703</ele>
        <time>2021-07-24T06:10:02.000Z</time>
      </trkpt>
      <trkpt lat="45.21249" lon="5.7327">
        <ele>707.79998779297</ele>
        <time>2021-07-24T06:10:03.000Z</time>
      </trkpt>
      <trkpt lat="45.21247" lon="5.73266">
        <ele>706.59997558594</ele>
        <time>2021-07-24T06:10:05.000Z</time>
      </trkpt>
      <trkpt lat="45.21245" lon="5.7326">
        <ele>706.20001220703</ele>
        <time>2021-07-24T06:10:07.000Z</time>
      </trkpt>
      <trkpt lat="45.21243" lon="5.73258">
        <ele>705.20001220703</ele>
        <time>2021-07-24T06:10:08.000Z</time>
      </trkpt>
      <trkpt lat="45.21241" lon="5.73255">
        <ele>705</ele>
        <time>2021-07-24T06:10:10.000Z</time>
      </trkpt>
      <trkpt lat="45.21238" lon="5.73249">
        <ele>704.20001220703</ele>
        <time>2021-07-24T06:10:13.000Z</time>
      </trkpt>
      <trkpt lat="45.21234" lon="5.73244">
        <ele>703</ele>
        <time>2021-07-24T06:10:17.000Z</time>
      </trkpt>
      <trkpt lat="45.21233" lon="5.73244">
        <ele>701.59997558594</ele>
        <time>2021-07-24T06:10:18.000Z</time>
      </trkpt>
      <trkpt lat="45.21226" lon="5.73242">
        <ele>700.59997558594</ele>
        <time>2021-07-24T06:10:21.000Z</time>
      </trkpt>
      <trkpt lat="45.21223" lon="5.73241">
        <ele>700</ele>
        <time>2021-07-24T06:10:23.000Z</time>
      </trkpt>
      <trkpt lat="45.2122" lon="5.73237">
        <ele>699.59997558594</ele>
        <time>2021-07-24T06:10:25.000Z</time>
      </trkpt>
      <trkpt lat="45.21216" lon="5.73234">
        <ele>698.40002441406</ele>
        <time>2021-07-24T06:10:27.000Z</time>
      </trkpt>
      <trkpt lat="45.21214" lon="5.73233">
        <ele>698.40002441406</ele>
        <time>2021-07-24T06:10:28.000Z</time>
      </trkpt>
      <trkpt lat="45.2121" lon="5.73229">
        <ele>697.40002441406</ele>
        <time>2021-07-24T06:10:31.000Z</time>
      </trkpt>
      <trkpt lat="45.21207" lon="5.73223">
        <ele>696.20001220703</ele>
        <time>2021-07-24T06:10:33.000Z</time>
      </trkpt>
      <trkpt lat="45.21205" lon="5.73219">
        <ele>696</ele>
        <time>2021-07-24T06:10:35.000Z</time>
      </trkpt>
      <trkpt lat="45.21201" lon="5.73215">
        <ele>694.79998779297</ele>
        <time>2021-07-24T06:10:38.000Z</time>
      </trkpt>
      <trkpt lat="45.21199" lon="5.73214">
        <ele>694.79998779297</ele>
        <time>2021-07-24T06:10:39.000Z</time>
      </trkpt>
      <trkpt lat="45.21198" lon="5.73213">
        <ele>693.40002441406</ele>
        <time>2021-07-24T06:10:40.000Z</time>
      </trkpt>
      <trkpt lat="45.21193" lon="5.7321">
        <ele>692.20001220703</ele>
        <time>2021-07-24T06:10:43.000Z</time>
      </trkpt>
      <trkpt lat="45.2119" lon="5.73209">
        <ele>692.20001220703</ele>
        <time>2021-07-24T06:10:44.000Z</time>
      </trkpt>
      <trkpt lat="45.21185" lon="5.73197">
        <ele>691</ele>
        <time>2021-07-24T06:10:48.000Z</time>
      </trkpt>
      <trkpt lat="45.21184" lon="5.73192">
        <ele>690.20001220703</ele>
        <time>2021-07-24T06:10:50.000Z</time>
      </trkpt>
      <trkpt lat="45.21182" lon="5.73189">
        <ele>689.79998779297</ele>
        <time>2021-07-24T06:10:52.000Z</time>
      </trkpt>
      <trkpt lat="45.2118" lon="5.73187">
        <ele>689.79998779297</ele>
        <time>2021-07-24T06:10:53.000Z</time>
      </trkpt>
      <trkpt lat="45.21178" lon="5.73185">
        <ele>689.40002441406</ele>
        <time>2021-07-24T06:10:54.000Z</time>
      </trkpt>
      <trkpt lat="45.21177" lon="5.73183">
        <ele>688.79998779297</ele>
        <time>2021-07-24T06:10:55.000Z</time>
      </trkpt>
      <trkpt lat="45.21176" lon="5.73181">
        <ele>688.40002441406</ele>
        <time>2021-07-24T06:10:56.000Z</time>
      </trkpt>
      <trkpt lat="45.21173" lon="5.73177">
        <ele>687</ele>
        <time>2021-07-24T06:10:58.000Z</time>
      </trkpt>
      <trkpt lat="45.21167" lon="5.73172">
        <ele>686.20001220703</ele>
        <time>2021-07-24T06:11:02.000Z</time>
      </trkpt>
      <trkpt lat="45.21166" lon="5.7317">
        <ele>685.59997558594</ele>
        <time>2021-07-24T06:11:03.000Z</time>
      </trkpt>
      <trkpt lat="45.21162" lon="5.73165">
        <ele>684.59997558594</ele>
        <time>2021-07-24T06:11:06.000Z</time>
      </trkpt>
      <trkpt lat="45.21156" lon="5.73162">
        <ele>684.20001220703</ele>
        <time>2021-07-24T06:11:09.000Z</time>
      </trkpt>
      <trkpt lat="45.21155" lon="5.73161">
        <ele>683.59997558594</ele>
        <time>2021-07-24T06:11:10.000Z</time>
      </trkpt>
      <trkpt lat="45.21154" lon="5.73156">
        <ele>682.59997558594</ele>
        <time>2021-07-24T06:11:12.000Z</time>
      </trkpt>
      <trkpt lat="45.21152" lon="5.73152">
        <ele>682.59997558594</ele>
        <time>2021-07-24T06:11:14.000Z</time>
      </trkpt>
      <trkpt lat="45.21151" lon="5.73152">
        <ele>682.20001220703</ele>
        <time>2021-07-24T06:11:15.000Z</time>
      </trkpt>
      <trkpt lat="45.2115" lon="5.73151">
        <ele>681.59997558594</ele>
        <time>2021-07-24T06:11:16.000Z</time>
      </trkpt>
      <trkpt lat="45.21147" lon="5.73148">
        <ele>681.20001220703</ele>
        <time>2021-07-24T06:11:18.000Z</time>
      </trkpt>
      <trkpt lat="45.21145" lon="5.73143">
        <ele>680</ele>
        <time>2021-07-24T06:11:20.000Z</time>
      </trkpt>
      <trkpt lat="45.21143" lon="5.73138">
        <ele>679</ele>
        <time>2021-07-24T06:11:22.000Z</time>
      </trkpt>
      <trkpt lat="45.2114" lon="5.73134">
        <ele>679</ele>
        <time>2021-07-24T06:11:24.000Z</time>
      </trkpt>
      <trkpt lat="45.21139" lon="5.73134">
        <ele>678.20001220703</ele>
        <time>2021-07-24T06:11:25.000Z</time>
      </trkpt>
      <trkpt lat="45.21134" lon="5.73137">
        <ele>677</ele>
        <time>2021-07-24T06:11:28.000Z</time>
      </trkpt>
      <trkpt lat="45.21133" lon="5.73138">
        <ele>676.79998779297</ele>
        <time>2021-07-24T06:11:29.000Z</time>
      </trkpt>
      <trkpt lat="45.21131" lon="5.73142">
        <ele>675.59997558594</ele>
        <time>2021-07-24T06:11:31.000Z</time>
      </trkpt>
      <trkpt lat="45.21126" lon="5.73144">
        <ele>675.20001220703</ele>
        <time>2021-07-24T06:11:34.000Z</time>
      </trkpt>
      <trkpt lat="45.21123" lon="5.73146">
        <ele>674.59997558594</ele>
        <time>2021-07-24T06:11:35.000Z</time>
      </trkpt>
      <trkpt lat="45.21118" lon="5.73148">
        <ele>673.59997558594</ele>
        <time>2021-07-24T06:11:38.000Z</time>
      </trkpt>
      <trkpt lat="45.21118" lon="5.73148">
        <ele>673.20001220703</ele>
        <time>2021-07-24T06:11:39.000Z</time>
      </trkpt>
      <trkpt lat="45.21118" lon="5.73149">
        <ele>672.20001220703</ele>
        <time>2021-07-24T06:11:40.000Z</time>
      </trkpt>
      <trkpt lat="45.21115" lon="5.73156">
        <ele>671.40002441406</ele>
        <time>2021-07-24T06:11:43.000Z</time>
      </trkpt>
      <trkpt lat="45.21113" lon="5.73157">
        <ele>671.20001220703</ele>
        <time>2021-07-24T06:11:44.000Z</time>
      </trkpt>
      <trkpt lat="45.21111" lon="5.73156">
        <ele>670.20001220703</ele>
        <time>2021-07-24T06:11:46.000Z</time>
      </trkpt>
      <trkpt lat="45.21111" lon="5.73155">
        <ele>670.20001220703</ele>
        <time>2021-07-24T06:11:47.000Z</time>
      </trkpt>
      <trkpt lat="45.21113" lon="5.73154">
        <ele>669.79998779297</ele>
        <time>2021-07-24T06:11:49.000Z</time>
      </trkpt>
      <trkpt lat="45.21114" lon="5.73154">
        <ele>668.79998779297</ele>
        <time>2021-07-24T06:11:50.000Z</time>
      </trkpt>
      <trkpt lat="45.21118" lon="5.73154">
        <ele>667.20001220703</ele>
        <time>2021-07-24T06:11:53.000Z</time>
      </trkpt>
      <trkpt lat="45.21122" lon="5.73156">
        <ele>665.59997558594</ele>
        <time>2021-07-24T06:11:56.000Z</time>
      </trkpt>
      <trkpt lat="45.21124" lon="5.73156">
        <ele>664.79998779297</ele>
        <time>2021-07-24T06:11:57.000Z</time>
      </trkpt>
      <trkpt lat="45.21125" lon="5.73156">
        <ele>664.20001220703</ele>
        <time>2021-07-24T06:11:58.000Z</time>
      </trkpt>
      <trkpt lat="45.21126" lon="5.73158">
        <ele>663.59997558594</ele>
        <time>2021-07-24T06:12:00.000Z</time>
      </trkpt>
      <trkpt lat="45.21126" lon="5.73159">
        <ele>663.40002441406</ele>
        <time>2021-07-24T06:12:01.000Z</time>
      </trkpt>
      <trkpt lat="45.21125" lon="5.7316">
        <ele>663</ele>
        <time>2021-07-24T06:12:02.000Z</time>
      </trkpt>
      <trkpt lat="45.21125" lon="5.73161">
        <ele>662.59997558594</ele>
        <time>2021-07-24T06:12:04.000Z</time>
      </trkpt>
      <trkpt lat="45.2112" lon="5.73163">
        <ele>662.20001220703</ele>
        <time>2021-07-24T06:12:06.000Z</time>
      </trkpt>
      <trkpt lat="45.21118" lon="5.73163">
        <ele>661.59997558594</ele>
        <time>2021-07-24T06:12:07.000Z</time>
      </trkpt>
      <trkpt lat="45.21116" lon="5.73165">
        <ele>661.59997558594</ele>
        <time>2021-07-24T06:12:08.000Z</time>
      </trkpt>
      <trkpt lat="45.21113" lon="5.73171">
        <ele>660.59997558594</ele>
        <time>2021-07-24T06:12:10.000Z</time>
      </trkpt>
      <trkpt lat="45.21111" lon="5.73172">
        <ele>660.59997558594</ele>
        <time>2021-07-24T06:12:11.000Z</time>
      </trkpt>
      <trkpt lat="45.21107" lon="5.73178">
        <ele>659.20001220703</ele>
        <time>2021-07-24T06:12:15.000Z</time>
      </trkpt>
      <trkpt lat="45.21105" lon="5.73178">
        <ele>659</ele>
        <time>2021-07-24T06:12:16.000Z</time>
      </trkpt>
      <trkpt lat="45.21103" lon="5.73176">
        <ele>659</ele>
        <time>2021-07-24T06:12:17.000Z</time>
      </trkpt>
      <trkpt lat="45.21102" lon="5.73175">
        <ele>657.79998779297</ele>
        <time>2021-07-24T06:12:18.000Z</time>
      </trkpt>
      <trkpt lat="45.211" lon="5.73173">
        <ele>657.20001220703</ele>
        <time>2021-07-24T06:12:19.000Z</time>
      </trkpt>
      <trkpt lat="45.21098" lon="5.73171">
        <ele>656.59997558594</ele>
        <time>2021-07-24T06:12:20.000Z</time>
      </trkpt>
      <trkpt lat="45.21097" lon="5.73168">
        <ele>655.79998779297</ele>
        <time>2021-07-24T06:12:21.000Z</time>
      </trkpt>
      <trkpt lat="45.21092" lon="5.73161">
        <ele>655.20001220703</ele>
        <time>2021-07-24T06:12:24.000Z</time>
      </trkpt>
      <trkpt lat="45.2109" lon="5.73159">
        <ele>654.20001220703</ele>
        <time>2021-07-24T06:12:25.000Z</time>
      </trkpt>
      <trkpt lat="45.21084" lon="5.73153">
        <ele>653.59997558594</ele>
        <time>2021-07-24T06:12:28.000Z</time>
      </trkpt>
      <trkpt lat="45.21078" lon="5.73149">
        <ele>652.79998779297</ele>
        <time>2021-07-24T06:12:31.000Z</time>
      </trkpt>
      <trkpt lat="45.21072" lon="5.7314">
        <ele>651.79998779297</ele>
        <time>2021-07-24T06:12:34.000Z</time>
      </trkpt>
      <trkpt lat="45.21065" lon="5.7314">
        <ele>651.40002441406</ele>
        <time>2021-07-24T06:12:38.000Z</time>
      </trkpt>
      <trkpt lat="45.21062" lon="5.73142">
        <ele>651</ele>
        <time>2021-07-24T06:12:40.000Z</time>
      </trkpt>
      <trkpt lat="45.2106" lon="5.73143">
        <ele>650</ele>
        <time>2021-07-24T06:12:41.000Z</time>
      </trkpt>
      <trkpt lat="45.21054" lon="5.73146">
        <ele>649.20001220703</ele>
        <time>2021-07-24T06:12:44.000Z</time>
      </trkpt>
      <trkpt lat="45.21052" lon="5.73146">
        <ele>648.40002441406</ele>
        <time>2021-07-24T06:12:45.000Z</time>
      </trkpt>
      <trkpt lat="45.2104" lon="5.73145">
        <ele>647</ele>
        <time>2021-07-24T06:12:50.000Z</time>
      </trkpt>
      <trkpt lat="45.21038" lon="5.73144">
        <ele>646</ele>
        <time>2021-07-24T06:12:51.000Z</time>
      </trkpt>
      <trkpt lat="45.21026" lon="5.73139">
        <ele>644.59997558594</ele>
        <time>2021-07-24T06:12:56.000Z</time>
      </trkpt>
      <trkpt lat="45.21024" lon="5.73138">
        <ele>644.40002441406</ele>
        <time>2021-07-24T06:12:57.000Z</time>
      </trkpt>
      <trkpt lat="45.21023" lon="5.73137">
        <ele>644.20001220703</ele>
        <time>2021-07-24T06:12:58.000Z</time>
      </trkpt>
      <trkpt lat="45.21019" lon="5.73134">
        <ele>643.40002441406</ele>
        <time>2021-07-24T06:13:00.000Z</time>
      </trkpt>
      <trkpt lat="45.21017" lon="5.73132">
        <ele>643.40002441406</ele>
        <time>2021-07-24T06:13:01.000Z</time>
      </trkpt>
      <trkpt lat="45.21015" lon="5.7313">
        <ele>643</ele>
        <time>2021-07-24T06:13:02.000Z</time>
      </trkpt>
      <trkpt lat="45.21012" lon="5.73128">
        <ele>642.59997558594</ele>
        <time>2021-07-24T06:13:04.000Z</time>
      </trkpt>
      <trkpt lat="45.21013" lon="5.73128">
        <ele>642.40002441406</ele>
        <time>2021-07-24T06:13:05.000Z</time>
      </trkpt>
      <trkpt lat="45.21014" lon="5.73131">
        <ele>642</ele>
        <time>2021-07-24T06:13:07.000Z</time>
      </trkpt>
      <trkpt lat="45.21012" lon="5.73138">
        <ele>641</ele>
        <time>2021-07-24T06:13:11.000Z</time>
      </trkpt>
      <trkpt lat="45.21009" lon="5.73144">
        <ele>640.20001220703</ele>
        <time>2021-07-24T06:13:14.000Z</time>
      </trkpt>
      <trkpt lat="45.21008" lon="5.73144">
        <ele>639.59997558594</ele>
        <time>2021-07-24T06:13:15.000Z</time>
      </trkpt>
      <trkpt lat="45.21009" lon="5.73144">
        <ele>639.59997558594</ele>
        <time>2021-07-24T06:13:16.000Z</time>
      </trkpt>
      <trkpt lat="45.21009" lon="5.73144">
        <ele>639.20001220703</ele>
        <time>2021-07-24T06:13:17.000Z</time>
      </trkpt>
      <trkpt lat="45.21008" lon="5.73146">
        <ele>639</ele>
        <time>2021-07-24T06:13:18.000Z</time>
      </trkpt>
      <trkpt lat="45.21007" lon="5.73147">
        <ele>638.40002441406</ele>
        <time>2021-07-24T06:13:19.000Z</time>
      </trkpt>
      <trkpt lat="45.21005" lon="5.73152">
        <ele>637.59997558594</ele>
        <time>2021-07-24T06:13:21.000Z</time>
      </trkpt>
      <trkpt lat="45.21004" lon="5.73154">
        <ele>637.20001220703</ele>
        <time>2021-07-24T06:13:22.000Z</time>
      </trkpt>
      <trkpt lat="45.20999" lon="5.7316">
        <ele>636</ele>
        <time>2021-07-24T06:13:26.000Z</time>
      </trkpt>
      <trkpt lat="45.20998" lon="5.73161">
        <ele>635.79998779297</ele>
        <time>2021-07-24T06:13:27.000Z</time>
      </trkpt>
      <trkpt lat="45.20997" lon="5.73164">
        <ele>635</ele>
        <time>2021-07-24T06:13:28.000Z</time>
      </trkpt>
      <trkpt lat="45.20995" lon="5.73165">
        <ele>634.79998779297</ele>
        <time>2021-07-24T06:13:29.000Z</time>
      </trkpt>
      <trkpt lat="45.20994" lon="5.73164">
        <ele>634</ele>
        <time>2021-07-24T06:13:32.000Z</time>
      </trkpt>
      <trkpt lat="45.20994" lon="5.73163">
        <ele>633.59997558594</ele>
        <time>2021-07-24T06:13:33.000Z</time>
      </trkpt>
      <trkpt lat="45.20994" lon="5.73161">
        <ele>633.20001220703</ele>
        <time>2021-07-24T06:13:34.000Z</time>
      </trkpt>
      <trkpt lat="45.20995" lon="5.73159">
        <ele>632.59997558594</ele>
        <time>2021-07-24T06:13:36.000Z</time>
      </trkpt>
      <trkpt lat="45.20996" lon="5.73157">
        <ele>632.40002441406</ele>
        <time>2021-07-24T06:13:37.000Z</time>
      </trkpt>
      <trkpt lat="45.21" lon="5.73154">
        <ele>630.79998779297</ele>
        <time>2021-07-24T06:13:40.000Z</time>
      </trkpt>
      <trkpt lat="45.21003" lon="5.73152">
        <ele>630.59997558594</ele>
        <time>2021-07-24T06:13:43.000Z</time>
      </trkpt>
      <trkpt lat="45.21004" lon="5.73151">
        <ele>629.79998779297</ele>
        <time>2021-07-24T06:13:44.000Z</time>
      </trkpt>
      <trkpt lat="45.21006" lon="5.7315">
        <ele>629.59997558594</ele>
        <time>2021-07-24T06:13:46.000Z</time>
      </trkpt>
      <trkpt lat="45.21007" lon="5.73147">
        <ele>628.79998779297</ele>
        <time>2021-07-24T06:13:47.000Z</time>
      </trkpt>
      <trkpt lat="45.21009" lon="5.73143">
        <ele>628.20001220703</ele>
        <time>2021-07-24T06:13:49.000Z</time>
      </trkpt>
      <trkpt lat="45.21012" lon="5.73141">
        <ele>628</ele>
        <time>2021-07-24T06:13:51.000Z</time>
      </trkpt>
      <trkpt lat="45.21013" lon="5.73138">
        <ele>627.79998779297</ele>
        <time>2021-07-24T06:13:52.000Z</time>
      </trkpt>
      <trkpt lat="45.21014" lon="5.73136">
        <ele>627.59997558594</ele>
        <time>2021-07-24T06:13:53.000Z</time>
      </trkpt>
      <trkpt lat="45.21015" lon="5.73134">
        <ele>627.40002441406</ele>
        <time>2021-07-24T06:13:55.000Z</time>
      </trkpt>
      <trkpt lat="45.21017" lon="5.73134">
        <ele>627.20001220703</ele>
        <time>2021-07-24T06:13:57.000Z</time>
      </trkpt>
      <trkpt lat="45.21017" lon="5.73135">
        <ele>626.59997558594</ele>
        <time>2021-07-24T06:13:58.000Z</time>
      </trkpt>
      <trkpt lat="45.21017" lon="5.73139">
        <ele>626</ele>
        <time>2021-07-24T06:14:00.000Z</time>
      </trkpt>
      <trkpt lat="45.21017" lon="5.73141">
        <ele>625.20001220703</ele>
        <time>2021-07-24T06:14:01.000Z</time>
      </trkpt>
      <trkpt lat="45.21018" lon="5.73143">
        <ele>624.59997558594</ele>
        <time>2021-07-24T06:14:03.000Z</time>
      </trkpt>
      <trkpt lat="45.21021" lon="5.73146">
        <ele>623.79998779297</ele>
        <time>2021-07-24T06:14:06.000Z</time>
      </trkpt>
      <trkpt lat="45.21023" lon="5.73147">
        <ele>623.40002441406</ele>
        <time>2021-07-24T06:14:08.000Z</time>
      </trkpt>
      <trkpt lat="45.21025" lon="5.73148">
        <ele>622.20001220703</ele>
        <time>2021-07-24T06:14:09.000Z</time>
      </trkpt>
      <trkpt lat="45.21029" lon="5.73154">
        <ele>621.20001220703</ele>
        <time>2021-07-24T06:14:12.000Z</time>
      </trkpt>
      <trkpt lat="45.21031" lon="5.73158">
        <ele>621</ele>
        <time>2021-07-24T06:14:13.000Z</time>
      </trkpt>
      <trkpt lat="45.21032" lon="5.7316">
        <ele>620.79998779297</ele>
        <time>2021-07-24T06:14:14.000Z</time>
      </trkpt>
      <trkpt lat="45.21032" lon="5.73162">
        <ele>620.40002441406</ele>
        <time>2021-07-24T06:14:15.000Z</time>
      </trkpt>
      <trkpt lat="45.21033" lon="5.73163">
        <ele>620.20001220703</ele>
        <time>2021-07-24T06:14:16.000Z</time>
      </trkpt>
      <trkpt lat="45.21034" lon="5.73164">
        <ele>619.40002441406</ele>
        <time>2021-07-24T06:14:17.000Z</time>
      </trkpt>
      <trkpt lat="45.21041" lon="5.73165">
        <ele>618.79998779297</ele>
        <time>2021-07-24T06:14:21.000Z</time>
      </trkpt>
      <trkpt lat="45.21046" lon="5.7317">
        <ele>618</ele>
        <time>2021-07-24T06:14:25.000Z</time>
      </trkpt>
      <trkpt lat="45.21047" lon="5.73171">
        <ele>616.79998779297</ele>
        <time>2021-07-24T06:14:26.000Z</time>
      </trkpt>
      <trkpt lat="45.21053" lon="5.73177">
        <ele>615.79998779297</ele>
        <time>2021-07-24T06:14:30.000Z</time>
      </trkpt>
      <trkpt lat="45.21055" lon="5.73179">
        <ele>615.79998779297</ele>
        <time>2021-07-24T06:14:31.000Z</time>
      </trkpt>
      <trkpt lat="45.21056" lon="5.73181">
        <ele>615.40002441406</ele>
        <time>2021-07-24T06:14:32.000Z</time>
      </trkpt>
      <trkpt lat="45.21058" lon="5.73183">
        <ele>614.20001220703</ele>
        <time>2021-07-24T06:14:33.000Z</time>
      </trkpt>
      <trkpt lat="45.21061" lon="5.73187">
        <ele>613.79998779297</ele>
        <time>2021-07-24T06:14:35.000Z</time>
      </trkpt>
      <trkpt lat="45.21064" lon="5.73191">
        <ele>613.59997558594</ele>
        <time>2021-07-24T06:14:38.000Z</time>
      </trkpt>
      <trkpt lat="45.21064" lon="5.73193">
        <ele>613.40002441406</ele>
        <time>2021-07-24T06:14:39.000Z</time>
      </trkpt>
      <trkpt lat="45.21065" lon="5.73195">
        <ele>612.40002441406</ele>
        <time>2021-07-24T06:14:40.000Z</time>
      </trkpt>
      <trkpt lat="45.21067" lon="5.732">
        <ele>611.20001220703</ele>
        <time>2021-07-24T06:14:42.000Z</time>
      </trkpt>
      <trkpt lat="45.21071" lon="5.73203">
        <ele>610.40002441406</ele>
        <time>2021-07-24T06:14:45.000Z</time>
      </trkpt>
      <trkpt lat="45.21071" lon="5.73205">
        <ele>610.40002441406</ele>
        <time>2021-07-24T06:14:46.000Z</time>
      </trkpt>
      <trkpt lat="45.2107" lon="5.73208">
        <ele>610.20001220703</ele>
        <time>2021-07-24T06:14:48.000Z</time>
      </trkpt>
      <trkpt lat="45.21068" lon="5.73209">
        <ele>609.59997558594</ele>
        <time>2021-07-24T06:14:49.000Z</time>
      </trkpt>
      <trkpt lat="45.21065" lon="5.73209">
        <ele>608.59997558594</ele>
        <time>2021-07-24T06:14:51.000Z</time>
      </trkpt>
      <trkpt lat="45.21061" lon="5.73208">
        <ele>608.20001220703</ele>
        <time>2021-07-24T06:14:54.000Z</time>
      </trkpt>
      <trkpt lat="45.21055" lon="5.73204">
        <ele>606.79998779297</ele>
        <time>2021-07-24T06:14:57.000Z</time>
      </trkpt>
      <trkpt lat="45.21053" lon="5.73203">
        <ele>606.59997558594</ele>
        <time>2021-07-24T06:14:58.000Z</time>
      </trkpt>
      <trkpt lat="45.2105" lon="5.732">
        <ele>605.59997558594</ele>
        <time>2021-07-24T06:15:00.000Z</time>
      </trkpt>
      <trkpt lat="45.21045" lon="5.73196">
        <ele>604.79998779297</ele>
        <time>2021-07-24T06:15:04.000Z</time>
      </trkpt>
      <trkpt lat="45.21043" lon="5.73196">
        <ele>604.40002441406</ele>
        <time>2021-07-24T06:15:05.000Z</time>
      </trkpt>
      <trkpt lat="45.21041" lon="5.73198">
        <ele>604</ele>
        <time>2021-07-24T06:15:06.000Z</time>
      </trkpt>
      <trkpt lat="45.21042" lon="5.73201">
        <ele>603</ele>
        <time>2021-07-24T06:15:08.000Z</time>
      </trkpt>
      <trkpt lat="45.21039" lon="5.73204">
        <ele>603</ele>
        <time>2021-07-24T06:15:10.000Z</time>
      </trkpt>
      <trkpt lat="45.21036" lon="5.73204">
        <ele>602.59997558594</ele>
        <time>2021-07-24T06:15:11.000Z</time>
      </trkpt>
      <trkpt lat="45.21034" lon="5.73203">
        <ele>601.79998779297</ele>
        <time>2021-07-24T06:15:12.000Z</time>
      </trkpt>
      <trkpt lat="45.21027" lon="5.73199">
        <ele>600.40002441406</ele>
        <time>2021-07-24T06:15:15.000Z</time>
      </trkpt>
      <trkpt lat="45.21021" lon="5.73193">
        <ele>599.79998779297</ele>
        <time>2021-07-24T06:15:18.000Z</time>
      </trkpt>
      <trkpt lat="45.21018" lon="5.73188">
        <ele>599</ele>
        <time>2021-07-24T06:15:20.000Z</time>
      </trkpt>
      <trkpt lat="45.21015" lon="5.73186">
        <ele>598</ele>
        <time>2021-07-24T06:15:22.000Z</time>
      </trkpt>
      <trkpt lat="45.21014" lon="5.73187">
        <ele>597.79998779297</ele>
        <time>2021-07-24T06:15:23.000Z</time>
      </trkpt>
      <trkpt lat="45.21012" lon="5.73191">
        <ele>597</ele>
        <time>2021-07-24T06:15:25.000Z</time>
      </trkpt>
      <trkpt lat="45.21008" lon="5.73191">
        <ele>596.79998779297</ele>
        <time>2021-07-24T06:15:27.000Z</time>
      </trkpt>
      <trkpt lat="45.21006" lon="5.73203">
        <ele>595.59997558594</ele>
        <time>2021-07-24T06:15:31.000Z</time>
      </trkpt>
      <trkpt lat="45.21002" lon="5.73215">
        <ele>594.20001220703</ele>
        <time>2021-07-24T06:15:35.000Z</time>
      </trkpt>
      <trkpt lat="45.20998" lon="5.7322">
        <ele>593</ele>
        <time>2021-07-24T06:15:37.000Z</time>
      </trkpt>
      <trkpt lat="45.20996" lon="5.73223">
        <ele>593</ele>
        <time>2021-07-24T06:15:38.000Z</time>
      </trkpt>
      <trkpt lat="45.20994" lon="5.73226">
        <ele>592.79998779297</ele>
        <time>2021-07-24T06:15:39.000Z</time>
      </trkpt>
      <trkpt lat="45.20991" lon="5.73231">
        <ele>591.79998779297</ele>
        <time>2021-07-24T06:15:42.000Z</time>
      </trkpt>
      <trkpt lat="45.20989" lon="5.73232">
        <ele>591.59997558594</ele>
        <time>2021-07-24T06:15:43.000Z</time>
      </trkpt>
      <trkpt lat="45.20984" lon="5.73232">
        <ele>591.20001220703</ele>
        <time>2021-07-24T06:15:45.000Z</time>
      </trkpt>
      <trkpt lat="45.20979" lon="5.73234">
        <ele>590.79998779297</ele>
        <time>2021-07-24T06:15:47.000Z</time>
      </trkpt>
      <trkpt lat="45.20973" lon="5.73234">
        <ele>589.79998779297</ele>
        <time>2021-07-24T06:15:49.000Z</time>
      </trkpt>
      <trkpt lat="45.20971" lon="5.73234">
        <ele>588.59997558594</ele>
        <time>2021-07-24T06:15:51.000Z</time>
      </trkpt>
      <trkpt lat="45.2097" lon="5.73234">
        <ele>588.20001220703</ele>
        <time>2021-07-24T06:15:52.000Z</time>
      </trkpt>
      <trkpt lat="45.20972" lon="5.73234">
        <ele>588</ele>
        <time>2021-07-24T06:15:54.000Z</time>
      </trkpt>
      <trkpt lat="45.20976" lon="5.73232">
        <ele>587.20001220703</ele>
        <time>2021-07-24T06:15:56.000Z</time>
      </trkpt>
      <trkpt lat="45.20979" lon="5.73231">
        <ele>586.40002441406</ele>
        <time>2021-07-24T06:15:59.000Z</time>
      </trkpt>
      <trkpt lat="45.20979" lon="5.73232">
        <ele>585.59997558594</ele>
        <time>2021-07-24T06:16:00.000Z</time>
      </trkpt>
      <trkpt lat="45.20978" lon="5.73232">
        <ele>585.40002441406</ele>
        <time>2021-07-24T06:16:01.000Z</time>
      </trkpt>
      <trkpt lat="45.20972" lon="5.73233">
        <ele>584.20001220703</ele>
        <time>2021-07-24T06:16:05.000Z</time>
      </trkpt>
      <trkpt lat="45.20968" lon="5.73235">
        <ele>583.79998779297</ele>
        <time>2021-07-24T06:16:07.000Z</time>
      </trkpt>
      <trkpt lat="45.20963" lon="5.73235">
        <ele>582.59997558594</ele>
        <time>2021-07-24T06:16:09.000Z</time>
      </trkpt>
      <trkpt lat="45.20958" lon="5.73239">
        <ele>582.40002441406</ele>
        <time>2021-07-24T06:16:12.000Z</time>
      </trkpt>
      <trkpt lat="45.20954" lon="5.73241">
        <ele>581.40002441406</ele>
        <time>2021-07-24T06:16:15.000Z</time>
      </trkpt>
      <trkpt lat="45.20949" lon="5.73243">
        <ele>580.59997558594</ele>
        <time>2021-07-24T06:16:17.000Z</time>
      </trkpt>
      <trkpt lat="45.20947" lon="5.73245">
        <ele>580.20001220703</ele>
        <time>2021-07-24T06:16:18.000Z</time>
      </trkpt>
      <trkpt lat="45.20942" lon="5.73248">
        <ele>579</ele>
        <time>2021-07-24T06:16:21.000Z</time>
      </trkpt>
      <trkpt lat="45.20936" lon="5.73249">
        <ele>578.59997558594</ele>
        <time>2021-07-24T06:16:24.000Z</time>
      </trkpt>
      <trkpt lat="45.20929" lon="5.73247">
        <ele>578</ele>
        <time>2021-07-24T06:16:28.000Z</time>
      </trkpt>
      <trkpt lat="45.20926" lon="5.73245">
        <ele>577.20001220703</ele>
        <time>2021-07-24T06:16:30.000Z</time>
      </trkpt>
      <trkpt lat="45.20925" lon="5.73245">
        <ele>576.59997558594</ele>
        <time>2021-07-24T06:16:31.000Z</time>
      </trkpt>
      <trkpt lat="45.20924" lon="5.73245">
        <ele>576.40002441406</ele>
        <time>2021-07-24T06:16:34.000Z</time>
      </trkpt>
      <trkpt lat="45.20925" lon="5.73247">
        <ele>575.20001220703</ele>
        <time>2021-07-24T06:16:36.000Z</time>
      </trkpt>
      <trkpt lat="45.20931" lon="5.7325">
        <ele>574.40002441406</ele>
        <time>2021-07-24T06:16:40.000Z</time>
      </trkpt>
      <trkpt lat="45.20933" lon="5.73249">
        <ele>573.59997558594</ele>
        <time>2021-07-24T06:16:41.000Z</time>
      </trkpt>
      <trkpt lat="45.20936" lon="5.7325">
        <ele>573.20001220703</ele>
        <time>2021-07-24T06:16:43.000Z</time>
      </trkpt>
      <trkpt lat="45.2094" lon="5.7325">
        <ele>572.59997558594</ele>
        <time>2021-07-24T06:16:45.000Z</time>
      </trkpt>
      <trkpt lat="45.20942" lon="5.7325">
        <ele>572</ele>
        <time>2021-07-24T06:16:46.000Z</time>
      </trkpt>
      <trkpt lat="45.20946" lon="5.73249">
        <ele>571</ele>
        <time>2021-07-24T06:16:48.000Z</time>
      </trkpt>
      <trkpt lat="45.2095" lon="5.73249">
        <ele>570</ele>
        <time>2021-07-24T06:16:50.000Z</time>
      </trkpt>
      <trkpt lat="45.20953" lon="5.7325">
        <ele>569.59997558594</ele>
        <time>2021-07-24T06:16:52.000Z</time>
      </trkpt>
      <trkpt lat="45.20956" lon="5.73252">
        <ele>568.59997558594</ele>
        <time>2021-07-24T06:16:54.000Z</time>
      </trkpt>
      <trkpt lat="45.20957" lon="5.73253">
        <ele>568.59997558594</ele>
        <time>2021-07-24T06:16:55.000Z</time>
      </trkpt>
      <trkpt lat="45.2096" lon="5.73253">
        <ele>568</ele>
        <time>2021-07-24T06:16:58.000Z</time>
      </trkpt>
      <trkpt lat="45.20964" lon="5.73252">
        <ele>567.40002441406</ele>
        <time>2021-07-24T06:17:00.000Z</time>
      </trkpt>
      <trkpt lat="45.20965" lon="5.73253">
        <ele>567.20001220703</ele>
        <time>2021-07-24T06:17:01.000Z</time>
      </trkpt>
      <trkpt lat="45.20971" lon="5.73255">
        <ele>566.79998779297</ele>
        <time>2021-07-24T06:17:04.000Z</time>
      </trkpt>
      <trkpt lat="45.20975" lon="5.73255">
        <ele>566</ele>
        <time>2021-07-24T06:17:06.000Z</time>
      </trkpt>
      <trkpt lat="45.20974" lon="5.73257">
        <ele>565.79998779297</ele>
        <time>2021-07-24T06:17:08.000Z</time>
      </trkpt>
      <trkpt lat="45.20972" lon="5.73258">
        <ele>565</ele>
        <time>2021-07-24T06:17:09.000Z</time>
      </trkpt>
      <trkpt lat="45.20971" lon="5.73259">
        <ele>564.79998779297</ele>
        <time>2021-07-24T06:17:10.000Z</time>
      </trkpt>
      <trkpt lat="45.2097" lon="5.7326">
        <ele>564.40002441406</ele>
        <time>2021-07-24T06:17:11.000Z</time>
      </trkpt>
      <trkpt lat="45.2097" lon="5.73264">
        <ele>564</ele>
        <time>2021-07-24T06:17:13.000Z</time>
      </trkpt>
      <trkpt lat="45.20968" lon="5.73265">
        <ele>563.79998779297</ele>
        <time>2021-07-24T06:17:14.000Z</time>
      </trkpt>
      <trkpt lat="45.20966" lon="5.73266">
        <ele>563.59997558594</ele>
        <time>2021-07-24T06:17:15.000Z</time>
      </trkpt>
      <trkpt lat="45.20962" lon="5.73266">
        <ele>562.59997558594</ele>
        <time>2021-07-24T06:17:17.000Z</time>
      </trkpt>
      <trkpt lat="45.2096" lon="5.73266">
        <ele>562</ele>
        <time>2021-07-24T06:17:18.000Z</time>
      </trkpt>
      <trkpt lat="45.20958" lon="5.73267">
        <ele>562</ele>
        <time>2021-07-24T06:17:19.000Z</time>
      </trkpt>
      <trkpt lat="45.20954" lon="5.73269">
        <ele>560.79998779297</ele>
        <time>2021-07-24T06:17:22.000Z</time>
      </trkpt>
      <trkpt lat="45.20953" lon="5.73273">
        <ele>560.59997558594</ele>
        <time>2021-07-24T06:17:25.000Z</time>
      </trkpt>
      <trkpt lat="45.20948" lon="5.73277">
        <ele>559.20001220703</ele>
        <time>2021-07-24T06:17:28.000Z</time>
      </trkpt>
      <trkpt lat="45.20943" lon="5.73281">
        <ele>558.79998779297</ele>
        <time>2021-07-24T06:17:31.000Z</time>
      </trkpt>
      <trkpt lat="45.20942" lon="5.73282">
        <ele>558.59997558594</ele>
        <time>2021-07-24T06:17:32.000Z</time>
      </trkpt>
      <trkpt lat="45.20939" lon="5.73281">
        <ele>558</ele>
        <time>2021-07-24T06:17:34.000Z</time>
      </trkpt>
      <trkpt lat="45.20935" lon="5.7328">
        <ele>557.40002441406</ele>
        <time>2021-07-24T06:17:36.000Z</time>
      </trkpt>
      <trkpt lat="45.20934" lon="5.73279">
        <ele>557.40002441406</ele>
        <time>2021-07-24T06:17:37.000Z</time>
      </trkpt>
      <trkpt lat="45.20931" lon="5.73279">
        <ele>556</ele>
        <time>2021-07-24T06:17:38.000Z</time>
      </trkpt>
      <trkpt lat="45.2092" lon="5.73275">
        <ele>555.40002441406</ele>
        <time>2021-07-24T06:17:43.000Z</time>
      </trkpt>
      <trkpt lat="45.20917" lon="5.73276">
        <ele>555</ele>
        <time>2021-07-24T06:17:44.000Z</time>
      </trkpt>
      <trkpt lat="45.2091" lon="5.73275">
        <ele>553.20001220703</ele>
        <time>2021-07-24T06:17:47.000Z</time>
      </trkpt>
      <trkpt lat="45.20903" lon="5.73272">
        <ele>552</ele>
        <time>2021-07-24T06:17:51.000Z</time>
      </trkpt>
      <trkpt lat="45.20903" lon="5.73273">
        <ele>551.20001220703</ele>
        <time>2021-07-24T06:17:54.000Z</time>
      </trkpt>
      <trkpt lat="45.20904" lon="5.73272">
        <ele>551.20001220703</ele>
        <time>2021-07-24T06:17:55.000Z</time>
      </trkpt>
      <trkpt lat="45.20902" lon="5.7327">
        <ele>551</ele>
        <time>2021-07-24T06:17:58.000Z</time>
      </trkpt>
      <trkpt lat="45.20901" lon="5.73269">
        <ele>551</ele>
        <time>2021-07-24T06:17:59.000Z</time>
      </trkpt>
      <trkpt lat="45.20901" lon="5.73269">
        <ele>551</ele>
        <time>2021-07-24T06:18:00.000Z</time>
      </trkpt>
      <trkpt lat="45.20901" lon="5.73268">
        <ele>551</ele>
        <time>2021-07-24T06:18:02.000Z</time>
      </trkpt>
      <trkpt lat="45.20902" lon="5.73269">
        <ele>551</ele>
        <time>2021-07-24T06:18:06.000Z</time>
      </trkpt>
      <trkpt lat="45.20903" lon="5.73271">
        <ele>551</ele>
        <time>2021-07-24T06:18:11.000Z</time>
      </trkpt>
      <trkpt lat="45.20903" lon="5.73271">
        <ele>551</ele>
        <time>2021-07-24T06:18:18.000Z</time>
      </trkpt>
      <trkpt lat="45.20902" lon="5.73271">
        <ele>551</ele>
        <time>2021-07-24T06:18:27.000Z</time>
      </trkpt>
      <trkpt lat="45.20902" lon="5.73272">
        <ele>550.79998779297</ele>
        <time>2021-07-24T06:18:33.000Z</time>
      </trkpt>
      <trkpt lat="45.20907" lon="5.73273">
        <ele>549.20001220703</ele>
        <time>2021-07-24T06:18:36.000Z</time>
      </trkpt>
      <trkpt lat="45.20908" lon="5.73274">
        <ele>548.79998779297</ele>
        <time>2021-07-24T06:18:37.000Z</time>
      </trkpt>
      <trkpt lat="45.20914" lon="5.73278">
        <ele>547.79998779297</ele>
        <time>2021-07-24T06:18:41.000Z</time>
      </trkpt>
      <trkpt lat="45.20915" lon="5.73279">
        <ele>547.20001220703</ele>
        <time>2021-07-24T06:18:42.000Z</time>
      </trkpt>
      <trkpt lat="45.20919" lon="5.73281">
        <ele>546.40002441406</ele>
        <time>2021-07-24T06:18:44.000Z</time>
      </trkpt>
      <trkpt lat="45.20928" lon="5.73285">
        <ele>545.40002441406</ele>
        <time>2021-07-24T06:18:48.000Z</time>
      </trkpt>
      <trkpt lat="45.2093" lon="5.73285">
        <ele>545</ele>
        <time>2021-07-24T06:18:49.000Z</time>
      </trkpt>
      <trkpt lat="45.20935" lon="5.73286">
        <ele>544.59997558594</ele>
        <time>2021-07-24T06:18:51.000Z</time>
      </trkpt>
      <trkpt lat="45.20939" lon="5.73288">
        <ele>544.20001220703</ele>
        <time>2021-07-24T06:18:53.000Z</time>
      </trkpt>
      <trkpt lat="45.20941" lon="5.73287">
        <ele>544.20001220703</ele>
        <time>2021-07-24T06:18:54.000Z</time>
      </trkpt>
      <trkpt lat="45.20942" lon="5.73287">
        <ele>543.79998779297</ele>
        <time>2021-07-24T06:18:55.000Z</time>
      </trkpt>
      <trkpt lat="45.20944" lon="5.73287">
        <ele>543</ele>
        <time>2021-07-24T06:18:56.000Z</time>
      </trkpt>
      <trkpt lat="45.20948" lon="5.73287">
        <ele>542</ele>
        <time>2021-07-24T06:18:58.000Z</time>
      </trkpt>
      <trkpt lat="45.20949" lon="5.73286">
        <ele>541.79998779297</ele>
        <time>2021-07-24T06:18:59.000Z</time>
      </trkpt>
      <trkpt lat="45.20952" lon="5.73286">
        <ele>541.59997558594</ele>
        <time>2021-07-24T06:19:01.000Z</time>
      </trkpt>
      <trkpt lat="45.20954" lon="5.73287">
        <ele>541.59997558594</ele>
        <time>2021-07-24T06:19:02.000Z</time>
      </trkpt>
      <trkpt lat="45.20957" lon="5.73289">
        <ele>541.40002441406</ele>
        <time>2021-07-24T06:19:04.000Z</time>
      </trkpt>
      <trkpt lat="45.20958" lon="5.7329">
        <ele>540</ele>
        <time>2021-07-24T06:19:05.000Z</time>
      </trkpt>
      <trkpt lat="45.20963" lon="5.73292">
        <ele>539</ele>
        <time>2021-07-24T06:19:08.000Z</time>
      </trkpt>
      <trkpt lat="45.20965" lon="5.73292">
        <ele>539</ele>
        <time>2021-07-24T06:19:09.000Z</time>
      </trkpt>
      <trkpt lat="45.20969" lon="5.73294">
        <ele>538.20001220703</ele>
        <time>2021-07-24T06:19:11.000Z</time>
      </trkpt>
      <trkpt lat="45.20971" lon="5.73296">
        <ele>538</ele>
        <time>2021-07-24T06:19:12.000Z</time>
      </trkpt>
      <trkpt lat="45.20976" lon="5.73299">
        <ele>537</ele>
        <time>2021-07-24T06:19:15.000Z</time>
      </trkpt>
      <trkpt lat="45.20978" lon="5.73299">
        <ele>536.59997558594</ele>
        <time>2021-07-24T06:19:16.000Z</time>
      </trkpt>
      <trkpt lat="45.20982" lon="5.73299">
        <ele>536</ele>
        <time>2021-07-24T06:19:19.000Z</time>
      </trkpt>
      <trkpt lat="45.20983" lon="5.73301">
        <ele>535.79998779297</ele>
        <time>2021-07-24T06:19:20.000Z</time>
      </trkpt>
      <trkpt lat="45.20983" lon="5.73302">
        <ele>535.20001220703</ele>
        <time>2021-07-24T06:19:21.000Z</time>
      </trkpt>
      <trkpt lat="45.20977" lon="5.73307">
        <ele>533.59997558594</ele>
        <time>2021-07-24T06:19:26.000Z</time>
      </trkpt>
      <trkpt lat="45.20977" lon="5.73308">
        <ele>533.20001220703</ele>
        <time>2021-07-24T06:19:27.000Z</time>
      </trkpt>
      <trkpt lat="45.20974" lon="5.73309">
        <ele>532.59997558594</ele>
        <time>2021-07-24T06:19:30.000Z</time>
      </trkpt>
      <trkpt lat="45.2097" lon="5.73311">
        <ele>531.59997558594</ele>
        <time>2021-07-24T06:19:33.000Z</time>
      </trkpt>
      <trkpt lat="45.20968" lon="5.73312">
        <ele>531.40002441406</ele>
        <time>2021-07-24T06:19:34.000Z</time>
      </trkpt>
      <trkpt lat="45.20967" lon="5.73314">
        <ele>531</ele>
        <time>2021-07-24T06:19:35.000Z</time>
      </trkpt>
      <trkpt lat="45.20964" lon="5.73318">
        <ele>530</ele>
        <time>2021-07-24T06:19:37.000Z</time>
      </trkpt>
      <trkpt lat="45.20961" lon="5.73322">
        <ele>529.79998779297</ele>
        <time>2021-07-24T06:19:39.000Z</time>
      </trkpt>
      <trkpt lat="45.20954" lon="5.73327">
        <ele>528.79998779297</ele>
        <time>2021-07-24T06:19:43.000Z</time>
      </trkpt>
      <trkpt lat="45.20943" lon="5.73328">
        <ele>527.59997558594</ele>
        <time>2021-07-24T06:19:47.000Z</time>
      </trkpt>
      <trkpt lat="45.20935" lon="5.73327">
        <ele>526.59997558594</ele>
        <time>2021-07-24T06:19:51.000Z</time>
      </trkpt>
      <trkpt lat="45.20932" lon="5.73325">
        <ele>525.79998779297</ele>
        <time>2021-07-24T06:19:53.000Z</time>
      </trkpt>
      <trkpt lat="45.20928" lon="5.73325">
        <ele>525.20001220703</ele>
        <time>2021-07-24T06:19:55.000Z</time>
      </trkpt>
      <trkpt lat="45.2092" lon="5.73323">
        <ele>524.40002441406</ele>
        <time>2021-07-24T06:19:58.000Z</time>
      </trkpt>
      <trkpt lat="45.20916" lon="5.73323">
        <ele>523.79998779297</ele>
        <time>2021-07-24T06:20:00.000Z</time>
      </trkpt>
      <trkpt lat="45.20912" lon="5.73324">
        <ele>522.79998779297</ele>
        <time>2021-07-24T06:20:03.000Z</time>
      </trkpt>
      <trkpt lat="45.20911" lon="5.73325">
        <ele>522.79998779297</ele>
        <time>2021-07-24T06:20:04.000Z</time>
      </trkpt>
      <trkpt lat="45.20909" lon="5.73325">
        <ele>521.59997558594</ele>
        <time>2021-07-24T06:20:05.000Z</time>
      </trkpt>
      <trkpt lat="45.20898" lon="5.73329">
        <ele>520.79998779297</ele>
        <time>2021-07-24T06:20:10.000Z</time>
      </trkpt>
      <trkpt lat="45.20896" lon="5.7333">
        <ele>520</ele>
        <time>2021-07-24T06:20:11.000Z</time>
      </trkpt>
      <trkpt lat="45.20889" lon="5.7333">
        <ele>518.79998779297</ele>
        <time>2021-07-24T06:20:15.000Z</time>
      </trkpt>
      <trkpt lat="45.20886" lon="5.73333">
        <ele>517.79998779297</ele>
        <time>2021-07-24T06:20:17.000Z</time>
      </trkpt>
      <trkpt lat="45.2088" lon="5.73335">
        <ele>517.40002441406</ele>
        <time>2021-07-24T06:20:20.000Z</time>
      </trkpt>
      <trkpt lat="45.20875" lon="5.73335">
        <ele>516</ele>
        <time>2021-07-24T06:20:22.000Z</time>
      </trkpt>
      <trkpt lat="45.20873" lon="5.73335">
        <ele>516</ele>
        <time>2021-07-24T06:20:23.000Z</time>
      </trkpt>
      <trkpt lat="45.20866" lon="5.7333">
        <ele>515.40002441406</ele>
        <time>2021-07-24T06:20:27.000Z</time>
      </trkpt>
      <trkpt lat="45.20864" lon="5.73329">
        <ele>515.20001220703</ele>
        <time>2021-07-24T06:20:28.000Z</time>
      </trkpt>
      <trkpt lat="45.20863" lon="5.73329">
        <ele>514.79998779297</ele>
        <time>2021-07-24T06:20:29.000Z</time>
      </trkpt>
      <trkpt lat="45.20859" lon="5.73328">
        <ele>513.20001220703</ele>
        <time>2021-07-24T06:20:32.000Z</time>
      </trkpt>
      <trkpt lat="45.20855" lon="5.73324">
        <ele>512.59997558594</ele>
        <time>2021-07-24T06:20:35.000Z</time>
      </trkpt>
      <trkpt lat="45.20854" lon="5.73323">
        <ele>512.40002441406</ele>
        <time>2021-07-24T06:20:37.000Z</time>
      </trkpt>
      <trkpt lat="45.20855" lon="5.73323">
        <ele>511.79998779297</ele>
        <time>2021-07-24T06:20:38.000Z</time>
      </trkpt>
      <trkpt lat="45.20855" lon="5.73324">
        <ele>511.60000610352</ele>
        <time>2021-07-24T06:20:39.000Z</time>
      </trkpt>
      <trkpt lat="45.20856" lon="5.73324">
        <ele>511.60000610352</ele>
        <time>2021-07-24T06:20:40.000Z</time>
      </trkpt>
      <trkpt lat="45.20856" lon="5.73324">
        <ele>511.60000610352</ele>
        <time>2021-07-24T06:20:41.000Z</time>
      </trkpt>
      <trkpt lat="45.20858" lon="5.73325">
        <ele>510.39999389648</ele>
        <time>2021-07-24T06:20:43.000Z</time>
      </trkpt>
      <trkpt lat="45.20858" lon="5.73326">
        <ele>510.39999389648</ele>
        <time>2021-07-24T06:20:44.000Z</time>
      </trkpt>
      <trkpt lat="45.20857" lon="5.73325">
        <ele>510.39999389648</ele>
        <time>2021-07-24T06:20:46.000Z</time>
      </trkpt>
      <trkpt lat="45.20857" lon="5.73324">
        <ele>510.60000610352</ele>
        <time>2021-07-24T06:20:47.000Z</time>
      </trkpt>
      <trkpt lat="45.20852" lon="5.73316">
        <ele>511.39999389648</ele>
        <time>2021-07-24T06:20:52.000Z</time>
      </trkpt>
      <trkpt lat="45.20852" lon="5.73313">
        <ele>512.40002441406</ele>
        <time>2021-07-24T06:20:53.000Z</time>
      </trkpt>
      <trkpt lat="45.20851" lon="5.73303">
        <ele>513.40002441406</ele>
        <time>2021-07-24T06:20:58.000Z</time>
      </trkpt>
      <trkpt lat="45.20851" lon="5.73301">
        <ele>513.59997558594</ele>
        <time>2021-07-24T06:20:59.000Z</time>
      </trkpt>
      <trkpt lat="45.20849" lon="5.73298">
        <ele>514.40002441406</ele>
        <time>2021-07-24T06:21:01.000Z</time>
      </trkpt>
      <trkpt lat="45.20849" lon="5.73297">
        <ele>514.40002441406</ele>
        <time>2021-07-24T06:21:02.000Z</time>
      </trkpt>
      <trkpt lat="45.2085" lon="5.73294">
        <ele>515</ele>
        <time>2021-07-24T06:21:03.000Z</time>
      </trkpt>
      <trkpt lat="45.20854" lon="5.73289">
        <ele>516.40002441406</ele>
        <time>2021-07-24T06:21:06.000Z</time>
      </trkpt>
      <trkpt lat="45.20855" lon="5.73289">
        <ele>516.59997558594</ele>
        <time>2021-07-24T06:21:07.000Z</time>
      </trkpt>
      <trkpt lat="45.20857" lon="5.73289">
        <ele>517.79998779297</ele>
        <time>2021-07-24T06:21:10.000Z</time>
      </trkpt>
      <trkpt lat="45.20858" lon="5.73289">
        <ele>518</ele>
        <time>2021-07-24T06:21:11.000Z</time>
      </trkpt>
      <trkpt lat="45.20859" lon="5.73289">
        <ele>518.40002441406</ele>
        <time>2021-07-24T06:21:13.000Z</time>
      </trkpt>
      <trkpt lat="45.2086" lon="5.73289">
        <ele>519</ele>
        <time>2021-07-24T06:21:14.000Z</time>
      </trkpt>
      <trkpt lat="45.20863" lon="5.73289">
        <ele>519.79998779297</ele>
        <time>2021-07-24T06:21:17.000Z</time>
      </trkpt>
      <trkpt lat="45.20863" lon="5.73289">
        <ele>520</ele>
        <time>2021-07-24T06:21:18.000Z</time>
      </trkpt>
      <trkpt lat="45.20864" lon="5.73289">
        <ele>520.40002441406</ele>
        <time>2021-07-24T06:21:19.000Z</time>
      </trkpt>
      <trkpt lat="45.20865" lon="5.7329">
        <ele>521</ele>
        <time>2021-07-24T06:21:21.000Z</time>
      </trkpt>
      <trkpt lat="45.20866" lon="5.7329">
        <ele>521.20001220703</ele>
        <time>2021-07-24T06:21:23.000Z</time>
      </trkpt>
      <trkpt lat="45.20866" lon="5.7329">
        <ele>522.20001220703</ele>
        <time>2021-07-24T06:21:24.000Z</time>
      </trkpt>
      <trkpt lat="45.20871" lon="5.73292">
        <ele>523</ele>
        <time>2021-07-24T06:21:29.000Z</time>
      </trkpt>
      <trkpt lat="45.20872" lon="5.73292">
        <ele>523.59997558594</ele>
        <time>2021-07-24T06:21:30.000Z</time>
      </trkpt>
      <trkpt lat="45.20873" lon="5.73291">
        <ele>523.59997558594</ele>
        <time>2021-07-24T06:21:31.000Z</time>
      </trkpt>
      <trkpt lat="45.20874" lon="5.7329">
        <ele>524.59997558594</ele>
        <time>2021-07-24T06:21:33.000Z</time>
      </trkpt>
      <trkpt lat="45.20874" lon="5.73288">
        <ele>524.79998779297</ele>
        <time>2021-07-24T06:21:35.000Z</time>
      </trkpt>
      <trkpt lat="45.20874" lon="5.73287">
        <ele>525.59997558594</ele>
        <time>2021-07-24T06:21:36.000Z</time>
      </trkpt>
      <trkpt lat="45.20874" lon="5.73285">
        <ele>526</ele>
        <time>2021-07-24T06:21:38.000Z</time>
      </trkpt>
      <trkpt lat="45.20873" lon="5.73282">
        <ele>527.20001220703</ele>
        <time>2021-07-24T06:21:41.000Z</time>
      </trkpt>
      <trkpt lat="45.20873" lon="5.73281">
        <ele>527.40002441406</ele>
        <time>2021-07-24T06:21:42.000Z</time>
      </trkpt>
      <trkpt lat="45.20873" lon="5.73279">
        <ele>527.40002441406</ele>
        <time>2021-07-24T06:21:43.000Z</time>
      </trkpt>
      <trkpt lat="45.20873" lon="5.73276">
        <ele>528.59997558594</ele>
        <time>2021-07-24T06:21:47.000Z</time>
      </trkpt>
      <trkpt lat="45.20873" lon="5.73274">
        <ele>529.20001220703</ele>
        <time>2021-07-24T06:21:49.000Z</time>
      </trkpt>
      <trkpt lat="45.20874" lon="5.73273">
        <ele>529.59997558594</ele>
        <time>2021-07-24T06:21:50.000Z</time>
      </trkpt>
      <trkpt lat="45.20874" lon="5.73272">
        <ele>529.79998779297</ele>
        <time>2021-07-24T06:21:52.000Z</time>
      </trkpt>
      <trkpt lat="45.20874" lon="5.73267">
        <ele>531.20001220703</ele>
        <time>2021-07-24T06:21:56.000Z</time>
      </trkpt>
      <trkpt lat="45.20874" lon="5.73266">
        <ele>531.40002441406</ele>
        <time>2021-07-24T06:21:57.000Z</time>
      </trkpt>
      <trkpt lat="45.20873" lon="5.73264">
        <ele>531.79998779297</ele>
        <time>2021-07-24T06:21:59.000Z</time>
      </trkpt>
      <trkpt lat="45.20874" lon="5.73263">
        <ele>531.79998779297</ele>
        <time>2021-07-24T06:22:00.000Z</time>
      </trkpt>
      <trkpt lat="45.20874" lon="5.73263">
        <ele>532.20001220703</ele>
        <time>2021-07-24T06:22:01.000Z</time>
      </trkpt>
      <trkpt lat="45.20874" lon="5.73262">
        <ele>532.59997558594</ele>
        <time>2021-07-24T06:22:02.000Z</time>
      </trkpt>
      <trkpt lat="45.20873" lon="5.73261">
        <ele>532.59997558594</ele>
        <time>2021-07-24T06:22:03.000Z</time>
      </trkpt>
      <trkpt lat="45.2087" lon="5.73259">
        <ele>532.59997558594</ele>
        <time>2021-07-24T06:22:05.000Z</time>
      </trkpt>
      <trkpt lat="45.20868" lon="5.73257">
        <ele>532.59997558594</ele>
        <time>2021-07-24T06:22:07.000Z</time>
      </trkpt>
      <trkpt lat="45.20862" lon="5.73249">
        <ele>533</ele>
        <time>2021-07-24T06:22:12.000Z</time>
      </trkpt>
      <trkpt lat="45.20862" lon="5.73247">
        <ele>533.20001220703</ele>
        <time>2021-07-24T06:22:13.000Z</time>
      </trkpt>
      <trkpt lat="45.2086" lon="5.73242">
        <ele>533.40002441406</ele>
        <time>2021-07-24T06:22:15.000Z</time>
      </trkpt>
      <trkpt lat="45.20855" lon="5.73233">
        <ele>534.20001220703</ele>
        <time>2021-07-24T06:22:20.000Z</time>
      </trkpt>
      <trkpt lat="45.20848" lon="5.73225">
        <ele>534.20001220703</ele>
        <time>2021-07-24T06:22:25.000Z</time>
      </trkpt>
      <trkpt lat="45.20846" lon="5.73224">
        <ele>534.59997558594</ele>
        <time>2021-07-24T06:22:26.000Z</time>
      </trkpt>
      <trkpt lat="45.20845" lon="5.73222">
        <ele>534.59997558594</ele>
        <time>2021-07-24T06:22:27.000Z</time>
      </trkpt>
      <trkpt lat="45.2084" lon="5.73211">
        <ele>535.59997558594</ele>
        <time>2021-07-24T06:22:32.000Z</time>
      </trkpt>
      <trkpt lat="45.20837" lon="5.73207">
        <ele>536.20001220703</ele>
        <time>2021-07-24T06:22:34.000Z</time>
      </trkpt>
      <trkpt lat="45.20834" lon="5.73199">
        <ele>537</ele>
        <time>2021-07-24T06:22:38.000Z</time>
      </trkpt>
      <trkpt lat="45.20834" lon="5.73195">
        <ele>537.59997558594</ele>
        <time>2021-07-24T06:22:40.000Z</time>
      </trkpt>
      <trkpt lat="45.20833" lon="5.73193">
        <ele>537.79998779297</ele>
        <time>2021-07-24T06:22:41.000Z</time>
      </trkpt>
      <trkpt lat="45.20832" lon="5.73189">
        <ele>538</ele>
        <time>2021-07-24T06:22:43.000Z</time>
      </trkpt>
      <trkpt lat="45.20832" lon="5.73187">
        <ele>539</ele>
        <time>2021-07-24T06:22:44.000Z</time>
      </trkpt>
      <trkpt lat="45.20832" lon="5.73186">
        <ele>539</ele>
        <time>2021-07-24T06:22:45.000Z</time>
      </trkpt>
      <trkpt lat="45.20831" lon="5.73177">
        <ele>540</ele>
        <time>2021-07-24T06:22:49.000Z</time>
      </trkpt>
      <trkpt lat="45.2083" lon="5.73175">
        <ele>540.40002441406</ele>
        <time>2021-07-24T06:22:51.000Z</time>
      </trkpt>
      <trkpt lat="45.20829" lon="5.73173">
        <ele>540.40002441406</ele>
        <time>2021-07-24T06:22:52.000Z</time>
      </trkpt>
      <trkpt lat="45.20824" lon="5.73165">
        <ele>541.59997558594</ele>
        <time>2021-07-24T06:22:57.000Z</time>
      </trkpt>
      <trkpt lat="45.2082" lon="5.73159">
        <ele>542.59997558594</ele>
        <time>2021-07-24T06:23:02.000Z</time>
      </trkpt>
      <trkpt lat="45.20816" lon="5.73155">
        <ele>543.20001220703</ele>
        <time>2021-07-24T06:23:06.000Z</time>
      </trkpt>
      <trkpt lat="45.20813" lon="5.73149">
        <ele>543.59997558594</ele>
        <time>2021-07-24T06:23:09.000Z</time>
      </trkpt>
      <trkpt lat="45.20809" lon="5.73144">
        <ele>544.59997558594</ele>
        <time>2021-07-24T06:23:13.000Z</time>
      </trkpt>
      <trkpt lat="45.20807" lon="5.73141">
        <ele>544.79998779297</ele>
        <time>2021-07-24T06:23:15.000Z</time>
      </trkpt>
      <trkpt lat="45.20805" lon="5.73138">
        <ele>545.79998779297</ele>
        <time>2021-07-24T06:23:17.000Z</time>
      </trkpt>
      <trkpt lat="45.20801" lon="5.73135">
        <ele>546.20001220703</ele>
        <time>2021-07-24T06:23:20.000Z</time>
      </trkpt>
      <trkpt lat="45.20797" lon="5.7313">
        <ele>547.40002441406</ele>
        <time>2021-07-24T06:23:24.000Z</time>
      </trkpt>
      <trkpt lat="45.20797" lon="5.73128">
        <ele>547.59997558594</ele>
        <time>2021-07-24T06:23:25.000Z</time>
      </trkpt>
      <trkpt lat="45.20796" lon="5.73123">
        <ele>548</ele>
        <time>2021-07-24T06:23:27.000Z</time>
      </trkpt>
      <trkpt lat="45.20795" lon="5.73121">
        <ele>548.59997558594</ele>
        <time>2021-07-24T06:23:28.000Z</time>
      </trkpt>
      <trkpt lat="45.20792" lon="5.73112">
        <ele>549.79998779297</ele>
        <time>2021-07-24T06:23:34.000Z</time>
      </trkpt>
      <trkpt lat="45.20791" lon="5.73111">
        <ele>549.79998779297</ele>
        <time>2021-07-24T06:23:35.000Z</time>
      </trkpt>
      <trkpt lat="45.20792" lon="5.73108">
        <ele>550.40002441406</ele>
        <time>2021-07-24T06:23:38.000Z</time>
      </trkpt>
      <trkpt lat="45.2079" lon="5.73105">
        <ele>550.59997558594</ele>
        <time>2021-07-24T06:23:40.000Z</time>
      </trkpt>
      <trkpt lat="45.20789" lon="5.73104">
        <ele>551.59997558594</ele>
        <time>2021-07-24T06:23:41.000Z</time>
      </trkpt>
      <trkpt lat="45.20785" lon="5.73096">
        <ele>552.79998779297</ele>
        <time>2021-07-24T06:23:45.000Z</time>
      </trkpt>
      <trkpt lat="45.20785" lon="5.73094">
        <ele>553</ele>
        <time>2021-07-24T06:23:46.000Z</time>
      </trkpt>
      <trkpt lat="45.20785" lon="5.73091">
        <ele>553.40002441406</ele>
        <time>2021-07-24T06:23:48.000Z</time>
      </trkpt>
      <trkpt lat="45.20784" lon="5.73088">
        <ele>553.79998779297</ele>
        <time>2021-07-24T06:23:50.000Z</time>
      </trkpt>
      <trkpt lat="45.20782" lon="5.73087">
        <ele>554</ele>
        <time>2021-07-24T06:23:51.000Z</time>
      </trkpt>
      <trkpt lat="45.20777" lon="5.73081">
        <ele>555.40002441406</ele>
        <time>2021-07-24T06:23:56.000Z</time>
      </trkpt>
      <trkpt lat="45.20776" lon="5.7308">
        <ele>555.59997558594</ele>
        <time>2021-07-24T06:23:58.000Z</time>
      </trkpt>
      <trkpt lat="45.20775" lon="5.73079">
        <ele>555.59997558594</ele>
        <time>2021-07-24T06:23:59.000Z</time>
      </trkpt>
      <trkpt lat="45.20774" lon="5.73076">
        <ele>556.40002441406</ele>
        <time>2021-07-24T06:24:00.000Z</time>
      </trkpt>
      <trkpt lat="45.20773" lon="5.73074">
        <ele>556.40002441406</ele>
        <time>2021-07-24T06:24:01.000Z</time>
      </trkpt>
      <trkpt lat="45.20772" lon="5.73072">
        <ele>556.59997558594</ele>
        <time>2021-07-24T06:24:03.000Z</time>
      </trkpt>
      <trkpt lat="45.2077" lon="5.73072">
        <ele>556.59997558594</ele>
        <time>2021-07-24T06:24:04.000Z</time>
      </trkpt>
      <trkpt lat="45.20769" lon="5.73071">
        <ele>557</ele>
        <time>2021-07-24T06:24:05.000Z</time>
      </trkpt>
      <trkpt lat="45.20768" lon="5.73069">
        <ele>557.40002441406</ele>
        <time>2021-07-24T06:24:06.000Z</time>
      </trkpt>
      <trkpt lat="45.20763" lon="5.73063">
        <ele>558.59997558594</ele>
        <time>2021-07-24T06:24:10.000Z</time>
      </trkpt>
      <trkpt lat="45.20762" lon="5.73062">
        <ele>558.59997558594</ele>
        <time>2021-07-24T06:24:11.000Z</time>
      </trkpt>
      <trkpt lat="45.20753" lon="5.73057">
        <ele>559.40002441406</ele>
        <time>2021-07-24T06:24:18.000Z</time>
      </trkpt>
      <trkpt lat="45.2075" lon="5.73053">
        <ele>559.59997558594</ele>
        <time>2021-07-24T06:24:21.000Z</time>
      </trkpt>
      <trkpt lat="45.20747" lon="5.73046">
        <ele>560.20001220703</ele>
        <time>2021-07-24T06:24:24.000Z</time>
      </trkpt>
      <trkpt lat="45.2074" lon="5.73038">
        <ele>560.40002441406</ele>
        <time>2021-07-24T06:24:29.000Z</time>
      </trkpt>
      <trkpt lat="45.20737" lon="5.73037">
        <ele>560.40002441406</ele>
        <time>2021-07-24T06:24:30.000Z</time>
      </trkpt>
      <trkpt lat="45.20735" lon="5.73035">
        <ele>560.40002441406</ele>
        <time>2021-07-24T06:24:31.000Z</time>
      </trkpt>
      <trkpt lat="45.20734" lon="5.73033">
        <ele>560.79998779297</ele>
        <time>2021-07-24T06:24:32.000Z</time>
      </trkpt>
      <trkpt lat="45.2073" lon="5.73028">
        <ele>561.20001220703</ele>
        <time>2021-07-24T06:24:35.000Z</time>
      </trkpt>
      <trkpt lat="45.20726" lon="5.73023">
        <ele>562</ele>
        <time>2021-07-24T06:24:38.000Z</time>
      </trkpt>
      <trkpt lat="45.20724" lon="5.73019">
        <ele>563</ele>
        <time>2021-07-24T06:24:40.000Z</time>
      </trkpt>
      <trkpt lat="45.20723" lon="5.73017">
        <ele>563</ele>
        <time>2021-07-24T06:24:41.000Z</time>
      </trkpt>
      <trkpt lat="45.20721" lon="5.73011">
        <ele>563.20001220703</ele>
        <time>2021-07-24T06:24:44.000Z</time>
      </trkpt>
      <trkpt lat="45.20717" lon="5.73004">
        <ele>564.20001220703</ele>
        <time>2021-07-24T06:24:47.000Z</time>
      </trkpt>
      <trkpt lat="45.20715" lon="5.73001">
        <ele>564.40002441406</ele>
        <time>2021-07-24T06:24:49.000Z</time>
      </trkpt>
      <trkpt lat="45.20712" lon="5.72992">
        <ele>565.40002441406</ele>
        <time>2021-07-24T06:24:53.000Z</time>
      </trkpt>
      <trkpt lat="45.20711" lon="5.72988">
        <ele>565.79998779297</ele>
        <time>2021-07-24T06:24:55.000Z</time>
      </trkpt>
      <trkpt lat="45.20702" lon="5.72984">
        <ele>566.59997558594</ele>
        <time>2021-07-24T06:24:59.000Z</time>
      </trkpt>
      <trkpt lat="45.20686" lon="5.72972">
        <ele>567.59997558594</ele>
        <time>2021-07-24T06:25:07.000Z</time>
      </trkpt>
      <trkpt lat="45.20686" lon="5.72969">
        <ele>567.79998779297</ele>
        <time>2021-07-24T06:25:08.000Z</time>
      </trkpt>
      <trkpt lat="45.20676" lon="5.72957">
        <ele>568.79998779297</ele>
        <time>2021-07-24T06:25:13.000Z</time>
      </trkpt>
      <trkpt lat="45.20675" lon="5.72955">
        <ele>569</ele>
        <time>2021-07-24T06:25:14.000Z</time>
      </trkpt>
      <trkpt lat="45.20669" lon="5.72943">
        <ele>570.59997558594</ele>
        <time>2021-07-24T06:25:19.000Z</time>
      </trkpt>
      <trkpt lat="45.20666" lon="5.72938">
        <ele>570.79998779297</ele>
        <time>2021-07-24T06:25:21.000Z</time>
      </trkpt>
      <trkpt lat="45.20658" lon="5.72928">
        <ele>572</ele>
        <time>2021-07-24T06:25:27.000Z</time>
      </trkpt>
      <trkpt lat="45.20651" lon="5.72919">
        <ele>573.20001220703</ele>
        <time>2021-07-24T06:25:32.000Z</time>
      </trkpt>
      <trkpt lat="45.20646" lon="5.72913">
        <ele>573.79998779297</ele>
        <time>2021-07-24T06:25:35.000Z</time>
      </trkpt>
      <trkpt lat="45.20636" lon="5.72904">
        <ele>573.79998779297</ele>
        <time>2021-07-24T06:25:41.000Z</time>
      </trkpt>
      <trkpt lat="45.2063" lon="5.729">
        <ele>573.59997558594</ele>
        <time>2021-07-24T06:25:44.000Z</time>
      </trkpt>
      <trkpt lat="45.20619" lon="5.72891">
        <ele>572.79998779297</ele>
        <time>2021-07-24T06:25:49.000Z</time>
      </trkpt>
      <trkpt lat="45.20604" lon="5.72878">
        <ele>572.79998779297</ele>
        <time>2021-07-24T06:25:55.000Z</time>
      </trkpt>
      <trkpt lat="45.20602" lon="5.72876">
        <ele>572.79998779297</ele>
        <time>2021-07-24T06:25:56.000Z</time>
      </trkpt>
      <trkpt lat="45.20591" lon="5.72864">
        <ele>574</ele>
        <time>2021-07-24T06:26:02.000Z</time>
      </trkpt>
      <trkpt lat="45.20589" lon="5.72862">
        <ele>574.20001220703</ele>
        <time>2021-07-24T06:26:03.000Z</time>
      </trkpt>
      <trkpt lat="45.20586" lon="5.72859">
        <ele>574.20001220703</ele>
        <time>2021-07-24T06:26:05.000Z</time>
      </trkpt>
      <trkpt lat="45.20582" lon="5.72856">
        <ele>574.20001220703</ele>
        <time>2021-07-24T06:26:07.000Z</time>
      </trkpt>
      <trkpt lat="45.2058" lon="5.72853">
        <ele>574.40002441406</ele>
        <time>2021-07-24T06:26:08.000Z</time>
      </trkpt>
      <trkpt lat="45.20568" lon="5.72831">
        <ele>574.20001220703</ele>
        <time>2021-07-24T06:26:15.000Z</time>
      </trkpt>
      <trkpt lat="45.20557" lon="5.72815">
        <ele>573.59997558594</ele>
        <time>2021-07-24T06:26:22.000Z</time>
      </trkpt>
      <trkpt lat="45.20551" lon="5.72808">
        <ele>573.79998779297</ele>
        <time>2021-07-24T06:26:25.000Z</time>
      </trkpt>
      <trkpt lat="45.20547" lon="5.72804">
        <ele>573.79998779297</ele>
        <time>2021-07-24T06:26:27.000Z</time>
      </trkpt>
      <trkpt lat="45.2054" lon="5.72791">
        <ele>574</ele>
        <time>2021-07-24T06:26:31.000Z</time>
      </trkpt>
      <trkpt lat="45.20539" lon="5.72789">
        <ele>574.40002441406</ele>
        <time>2021-07-24T06:26:32.000Z</time>
      </trkpt>
      <trkpt lat="45.20522" lon="5.72772">
        <ele>574.40002441406</ele>
        <time>2021-07-24T06:26:39.000Z</time>
      </trkpt>
      <trkpt lat="45.20515" lon="5.72766">
        <ele>574.20001220703</ele>
        <time>2021-07-24T06:26:42.000Z</time>
      </trkpt>
      <trkpt lat="45.20504" lon="5.72758">
        <ele>574</ele>
        <time>2021-07-24T06:26:46.000Z</time>
      </trkpt>
      <trkpt lat="45.20496" lon="5.72754">
        <ele>573.20001220703</ele>
        <time>2021-07-24T06:26:49.000Z</time>
      </trkpt>
      <trkpt lat="45.2049" lon="5.72748">
        <ele>572.20001220703</ele>
        <time>2021-07-24T06:26:52.000Z</time>
      </trkpt>
      <trkpt lat="45.20477" lon="5.72742">
        <ele>571.40002441406</ele>
        <time>2021-07-24T06:26:58.000Z</time>
      </trkpt>
      <trkpt lat="45.20474" lon="5.72743">
        <ele>570.79998779297</ele>
        <time>2021-07-24T06:26:59.000Z</time>
      </trkpt>
      <trkpt lat="45.20465" lon="5.72742">
        <ele>569.79998779297</ele>
        <time>2021-07-24T06:27:03.000Z</time>
      </trkpt>
      <trkpt lat="45.20463" lon="5.72742">
        <ele>569.40002441406</ele>
        <time>2021-07-24T06:27:04.000Z</time>
      </trkpt>
      <trkpt lat="45.20457" lon="5.72743">
        <ele>568.20001220703</ele>
        <time>2021-07-24T06:27:07.000Z</time>
      </trkpt>
      <trkpt lat="45.20454" lon="5.72741">
        <ele>568</ele>
        <time>2021-07-24T06:27:09.000Z</time>
      </trkpt>
      <trkpt lat="45.20449" lon="5.72742">
        <ele>567.59997558594</ele>
        <time>2021-07-24T06:27:11.000Z</time>
      </trkpt>
      <trkpt lat="45.20443" lon="5.72741">
        <ele>566.79998779297</ele>
        <time>2021-07-24T06:27:14.000Z</time>
      </trkpt>
      <trkpt lat="45.20438" lon="5.72739">
        <ele>566.40002441406</ele>
        <time>2021-07-24T06:27:16.000Z</time>
      </trkpt>
      <trkpt lat="45.20436" lon="5.72738">
        <ele>565.79998779297</ele>
        <time>2021-07-24T06:27:17.000Z</time>
      </trkpt>
      <trkpt lat="45.20425" lon="5.72733">
        <ele>564.40002441406</ele>
        <time>2021-07-24T06:27:22.000Z</time>
      </trkpt>
      <trkpt lat="45.20423" lon="5.72731">
        <ele>564.20001220703</ele>
        <time>2021-07-24T06:27:23.000Z</time>
      </trkpt>
      <trkpt lat="45.20421" lon="5.7273">
        <ele>564</ele>
        <time>2021-07-24T06:27:24.000Z</time>
      </trkpt>
      <trkpt lat="45.20418" lon="5.72726">
        <ele>563.20001220703</ele>
        <time>2021-07-24T06:27:26.000Z</time>
      </trkpt>
      <trkpt lat="45.20413" lon="5.72723">
        <ele>562.59997558594</ele>
        <time>2021-07-24T06:27:29.000Z</time>
      </trkpt>
      <trkpt lat="45.20411" lon="5.7272">
        <ele>561.79998779297</ele>
        <time>2021-07-24T06:27:31.000Z</time>
      </trkpt>
      <trkpt lat="45.20406" lon="5.72716">
        <ele>560.79998779297</ele>
        <time>2021-07-24T06:27:34.000Z</time>
      </trkpt>
      <trkpt lat="45.20405" lon="5.72714">
        <ele>560.79998779297</ele>
        <time>2021-07-24T06:27:35.000Z</time>
      </trkpt>
      <trkpt lat="45.204" lon="5.72708">
        <ele>559.59997558594</ele>
        <time>2021-07-24T06:27:38.000Z</time>
      </trkpt>
      <trkpt lat="45.20394" lon="5.72702">
        <ele>558</ele>
        <time>2021-07-24T06:27:41.000Z</time>
      </trkpt>
      <trkpt lat="45.20383" lon="5.72689">
        <ele>557</ele>
        <time>2021-07-24T06:27:47.000Z</time>
      </trkpt>
      <trkpt lat="45.20382" lon="5.72687">
        <ele>556.79998779297</ele>
        <time>2021-07-24T06:27:48.000Z</time>
      </trkpt>
      <trkpt lat="45.20374" lon="5.72678">
        <ele>555.59997558594</ele>
        <time>2021-07-24T06:27:52.000Z</time>
      </trkpt>
      <trkpt lat="45.20372" lon="5.72674">
        <ele>555.20001220703</ele>
        <time>2021-07-24T06:27:53.000Z</time>
      </trkpt>
      <trkpt lat="45.20371" lon="5.72673">
        <ele>554.59997558594</ele>
        <time>2021-07-24T06:27:54.000Z</time>
      </trkpt>
      <trkpt lat="45.20366" lon="5.7267">
        <ele>554.40002441406</ele>
        <time>2021-07-24T06:27:56.000Z</time>
      </trkpt>
      <trkpt lat="45.20365" lon="5.72669">
        <ele>554.40002441406</ele>
        <time>2021-07-24T06:27:57.000Z</time>
      </trkpt>
      <trkpt lat="45.20362" lon="5.72667">
        <ele>553.59997558594</ele>
        <time>2021-07-24T06:27:59.000Z</time>
      </trkpt>
      <trkpt lat="45.20359" lon="5.72667">
        <ele>553.40002441406</ele>
        <time>2021-07-24T06:28:00.000Z</time>
      </trkpt>
      <trkpt lat="45.20357" lon="5.72665">
        <ele>553.20001220703</ele>
        <time>2021-07-24T06:28:01.000Z</time>
      </trkpt>
      <trkpt lat="45.20351" lon="5.7266">
        <ele>551.20001220703</ele>
        <time>2021-07-24T06:28:04.000Z</time>
      </trkpt>
      <trkpt lat="45.20349" lon="5.72659">
        <ele>551.20001220703</ele>
        <time>2021-07-24T06:28:05.000Z</time>
      </trkpt>
      <trkpt lat="45.20343" lon="5.72655">
        <ele>550.40002441406</ele>
        <time>2021-07-24T06:28:08.000Z</time>
      </trkpt>
      <trkpt lat="45.20341" lon="5.72653">
        <ele>550.20001220703</ele>
        <time>2021-07-24T06:28:09.000Z</time>
      </trkpt>
      <trkpt lat="45.20334" lon="5.72647">
        <ele>549.40002441406</ele>
        <time>2021-07-24T06:28:13.000Z</time>
      </trkpt>
      <trkpt lat="45.20332" lon="5.72646">
        <ele>548.79998779297</ele>
        <time>2021-07-24T06:28:14.000Z</time>
      </trkpt>
      <trkpt lat="45.20325" lon="5.72643">
        <ele>547.59997558594</ele>
        <time>2021-07-24T06:28:17.000Z</time>
      </trkpt>
      <trkpt lat="45.20322" lon="5.72642">
        <ele>547.40002441406</ele>
        <time>2021-07-24T06:28:19.000Z</time>
      </trkpt>
      <trkpt lat="45.2032" lon="5.72641">
        <ele>546.40002441406</ele>
        <time>2021-07-24T06:28:20.000Z</time>
      </trkpt>
      <trkpt lat="45.20319" lon="5.7264">
        <ele>546.40002441406</ele>
        <time>2021-07-24T06:28:21.000Z</time>
      </trkpt>
      <trkpt lat="45.20313" lon="5.72636">
        <ele>546</ele>
        <time>2021-07-24T06:28:24.000Z</time>
      </trkpt>
      <trkpt lat="45.20308" lon="5.72634">
        <ele>544.79998779297</ele>
        <time>2021-07-24T06:28:27.000Z</time>
      </trkpt>
      <trkpt lat="45.20303" lon="5.72631">
        <ele>544.40002441406</ele>
        <time>2021-07-24T06:28:29.000Z</time>
      </trkpt>
      <trkpt lat="45.20301" lon="5.7263">
        <ele>544.40002441406</ele>
        <time>2021-07-24T06:28:30.000Z</time>
      </trkpt>
      <trkpt lat="45.20299" lon="5.72629">
        <ele>544</ele>
        <time>2021-07-24T06:28:31.000Z</time>
      </trkpt>
      <trkpt lat="45.20297" lon="5.72629">
        <ele>543.59997558594</ele>
        <time>2021-07-24T06:28:32.000Z</time>
      </trkpt>
      <trkpt lat="45.20295" lon="5.72629">
        <ele>542.59997558594</ele>
        <time>2021-07-24T06:28:33.000Z</time>
      </trkpt>
      <trkpt lat="45.20286" lon="5.72629">
        <ele>541.79998779297</ele>
        <time>2021-07-24T06:28:38.000Z</time>
      </trkpt>
      <trkpt lat="45.20284" lon="5.72628">
        <ele>541.20001220703</ele>
        <time>2021-07-24T06:28:39.000Z</time>
      </trkpt>
      <trkpt lat="45.20279" lon="5.72627">
        <ele>540</ele>
        <time>2021-07-24T06:28:42.000Z</time>
      </trkpt>
      <trkpt lat="45.20275" lon="5.72628">
        <ele>538.79998779297</ele>
        <time>2021-07-24T06:28:44.000Z</time>
      </trkpt>
      <trkpt lat="45.20271" lon="5.7263">
        <ele>538.79998779297</ele>
        <time>2021-07-24T06:28:46.000Z</time>
      </trkpt>
      <trkpt lat="45.20264" lon="5.72631">
        <ele>537.79998779297</ele>
        <time>2021-07-24T06:28:50.000Z</time>
      </trkpt>
      <trkpt lat="45.2026" lon="5.72631">
        <ele>537.20001220703</ele>
        <time>2021-07-24T06:28:52.000Z</time>
      </trkpt>
      <trkpt lat="45.20257" lon="5.72631">
        <ele>536.79998779297</ele>
        <time>2021-07-24T06:28:53.000Z</time>
      </trkpt>
      <trkpt lat="45.20249" lon="5.72629">
        <ele>535.79998779297</ele>
        <time>2021-07-24T06:28:56.000Z</time>
      </trkpt>
      <trkpt lat="45.20244" lon="5.72628">
        <ele>535.40002441406</ele>
        <time>2021-07-24T06:28:59.000Z</time>
      </trkpt>
      <trkpt lat="45.2024" lon="5.72626">
        <ele>534.20001220703</ele>
        <time>2021-07-24T06:29:01.000Z</time>
      </trkpt>
      <trkpt lat="45.20236" lon="5.72623">
        <ele>533.20001220703</ele>
        <time>2021-07-24T06:29:03.000Z</time>
      </trkpt>
      <trkpt lat="45.20234" lon="5.72622">
        <ele>533.20001220703</ele>
        <time>2021-07-24T06:29:04.000Z</time>
      </trkpt>
      <trkpt lat="45.20222" lon="5.72613">
        <ele>531.59997558594</ele>
        <time>2021-07-24T06:29:10.000Z</time>
      </trkpt>
      <trkpt lat="45.20219" lon="5.72608">
        <ele>531.40002441406</ele>
        <time>2021-07-24T06:29:12.000Z</time>
      </trkpt>
      <trkpt lat="45.20214" lon="5.72604">
        <ele>530.20001220703</ele>
        <time>2021-07-24T06:29:15.000Z</time>
      </trkpt>
      <trkpt lat="45.20213" lon="5.72604">
        <ele>529.59997558594</ele>
        <time>2021-07-24T06:29:16.000Z</time>
      </trkpt>
      <trkpt lat="45.20209" lon="5.72601">
        <ele>529</ele>
        <time>2021-07-24T06:29:18.000Z</time>
      </trkpt>
      <trkpt lat="45.202" lon="5.72598">
        <ele>527.59997558594</ele>
        <time>2021-07-24T06:29:22.000Z</time>
      </trkpt>
      <trkpt lat="45.20198" lon="5.72596">
        <ele>527.40002441406</ele>
        <time>2021-07-24T06:29:23.000Z</time>
      </trkpt>
      <trkpt lat="45.2019" lon="5.72591">
        <ele>526.40002441406</ele>
        <time>2021-07-24T06:29:27.000Z</time>
      </trkpt>
      <trkpt lat="45.20183" lon="5.72587">
        <ele>525.59997558594</ele>
        <time>2021-07-24T06:29:29.000Z</time>
      </trkpt>
      <trkpt lat="45.2018" lon="5.72585">
        <ele>525.40002441406</ele>
        <time>2021-07-24T06:29:30.000Z</time>
      </trkpt>
      <trkpt lat="45.20172" lon="5.7258">
        <ele>524</ele>
        <time>2021-07-24T06:29:34.000Z</time>
      </trkpt>
      <trkpt lat="45.20167" lon="5.72578">
        <ele>523.40002441406</ele>
        <time>2021-07-24T06:29:36.000Z</time>
      </trkpt>
      <trkpt lat="45.20161" lon="5.72576">
        <ele>522.59997558594</ele>
        <time>2021-07-24T06:29:39.000Z</time>
      </trkpt>
      <trkpt lat="45.2015" lon="5.72573">
        <ele>521.40002441406</ele>
        <time>2021-07-24T06:29:44.000Z</time>
      </trkpt>
      <trkpt lat="45.20137" lon="5.7257">
        <ele>520.20001220703</ele>
        <time>2021-07-24T06:29:49.000Z</time>
      </trkpt>
      <trkpt lat="45.20131" lon="5.72567">
        <ele>518.79998779297</ele>
        <time>2021-07-24T06:29:52.000Z</time>
      </trkpt>
      <trkpt lat="45.20123" lon="5.72564">
        <ele>517.59997558594</ele>
        <time>2021-07-24T06:29:57.000Z</time>
      </trkpt>
      <trkpt lat="45.20118" lon="5.72562">
        <ele>515.59997558594</ele>
        <time>2021-07-24T06:30:00.000Z</time>
      </trkpt>
      <trkpt lat="45.2011" lon="5.72561">
        <ele>514.40002441406</ele>
        <time>2021-07-24T06:30:04.000Z</time>
      </trkpt>
      <trkpt lat="45.20109" lon="5.7256">
        <ele>513.59997558594</ele>
        <time>2021-07-24T06:30:05.000Z</time>
      </trkpt>
      <trkpt lat="45.20104" lon="5.72558">
        <ele>513.20001220703</ele>
        <time>2021-07-24T06:30:07.000Z</time>
      </trkpt>
      <trkpt lat="45.20102" lon="5.72558">
        <ele>512.59997558594</ele>
        <time>2021-07-24T06:30:09.000Z</time>
      </trkpt>
      <trkpt lat="45.201" lon="5.72558">
        <ele>511.60000610352</ele>
        <time>2021-07-24T06:30:10.000Z</time>
      </trkpt>
      <trkpt lat="45.20096" lon="5.72558">
        <ele>511.20001220703</ele>
        <time>2021-07-24T06:30:12.000Z</time>
      </trkpt>
      <trkpt lat="45.20091" lon="5.72557">
        <ele>511</ele>
        <time>2021-07-24T06:30:14.000Z</time>
      </trkpt>
      <trkpt lat="45.20086" lon="5.72558">
        <ele>509.60000610352</ele>
        <time>2021-07-24T06:30:16.000Z</time>
      </trkpt>
      <trkpt lat="45.20081" lon="5.72561">
        <ele>509</ele>
        <time>2021-07-24T06:30:18.000Z</time>
      </trkpt>
      <trkpt lat="45.20079" lon="5.72562">
        <ele>508.20001220703</ele>
        <time>2021-07-24T06:30:20.000Z</time>
      </trkpt>
      <trkpt lat="45.20076" lon="5.72565">
        <ele>508</ele>
        <time>2021-07-24T06:30:22.000Z</time>
      </trkpt>
      <trkpt lat="45.20076" lon="5.72567">
        <ele>507</ele>
        <time>2021-07-24T06:30:24.000Z</time>
      </trkpt>
      <trkpt lat="45.20076" lon="5.72567">
        <ele>507</ele>
        <time>2021-07-24T06:30:26.000Z</time>
      </trkpt>
      <trkpt lat="45.20075" lon="5.72565">
        <ele>507</ele>
        <time>2021-07-24T06:30:30.000Z</time>
      </trkpt>
      <trkpt lat="45.20075" lon="5.72565">
        <ele>507</ele>
        <time>2021-07-24T06:30:31.000Z</time>
      </trkpt>
      <trkpt lat="45.20077" lon="5.72557">
        <ele>507.20001220703</ele>
        <time>2021-07-24T06:30:39.000Z</time>
      </trkpt>
      <trkpt lat="45.20076" lon="5.7255">
        <ele>508.20001220703</ele>
        <time>2021-07-24T06:30:43.000Z</time>
      </trkpt>
      <trkpt lat="45.20075" lon="5.72547">
        <ele>508.20001220703</ele>
        <time>2021-07-24T06:30:44.000Z</time>
      </trkpt>
      <trkpt lat="45.20072" lon="5.72527">
        <ele>508.20001220703</ele>
        <time>2021-07-24T06:30:50.000Z</time>
      </trkpt>
      <trkpt lat="45.20075" lon="5.72517">
        <ele>508.20001220703</ele>
        <time>2021-07-24T06:30:53.000Z</time>
      </trkpt>
      <trkpt lat="45.20078" lon="5.72504">
        <ele>507.79998779297</ele>
        <time>2021-07-24T06:30:57.000Z</time>
      </trkpt>
      <trkpt lat="45.2008" lon="5.72494">
        <ele>507.39999389648</ele>
        <time>2021-07-24T06:31:00.000Z</time>
      </trkpt>
      <trkpt lat="45.2008" lon="5.72486">
        <ele>507</ele>
        <time>2021-07-24T06:31:02.000Z</time>
      </trkpt>
      <trkpt lat="45.2008" lon="5.72482">
        <ele>507</ele>
        <time>2021-07-24T06:31:03.000Z</time>
      </trkpt>
      <trkpt lat="45.20079" lon="5.72471">
        <ele>506.20001220703</ele>
        <time>2021-07-24T06:31:06.000Z</time>
      </trkpt>
      <trkpt lat="45.20076" lon="5.72459">
        <ele>505.79998779297</ele>
        <time>2021-07-24T06:31:09.000Z</time>
      </trkpt>
      <trkpt lat="45.2007" lon="5.7245">
        <ele>504.79998779297</ele>
        <time>2021-07-24T06:31:12.000Z</time>
      </trkpt>
      <trkpt lat="45.2006" lon="5.72442">
        <ele>503.39999389648</ele>
        <time>2021-07-24T06:31:16.000Z</time>
      </trkpt>
      <trkpt lat="45.20052" lon="5.72441">
        <ele>502.39999389648</ele>
        <time>2021-07-24T06:31:19.000Z</time>
      </trkpt>
      <trkpt lat="45.20049" lon="5.72441">
        <ele>502.20001220703</ele>
        <time>2021-07-24T06:31:20.000Z</time>
      </trkpt>
      <trkpt lat="45.20044" lon="5.7244">
        <ele>501</ele>
        <time>2021-07-24T06:31:22.000Z</time>
      </trkpt>
      <trkpt lat="45.20042" lon="5.7244">
        <ele>500.79998779297</ele>
        <time>2021-07-24T06:31:23.000Z</time>
      </trkpt>
      <trkpt lat="45.20036" lon="5.7244">
        <ele>500.20001220703</ele>
        <time>2021-07-24T06:31:25.000Z</time>
      </trkpt>
      <trkpt lat="45.20025" lon="5.72441">
        <ele>499.20001220703</ele>
        <time>2021-07-24T06:31:29.000Z</time>
      </trkpt>
      <trkpt lat="45.20013" lon="5.72437">
        <ele>498.60000610352</ele>
        <time>2021-07-24T06:31:33.000Z</time>
      </trkpt>
      <trkpt lat="45.20011" lon="5.72436">
        <ele>497.79998779297</ele>
        <time>2021-07-24T06:31:34.000Z</time>
      </trkpt>
      <trkpt lat="45.20002" lon="5.72435">
        <ele>497.39999389648</ele>
        <time>2021-07-24T06:31:37.000Z</time>
      </trkpt>
      <trkpt lat="45.19996" lon="5.72434">
        <ele>496.20001220703</ele>
        <time>2021-07-24T06:31:39.000Z</time>
      </trkpt>
      <trkpt lat="45.19986" lon="5.72433">
        <ele>495.20001220703</ele>
        <time>2021-07-24T06:31:43.000Z</time>
      </trkpt>
      <trkpt lat="45.19977" lon="5.72432">
        <ele>494.20001220703</ele>
        <time>2021-07-24T06:31:46.000Z</time>
      </trkpt>
      <trkpt lat="45.19971" lon="5.72431">
        <ele>493.60000610352</ele>
        <time>2021-07-24T06:31:48.000Z</time>
      </trkpt>
      <trkpt lat="45.19959" lon="5.72432">
        <ele>492.79998779297</ele>
        <time>2021-07-24T06:31:52.000Z</time>
      </trkpt>
      <trkpt lat="45.19948" lon="5.72434">
        <ele>491.60000610352</ele>
        <time>2021-07-24T06:31:56.000Z</time>
      </trkpt>
      <trkpt lat="45.19941" lon="5.72435">
        <ele>492</ele>
        <time>2021-07-24T06:31:59.000Z</time>
      </trkpt>
      <trkpt lat="45.19924" lon="5.72442">
        <ele>492.60000610352</ele>
        <time>2021-07-24T06:32:05.000Z</time>
      </trkpt>
      <trkpt lat="45.19921" lon="5.72443">
        <ele>493</ele>
        <time>2021-07-24T06:32:06.000Z</time>
      </trkpt>
      <trkpt lat="45.19919" lon="5.72443">
        <ele>493.20001220703</ele>
        <time>2021-07-24T06:32:07.000Z</time>
      </trkpt>
      <trkpt lat="45.19908" lon="5.72447">
        <ele>494</ele>
        <time>2021-07-24T06:32:11.000Z</time>
      </trkpt>
      <trkpt lat="45.19903" lon="5.72449">
        <ele>494.60000610352</ele>
        <time>2021-07-24T06:32:13.000Z</time>
      </trkpt>
      <trkpt lat="45.199" lon="5.72451">
        <ele>495</ele>
        <time>2021-07-24T06:32:15.000Z</time>
      </trkpt>
      <trkpt lat="45.19901" lon="5.72455">
        <ele>495.39999389648</ele>
        <time>2021-07-24T06:32:16.000Z</time>
      </trkpt>
      <trkpt lat="45.19899" lon="5.72462">
        <ele>496</ele>
        <time>2021-07-24T06:32:19.000Z</time>
      </trkpt>
      <trkpt lat="45.19897" lon="5.72467">
        <ele>496</ele>
        <time>2021-07-24T06:32:21.000Z</time>
      </trkpt>
      <trkpt lat="45.19897" lon="5.7247">
        <ele>496.60000610352</ele>
        <time>2021-07-24T06:32:22.000Z</time>
      </trkpt>
      <trkpt lat="45.19897" lon="5.72475">
        <ele>496.60000610352</ele>
        <time>2021-07-24T06:32:23.000Z</time>
      </trkpt>
      <trkpt lat="45.19896" lon="5.7248">
        <ele>496.79998779297</ele>
        <time>2021-07-24T06:32:26.000Z</time>
      </trkpt>
      <trkpt lat="45.19891" lon="5.72481">
        <ele>496.79998779297</ele>
        <time>2021-07-24T06:32:28.000Z</time>
      </trkpt>
      <trkpt lat="45.19889" lon="5.72482">
        <ele>496.79998779297</ele>
        <time>2021-07-24T06:32:29.000Z</time>
      </trkpt>
      <trkpt lat="45.19882" lon="5.72488">
        <ele>496.39999389648</ele>
        <time>2021-07-24T06:32:32.000Z</time>
      </trkpt>
      <trkpt lat="45.19881" lon="5.72491">
        <ele>496.20001220703</ele>
        <time>2021-07-24T06:32:33.000Z</time>
      </trkpt>
      <trkpt lat="45.19878" lon="5.72505">
        <ele>496</ele>
        <time>2021-07-24T06:32:37.000Z</time>
      </trkpt>
      <trkpt lat="45.19877" lon="5.72513">
        <ele>495.60000610352</ele>
        <time>2021-07-24T06:32:39.000Z</time>
      </trkpt>
      <trkpt lat="45.19874" lon="5.72522">
        <ele>495.39999389648</ele>
        <time>2021-07-24T06:32:42.000Z</time>
      </trkpt>
      <trkpt lat="45.19873" lon="5.72539">
        <ele>493.79998779297</ele>
        <time>2021-07-24T06:32:47.000Z</time>
      </trkpt>
      <trkpt lat="45.19873" lon="5.72548">
        <ele>493.39999389648</ele>
        <time>2021-07-24T06:32:50.000Z</time>
      </trkpt>
      <trkpt lat="45.19872" lon="5.72554">
        <ele>492.79998779297</ele>
        <time>2021-07-24T06:32:52.000Z</time>
      </trkpt>
      <trkpt lat="45.19869" lon="5.72555">
        <ele>492</ele>
        <time>2021-07-24T06:32:53.000Z</time>
      </trkpt>
      <trkpt lat="45.19867" lon="5.72553">
        <ele>492</ele>
        <time>2021-07-24T06:32:54.000Z</time>
      </trkpt>
      <trkpt lat="45.19863" lon="5.72544">
        <ele>491</ele>
        <time>2021-07-24T06:32:57.000Z</time>
      </trkpt>
      <trkpt lat="45.19861" lon="5.72542">
        <ele>490.79998779297</ele>
        <time>2021-07-24T06:32:58.000Z</time>
      </trkpt>
      <trkpt lat="45.19855" lon="5.72522">
        <ele>489.79998779297</ele>
        <time>2021-07-24T06:33:04.000Z</time>
      </trkpt>
      <trkpt lat="45.19854" lon="5.72514">
        <ele>489.20001220703</ele>
        <time>2021-07-24T06:33:06.000Z</time>
      </trkpt>
      <trkpt lat="45.19851" lon="5.725">
        <ele>488.20001220703</ele>
        <time>2021-07-24T06:33:09.000Z</time>
      </trkpt>
      <trkpt lat="45.1985" lon="5.72492">
        <ele>487.20001220703</ele>
        <time>2021-07-24T06:33:11.000Z</time>
      </trkpt>
      <trkpt lat="45.19849" lon="5.72486">
        <ele>487</ele>
        <time>2021-07-24T06:33:13.000Z</time>
      </trkpt>
      <trkpt lat="45.19848" lon="5.72478">
        <ele>486</ele>
        <time>2021-07-24T06:33:15.000Z</time>
      </trkpt>
      <trkpt lat="45.19848" lon="5.72474">
        <ele>485.79998779297</ele>
        <time>2021-07-24T06:33:16.000Z</time>
      </trkpt>
      <trkpt lat="45.19845" lon="5.7246">
        <ele>484.79998779297</ele>
        <time>2021-07-24T06:33:20.000Z</time>
      </trkpt>
      <trkpt lat="45.19842" lon="5.72453">
        <ele>484</ele>
        <time>2021-07-24T06:33:23.000Z</time>
      </trkpt>
      <trkpt lat="45.19841" lon="5.72453">
        <ele>484</ele>
        <time>2021-07-24T06:33:24.000Z</time>
      </trkpt>
      <trkpt lat="45.19841" lon="5.72454">
        <ele>483.79998779297</ele>
        <time>2021-07-24T06:33:25.000Z</time>
      </trkpt>
      <trkpt lat="45.1984" lon="5.72456">
        <ele>483.60000610352</ele>
        <time>2021-07-24T06:33:26.000Z</time>
      </trkpt>
      <trkpt lat="45.1984" lon="5.72458">
        <ele>483.39999389648</ele>
        <time>2021-07-24T06:33:27.000Z</time>
      </trkpt>
      <trkpt lat="45.1984" lon="5.72461">
        <ele>482.60000610352</ele>
        <time>2021-07-24T06:33:28.000Z</time>
      </trkpt>
      <trkpt lat="45.19839" lon="5.72468">
        <ele>482.39999389648</ele>
        <time>2021-07-24T06:33:30.000Z</time>
      </trkpt>
      <trkpt lat="45.19838" lon="5.72479">
        <ele>481.60000610352</ele>
        <time>2021-07-24T06:33:33.000Z</time>
      </trkpt>
      <trkpt lat="45.19838" lon="5.72482">
        <ele>481.20001220703</ele>
        <time>2021-07-24T06:33:34.000Z</time>
      </trkpt>
      <trkpt lat="45.19837" lon="5.72495">
        <ele>480.20001220703</ele>
        <time>2021-07-24T06:33:38.000Z</time>
      </trkpt>
      <trkpt lat="45.19836" lon="5.72505">
        <ele>479.39999389648</ele>
        <time>2021-07-24T06:33:41.000Z</time>
      </trkpt>
      <trkpt lat="45.19835" lon="5.72512">
        <ele>478</ele>
        <time>2021-07-24T06:33:43.000Z</time>
      </trkpt>
      <trkpt lat="45.19832" lon="5.72532">
        <ele>477</ele>
        <time>2021-07-24T06:33:48.000Z</time>
      </trkpt>
      <trkpt lat="45.19832" lon="5.72535">
        <ele>476.39999389648</ele>
        <time>2021-07-24T06:33:49.000Z</time>
      </trkpt>
      <trkpt lat="45.19832" lon="5.72543">
        <ele>475.79998779297</ele>
        <time>2021-07-24T06:33:51.000Z</time>
      </trkpt>
      <trkpt lat="45.19832" lon="5.72547">
        <ele>476</ele>
        <time>2021-07-24T06:33:52.000Z</time>
      </trkpt>
      <trkpt lat="45.19832" lon="5.72555">
        <ele>474.79998779297</ele>
        <time>2021-07-24T06:33:54.000Z</time>
      </trkpt>
      <trkpt lat="45.19833" lon="5.72563">
        <ele>474.39999389648</ele>
        <time>2021-07-24T06:33:56.000Z</time>
      </trkpt>
      <trkpt lat="45.19834" lon="5.72575">
        <ele>473.60000610352</ele>
        <time>2021-07-24T06:33:59.000Z</time>
      </trkpt>
      <trkpt lat="45.19835" lon="5.72588">
        <ele>472.60000610352</ele>
        <time>2021-07-24T06:34:02.000Z</time>
      </trkpt>
      <trkpt lat="45.19835" lon="5.72592">
        <ele>472.39999389648</ele>
        <time>2021-07-24T06:34:03.000Z</time>
      </trkpt>
      <trkpt lat="45.19834" lon="5.72599">
        <ele>471.60000610352</ele>
        <time>2021-07-24T06:34:06.000Z</time>
      </trkpt>
      <trkpt lat="45.19834" lon="5.72603">
        <ele>471.39999389648</ele>
        <time>2021-07-24T06:34:07.000Z</time>
      </trkpt>
      <trkpt lat="45.19835" lon="5.72606">
        <ele>471.39999389648</ele>
        <time>2021-07-24T06:34:08.000Z</time>
      </trkpt>
      <trkpt lat="45.19836" lon="5.72612">
        <ele>470.39999389648</ele>
        <time>2021-07-24T06:34:10.000Z</time>
      </trkpt>
      <trkpt lat="45.19837" lon="5.72615">
        <ele>470.39999389648</ele>
        <time>2021-07-24T06:34:11.000Z</time>
      </trkpt>
      <trkpt lat="45.1984" lon="5.72628">
        <ele>469.79998779297</ele>
        <time>2021-07-24T06:34:14.000Z</time>
      </trkpt>
      <trkpt lat="45.19842" lon="5.72634">
        <ele>469.39999389648</ele>
        <time>2021-07-24T06:34:15.000Z</time>
      </trkpt>
      <trkpt lat="45.19845" lon="5.72642">
        <ele>468.39999389648</ele>
        <time>2021-07-24T06:34:17.000Z</time>
      </trkpt>
      <trkpt lat="45.19847" lon="5.72645">
        <ele>468.20001220703</ele>
        <time>2021-07-24T06:34:18.000Z</time>
      </trkpt>
      <trkpt lat="45.1985" lon="5.72652">
        <ele>468</ele>
        <time>2021-07-24T06:34:20.000Z</time>
      </trkpt>
      <trkpt lat="45.19852" lon="5.72654">
        <ele>467.60000610352</ele>
        <time>2021-07-24T06:34:21.000Z</time>
      </trkpt>
      <trkpt lat="45.19857" lon="5.72662">
        <ele>466.20001220703</ele>
        <time>2021-07-24T06:34:24.000Z</time>
      </trkpt>
      <trkpt lat="45.19864" lon="5.72671">
        <ele>466</ele>
        <time>2021-07-24T06:34:28.000Z</time>
      </trkpt>
      <trkpt lat="45.19865" lon="5.72675">
        <ele>464.79998779297</ele>
        <time>2021-07-24T06:34:29.000Z</time>
      </trkpt>
      <trkpt lat="45.19867" lon="5.72681">
        <ele>464.60000610352</ele>
        <time>2021-07-24T06:34:31.000Z</time>
      </trkpt>
      <trkpt lat="45.19866" lon="5.72683">
        <ele>464.39999389648</ele>
        <time>2021-07-24T06:34:32.000Z</time>
      </trkpt>
      <trkpt lat="45.19854" lon="5.72683">
        <ele>463.20001220703</ele>
        <time>2021-07-24T06:34:37.000Z</time>
      </trkpt>
      <trkpt lat="45.19849" lon="5.72682">
        <ele>462.79998779297</ele>
        <time>2021-07-24T06:34:39.000Z</time>
      </trkpt>
      <trkpt lat="45.19844" lon="5.7268">
        <ele>462</ele>
        <time>2021-07-24T06:34:41.000Z</time>
      </trkpt>
      <trkpt lat="45.19841" lon="5.72675">
        <ele>461.39999389648</ele>
        <time>2021-07-24T06:34:43.000Z</time>
      </trkpt>
      <trkpt lat="45.19836" lon="5.72669">
        <ele>460.79998779297</ele>
        <time>2021-07-24T06:34:45.000Z</time>
      </trkpt>
      <trkpt lat="45.19832" lon="5.72667">
        <ele>460.60000610352</ele>
        <time>2021-07-24T06:34:46.000Z</time>
      </trkpt>
      <trkpt lat="45.19819" lon="5.72658">
        <ele>459.20001220703</ele>
        <time>2021-07-24T06:34:51.000Z</time>
      </trkpt>
      <trkpt lat="45.19816" lon="5.72658">
        <ele>459.20001220703</ele>
        <time>2021-07-24T06:34:52.000Z</time>
      </trkpt>
      <trkpt lat="45.19808" lon="5.72654">
        <ele>457.60000610352</ele>
        <time>2021-07-24T06:34:55.000Z</time>
      </trkpt>
      <trkpt lat="45.19801" lon="5.72647">
        <ele>457.39999389648</ele>
        <time>2021-07-24T06:34:58.000Z</time>
      </trkpt>
      <trkpt lat="45.19794" lon="5.72638">
        <ele>456.39999389648</ele>
        <time>2021-07-24T06:35:01.000Z</time>
      </trkpt>
      <trkpt lat="45.19789" lon="5.72628">
        <ele>455.79998779297</ele>
        <time>2021-07-24T06:35:04.000Z</time>
      </trkpt>
      <trkpt lat="45.19789" lon="5.72619">
        <ele>454.79998779297</ele>
        <time>2021-07-24T06:35:06.000Z</time>
      </trkpt>
      <trkpt lat="45.19788" lon="5.7261">
        <ele>454.79998779297</ele>
        <time>2021-07-24T06:35:08.000Z</time>
      </trkpt>
      <trkpt lat="45.19789" lon="5.72598">
        <ele>453.79998779297</ele>
        <time>2021-07-24T06:35:11.000Z</time>
      </trkpt>
      <trkpt lat="45.1979" lon="5.72584">
        <ele>453</ele>
        <time>2021-07-24T06:35:14.000Z</time>
      </trkpt>
      <trkpt lat="45.1979" lon="5.7258">
        <ele>452.60000610352</ele>
        <time>2021-07-24T06:35:15.000Z</time>
      </trkpt>
      <trkpt lat="45.19789" lon="5.72563">
        <ele>451</ele>
        <time>2021-07-24T06:35:19.000Z</time>
      </trkpt>
      <trkpt lat="45.1979" lon="5.72555">
        <ele>451</ele>
        <time>2021-07-24T06:35:21.000Z</time>
      </trkpt>
      <trkpt lat="45.1979" lon="5.72545">
        <ele>449.79998779297</ele>
        <time>2021-07-24T06:35:24.000Z</time>
      </trkpt>
      <trkpt lat="45.19789" lon="5.72544">
        <ele>449.79998779297</ele>
        <time>2021-07-24T06:35:25.000Z</time>
      </trkpt>
      <trkpt lat="45.19784" lon="5.72551">
        <ele>449.20001220703</ele>
        <time>2021-07-24T06:35:29.000Z</time>
      </trkpt>
      <trkpt lat="45.19783" lon="5.72559">
        <ele>447.79998779297</ele>
        <time>2021-07-24T06:35:31.000Z</time>
      </trkpt>
      <trkpt lat="45.19781" lon="5.72569">
        <ele>446.79998779297</ele>
        <time>2021-07-24T06:35:34.000Z</time>
      </trkpt>
      <trkpt lat="45.19779" lon="5.72574">
        <ele>446.39999389648</ele>
        <time>2021-07-24T06:35:36.000Z</time>
      </trkpt>
      <trkpt lat="45.19778" lon="5.72587">
        <ele>445.79998779297</ele>
        <time>2021-07-24T06:35:40.000Z</time>
      </trkpt>
      <trkpt lat="45.19775" lon="5.7259">
        <ele>444.60000610352</ele>
        <time>2021-07-24T06:35:42.000Z</time>
      </trkpt>
      <trkpt lat="45.19771" lon="5.72584">
        <ele>444</ele>
        <time>2021-07-24T06:35:45.000Z</time>
      </trkpt>
      <trkpt lat="45.1977" lon="5.72576">
        <ele>443.20001220703</ele>
        <time>2021-07-24T06:35:47.000Z</time>
      </trkpt>
      <trkpt lat="45.19766" lon="5.72555">
        <ele>442</ele>
        <time>2021-07-24T06:35:52.000Z</time>
      </trkpt>
      <trkpt lat="45.19765" lon="5.72542">
        <ele>441.39999389648</ele>
        <time>2021-07-24T06:35:55.000Z</time>
      </trkpt>
      <trkpt lat="45.19764" lon="5.72538">
        <ele>440.39999389648</ele>
        <time>2021-07-24T06:35:56.000Z</time>
      </trkpt>
      <trkpt lat="45.19766" lon="5.72522">
        <ele>439.79998779297</ele>
        <time>2021-07-24T06:36:00.000Z</time>
      </trkpt>
      <trkpt lat="45.19768" lon="5.72519">
        <ele>439.39999389648</ele>
        <time>2021-07-24T06:36:01.000Z</time>
      </trkpt>
      <trkpt lat="45.19772" lon="5.7251">
        <ele>438.60000610352</ele>
        <time>2021-07-24T06:36:05.000Z</time>
      </trkpt>
      <trkpt lat="45.19771" lon="5.72509">
        <ele>438.39999389648</ele>
        <time>2021-07-24T06:36:06.000Z</time>
      </trkpt>
      <trkpt lat="45.19769" lon="5.7251">
        <ele>438.20001220703</ele>
        <time>2021-07-24T06:36:07.000Z</time>
      </trkpt>
      <trkpt lat="45.19767" lon="5.72515">
        <ele>437.39999389648</ele>
        <time>2021-07-24T06:36:09.000Z</time>
      </trkpt>
      <trkpt lat="45.19765" lon="5.72518">
        <ele>437.20001220703</ele>
        <time>2021-07-24T06:36:10.000Z</time>
      </trkpt>
      <trkpt lat="45.19759" lon="5.72535">
        <ele>436.39999389648</ele>
        <time>2021-07-24T06:36:15.000Z</time>
      </trkpt>
      <trkpt lat="45.19759" lon="5.72539">
        <ele>435.60000610352</ele>
        <time>2021-07-24T06:36:16.000Z</time>
      </trkpt>
      <trkpt lat="45.19757" lon="5.72547">
        <ele>435.60000610352</ele>
        <time>2021-07-24T06:36:18.000Z</time>
      </trkpt>
      <trkpt lat="45.19755" lon="5.72558">
        <ele>435.60000610352</ele>
        <time>2021-07-24T06:36:22.000Z</time>
      </trkpt>
      <trkpt lat="45.19755" lon="5.7257">
        <ele>435.60000610352</ele>
        <time>2021-07-24T06:36:26.000Z</time>
      </trkpt>
      <trkpt lat="45.19755" lon="5.72574">
        <ele>435.60000610352</ele>
        <time>2021-07-24T06:36:27.000Z</time>
      </trkpt>
      <trkpt lat="45.19756" lon="5.72591">
        <ele>435.79998779297</ele>
        <time>2021-07-24T06:36:32.000Z</time>
      </trkpt>
      <trkpt lat="45.19761" lon="5.72614">
        <ele>435.79998779297</ele>
        <time>2021-07-24T06:36:39.000Z</time>
      </trkpt>
      <trkpt lat="45.19763" lon="5.72628">
        <ele>436</ele>
        <time>2021-07-24T06:36:43.000Z</time>
      </trkpt>
      <trkpt lat="45.19767" lon="5.72639">
        <ele>435.60000610352</ele>
        <time>2021-07-24T06:36:46.000Z</time>
      </trkpt>
      <trkpt lat="45.19779" lon="5.72655">
        <ele>436</ele>
        <time>2021-07-24T06:36:51.000Z</time>
      </trkpt>
      <trkpt lat="45.19783" lon="5.72662">
        <ele>436.60000610352</ele>
        <time>2021-07-24T06:36:53.000Z</time>
      </trkpt>
      <trkpt lat="45.19788" lon="5.72673">
        <ele>436</ele>
        <time>2021-07-24T06:36:56.000Z</time>
      </trkpt>
      <trkpt lat="45.19796" lon="5.72685">
        <ele>436.60000610352</ele>
        <time>2021-07-24T06:37:01.000Z</time>
      </trkpt>
      <trkpt lat="45.19805" lon="5.72697">
        <ele>436.60000610352</ele>
        <time>2021-07-24T06:37:06.000Z</time>
      </trkpt>
      <trkpt lat="45.19807" lon="5.72698">
        <ele>436.79998779297</ele>
        <time>2021-07-24T06:37:07.000Z</time>
      </trkpt>
      <trkpt lat="45.19813" lon="5.72704">
        <ele>437.60000610352</ele>
        <time>2021-07-24T06:37:09.000Z</time>
      </trkpt>
      <trkpt lat="45.19824" lon="5.72713">
        <ele>437.39999389648</ele>
        <time>2021-07-24T06:37:13.000Z</time>
      </trkpt>
      <trkpt lat="45.19836" lon="5.7273">
        <ele>437.39999389648</ele>
        <time>2021-07-24T06:37:17.000Z</time>
      </trkpt>
      <trkpt lat="45.19839" lon="5.72736">
        <ele>437.39999389648</ele>
        <time>2021-07-24T06:37:18.000Z</time>
      </trkpt>
      <trkpt lat="45.19842" lon="5.72742">
        <ele>437.20001220703</ele>
        <time>2021-07-24T06:37:20.000Z</time>
      </trkpt>
      <trkpt lat="45.19847" lon="5.7275">
        <ele>437.60000610352</ele>
        <time>2021-07-24T06:37:24.000Z</time>
      </trkpt>
      <trkpt lat="45.19866" lon="5.72749">
        <ele>433.39999389648</ele>
        <time>2021-07-24T06:37:39.000Z</time>
      </trkpt>
      <trkpt lat="45.19864" lon="5.72754">
        <ele>433.20001220703</ele>
        <time>2021-07-24T06:37:40.000Z</time>
      </trkpt>
      <trkpt lat="45.1986" lon="5.72761">
        <ele>433.20001220703</ele>
        <time>2021-07-24T06:37:41.000Z</time>
      </trkpt>
      <trkpt lat="45.19867" lon="5.72764">
        <ele>432.39999389648</ele>
        <time>2021-07-24T06:37:45.000Z</time>
      </trkpt>
      <trkpt lat="45.19863" lon="5.72766">
        <ele>431.79998779297</ele>
        <time>2021-07-24T06:37:47.000Z</time>
      </trkpt>
      <trkpt lat="45.19862" lon="5.72766">
        <ele>431.60000610352</ele>
        <time>2021-07-24T06:37:48.000Z</time>
      </trkpt>
      <trkpt lat="45.19858" lon="5.72768">
        <ele>429.60000610352</ele>
        <time>2021-07-24T06:37:51.000Z</time>
      </trkpt>
      <trkpt lat="45.19858" lon="5.72768">
        <ele>428</ele>
        <time>2021-07-24T06:37:53.000Z</time>
      </trkpt>
      <trkpt lat="45.19859" lon="5.72768">
        <ele>427.79998779297</ele>
        <time>2021-07-24T06:37:54.000Z</time>
      </trkpt>
      <trkpt lat="45.19861" lon="5.72773">
        <ele>427.39999389648</ele>
        <time>2021-07-24T06:37:57.000Z</time>
      </trkpt>
      <trkpt lat="45.1986" lon="5.72775">
        <ele>426.79998779297</ele>
        <time>2021-07-24T06:37:58.000Z</time>
      </trkpt>
      <trkpt lat="45.19862" lon="5.72802">
        <ele>415.39999389648</ele>
        <time>2021-07-24T06:38:28.000Z</time>
      </trkpt>
      <trkpt lat="45.19859" lon="5.72805">
        <ele>414.20001220703</ele>
        <time>2021-07-24T06:38:30.000Z</time>
      </trkpt>
      <trkpt lat="45.19857" lon="5.72801">
        <ele>413.79998779297</ele>
        <time>2021-07-24T06:38:32.000Z</time>
      </trkpt>
      <trkpt lat="45.19855" lon="5.72799">
        <ele>412.39999389648</ele>
        <time>2021-07-24T06:38:34.000Z</time>
      </trkpt>
      <trkpt lat="45.19852" lon="5.72797">
        <ele>411</ele>
        <time>2021-07-24T06:38:36.000Z</time>
      </trkpt>
      <trkpt lat="45.19852" lon="5.72796">
        <ele>410.79998779297</ele>
        <time>2021-07-24T06:38:38.000Z</time>
      </trkpt>
      <trkpt lat="45.19854" lon="5.72795">
        <ele>410.60000610352</ele>
        <time>2021-07-24T06:38:39.000Z</time>
      </trkpt>
      <trkpt lat="45.19856" lon="5.72795">
        <ele>410</ele>
        <time>2021-07-24T06:38:40.000Z</time>
      </trkpt>
      <trkpt lat="45.1986" lon="5.72799">
        <ele>410</ele>
        <time>2021-07-24T06:38:42.000Z</time>
      </trkpt>
      <trkpt lat="45.19859" lon="5.72801">
        <ele>409.79998779297</ele>
        <time>2021-07-24T06:38:43.000Z</time>
      </trkpt>
      <trkpt lat="45.19855" lon="5.72802">
        <ele>408.79998779297</ele>
        <time>2021-07-24T06:38:45.000Z</time>
      </trkpt>
      <trkpt lat="45.19852" lon="5.72801">
        <ele>408</ele>
        <time>2021-07-24T06:38:46.000Z</time>
      </trkpt>
      <trkpt lat="45.19844" lon="5.72797">
        <ele>407.79998779297</ele>
        <time>2021-07-24T06:38:49.000Z</time>
      </trkpt>
      <trkpt lat="45.19839" lon="5.72795">
        <ele>407.39999389648</ele>
        <time>2021-07-24T06:38:51.000Z</time>
      </trkpt>
      <trkpt lat="45.19834" lon="5.72792">
        <ele>406.60000610352</ele>
        <time>2021-07-24T06:38:53.000Z</time>
      </trkpt>
      <trkpt lat="45.19822" lon="5.72788">
        <ele>405.60000610352</ele>
        <time>2021-07-24T06:38:57.000Z</time>
      </trkpt>
      <trkpt lat="45.19816" lon="5.72781">
        <ele>404.60000610352</ele>
        <time>2021-07-24T06:39:00.000Z</time>
      </trkpt>
      <trkpt lat="45.19808" lon="5.72775">
        <ele>404.39999389648</ele>
        <time>2021-07-24T06:39:03.000Z</time>
      </trkpt>
      <trkpt lat="45.19804" lon="5.72769">
        <ele>403.39999389648</ele>
        <time>2021-07-24T06:39:05.000Z</time>
      </trkpt>
      <trkpt lat="45.19797" lon="5.72762">
        <ele>402.20001220703</ele>
        <time>2021-07-24T06:39:09.000Z</time>
      </trkpt>
      <trkpt lat="45.19796" lon="5.72762">
        <ele>401.60000610352</ele>
        <time>2021-07-24T06:39:11.000Z</time>
      </trkpt>
      <trkpt lat="45.19798" lon="5.72759">
        <ele>401.60000610352</ele>
        <time>2021-07-24T06:39:12.000Z</time>
      </trkpt>
      <trkpt lat="45.19802" lon="5.72759">
        <ele>401.20001220703</ele>
        <time>2021-07-24T06:39:14.000Z</time>
      </trkpt>
      <trkpt lat="45.19808" lon="5.72762">
        <ele>400.39999389648</ele>
        <time>2021-07-24T06:39:17.000Z</time>
      </trkpt>
      <trkpt lat="45.19811" lon="5.72763">
        <ele>399.79998779297</ele>
        <time>2021-07-24T06:39:18.000Z</time>
      </trkpt>
      <trkpt lat="45.19818" lon="5.72771">
        <ele>398.79998779297</ele>
        <time>2021-07-24T06:39:22.000Z</time>
      </trkpt>
      <trkpt lat="45.19821" lon="5.72775">
        <ele>398.39999389648</ele>
        <time>2021-07-24T06:39:23.000Z</time>
      </trkpt>
      <trkpt lat="45.19826" lon="5.72778">
        <ele>397.60000610352</ele>
        <time>2021-07-24T06:39:25.000Z</time>
      </trkpt>
      <trkpt lat="45.19829" lon="5.72781">
        <ele>396.79998779297</ele>
        <time>2021-07-24T06:39:27.000Z</time>
      </trkpt>
      <trkpt lat="45.1983" lon="5.72783">
        <ele>396.39999389648</ele>
        <time>2021-07-24T06:39:28.000Z</time>
      </trkpt>
      <trkpt lat="45.19834" lon="5.72786">
        <ele>396.20001220703</ele>
        <time>2021-07-24T06:39:30.000Z</time>
      </trkpt>
      <trkpt lat="45.19839" lon="5.72794">
        <ele>395.60000610352</ele>
        <time>2021-07-24T06:39:33.000Z</time>
      </trkpt>
      <trkpt lat="45.1984" lon="5.72797">
        <ele>394.60000610352</ele>
        <time>2021-07-24T06:39:34.000Z</time>
      </trkpt>
      <trkpt lat="45.1984" lon="5.72799">
        <ele>394.20001220703</ele>
        <time>2021-07-24T06:39:35.000Z</time>
      </trkpt>
      <trkpt lat="45.19846" lon="5.72806">
        <ele>392.79998779297</ele>
        <time>2021-07-24T06:39:39.000Z</time>
      </trkpt>
      <trkpt lat="45.19846" lon="5.72811">
        <ele>392</ele>
        <time>2021-07-24T06:39:42.000Z</time>
      </trkpt>
      <trkpt lat="45.19844" lon="5.7281">
        <ele>392</ele>
        <time>2021-07-24T06:39:43.000Z</time>
      </trkpt>
      <trkpt lat="45.19842" lon="5.7281">
        <ele>392</ele>
        <time>2021-07-24T06:39:44.000Z</time>
      </trkpt>
      <trkpt lat="45.19841" lon="5.7281">
        <ele>391.60000610352</ele>
        <time>2021-07-24T06:39:45.000Z</time>
      </trkpt>
      <trkpt lat="45.19836" lon="5.72807">
        <ele>390.60000610352</ele>
        <time>2021-07-24T06:39:47.000Z</time>
      </trkpt>
      <trkpt lat="45.19834" lon="5.72806">
        <ele>390.39999389648</ele>
        <time>2021-07-24T06:39:48.000Z</time>
      </trkpt>
      <trkpt lat="45.19824" lon="5.728">
        <ele>389</ele>
        <time>2021-07-24T06:39:52.000Z</time>
      </trkpt>
      <trkpt lat="45.19822" lon="5.72799">
        <ele>388.60000610352</ele>
        <time>2021-07-24T06:39:53.000Z</time>
      </trkpt>
      <trkpt lat="45.19816" lon="5.72797">
        <ele>387.79998779297</ele>
        <time>2021-07-24T06:39:55.000Z</time>
      </trkpt>
      <trkpt lat="45.19807" lon="5.72788">
        <ele>387.39999389648</ele>
        <time>2021-07-24T06:39:59.000Z</time>
      </trkpt>
      <trkpt lat="45.19803" lon="5.72787">
        <ele>387</ele>
        <time>2021-07-24T06:40:01.000Z</time>
      </trkpt>
      <trkpt lat="45.19803" lon="5.72788">
        <ele>386.60000610352</ele>
        <time>2021-07-24T06:40:02.000Z</time>
      </trkpt>
      <trkpt lat="45.19806" lon="5.72796">
        <ele>385.39999389648</ele>
        <time>2021-07-24T06:40:06.000Z</time>
      </trkpt>
      <trkpt lat="45.19818" lon="5.72804">
        <ele>384.60000610352</ele>
        <time>2021-07-24T06:40:11.000Z</time>
      </trkpt>
      <trkpt lat="45.1982" lon="5.72805">
        <ele>383.60000610352</ele>
        <time>2021-07-24T06:40:12.000Z</time>
      </trkpt>
      <trkpt lat="45.19827" lon="5.72811">
        <ele>382.20001220703</ele>
        <time>2021-07-24T06:40:15.000Z</time>
      </trkpt>
      <trkpt lat="45.19834" lon="5.72816">
        <ele>381.20001220703</ele>
        <time>2021-07-24T06:40:18.000Z</time>
      </trkpt>
      <trkpt lat="45.19836" lon="5.72818">
        <ele>381.20001220703</ele>
        <time>2021-07-24T06:40:19.000Z</time>
      </trkpt>
      <trkpt lat="45.19842" lon="5.72823">
        <ele>379.79998779297</ele>
        <time>2021-07-24T06:40:22.000Z</time>
      </trkpt>
      <trkpt lat="45.19845" lon="5.72828">
        <ele>379.39999389648</ele>
        <time>2021-07-24T06:40:25.000Z</time>
      </trkpt>
      <trkpt lat="45.19844" lon="5.72829">
        <ele>378.60000610352</ele>
        <time>2021-07-24T06:40:26.000Z</time>
      </trkpt>
      <trkpt lat="45.19835" lon="5.72824">
        <ele>378.39999389648</ele>
        <time>2021-07-24T06:40:30.000Z</time>
      </trkpt>
      <trkpt lat="45.1983" lon="5.72822">
        <ele>377.60000610352</ele>
        <time>2021-07-24T06:40:32.000Z</time>
      </trkpt>
      <trkpt lat="45.19822" lon="5.7282">
        <ele>375.79998779297</ele>
        <time>2021-07-24T06:40:35.000Z</time>
      </trkpt>
      <trkpt lat="45.1982" lon="5.72822">
        <ele>375.79998779297</ele>
        <time>2021-07-24T06:40:37.000Z</time>
      </trkpt>
      <trkpt lat="45.19823" lon="5.72826">
        <ele>375</ele>
        <time>2021-07-24T06:40:40.000Z</time>
      </trkpt>
      <trkpt lat="45.19825" lon="5.72827">
        <ele>374.39999389648</ele>
        <time>2021-07-24T06:40:41.000Z</time>
      </trkpt>
      <trkpt lat="45.19834" lon="5.72833">
        <ele>373</ele>
        <time>2021-07-24T06:40:45.000Z</time>
      </trkpt>
      <trkpt lat="45.19836" lon="5.72834">
        <ele>372.79998779297</ele>
        <time>2021-07-24T06:40:46.000Z</time>
      </trkpt>
      <trkpt lat="45.19836" lon="5.72836">
        <ele>372.39999389648</ele>
        <time>2021-07-24T06:40:47.000Z</time>
      </trkpt>
      <trkpt lat="45.19834" lon="5.72837">
        <ele>372.39999389648</ele>
        <time>2021-07-24T06:40:48.000Z</time>
      </trkpt>
      <trkpt lat="45.19833" lon="5.72837">
        <ele>372.39999389648</ele>
        <time>2021-07-24T06:40:49.000Z</time>
      </trkpt>
      <trkpt lat="45.19828" lon="5.72837">
        <ele>371.60000610352</ele>
        <time>2021-07-24T06:40:51.000Z</time>
      </trkpt>
      <trkpt lat="45.19825" lon="5.72836">
        <ele>371.20001220703</ele>
        <time>2021-07-24T06:40:52.000Z</time>
      </trkpt>
      <trkpt lat="45.1982" lon="5.72833">
        <ele>370.60000610352</ele>
        <time>2021-07-24T06:40:54.000Z</time>
      </trkpt>
      <trkpt lat="45.19813" lon="5.7283">
        <ele>370.20001220703</ele>
        <time>2021-07-24T06:40:57.000Z</time>
      </trkpt>
      <trkpt lat="45.19808" lon="5.72829">
        <ele>369.39999389648</ele>
        <time>2021-07-24T06:40:59.000Z</time>
      </trkpt>
      <trkpt lat="45.19802" lon="5.72826">
        <ele>368.60000610352</ele>
        <time>2021-07-24T06:41:01.000Z</time>
      </trkpt>
      <trkpt lat="45.19797" lon="5.72822">
        <ele>368.39999389648</ele>
        <time>2021-07-24T06:41:03.000Z</time>
      </trkpt>
      <trkpt lat="45.19794" lon="5.72822">
        <ele>367.79998779297</ele>
        <time>2021-07-24T06:41:05.000Z</time>
      </trkpt>
      <trkpt lat="45.19796" lon="5.72824">
        <ele>367.20001220703</ele>
        <time>2021-07-24T06:41:07.000Z</time>
      </trkpt>
      <trkpt lat="45.19808" lon="5.72832">
        <ele>366</ele>
        <time>2021-07-24T06:41:12.000Z</time>
      </trkpt>
      <trkpt lat="45.19822" lon="5.72845">
        <ele>364.79998779297</ele>
        <time>2021-07-24T06:41:18.000Z</time>
      </trkpt>
      <trkpt lat="45.19824" lon="5.72849">
        <ele>364.20001220703</ele>
        <time>2021-07-24T06:41:20.000Z</time>
      </trkpt>
      <trkpt lat="45.19823" lon="5.72849">
        <ele>364.20001220703</ele>
        <time>2021-07-24T06:41:21.000Z</time>
      </trkpt>
      <trkpt lat="45.19821" lon="5.72849">
        <ele>363.60000610352</ele>
        <time>2021-07-24T06:41:22.000Z</time>
      </trkpt>
      <trkpt lat="45.19812" lon="5.72847">
        <ele>362.79998779297</ele>
        <time>2021-07-24T06:41:25.000Z</time>
      </trkpt>
      <trkpt lat="45.19807" lon="5.72845">
        <ele>362.60000610352</ele>
        <time>2021-07-24T06:41:27.000Z</time>
      </trkpt>
      <trkpt lat="45.19799" lon="5.72842">
        <ele>361.39999389648</ele>
        <time>2021-07-24T06:41:30.000Z</time>
      </trkpt>
      <trkpt lat="45.19796" lon="5.7284">
        <ele>361.39999389648</ele>
        <time>2021-07-24T06:41:31.000Z</time>
      </trkpt>
      <trkpt lat="45.19787" lon="5.72834">
        <ele>360</ele>
        <time>2021-07-24T06:41:34.000Z</time>
      </trkpt>
      <trkpt lat="45.19776" lon="5.72829">
        <ele>359</ele>
        <time>2021-07-24T06:41:38.000Z</time>
      </trkpt>
      <trkpt lat="45.19773" lon="5.72827">
        <ele>358</ele>
        <time>2021-07-24T06:41:39.000Z</time>
      </trkpt>
      <trkpt lat="45.19762" lon="5.72821">
        <ele>357</ele>
        <time>2021-07-24T06:41:44.000Z</time>
      </trkpt>
      <trkpt lat="45.19759" lon="5.72819">
        <ele>356.79998779297</ele>
        <time>2021-07-24T06:41:45.000Z</time>
      </trkpt>
      <trkpt lat="45.19757" lon="5.72819">
        <ele>356.39999389648</ele>
        <time>2021-07-24T06:41:46.000Z</time>
      </trkpt>
      <trkpt lat="45.19755" lon="5.72818">
        <ele>356.20001220703</ele>
        <time>2021-07-24T06:41:48.000Z</time>
      </trkpt>
      <trkpt lat="45.19755" lon="5.72817">
        <ele>355.39999389648</ele>
        <time>2021-07-24T06:41:49.000Z</time>
      </trkpt>
      <trkpt lat="45.19757" lon="5.72818">
        <ele>355</ele>
        <time>2021-07-24T06:41:50.000Z</time>
      </trkpt>
      <trkpt lat="45.1976" lon="5.72822">
        <ele>354.79998779297</ele>
        <time>2021-07-24T06:41:52.000Z</time>
      </trkpt>
      <trkpt lat="45.19764" lon="5.72826">
        <ele>354</ele>
        <time>2021-07-24T06:41:54.000Z</time>
      </trkpt>
      <trkpt lat="45.19772" lon="5.72836">
        <ele>352.39999389648</ele>
        <time>2021-07-24T06:41:59.000Z</time>
      </trkpt>
      <trkpt lat="45.19776" lon="5.72841">
        <ele>351.60000610352</ele>
        <time>2021-07-24T06:42:01.000Z</time>
      </trkpt>
      <trkpt lat="45.19778" lon="5.72843">
        <ele>351.20001220703</ele>
        <time>2021-07-24T06:42:02.000Z</time>
      </trkpt>
      <trkpt lat="45.19787" lon="5.72852">
        <ele>350.20001220703</ele>
        <time>2021-07-24T06:42:06.000Z</time>
      </trkpt>
      <trkpt lat="45.1979" lon="5.72854">
        <ele>349.60000610352</ele>
        <time>2021-07-24T06:42:07.000Z</time>
      </trkpt>
      <trkpt lat="45.19798" lon="5.72862">
        <ele>348.60000610352</ele>
        <time>2021-07-24T06:42:11.000Z</time>
      </trkpt>
      <trkpt lat="45.198" lon="5.72865">
        <ele>348</ele>
        <time>2021-07-24T06:42:12.000Z</time>
      </trkpt>
      <trkpt lat="45.19809" lon="5.72874">
        <ele>347.20001220703</ele>
        <time>2021-07-24T06:42:16.000Z</time>
      </trkpt>
      <trkpt lat="45.1981" lon="5.72876">
        <ele>346.20001220703</ele>
        <time>2021-07-24T06:42:17.000Z</time>
      </trkpt>
      <trkpt lat="45.19811" lon="5.72879">
        <ele>346.20001220703</ele>
        <time>2021-07-24T06:42:18.000Z</time>
      </trkpt>
      <trkpt lat="45.19806" lon="5.72882">
        <ele>345.20001220703</ele>
        <time>2021-07-24T06:42:21.000Z</time>
      </trkpt>
      <trkpt lat="45.19796" lon="5.72881">
        <ele>344.39999389648</ele>
        <time>2021-07-24T06:42:25.000Z</time>
      </trkpt>
      <trkpt lat="45.19793" lon="5.7288">
        <ele>344.20001220703</ele>
        <time>2021-07-24T06:42:26.000Z</time>
      </trkpt>
      <trkpt lat="45.19789" lon="5.72877">
        <ele>343</ele>
        <time>2021-07-24T06:42:28.000Z</time>
      </trkpt>
      <trkpt lat="45.1978" lon="5.72875">
        <ele>342.60000610352</ele>
        <time>2021-07-24T06:42:31.000Z</time>
      </trkpt>
      <trkpt lat="45.19777" lon="5.72873">
        <ele>341.79998779297</ele>
        <time>2021-07-24T06:42:32.000Z</time>
      </trkpt>
      <trkpt lat="45.19772" lon="5.7287">
        <ele>340.60000610352</ele>
        <time>2021-07-24T06:42:34.000Z</time>
      </trkpt>
      <trkpt lat="45.19763" lon="5.72865">
        <ele>340.20001220703</ele>
        <time>2021-07-24T06:42:37.000Z</time>
      </trkpt>
      <trkpt lat="45.19757" lon="5.72863">
        <ele>339.39999389648</ele>
        <time>2021-07-24T06:42:39.000Z</time>
      </trkpt>
      <trkpt lat="45.19752" lon="5.72859">
        <ele>338.79998779297</ele>
        <time>2021-07-24T06:42:41.000Z</time>
      </trkpt>
      <trkpt lat="45.19748" lon="5.72856">
        <ele>338</ele>
        <time>2021-07-24T06:42:43.000Z</time>
      </trkpt>
      <trkpt lat="45.19745" lon="5.72855">
        <ele>337.39999389648</ele>
        <time>2021-07-24T06:42:45.000Z</time>
      </trkpt>
      <trkpt lat="45.19745" lon="5.72856">
        <ele>337.20001220703</ele>
        <time>2021-07-24T06:42:46.000Z</time>
      </trkpt>
      <trkpt lat="45.19749" lon="5.7286">
        <ele>337</ele>
        <time>2021-07-24T06:42:49.000Z</time>
      </trkpt>
      <trkpt lat="45.1975" lon="5.72861">
        <ele>336</ele>
        <time>2021-07-24T06:42:50.000Z</time>
      </trkpt>
      <trkpt lat="45.1976" lon="5.72868">
        <ele>334.39999389648</ele>
        <time>2021-07-24T06:42:55.000Z</time>
      </trkpt>
      <trkpt lat="45.19761" lon="5.72869">
        <ele>334.20001220703</ele>
        <time>2021-07-24T06:42:56.000Z</time>
      </trkpt>
      <trkpt lat="45.19765" lon="5.72875">
        <ele>334.20001220703</ele>
        <time>2021-07-24T06:42:58.000Z</time>
      </trkpt>
      <trkpt lat="45.19768" lon="5.7288">
        <ele>333.20001220703</ele>
        <time>2021-07-24T06:43:00.000Z</time>
      </trkpt>
      <trkpt lat="45.19772" lon="5.72884">
        <ele>332.60000610352</ele>
        <time>2021-07-24T06:43:02.000Z</time>
      </trkpt>
      <trkpt lat="45.19777" lon="5.72888">
        <ele>331.20001220703</ele>
        <time>2021-07-24T06:43:04.000Z</time>
      </trkpt>
      <trkpt lat="45.19788" lon="5.72903">
        <ele>330</ele>
        <time>2021-07-24T06:43:09.000Z</time>
      </trkpt>
      <trkpt lat="45.19789" lon="5.72905">
        <ele>330</ele>
        <time>2021-07-24T06:43:10.000Z</time>
      </trkpt>
      <trkpt lat="45.19792" lon="5.72908">
        <ele>329</ele>
        <time>2021-07-24T06:43:11.000Z</time>
      </trkpt>
      <trkpt lat="45.19799" lon="5.72917">
        <ele>327.79998779297</ele>
        <time>2021-07-24T06:43:15.000Z</time>
      </trkpt>
      <trkpt lat="45.198" lon="5.7292">
        <ele>327.60000610352</ele>
        <time>2021-07-24T06:43:16.000Z</time>
      </trkpt>
      <trkpt lat="45.19794" lon="5.72926">
        <ele>327</ele>
        <time>2021-07-24T06:43:20.000Z</time>
      </trkpt>
      <trkpt lat="45.19791" lon="5.72926">
        <ele>326.20001220703</ele>
        <time>2021-07-24T06:43:21.000Z</time>
      </trkpt>
      <trkpt lat="45.19784" lon="5.72925">
        <ele>325</ele>
        <time>2021-07-24T06:43:24.000Z</time>
      </trkpt>
      <trkpt lat="45.19779" lon="5.72923">
        <ele>325</ele>
        <time>2021-07-24T06:43:26.000Z</time>
      </trkpt>
      <trkpt lat="45.19769" lon="5.7292">
        <ele>324.20001220703</ele>
        <time>2021-07-24T06:43:30.000Z</time>
      </trkpt>
      <trkpt lat="45.19766" lon="5.72919">
        <ele>323.60000610352</ele>
        <time>2021-07-24T06:43:31.000Z</time>
      </trkpt>
      <trkpt lat="45.19758" lon="5.72915">
        <ele>322.20001220703</ele>
        <time>2021-07-24T06:43:34.000Z</time>
      </trkpt>
      <trkpt lat="45.19748" lon="5.72908">
        <ele>320.60000610352</ele>
        <time>2021-07-24T06:43:38.000Z</time>
      </trkpt>
      <trkpt lat="45.19737" lon="5.72903">
        <ele>319.60000610352</ele>
        <time>2021-07-24T06:43:42.000Z</time>
      </trkpt>
      <trkpt lat="45.19727" lon="5.72899">
        <ele>318.20001220703</ele>
        <time>2021-07-24T06:43:46.000Z</time>
      </trkpt>
      <trkpt lat="45.19719" lon="5.72893">
        <ele>318</ele>
        <time>2021-07-24T06:43:49.000Z</time>
      </trkpt>
      <trkpt lat="45.19713" lon="5.72891">
        <ele>316.60000610352</ele>
        <time>2021-07-24T06:43:51.000Z</time>
      </trkpt>
      <trkpt lat="45.19706" lon="5.72883">
        <ele>316</ele>
        <time>2021-07-24T06:43:54.000Z</time>
      </trkpt>
      <trkpt lat="45.19697" lon="5.72875">
        <ele>315</ele>
        <time>2021-07-24T06:43:58.000Z</time>
      </trkpt>
      <trkpt lat="45.19693" lon="5.72873">
        <ele>314.39999389648</ele>
        <time>2021-07-24T06:44:00.000Z</time>
      </trkpt>
      <trkpt lat="45.19693" lon="5.72874">
        <ele>314.20001220703</ele>
        <time>2021-07-24T06:44:01.000Z</time>
      </trkpt>
      <trkpt lat="45.19695" lon="5.72877">
        <ele>313.20001220703</ele>
        <time>2021-07-24T06:44:03.000Z</time>
      </trkpt>
      <trkpt lat="45.19698" lon="5.72877">
        <ele>313</ele>
        <time>2021-07-24T06:44:05.000Z</time>
      </trkpt>
      <trkpt lat="45.197" lon="5.72878">
        <ele>313</ele>
        <time>2021-07-24T06:44:06.000Z</time>
      </trkpt>
      <trkpt lat="45.19702" lon="5.7288">
        <ele>312</ele>
        <time>2021-07-24T06:44:07.000Z</time>
      </trkpt>
      <trkpt lat="45.19708" lon="5.7289">
        <ele>310.79998779297</ele>
        <time>2021-07-24T06:44:11.000Z</time>
      </trkpt>
      <trkpt lat="45.1971" lon="5.72893">
        <ele>310.39999389648</ele>
        <time>2021-07-24T06:44:12.000Z</time>
      </trkpt>
      <trkpt lat="45.19719" lon="5.72903">
        <ele>309.79998779297</ele>
        <time>2021-07-24T06:44:16.000Z</time>
      </trkpt>
      <trkpt lat="45.19721" lon="5.72906">
        <ele>308.79998779297</ele>
        <time>2021-07-24T06:44:17.000Z</time>
      </trkpt>
      <trkpt lat="45.19728" lon="5.72916">
        <ele>308</ele>
        <time>2021-07-24T06:44:21.000Z</time>
      </trkpt>
      <trkpt lat="45.19733" lon="5.72923">
        <ele>307</ele>
        <time>2021-07-24T06:44:24.000Z</time>
      </trkpt>
      <trkpt lat="45.19737" lon="5.72929">
        <ele>306.20001220703</ele>
        <time>2021-07-24T06:44:27.000Z</time>
      </trkpt>
      <trkpt lat="45.19739" lon="5.72935">
        <ele>305.60000610352</ele>
        <time>2021-07-24T06:44:29.000Z</time>
      </trkpt>
      <trkpt lat="45.19745" lon="5.72945">
        <ele>304.60000610352</ele>
        <time>2021-07-24T06:44:32.000Z</time>
      </trkpt>
      <trkpt lat="45.19747" lon="5.72949">
        <ele>304.20001220703</ele>
        <time>2021-07-24T06:44:33.000Z</time>
      </trkpt>
      <trkpt lat="45.19754" lon="5.72961">
        <ele>302.79998779297</ele>
        <time>2021-07-24T06:44:37.000Z</time>
      </trkpt>
      <trkpt lat="45.19757" lon="5.72965">
        <ele>302.60000610352</ele>
        <time>2021-07-24T06:44:39.000Z</time>
      </trkpt>
      <trkpt lat="45.1976" lon="5.7297">
        <ele>301.79998779297</ele>
        <time>2021-07-24T06:44:41.000Z</time>
      </trkpt>
      <trkpt lat="45.19766" lon="5.72976">
        <ele>301.20001220703</ele>
        <time>2021-07-24T06:44:45.000Z</time>
      </trkpt>
      <trkpt lat="45.19768" lon="5.72978">
        <ele>300.39999389648</ele>
        <time>2021-07-24T06:44:46.000Z</time>
      </trkpt>
      <trkpt lat="45.19773" lon="5.72983">
        <ele>299.60000610352</ele>
        <time>2021-07-24T06:44:49.000Z</time>
      </trkpt>
      <trkpt lat="45.19777" lon="5.72987">
        <ele>298.79998779297</ele>
        <time>2021-07-24T06:44:51.000Z</time>
      </trkpt>
      <trkpt lat="45.19778" lon="5.72989">
        <ele>298.39999389648</ele>
        <time>2021-07-24T06:44:52.000Z</time>
      </trkpt>
      <trkpt lat="45.19784" lon="5.72997">
        <ele>297.79998779297</ele>
        <time>2021-07-24T06:44:55.000Z</time>
      </trkpt>
      <trkpt lat="45.19791" lon="5.73006">
        <ele>297</ele>
        <time>2021-07-24T06:44:58.000Z</time>
      </trkpt>
      <trkpt lat="45.19794" lon="5.73008">
        <ele>296.60000610352</ele>
        <time>2021-07-24T06:44:59.000Z</time>
      </trkpt>
      <trkpt lat="45.198" lon="5.73012">
        <ele>296.60000610352</ele>
        <time>2021-07-24T06:45:01.000Z</time>
      </trkpt>
      <trkpt lat="45.19805" lon="5.73017">
        <ele>295.60000610352</ele>
        <time>2021-07-24T06:45:03.000Z</time>
      </trkpt>
      <trkpt lat="45.19804" lon="5.73025">
        <ele>295.20001220703</ele>
        <time>2021-07-24T06:45:05.000Z</time>
      </trkpt>
      <trkpt lat="45.19798" lon="5.73028">
        <ele>294.20001220703</ele>
        <time>2021-07-24T06:45:08.000Z</time>
      </trkpt>
      <trkpt lat="45.19796" lon="5.73028">
        <ele>294</ele>
        <time>2021-07-24T06:45:09.000Z</time>
      </trkpt>
      <trkpt lat="45.19785" lon="5.73028">
        <ele>293</ele>
        <time>2021-07-24T06:45:13.000Z</time>
      </trkpt>
      <trkpt lat="45.19777" lon="5.73025">
        <ele>292.20001220703</ele>
        <time>2021-07-24T06:45:16.000Z</time>
      </trkpt>
      <trkpt lat="45.19772" lon="5.73024">
        <ele>292</ele>
        <time>2021-07-24T06:45:18.000Z</time>
      </trkpt>
      <trkpt lat="45.19769" lon="5.73025">
        <ele>291.60000610352</ele>
        <time>2021-07-24T06:45:19.000Z</time>
      </trkpt>
      <trkpt lat="45.19769" lon="5.73029">
        <ele>290.60000610352</ele>
        <time>2021-07-24T06:45:21.000Z</time>
      </trkpt>
      <trkpt lat="45.19771" lon="5.73029">
        <ele>290.39999389648</ele>
        <time>2021-07-24T06:45:23.000Z</time>
      </trkpt>
      <trkpt lat="45.19775" lon="5.73031">
        <ele>289.39999389648</ele>
        <time>2021-07-24T06:45:25.000Z</time>
      </trkpt>
      <trkpt lat="45.1978" lon="5.73032">
        <ele>288.79998779297</ele>
        <time>2021-07-24T06:45:28.000Z</time>
      </trkpt>
      <trkpt lat="45.19781" lon="5.73032">
        <ele>288.79998779297</ele>
        <time>2021-07-24T06:45:29.000Z</time>
      </trkpt>
      <trkpt lat="45.19783" lon="5.73032">
        <ele>288.39999389648</ele>
        <time>2021-07-24T06:45:30.000Z</time>
      </trkpt>
      <trkpt lat="45.19788" lon="5.73033">
        <ele>287.60000610352</ele>
        <time>2021-07-24T06:45:32.000Z</time>
      </trkpt>
      <trkpt lat="45.19793" lon="5.73035">
        <ele>286.79998779297</ele>
        <time>2021-07-24T06:45:34.000Z</time>
      </trkpt>
      <trkpt lat="45.19799" lon="5.7304">
        <ele>286.79998779297</ele>
        <time>2021-07-24T06:45:37.000Z</time>
      </trkpt>
      <trkpt lat="45.198" lon="5.73041">
        <ele>286.79998779297</ele>
        <time>2021-07-24T06:45:38.000Z</time>
      </trkpt>
      <trkpt lat="45.198" lon="5.73043">
        <ele>285.60000610352</ele>
        <time>2021-07-24T06:45:40.000Z</time>
      </trkpt>
      <trkpt lat="45.19797" lon="5.73046">
        <ele>285</ele>
        <time>2021-07-24T06:45:42.000Z</time>
      </trkpt>
      <trkpt lat="45.19795" lon="5.73046">
        <ele>284.39999389648</ele>
        <time>2021-07-24T06:45:43.000Z</time>
      </trkpt>
      <trkpt lat="45.1979" lon="5.73045">
        <ele>283.20001220703</ele>
        <time>2021-07-24T06:45:45.000Z</time>
      </trkpt>
      <trkpt lat="45.19778" lon="5.73043">
        <ele>282.20001220703</ele>
        <time>2021-07-24T06:45:50.000Z</time>
      </trkpt>
      <trkpt lat="45.19773" lon="5.73043">
        <ele>280.79998779297</ele>
        <time>2021-07-24T06:45:52.000Z</time>
      </trkpt>
      <trkpt lat="45.1976" lon="5.73043">
        <ele>279.39999389648</ele>
        <time>2021-07-24T06:45:57.000Z</time>
      </trkpt>
      <trkpt lat="45.19758" lon="5.73044">
        <ele>278.60000610352</ele>
        <time>2021-07-24T06:46:00.000Z</time>
      </trkpt>
      <trkpt lat="45.1976" lon="5.73045">
        <ele>278.39999389648</ele>
        <time>2021-07-24T06:46:01.000Z</time>
      </trkpt>
      <trkpt lat="45.19762" lon="5.73046">
        <ele>277.60000610352</ele>
        <time>2021-07-24T06:46:02.000Z</time>
      </trkpt>
      <trkpt lat="45.19773" lon="5.73048">
        <ele>276.79998779297</ele>
        <time>2021-07-24T06:46:06.000Z</time>
      </trkpt>
      <trkpt lat="45.19775" lon="5.73048">
        <ele>276.60000610352</ele>
        <time>2021-07-24T06:46:07.000Z</time>
      </trkpt>
      <trkpt lat="45.1978" lon="5.7305">
        <ele>276</ele>
        <time>2021-07-24T06:46:10.000Z</time>
      </trkpt>
      <trkpt lat="45.19781" lon="5.7305">
        <ele>275.60000610352</ele>
        <time>2021-07-24T06:46:11.000Z</time>
      </trkpt>
      <trkpt lat="45.19784" lon="5.73052">
        <ele>275.39999389648</ele>
        <time>2021-07-24T06:46:12.000Z</time>
      </trkpt>
      <trkpt lat="45.19787" lon="5.73053">
        <ele>274.39999389648</ele>
        <time>2021-07-24T06:46:13.000Z</time>
      </trkpt>
      <trkpt lat="45.19796" lon="5.73059">
        <ele>273.20001220703</ele>
        <time>2021-07-24T06:46:17.000Z</time>
      </trkpt>
      <trkpt lat="45.19798" lon="5.73063">
        <ele>272.60000610352</ele>
        <time>2021-07-24T06:46:19.000Z</time>
      </trkpt>
      <trkpt lat="45.19793" lon="5.73067">
        <ele>272.60000610352</ele>
        <time>2021-07-24T06:46:21.000Z</time>
      </trkpt>
      <trkpt lat="45.19789" lon="5.73067">
        <ele>272.20001220703</ele>
        <time>2021-07-24T06:46:23.000Z</time>
      </trkpt>
      <trkpt lat="45.19785" lon="5.73067">
        <ele>271</ele>
        <time>2021-07-24T06:46:25.000Z</time>
      </trkpt>
      <trkpt lat="45.1978" lon="5.73067">
        <ele>270.60000610352</ele>
        <time>2021-07-24T06:46:27.000Z</time>
      </trkpt>
      <trkpt lat="45.19779" lon="5.73067">
        <ele>270.20001220703</ele>
        <time>2021-07-24T06:46:28.000Z</time>
      </trkpt>
      <trkpt lat="45.19772" lon="5.73067">
        <ele>269.39999389648</ele>
        <time>2021-07-24T06:46:31.000Z</time>
      </trkpt>
      <trkpt lat="45.19764" lon="5.73066">
        <ele>267.79998779297</ele>
        <time>2021-07-24T06:46:34.000Z</time>
      </trkpt>
      <trkpt lat="45.1976" lon="5.73069">
        <ele>267.79998779297</ele>
        <time>2021-07-24T06:46:36.000Z</time>
      </trkpt>
      <trkpt lat="45.19759" lon="5.7307">
        <ele>267.20001220703</ele>
        <time>2021-07-24T06:46:37.000Z</time>
      </trkpt>
      <trkpt lat="45.19759" lon="5.7307">
        <ele>267.20001220703</ele>
        <time>2021-07-24T06:46:38.000Z</time>
      </trkpt>
      <trkpt lat="45.19759" lon="5.73069">
        <ele>266.79998779297</ele>
        <time>2021-07-24T06:46:39.000Z</time>
      </trkpt>
      <trkpt lat="45.19762" lon="5.7307">
        <ele>266.39999389648</ele>
        <time>2021-07-24T06:46:41.000Z</time>
      </trkpt>
      <trkpt lat="45.19765" lon="5.73071">
        <ele>266.39999389648</ele>
        <time>2021-07-24T06:46:42.000Z</time>
      </trkpt>
      <trkpt lat="45.19769" lon="5.73073">
        <ele>265.60000610352</ele>
        <time>2021-07-24T06:46:44.000Z</time>
      </trkpt>
      <trkpt lat="45.19772" lon="5.73074">
        <ele>264.60000610352</ele>
        <time>2021-07-24T06:46:46.000Z</time>
      </trkpt>
      <trkpt lat="45.19775" lon="5.73076">
        <ele>264.39999389648</ele>
        <time>2021-07-24T06:46:48.000Z</time>
      </trkpt>
      <trkpt lat="45.19779" lon="5.73077">
        <ele>263.39999389648</ele>
        <time>2021-07-24T06:46:50.000Z</time>
      </trkpt>
      <trkpt lat="45.19786" lon="5.73082">
        <ele>262.20001220703</ele>
        <time>2021-07-24T06:46:54.000Z</time>
      </trkpt>
      <trkpt lat="45.19788" lon="5.73083">
        <ele>262</ele>
        <time>2021-07-24T06:46:55.000Z</time>
      </trkpt>
      <trkpt lat="45.19791" lon="5.73087">
        <ele>261.20001220703</ele>
        <time>2021-07-24T06:46:57.000Z</time>
      </trkpt>
      <trkpt lat="45.19801" lon="5.73091">
        <ele>260.79998779297</ele>
        <time>2021-07-24T06:47:01.000Z</time>
      </trkpt>
      <trkpt lat="45.198" lon="5.73094">
        <ele>260</ele>
        <time>2021-07-24T06:47:03.000Z</time>
      </trkpt>
      <trkpt lat="45.19797" lon="5.73095">
        <ele>259.79998779297</ele>
        <time>2021-07-24T06:47:04.000Z</time>
      </trkpt>
      <trkpt lat="45.19789" lon="5.731">
        <ele>258.60000610352</ele>
        <time>2021-07-24T06:47:07.000Z</time>
      </trkpt>
      <trkpt lat="45.19783" lon="5.73099">
        <ele>258.20001220703</ele>
        <time>2021-07-24T06:47:09.000Z</time>
      </trkpt>
      <trkpt lat="45.19775" lon="5.73096">
        <ele>256.79998779297</ele>
        <time>2021-07-24T06:47:12.000Z</time>
      </trkpt>
      <trkpt lat="45.19765" lon="5.73095">
        <ele>255.60000610352</ele>
        <time>2021-07-24T06:47:16.000Z</time>
      </trkpt>
      <trkpt lat="45.19763" lon="5.73097">
        <ele>255.39999389648</ele>
        <time>2021-07-24T06:47:18.000Z</time>
      </trkpt>
      <trkpt lat="45.19763" lon="5.73098">
        <ele>254.60000610352</ele>
        <time>2021-07-24T06:47:20.000Z</time>
      </trkpt>
      <trkpt lat="45.19765" lon="5.731">
        <ele>254</ele>
        <time>2021-07-24T06:47:22.000Z</time>
      </trkpt>
      <trkpt lat="45.1977" lon="5.73103">
        <ele>253.19999694824</ele>
        <time>2021-07-24T06:47:25.000Z</time>
      </trkpt>
      <trkpt lat="45.19771" lon="5.73104">
        <ele>252.39999389648</ele>
        <time>2021-07-24T06:47:27.000Z</time>
      </trkpt>
      <trkpt lat="45.19779" lon="5.73108">
        <ele>251</ele>
        <time>2021-07-24T06:47:32.000Z</time>
      </trkpt>
      <trkpt lat="45.19784" lon="5.73115">
        <ele>250.60000610352</ele>
        <time>2021-07-24T06:47:34.000Z</time>
      </trkpt>
      <trkpt lat="45.19792" lon="5.73117">
        <ele>250</ele>
        <time>2021-07-24T06:47:37.000Z</time>
      </trkpt>
      <trkpt lat="45.19793" lon="5.7312">
        <ele>249</ele>
        <time>2021-07-24T06:47:39.000Z</time>
      </trkpt>
      <trkpt lat="45.19792" lon="5.73121">
        <ele>248.80000305176</ele>
        <time>2021-07-24T06:47:40.000Z</time>
      </trkpt>
      <trkpt lat="45.19784" lon="5.73126">
        <ele>247.39999389648</ele>
        <time>2021-07-24T06:47:44.000Z</time>
      </trkpt>
      <trkpt lat="45.19783" lon="5.73128">
        <ele>247</ele>
        <time>2021-07-24T06:47:45.000Z</time>
      </trkpt>
      <trkpt lat="45.19782" lon="5.73131">
        <ele>247</ele>
        <time>2021-07-24T06:47:46.000Z</time>
      </trkpt>
      <trkpt lat="45.19782" lon="5.7314">
        <ele>246.39999389648</ele>
        <time>2021-07-24T06:47:49.000Z</time>
      </trkpt>
      <trkpt lat="45.19782" lon="5.73144">
        <ele>245.19999694824</ele>
        <time>2021-07-24T06:47:50.000Z</time>
      </trkpt>
      <trkpt lat="45.19779" lon="5.73155">
        <ele>244.19999694824</ele>
        <time>2021-07-24T06:47:53.000Z</time>
      </trkpt>
      <trkpt lat="45.19778" lon="5.73163">
        <ele>243.39999389648</ele>
        <time>2021-07-24T06:47:55.000Z</time>
      </trkpt>
      <trkpt lat="45.19779" lon="5.73172">
        <ele>243</ele>
        <time>2021-07-24T06:47:57.000Z</time>
      </trkpt>
      <trkpt lat="45.19782" lon="5.73184">
        <ele>242</ele>
        <time>2021-07-24T06:48:01.000Z</time>
      </trkpt>
      <trkpt lat="45.19784" lon="5.73206">
        <ele>242.19999694824</ele>
        <time>2021-07-24T06:48:06.000Z</time>
      </trkpt>
      <trkpt lat="45.19782" lon="5.73233">
        <ele>242.39999389648</ele>
        <time>2021-07-24T06:48:13.000Z</time>
      </trkpt>
      <trkpt lat="45.19782" lon="5.73237">
        <ele>242.39999389648</ele>
        <time>2021-07-24T06:48:14.000Z</time>
      </trkpt>
      <trkpt lat="45.19782" lon="5.73243">
        <ele>242.39999389648</ele>
        <time>2021-07-24T06:48:16.000Z</time>
      </trkpt>
      <trkpt lat="45.19783" lon="5.73249">
        <ele>242.39999389648</ele>
        <time>2021-07-24T06:48:18.000Z</time>
      </trkpt>
      <trkpt lat="45.19786" lon="5.73252">
        <ele>242.60000610352</ele>
        <time>2021-07-24T06:48:20.000Z</time>
      </trkpt>
      <trkpt lat="45.19792" lon="5.73258">
        <ele>242.39999389648</ele>
        <time>2021-07-24T06:48:24.000Z</time>
      </trkpt>
      <trkpt lat="45.19807" lon="5.73261">
        <ele>242.60000610352</ele>
        <time>2021-07-24T06:48:30.000Z</time>
      </trkpt>
      <trkpt lat="45.19822" lon="5.73265">
        <ele>242.80000305176</ele>
        <time>2021-07-24T06:48:36.000Z</time>
      </trkpt>
      <trkpt lat="45.19837" lon="5.73271">
        <ele>242.60000610352</ele>
        <time>2021-07-24T06:48:42.000Z</time>
      </trkpt>
      <trkpt lat="45.1985" lon="5.73273">
        <ele>242.60000610352</ele>
        <time>2021-07-24T06:48:48.000Z</time>
      </trkpt>
      <trkpt lat="45.19853" lon="5.73273">
        <ele>242.60000610352</ele>
        <time>2021-07-24T06:48:49.000Z</time>
      </trkpt>
      <trkpt lat="45.19872" lon="5.73269">
        <ele>243.19999694824</ele>
        <time>2021-07-24T06:48:56.000Z</time>
      </trkpt>
      <trkpt lat="45.19886" lon="5.73276">
        <ele>242.80000305176</ele>
        <time>2021-07-24T06:49:01.000Z</time>
      </trkpt>
      <trkpt lat="45.19894" lon="5.73277">
        <ele>242.60000610352</ele>
        <time>2021-07-24T06:49:04.000Z</time>
      </trkpt>
      <trkpt lat="45.19897" lon="5.73277">
        <ele>242.60000610352</ele>
        <time>2021-07-24T06:49:05.000Z</time>
      </trkpt>
      <trkpt lat="45.19906" lon="5.73283">
        <ele>242.80000305176</ele>
        <time>2021-07-24T06:49:08.000Z</time>
      </trkpt>
      <trkpt lat="45.19922" lon="5.73296">
        <ele>242.80000305176</ele>
        <time>2021-07-24T06:49:14.000Z</time>
      </trkpt>
      <trkpt lat="45.1994" lon="5.73308">
        <ele>243.19999694824</ele>
        <time>2021-07-24T06:49:21.000Z</time>
      </trkpt>
      <trkpt lat="45.19956" lon="5.73315">
        <ele>242.60000610352</ele>
        <time>2021-07-24T06:49:27.000Z</time>
      </trkpt>
      <trkpt lat="45.19967" lon="5.7332">
        <ele>242.80000305176</ele>
        <time>2021-07-24T06:49:31.000Z</time>
      </trkpt>
      <trkpt lat="45.19972" lon="5.73322">
        <ele>242.39999389648</ele>
        <time>2021-07-24T06:49:33.000Z</time>
      </trkpt>
      <trkpt lat="45.19989" lon="5.7333">
        <ele>242.39999389648</ele>
        <time>2021-07-24T06:49:39.000Z</time>
      </trkpt>
      <trkpt lat="45.20003" lon="5.73338">
        <ele>241.80000305176</ele>
        <time>2021-07-24T06:49:44.000Z</time>
      </trkpt>
      <trkpt lat="45.2002" lon="5.7335">
        <ele>241.80000305176</ele>
        <time>2021-07-24T06:49:50.000Z</time>
      </trkpt>
      <trkpt lat="45.20023" lon="5.73352">
        <ele>241.80000305176</ele>
        <time>2021-07-24T06:49:51.000Z</time>
      </trkpt>
      <trkpt lat="45.20041" lon="5.73361">
        <ele>241.39999389648</ele>
        <time>2021-07-24T06:49:57.000Z</time>
      </trkpt>
      <trkpt lat="45.20044" lon="5.73362">
        <ele>241.60000610352</ele>
        <time>2021-07-24T06:49:58.000Z</time>
      </trkpt>
      <trkpt lat="45.20059" lon="5.73369">
        <ele>241.80000305176</ele>
        <time>2021-07-24T06:50:04.000Z</time>
      </trkpt>
      <trkpt lat="45.20074" lon="5.73374">
        <ele>242</ele>
        <time>2021-07-24T06:50:09.000Z</time>
      </trkpt>
      <trkpt lat="45.20082" lon="5.73376">
        <ele>241.60000610352</ele>
        <time>2021-07-24T06:50:12.000Z</time>
      </trkpt>
      <trkpt lat="45.20102" lon="5.73385">
        <ele>241.60000610352</ele>
        <time>2021-07-24T06:50:19.000Z</time>
      </trkpt>
      <trkpt lat="45.20104" lon="5.73386">
        <ele>241.39999389648</ele>
        <time>2021-07-24T06:50:20.000Z</time>
      </trkpt>
      <trkpt lat="45.20108" lon="5.73389">
        <ele>241.19999694824</ele>
        <time>2021-07-24T06:50:22.000Z</time>
      </trkpt>
      <trkpt lat="45.20124" lon="5.73403">
        <ele>240.60000610352</ele>
        <time>2021-07-24T06:50:29.000Z</time>
      </trkpt>
      <trkpt lat="45.20137" lon="5.73426">
        <ele>240</ele>
        <time>2021-07-24T06:50:35.000Z</time>
      </trkpt>
      <trkpt lat="45.20141" lon="5.73432">
        <ele>239.80000305176</ele>
        <time>2021-07-24T06:50:37.000Z</time>
      </trkpt>
      <trkpt lat="45.2015" lon="5.73445">
        <ele>239.60000610352</ele>
        <time>2021-07-24T06:50:41.000Z</time>
      </trkpt>
      <trkpt lat="45.20161" lon="5.73461">
        <ele>239.60000610352</ele>
        <time>2021-07-24T06:50:46.000Z</time>
      </trkpt>
      <trkpt lat="45.20174" lon="5.73478">
        <ele>239.80000305176</ele>
        <time>2021-07-24T06:50:52.000Z</time>
      </trkpt>
      <trkpt lat="45.20177" lon="5.73481">
        <ele>239.80000305176</ele>
        <time>2021-07-24T06:50:53.000Z</time>
      </trkpt>
      <trkpt lat="45.20189" lon="5.735">
        <ele>239.60000610352</ele>
        <time>2021-07-24T06:51:00.000Z</time>
      </trkpt>
      <trkpt lat="45.20199" lon="5.73517">
        <ele>240</ele>
        <time>2021-07-24T06:51:06.000Z</time>
      </trkpt>
      <trkpt lat="45.202" lon="5.7352">
        <ele>240.19999694824</ele>
        <time>2021-07-24T06:51:07.000Z</time>
      </trkpt>
      <trkpt lat="45.20205" lon="5.73533">
        <ele>240.80000305176</ele>
        <time>2021-07-24T06:51:11.000Z</time>
      </trkpt>
      <trkpt lat="45.20211" lon="5.73549">
        <ele>241</ele>
        <time>2021-07-24T06:51:15.000Z</time>
      </trkpt>
      <trkpt lat="45.20225" lon="5.73568">
        <ele>241</ele>
        <time>2021-07-24T06:51:21.000Z</time>
      </trkpt>
      <trkpt lat="45.20231" lon="5.73574">
        <ele>240.80000305176</ele>
        <time>2021-07-24T06:51:23.000Z</time>
      </trkpt>
      <trkpt lat="45.20234" lon="5.73579">
        <ele>240.39999389648</ele>
        <time>2021-07-24T06:51:25.000Z</time>
      </trkpt>
      <trkpt lat="45.20236" lon="5.73583">
        <ele>240.80000305176</ele>
        <time>2021-07-24T06:51:26.000Z</time>
      </trkpt>
      <trkpt lat="45.20241" lon="5.73594">
        <ele>240.39999389648</ele>
        <time>2021-07-24T06:51:29.000Z</time>
      </trkpt>
      <trkpt lat="45.20246" lon="5.73608">
        <ele>240.80000305176</ele>
        <time>2021-07-24T06:51:32.000Z</time>
      </trkpt>
      <trkpt lat="45.20249" lon="5.7362">
        <ele>240.60000610352</ele>
        <time>2021-07-24T06:51:35.000Z</time>
      </trkpt>
      <trkpt lat="45.20252" lon="5.73635">
        <ele>240.60000610352</ele>
        <time>2021-07-24T06:51:39.000Z</time>
      </trkpt>
      <trkpt lat="45.20252" lon="5.7364">
        <ele>240.80000305176</ele>
        <time>2021-07-24T06:51:40.000Z</time>
      </trkpt>
      <trkpt lat="45.20255" lon="5.73666">
        <ele>241</ele>
        <time>2021-07-24T06:51:45.000Z</time>
      </trkpt>
      <trkpt lat="45.20256" lon="5.73683">
        <ele>240.60000610352</ele>
        <time>2021-07-24T06:51:49.000Z</time>
      </trkpt>
      <trkpt lat="45.20261" lon="5.73703">
        <ele>240.60000610352</ele>
        <time>2021-07-24T06:51:54.000Z</time>
      </trkpt>
      <trkpt lat="45.20264" lon="5.73718">
        <ele>240.60000610352</ele>
        <time>2021-07-24T06:51:58.000Z</time>
      </trkpt>
      <trkpt lat="45.20269" lon="5.73732">
        <ele>240.80000305176</ele>
        <time>2021-07-24T06:52:01.000Z</time>
      </trkpt>
      <trkpt lat="45.2027" lon="5.73758">
        <ele>241.19999694824</ele>
        <time>2021-07-24T06:52:07.000Z</time>
      </trkpt>
      <trkpt lat="45.2027" lon="5.73762">
        <ele>241.19999694824</ele>
        <time>2021-07-24T06:52:08.000Z</time>
      </trkpt>
      <trkpt lat="45.20271" lon="5.73788">
        <ele>241.39999389648</ele>
        <time>2021-07-24T06:52:14.000Z</time>
      </trkpt>
      <trkpt lat="45.20269" lon="5.73818">
        <ele>241.39999389648</ele>
        <time>2021-07-24T06:52:20.000Z</time>
      </trkpt>
      <trkpt lat="45.20268" lon="5.73822">
        <ele>241.19999694824</ele>
        <time>2021-07-24T06:52:21.000Z</time>
      </trkpt>
      <trkpt lat="45.20262" lon="5.7385">
        <ele>241.39999389648</ele>
        <time>2021-07-24T06:52:28.000Z</time>
      </trkpt>
      <trkpt lat="45.20257" lon="5.73871">
        <ele>240.80000305176</ele>
        <time>2021-07-24T06:52:33.000Z</time>
      </trkpt>
      <trkpt lat="45.20254" lon="5.73878">
        <ele>240.80000305176</ele>
        <time>2021-07-24T06:52:35.000Z</time>
      </trkpt>
      <trkpt lat="45.20252" lon="5.73886">
        <ele>241.19999694824</ele>
        <time>2021-07-24T06:52:37.000Z</time>
      </trkpt>
      <trkpt lat="45.20249" lon="5.73907">
        <ele>241.19999694824</ele>
        <time>2021-07-24T06:52:41.000Z</time>
      </trkpt>
      <trkpt lat="45.20247" lon="5.7392">
        <ele>241.39999389648</ele>
        <time>2021-07-24T06:52:44.000Z</time>
      </trkpt>
      <trkpt lat="45.20242" lon="5.73941">
        <ele>241.39999389648</ele>
        <time>2021-07-24T06:52:49.000Z</time>
      </trkpt>
      <trkpt lat="45.20239" lon="5.73949">
        <ele>241.19999694824</ele>
        <time>2021-07-24T06:52:51.000Z</time>
      </trkpt>
      <trkpt lat="45.20234" lon="5.7396">
        <ele>241.80000305176</ele>
        <time>2021-07-24T06:52:54.000Z</time>
      </trkpt>
      <trkpt lat="45.20229" lon="5.73976">
        <ele>241.60000610352</ele>
        <time>2021-07-24T06:52:58.000Z</time>
      </trkpt>
      <trkpt lat="45.20219" lon="5.74001">
        <ele>241.39999389648</ele>
        <time>2021-07-24T06:53:05.000Z</time>
      </trkpt>
      <trkpt lat="45.20213" lon="5.74025">
        <ele>241.60000610352</ele>
        <time>2021-07-24T06:53:11.000Z</time>
      </trkpt>
      <trkpt lat="45.20207" lon="5.74035">
        <ele>240.80000305176</ele>
        <time>2021-07-24T06:53:14.000Z</time>
      </trkpt>
      <trkpt lat="45.20201" lon="5.74045">
        <ele>241.39999389648</ele>
        <time>2021-07-24T06:53:17.000Z</time>
      </trkpt>
      <trkpt lat="45.20196" lon="5.74051">
        <ele>241.39999389648</ele>
        <time>2021-07-24T06:53:19.000Z</time>
      </trkpt>
      <trkpt lat="45.20186" lon="5.74063">
        <ele>241.60000610352</ele>
        <time>2021-07-24T06:53:23.000Z</time>
      </trkpt>
      <trkpt lat="45.2018" lon="5.74077">
        <ele>241.80000305176</ele>
        <time>2021-07-24T06:53:27.000Z</time>
      </trkpt>
      <trkpt lat="45.20175" lon="5.74083">
        <ele>242</ele>
        <time>2021-07-24T06:53:29.000Z</time>
      </trkpt>
      <trkpt lat="45.2017" lon="5.74091">
        <ele>242.39999389648</ele>
        <time>2021-07-24T06:53:32.000Z</time>
      </trkpt>
      <trkpt lat="45.2016" lon="5.74108">
        <ele>242.80000305176</ele>
        <time>2021-07-24T06:53:38.000Z</time>
      </trkpt>
      <trkpt lat="45.20152" lon="5.74123">
        <ele>243.19999694824</ele>
        <time>2021-07-24T06:53:42.000Z</time>
      </trkpt>
      <trkpt lat="45.20151" lon="5.74127">
        <ele>243.19999694824</ele>
        <time>2021-07-24T06:53:43.000Z</time>
      </trkpt>
      <trkpt lat="45.2014" lon="5.74148">
        <ele>243.80000305176</ele>
        <time>2021-07-24T06:53:50.000Z</time>
      </trkpt>
      <trkpt lat="45.20138" lon="5.74151">
        <ele>244.39999389648</ele>
        <time>2021-07-24T06:53:51.000Z</time>
      </trkpt>
      <trkpt lat="45.20132" lon="5.74164">
        <ele>245.39999389648</ele>
        <time>2021-07-24T06:53:55.000Z</time>
      </trkpt>
      <trkpt lat="45.20129" lon="5.74173">
        <ele>245.80000305176</ele>
        <time>2021-07-24T06:53:58.000Z</time>
      </trkpt>
      <trkpt lat="45.20121" lon="5.74185">
        <ele>246</ele>
        <time>2021-07-24T06:54:03.000Z</time>
      </trkpt>
      <trkpt lat="45.20105" lon="5.74194">
        <ele>246</ele>
        <time>2021-07-24T06:54:09.000Z</time>
      </trkpt>
      <trkpt lat="45.20099" lon="5.74193">
        <ele>245.80000305176</ele>
        <time>2021-07-24T06:54:11.000Z</time>
      </trkpt>
      <trkpt lat="45.20091" lon="5.74186">
        <ele>246.19999694824</ele>
        <time>2021-07-24T06:54:14.000Z</time>
      </trkpt>
      <trkpt lat="45.20073" lon="5.74167">
        <ele>246.19999694824</ele>
        <time>2021-07-24T06:54:20.000Z</time>
      </trkpt>
      <trkpt lat="45.2007" lon="5.74163">
        <ele>246.19999694824</ele>
        <time>2021-07-24T06:54:21.000Z</time>
      </trkpt>
      <trkpt lat="45.20068" lon="5.74159">
        <ele>246.39999389648</ele>
        <time>2021-07-24T06:54:22.000Z</time>
      </trkpt>
      <trkpt lat="45.20053" lon="5.74141">
        <ele>246.19999694824</ele>
        <time>2021-07-24T06:54:28.000Z</time>
      </trkpt>
      <trkpt lat="45.2004" lon="5.74125">
        <ele>246.39999389648</ele>
        <time>2021-07-24T06:54:33.000Z</time>
      </trkpt>
      <trkpt lat="45.20033" lon="5.74116">
        <ele>246.60000610352</ele>
        <time>2021-07-24T06:54:36.000Z</time>
      </trkpt>
      <trkpt lat="45.20024" lon="5.74104">
        <ele>246.19999694824</ele>
        <time>2021-07-24T06:54:40.000Z</time>
      </trkpt>
      <trkpt lat="45.20016" lon="5.74097">
        <ele>245.80000305176</ele>
        <time>2021-07-24T06:54:43.000Z</time>
      </trkpt>
      <trkpt lat="45.20009" lon="5.74091">
        <ele>245.39999389648</ele>
        <time>2021-07-24T06:54:46.000Z</time>
      </trkpt>
      <trkpt lat="45.20005" lon="5.7409">
        <ele>245.60000610352</ele>
        <time>2021-07-24T06:54:48.000Z</time>
      </trkpt>
      <trkpt lat="45.20004" lon="5.74091">
        <ele>245.60000610352</ele>
        <time>2021-07-24T06:54:49.000Z</time>
      </trkpt>
      <trkpt lat="45.20001" lon="5.74102">
        <ele>245.19999694824</ele>
        <time>2021-07-24T06:54:52.000Z</time>
      </trkpt>
      <trkpt lat="45.19997" lon="5.74118">
        <ele>244.39999389648</ele>
        <time>2021-07-24T06:54:56.000Z</time>
      </trkpt>
      <trkpt lat="45.19997" lon="5.74122">
        <ele>244.19999694824</ele>
        <time>2021-07-24T06:54:57.000Z</time>
      </trkpt>
      <trkpt lat="45.19996" lon="5.74125">
        <ele>243.60000610352</ele>
        <time>2021-07-24T06:54:58.000Z</time>
      </trkpt>
      <trkpt lat="45.19988" lon="5.74135">
        <ele>243</ele>
        <time>2021-07-24T06:55:01.000Z</time>
      </trkpt>
      <trkpt lat="45.19983" lon="5.74144">
        <ele>242.60000610352</ele>
        <time>2021-07-24T06:55:04.000Z</time>
      </trkpt>
      <trkpt lat="45.19969" lon="5.74161">
        <ele>242.60000610352</ele>
        <time>2021-07-24T06:55:10.000Z</time>
      </trkpt>
      <trkpt lat="45.19951" lon="5.74175">
        <ele>242.60000610352</ele>
        <time>2021-07-24T06:55:16.000Z</time>
      </trkpt>
      <trkpt lat="45.19947" lon="5.7418">
        <ele>242.60000610352</ele>
        <time>2021-07-24T06:55:18.000Z</time>
      </trkpt>
      <trkpt lat="45.19943" lon="5.74182">
        <ele>242.19999694824</ele>
        <time>2021-07-24T06:55:19.000Z</time>
      </trkpt>
      <trkpt lat="45.19928" lon="5.74192">
        <ele>242</ele>
        <time>2021-07-24T06:55:24.000Z</time>
      </trkpt>
      <trkpt lat="45.19922" lon="5.74196">
        <ele>242.60000610352</ele>
        <time>2021-07-24T06:55:26.000Z</time>
      </trkpt>
      <trkpt lat="45.19903" lon="5.74206">
        <ele>242.60000610352</ele>
        <time>2021-07-24T06:55:32.000Z</time>
      </trkpt>
      <trkpt lat="45.19894" lon="5.74211">
        <ele>242.60000610352</ele>
        <time>2021-07-24T06:55:35.000Z</time>
      </trkpt>
      <trkpt lat="45.19886" lon="5.74215">
        <ele>242.60000610352</ele>
        <time>2021-07-24T06:55:38.000Z</time>
      </trkpt>
      <trkpt lat="45.19867" lon="5.74224">
        <ele>242.39999389648</ele>
        <time>2021-07-24T06:55:44.000Z</time>
      </trkpt>
      <trkpt lat="45.19851" lon="5.74234">
        <ele>242.19999694824</ele>
        <time>2021-07-24T06:55:49.000Z</time>
      </trkpt>
      <trkpt lat="45.19844" lon="5.74237">
        <ele>242</ele>
        <time>2021-07-24T06:55:51.000Z</time>
      </trkpt>
      <trkpt lat="45.19832" lon="5.7424">
        <ele>242.19999694824</ele>
        <time>2021-07-24T06:55:54.000Z</time>
      </trkpt>
      <trkpt lat="45.19816" lon="5.74246">
        <ele>242.60000610352</ele>
        <time>2021-07-24T06:55:59.000Z</time>
      </trkpt>
      <trkpt lat="45.19803" lon="5.74251">
        <ele>242.60000610352</ele>
        <time>2021-07-24T06:56:03.000Z</time>
      </trkpt>
      <trkpt lat="45.19782" lon="5.74254">
        <ele>242</ele>
        <time>2021-07-24T06:56:09.000Z</time>
      </trkpt>
      <trkpt lat="45.19762" lon="5.74254">
        <ele>242.80000305176</ele>
        <time>2021-07-24T06:56:15.000Z</time>
      </trkpt>
      <trkpt lat="45.19741" lon="5.74256">
        <ele>242.19999694824</ele>
        <time>2021-07-24T06:56:22.000Z</time>
      </trkpt>
      <trkpt lat="45.19738" lon="5.74257">
        <ele>242</ele>
        <time>2021-07-24T06:56:23.000Z</time>
      </trkpt>
      <trkpt lat="45.19735" lon="5.74256">
        <ele>241.80000305176</ele>
        <time>2021-07-24T06:56:25.000Z</time>
      </trkpt>
      <trkpt lat="45.19734" lon="5.74255">
        <ele>241</ele>
        <time>2021-07-24T06:56:26.000Z</time>
      </trkpt>
      <trkpt lat="45.19733" lon="5.74252">
        <ele>240.80000305176</ele>
        <time>2021-07-24T06:56:27.000Z</time>
      </trkpt>
      <trkpt lat="45.19727" lon="5.74245">
        <ele>240.39999389648</ele>
        <time>2021-07-24T06:56:30.000Z</time>
      </trkpt>
      <trkpt lat="45.19722" lon="5.74235">
        <ele>240.19999694824</ele>
        <time>2021-07-24T06:56:34.000Z</time>
      </trkpt>
      <trkpt lat="45.19723" lon="5.74232">
        <ele>240.39999389648</ele>
        <time>2021-07-24T06:56:35.000Z</time>
      </trkpt>
      <trkpt lat="45.19722" lon="5.7422">
        <ele>240</ele>
        <time>2021-07-24T06:56:38.000Z</time>
      </trkpt>
      <trkpt lat="45.19718" lon="5.74214">
        <ele>240.39999389648</ele>
        <time>2021-07-24T06:56:40.000Z</time>
      </trkpt>
      <trkpt lat="45.19718" lon="5.74211">
        <ele>240.39999389648</ele>
        <time>2021-07-24T06:56:41.000Z</time>
      </trkpt>
      <trkpt lat="45.19717" lon="5.74203">
        <ele>240.39999389648</ele>
        <time>2021-07-24T06:56:43.000Z</time>
      </trkpt>
      <trkpt lat="45.19716" lon="5.74199">
        <ele>240.39999389648</ele>
        <time>2021-07-24T06:56:44.000Z</time>
      </trkpt>
      <trkpt lat="45.19708" lon="5.74175">
        <ele>240.60000610352</ele>
        <time>2021-07-24T06:56:50.000Z</time>
      </trkpt>
      <trkpt lat="45.19707" lon="5.74171">
        <ele>240.60000610352</ele>
        <time>2021-07-24T06:56:51.000Z</time>
      </trkpt>
      <trkpt lat="45.19706" lon="5.74143">
        <ele>240.80000305176</ele>
        <time>2021-07-24T06:56:57.000Z</time>
      </trkpt>
      <trkpt lat="45.19699" lon="5.74118">
        <ele>240.60000610352</ele>
        <time>2021-07-24T06:57:02.000Z</time>
      </trkpt>
      <trkpt lat="45.19697" lon="5.74098">
        <ele>240.60000610352</ele>
        <time>2021-07-24T06:57:07.000Z</time>
      </trkpt>
      <trkpt lat="45.19691" lon="5.74073">
        <ele>240.60000610352</ele>
        <time>2021-07-24T06:57:13.000Z</time>
      </trkpt>
      <trkpt lat="45.19682" lon="5.74047">
        <ele>240.60000610352</ele>
        <time>2021-07-24T06:57:20.000Z</time>
      </trkpt>
      <trkpt lat="45.19681" lon="5.74043">
        <ele>240.60000610352</ele>
        <time>2021-07-24T06:57:21.000Z</time>
      </trkpt>
      <trkpt lat="45.19679" lon="5.7403">
        <ele>240.60000610352</ele>
        <time>2021-07-24T06:57:24.000Z</time>
      </trkpt>
      <trkpt lat="45.19676" lon="5.74022">
        <ele>240.60000610352</ele>
        <time>2021-07-24T06:57:26.000Z</time>
      </trkpt>
      <trkpt lat="45.19674" lon="5.7402">
        <ele>240.60000610352</ele>
        <time>2021-07-24T06:57:27.000Z</time>
      </trkpt>
      <trkpt lat="45.1967" lon="5.74018">
        <ele>240.80000305176</ele>
        <time>2021-07-24T06:57:30.000Z</time>
      </trkpt>
      <trkpt lat="45.19665" lon="5.74019">
        <ele>240.80000305176</ele>
        <time>2021-07-24T06:57:32.000Z</time>
      </trkpt>
      <trkpt lat="45.19646" lon="5.74018">
        <ele>240.80000305176</ele>
        <time>2021-07-24T06:57:38.000Z</time>
      </trkpt>
      <trkpt lat="45.19644" lon="5.74019">
        <ele>240.60000610352</ele>
        <time>2021-07-24T06:57:39.000Z</time>
      </trkpt>
      <trkpt lat="45.19638" lon="5.74018">
        <ele>240.39999389648</ele>
        <time>2021-07-24T06:57:41.000Z</time>
      </trkpt>
      <trkpt lat="45.19629" lon="5.74016">
        <ele>240.39999389648</ele>
        <time>2021-07-24T06:57:44.000Z</time>
      </trkpt>
      <trkpt lat="45.19614" lon="5.74007">
        <ele>240.19999694824</ele>
        <time>2021-07-24T06:57:49.000Z</time>
      </trkpt>
      <trkpt lat="45.19613" lon="5.74003">
        <ele>240.19999694824</ele>
        <time>2021-07-24T06:57:50.000Z</time>
      </trkpt>
      <trkpt lat="45.19614" lon="5.7399">
        <ele>240.19999694824</ele>
        <time>2021-07-24T06:57:53.000Z</time>
      </trkpt>
      <trkpt lat="45.19616" lon="5.73985">
        <ele>240.19999694824</ele>
        <time>2021-07-24T06:57:55.000Z</time>
      </trkpt>
      <trkpt lat="45.1962" lon="5.73982">
        <ele>240.19999694824</ele>
        <time>2021-07-24T06:57:57.000Z</time>
      </trkpt>
      <trkpt lat="45.1963" lon="5.73981">
        <ele>240.39999389648</ele>
        <time>2021-07-24T06:58:03.000Z</time>
      </trkpt>
      <trkpt lat="45.19632" lon="5.73981">
        <ele>240.39999389648</ele>
        <time>2021-07-24T06:58:05.000Z</time>
      </trkpt>
      <trkpt lat="45.19633" lon="5.7398">
        <ele>240.39999389648</ele>
        <time>2021-07-24T06:58:07.000Z</time>
      </trkpt>
      <trkpt lat="45.19632" lon="5.73978">
        <ele>240.39999389648</ele>
        <time>2021-07-24T06:58:11.000Z</time>
      </trkpt>
      <trkpt lat="45.19633" lon="5.73979">
        <ele>240.39999389648</ele>
        <time>2021-07-24T06:58:13.000Z</time>
      </trkpt>
      <trkpt lat="45.19633" lon="5.7398">
        <ele>240.39999389648</ele>
        <time>2021-07-24T06:58:14.000Z</time>
      </trkpt>
      <trkpt lat="45.19642" lon="5.73969">
        <ele>248.39999389648</ele>
        <time>2021-07-24T06:59:01.000Z</time>
      </trkpt>
      <trkpt lat="45.19647" lon="5.73971">
        <ele>248.39999389648</ele>
        <time>2021-07-24T06:59:02.000Z</time>
      </trkpt>
      <trkpt lat="45.19655" lon="5.73972">
        <ele>248.39999389648</ele>
        <time>2021-07-24T06:59:05.000Z</time>
      </trkpt>
    </trkseg>
  </trk>
</gpx>